<?xml version="1.0" encoding="UTF-8" standalone="no" ?>
<gpx xmlns="http://www.topografix.com/GPX/1/1" xmlns:xsi="http://www.w3.org/2001/XMLSchema-instance" xsi:schemaLocation="http://www.topografix.com/GPX/1/1 http://www.topografix.com/GPX/1/1/gpx.xsd" version="1.1" creator="VisuGPX - https://www.visugpx.com">
  <metadata>
    <name>D  Paucourt</name>
    <desc><![CDATA[singles et montées]]></desc>
  </metadata>
  <trk>
    <name><![CDATA[D  Paucourt_1]]></name>
    <trkseg>
      <trkpt lat="48.08084" lon="2.82728">
        <ele>109</ele>
        <time>2015-11-19T08:40:56Z</time>
      </trkpt>
      <trkpt lat="48.08111" lon="2.82771">
        <ele>110</ele>
        <time>2015-11-19T08:41:19Z</time>
      </trkpt>
      <trkpt lat="48.08112" lon="2.82776">
        <ele>110</ele>
        <time>2015-11-19T08:41:20Z</time>
      </trkpt>
      <trkpt lat="48.08111" lon="2.8278">
        <ele>110</ele>
        <time>2015-11-19T08:41:21Z</time>
      </trkpt>
      <trkpt lat="48.08109" lon="2.82783">
        <ele>110</ele>
        <time>2015-11-19T08:41:22Z</time>
      </trkpt>
      <trkpt lat="48.08105" lon="2.82787">
        <ele>110</ele>
        <time>2015-11-19T08:41:23Z</time>
      </trkpt>
      <trkpt lat="48.08102" lon="2.8279">
        <ele>110</ele>
        <time>2015-11-19T08:41:24Z</time>
      </trkpt>
      <trkpt lat="48.08096" lon="2.82798">
        <ele>110</ele>
        <time>2015-11-19T08:41:26Z</time>
      </trkpt>
      <trkpt lat="48.08092" lon="2.82802">
        <ele>110</ele>
        <time>2015-11-19T08:41:27Z</time>
      </trkpt>
      <trkpt lat="48.08089" lon="2.82805">
        <ele>110</ele>
        <time>2015-11-19T08:41:28Z</time>
      </trkpt>
      <trkpt lat="48.08085" lon="2.82809">
        <ele>110</ele>
        <time>2015-11-19T08:41:29Z</time>
      </trkpt>
      <trkpt lat="48.08078" lon="2.82818">
        <ele>109</ele>
        <time>2015-11-19T08:41:31Z</time>
      </trkpt>
      <trkpt lat="48.08072" lon="2.82826">
        <ele>109</ele>
        <time>2015-11-19T08:41:33Z</time>
      </trkpt>
      <trkpt lat="48.08068" lon="2.82831">
        <ele>109</ele>
        <time>2015-11-19T08:41:34Z</time>
      </trkpt>
      <trkpt lat="48.08065" lon="2.82835">
        <ele>109</ele>
        <time>2015-11-19T08:41:35Z</time>
      </trkpt>
      <trkpt lat="48.08061" lon="2.82838">
        <ele>109</ele>
        <time>2015-11-19T08:41:36Z</time>
      </trkpt>
      <trkpt lat="48.08057" lon="2.82842">
        <ele>109</ele>
        <time>2015-11-19T08:41:37Z</time>
      </trkpt>
      <trkpt lat="48.08054" lon="2.82846">
        <ele>109</ele>
        <time>2015-11-19T08:41:38Z</time>
      </trkpt>
      <trkpt lat="48.08051" lon="2.82849">
        <ele>109</ele>
        <time>2015-11-19T08:41:39Z</time>
      </trkpt>
      <trkpt lat="48.08048" lon="2.82852">
        <ele>109</ele>
        <time>2015-11-19T08:41:40Z</time>
      </trkpt>
      <trkpt lat="48.08045" lon="2.82856">
        <ele>109</ele>
        <time>2015-11-19T08:41:41Z</time>
      </trkpt>
      <trkpt lat="48.08041" lon="2.82859">
        <ele>109</ele>
        <time>2015-11-19T08:41:42Z</time>
      </trkpt>
      <trkpt lat="48.08038" lon="2.82863">
        <ele>109</ele>
        <time>2015-11-19T08:41:43Z</time>
      </trkpt>
      <trkpt lat="48.08034" lon="2.82867">
        <ele>109</ele>
        <time>2015-11-19T08:41:44Z</time>
      </trkpt>
      <trkpt lat="48.0803" lon="2.82871">
        <ele>109</ele>
        <time>2015-11-19T08:41:45Z</time>
      </trkpt>
      <trkpt lat="48.08027" lon="2.82875">
        <ele>109</ele>
        <time>2015-11-19T08:41:46Z</time>
      </trkpt>
      <trkpt lat="48.08023" lon="2.82878">
        <ele>109</ele>
        <time>2015-11-19T08:41:47Z</time>
      </trkpt>
      <trkpt lat="48.0802" lon="2.82881">
        <ele>109</ele>
        <time>2015-11-19T08:41:48Z</time>
      </trkpt>
      <trkpt lat="48.08016" lon="2.82885">
        <ele>109</ele>
        <time>2015-11-19T08:41:49Z</time>
      </trkpt>
      <trkpt lat="48.08013" lon="2.82889">
        <ele>109</ele>
        <time>2015-11-19T08:41:50Z</time>
      </trkpt>
      <trkpt lat="48.08011" lon="2.82892">
        <ele>109</ele>
        <time>2015-11-19T08:41:51Z</time>
      </trkpt>
      <trkpt lat="48.08008" lon="2.82895">
        <ele>109</ele>
        <time>2015-11-19T08:41:52Z</time>
      </trkpt>
      <trkpt lat="48.08006" lon="2.82899">
        <ele>109</ele>
        <time>2015-11-19T08:41:53Z</time>
      </trkpt>
      <trkpt lat="48.08004" lon="2.82902">
        <ele>110</ele>
        <time>2015-11-19T08:41:54Z</time>
      </trkpt>
      <trkpt lat="48.08001" lon="2.82905">
        <ele>111</ele>
        <time>2015-11-19T08:41:55Z</time>
      </trkpt>
      <trkpt lat="48.07998" lon="2.82909">
        <ele>112</ele>
        <time>2015-11-19T08:41:56Z</time>
      </trkpt>
      <trkpt lat="48.07993" lon="2.82911">
        <ele>113</ele>
        <time>2015-11-19T08:41:57Z</time>
      </trkpt>
      <trkpt lat="48.07989" lon="2.82914">
        <ele>113</ele>
        <time>2015-11-19T08:41:58Z</time>
      </trkpt>
      <trkpt lat="48.07985" lon="2.82914">
        <ele>113</ele>
        <time>2015-11-19T08:41:59Z</time>
      </trkpt>
      <trkpt lat="48.07977" lon="2.8291">
        <ele>113</ele>
        <time>2015-11-19T08:42:01Z</time>
      </trkpt>
      <trkpt lat="48.07973" lon="2.82907">
        <ele>113</ele>
        <time>2015-11-19T08:42:02Z</time>
      </trkpt>
      <trkpt lat="48.07969" lon="2.82905">
        <ele>113</ele>
        <time>2015-11-19T08:42:03Z</time>
      </trkpt>
      <trkpt lat="48.07965" lon="2.82902">
        <ele>113</ele>
        <time>2015-11-19T08:42:04Z</time>
      </trkpt>
      <trkpt lat="48.07957" lon="2.82896">
        <ele>113</ele>
        <time>2015-11-19T08:42:06Z</time>
      </trkpt>
      <trkpt lat="48.07953" lon="2.82893">
        <ele>113</ele>
        <time>2015-11-19T08:42:07Z</time>
      </trkpt>
      <trkpt lat="48.07949" lon="2.8289">
        <ele>113</ele>
        <time>2015-11-19T08:42:08Z</time>
      </trkpt>
      <trkpt lat="48.07945" lon="2.82887">
        <ele>113</ele>
        <time>2015-11-19T08:42:09Z</time>
      </trkpt>
      <trkpt lat="48.07941" lon="2.82884">
        <ele>113</ele>
        <time>2015-11-19T08:42:10Z</time>
      </trkpt>
      <trkpt lat="48.07936" lon="2.8288">
        <ele>113</ele>
        <time>2015-11-19T08:42:11Z</time>
      </trkpt>
      <trkpt lat="48.07932" lon="2.82876">
        <ele>113</ele>
        <time>2015-11-19T08:42:12Z</time>
      </trkpt>
      <trkpt lat="48.07928" lon="2.82873">
        <ele>113</ele>
        <time>2015-11-19T08:42:13Z</time>
      </trkpt>
      <trkpt lat="48.07924" lon="2.82869">
        <ele>113</ele>
        <time>2015-11-19T08:42:14Z</time>
      </trkpt>
      <trkpt lat="48.07919" lon="2.82866">
        <ele>113</ele>
        <time>2015-11-19T08:42:15Z</time>
      </trkpt>
      <trkpt lat="48.07914" lon="2.82862">
        <ele>113</ele>
        <time>2015-11-19T08:42:16Z</time>
      </trkpt>
      <trkpt lat="48.0791" lon="2.82859">
        <ele>113</ele>
        <time>2015-11-19T08:42:17Z</time>
      </trkpt>
      <trkpt lat="48.07906" lon="2.82855">
        <ele>113</ele>
        <time>2015-11-19T08:42:18Z</time>
      </trkpt>
      <trkpt lat="48.07902" lon="2.82851">
        <ele>113</ele>
        <time>2015-11-19T08:42:19Z</time>
      </trkpt>
      <trkpt lat="48.07898" lon="2.82847">
        <ele>113</ele>
        <time>2015-11-19T08:42:20Z</time>
      </trkpt>
      <trkpt lat="48.07894" lon="2.82843">
        <ele>113</ele>
        <time>2015-11-19T08:42:21Z</time>
      </trkpt>
      <trkpt lat="48.07889" lon="2.8284">
        <ele>113</ele>
        <time>2015-11-19T08:42:22Z</time>
      </trkpt>
      <trkpt lat="48.07885" lon="2.82837">
        <ele>113</ele>
        <time>2015-11-19T08:42:23Z</time>
      </trkpt>
      <trkpt lat="48.0788" lon="2.82834">
        <ele>113</ele>
        <time>2015-11-19T08:42:24Z</time>
      </trkpt>
      <trkpt lat="48.07876" lon="2.82831">
        <ele>113</ele>
        <time>2015-11-19T08:42:25Z</time>
      </trkpt>
      <trkpt lat="48.07872" lon="2.82827">
        <ele>113</ele>
        <time>2015-11-19T08:42:26Z</time>
      </trkpt>
      <trkpt lat="48.07868" lon="2.82822">
        <ele>113</ele>
        <time>2015-11-19T08:42:27Z</time>
      </trkpt>
      <trkpt lat="48.07863" lon="2.82819">
        <ele>113</ele>
        <time>2015-11-19T08:42:28Z</time>
      </trkpt>
      <trkpt lat="48.07857" lon="2.82816">
        <ele>113</ele>
        <time>2015-11-19T08:42:29Z</time>
      </trkpt>
      <trkpt lat="48.07852" lon="2.82813">
        <ele>113</ele>
        <time>2015-11-19T08:42:30Z</time>
      </trkpt>
      <trkpt lat="48.07847" lon="2.8281">
        <ele>113</ele>
        <time>2015-11-19T08:42:31Z</time>
      </trkpt>
      <trkpt lat="48.07842" lon="2.82808">
        <ele>113</ele>
        <time>2015-11-19T08:42:32Z</time>
      </trkpt>
      <trkpt lat="48.07837" lon="2.82805">
        <ele>113</ele>
        <time>2015-11-19T08:42:33Z</time>
      </trkpt>
      <trkpt lat="48.07833" lon="2.82802">
        <ele>113</ele>
        <time>2015-11-19T08:42:34Z</time>
      </trkpt>
      <trkpt lat="48.07828" lon="2.82799">
        <ele>113</ele>
        <time>2015-11-19T08:42:35Z</time>
      </trkpt>
      <trkpt lat="48.07824" lon="2.82796">
        <ele>113</ele>
        <time>2015-11-19T08:42:36Z</time>
      </trkpt>
      <trkpt lat="48.07819" lon="2.82794">
        <ele>113</ele>
        <time>2015-11-19T08:42:37Z</time>
      </trkpt>
      <trkpt lat="48.07815" lon="2.82792">
        <ele>113</ele>
        <time>2015-11-19T08:42:38Z</time>
      </trkpt>
      <trkpt lat="48.07811" lon="2.8279">
        <ele>113</ele>
        <time>2015-11-19T08:42:39Z</time>
      </trkpt>
      <trkpt lat="48.07806" lon="2.82788">
        <ele>113</ele>
        <time>2015-11-19T08:42:40Z</time>
      </trkpt>
      <trkpt lat="48.07802" lon="2.82786">
        <ele>113</ele>
        <time>2015-11-19T08:42:41Z</time>
      </trkpt>
      <trkpt lat="48.07798" lon="2.82784">
        <ele>113</ele>
        <time>2015-11-19T08:42:42Z</time>
      </trkpt>
      <trkpt lat="48.07795" lon="2.82781">
        <ele>113</ele>
        <time>2015-11-19T08:42:43Z</time>
      </trkpt>
      <trkpt lat="48.07793" lon="2.82778">
        <ele>113</ele>
        <time>2015-11-19T08:42:44Z</time>
      </trkpt>
      <trkpt lat="48.07792" lon="2.82773">
        <ele>113</ele>
        <time>2015-11-19T08:42:45Z</time>
      </trkpt>
      <trkpt lat="48.07792" lon="2.82768">
        <ele>113</ele>
        <time>2015-11-19T08:42:46Z</time>
      </trkpt>
      <trkpt lat="48.07794" lon="2.82761">
        <ele>113</ele>
        <time>2015-11-19T08:42:47Z</time>
      </trkpt>
      <trkpt lat="48.07797" lon="2.82755">
        <ele>113</ele>
        <time>2015-11-19T08:42:48Z</time>
      </trkpt>
      <trkpt lat="48.078" lon="2.82748">
        <ele>113</ele>
        <time>2015-11-19T08:42:49Z</time>
      </trkpt>
      <trkpt lat="48.07804" lon="2.8274">
        <ele>113</ele>
        <time>2015-11-19T08:42:50Z</time>
      </trkpt>
      <trkpt lat="48.07808" lon="2.82733">
        <ele>113</ele>
        <time>2015-11-19T08:42:51Z</time>
      </trkpt>
      <trkpt lat="48.07811" lon="2.82726">
        <ele>113</ele>
        <time>2015-11-19T08:42:52Z</time>
      </trkpt>
      <trkpt lat="48.07815" lon="2.82718">
        <ele>113</ele>
        <time>2015-11-19T08:42:53Z</time>
      </trkpt>
      <trkpt lat="48.07819" lon="2.8271">
        <ele>113</ele>
        <time>2015-11-19T08:42:54Z</time>
      </trkpt>
      <trkpt lat="48.07823" lon="2.82702">
        <ele>113</ele>
        <time>2015-11-19T08:42:55Z</time>
      </trkpt>
      <trkpt lat="48.07828" lon="2.82694">
        <ele>113</ele>
        <time>2015-11-19T08:42:56Z</time>
      </trkpt>
      <trkpt lat="48.07832" lon="2.82685">
        <ele>113</ele>
        <time>2015-11-19T08:42:57Z</time>
      </trkpt>
      <trkpt lat="48.07836" lon="2.82675">
        <ele>113</ele>
        <time>2015-11-19T08:42:58Z</time>
      </trkpt>
      <trkpt lat="48.07839" lon="2.82665">
        <ele>113</ele>
        <time>2015-11-19T08:42:59Z</time>
      </trkpt>
      <trkpt lat="48.0784" lon="2.82653">
        <ele>113</ele>
        <time>2015-11-19T08:43:00Z</time>
      </trkpt>
      <trkpt lat="48.0784" lon="2.82642">
        <ele>113</ele>
        <time>2015-11-19T08:43:01Z</time>
      </trkpt>
      <trkpt lat="48.07838" lon="2.82631">
        <ele>112</ele>
        <time>2015-11-19T08:43:02Z</time>
      </trkpt>
      <trkpt lat="48.07834" lon="2.82621">
        <ele>111</ele>
        <time>2015-11-19T08:43:03Z</time>
      </trkpt>
      <trkpt lat="48.0783" lon="2.82611">
        <ele>110</ele>
        <time>2015-11-19T08:43:04Z</time>
      </trkpt>
      <trkpt lat="48.07821" lon="2.82605">
        <ele>109</ele>
        <time>2015-11-19T08:43:05Z</time>
      </trkpt>
      <trkpt lat="48.07803" lon="2.82597">
        <ele>107</ele>
        <time>2015-11-19T08:43:07Z</time>
      </trkpt>
      <trkpt lat="48.07794" lon="2.82596">
        <ele>106</ele>
        <time>2015-11-19T08:43:08Z</time>
      </trkpt>
      <trkpt lat="48.07785" lon="2.82594">
        <ele>106</ele>
        <time>2015-11-19T08:43:09Z</time>
      </trkpt>
      <trkpt lat="48.07777" lon="2.82594">
        <ele>105</ele>
        <time>2015-11-19T08:43:10Z</time>
      </trkpt>
      <trkpt lat="48.07768" lon="2.82595">
        <ele>105</ele>
        <time>2015-11-19T08:43:11Z</time>
      </trkpt>
      <trkpt lat="48.07759" lon="2.82597">
        <ele>105</ele>
        <time>2015-11-19T08:43:12Z</time>
      </trkpt>
      <trkpt lat="48.0775" lon="2.82602">
        <ele>105</ele>
        <time>2015-11-19T08:43:13Z</time>
      </trkpt>
      <trkpt lat="48.07742" lon="2.82608">
        <ele>104</ele>
        <time>2015-11-19T08:43:14Z</time>
      </trkpt>
      <trkpt lat="48.07734" lon="2.82615">
        <ele>104</ele>
        <time>2015-11-19T08:43:15Z</time>
      </trkpt>
      <trkpt lat="48.07727" lon="2.82624">
        <ele>104</ele>
        <time>2015-11-19T08:43:16Z</time>
      </trkpt>
      <trkpt lat="48.07721" lon="2.82633">
        <ele>103</ele>
        <time>2015-11-19T08:43:17Z</time>
      </trkpt>
      <trkpt lat="48.07715" lon="2.82644">
        <ele>102</ele>
        <time>2015-11-19T08:43:18Z</time>
      </trkpt>
      <trkpt lat="48.07711" lon="2.82656">
        <ele>102</ele>
        <time>2015-11-19T08:43:19Z</time>
      </trkpt>
      <trkpt lat="48.07707" lon="2.82669">
        <ele>101</ele>
        <time>2015-11-19T08:43:20Z</time>
      </trkpt>
      <trkpt lat="48.07703" lon="2.82682">
        <ele>100</ele>
        <time>2015-11-19T08:43:21Z</time>
      </trkpt>
      <trkpt lat="48.077" lon="2.82696">
        <ele>99</ele>
        <time>2015-11-19T08:43:22Z</time>
      </trkpt>
      <trkpt lat="48.077" lon="2.82727">
        <ele>98</ele>
        <time>2015-11-19T08:43:24Z</time>
      </trkpt>
      <trkpt lat="48.07699" lon="2.82741">
        <ele>97</ele>
        <time>2015-11-19T08:43:25Z</time>
      </trkpt>
      <trkpt lat="48.07691" lon="2.82766">
        <ele>96</ele>
        <time>2015-11-19T08:43:27Z</time>
      </trkpt>
      <trkpt lat="48.07682" lon="2.82772">
        <ele>96</ele>
        <time>2015-11-19T08:43:28Z</time>
      </trkpt>
      <trkpt lat="48.07672" lon="2.82776">
        <ele>96</ele>
        <time>2015-11-19T08:43:29Z</time>
      </trkpt>
      <trkpt lat="48.07662" lon="2.82779">
        <ele>96</ele>
        <time>2015-11-19T08:43:30Z</time>
      </trkpt>
      <trkpt lat="48.07652" lon="2.8278">
        <ele>96</ele>
        <time>2015-11-19T08:43:31Z</time>
      </trkpt>
      <trkpt lat="48.07644" lon="2.8278">
        <ele>96</ele>
        <time>2015-11-19T08:43:32Z</time>
      </trkpt>
      <trkpt lat="48.07635" lon="2.8278">
        <ele>96</ele>
        <time>2015-11-19T08:43:33Z</time>
      </trkpt>
      <trkpt lat="48.07626" lon="2.82782">
        <ele>96</ele>
        <time>2015-11-19T08:43:34Z</time>
      </trkpt>
      <trkpt lat="48.07618" lon="2.82783">
        <ele>96</ele>
        <time>2015-11-19T08:43:35Z</time>
      </trkpt>
      <trkpt lat="48.0761" lon="2.82783">
        <ele>97</ele>
        <time>2015-11-19T08:43:36Z</time>
      </trkpt>
      <trkpt lat="48.07602" lon="2.82785">
        <ele>97</ele>
        <time>2015-11-19T08:43:37Z</time>
      </trkpt>
      <trkpt lat="48.07595" lon="2.82786">
        <ele>97</ele>
        <time>2015-11-19T08:43:38Z</time>
      </trkpt>
      <trkpt lat="48.07587" lon="2.82786">
        <ele>97</ele>
        <time>2015-11-19T08:43:39Z</time>
      </trkpt>
      <trkpt lat="48.07578" lon="2.82786">
        <ele>97</ele>
        <time>2015-11-19T08:43:40Z</time>
      </trkpt>
      <trkpt lat="48.0757" lon="2.82786">
        <ele>97</ele>
        <time>2015-11-19T08:43:41Z</time>
      </trkpt>
      <trkpt lat="48.07563" lon="2.82783">
        <ele>97</ele>
        <time>2015-11-19T08:43:42Z</time>
      </trkpt>
      <trkpt lat="48.07555" lon="2.8278">
        <ele>97</ele>
        <time>2015-11-19T08:43:43Z</time>
      </trkpt>
      <trkpt lat="48.07548" lon="2.82777">
        <ele>97</ele>
        <time>2015-11-19T08:43:44Z</time>
      </trkpt>
      <trkpt lat="48.07541" lon="2.82774">
        <ele>97</ele>
        <time>2015-11-19T08:43:45Z</time>
      </trkpt>
      <trkpt lat="48.07535" lon="2.82771">
        <ele>97</ele>
        <time>2015-11-19T08:43:46Z</time>
      </trkpt>
      <trkpt lat="48.07529" lon="2.82769">
        <ele>97</ele>
        <time>2015-11-19T08:43:47Z</time>
      </trkpt>
      <trkpt lat="48.07522" lon="2.82766">
        <ele>97</ele>
        <time>2015-11-19T08:43:48Z</time>
      </trkpt>
      <trkpt lat="48.07516" lon="2.82763">
        <ele>97</ele>
        <time>2015-11-19T08:43:49Z</time>
      </trkpt>
      <trkpt lat="48.0751" lon="2.82761">
        <ele>97</ele>
        <time>2015-11-19T08:43:50Z</time>
      </trkpt>
      <trkpt lat="48.07504" lon="2.82758">
        <ele>97</ele>
        <time>2015-11-19T08:43:51Z</time>
      </trkpt>
      <trkpt lat="48.07498" lon="2.82756">
        <ele>97</ele>
        <time>2015-11-19T08:43:52Z</time>
      </trkpt>
      <trkpt lat="48.07492" lon="2.82753">
        <ele>97</ele>
        <time>2015-11-19T08:43:53Z</time>
      </trkpt>
      <trkpt lat="48.07487" lon="2.82751">
        <ele>97</ele>
        <time>2015-11-19T08:43:54Z</time>
      </trkpt>
      <trkpt lat="48.07482" lon="2.82749">
        <ele>97</ele>
        <time>2015-11-19T08:43:55Z</time>
      </trkpt>
      <trkpt lat="48.07472" lon="2.82745">
        <ele>97</ele>
        <time>2015-11-19T08:43:57Z</time>
      </trkpt>
      <trkpt lat="48.07467" lon="2.82743">
        <ele>97</ele>
        <time>2015-11-19T08:43:58Z</time>
      </trkpt>
      <trkpt lat="48.07462" lon="2.82741">
        <ele>97</ele>
        <time>2015-11-19T08:43:59Z</time>
      </trkpt>
      <trkpt lat="48.07458" lon="2.82739">
        <ele>97</ele>
        <time>2015-11-19T08:44:00Z</time>
      </trkpt>
      <trkpt lat="48.07453" lon="2.82737">
        <ele>97</ele>
        <time>2015-11-19T08:44:01Z</time>
      </trkpt>
      <trkpt lat="48.07449" lon="2.82736">
        <ele>97</ele>
        <time>2015-11-19T08:44:02Z</time>
      </trkpt>
      <trkpt lat="48.07444" lon="2.82734">
        <ele>97</ele>
        <time>2015-11-19T08:44:03Z</time>
      </trkpt>
      <trkpt lat="48.07439" lon="2.82732">
        <ele>97</ele>
        <time>2015-11-19T08:44:04Z</time>
      </trkpt>
      <trkpt lat="48.07435" lon="2.8273">
        <ele>97</ele>
        <time>2015-11-19T08:44:05Z</time>
      </trkpt>
      <trkpt lat="48.0743" lon="2.82728">
        <ele>97</ele>
        <time>2015-11-19T08:44:06Z</time>
      </trkpt>
      <trkpt lat="48.07426" lon="2.82726">
        <ele>97</ele>
        <time>2015-11-19T08:44:07Z</time>
      </trkpt>
      <trkpt lat="48.07421" lon="2.82725">
        <ele>97</ele>
        <time>2015-11-19T08:44:08Z</time>
      </trkpt>
      <trkpt lat="48.07417" lon="2.82723">
        <ele>97</ele>
        <time>2015-11-19T08:44:09Z</time>
      </trkpt>
      <trkpt lat="48.07412" lon="2.82721">
        <ele>97</ele>
        <time>2015-11-19T08:44:10Z</time>
      </trkpt>
      <trkpt lat="48.07407" lon="2.82719">
        <ele>97</ele>
        <time>2015-11-19T08:44:11Z</time>
      </trkpt>
      <trkpt lat="48.07403" lon="2.82717">
        <ele>97</ele>
        <time>2015-11-19T08:44:12Z</time>
      </trkpt>
      <trkpt lat="48.07399" lon="2.82716">
        <ele>97</ele>
        <time>2015-11-19T08:44:13Z</time>
      </trkpt>
      <trkpt lat="48.07394" lon="2.82714">
        <ele>97</ele>
        <time>2015-11-19T08:44:14Z</time>
      </trkpt>
      <trkpt lat="48.0739" lon="2.82712">
        <ele>97</ele>
        <time>2015-11-19T08:44:15Z</time>
      </trkpt>
      <trkpt lat="48.07386" lon="2.82711">
        <ele>97</ele>
        <time>2015-11-19T08:44:16Z</time>
      </trkpt>
      <trkpt lat="48.07382" lon="2.8271">
        <ele>97</ele>
        <time>2015-11-19T08:44:17Z</time>
      </trkpt>
      <trkpt lat="48.07378" lon="2.82708">
        <ele>97</ele>
        <time>2015-11-19T08:44:18Z</time>
      </trkpt>
      <trkpt lat="48.07375" lon="2.82706">
        <ele>97</ele>
        <time>2015-11-19T08:44:19Z</time>
      </trkpt>
      <trkpt lat="48.07371" lon="2.82704">
        <ele>97</ele>
        <time>2015-11-19T08:44:20Z</time>
      </trkpt>
      <trkpt lat="48.07367" lon="2.82703">
        <ele>97</ele>
        <time>2015-11-19T08:44:21Z</time>
      </trkpt>
      <trkpt lat="48.07364" lon="2.82701">
        <ele>97</ele>
        <time>2015-11-19T08:44:22Z</time>
      </trkpt>
      <trkpt lat="48.0736" lon="2.827">
        <ele>97</ele>
        <time>2015-11-19T08:44:23Z</time>
      </trkpt>
      <trkpt lat="48.07356" lon="2.82699">
        <ele>97</ele>
        <time>2015-11-19T08:44:24Z</time>
      </trkpt>
      <trkpt lat="48.07353" lon="2.82697">
        <ele>97</ele>
        <time>2015-11-19T08:44:25Z</time>
      </trkpt>
      <trkpt lat="48.07349" lon="2.82696">
        <ele>97</ele>
        <time>2015-11-19T08:44:26Z</time>
      </trkpt>
      <trkpt lat="48.07346" lon="2.82694">
        <ele>97</ele>
        <time>2015-11-19T08:44:27Z</time>
      </trkpt>
      <trkpt lat="48.07342" lon="2.82693">
        <ele>97</ele>
        <time>2015-11-19T08:44:28Z</time>
      </trkpt>
      <trkpt lat="48.07339" lon="2.82692">
        <ele>97</ele>
        <time>2015-11-19T08:44:29Z</time>
      </trkpt>
      <trkpt lat="48.07335" lon="2.8269">
        <ele>97</ele>
        <time>2015-11-19T08:44:30Z</time>
      </trkpt>
      <trkpt lat="48.07332" lon="2.82689">
        <ele>97</ele>
        <time>2015-11-19T08:44:31Z</time>
      </trkpt>
      <trkpt lat="48.07328" lon="2.82687">
        <ele>97</ele>
        <time>2015-11-19T08:44:32Z</time>
      </trkpt>
      <trkpt lat="48.07325" lon="2.82686">
        <ele>97</ele>
        <time>2015-11-19T08:44:33Z</time>
      </trkpt>
      <trkpt lat="48.07322" lon="2.82684">
        <ele>97</ele>
        <time>2015-11-19T08:44:34Z</time>
      </trkpt>
      <trkpt lat="48.07318" lon="2.82683">
        <ele>97</ele>
        <time>2015-11-19T08:44:35Z</time>
      </trkpt>
      <trkpt lat="48.07315" lon="2.82682">
        <ele>97</ele>
        <time>2015-11-19T08:44:36Z</time>
      </trkpt>
      <trkpt lat="48.07308" lon="2.82679">
        <ele>97</ele>
        <time>2015-11-19T08:44:38Z</time>
      </trkpt>
      <trkpt lat="48.07305" lon="2.82678">
        <ele>97</ele>
        <time>2015-11-19T08:44:39Z</time>
      </trkpt>
      <trkpt lat="48.07301" lon="2.82677">
        <ele>97</ele>
        <time>2015-11-19T08:44:40Z</time>
      </trkpt>
      <trkpt lat="48.07298" lon="2.82675">
        <ele>97</ele>
        <time>2015-11-19T08:44:41Z</time>
      </trkpt>
      <trkpt lat="48.07295" lon="2.82674">
        <ele>98</ele>
        <time>2015-11-19T08:44:42Z</time>
      </trkpt>
      <trkpt lat="48.07291" lon="2.82673">
        <ele>98</ele>
        <time>2015-11-19T08:44:43Z</time>
      </trkpt>
      <trkpt lat="48.07288" lon="2.82671">
        <ele>98</ele>
        <time>2015-11-19T08:44:44Z</time>
      </trkpt>
      <trkpt lat="48.07285" lon="2.8267">
        <ele>98</ele>
        <time>2015-11-19T08:44:45Z</time>
      </trkpt>
      <trkpt lat="48.07281" lon="2.82668">
        <ele>99</ele>
        <time>2015-11-19T08:44:46Z</time>
      </trkpt>
      <trkpt lat="48.07278" lon="2.82667">
        <ele>99</ele>
        <time>2015-11-19T08:44:47Z</time>
      </trkpt>
      <trkpt lat="48.07275" lon="2.82666">
        <ele>99</ele>
        <time>2015-11-19T08:44:48Z</time>
      </trkpt>
      <trkpt lat="48.07272" lon="2.82664">
        <ele>99</ele>
        <time>2015-11-19T08:44:49Z</time>
      </trkpt>
      <trkpt lat="48.07268" lon="2.82663">
        <ele>99</ele>
        <time>2015-11-19T08:44:50Z</time>
      </trkpt>
      <trkpt lat="48.07265" lon="2.82662">
        <ele>99</ele>
        <time>2015-11-19T08:44:51Z</time>
      </trkpt>
      <trkpt lat="48.07262" lon="2.82661">
        <ele>100</ele>
        <time>2015-11-19T08:44:52Z</time>
      </trkpt>
      <trkpt lat="48.07259" lon="2.82659">
        <ele>100</ele>
        <time>2015-11-19T08:44:53Z</time>
      </trkpt>
      <trkpt lat="48.07256" lon="2.82658">
        <ele>100</ele>
        <time>2015-11-19T08:44:54Z</time>
      </trkpt>
      <trkpt lat="48.07252" lon="2.82657">
        <ele>100</ele>
        <time>2015-11-19T08:44:55Z</time>
      </trkpt>
      <trkpt lat="48.07249" lon="2.82655">
        <ele>100</ele>
        <time>2015-11-19T08:44:56Z</time>
      </trkpt>
      <trkpt lat="48.07246" lon="2.82654">
        <ele>101</ele>
        <time>2015-11-19T08:44:57Z</time>
      </trkpt>
      <trkpt lat="48.07242" lon="2.82652">
        <ele>101</ele>
        <time>2015-11-19T08:44:58Z</time>
      </trkpt>
      <trkpt lat="48.07239" lon="2.82651">
        <ele>101</ele>
        <time>2015-11-19T08:44:59Z</time>
      </trkpt>
      <trkpt lat="48.07236" lon="2.8265">
        <ele>101</ele>
        <time>2015-11-19T08:45:00Z</time>
      </trkpt>
      <trkpt lat="48.07233" lon="2.82649">
        <ele>101</ele>
        <time>2015-11-19T08:45:01Z</time>
      </trkpt>
      <trkpt lat="48.07229" lon="2.82648">
        <ele>101</ele>
        <time>2015-11-19T08:45:02Z</time>
      </trkpt>
      <trkpt lat="48.07226" lon="2.82646">
        <ele>102</ele>
        <time>2015-11-19T08:45:03Z</time>
      </trkpt>
      <trkpt lat="48.07223" lon="2.82645">
        <ele>102</ele>
        <time>2015-11-19T08:45:04Z</time>
      </trkpt>
      <trkpt lat="48.07219" lon="2.82644">
        <ele>102</ele>
        <time>2015-11-19T08:45:05Z</time>
      </trkpt>
      <trkpt lat="48.07216" lon="2.82643">
        <ele>102</ele>
        <time>2015-11-19T08:45:06Z</time>
      </trkpt>
      <trkpt lat="48.07213" lon="2.82642">
        <ele>102</ele>
        <time>2015-11-19T08:45:07Z</time>
      </trkpt>
      <trkpt lat="48.07209" lon="2.8264">
        <ele>103</ele>
        <time>2015-11-19T08:45:08Z</time>
      </trkpt>
      <trkpt lat="48.07206" lon="2.82639">
        <ele>103</ele>
        <time>2015-11-19T08:45:09Z</time>
      </trkpt>
      <trkpt lat="48.07203" lon="2.82638">
        <ele>103</ele>
        <time>2015-11-19T08:45:10Z</time>
      </trkpt>
      <trkpt lat="48.07199" lon="2.82637">
        <ele>103</ele>
        <time>2015-11-19T08:45:11Z</time>
      </trkpt>
      <trkpt lat="48.07196" lon="2.82635">
        <ele>104</ele>
        <time>2015-11-19T08:45:12Z</time>
      </trkpt>
      <trkpt lat="48.07193" lon="2.82634">
        <ele>104</ele>
        <time>2015-11-19T08:45:13Z</time>
      </trkpt>
      <trkpt lat="48.07189" lon="2.82633">
        <ele>104</ele>
        <time>2015-11-19T08:45:14Z</time>
      </trkpt>
      <trkpt lat="48.07186" lon="2.82632">
        <ele>104</ele>
        <time>2015-11-19T08:45:15Z</time>
      </trkpt>
      <trkpt lat="48.07183" lon="2.82631">
        <ele>105</ele>
        <time>2015-11-19T08:45:16Z</time>
      </trkpt>
      <trkpt lat="48.0718" lon="2.8263">
        <ele>105</ele>
        <time>2015-11-19T08:45:17Z</time>
      </trkpt>
      <trkpt lat="48.07176" lon="2.82629">
        <ele>105</ele>
        <time>2015-11-19T08:45:18Z</time>
      </trkpt>
      <trkpt lat="48.07173" lon="2.82628">
        <ele>105</ele>
        <time>2015-11-19T08:45:19Z</time>
      </trkpt>
      <trkpt lat="48.0717" lon="2.82627">
        <ele>106</ele>
        <time>2015-11-19T08:45:20Z</time>
      </trkpt>
      <trkpt lat="48.07167" lon="2.82626">
        <ele>106</ele>
        <time>2015-11-19T08:45:21Z</time>
      </trkpt>
      <trkpt lat="48.07164" lon="2.82625">
        <ele>106</ele>
        <time>2015-11-19T08:45:22Z</time>
      </trkpt>
      <trkpt lat="48.0716" lon="2.82625">
        <ele>106</ele>
        <time>2015-11-19T08:45:23Z</time>
      </trkpt>
      <trkpt lat="48.07157" lon="2.82624">
        <ele>106</ele>
        <time>2015-11-19T08:45:24Z</time>
      </trkpt>
      <trkpt lat="48.07154" lon="2.82623">
        <ele>107</ele>
        <time>2015-11-19T08:45:25Z</time>
      </trkpt>
      <trkpt lat="48.07151" lon="2.82623">
        <ele>107</ele>
        <time>2015-11-19T08:45:26Z</time>
      </trkpt>
      <trkpt lat="48.07147" lon="2.82622">
        <ele>107</ele>
        <time>2015-11-19T08:45:27Z</time>
      </trkpt>
      <trkpt lat="48.07144" lon="2.82621">
        <ele>107</ele>
        <time>2015-11-19T08:45:28Z</time>
      </trkpt>
      <trkpt lat="48.07141" lon="2.8262">
        <ele>107</ele>
        <time>2015-11-19T08:45:29Z</time>
      </trkpt>
      <trkpt lat="48.07138" lon="2.8262">
        <ele>107</ele>
        <time>2015-11-19T08:45:30Z</time>
      </trkpt>
      <trkpt lat="48.07135" lon="2.82619">
        <ele>107</ele>
        <time>2015-11-19T08:45:31Z</time>
      </trkpt>
      <trkpt lat="48.07132" lon="2.82619">
        <ele>107</ele>
        <time>2015-11-19T08:45:32Z</time>
      </trkpt>
      <trkpt lat="48.07129" lon="2.82618">
        <ele>107</ele>
        <time>2015-11-19T08:45:33Z</time>
      </trkpt>
      <trkpt lat="48.07126" lon="2.82618">
        <ele>107</ele>
        <time>2015-11-19T08:45:34Z</time>
      </trkpt>
      <trkpt lat="48.07123" lon="2.82617">
        <ele>107</ele>
        <time>2015-11-19T08:45:35Z</time>
      </trkpt>
      <trkpt lat="48.0712" lon="2.82617">
        <ele>107</ele>
        <time>2015-11-19T08:45:36Z</time>
      </trkpt>
      <trkpt lat="48.07116" lon="2.82616">
        <ele>107</ele>
        <time>2015-11-19T08:45:37Z</time>
      </trkpt>
      <trkpt lat="48.07113" lon="2.82616">
        <ele>107</ele>
        <time>2015-11-19T08:45:38Z</time>
      </trkpt>
      <trkpt lat="48.07109" lon="2.82615">
        <ele>107</ele>
        <time>2015-11-19T08:45:39Z</time>
      </trkpt>
      <trkpt lat="48.07106" lon="2.82614">
        <ele>107</ele>
        <time>2015-11-19T08:45:40Z</time>
      </trkpt>
      <trkpt lat="48.07102" lon="2.82614">
        <ele>107</ele>
        <time>2015-11-19T08:45:41Z</time>
      </trkpt>
      <trkpt lat="48.07098" lon="2.82613">
        <ele>107</ele>
        <time>2015-11-19T08:45:42Z</time>
      </trkpt>
      <trkpt lat="48.07094" lon="2.82612">
        <ele>107</ele>
        <time>2015-11-19T08:45:43Z</time>
      </trkpt>
      <trkpt lat="48.0709" lon="2.82611">
        <ele>107</ele>
        <time>2015-11-19T08:45:44Z</time>
      </trkpt>
      <trkpt lat="48.07086" lon="2.82609">
        <ele>107</ele>
        <time>2015-11-19T08:45:45Z</time>
      </trkpt>
      <trkpt lat="48.07082" lon="2.82607">
        <ele>107</ele>
        <time>2015-11-19T08:45:46Z</time>
      </trkpt>
      <trkpt lat="48.07078" lon="2.82605">
        <ele>107</ele>
        <time>2015-11-19T08:45:47Z</time>
      </trkpt>
      <trkpt lat="48.07074" lon="2.82603">
        <ele>107</ele>
        <time>2015-11-19T08:45:48Z</time>
      </trkpt>
      <trkpt lat="48.07071" lon="2.82601">
        <ele>107</ele>
        <time>2015-11-19T08:45:49Z</time>
      </trkpt>
      <trkpt lat="48.07067" lon="2.82599">
        <ele>107</ele>
        <time>2015-11-19T08:45:50Z</time>
      </trkpt>
      <trkpt lat="48.07063" lon="2.82597">
        <ele>107</ele>
        <time>2015-11-19T08:45:51Z</time>
      </trkpt>
      <trkpt lat="48.07059" lon="2.82595">
        <ele>107</ele>
        <time>2015-11-19T08:45:52Z</time>
      </trkpt>
      <trkpt lat="48.07056" lon="2.82593">
        <ele>107</ele>
        <time>2015-11-19T08:45:53Z</time>
      </trkpt>
      <trkpt lat="48.07052" lon="2.82591">
        <ele>107</ele>
        <time>2015-11-19T08:45:54Z</time>
      </trkpt>
      <trkpt lat="48.07048" lon="2.82589">
        <ele>107</ele>
        <time>2015-11-19T08:45:55Z</time>
      </trkpt>
      <trkpt lat="48.07045" lon="2.82587">
        <ele>107</ele>
        <time>2015-11-19T08:45:56Z</time>
      </trkpt>
      <trkpt lat="48.07037" lon="2.82582">
        <ele>107</ele>
        <time>2015-11-19T08:45:58Z</time>
      </trkpt>
      <trkpt lat="48.07033" lon="2.8258">
        <ele>107</ele>
        <time>2015-11-19T08:45:59Z</time>
      </trkpt>
      <trkpt lat="48.07029" lon="2.82578">
        <ele>107</ele>
        <time>2015-11-19T08:46:00Z</time>
      </trkpt>
      <trkpt lat="48.07025" lon="2.82576">
        <ele>107</ele>
        <time>2015-11-19T08:46:01Z</time>
      </trkpt>
      <trkpt lat="48.07017" lon="2.82572">
        <ele>107</ele>
        <time>2015-11-19T08:46:03Z</time>
      </trkpt>
      <trkpt lat="48.07013" lon="2.82571">
        <ele>107</ele>
        <time>2015-11-19T08:46:04Z</time>
      </trkpt>
      <trkpt lat="48.07009" lon="2.82569">
        <ele>107</ele>
        <time>2015-11-19T08:46:05Z</time>
      </trkpt>
      <trkpt lat="48.07005" lon="2.82567">
        <ele>107</ele>
        <time>2015-11-19T08:46:06Z</time>
      </trkpt>
      <trkpt lat="48.07001" lon="2.82565">
        <ele>107</ele>
        <time>2015-11-19T08:46:07Z</time>
      </trkpt>
      <trkpt lat="48.06997" lon="2.82563">
        <ele>107</ele>
        <time>2015-11-19T08:46:08Z</time>
      </trkpt>
      <trkpt lat="48.06993" lon="2.82562">
        <ele>107</ele>
        <time>2015-11-19T08:46:09Z</time>
      </trkpt>
      <trkpt lat="48.06989" lon="2.82561">
        <ele>107</ele>
        <time>2015-11-19T08:46:10Z</time>
      </trkpt>
      <trkpt lat="48.06985" lon="2.8256">
        <ele>107</ele>
        <time>2015-11-19T08:46:11Z</time>
      </trkpt>
      <trkpt lat="48.06981" lon="2.82559">
        <ele>107</ele>
        <time>2015-11-19T08:46:12Z</time>
      </trkpt>
      <trkpt lat="48.06977" lon="2.82558">
        <ele>107</ele>
        <time>2015-11-19T08:46:13Z</time>
      </trkpt>
      <trkpt lat="48.06973" lon="2.82557">
        <ele>107</ele>
        <time>2015-11-19T08:46:14Z</time>
      </trkpt>
      <trkpt lat="48.06969" lon="2.82556">
        <ele>108</ele>
        <time>2015-11-19T08:46:15Z</time>
      </trkpt>
      <trkpt lat="48.06964" lon="2.82554">
        <ele>108</ele>
        <time>2015-11-19T08:46:16Z</time>
      </trkpt>
      <trkpt lat="48.0696" lon="2.82553">
        <ele>108</ele>
        <time>2015-11-19T08:46:17Z</time>
      </trkpt>
      <trkpt lat="48.06956" lon="2.82552">
        <ele>108</ele>
        <time>2015-11-19T08:46:18Z</time>
      </trkpt>
      <trkpt lat="48.06952" lon="2.82551">
        <ele>108</ele>
        <time>2015-11-19T08:46:19Z</time>
      </trkpt>
      <trkpt lat="48.06947" lon="2.8255">
        <ele>108</ele>
        <time>2015-11-19T08:46:20Z</time>
      </trkpt>
      <trkpt lat="48.06943" lon="2.82548">
        <ele>108</ele>
        <time>2015-11-19T08:46:21Z</time>
      </trkpt>
      <trkpt lat="48.06939" lon="2.82547">
        <ele>108</ele>
        <time>2015-11-19T08:46:22Z</time>
      </trkpt>
      <trkpt lat="48.06935" lon="2.82546">
        <ele>108</ele>
        <time>2015-11-19T08:46:23Z</time>
      </trkpt>
      <trkpt lat="48.06931" lon="2.82545">
        <ele>108</ele>
        <time>2015-11-19T08:46:24Z</time>
      </trkpt>
      <trkpt lat="48.06926" lon="2.82544">
        <ele>108</ele>
        <time>2015-11-19T08:46:25Z</time>
      </trkpt>
      <trkpt lat="48.06922" lon="2.82543">
        <ele>108</ele>
        <time>2015-11-19T08:46:26Z</time>
      </trkpt>
      <trkpt lat="48.06918" lon="2.82541">
        <ele>108</ele>
        <time>2015-11-19T08:46:27Z</time>
      </trkpt>
      <trkpt lat="48.06914" lon="2.8254">
        <ele>108</ele>
        <time>2015-11-19T08:46:28Z</time>
      </trkpt>
      <trkpt lat="48.0691" lon="2.8254">
        <ele>108</ele>
        <time>2015-11-19T08:46:29Z</time>
      </trkpt>
      <trkpt lat="48.06906" lon="2.82539">
        <ele>108</ele>
        <time>2015-11-19T08:46:30Z</time>
      </trkpt>
      <trkpt lat="48.06902" lon="2.82537">
        <ele>108</ele>
        <time>2015-11-19T08:46:31Z</time>
      </trkpt>
      <trkpt lat="48.06898" lon="2.82536">
        <ele>108</ele>
        <time>2015-11-19T08:46:32Z</time>
      </trkpt>
      <trkpt lat="48.06894" lon="2.82535">
        <ele>108</ele>
        <time>2015-11-19T08:46:33Z</time>
      </trkpt>
      <trkpt lat="48.06889" lon="2.82534">
        <ele>108</ele>
        <time>2015-11-19T08:46:34Z</time>
      </trkpt>
      <trkpt lat="48.06885" lon="2.82533">
        <ele>108</ele>
        <time>2015-11-19T08:46:35Z</time>
      </trkpt>
      <trkpt lat="48.06881" lon="2.82532">
        <ele>108</ele>
        <time>2015-11-19T08:46:36Z</time>
      </trkpt>
      <trkpt lat="48.06877" lon="2.82531">
        <ele>108</ele>
        <time>2015-11-19T08:46:37Z</time>
      </trkpt>
      <trkpt lat="48.06873" lon="2.8253">
        <ele>108</ele>
        <time>2015-11-19T08:46:38Z</time>
      </trkpt>
      <trkpt lat="48.06868" lon="2.82529">
        <ele>108</ele>
        <time>2015-11-19T08:46:39Z</time>
      </trkpt>
      <trkpt lat="48.06864" lon="2.82528">
        <ele>108</ele>
        <time>2015-11-19T08:46:40Z</time>
      </trkpt>
      <trkpt lat="48.0686" lon="2.82527">
        <ele>108</ele>
        <time>2015-11-19T08:46:41Z</time>
      </trkpt>
      <trkpt lat="48.06855" lon="2.82525">
        <ele>108</ele>
        <time>2015-11-19T08:46:42Z</time>
      </trkpt>
      <trkpt lat="48.06851" lon="2.82524">
        <ele>108</ele>
        <time>2015-11-19T08:46:43Z</time>
      </trkpt>
      <trkpt lat="48.06843" lon="2.82521">
        <ele>108</ele>
        <time>2015-11-19T08:46:45Z</time>
      </trkpt>
      <trkpt lat="48.06839" lon="2.8252">
        <ele>108</ele>
        <time>2015-11-19T08:46:46Z</time>
      </trkpt>
      <trkpt lat="48.0683" lon="2.82516">
        <ele>108</ele>
        <time>2015-11-19T08:46:48Z</time>
      </trkpt>
      <trkpt lat="48.06826" lon="2.82515">
        <ele>108</ele>
        <time>2015-11-19T08:46:49Z</time>
      </trkpt>
      <trkpt lat="48.06821" lon="2.82513">
        <ele>108</ele>
        <time>2015-11-19T08:46:50Z</time>
      </trkpt>
      <trkpt lat="48.06817" lon="2.82511">
        <ele>108</ele>
        <time>2015-11-19T08:46:51Z</time>
      </trkpt>
      <trkpt lat="48.06813" lon="2.82509">
        <ele>108</ele>
        <time>2015-11-19T08:46:52Z</time>
      </trkpt>
      <trkpt lat="48.06808" lon="2.82508">
        <ele>108</ele>
        <time>2015-11-19T08:46:53Z</time>
      </trkpt>
      <trkpt lat="48.06804" lon="2.82506">
        <ele>108</ele>
        <time>2015-11-19T08:46:54Z</time>
      </trkpt>
      <trkpt lat="48.06799" lon="2.82504">
        <ele>108</ele>
        <time>2015-11-19T08:46:55Z</time>
      </trkpt>
      <trkpt lat="48.06795" lon="2.82503">
        <ele>108</ele>
        <time>2015-11-19T08:46:56Z</time>
      </trkpt>
      <trkpt lat="48.0679" lon="2.82501">
        <ele>108</ele>
        <time>2015-11-19T08:46:57Z</time>
      </trkpt>
      <trkpt lat="48.06786" lon="2.82499">
        <ele>108</ele>
        <time>2015-11-19T08:46:58Z</time>
      </trkpt>
      <trkpt lat="48.06781" lon="2.82497">
        <ele>108</ele>
        <time>2015-11-19T08:46:59Z</time>
      </trkpt>
      <trkpt lat="48.06777" lon="2.82495">
        <ele>108</ele>
        <time>2015-11-19T08:47:00Z</time>
      </trkpt>
      <trkpt lat="48.06773" lon="2.82493">
        <ele>108</ele>
        <time>2015-11-19T08:47:01Z</time>
      </trkpt>
      <trkpt lat="48.06768" lon="2.82491">
        <ele>108</ele>
        <time>2015-11-19T08:47:02Z</time>
      </trkpt>
      <trkpt lat="48.06764" lon="2.82489">
        <ele>108</ele>
        <time>2015-11-19T08:47:03Z</time>
      </trkpt>
      <trkpt lat="48.06759" lon="2.82487">
        <ele>108</ele>
        <time>2015-11-19T08:47:04Z</time>
      </trkpt>
      <trkpt lat="48.06755" lon="2.82485">
        <ele>108</ele>
        <time>2015-11-19T08:47:05Z</time>
      </trkpt>
      <trkpt lat="48.06751" lon="2.82482">
        <ele>108</ele>
        <time>2015-11-19T08:47:06Z</time>
      </trkpt>
      <trkpt lat="48.06747" lon="2.82479">
        <ele>108</ele>
        <time>2015-11-19T08:47:07Z</time>
      </trkpt>
      <trkpt lat="48.06744" lon="2.82475">
        <ele>108</ele>
        <time>2015-11-19T08:47:08Z</time>
      </trkpt>
      <trkpt lat="48.0674" lon="2.82472">
        <ele>108</ele>
        <time>2015-11-19T08:47:09Z</time>
      </trkpt>
      <trkpt lat="48.06736" lon="2.82469">
        <ele>108</ele>
        <time>2015-11-19T08:47:10Z</time>
      </trkpt>
      <trkpt lat="48.06733" lon="2.82465">
        <ele>108</ele>
        <time>2015-11-19T08:47:11Z</time>
      </trkpt>
      <trkpt lat="48.0673" lon="2.8246">
        <ele>108</ele>
        <time>2015-11-19T08:47:12Z</time>
      </trkpt>
      <trkpt lat="48.06727" lon="2.82457">
        <ele>108</ele>
        <time>2015-11-19T08:47:13Z</time>
      </trkpt>
      <trkpt lat="48.06724" lon="2.82454">
        <ele>108</ele>
        <time>2015-11-19T08:47:14Z</time>
      </trkpt>
      <trkpt lat="48.0672" lon="2.82455">
        <ele>108</ele>
        <time>2015-11-19T08:47:15Z</time>
      </trkpt>
      <trkpt lat="48.06716" lon="2.82456">
        <ele>108</ele>
        <time>2015-11-19T08:47:16Z</time>
      </trkpt>
      <trkpt lat="48.06712" lon="2.82455">
        <ele>108</ele>
        <time>2015-11-19T08:47:17Z</time>
      </trkpt>
      <trkpt lat="48.06708" lon="2.82452">
        <ele>108</ele>
        <time>2015-11-19T08:47:18Z</time>
      </trkpt>
      <trkpt lat="48.06704" lon="2.82449">
        <ele>108</ele>
        <time>2015-11-19T08:47:19Z</time>
      </trkpt>
      <trkpt lat="48.067" lon="2.82446">
        <ele>108</ele>
        <time>2015-11-19T08:47:20Z</time>
      </trkpt>
      <trkpt lat="48.06696" lon="2.82444">
        <ele>108</ele>
        <time>2015-11-19T08:47:21Z</time>
      </trkpt>
      <trkpt lat="48.06692" lon="2.82441">
        <ele>108</ele>
        <time>2015-11-19T08:47:22Z</time>
      </trkpt>
      <trkpt lat="48.06688" lon="2.82438">
        <ele>108</ele>
        <time>2015-11-19T08:47:23Z</time>
      </trkpt>
      <trkpt lat="48.06684" lon="2.82436">
        <ele>108</ele>
        <time>2015-11-19T08:47:24Z</time>
      </trkpt>
      <trkpt lat="48.0668" lon="2.82433">
        <ele>108</ele>
        <time>2015-11-19T08:47:25Z</time>
      </trkpt>
      <trkpt lat="48.06675" lon="2.82431">
        <ele>108</ele>
        <time>2015-11-19T08:47:26Z</time>
      </trkpt>
      <trkpt lat="48.06671" lon="2.82428">
        <ele>109</ele>
        <time>2015-11-19T08:47:27Z</time>
      </trkpt>
      <trkpt lat="48.06667" lon="2.82425">
        <ele>109</ele>
        <time>2015-11-19T08:47:28Z</time>
      </trkpt>
      <trkpt lat="48.06662" lon="2.82423">
        <ele>109</ele>
        <time>2015-11-19T08:47:29Z</time>
      </trkpt>
      <trkpt lat="48.06658" lon="2.8242">
        <ele>109</ele>
        <time>2015-11-19T08:47:30Z</time>
      </trkpt>
      <trkpt lat="48.06653" lon="2.82417">
        <ele>109</ele>
        <time>2015-11-19T08:47:31Z</time>
      </trkpt>
      <trkpt lat="48.06649" lon="2.82415">
        <ele>109</ele>
        <time>2015-11-19T08:47:32Z</time>
      </trkpt>
      <trkpt lat="48.06644" lon="2.82412">
        <ele>109</ele>
        <time>2015-11-19T08:47:33Z</time>
      </trkpt>
      <trkpt lat="48.06639" lon="2.82409">
        <ele>109</ele>
        <time>2015-11-19T08:47:34Z</time>
      </trkpt>
      <trkpt lat="48.06635" lon="2.82406">
        <ele>109</ele>
        <time>2015-11-19T08:47:35Z</time>
      </trkpt>
      <trkpt lat="48.0663" lon="2.82403">
        <ele>109</ele>
        <time>2015-11-19T08:47:36Z</time>
      </trkpt>
      <trkpt lat="48.06625" lon="2.824">
        <ele>109</ele>
        <time>2015-11-19T08:47:37Z</time>
      </trkpt>
      <trkpt lat="48.06619" lon="2.82397">
        <ele>109</ele>
        <time>2015-11-19T08:47:38Z</time>
      </trkpt>
      <trkpt lat="48.06614" lon="2.82394">
        <ele>109</ele>
        <time>2015-11-19T08:47:39Z</time>
      </trkpt>
      <trkpt lat="48.06609" lon="2.82392">
        <ele>109</ele>
        <time>2015-11-19T08:47:40Z</time>
      </trkpt>
      <trkpt lat="48.06604" lon="2.8239">
        <ele>109</ele>
        <time>2015-11-19T08:47:41Z</time>
      </trkpt>
      <trkpt lat="48.06598" lon="2.82388">
        <ele>109</ele>
        <time>2015-11-19T08:47:42Z</time>
      </trkpt>
      <trkpt lat="48.06593" lon="2.82386">
        <ele>109</ele>
        <time>2015-11-19T08:47:43Z</time>
      </trkpt>
      <trkpt lat="48.06588" lon="2.82385">
        <ele>109</ele>
        <time>2015-11-19T08:47:44Z</time>
      </trkpt>
      <trkpt lat="48.06583" lon="2.82385">
        <ele>109</ele>
        <time>2015-11-19T08:47:45Z</time>
      </trkpt>
      <trkpt lat="48.06578" lon="2.82384">
        <ele>109</ele>
        <time>2015-11-19T08:47:46Z</time>
      </trkpt>
      <trkpt lat="48.06572" lon="2.82383">
        <ele>109</ele>
        <time>2015-11-19T08:47:47Z</time>
      </trkpt>
      <trkpt lat="48.06567" lon="2.82382">
        <ele>109</ele>
        <time>2015-11-19T08:47:48Z</time>
      </trkpt>
      <trkpt lat="48.06563" lon="2.8238">
        <ele>109</ele>
        <time>2015-11-19T08:47:49Z</time>
      </trkpt>
      <trkpt lat="48.06558" lon="2.82377">
        <ele>109</ele>
        <time>2015-11-19T08:47:50Z</time>
      </trkpt>
      <trkpt lat="48.06553" lon="2.82374">
        <ele>109</ele>
        <time>2015-11-19T08:47:51Z</time>
      </trkpt>
      <trkpt lat="48.06548" lon="2.82371">
        <ele>109</ele>
        <time>2015-11-19T08:47:52Z</time>
      </trkpt>
      <trkpt lat="48.06544" lon="2.82368">
        <ele>109</ele>
        <time>2015-11-19T08:47:53Z</time>
      </trkpt>
      <trkpt lat="48.06539" lon="2.82364">
        <ele>109</ele>
        <time>2015-11-19T08:47:54Z</time>
      </trkpt>
      <trkpt lat="48.0653" lon="2.82356">
        <ele>109</ele>
        <time>2015-11-19T08:47:56Z</time>
      </trkpt>
      <trkpt lat="48.06525" lon="2.82352">
        <ele>109</ele>
        <time>2015-11-19T08:47:57Z</time>
      </trkpt>
      <trkpt lat="48.06521" lon="2.82347">
        <ele>109</ele>
        <time>2015-11-19T08:47:58Z</time>
      </trkpt>
      <trkpt lat="48.06516" lon="2.82342">
        <ele>109</ele>
        <time>2015-11-19T08:47:59Z</time>
      </trkpt>
      <trkpt lat="48.06512" lon="2.82337">
        <ele>109</ele>
        <time>2015-11-19T08:48:00Z</time>
      </trkpt>
      <trkpt lat="48.06507" lon="2.82332">
        <ele>109</ele>
        <time>2015-11-19T08:48:01Z</time>
      </trkpt>
      <trkpt lat="48.06503" lon="2.82326">
        <ele>109</ele>
        <time>2015-11-19T08:48:02Z</time>
      </trkpt>
      <trkpt lat="48.06499" lon="2.8232">
        <ele>109</ele>
        <time>2015-11-19T08:48:03Z</time>
      </trkpt>
      <trkpt lat="48.06494" lon="2.82314">
        <ele>109</ele>
        <time>2015-11-19T08:48:04Z</time>
      </trkpt>
      <trkpt lat="48.0649" lon="2.82307">
        <ele>109</ele>
        <time>2015-11-19T08:48:05Z</time>
      </trkpt>
      <trkpt lat="48.06485" lon="2.82299">
        <ele>109</ele>
        <time>2015-11-19T08:48:06Z</time>
      </trkpt>
      <trkpt lat="48.06481" lon="2.82292">
        <ele>109</ele>
        <time>2015-11-19T08:48:07Z</time>
      </trkpt>
      <trkpt lat="48.06477" lon="2.82284">
        <ele>109</ele>
        <time>2015-11-19T08:48:08Z</time>
      </trkpt>
      <trkpt lat="48.06474" lon="2.82276">
        <ele>109</ele>
        <time>2015-11-19T08:48:09Z</time>
      </trkpt>
      <trkpt lat="48.06469" lon="2.82269">
        <ele>109</ele>
        <time>2015-11-19T08:48:10Z</time>
      </trkpt>
      <trkpt lat="48.06465" lon="2.82262">
        <ele>109</ele>
        <time>2015-11-19T08:48:11Z</time>
      </trkpt>
      <trkpt lat="48.06461" lon="2.82255">
        <ele>109</ele>
        <time>2015-11-19T08:48:12Z</time>
      </trkpt>
      <trkpt lat="48.06457" lon="2.82247">
        <ele>109</ele>
        <time>2015-11-19T08:48:13Z</time>
      </trkpt>
      <trkpt lat="48.06453" lon="2.82238">
        <ele>109</ele>
        <time>2015-11-19T08:48:14Z</time>
      </trkpt>
      <trkpt lat="48.06449" lon="2.8223">
        <ele>109</ele>
        <time>2015-11-19T08:48:15Z</time>
      </trkpt>
      <trkpt lat="48.06445" lon="2.82222">
        <ele>109</ele>
        <time>2015-11-19T08:48:16Z</time>
      </trkpt>
      <trkpt lat="48.0644" lon="2.82214">
        <ele>109</ele>
        <time>2015-11-19T08:48:17Z</time>
      </trkpt>
      <trkpt lat="48.06436" lon="2.82205">
        <ele>109</ele>
        <time>2015-11-19T08:48:18Z</time>
      </trkpt>
      <trkpt lat="48.06432" lon="2.82196">
        <ele>110</ele>
        <time>2015-11-19T08:48:19Z</time>
      </trkpt>
      <trkpt lat="48.06429" lon="2.82187">
        <ele>110</ele>
        <time>2015-11-19T08:48:20Z</time>
      </trkpt>
      <trkpt lat="48.06426" lon="2.82175">
        <ele>111</ele>
        <time>2015-11-19T08:48:21Z</time>
      </trkpt>
      <trkpt lat="48.06422" lon="2.82163">
        <ele>112</ele>
        <time>2015-11-19T08:48:22Z</time>
      </trkpt>
      <trkpt lat="48.0642" lon="2.8215">
        <ele>113</ele>
        <time>2015-11-19T08:48:23Z</time>
      </trkpt>
      <trkpt lat="48.0642" lon="2.82139">
        <ele>114</ele>
        <time>2015-11-19T08:48:24Z</time>
      </trkpt>
      <trkpt lat="48.06422" lon="2.82127">
        <ele>115</ele>
        <time>2015-11-19T08:48:25Z</time>
      </trkpt>
      <trkpt lat="48.06424" lon="2.82114">
        <ele>116</ele>
        <time>2015-11-19T08:48:26Z</time>
      </trkpt>
      <trkpt lat="48.06424" lon="2.82101">
        <ele>117</ele>
        <time>2015-11-19T08:48:27Z</time>
      </trkpt>
      <trkpt lat="48.06426" lon="2.82089">
        <ele>118</ele>
        <time>2015-11-19T08:48:28Z</time>
      </trkpt>
      <trkpt lat="48.06425" lon="2.82079">
        <ele>119</ele>
        <time>2015-11-19T08:48:29Z</time>
      </trkpt>
      <trkpt lat="48.06425" lon="2.82067">
        <ele>120</ele>
        <time>2015-11-19T08:48:30Z</time>
      </trkpt>
      <trkpt lat="48.06421" lon="2.82058">
        <ele>121</ele>
        <time>2015-11-19T08:48:31Z</time>
      </trkpt>
      <trkpt lat="48.06416" lon="2.82049">
        <ele>122</ele>
        <time>2015-11-19T08:48:32Z</time>
      </trkpt>
      <trkpt lat="48.06411" lon="2.8204">
        <ele>123</ele>
        <time>2015-11-19T08:48:33Z</time>
      </trkpt>
      <trkpt lat="48.06405" lon="2.8203">
        <ele>124</ele>
        <time>2015-11-19T08:48:34Z</time>
      </trkpt>
      <trkpt lat="48.06399" lon="2.82019">
        <ele>125</ele>
        <time>2015-11-19T08:48:35Z</time>
      </trkpt>
      <trkpt lat="48.06395" lon="2.82009">
        <ele>126</ele>
        <time>2015-11-19T08:48:36Z</time>
      </trkpt>
      <trkpt lat="48.06391" lon="2.81998">
        <ele>127</ele>
        <time>2015-11-19T08:48:37Z</time>
      </trkpt>
      <trkpt lat="48.06387" lon="2.81986">
        <ele>128</ele>
        <time>2015-11-19T08:48:38Z</time>
      </trkpt>
      <trkpt lat="48.06381" lon="2.81977">
        <ele>128</ele>
        <time>2015-11-19T08:48:39Z</time>
      </trkpt>
      <trkpt lat="48.06377" lon="2.81967">
        <ele>128</ele>
        <time>2015-11-19T08:48:40Z</time>
      </trkpt>
      <trkpt lat="48.06372" lon="2.81958">
        <ele>128</ele>
        <time>2015-11-19T08:48:41Z</time>
      </trkpt>
      <trkpt lat="48.06366" lon="2.81949">
        <ele>128</ele>
        <time>2015-11-19T08:48:42Z</time>
      </trkpt>
      <trkpt lat="48.06361" lon="2.81939">
        <ele>128</ele>
        <time>2015-11-19T08:48:43Z</time>
      </trkpt>
      <trkpt lat="48.06356" lon="2.81932">
        <ele>128</ele>
        <time>2015-11-19T08:48:44Z</time>
      </trkpt>
      <trkpt lat="48.06351" lon="2.81924">
        <ele>128</ele>
        <time>2015-11-19T08:48:45Z</time>
      </trkpt>
      <trkpt lat="48.06347" lon="2.81912">
        <ele>127</ele>
        <time>2015-11-19T08:48:46Z</time>
      </trkpt>
      <trkpt lat="48.06343" lon="2.81902">
        <ele>126</ele>
        <time>2015-11-19T08:48:47Z</time>
      </trkpt>
      <trkpt lat="48.06337" lon="2.81892">
        <ele>125</ele>
        <time>2015-11-19T08:48:48Z</time>
      </trkpt>
      <trkpt lat="48.06331" lon="2.81883">
        <ele>124</ele>
        <time>2015-11-19T08:48:49Z</time>
      </trkpt>
      <trkpt lat="48.06327" lon="2.81872">
        <ele>123</ele>
        <time>2015-11-19T08:48:50Z</time>
      </trkpt>
      <trkpt lat="48.06324" lon="2.81862">
        <ele>122</ele>
        <time>2015-11-19T08:48:51Z</time>
      </trkpt>
      <trkpt lat="48.06321" lon="2.81852">
        <ele>121</ele>
        <time>2015-11-19T08:48:52Z</time>
      </trkpt>
      <trkpt lat="48.06318" lon="2.81842">
        <ele>120</ele>
        <time>2015-11-19T08:48:53Z</time>
      </trkpt>
      <trkpt lat="48.06315" lon="2.81832">
        <ele>118</ele>
        <time>2015-11-19T08:48:54Z</time>
      </trkpt>
      <trkpt lat="48.06313" lon="2.81821">
        <ele>117</ele>
        <time>2015-11-19T08:48:55Z</time>
      </trkpt>
      <trkpt lat="48.0631" lon="2.81811">
        <ele>116</ele>
        <time>2015-11-19T08:48:56Z</time>
      </trkpt>
      <trkpt lat="48.06308" lon="2.818">
        <ele>115</ele>
        <time>2015-11-19T08:48:57Z</time>
      </trkpt>
      <trkpt lat="48.06305" lon="2.8179">
        <ele>114</ele>
        <time>2015-11-19T08:48:58Z</time>
      </trkpt>
      <trkpt lat="48.06302" lon="2.81781">
        <ele>113</ele>
        <time>2015-11-19T08:48:59Z</time>
      </trkpt>
      <trkpt lat="48.063" lon="2.81771">
        <ele>112</ele>
        <time>2015-11-19T08:49:00Z</time>
      </trkpt>
      <trkpt lat="48.06298" lon="2.81763">
        <ele>111</ele>
        <time>2015-11-19T08:49:01Z</time>
      </trkpt>
      <trkpt lat="48.06296" lon="2.81755">
        <ele>110</ele>
        <time>2015-11-19T08:49:02Z</time>
      </trkpt>
      <trkpt lat="48.06293" lon="2.81748">
        <ele>109</ele>
        <time>2015-11-19T08:49:03Z</time>
      </trkpt>
      <trkpt lat="48.06291" lon="2.8174">
        <ele>108</ele>
        <time>2015-11-19T08:49:04Z</time>
      </trkpt>
      <trkpt lat="48.06289" lon="2.81733">
        <ele>107</ele>
        <time>2015-11-19T08:49:05Z</time>
      </trkpt>
      <trkpt lat="48.06287" lon="2.81725">
        <ele>107</ele>
        <time>2015-11-19T08:49:06Z</time>
      </trkpt>
      <trkpt lat="48.06285" lon="2.81718">
        <ele>107</ele>
        <time>2015-11-19T08:49:07Z</time>
      </trkpt>
      <trkpt lat="48.06283" lon="2.81711">
        <ele>107</ele>
        <time>2015-11-19T08:49:08Z</time>
      </trkpt>
      <trkpt lat="48.06281" lon="2.81703">
        <ele>107</ele>
        <time>2015-11-19T08:49:09Z</time>
      </trkpt>
      <trkpt lat="48.06278" lon="2.81696">
        <ele>107</ele>
        <time>2015-11-19T08:49:10Z</time>
      </trkpt>
      <trkpt lat="48.06276" lon="2.81689">
        <ele>107</ele>
        <time>2015-11-19T08:49:11Z</time>
      </trkpt>
      <trkpt lat="48.06274" lon="2.81684">
        <ele>107</ele>
        <time>2015-11-19T08:49:12Z</time>
      </trkpt>
      <trkpt lat="48.06271" lon="2.8168">
        <ele>107</ele>
        <time>2015-11-19T08:49:13Z</time>
      </trkpt>
      <trkpt lat="48.06269" lon="2.81676">
        <ele>107</ele>
        <time>2015-11-19T08:49:14Z</time>
      </trkpt>
      <trkpt lat="48.06266" lon="2.81672">
        <ele>107</ele>
        <time>2015-11-19T08:49:16Z</time>
      </trkpt>
      <trkpt lat="48.06257" lon="2.81666">
        <ele>107</ele>
        <time>2015-11-19T08:49:18Z</time>
      </trkpt>
      <trkpt lat="48.06253" lon="2.81662">
        <ele>107</ele>
        <time>2015-11-19T08:49:19Z</time>
      </trkpt>
      <trkpt lat="48.06253" lon="2.81652">
        <ele>107</ele>
        <time>2015-11-19T08:49:21Z</time>
      </trkpt>
      <trkpt lat="48.06255" lon="2.81644">
        <ele>107</ele>
        <time>2015-11-19T08:49:22Z</time>
      </trkpt>
      <trkpt lat="48.06254" lon="2.81637">
        <ele>107</ele>
        <time>2015-11-19T08:49:23Z</time>
      </trkpt>
      <trkpt lat="48.06254" lon="2.81631">
        <ele>106</ele>
        <time>2015-11-19T08:49:24Z</time>
      </trkpt>
      <trkpt lat="48.0625" lon="2.81627">
        <ele>106</ele>
        <time>2015-11-19T08:49:25Z</time>
      </trkpt>
      <trkpt lat="48.06248" lon="2.81622">
        <ele>106</ele>
        <time>2015-11-19T08:49:26Z</time>
      </trkpt>
      <trkpt lat="48.06247" lon="2.81615">
        <ele>106</ele>
        <time>2015-11-19T08:49:27Z</time>
      </trkpt>
      <trkpt lat="48.06245" lon="2.81609">
        <ele>106</ele>
        <time>2015-11-19T08:49:28Z</time>
      </trkpt>
      <trkpt lat="48.06243" lon="2.81604">
        <ele>106</ele>
        <time>2015-11-19T08:49:29Z</time>
      </trkpt>
      <trkpt lat="48.06241" lon="2.81598">
        <ele>106</ele>
        <time>2015-11-19T08:49:30Z</time>
      </trkpt>
      <trkpt lat="48.06238" lon="2.81592">
        <ele>106</ele>
        <time>2015-11-19T08:49:31Z</time>
      </trkpt>
      <trkpt lat="48.06236" lon="2.81588">
        <ele>106</ele>
        <time>2015-11-19T08:49:32Z</time>
      </trkpt>
      <trkpt lat="48.06234" lon="2.81583">
        <ele>106</ele>
        <time>2015-11-19T08:49:33Z</time>
      </trkpt>
      <trkpt lat="48.06231" lon="2.81579">
        <ele>106</ele>
        <time>2015-11-19T08:49:34Z</time>
      </trkpt>
      <trkpt lat="48.06229" lon="2.81575">
        <ele>106</ele>
        <time>2015-11-19T08:49:35Z</time>
      </trkpt>
      <trkpt lat="48.06227" lon="2.81571">
        <ele>106</ele>
        <time>2015-11-19T08:49:36Z</time>
      </trkpt>
      <trkpt lat="48.06224" lon="2.81567">
        <ele>107</ele>
        <time>2015-11-19T08:49:37Z</time>
      </trkpt>
      <trkpt lat="48.06221" lon="2.81563">
        <ele>108</ele>
        <time>2015-11-19T08:49:38Z</time>
      </trkpt>
      <trkpt lat="48.06218" lon="2.81559">
        <ele>109</ele>
        <time>2015-11-19T08:49:39Z</time>
      </trkpt>
      <trkpt lat="48.06216" lon="2.81556">
        <ele>110</ele>
        <time>2015-11-19T08:49:40Z</time>
      </trkpt>
      <trkpt lat="48.06213" lon="2.81551">
        <ele>111</ele>
        <time>2015-11-19T08:49:41Z</time>
      </trkpt>
      <trkpt lat="48.06211" lon="2.81547">
        <ele>112</ele>
        <time>2015-11-19T08:49:42Z</time>
      </trkpt>
      <trkpt lat="48.06209" lon="2.81542">
        <ele>113</ele>
        <time>2015-11-19T08:49:43Z</time>
      </trkpt>
      <trkpt lat="48.06207" lon="2.81539">
        <ele>114</ele>
        <time>2015-11-19T08:49:44Z</time>
      </trkpt>
      <trkpt lat="48.06205" lon="2.81534">
        <ele>115</ele>
        <time>2015-11-19T08:49:45Z</time>
      </trkpt>
      <trkpt lat="48.06203" lon="2.8153">
        <ele>116</ele>
        <time>2015-11-19T08:49:46Z</time>
      </trkpt>
      <trkpt lat="48.06202" lon="2.81526">
        <ele>117</ele>
        <time>2015-11-19T08:49:47Z</time>
      </trkpt>
      <trkpt lat="48.06199" lon="2.81523">
        <ele>118</ele>
        <time>2015-11-19T08:49:48Z</time>
      </trkpt>
      <trkpt lat="48.06197" lon="2.8152">
        <ele>119</ele>
        <time>2015-11-19T08:49:49Z</time>
      </trkpt>
      <trkpt lat="48.06195" lon="2.81517">
        <ele>120</ele>
        <time>2015-11-19T08:49:50Z</time>
      </trkpt>
      <trkpt lat="48.06194" lon="2.81514">
        <ele>121</ele>
        <time>2015-11-19T08:49:51Z</time>
      </trkpt>
      <trkpt lat="48.06192" lon="2.81511">
        <ele>122</ele>
        <time>2015-11-19T08:49:52Z</time>
      </trkpt>
      <trkpt lat="48.0619" lon="2.81509">
        <ele>123</ele>
        <time>2015-11-19T08:49:53Z</time>
      </trkpt>
      <trkpt lat="48.06189" lon="2.81506">
        <ele>124</ele>
        <time>2015-11-19T08:49:54Z</time>
      </trkpt>
      <trkpt lat="48.06187" lon="2.81503">
        <ele>125</ele>
        <time>2015-11-19T08:49:55Z</time>
      </trkpt>
      <trkpt lat="48.06186" lon="2.81499">
        <ele>126</ele>
        <time>2015-11-19T08:49:56Z</time>
      </trkpt>
      <trkpt lat="48.06185" lon="2.81496">
        <ele>127</ele>
        <time>2015-11-19T08:49:57Z</time>
      </trkpt>
      <trkpt lat="48.06182" lon="2.81493">
        <ele>128</ele>
        <time>2015-11-19T08:49:58Z</time>
      </trkpt>
      <trkpt lat="48.06178" lon="2.81488">
        <ele>129</ele>
        <time>2015-11-19T08:49:59Z</time>
      </trkpt>
      <trkpt lat="48.06174" lon="2.81481">
        <ele>130</ele>
        <time>2015-11-19T08:50:00Z</time>
      </trkpt>
      <trkpt lat="48.0617" lon="2.81475">
        <ele>131</ele>
        <time>2015-11-19T08:50:01Z</time>
      </trkpt>
      <trkpt lat="48.06167" lon="2.81468">
        <ele>132</ele>
        <time>2015-11-19T08:50:02Z</time>
      </trkpt>
      <trkpt lat="48.06164" lon="2.81463">
        <ele>133</ele>
        <time>2015-11-19T08:50:03Z</time>
      </trkpt>
      <trkpt lat="48.06162" lon="2.81459">
        <ele>134</ele>
        <time>2015-11-19T08:50:04Z</time>
      </trkpt>
      <trkpt lat="48.06159" lon="2.81455">
        <ele>135</ele>
        <time>2015-11-19T08:50:05Z</time>
      </trkpt>
      <trkpt lat="48.06156" lon="2.8145">
        <ele>136</ele>
        <time>2015-11-19T08:50:06Z</time>
      </trkpt>
      <trkpt lat="48.06153" lon="2.81444">
        <ele>137</ele>
        <time>2015-11-19T08:50:07Z</time>
      </trkpt>
      <trkpt lat="48.06151" lon="2.81437">
        <ele>138</ele>
        <time>2015-11-19T08:50:08Z</time>
      </trkpt>
      <trkpt lat="48.06148" lon="2.8143">
        <ele>139</ele>
        <time>2015-11-19T08:50:09Z</time>
      </trkpt>
      <trkpt lat="48.06145" lon="2.81424">
        <ele>140</ele>
        <time>2015-11-19T08:50:10Z</time>
      </trkpt>
      <trkpt lat="48.06144" lon="2.81419">
        <ele>141</ele>
        <time>2015-11-19T08:50:11Z</time>
      </trkpt>
      <trkpt lat="48.06141" lon="2.81413">
        <ele>142</ele>
        <time>2015-11-19T08:50:12Z</time>
      </trkpt>
      <trkpt lat="48.06137" lon="2.81407">
        <ele>143</ele>
        <time>2015-11-19T08:50:13Z</time>
      </trkpt>
      <trkpt lat="48.06134" lon="2.814">
        <ele>144</ele>
        <time>2015-11-19T08:50:14Z</time>
      </trkpt>
      <trkpt lat="48.0613" lon="2.81396">
        <ele>144</ele>
        <time>2015-11-19T08:50:15Z</time>
      </trkpt>
      <trkpt lat="48.06126" lon="2.81391">
        <ele>144</ele>
        <time>2015-11-19T08:50:16Z</time>
      </trkpt>
      <trkpt lat="48.06123" lon="2.81385">
        <ele>144</ele>
        <time>2015-11-19T08:50:17Z</time>
      </trkpt>
      <trkpt lat="48.06121" lon="2.81379">
        <ele>144</ele>
        <time>2015-11-19T08:50:18Z</time>
      </trkpt>
      <trkpt lat="48.06118" lon="2.81373">
        <ele>144</ele>
        <time>2015-11-19T08:50:19Z</time>
      </trkpt>
      <trkpt lat="48.06114" lon="2.81366">
        <ele>144</ele>
        <time>2015-11-19T08:50:20Z</time>
      </trkpt>
      <trkpt lat="48.06112" lon="2.8136">
        <ele>144</ele>
        <time>2015-11-19T08:50:21Z</time>
      </trkpt>
      <trkpt lat="48.06109" lon="2.81353">
        <ele>144</ele>
        <time>2015-11-19T08:50:22Z</time>
      </trkpt>
      <trkpt lat="48.06107" lon="2.81346">
        <ele>144</ele>
        <time>2015-11-19T08:50:23Z</time>
      </trkpt>
      <trkpt lat="48.06104" lon="2.81338">
        <ele>144</ele>
        <time>2015-11-19T08:50:24Z</time>
      </trkpt>
      <trkpt lat="48.06099" lon="2.81333">
        <ele>144</ele>
        <time>2015-11-19T08:50:25Z</time>
      </trkpt>
      <trkpt lat="48.06094" lon="2.81326">
        <ele>144</ele>
        <time>2015-11-19T08:50:26Z</time>
      </trkpt>
      <trkpt lat="48.06089" lon="2.81319">
        <ele>144</ele>
        <time>2015-11-19T08:50:27Z</time>
      </trkpt>
      <trkpt lat="48.06086" lon="2.81312">
        <ele>144</ele>
        <time>2015-11-19T08:50:28Z</time>
      </trkpt>
      <trkpt lat="48.06082" lon="2.81306">
        <ele>144</ele>
        <time>2015-11-19T08:50:29Z</time>
      </trkpt>
      <trkpt lat="48.06077" lon="2.813">
        <ele>144</ele>
        <time>2015-11-19T08:50:30Z</time>
      </trkpt>
      <trkpt lat="48.06072" lon="2.81295">
        <ele>144</ele>
        <time>2015-11-19T08:50:31Z</time>
      </trkpt>
      <trkpt lat="48.06068" lon="2.81289">
        <ele>144</ele>
        <time>2015-11-19T08:50:32Z</time>
      </trkpt>
      <trkpt lat="48.06064" lon="2.81282">
        <ele>144</ele>
        <time>2015-11-19T08:50:33Z</time>
      </trkpt>
      <trkpt lat="48.0606" lon="2.81276">
        <ele>144</ele>
        <time>2015-11-19T08:50:34Z</time>
      </trkpt>
      <trkpt lat="48.06056" lon="2.81268">
        <ele>144</ele>
        <time>2015-11-19T08:50:35Z</time>
      </trkpt>
      <trkpt lat="48.06051" lon="2.81261">
        <ele>143</ele>
        <time>2015-11-19T08:50:36Z</time>
      </trkpt>
      <trkpt lat="48.06047" lon="2.81255">
        <ele>142</ele>
        <time>2015-11-19T08:50:37Z</time>
      </trkpt>
      <trkpt lat="48.06044" lon="2.81249">
        <ele>142</ele>
        <time>2015-11-19T08:50:38Z</time>
      </trkpt>
      <trkpt lat="48.06042" lon="2.81241">
        <ele>141</ele>
        <time>2015-11-19T08:50:39Z</time>
      </trkpt>
      <trkpt lat="48.06034" lon="2.81225">
        <ele>141</ele>
        <time>2015-11-19T08:50:41Z</time>
      </trkpt>
      <trkpt lat="48.0603" lon="2.81217">
        <ele>141</ele>
        <time>2015-11-19T08:50:42Z</time>
      </trkpt>
      <trkpt lat="48.06027" lon="2.81209">
        <ele>141</ele>
        <time>2015-11-19T08:50:43Z</time>
      </trkpt>
      <trkpt lat="48.06025" lon="2.81201">
        <ele>140</ele>
        <time>2015-11-19T08:50:44Z</time>
      </trkpt>
      <trkpt lat="48.06022" lon="2.81191">
        <ele>140</ele>
        <time>2015-11-19T08:50:45Z</time>
      </trkpt>
      <trkpt lat="48.06019" lon="2.81184">
        <ele>140</ele>
        <time>2015-11-19T08:50:46Z</time>
      </trkpt>
      <trkpt lat="48.06017" lon="2.81174">
        <ele>140</ele>
        <time>2015-11-19T08:50:47Z</time>
      </trkpt>
      <trkpt lat="48.06014" lon="2.81165">
        <ele>140</ele>
        <time>2015-11-19T08:50:48Z</time>
      </trkpt>
      <trkpt lat="48.06011" lon="2.81157">
        <ele>140</ele>
        <time>2015-11-19T08:50:49Z</time>
      </trkpt>
      <trkpt lat="48.06009" lon="2.81148">
        <ele>140</ele>
        <time>2015-11-19T08:50:50Z</time>
      </trkpt>
      <trkpt lat="48.06007" lon="2.8114">
        <ele>140</ele>
        <time>2015-11-19T08:50:51Z</time>
      </trkpt>
      <trkpt lat="48.06004" lon="2.81132">
        <ele>140</ele>
        <time>2015-11-19T08:50:52Z</time>
      </trkpt>
      <trkpt lat="48.06002" lon="2.81125">
        <ele>140</ele>
        <time>2015-11-19T08:50:53Z</time>
      </trkpt>
      <trkpt lat="48.05998" lon="2.81118">
        <ele>140</ele>
        <time>2015-11-19T08:50:54Z</time>
      </trkpt>
      <trkpt lat="48.05995" lon="2.8111">
        <ele>140</ele>
        <time>2015-11-19T08:50:55Z</time>
      </trkpt>
      <trkpt lat="48.05993" lon="2.81103">
        <ele>140</ele>
        <time>2015-11-19T08:50:56Z</time>
      </trkpt>
      <trkpt lat="48.0599" lon="2.81096">
        <ele>140</ele>
        <time>2015-11-19T08:50:57Z</time>
      </trkpt>
      <trkpt lat="48.05988" lon="2.8109">
        <ele>140</ele>
        <time>2015-11-19T08:50:58Z</time>
      </trkpt>
      <trkpt lat="48.05985" lon="2.81083">
        <ele>140</ele>
        <time>2015-11-19T08:50:59Z</time>
      </trkpt>
      <trkpt lat="48.05983" lon="2.81077">
        <ele>140</ele>
        <time>2015-11-19T08:51:00Z</time>
      </trkpt>
      <trkpt lat="48.0598" lon="2.8107">
        <ele>140</ele>
        <time>2015-11-19T08:51:01Z</time>
      </trkpt>
      <trkpt lat="48.05978" lon="2.81063">
        <ele>141</ele>
        <time>2015-11-19T08:51:02Z</time>
      </trkpt>
      <trkpt lat="48.05975" lon="2.81056">
        <ele>141</ele>
        <time>2015-11-19T08:51:03Z</time>
      </trkpt>
      <trkpt lat="48.0597" lon="2.8105">
        <ele>142</ele>
        <time>2015-11-19T08:51:04Z</time>
      </trkpt>
      <trkpt lat="48.05967" lon="2.81044">
        <ele>142</ele>
        <time>2015-11-19T08:51:05Z</time>
      </trkpt>
      <trkpt lat="48.05964" lon="2.81037">
        <ele>142</ele>
        <time>2015-11-19T08:51:06Z</time>
      </trkpt>
      <trkpt lat="48.05961" lon="2.81031">
        <ele>142</ele>
        <time>2015-11-19T08:51:07Z</time>
      </trkpt>
      <trkpt lat="48.05957" lon="2.81026">
        <ele>142</ele>
        <time>2015-11-19T08:51:08Z</time>
      </trkpt>
      <trkpt lat="48.05954" lon="2.8102">
        <ele>142</ele>
        <time>2015-11-19T08:51:09Z</time>
      </trkpt>
      <trkpt lat="48.0595" lon="2.81013">
        <ele>142</ele>
        <time>2015-11-19T08:51:10Z</time>
      </trkpt>
      <trkpt lat="48.05946" lon="2.81005">
        <ele>142</ele>
        <time>2015-11-19T08:51:11Z</time>
      </trkpt>
      <trkpt lat="48.05943" lon="2.80997">
        <ele>142</ele>
        <time>2015-11-19T08:51:12Z</time>
      </trkpt>
      <trkpt lat="48.0594" lon="2.8099">
        <ele>142</ele>
        <time>2015-11-19T08:51:13Z</time>
      </trkpt>
      <trkpt lat="48.05937" lon="2.80984">
        <ele>142</ele>
        <time>2015-11-19T08:51:14Z</time>
      </trkpt>
      <trkpt lat="48.05933" lon="2.80978">
        <ele>142</ele>
        <time>2015-11-19T08:51:15Z</time>
      </trkpt>
      <trkpt lat="48.0593" lon="2.80971">
        <ele>142</ele>
        <time>2015-11-19T08:51:16Z</time>
      </trkpt>
      <trkpt lat="48.05927" lon="2.80965">
        <ele>142</ele>
        <time>2015-11-19T08:51:17Z</time>
      </trkpt>
      <trkpt lat="48.05924" lon="2.80958">
        <ele>142</ele>
        <time>2015-11-19T08:51:18Z</time>
      </trkpt>
      <trkpt lat="48.05922" lon="2.80953">
        <ele>142</ele>
        <time>2015-11-19T08:51:19Z</time>
      </trkpt>
      <trkpt lat="48.05924" lon="2.80946">
        <ele>142</ele>
        <time>2015-11-19T08:51:20Z</time>
      </trkpt>
      <trkpt lat="48.05926" lon="2.8094">
        <ele>142</ele>
        <time>2015-11-19T08:51:21Z</time>
      </trkpt>
      <trkpt lat="48.05928" lon="2.80936">
        <ele>142</ele>
        <time>2015-11-19T08:51:22Z</time>
      </trkpt>
      <trkpt lat="48.05931" lon="2.80932">
        <ele>142</ele>
        <time>2015-11-19T08:51:23Z</time>
      </trkpt>
      <trkpt lat="48.05935" lon="2.80927">
        <ele>142</ele>
        <time>2015-11-19T08:51:24Z</time>
      </trkpt>
      <trkpt lat="48.05939" lon="2.80922">
        <ele>142</ele>
        <time>2015-11-19T08:51:25Z</time>
      </trkpt>
      <trkpt lat="48.05943" lon="2.80919">
        <ele>141</ele>
        <time>2015-11-19T08:51:26Z</time>
      </trkpt>
      <trkpt lat="48.05947" lon="2.80914">
        <ele>140</ele>
        <time>2015-11-19T08:51:27Z</time>
      </trkpt>
      <trkpt lat="48.05951" lon="2.80909">
        <ele>139</ele>
        <time>2015-11-19T08:51:28Z</time>
      </trkpt>
      <trkpt lat="48.05955" lon="2.80902">
        <ele>139</ele>
        <time>2015-11-19T08:51:29Z</time>
      </trkpt>
      <trkpt lat="48.0596" lon="2.80896">
        <ele>139</ele>
        <time>2015-11-19T08:51:30Z</time>
      </trkpt>
      <trkpt lat="48.05967" lon="2.80886">
        <ele>139</ele>
        <time>2015-11-19T08:51:32Z</time>
      </trkpt>
      <trkpt lat="48.0597" lon="2.80881">
        <ele>139</ele>
        <time>2015-11-19T08:51:33Z</time>
      </trkpt>
      <trkpt lat="48.05974" lon="2.80876">
        <ele>139</ele>
        <time>2015-11-19T08:51:34Z</time>
      </trkpt>
      <trkpt lat="48.05978" lon="2.8087">
        <ele>140</ele>
        <time>2015-11-19T08:51:35Z</time>
      </trkpt>
      <trkpt lat="48.0598" lon="2.80863">
        <ele>141</ele>
        <time>2015-11-19T08:51:36Z</time>
      </trkpt>
      <trkpt lat="48.05984" lon="2.80858">
        <ele>142</ele>
        <time>2015-11-19T08:51:37Z</time>
      </trkpt>
      <trkpt lat="48.05989" lon="2.80852">
        <ele>143</ele>
        <time>2015-11-19T08:51:38Z</time>
      </trkpt>
      <trkpt lat="48.05992" lon="2.80846">
        <ele>144</ele>
        <time>2015-11-19T08:51:39Z</time>
      </trkpt>
      <trkpt lat="48.05994" lon="2.80839">
        <ele>145</ele>
        <time>2015-11-19T08:51:40Z</time>
      </trkpt>
      <trkpt lat="48.05999" lon="2.80833">
        <ele>146</ele>
        <time>2015-11-19T08:51:41Z</time>
      </trkpt>
      <trkpt lat="48.06003" lon="2.80826">
        <ele>146</ele>
        <time>2015-11-19T08:51:42Z</time>
      </trkpt>
      <trkpt lat="48.06008" lon="2.8082">
        <ele>146</ele>
        <time>2015-11-19T08:51:43Z</time>
      </trkpt>
      <trkpt lat="48.06012" lon="2.80815">
        <ele>146</ele>
        <time>2015-11-19T08:51:44Z</time>
      </trkpt>
      <trkpt lat="48.06015" lon="2.8081">
        <ele>146</ele>
        <time>2015-11-19T08:51:45Z</time>
      </trkpt>
      <trkpt lat="48.06018" lon="2.80806">
        <ele>146</ele>
        <time>2015-11-19T08:51:46Z</time>
      </trkpt>
      <trkpt lat="48.0602" lon="2.80802">
        <ele>146</ele>
        <time>2015-11-19T08:51:47Z</time>
      </trkpt>
      <trkpt lat="48.06023" lon="2.80797">
        <ele>146</ele>
        <time>2015-11-19T08:51:48Z</time>
      </trkpt>
      <trkpt lat="48.06027" lon="2.80792">
        <ele>146</ele>
        <time>2015-11-19T08:51:49Z</time>
      </trkpt>
      <trkpt lat="48.06029" lon="2.80786">
        <ele>146</ele>
        <time>2015-11-19T08:51:50Z</time>
      </trkpt>
      <trkpt lat="48.06031" lon="2.80781">
        <ele>146</ele>
        <time>2015-11-19T08:51:51Z</time>
      </trkpt>
      <trkpt lat="48.06034" lon="2.80775">
        <ele>146</ele>
        <time>2015-11-19T08:51:52Z</time>
      </trkpt>
      <trkpt lat="48.06036" lon="2.80771">
        <ele>146</ele>
        <time>2015-11-19T08:51:53Z</time>
      </trkpt>
      <trkpt lat="48.06039" lon="2.80765">
        <ele>147</ele>
        <time>2015-11-19T08:51:54Z</time>
      </trkpt>
      <trkpt lat="48.06043" lon="2.80758">
        <ele>147</ele>
        <time>2015-11-19T08:51:55Z</time>
      </trkpt>
      <trkpt lat="48.06047" lon="2.80752">
        <ele>148</ele>
        <time>2015-11-19T08:51:56Z</time>
      </trkpt>
      <trkpt lat="48.06049" lon="2.80747">
        <ele>148</ele>
        <time>2015-11-19T08:51:57Z</time>
      </trkpt>
      <trkpt lat="48.0605" lon="2.80742">
        <ele>148</ele>
        <time>2015-11-19T08:51:58Z</time>
      </trkpt>
      <trkpt lat="48.06052" lon="2.80737">
        <ele>148</ele>
        <time>2015-11-19T08:51:59Z</time>
      </trkpt>
      <trkpt lat="48.06055" lon="2.80726">
        <ele>148</ele>
        <time>2015-11-19T08:52:01Z</time>
      </trkpt>
      <trkpt lat="48.06058" lon="2.80719">
        <ele>148</ele>
        <time>2015-11-19T08:52:02Z</time>
      </trkpt>
      <trkpt lat="48.0606" lon="2.80713">
        <ele>148</ele>
        <time>2015-11-19T08:52:03Z</time>
      </trkpt>
      <trkpt lat="48.06063" lon="2.80706">
        <ele>148</ele>
        <time>2015-11-19T08:52:04Z</time>
      </trkpt>
      <trkpt lat="48.06066" lon="2.80699">
        <ele>148</ele>
        <time>2015-11-19T08:52:05Z</time>
      </trkpt>
      <trkpt lat="48.06072" lon="2.80693">
        <ele>148</ele>
        <time>2015-11-19T08:52:06Z</time>
      </trkpt>
      <trkpt lat="48.06076" lon="2.80686">
        <ele>148</ele>
        <time>2015-11-19T08:52:07Z</time>
      </trkpt>
      <trkpt lat="48.06081" lon="2.8068">
        <ele>148</ele>
        <time>2015-11-19T08:52:08Z</time>
      </trkpt>
      <trkpt lat="48.06086" lon="2.80675">
        <ele>148</ele>
        <time>2015-11-19T08:52:09Z</time>
      </trkpt>
      <trkpt lat="48.06091" lon="2.8067">
        <ele>149</ele>
        <time>2015-11-19T08:52:10Z</time>
      </trkpt>
      <trkpt lat="48.06094" lon="2.80665">
        <ele>149</ele>
        <time>2015-11-19T08:52:11Z</time>
      </trkpt>
      <trkpt lat="48.06097" lon="2.80661">
        <ele>150</ele>
        <time>2015-11-19T08:52:12Z</time>
      </trkpt>
      <trkpt lat="48.061" lon="2.80658">
        <ele>151</ele>
        <time>2015-11-19T08:52:13Z</time>
      </trkpt>
      <trkpt lat="48.06106" lon="2.80654">
        <ele>151</ele>
        <time>2015-11-19T08:52:14Z</time>
      </trkpt>
      <trkpt lat="48.0611" lon="2.8065">
        <ele>151</ele>
        <time>2015-11-19T08:52:15Z</time>
      </trkpt>
      <trkpt lat="48.06115" lon="2.80648">
        <ele>151</ele>
        <time>2015-11-19T08:52:16Z</time>
      </trkpt>
      <trkpt lat="48.06118" lon="2.80644">
        <ele>151</ele>
        <time>2015-11-19T08:52:17Z</time>
      </trkpt>
      <trkpt lat="48.06123" lon="2.8064">
        <ele>151</ele>
        <time>2015-11-19T08:52:18Z</time>
      </trkpt>
      <trkpt lat="48.06126" lon="2.80636">
        <ele>151</ele>
        <time>2015-11-19T08:52:19Z</time>
      </trkpt>
      <trkpt lat="48.06128" lon="2.80631">
        <ele>151</ele>
        <time>2015-11-19T08:52:20Z</time>
      </trkpt>
      <trkpt lat="48.06131" lon="2.80626">
        <ele>151</ele>
        <time>2015-11-19T08:52:21Z</time>
      </trkpt>
      <trkpt lat="48.06131" lon="2.80622">
        <ele>151</ele>
        <time>2015-11-19T08:52:22Z</time>
      </trkpt>
      <trkpt lat="48.06133" lon="2.80617">
        <ele>151</ele>
        <time>2015-11-19T08:52:23Z</time>
      </trkpt>
      <trkpt lat="48.06134" lon="2.80613">
        <ele>151</ele>
        <time>2015-11-19T08:52:24Z</time>
      </trkpt>
      <trkpt lat="48.06136" lon="2.80608">
        <ele>151</ele>
        <time>2015-11-19T08:52:25Z</time>
      </trkpt>
      <trkpt lat="48.06138" lon="2.80603">
        <ele>151</ele>
        <time>2015-11-19T08:52:26Z</time>
      </trkpt>
      <trkpt lat="48.0614" lon="2.80597">
        <ele>151</ele>
        <time>2015-11-19T08:52:27Z</time>
      </trkpt>
      <trkpt lat="48.06141" lon="2.80592">
        <ele>151</ele>
        <time>2015-11-19T08:52:28Z</time>
      </trkpt>
      <trkpt lat="48.06149" lon="2.80586">
        <ele>151</ele>
        <time>2015-11-19T08:52:29Z</time>
      </trkpt>
      <trkpt lat="48.06156" lon="2.80581">
        <ele>151</ele>
        <time>2015-11-19T08:52:30Z</time>
      </trkpt>
      <trkpt lat="48.06163" lon="2.80576">
        <ele>151</ele>
        <time>2015-11-19T08:52:31Z</time>
      </trkpt>
      <trkpt lat="48.06169" lon="2.8057">
        <ele>151</ele>
        <time>2015-11-19T08:52:32Z</time>
      </trkpt>
      <trkpt lat="48.06174" lon="2.80564">
        <ele>151</ele>
        <time>2015-11-19T08:52:33Z</time>
      </trkpt>
      <trkpt lat="48.06179" lon="2.80557">
        <ele>151</ele>
        <time>2015-11-19T08:52:34Z</time>
      </trkpt>
      <trkpt lat="48.06184" lon="2.80551">
        <ele>151</ele>
        <time>2015-11-19T08:52:35Z</time>
      </trkpt>
      <trkpt lat="48.06187" lon="2.80545">
        <ele>151</ele>
        <time>2015-11-19T08:52:36Z</time>
      </trkpt>
      <trkpt lat="48.06191" lon="2.80538">
        <ele>151</ele>
        <time>2015-11-19T08:52:37Z</time>
      </trkpt>
      <trkpt lat="48.06193" lon="2.80531">
        <ele>151</ele>
        <time>2015-11-19T08:52:38Z</time>
      </trkpt>
      <trkpt lat="48.06196" lon="2.80524">
        <ele>151</ele>
        <time>2015-11-19T08:52:39Z</time>
      </trkpt>
      <trkpt lat="48.06199" lon="2.80517">
        <ele>151</ele>
        <time>2015-11-19T08:52:40Z</time>
      </trkpt>
      <trkpt lat="48.06203" lon="2.80511">
        <ele>151</ele>
        <time>2015-11-19T08:52:41Z</time>
      </trkpt>
      <trkpt lat="48.06207" lon="2.80505">
        <ele>151</ele>
        <time>2015-11-19T08:52:42Z</time>
      </trkpt>
      <trkpt lat="48.0621" lon="2.80498">
        <ele>151</ele>
        <time>2015-11-19T08:52:43Z</time>
      </trkpt>
      <trkpt lat="48.06214" lon="2.80493">
        <ele>151</ele>
        <time>2015-11-19T08:52:44Z</time>
      </trkpt>
      <trkpt lat="48.0622" lon="2.80487">
        <ele>151</ele>
        <time>2015-11-19T08:52:45Z</time>
      </trkpt>
      <trkpt lat="48.06223" lon="2.80482">
        <ele>151</ele>
        <time>2015-11-19T08:52:46Z</time>
      </trkpt>
      <trkpt lat="48.06226" lon="2.80476">
        <ele>151</ele>
        <time>2015-11-19T08:52:47Z</time>
      </trkpt>
      <trkpt lat="48.0623" lon="2.80471">
        <ele>151</ele>
        <time>2015-11-19T08:52:48Z</time>
      </trkpt>
      <trkpt lat="48.06234" lon="2.80466">
        <ele>151</ele>
        <time>2015-11-19T08:52:49Z</time>
      </trkpt>
      <trkpt lat="48.06238" lon="2.8046">
        <ele>151</ele>
        <time>2015-11-19T08:52:50Z</time>
      </trkpt>
      <trkpt lat="48.06241" lon="2.80454">
        <ele>151</ele>
        <time>2015-11-19T08:52:51Z</time>
      </trkpt>
      <trkpt lat="48.06244" lon="2.80448">
        <ele>151</ele>
        <time>2015-11-19T08:52:52Z</time>
      </trkpt>
      <trkpt lat="48.06247" lon="2.80442">
        <ele>151</ele>
        <time>2015-11-19T08:52:53Z</time>
      </trkpt>
      <trkpt lat="48.0625" lon="2.80435">
        <ele>151</ele>
        <time>2015-11-19T08:52:54Z</time>
      </trkpt>
      <trkpt lat="48.06254" lon="2.8043">
        <ele>151</ele>
        <time>2015-11-19T08:52:55Z</time>
      </trkpt>
      <trkpt lat="48.06257" lon="2.80423">
        <ele>151</ele>
        <time>2015-11-19T08:52:56Z</time>
      </trkpt>
      <trkpt lat="48.06261" lon="2.80416">
        <ele>151</ele>
        <time>2015-11-19T08:52:57Z</time>
      </trkpt>
      <trkpt lat="48.06264" lon="2.80408">
        <ele>151</ele>
        <time>2015-11-19T08:52:58Z</time>
      </trkpt>
      <trkpt lat="48.06266" lon="2.80402">
        <ele>151</ele>
        <time>2015-11-19T08:52:59Z</time>
      </trkpt>
      <trkpt lat="48.06269" lon="2.80395">
        <ele>151</ele>
        <time>2015-11-19T08:53:00Z</time>
      </trkpt>
      <trkpt lat="48.06273" lon="2.80388">
        <ele>151</ele>
        <time>2015-11-19T08:53:01Z</time>
      </trkpt>
      <trkpt lat="48.06276" lon="2.8038">
        <ele>151</ele>
        <time>2015-11-19T08:53:02Z</time>
      </trkpt>
      <trkpt lat="48.06278" lon="2.80373">
        <ele>151</ele>
        <time>2015-11-19T08:53:03Z</time>
      </trkpt>
      <trkpt lat="48.06282" lon="2.80366">
        <ele>151</ele>
        <time>2015-11-19T08:53:04Z</time>
      </trkpt>
      <trkpt lat="48.06285" lon="2.80361">
        <ele>151</ele>
        <time>2015-11-19T08:53:05Z</time>
      </trkpt>
      <trkpt lat="48.06287" lon="2.80356">
        <ele>151</ele>
        <time>2015-11-19T08:53:06Z</time>
      </trkpt>
      <trkpt lat="48.06291" lon="2.80351">
        <ele>151</ele>
        <time>2015-11-19T08:53:07Z</time>
      </trkpt>
      <trkpt lat="48.06298" lon="2.80345">
        <ele>151</ele>
        <time>2015-11-19T08:53:08Z</time>
      </trkpt>
      <trkpt lat="48.06302" lon="2.80341">
        <ele>151</ele>
        <time>2015-11-19T08:53:09Z</time>
      </trkpt>
      <trkpt lat="48.06306" lon="2.80337">
        <ele>151</ele>
        <time>2015-11-19T08:53:10Z</time>
      </trkpt>
      <trkpt lat="48.06312" lon="2.80334">
        <ele>151</ele>
        <time>2015-11-19T08:53:11Z</time>
      </trkpt>
      <trkpt lat="48.06318" lon="2.80329">
        <ele>151</ele>
        <time>2015-11-19T08:53:12Z</time>
      </trkpt>
      <trkpt lat="48.06318" lon="2.80325">
        <ele>151</ele>
        <time>2015-11-19T08:53:13Z</time>
      </trkpt>
      <trkpt lat="48.06318" lon="2.8032">
        <ele>151</ele>
        <time>2015-11-19T08:53:14Z</time>
      </trkpt>
      <trkpt lat="48.06321" lon="2.80316">
        <ele>151</ele>
        <time>2015-11-19T08:53:15Z</time>
      </trkpt>
      <trkpt lat="48.06325" lon="2.80307">
        <ele>150</ele>
        <time>2015-11-19T08:53:17Z</time>
      </trkpt>
      <trkpt lat="48.06329" lon="2.80301">
        <ele>149</ele>
        <time>2015-11-19T08:53:18Z</time>
      </trkpt>
      <trkpt lat="48.06336" lon="2.80293">
        <ele>148</ele>
        <time>2015-11-19T08:53:19Z</time>
      </trkpt>
      <trkpt lat="48.06342" lon="2.80285">
        <ele>147</ele>
        <time>2015-11-19T08:53:20Z</time>
      </trkpt>
      <trkpt lat="48.06348" lon="2.80276">
        <ele>146</ele>
        <time>2015-11-19T08:53:21Z</time>
      </trkpt>
      <trkpt lat="48.0635" lon="2.8027">
        <ele>146</ele>
        <time>2015-11-19T08:53:22Z</time>
      </trkpt>
      <trkpt lat="48.0635" lon="2.80264">
        <ele>146</ele>
        <time>2015-11-19T08:53:23Z</time>
      </trkpt>
      <trkpt lat="48.0635" lon="2.80258">
        <ele>146</ele>
        <time>2015-11-19T08:53:24Z</time>
      </trkpt>
      <trkpt lat="48.06349" lon="2.80252">
        <ele>146</ele>
        <time>2015-11-19T08:53:25Z</time>
      </trkpt>
      <trkpt lat="48.06348" lon="2.80245">
        <ele>146</ele>
        <time>2015-11-19T08:53:26Z</time>
      </trkpt>
      <trkpt lat="48.06347" lon="2.8024">
        <ele>146</ele>
        <time>2015-11-19T08:53:27Z</time>
      </trkpt>
      <trkpt lat="48.06345" lon="2.80234">
        <ele>146</ele>
        <time>2015-11-19T08:53:28Z</time>
      </trkpt>
      <trkpt lat="48.06343" lon="2.80228">
        <ele>146</ele>
        <time>2015-11-19T08:53:29Z</time>
      </trkpt>
      <trkpt lat="48.06341" lon="2.80222">
        <ele>146</ele>
        <time>2015-11-19T08:53:30Z</time>
      </trkpt>
      <trkpt lat="48.06338" lon="2.80217">
        <ele>146</ele>
        <time>2015-11-19T08:53:31Z</time>
      </trkpt>
      <trkpt lat="48.06335" lon="2.80212">
        <ele>146</ele>
        <time>2015-11-19T08:53:32Z</time>
      </trkpt>
      <trkpt lat="48.06333" lon="2.80206">
        <ele>146</ele>
        <time>2015-11-19T08:53:33Z</time>
      </trkpt>
      <trkpt lat="48.0633" lon="2.80202">
        <ele>146</ele>
        <time>2015-11-19T08:53:34Z</time>
      </trkpt>
      <trkpt lat="48.06328" lon="2.80196">
        <ele>146</ele>
        <time>2015-11-19T08:53:35Z</time>
      </trkpt>
      <trkpt lat="48.06324" lon="2.80191">
        <ele>146</ele>
        <time>2015-11-19T08:53:36Z</time>
      </trkpt>
      <trkpt lat="48.06322" lon="2.80186">
        <ele>145</ele>
        <time>2015-11-19T08:53:37Z</time>
      </trkpt>
      <trkpt lat="48.06319" lon="2.80181">
        <ele>144</ele>
        <time>2015-11-19T08:53:38Z</time>
      </trkpt>
      <trkpt lat="48.06318" lon="2.80177">
        <ele>143</ele>
        <time>2015-11-19T08:53:39Z</time>
      </trkpt>
      <trkpt lat="48.06317" lon="2.80169">
        <ele>142</ele>
        <time>2015-11-19T08:53:40Z</time>
      </trkpt>
      <trkpt lat="48.06314" lon="2.80164">
        <ele>142</ele>
        <time>2015-11-19T08:53:41Z</time>
      </trkpt>
      <trkpt lat="48.06309" lon="2.80157">
        <ele>142</ele>
        <time>2015-11-19T08:53:42Z</time>
      </trkpt>
      <trkpt lat="48.06307" lon="2.8015">
        <ele>141</ele>
        <time>2015-11-19T08:53:43Z</time>
      </trkpt>
      <trkpt lat="48.06303" lon="2.80143">
        <ele>141</ele>
        <time>2015-11-19T08:53:44Z</time>
      </trkpt>
      <trkpt lat="48.063" lon="2.80137">
        <ele>140</ele>
        <time>2015-11-19T08:53:45Z</time>
      </trkpt>
      <trkpt lat="48.06297" lon="2.80131">
        <ele>139</ele>
        <time>2015-11-19T08:53:46Z</time>
      </trkpt>
      <trkpt lat="48.06294" lon="2.80125">
        <ele>138</ele>
        <time>2015-11-19T08:53:47Z</time>
      </trkpt>
      <trkpt lat="48.0629" lon="2.80119">
        <ele>137</ele>
        <time>2015-11-19T08:53:48Z</time>
      </trkpt>
      <trkpt lat="48.06286" lon="2.80113">
        <ele>136</ele>
        <time>2015-11-19T08:53:49Z</time>
      </trkpt>
      <trkpt lat="48.06284" lon="2.80103">
        <ele>135</ele>
        <time>2015-11-19T08:53:50Z</time>
      </trkpt>
      <trkpt lat="48.06283" lon="2.80095">
        <ele>135</ele>
        <time>2015-11-19T08:53:51Z</time>
      </trkpt>
      <trkpt lat="48.06281" lon="2.80087">
        <ele>135</ele>
        <time>2015-11-19T08:53:52Z</time>
      </trkpt>
      <trkpt lat="48.06279" lon="2.8008">
        <ele>135</ele>
        <time>2015-11-19T08:53:53Z</time>
      </trkpt>
      <trkpt lat="48.06276" lon="2.80072">
        <ele>135</ele>
        <time>2015-11-19T08:53:54Z</time>
      </trkpt>
      <trkpt lat="48.06273" lon="2.80065">
        <ele>135</ele>
        <time>2015-11-19T08:53:55Z</time>
      </trkpt>
      <trkpt lat="48.0627" lon="2.80057">
        <ele>135</ele>
        <time>2015-11-19T08:53:56Z</time>
      </trkpt>
      <trkpt lat="48.06268" lon="2.8005">
        <ele>135</ele>
        <time>2015-11-19T08:53:57Z</time>
      </trkpt>
      <trkpt lat="48.06266" lon="2.80041">
        <ele>135</ele>
        <time>2015-11-19T08:53:58Z</time>
      </trkpt>
      <trkpt lat="48.06264" lon="2.80033">
        <ele>135</ele>
        <time>2015-11-19T08:53:59Z</time>
      </trkpt>
      <trkpt lat="48.06262" lon="2.80024">
        <ele>135</ele>
        <time>2015-11-19T08:54:00Z</time>
      </trkpt>
      <trkpt lat="48.0626" lon="2.80017">
        <ele>135</ele>
        <time>2015-11-19T08:54:01Z</time>
      </trkpt>
      <trkpt lat="48.06258" lon="2.8001">
        <ele>135</ele>
        <time>2015-11-19T08:54:02Z</time>
      </trkpt>
      <trkpt lat="48.06255" lon="2.80003">
        <ele>135</ele>
        <time>2015-11-19T08:54:03Z</time>
      </trkpt>
      <trkpt lat="48.06253" lon="2.79996">
        <ele>135</ele>
        <time>2015-11-19T08:54:04Z</time>
      </trkpt>
      <trkpt lat="48.06252" lon="2.79989">
        <ele>135</ele>
        <time>2015-11-19T08:54:05Z</time>
      </trkpt>
      <trkpt lat="48.06251" lon="2.79981">
        <ele>135</ele>
        <time>2015-11-19T08:54:06Z</time>
      </trkpt>
      <trkpt lat="48.0625" lon="2.79974">
        <ele>135</ele>
        <time>2015-11-19T08:54:07Z</time>
      </trkpt>
      <trkpt lat="48.0625" lon="2.79965">
        <ele>135</ele>
        <time>2015-11-19T08:54:08Z</time>
      </trkpt>
      <trkpt lat="48.0625" lon="2.79958">
        <ele>135</ele>
        <time>2015-11-19T08:54:09Z</time>
      </trkpt>
      <trkpt lat="48.06252" lon="2.79952">
        <ele>135</ele>
        <time>2015-11-19T08:54:10Z</time>
      </trkpt>
      <trkpt lat="48.06255" lon="2.79944">
        <ele>135</ele>
        <time>2015-11-19T08:54:11Z</time>
      </trkpt>
      <trkpt lat="48.06262" lon="2.7994">
        <ele>135</ele>
        <time>2015-11-19T08:54:12Z</time>
      </trkpt>
      <trkpt lat="48.06269" lon="2.79935">
        <ele>135</ele>
        <time>2015-11-19T08:54:13Z</time>
      </trkpt>
      <trkpt lat="48.06276" lon="2.79931">
        <ele>135</ele>
        <time>2015-11-19T08:54:14Z</time>
      </trkpt>
      <trkpt lat="48.06283" lon="2.79925">
        <ele>135</ele>
        <time>2015-11-19T08:54:15Z</time>
      </trkpt>
      <trkpt lat="48.06289" lon="2.7992">
        <ele>135</ele>
        <time>2015-11-19T08:54:16Z</time>
      </trkpt>
      <trkpt lat="48.06293" lon="2.79914">
        <ele>135</ele>
        <time>2015-11-19T08:54:17Z</time>
      </trkpt>
      <trkpt lat="48.06297" lon="2.79908">
        <ele>135</ele>
        <time>2015-11-19T08:54:18Z</time>
      </trkpt>
      <trkpt lat="48.06301" lon="2.79904">
        <ele>135</ele>
        <time>2015-11-19T08:54:19Z</time>
      </trkpt>
      <trkpt lat="48.06306" lon="2.79901">
        <ele>134</ele>
        <time>2015-11-19T08:54:20Z</time>
      </trkpt>
      <trkpt lat="48.06311" lon="2.79895">
        <ele>133</ele>
        <time>2015-11-19T08:54:21Z</time>
      </trkpt>
      <trkpt lat="48.06316" lon="2.79888">
        <ele>132</ele>
        <time>2015-11-19T08:54:22Z</time>
      </trkpt>
      <trkpt lat="48.0632" lon="2.79883">
        <ele>131</ele>
        <time>2015-11-19T08:54:23Z</time>
      </trkpt>
      <trkpt lat="48.06325" lon="2.79875">
        <ele>131</ele>
        <time>2015-11-19T08:54:24Z</time>
      </trkpt>
      <trkpt lat="48.0633" lon="2.79869">
        <ele>131</ele>
        <time>2015-11-19T08:54:25Z</time>
      </trkpt>
      <trkpt lat="48.06336" lon="2.79862">
        <ele>131</ele>
        <time>2015-11-19T08:54:26Z</time>
      </trkpt>
      <trkpt lat="48.06341" lon="2.79856">
        <ele>130</ele>
        <time>2015-11-19T08:54:27Z</time>
      </trkpt>
      <trkpt lat="48.06347" lon="2.79851">
        <ele>130</ele>
        <time>2015-11-19T08:54:28Z</time>
      </trkpt>
      <trkpt lat="48.06352" lon="2.79845">
        <ele>129</ele>
        <time>2015-11-19T08:54:29Z</time>
      </trkpt>
      <trkpt lat="48.06357" lon="2.7984">
        <ele>128</ele>
        <time>2015-11-19T08:54:30Z</time>
      </trkpt>
      <trkpt lat="48.06361" lon="2.79836">
        <ele>127</ele>
        <time>2015-11-19T08:54:31Z</time>
      </trkpt>
      <trkpt lat="48.06366" lon="2.79832">
        <ele>126</ele>
        <time>2015-11-19T08:54:32Z</time>
      </trkpt>
      <trkpt lat="48.0637" lon="2.79826">
        <ele>125</ele>
        <time>2015-11-19T08:54:33Z</time>
      </trkpt>
      <trkpt lat="48.06376" lon="2.79821">
        <ele>124</ele>
        <time>2015-11-19T08:54:34Z</time>
      </trkpt>
      <trkpt lat="48.0638" lon="2.79817">
        <ele>123</ele>
        <time>2015-11-19T08:54:35Z</time>
      </trkpt>
      <trkpt lat="48.06385" lon="2.79813">
        <ele>122</ele>
        <time>2015-11-19T08:54:36Z</time>
      </trkpt>
      <trkpt lat="48.06389" lon="2.79808">
        <ele>121</ele>
        <time>2015-11-19T08:54:37Z</time>
      </trkpt>
      <trkpt lat="48.06398" lon="2.79797">
        <ele>120</ele>
        <time>2015-11-19T08:54:39Z</time>
      </trkpt>
      <trkpt lat="48.06401" lon="2.79792">
        <ele>120</ele>
        <time>2015-11-19T08:54:40Z</time>
      </trkpt>
      <trkpt lat="48.06405" lon="2.79787">
        <ele>120</ele>
        <time>2015-11-19T08:54:41Z</time>
      </trkpt>
      <trkpt lat="48.0641" lon="2.79783">
        <ele>120</ele>
        <time>2015-11-19T08:54:42Z</time>
      </trkpt>
      <trkpt lat="48.06413" lon="2.79779">
        <ele>120</ele>
        <time>2015-11-19T08:54:43Z</time>
      </trkpt>
      <trkpt lat="48.06414" lon="2.79775">
        <ele>120</ele>
        <time>2015-11-19T08:54:44Z</time>
      </trkpt>
      <trkpt lat="48.06414" lon="2.79771">
        <ele>120</ele>
        <time>2015-11-19T08:54:45Z</time>
      </trkpt>
      <trkpt lat="48.06414" lon="2.79768">
        <ele>120</ele>
        <time>2015-11-19T08:54:46Z</time>
      </trkpt>
      <trkpt lat="48.06413" lon="2.79767">
        <ele>120</ele>
        <time>2015-11-19T08:54:47Z</time>
      </trkpt>
      <trkpt lat="48.06411" lon="2.79763">
        <ele>120</ele>
        <time>2015-11-19T08:54:48Z</time>
      </trkpt>
      <trkpt lat="48.0641" lon="2.79759">
        <ele>120</ele>
        <time>2015-11-19T08:54:49Z</time>
      </trkpt>
      <trkpt lat="48.06408" lon="2.79756">
        <ele>120</ele>
        <time>2015-11-19T08:54:50Z</time>
      </trkpt>
      <trkpt lat="48.06407" lon="2.79754">
        <ele>120</ele>
        <time>2015-11-19T08:54:51Z</time>
      </trkpt>
      <trkpt lat="48.06406" lon="2.79753">
        <ele>120</ele>
        <time>2015-11-19T08:54:53Z</time>
      </trkpt>
      <trkpt lat="48.064" lon="2.79753">
        <ele>111</ele>
        <time>2015-11-19T08:54:56Z</time>
      </trkpt>
      <trkpt lat="48.06399" lon="2.79737">
        <ele>103</ele>
        <time>2015-11-19T08:55:02Z</time>
      </trkpt>
      <trkpt lat="48.06398" lon="2.79735">
        <ele>104</ele>
        <time>2015-11-19T08:55:03Z</time>
      </trkpt>
      <trkpt lat="48.06397" lon="2.7973">
        <ele>105</ele>
        <time>2015-11-19T08:55:04Z</time>
      </trkpt>
      <trkpt lat="48.06395" lon="2.79726">
        <ele>106</ele>
        <time>2015-11-19T08:55:05Z</time>
      </trkpt>
      <trkpt lat="48.06392" lon="2.7972">
        <ele>107</ele>
        <time>2015-11-19T08:55:06Z</time>
      </trkpt>
      <trkpt lat="48.06389" lon="2.79714">
        <ele>108</ele>
        <time>2015-11-19T08:55:07Z</time>
      </trkpt>
      <trkpt lat="48.06385" lon="2.79707">
        <ele>109</ele>
        <time>2015-11-19T08:55:08Z</time>
      </trkpt>
      <trkpt lat="48.06381" lon="2.79701">
        <ele>110</ele>
        <time>2015-11-19T08:55:09Z</time>
      </trkpt>
      <trkpt lat="48.06378" lon="2.79696">
        <ele>111</ele>
        <time>2015-11-19T08:55:10Z</time>
      </trkpt>
      <trkpt lat="48.06375" lon="2.79691">
        <ele>111</ele>
        <time>2015-11-19T08:55:11Z</time>
      </trkpt>
      <trkpt lat="48.06372" lon="2.79683">
        <ele>111</ele>
        <time>2015-11-19T08:55:12Z</time>
      </trkpt>
      <trkpt lat="48.0637" lon="2.79676">
        <ele>111</ele>
        <time>2015-11-19T08:55:13Z</time>
      </trkpt>
      <trkpt lat="48.06369" lon="2.7967">
        <ele>111</ele>
        <time>2015-11-19T08:55:14Z</time>
      </trkpt>
      <trkpt lat="48.06367" lon="2.79664">
        <ele>111</ele>
        <time>2015-11-19T08:55:15Z</time>
      </trkpt>
      <trkpt lat="48.06362" lon="2.79656">
        <ele>111</ele>
        <time>2015-11-19T08:55:16Z</time>
      </trkpt>
      <trkpt lat="48.06359" lon="2.79649">
        <ele>112</ele>
        <time>2015-11-19T08:55:17Z</time>
      </trkpt>
      <trkpt lat="48.06356" lon="2.79642">
        <ele>113</ele>
        <time>2015-11-19T08:55:18Z</time>
      </trkpt>
      <trkpt lat="48.06354" lon="2.79637">
        <ele>114</ele>
        <time>2015-11-19T08:55:19Z</time>
      </trkpt>
      <trkpt lat="48.06352" lon="2.7963">
        <ele>115</ele>
        <time>2015-11-19T08:55:20Z</time>
      </trkpt>
      <trkpt lat="48.0635" lon="2.79625">
        <ele>116</ele>
        <time>2015-11-19T08:55:21Z</time>
      </trkpt>
      <trkpt lat="48.06346" lon="2.79618">
        <ele>117</ele>
        <time>2015-11-19T08:55:22Z</time>
      </trkpt>
      <trkpt lat="48.06342" lon="2.7961">
        <ele>118</ele>
        <time>2015-11-19T08:55:23Z</time>
      </trkpt>
      <trkpt lat="48.06338" lon="2.79602">
        <ele>119</ele>
        <time>2015-11-19T08:55:24Z</time>
      </trkpt>
      <trkpt lat="48.06334" lon="2.79595">
        <ele>120</ele>
        <time>2015-11-19T08:55:25Z</time>
      </trkpt>
      <trkpt lat="48.0633" lon="2.79587">
        <ele>121</ele>
        <time>2015-11-19T08:55:26Z</time>
      </trkpt>
      <trkpt lat="48.06328" lon="2.79581">
        <ele>122</ele>
        <time>2015-11-19T08:55:27Z</time>
      </trkpt>
      <trkpt lat="48.06326" lon="2.79577">
        <ele>123</ele>
        <time>2015-11-19T08:55:28Z</time>
      </trkpt>
      <trkpt lat="48.06324" lon="2.79572">
        <ele>124</ele>
        <time>2015-11-19T08:55:29Z</time>
      </trkpt>
      <trkpt lat="48.06321" lon="2.79566">
        <ele>125</ele>
        <time>2015-11-19T08:55:30Z</time>
      </trkpt>
      <trkpt lat="48.06318" lon="2.79559">
        <ele>126</ele>
        <time>2015-11-19T08:55:31Z</time>
      </trkpt>
      <trkpt lat="48.06314" lon="2.79552">
        <ele>127</ele>
        <time>2015-11-19T08:55:32Z</time>
      </trkpt>
      <trkpt lat="48.0631" lon="2.79544">
        <ele>128</ele>
        <time>2015-11-19T08:55:33Z</time>
      </trkpt>
      <trkpt lat="48.06305" lon="2.79536">
        <ele>129</ele>
        <time>2015-11-19T08:55:34Z</time>
      </trkpt>
      <trkpt lat="48.06302" lon="2.79528">
        <ele>130</ele>
        <time>2015-11-19T08:55:35Z</time>
      </trkpt>
      <trkpt lat="48.06299" lon="2.79522">
        <ele>131</ele>
        <time>2015-11-19T08:55:36Z</time>
      </trkpt>
      <trkpt lat="48.06296" lon="2.79513">
        <ele>131</ele>
        <time>2015-11-19T08:55:37Z</time>
      </trkpt>
      <trkpt lat="48.06294" lon="2.79506">
        <ele>132</ele>
        <time>2015-11-19T08:55:38Z</time>
      </trkpt>
      <trkpt lat="48.06288" lon="2.79492">
        <ele>132</ele>
        <time>2015-11-19T08:55:40Z</time>
      </trkpt>
      <trkpt lat="48.06284" lon="2.79487">
        <ele>133</ele>
        <time>2015-11-19T08:55:41Z</time>
      </trkpt>
      <trkpt lat="48.06282" lon="2.79481">
        <ele>133</ele>
        <time>2015-11-19T08:55:42Z</time>
      </trkpt>
      <trkpt lat="48.06279" lon="2.79476">
        <ele>133</ele>
        <time>2015-11-19T08:55:43Z</time>
      </trkpt>
      <trkpt lat="48.06277" lon="2.7947">
        <ele>133</ele>
        <time>2015-11-19T08:55:44Z</time>
      </trkpt>
      <trkpt lat="48.06274" lon="2.79463">
        <ele>134</ele>
        <time>2015-11-19T08:55:45Z</time>
      </trkpt>
      <trkpt lat="48.06272" lon="2.79456">
        <ele>134</ele>
        <time>2015-11-19T08:55:46Z</time>
      </trkpt>
      <trkpt lat="48.06269" lon="2.79449">
        <ele>134</ele>
        <time>2015-11-19T08:55:47Z</time>
      </trkpt>
      <trkpt lat="48.06266" lon="2.79442">
        <ele>134</ele>
        <time>2015-11-19T08:55:48Z</time>
      </trkpt>
      <trkpt lat="48.06261" lon="2.79434">
        <ele>134</ele>
        <time>2015-11-19T08:55:49Z</time>
      </trkpt>
      <trkpt lat="48.06257" lon="2.79427">
        <ele>134</ele>
        <time>2015-11-19T08:55:50Z</time>
      </trkpt>
      <trkpt lat="48.06253" lon="2.7942">
        <ele>134</ele>
        <time>2015-11-19T08:55:51Z</time>
      </trkpt>
      <trkpt lat="48.06248" lon="2.79414">
        <ele>134</ele>
        <time>2015-11-19T08:55:52Z</time>
      </trkpt>
      <trkpt lat="48.06245" lon="2.79406">
        <ele>134</ele>
        <time>2015-11-19T08:55:53Z</time>
      </trkpt>
      <trkpt lat="48.06242" lon="2.79398">
        <ele>134</ele>
        <time>2015-11-19T08:55:54Z</time>
      </trkpt>
      <trkpt lat="48.06237" lon="2.79389">
        <ele>134</ele>
        <time>2015-11-19T08:55:55Z</time>
      </trkpt>
      <trkpt lat="48.06234" lon="2.79382">
        <ele>134</ele>
        <time>2015-11-19T08:55:56Z</time>
      </trkpt>
      <trkpt lat="48.06231" lon="2.79372">
        <ele>134</ele>
        <time>2015-11-19T08:55:57Z</time>
      </trkpt>
      <trkpt lat="48.06227" lon="2.79366">
        <ele>134</ele>
        <time>2015-11-19T08:55:58Z</time>
      </trkpt>
      <trkpt lat="48.06224" lon="2.7936">
        <ele>134</ele>
        <time>2015-11-19T08:55:59Z</time>
      </trkpt>
      <trkpt lat="48.0622" lon="2.79353">
        <ele>134</ele>
        <time>2015-11-19T08:56:00Z</time>
      </trkpt>
      <trkpt lat="48.06216" lon="2.79341">
        <ele>134</ele>
        <time>2015-11-19T08:56:02Z</time>
      </trkpt>
      <trkpt lat="48.06214" lon="2.79335">
        <ele>134</ele>
        <time>2015-11-19T08:56:03Z</time>
      </trkpt>
      <trkpt lat="48.06211" lon="2.7933">
        <ele>134</ele>
        <time>2015-11-19T08:56:04Z</time>
      </trkpt>
      <trkpt lat="48.06207" lon="2.79323">
        <ele>134</ele>
        <time>2015-11-19T08:56:05Z</time>
      </trkpt>
      <trkpt lat="48.06203" lon="2.79318">
        <ele>134</ele>
        <time>2015-11-19T08:56:06Z</time>
      </trkpt>
      <trkpt lat="48.062" lon="2.79311">
        <ele>134</ele>
        <time>2015-11-19T08:56:07Z</time>
      </trkpt>
      <trkpt lat="48.06195" lon="2.79302">
        <ele>133</ele>
        <time>2015-11-19T08:56:08Z</time>
      </trkpt>
      <trkpt lat="48.0619" lon="2.79292">
        <ele>132</ele>
        <time>2015-11-19T08:56:09Z</time>
      </trkpt>
      <trkpt lat="48.06186" lon="2.79284">
        <ele>131</ele>
        <time>2015-11-19T08:56:10Z</time>
      </trkpt>
      <trkpt lat="48.06182" lon="2.79277">
        <ele>130</ele>
        <time>2015-11-19T08:56:11Z</time>
      </trkpt>
      <trkpt lat="48.06179" lon="2.79268">
        <ele>129</ele>
        <time>2015-11-19T08:56:12Z</time>
      </trkpt>
      <trkpt lat="48.06177" lon="2.79261">
        <ele>128</ele>
        <time>2015-11-19T08:56:13Z</time>
      </trkpt>
      <trkpt lat="48.06174" lon="2.79254">
        <ele>127</ele>
        <time>2015-11-19T08:56:14Z</time>
      </trkpt>
      <trkpt lat="48.06171" lon="2.79247">
        <ele>126</ele>
        <time>2015-11-19T08:56:15Z</time>
      </trkpt>
      <trkpt lat="48.06169" lon="2.79239">
        <ele>125</ele>
        <time>2015-11-19T08:56:16Z</time>
      </trkpt>
      <trkpt lat="48.06167" lon="2.7923">
        <ele>124</ele>
        <time>2015-11-19T08:56:17Z</time>
      </trkpt>
      <trkpt lat="48.06164" lon="2.79224">
        <ele>123</ele>
        <time>2015-11-19T08:56:18Z</time>
      </trkpt>
      <trkpt lat="48.0616" lon="2.79217">
        <ele>122</ele>
        <time>2015-11-19T08:56:19Z</time>
      </trkpt>
      <trkpt lat="48.06158" lon="2.7921">
        <ele>121</ele>
        <time>2015-11-19T08:56:20Z</time>
      </trkpt>
      <trkpt lat="48.06155" lon="2.79204">
        <ele>120</ele>
        <time>2015-11-19T08:56:21Z</time>
      </trkpt>
      <trkpt lat="48.06151" lon="2.79198">
        <ele>119</ele>
        <time>2015-11-19T08:56:22Z</time>
      </trkpt>
      <trkpt lat="48.06148" lon="2.7919">
        <ele>118</ele>
        <time>2015-11-19T08:56:23Z</time>
      </trkpt>
      <trkpt lat="48.06145" lon="2.79184">
        <ele>117</ele>
        <time>2015-11-19T08:56:24Z</time>
      </trkpt>
      <trkpt lat="48.06143" lon="2.79178">
        <ele>116</ele>
        <time>2015-11-19T08:56:25Z</time>
      </trkpt>
      <trkpt lat="48.06141" lon="2.7917">
        <ele>115</ele>
        <time>2015-11-19T08:56:26Z</time>
      </trkpt>
      <trkpt lat="48.06138" lon="2.79163">
        <ele>114</ele>
        <time>2015-11-19T08:56:27Z</time>
      </trkpt>
      <trkpt lat="48.06136" lon="2.79157">
        <ele>114</ele>
        <time>2015-11-19T08:56:28Z</time>
      </trkpt>
      <trkpt lat="48.06133" lon="2.79151">
        <ele>113</ele>
        <time>2015-11-19T08:56:29Z</time>
      </trkpt>
      <trkpt lat="48.0613" lon="2.79147">
        <ele>113</ele>
        <time>2015-11-19T08:56:30Z</time>
      </trkpt>
      <trkpt lat="48.06126" lon="2.79143">
        <ele>113</ele>
        <time>2015-11-19T08:56:31Z</time>
      </trkpt>
      <trkpt lat="48.06122" lon="2.7914">
        <ele>113</ele>
        <time>2015-11-19T08:56:32Z</time>
      </trkpt>
      <trkpt lat="48.06118" lon="2.79136">
        <ele>113</ele>
        <time>2015-11-19T08:56:33Z</time>
      </trkpt>
      <trkpt lat="48.06112" lon="2.79132">
        <ele>113</ele>
        <time>2015-11-19T08:56:34Z</time>
      </trkpt>
      <trkpt lat="48.06106" lon="2.79127">
        <ele>113</ele>
        <time>2015-11-19T08:56:35Z</time>
      </trkpt>
      <trkpt lat="48.06101" lon="2.7912">
        <ele>113</ele>
        <time>2015-11-19T08:56:36Z</time>
      </trkpt>
      <trkpt lat="48.06096" lon="2.79116">
        <ele>113</ele>
        <time>2015-11-19T08:56:37Z</time>
      </trkpt>
      <trkpt lat="48.06091" lon="2.79113">
        <ele>114</ele>
        <time>2015-11-19T08:56:38Z</time>
      </trkpt>
      <trkpt lat="48.06086" lon="2.7911">
        <ele>115</ele>
        <time>2015-11-19T08:56:39Z</time>
      </trkpt>
      <trkpt lat="48.06081" lon="2.79107">
        <ele>115</ele>
        <time>2015-11-19T08:56:40Z</time>
      </trkpt>
      <trkpt lat="48.06075" lon="2.79104">
        <ele>115</ele>
        <time>2015-11-19T08:56:41Z</time>
      </trkpt>
      <trkpt lat="48.0607" lon="2.79102">
        <ele>115</ele>
        <time>2015-11-19T08:56:42Z</time>
      </trkpt>
      <trkpt lat="48.06064" lon="2.791">
        <ele>115</ele>
        <time>2015-11-19T08:56:43Z</time>
      </trkpt>
      <trkpt lat="48.06059" lon="2.79096">
        <ele>115</ele>
        <time>2015-11-19T08:56:44Z</time>
      </trkpt>
      <trkpt lat="48.06054" lon="2.79091">
        <ele>115</ele>
        <time>2015-11-19T08:56:45Z</time>
      </trkpt>
      <trkpt lat="48.06048" lon="2.79086">
        <ele>115</ele>
        <time>2015-11-19T08:56:46Z</time>
      </trkpt>
      <trkpt lat="48.06043" lon="2.79081">
        <ele>115</ele>
        <time>2015-11-19T08:56:47Z</time>
      </trkpt>
      <trkpt lat="48.06039" lon="2.79076">
        <ele>115</ele>
        <time>2015-11-19T08:56:48Z</time>
      </trkpt>
      <trkpt lat="48.06036" lon="2.79072">
        <ele>115</ele>
        <time>2015-11-19T08:56:49Z</time>
      </trkpt>
      <trkpt lat="48.06031" lon="2.79067">
        <ele>115</ele>
        <time>2015-11-19T08:56:50Z</time>
      </trkpt>
      <trkpt lat="48.06027" lon="2.79063">
        <ele>115</ele>
        <time>2015-11-19T08:56:51Z</time>
      </trkpt>
      <trkpt lat="48.06025" lon="2.79058">
        <ele>115</ele>
        <time>2015-11-19T08:56:52Z</time>
      </trkpt>
      <trkpt lat="48.06023" lon="2.79052">
        <ele>115</ele>
        <time>2015-11-19T08:56:53Z</time>
      </trkpt>
      <trkpt lat="48.06021" lon="2.79047">
        <ele>115</ele>
        <time>2015-11-19T08:56:54Z</time>
      </trkpt>
      <trkpt lat="48.0602" lon="2.79043">
        <ele>115</ele>
        <time>2015-11-19T08:56:55Z</time>
      </trkpt>
      <trkpt lat="48.0602" lon="2.79037">
        <ele>115</ele>
        <time>2015-11-19T08:56:56Z</time>
      </trkpt>
      <trkpt lat="48.0602" lon="2.7903">
        <ele>115</ele>
        <time>2015-11-19T08:56:57Z</time>
      </trkpt>
      <trkpt lat="48.06019" lon="2.79025">
        <ele>115</ele>
        <time>2015-11-19T08:56:58Z</time>
      </trkpt>
      <trkpt lat="48.06017" lon="2.79017">
        <ele>115</ele>
        <time>2015-11-19T08:56:59Z</time>
      </trkpt>
      <trkpt lat="48.06016" lon="2.79011">
        <ele>115</ele>
        <time>2015-11-19T08:57:00Z</time>
      </trkpt>
      <trkpt lat="48.06012" lon="2.79002">
        <ele>115</ele>
        <time>2015-11-19T08:57:01Z</time>
      </trkpt>
      <trkpt lat="48.06009" lon="2.78995">
        <ele>115</ele>
        <time>2015-11-19T08:57:02Z</time>
      </trkpt>
      <trkpt lat="48.06007" lon="2.78989">
        <ele>115</ele>
        <time>2015-11-19T08:57:03Z</time>
      </trkpt>
      <trkpt lat="48.06004" lon="2.78983">
        <ele>115</ele>
        <time>2015-11-19T08:57:04Z</time>
      </trkpt>
      <trkpt lat="48.06" lon="2.78974">
        <ele>115</ele>
        <time>2015-11-19T08:57:05Z</time>
      </trkpt>
      <trkpt lat="48.05997" lon="2.7897">
        <ele>115</ele>
        <time>2015-11-19T08:57:06Z</time>
      </trkpt>
      <trkpt lat="48.05994" lon="2.78963">
        <ele>115</ele>
        <time>2015-11-19T08:57:07Z</time>
      </trkpt>
      <trkpt lat="48.05991" lon="2.78956">
        <ele>115</ele>
        <time>2015-11-19T08:57:08Z</time>
      </trkpt>
      <trkpt lat="48.05988" lon="2.78949">
        <ele>115</ele>
        <time>2015-11-19T08:57:09Z</time>
      </trkpt>
      <trkpt lat="48.05984" lon="2.78941">
        <ele>116</ele>
        <time>2015-11-19T08:57:10Z</time>
      </trkpt>
      <trkpt lat="48.05983" lon="2.78936">
        <ele>117</ele>
        <time>2015-11-19T08:57:11Z</time>
      </trkpt>
      <trkpt lat="48.05981" lon="2.78929">
        <ele>118</ele>
        <time>2015-11-19T08:57:12Z</time>
      </trkpt>
      <trkpt lat="48.0598" lon="2.78923">
        <ele>119</ele>
        <time>2015-11-19T08:57:13Z</time>
      </trkpt>
      <trkpt lat="48.05978" lon="2.78913">
        <ele>120</ele>
        <time>2015-11-19T08:57:14Z</time>
      </trkpt>
      <trkpt lat="48.05976" lon="2.78904">
        <ele>121</ele>
        <time>2015-11-19T08:57:15Z</time>
      </trkpt>
      <trkpt lat="48.05975" lon="2.78895">
        <ele>122</ele>
        <time>2015-11-19T08:57:16Z</time>
      </trkpt>
      <trkpt lat="48.05975" lon="2.78886">
        <ele>123</ele>
        <time>2015-11-19T08:57:17Z</time>
      </trkpt>
      <trkpt lat="48.05975" lon="2.78875">
        <ele>124</ele>
        <time>2015-11-19T08:57:18Z</time>
      </trkpt>
      <trkpt lat="48.05973" lon="2.78865">
        <ele>125</ele>
        <time>2015-11-19T08:57:19Z</time>
      </trkpt>
      <trkpt lat="48.05973" lon="2.78856">
        <ele>127</ele>
        <time>2015-11-19T08:57:20Z</time>
      </trkpt>
      <trkpt lat="48.05972" lon="2.78846">
        <ele>128</ele>
        <time>2015-11-19T08:57:21Z</time>
      </trkpt>
      <trkpt lat="48.05972" lon="2.78835">
        <ele>130</ele>
        <time>2015-11-19T08:57:22Z</time>
      </trkpt>
      <trkpt lat="48.05972" lon="2.78826">
        <ele>131</ele>
        <time>2015-11-19T08:57:23Z</time>
      </trkpt>
      <trkpt lat="48.05972" lon="2.78817">
        <ele>132</ele>
        <time>2015-11-19T08:57:24Z</time>
      </trkpt>
      <trkpt lat="48.05973" lon="2.78809">
        <ele>133</ele>
        <time>2015-11-19T08:57:25Z</time>
      </trkpt>
      <trkpt lat="48.05973" lon="2.78803">
        <ele>134</ele>
        <time>2015-11-19T08:57:26Z</time>
      </trkpt>
      <trkpt lat="48.05973" lon="2.78796">
        <ele>135</ele>
        <time>2015-11-19T08:57:27Z</time>
      </trkpt>
      <trkpt lat="48.05972" lon="2.78788">
        <ele>136</ele>
        <time>2015-11-19T08:57:28Z</time>
      </trkpt>
      <trkpt lat="48.05972" lon="2.7878">
        <ele>138</ele>
        <time>2015-11-19T08:57:29Z</time>
      </trkpt>
      <trkpt lat="48.05971" lon="2.78771">
        <ele>139</ele>
        <time>2015-11-19T08:57:30Z</time>
      </trkpt>
      <trkpt lat="48.05971" lon="2.78763">
        <ele>141</ele>
        <time>2015-11-19T08:57:31Z</time>
      </trkpt>
      <trkpt lat="48.05972" lon="2.78756">
        <ele>142</ele>
        <time>2015-11-19T08:57:32Z</time>
      </trkpt>
      <trkpt lat="48.05972" lon="2.7875">
        <ele>143</ele>
        <time>2015-11-19T08:57:33Z</time>
      </trkpt>
      <trkpt lat="48.05972" lon="2.78743">
        <ele>144</ele>
        <time>2015-11-19T08:57:34Z</time>
      </trkpt>
      <trkpt lat="48.05972" lon="2.78737">
        <ele>145</ele>
        <time>2015-11-19T08:57:35Z</time>
      </trkpt>
      <trkpt lat="48.05973" lon="2.7873">
        <ele>147</ele>
        <time>2015-11-19T08:57:36Z</time>
      </trkpt>
      <trkpt lat="48.05972" lon="2.78724">
        <ele>149</ele>
        <time>2015-11-19T08:57:37Z</time>
      </trkpt>
      <trkpt lat="48.05972" lon="2.78718">
        <ele>151</ele>
        <time>2015-11-19T08:57:38Z</time>
      </trkpt>
      <trkpt lat="48.05972" lon="2.78711">
        <ele>153</ele>
        <time>2015-11-19T08:57:39Z</time>
      </trkpt>
      <trkpt lat="48.05972" lon="2.78702">
        <ele>155</ele>
        <time>2015-11-19T08:57:40Z</time>
      </trkpt>
      <trkpt lat="48.05973" lon="2.78694">
        <ele>156</ele>
        <time>2015-11-19T08:57:41Z</time>
      </trkpt>
      <trkpt lat="48.05973" lon="2.78684">
        <ele>158</ele>
        <time>2015-11-19T08:57:42Z</time>
      </trkpt>
      <trkpt lat="48.05974" lon="2.78677">
        <ele>160</ele>
        <time>2015-11-19T08:57:43Z</time>
      </trkpt>
      <trkpt lat="48.05974" lon="2.7867">
        <ele>161</ele>
        <time>2015-11-19T08:57:44Z</time>
      </trkpt>
      <trkpt lat="48.05974" lon="2.78662">
        <ele>162</ele>
        <time>2015-11-19T08:57:45Z</time>
      </trkpt>
      <trkpt lat="48.05974" lon="2.78655">
        <ele>164</ele>
        <time>2015-11-19T08:57:46Z</time>
      </trkpt>
      <trkpt lat="48.05974" lon="2.78648">
        <ele>165</ele>
        <time>2015-11-19T08:57:47Z</time>
      </trkpt>
      <trkpt lat="48.05975" lon="2.78641">
        <ele>166</ele>
        <time>2015-11-19T08:57:48Z</time>
      </trkpt>
      <trkpt lat="48.05976" lon="2.78633">
        <ele>168</ele>
        <time>2015-11-19T08:57:49Z</time>
      </trkpt>
      <trkpt lat="48.05977" lon="2.78624">
        <ele>170</ele>
        <time>2015-11-19T08:57:50Z</time>
      </trkpt>
      <trkpt lat="48.05979" lon="2.78618">
        <ele>172</ele>
        <time>2015-11-19T08:57:51Z</time>
      </trkpt>
      <trkpt lat="48.05981" lon="2.78611">
        <ele>173</ele>
        <time>2015-11-19T08:57:52Z</time>
      </trkpt>
      <trkpt lat="48.05981" lon="2.78606">
        <ele>175</ele>
        <time>2015-11-19T08:57:53Z</time>
      </trkpt>
      <trkpt lat="48.05981" lon="2.78601">
        <ele>176</ele>
        <time>2015-11-19T08:57:54Z</time>
      </trkpt>
      <trkpt lat="48.05981" lon="2.78595">
        <ele>177</ele>
        <time>2015-11-19T08:57:55Z</time>
      </trkpt>
      <trkpt lat="48.0598" lon="2.7859">
        <ele>178</ele>
        <time>2015-11-19T08:57:56Z</time>
      </trkpt>
      <trkpt lat="48.05979" lon="2.78584">
        <ele>180</ele>
        <time>2015-11-19T08:57:57Z</time>
      </trkpt>
      <trkpt lat="48.05978" lon="2.78578">
        <ele>182</ele>
        <time>2015-11-19T08:57:58Z</time>
      </trkpt>
      <trkpt lat="48.05977" lon="2.78574">
        <ele>183</ele>
        <time>2015-11-19T08:57:59Z</time>
      </trkpt>
      <trkpt lat="48.05975" lon="2.78569">
        <ele>185</ele>
        <time>2015-11-19T08:58:00Z</time>
      </trkpt>
      <trkpt lat="48.05973" lon="2.78565">
        <ele>186</ele>
        <time>2015-11-19T08:58:01Z</time>
      </trkpt>
      <trkpt lat="48.0597" lon="2.7856">
        <ele>187</ele>
        <time>2015-11-19T08:58:02Z</time>
      </trkpt>
      <trkpt lat="48.05967" lon="2.78554">
        <ele>188</ele>
        <time>2015-11-19T08:58:03Z</time>
      </trkpt>
      <trkpt lat="48.05965" lon="2.78547">
        <ele>189</ele>
        <time>2015-11-19T08:58:04Z</time>
      </trkpt>
      <trkpt lat="48.05963" lon="2.7854">
        <ele>190</ele>
        <time>2015-11-19T08:58:05Z</time>
      </trkpt>
      <trkpt lat="48.0596" lon="2.78533">
        <ele>192</ele>
        <time>2015-11-19T08:58:06Z</time>
      </trkpt>
      <trkpt lat="48.05959" lon="2.78528">
        <ele>194</ele>
        <time>2015-11-19T08:58:07Z</time>
      </trkpt>
      <trkpt lat="48.05957" lon="2.78523">
        <ele>196</ele>
        <time>2015-11-19T08:58:08Z</time>
      </trkpt>
      <trkpt lat="48.05955" lon="2.78519">
        <ele>197</ele>
        <time>2015-11-19T08:58:09Z</time>
      </trkpt>
      <trkpt lat="48.05954" lon="2.78512">
        <ele>198</ele>
        <time>2015-11-19T08:58:10Z</time>
      </trkpt>
      <trkpt lat="48.05951" lon="2.78505">
        <ele>199</ele>
        <time>2015-11-19T08:58:11Z</time>
      </trkpt>
      <trkpt lat="48.05956" lon="2.78491">
        <ele>200</ele>
        <time>2015-11-19T08:58:12Z</time>
      </trkpt>
      <trkpt lat="48.05953" lon="2.78484">
        <ele>200</ele>
        <time>2015-11-19T08:58:13Z</time>
      </trkpt>
      <trkpt lat="48.05951" lon="2.78477">
        <ele>200</ele>
        <time>2015-11-19T08:58:14Z</time>
      </trkpt>
      <trkpt lat="48.05949" lon="2.7847">
        <ele>200</ele>
        <time>2015-11-19T08:58:15Z</time>
      </trkpt>
      <trkpt lat="48.05944" lon="2.78463">
        <ele>200</ele>
        <time>2015-11-19T08:58:16Z</time>
      </trkpt>
      <trkpt lat="48.05944" lon="2.78455">
        <ele>200</ele>
        <time>2015-11-19T08:58:17Z</time>
      </trkpt>
      <trkpt lat="48.05943" lon="2.78448">
        <ele>200</ele>
        <time>2015-11-19T08:58:18Z</time>
      </trkpt>
      <trkpt lat="48.05942" lon="2.78441">
        <ele>200</ele>
        <time>2015-11-19T08:58:19Z</time>
      </trkpt>
      <trkpt lat="48.05942" lon="2.78432">
        <ele>199</ele>
        <time>2015-11-19T08:58:20Z</time>
      </trkpt>
      <trkpt lat="48.05942" lon="2.78424">
        <ele>198</ele>
        <time>2015-11-19T08:58:21Z</time>
      </trkpt>
      <trkpt lat="48.05941" lon="2.78416">
        <ele>197</ele>
        <time>2015-11-19T08:58:22Z</time>
      </trkpt>
      <trkpt lat="48.0594" lon="2.78409">
        <ele>196</ele>
        <time>2015-11-19T08:58:23Z</time>
      </trkpt>
      <trkpt lat="48.0594" lon="2.78402">
        <ele>196</ele>
        <time>2015-11-19T08:58:24Z</time>
      </trkpt>
      <trkpt lat="48.05939" lon="2.78395">
        <ele>195</ele>
        <time>2015-11-19T08:58:25Z</time>
      </trkpt>
      <trkpt lat="48.05939" lon="2.78387">
        <ele>195</ele>
        <time>2015-11-19T08:58:26Z</time>
      </trkpt>
      <trkpt lat="48.05938" lon="2.7838">
        <ele>194</ele>
        <time>2015-11-19T08:58:27Z</time>
      </trkpt>
      <trkpt lat="48.05939" lon="2.78375">
        <ele>193</ele>
        <time>2015-11-19T08:58:28Z</time>
      </trkpt>
      <trkpt lat="48.05938" lon="2.78368">
        <ele>192</ele>
        <time>2015-11-19T08:58:29Z</time>
      </trkpt>
      <trkpt lat="48.05936" lon="2.78362">
        <ele>191</ele>
        <time>2015-11-19T08:58:30Z</time>
      </trkpt>
      <trkpt lat="48.05935" lon="2.78356">
        <ele>190</ele>
        <time>2015-11-19T08:58:31Z</time>
      </trkpt>
      <trkpt lat="48.05935" lon="2.78351">
        <ele>189</ele>
        <time>2015-11-19T08:58:32Z</time>
      </trkpt>
      <trkpt lat="48.05934" lon="2.78347">
        <ele>188</ele>
        <time>2015-11-19T08:58:33Z</time>
      </trkpt>
      <trkpt lat="48.05935" lon="2.78344">
        <ele>187</ele>
        <time>2015-11-19T08:58:34Z</time>
      </trkpt>
      <trkpt lat="48.05937" lon="2.78342">
        <ele>185</ele>
        <time>2015-11-19T08:58:35Z</time>
      </trkpt>
      <trkpt lat="48.05936" lon="2.78337">
        <ele>177</ele>
        <time>2015-11-19T08:58:39Z</time>
      </trkpt>
      <trkpt lat="48.05935" lon="2.78334">
        <ele>175</ele>
        <time>2015-11-19T08:58:40Z</time>
      </trkpt>
      <trkpt lat="48.05932" lon="2.78332">
        <ele>173</ele>
        <time>2015-11-19T08:58:41Z</time>
      </trkpt>
      <trkpt lat="48.05929" lon="2.78329">
        <ele>171</ele>
        <time>2015-11-19T08:58:42Z</time>
      </trkpt>
      <trkpt lat="48.05926" lon="2.78324">
        <ele>169</ele>
        <time>2015-11-19T08:58:43Z</time>
      </trkpt>
      <trkpt lat="48.05923" lon="2.78321">
        <ele>167</ele>
        <time>2015-11-19T08:58:44Z</time>
      </trkpt>
      <trkpt lat="48.05921" lon="2.78316">
        <ele>165</ele>
        <time>2015-11-19T08:58:45Z</time>
      </trkpt>
      <trkpt lat="48.05921" lon="2.78307">
        <ele>163</ele>
        <time>2015-11-19T08:58:46Z</time>
      </trkpt>
      <trkpt lat="48.05922" lon="2.783">
        <ele>161</ele>
        <time>2015-11-19T08:58:47Z</time>
      </trkpt>
      <trkpt lat="48.05925" lon="2.78296">
        <ele>159</ele>
        <time>2015-11-19T08:58:48Z</time>
      </trkpt>
      <trkpt lat="48.05925" lon="2.78293">
        <ele>158</ele>
        <time>2015-11-19T08:58:49Z</time>
      </trkpt>
      <trkpt lat="48.05926" lon="2.7829">
        <ele>156</ele>
        <time>2015-11-19T08:58:51Z</time>
      </trkpt>
      <trkpt lat="48.05928" lon="2.78291">
        <ele>153</ele>
        <time>2015-11-19T08:58:53Z</time>
      </trkpt>
      <trkpt lat="48.05928" lon="2.78292">
        <ele>148</ele>
        <time>2015-11-19T08:58:56Z</time>
      </trkpt>
      <trkpt lat="48.05927" lon="2.78294">
        <ele>144</ele>
        <time>2015-11-19T08:58:58Z</time>
      </trkpt>
      <trkpt lat="48.05926" lon="2.78296">
        <ele>142</ele>
        <time>2015-11-19T08:58:59Z</time>
      </trkpt>
      <trkpt lat="48.05925" lon="2.78298">
        <ele>140</ele>
        <time>2015-11-19T08:59:00Z</time>
      </trkpt>
      <trkpt lat="48.05924" lon="2.783">
        <ele>138</ele>
        <time>2015-11-19T08:59:01Z</time>
      </trkpt>
      <trkpt lat="48.05924" lon="2.78303">
        <ele>136</ele>
        <time>2015-11-19T08:59:02Z</time>
      </trkpt>
      <trkpt lat="48.05924" lon="2.78305">
        <ele>134</ele>
        <time>2015-11-19T08:59:03Z</time>
      </trkpt>
      <trkpt lat="48.05922" lon="2.78309">
        <ele>132</ele>
        <time>2015-11-19T08:59:04Z</time>
      </trkpt>
      <trkpt lat="48.05922" lon="2.78311">
        <ele>129</ele>
        <time>2015-11-19T08:59:05Z</time>
      </trkpt>
      <trkpt lat="48.05921" lon="2.78314">
        <ele>127</ele>
        <time>2015-11-19T08:59:06Z</time>
      </trkpt>
      <trkpt lat="48.05921" lon="2.78317">
        <ele>125</ele>
        <time>2015-11-19T08:59:07Z</time>
      </trkpt>
      <trkpt lat="48.05919" lon="2.7832">
        <ele>123</ele>
        <time>2015-11-19T08:59:08Z</time>
      </trkpt>
      <trkpt lat="48.05918" lon="2.78322">
        <ele>121</ele>
        <time>2015-11-19T08:59:09Z</time>
      </trkpt>
      <trkpt lat="48.05916" lon="2.78327">
        <ele>119</ele>
        <time>2015-11-19T08:59:10Z</time>
      </trkpt>
      <trkpt lat="48.05915" lon="2.78332">
        <ele>117</ele>
        <time>2015-11-19T08:59:11Z</time>
      </trkpt>
      <trkpt lat="48.05915" lon="2.78337">
        <ele>115</ele>
        <time>2015-11-19T08:59:12Z</time>
      </trkpt>
      <trkpt lat="48.05915" lon="2.78341">
        <ele>113</ele>
        <time>2015-11-19T08:59:13Z</time>
      </trkpt>
      <trkpt lat="48.05915" lon="2.78345">
        <ele>112</ele>
        <time>2015-11-19T08:59:14Z</time>
      </trkpt>
      <trkpt lat="48.05915" lon="2.78348">
        <ele>111</ele>
        <time>2015-11-19T08:59:15Z</time>
      </trkpt>
      <trkpt lat="48.05915" lon="2.78351">
        <ele>109</ele>
        <time>2015-11-19T08:59:16Z</time>
      </trkpt>
      <trkpt lat="48.05914" lon="2.78355">
        <ele>108</ele>
        <time>2015-11-19T08:59:17Z</time>
      </trkpt>
      <trkpt lat="48.05913" lon="2.7836">
        <ele>107</ele>
        <time>2015-11-19T08:59:18Z</time>
      </trkpt>
      <trkpt lat="48.05914" lon="2.78363">
        <ele>106</ele>
        <time>2015-11-19T08:59:19Z</time>
      </trkpt>
      <trkpt lat="48.05915" lon="2.78367">
        <ele>105</ele>
        <time>2015-11-19T08:59:20Z</time>
      </trkpt>
      <trkpt lat="48.05915" lon="2.7837">
        <ele>104</ele>
        <time>2015-11-19T08:59:21Z</time>
      </trkpt>
      <trkpt lat="48.05914" lon="2.78375">
        <ele>103</ele>
        <time>2015-11-19T08:59:22Z</time>
      </trkpt>
      <trkpt lat="48.05914" lon="2.78378">
        <ele>102</ele>
        <time>2015-11-19T08:59:23Z</time>
      </trkpt>
      <trkpt lat="48.05914" lon="2.78381">
        <ele>101</ele>
        <time>2015-11-19T08:59:24Z</time>
      </trkpt>
      <trkpt lat="48.05912" lon="2.78385">
        <ele>100</ele>
        <time>2015-11-19T08:59:25Z</time>
      </trkpt>
      <trkpt lat="48.05911" lon="2.78388">
        <ele>99</ele>
        <time>2015-11-19T08:59:26Z</time>
      </trkpt>
      <trkpt lat="48.05911" lon="2.7839">
        <ele>98</ele>
        <time>2015-11-19T08:59:27Z</time>
      </trkpt>
      <trkpt lat="48.0591" lon="2.78394">
        <ele>98</ele>
        <time>2015-11-19T08:59:28Z</time>
      </trkpt>
      <trkpt lat="48.05909" lon="2.78398">
        <ele>98</ele>
        <time>2015-11-19T08:59:29Z</time>
      </trkpt>
      <trkpt lat="48.05908" lon="2.784">
        <ele>98</ele>
        <time>2015-11-19T08:59:30Z</time>
      </trkpt>
      <trkpt lat="48.05907" lon="2.78402">
        <ele>98</ele>
        <time>2015-11-19T08:59:31Z</time>
      </trkpt>
      <trkpt lat="48.05906" lon="2.78404">
        <ele>98</ele>
        <time>2015-11-19T08:59:32Z</time>
      </trkpt>
      <trkpt lat="48.05907" lon="2.78407">
        <ele>98</ele>
        <time>2015-11-19T08:59:34Z</time>
      </trkpt>
      <trkpt lat="48.05909" lon="2.78408">
        <ele>98</ele>
        <time>2015-11-19T08:59:35Z</time>
      </trkpt>
      <trkpt lat="48.05912" lon="2.7841">
        <ele>98</ele>
        <time>2015-11-19T08:59:37Z</time>
      </trkpt>
      <trkpt lat="48.05913" lon="2.78411">
        <ele>98</ele>
        <time>2015-11-19T08:59:38Z</time>
      </trkpt>
      <trkpt lat="48.05915" lon="2.78413">
        <ele>98</ele>
        <time>2015-11-19T08:59:39Z</time>
      </trkpt>
      <trkpt lat="48.05916" lon="2.78415">
        <ele>98</ele>
        <time>2015-11-19T08:59:40Z</time>
      </trkpt>
      <trkpt lat="48.05917" lon="2.78417">
        <ele>98</ele>
        <time>2015-11-19T08:59:41Z</time>
      </trkpt>
      <trkpt lat="48.05918" lon="2.78419">
        <ele>99</ele>
        <time>2015-11-19T08:59:42Z</time>
      </trkpt>
      <trkpt lat="48.0592" lon="2.78421">
        <ele>100</ele>
        <time>2015-11-19T08:59:43Z</time>
      </trkpt>
      <trkpt lat="48.05922" lon="2.78422">
        <ele>101</ele>
        <time>2015-11-19T08:59:44Z</time>
      </trkpt>
      <trkpt lat="48.05923" lon="2.78424">
        <ele>102</ele>
        <time>2015-11-19T08:59:45Z</time>
      </trkpt>
      <trkpt lat="48.05925" lon="2.78425">
        <ele>103</ele>
        <time>2015-11-19T08:59:46Z</time>
      </trkpt>
      <trkpt lat="48.05928" lon="2.78425">
        <ele>104</ele>
        <time>2015-11-19T08:59:47Z</time>
      </trkpt>
      <trkpt lat="48.0593" lon="2.78425">
        <ele>105</ele>
        <time>2015-11-19T08:59:48Z</time>
      </trkpt>
      <trkpt lat="48.05933" lon="2.78425">
        <ele>106</ele>
        <time>2015-11-19T08:59:49Z</time>
      </trkpt>
      <trkpt lat="48.05935" lon="2.78426">
        <ele>107</ele>
        <time>2015-11-19T08:59:50Z</time>
      </trkpt>
      <trkpt lat="48.05936" lon="2.78429">
        <ele>108</ele>
        <time>2015-11-19T08:59:51Z</time>
      </trkpt>
      <trkpt lat="48.05938" lon="2.78431">
        <ele>109</ele>
        <time>2015-11-19T08:59:52Z</time>
      </trkpt>
      <trkpt lat="48.05939" lon="2.78432">
        <ele>110</ele>
        <time>2015-11-19T08:59:53Z</time>
      </trkpt>
      <trkpt lat="48.05941" lon="2.78433">
        <ele>111</ele>
        <time>2015-11-19T08:59:54Z</time>
      </trkpt>
      <trkpt lat="48.05943" lon="2.78435">
        <ele>111</ele>
        <time>2015-11-19T08:59:55Z</time>
      </trkpt>
      <trkpt lat="48.05944" lon="2.78437">
        <ele>112</ele>
        <time>2015-11-19T08:59:56Z</time>
      </trkpt>
      <trkpt lat="48.05946" lon="2.78439">
        <ele>112</ele>
        <time>2015-11-19T08:59:57Z</time>
      </trkpt>
      <trkpt lat="48.05949" lon="2.7844">
        <ele>113</ele>
        <time>2015-11-19T08:59:58Z</time>
      </trkpt>
      <trkpt lat="48.0595" lon="2.78443">
        <ele>113</ele>
        <time>2015-11-19T08:59:59Z</time>
      </trkpt>
      <trkpt lat="48.05951" lon="2.78445">
        <ele>114</ele>
        <time>2015-11-19T09:00:00Z</time>
      </trkpt>
      <trkpt lat="48.05952" lon="2.78449">
        <ele>114</ele>
        <time>2015-11-19T09:00:01Z</time>
      </trkpt>
      <trkpt lat="48.05955" lon="2.78453">
        <ele>114</ele>
        <time>2015-11-19T09:00:02Z</time>
      </trkpt>
      <trkpt lat="48.05957" lon="2.78457">
        <ele>114</ele>
        <time>2015-11-19T09:00:03Z</time>
      </trkpt>
      <trkpt lat="48.05959" lon="2.78461">
        <ele>114</ele>
        <time>2015-11-19T09:00:04Z</time>
      </trkpt>
      <trkpt lat="48.05961" lon="2.78464">
        <ele>114</ele>
        <time>2015-11-19T09:00:05Z</time>
      </trkpt>
      <trkpt lat="48.05962" lon="2.78467">
        <ele>114</ele>
        <time>2015-11-19T09:00:06Z</time>
      </trkpt>
      <trkpt lat="48.05965" lon="2.78469">
        <ele>114</ele>
        <time>2015-11-19T09:00:07Z</time>
      </trkpt>
      <trkpt lat="48.05967" lon="2.78472">
        <ele>114</ele>
        <time>2015-11-19T09:00:08Z</time>
      </trkpt>
      <trkpt lat="48.05968" lon="2.78474">
        <ele>114</ele>
        <time>2015-11-19T09:00:09Z</time>
      </trkpt>
      <trkpt lat="48.0597" lon="2.78477">
        <ele>114</ele>
        <time>2015-11-19T09:00:10Z</time>
      </trkpt>
      <trkpt lat="48.05971" lon="2.78479">
        <ele>114</ele>
        <time>2015-11-19T09:00:11Z</time>
      </trkpt>
      <trkpt lat="48.05972" lon="2.78481">
        <ele>115</ele>
        <time>2015-11-19T09:00:12Z</time>
      </trkpt>
      <trkpt lat="48.05974" lon="2.78484">
        <ele>116</ele>
        <time>2015-11-19T09:00:13Z</time>
      </trkpt>
      <trkpt lat="48.05976" lon="2.78487">
        <ele>116</ele>
        <time>2015-11-19T09:00:14Z</time>
      </trkpt>
      <trkpt lat="48.0598" lon="2.78491">
        <ele>116</ele>
        <time>2015-11-19T09:00:15Z</time>
      </trkpt>
      <trkpt lat="48.05983" lon="2.78495">
        <ele>116</ele>
        <time>2015-11-19T09:00:16Z</time>
      </trkpt>
      <trkpt lat="48.05985" lon="2.78497">
        <ele>116</ele>
        <time>2015-11-19T09:00:17Z</time>
      </trkpt>
      <trkpt lat="48.05988" lon="2.785">
        <ele>116</ele>
        <time>2015-11-19T09:00:18Z</time>
      </trkpt>
      <trkpt lat="48.05989" lon="2.78502">
        <ele>116</ele>
        <time>2015-11-19T09:00:19Z</time>
      </trkpt>
      <trkpt lat="48.05991" lon="2.78505">
        <ele>116</ele>
        <time>2015-11-19T09:00:20Z</time>
      </trkpt>
      <trkpt lat="48.05993" lon="2.78508">
        <ele>116</ele>
        <time>2015-11-19T09:00:21Z</time>
      </trkpt>
      <trkpt lat="48.05996" lon="2.78511">
        <ele>116</ele>
        <time>2015-11-19T09:00:22Z</time>
      </trkpt>
      <trkpt lat="48.05998" lon="2.78515">
        <ele>116</ele>
        <time>2015-11-19T09:00:23Z</time>
      </trkpt>
      <trkpt lat="48.06" lon="2.78519">
        <ele>116</ele>
        <time>2015-11-19T09:00:24Z</time>
      </trkpt>
      <trkpt lat="48.06003" lon="2.78526">
        <ele>115</ele>
        <time>2015-11-19T09:00:26Z</time>
      </trkpt>
      <trkpt lat="48.06005" lon="2.7853">
        <ele>114</ele>
        <time>2015-11-19T09:00:27Z</time>
      </trkpt>
      <trkpt lat="48.06007" lon="2.78534">
        <ele>113</ele>
        <time>2015-11-19T09:00:28Z</time>
      </trkpt>
      <trkpt lat="48.06009" lon="2.78538">
        <ele>113</ele>
        <time>2015-11-19T09:00:29Z</time>
      </trkpt>
      <trkpt lat="48.06009" lon="2.78542">
        <ele>112</ele>
        <time>2015-11-19T09:00:30Z</time>
      </trkpt>
      <trkpt lat="48.06011" lon="2.78546">
        <ele>111</ele>
        <time>2015-11-19T09:00:31Z</time>
      </trkpt>
      <trkpt lat="48.06012" lon="2.78549">
        <ele>111</ele>
        <time>2015-11-19T09:00:32Z</time>
      </trkpt>
      <trkpt lat="48.0601" lon="2.78552">
        <ele>111</ele>
        <time>2015-11-19T09:00:33Z</time>
      </trkpt>
      <trkpt lat="48.06009" lon="2.78554">
        <ele>111</ele>
        <time>2015-11-19T09:00:34Z</time>
      </trkpt>
      <trkpt lat="48.06007" lon="2.78556">
        <ele>111</ele>
        <time>2015-11-19T09:00:35Z</time>
      </trkpt>
      <trkpt lat="48.06004" lon="2.78558">
        <ele>111</ele>
        <time>2015-11-19T09:00:36Z</time>
      </trkpt>
      <trkpt lat="48.06" lon="2.7856">
        <ele>110</ele>
        <time>2015-11-19T09:00:37Z</time>
      </trkpt>
      <trkpt lat="48.05998" lon="2.78563">
        <ele>110</ele>
        <time>2015-11-19T09:00:38Z</time>
      </trkpt>
      <trkpt lat="48.05995" lon="2.78565">
        <ele>110</ele>
        <time>2015-11-19T09:00:39Z</time>
      </trkpt>
      <trkpt lat="48.05993" lon="2.78568">
        <ele>110</ele>
        <time>2015-11-19T09:00:40Z</time>
      </trkpt>
      <trkpt lat="48.05991" lon="2.7857">
        <ele>110</ele>
        <time>2015-11-19T09:00:41Z</time>
      </trkpt>
      <trkpt lat="48.05987" lon="2.78576">
        <ele>110</ele>
        <time>2015-11-19T09:00:43Z</time>
      </trkpt>
      <trkpt lat="48.05985" lon="2.78578">
        <ele>110</ele>
        <time>2015-11-19T09:00:44Z</time>
      </trkpt>
      <trkpt lat="48.05983" lon="2.78581">
        <ele>110</ele>
        <time>2015-11-19T09:00:45Z</time>
      </trkpt>
      <trkpt lat="48.05981" lon="2.78584">
        <ele>110</ele>
        <time>2015-11-19T09:00:46Z</time>
      </trkpt>
      <trkpt lat="48.05979" lon="2.78587">
        <ele>110</ele>
        <time>2015-11-19T09:00:47Z</time>
      </trkpt>
      <trkpt lat="48.05976" lon="2.7859">
        <ele>110</ele>
        <time>2015-11-19T09:00:48Z</time>
      </trkpt>
      <trkpt lat="48.05973" lon="2.78593">
        <ele>110</ele>
        <time>2015-11-19T09:00:49Z</time>
      </trkpt>
      <trkpt lat="48.05971" lon="2.78597">
        <ele>110</ele>
        <time>2015-11-19T09:00:50Z</time>
      </trkpt>
      <trkpt lat="48.05968" lon="2.78601">
        <ele>110</ele>
        <time>2015-11-19T09:00:51Z</time>
      </trkpt>
      <trkpt lat="48.05965" lon="2.78605">
        <ele>110</ele>
        <time>2015-11-19T09:00:52Z</time>
      </trkpt>
      <trkpt lat="48.05963" lon="2.7861">
        <ele>110</ele>
        <time>2015-11-19T09:00:53Z</time>
      </trkpt>
      <trkpt lat="48.05961" lon="2.78615">
        <ele>110</ele>
        <time>2015-11-19T09:00:54Z</time>
      </trkpt>
      <trkpt lat="48.05959" lon="2.78621">
        <ele>110</ele>
        <time>2015-11-19T09:00:55Z</time>
      </trkpt>
      <trkpt lat="48.05956" lon="2.78627">
        <ele>110</ele>
        <time>2015-11-19T09:00:56Z</time>
      </trkpt>
      <trkpt lat="48.05955" lon="2.78632">
        <ele>110</ele>
        <time>2015-11-19T09:00:57Z</time>
      </trkpt>
      <trkpt lat="48.05953" lon="2.78638">
        <ele>110</ele>
        <time>2015-11-19T09:00:58Z</time>
      </trkpt>
      <trkpt lat="48.05951" lon="2.78644">
        <ele>110</ele>
        <time>2015-11-19T09:00:59Z</time>
      </trkpt>
      <trkpt lat="48.05949" lon="2.7865">
        <ele>110</ele>
        <time>2015-11-19T09:01:00Z</time>
      </trkpt>
      <trkpt lat="48.05947" lon="2.78655">
        <ele>110</ele>
        <time>2015-11-19T09:01:01Z</time>
      </trkpt>
      <trkpt lat="48.05944" lon="2.78661">
        <ele>110</ele>
        <time>2015-11-19T09:01:02Z</time>
      </trkpt>
      <trkpt lat="48.05943" lon="2.78667">
        <ele>110</ele>
        <time>2015-11-19T09:01:03Z</time>
      </trkpt>
      <trkpt lat="48.05941" lon="2.78674">
        <ele>110</ele>
        <time>2015-11-19T09:01:04Z</time>
      </trkpt>
      <trkpt lat="48.0594" lon="2.7868">
        <ele>110</ele>
        <time>2015-11-19T09:01:05Z</time>
      </trkpt>
      <trkpt lat="48.05938" lon="2.78686">
        <ele>110</ele>
        <time>2015-11-19T09:01:06Z</time>
      </trkpt>
      <trkpt lat="48.05936" lon="2.78692">
        <ele>110</ele>
        <time>2015-11-19T09:01:07Z</time>
      </trkpt>
      <trkpt lat="48.05935" lon="2.78697">
        <ele>110</ele>
        <time>2015-11-19T09:01:08Z</time>
      </trkpt>
      <trkpt lat="48.05933" lon="2.78703">
        <ele>110</ele>
        <time>2015-11-19T09:01:09Z</time>
      </trkpt>
      <trkpt lat="48.05931" lon="2.78709">
        <ele>110</ele>
        <time>2015-11-19T09:01:10Z</time>
      </trkpt>
      <trkpt lat="48.0593" lon="2.78714">
        <ele>110</ele>
        <time>2015-11-19T09:01:11Z</time>
      </trkpt>
      <trkpt lat="48.05928" lon="2.7872">
        <ele>110</ele>
        <time>2015-11-19T09:01:12Z</time>
      </trkpt>
      <trkpt lat="48.05925" lon="2.78726">
        <ele>110</ele>
        <time>2015-11-19T09:01:13Z</time>
      </trkpt>
      <trkpt lat="48.05922" lon="2.78732">
        <ele>110</ele>
        <time>2015-11-19T09:01:14Z</time>
      </trkpt>
      <trkpt lat="48.05918" lon="2.78737">
        <ele>110</ele>
        <time>2015-11-19T09:01:15Z</time>
      </trkpt>
      <trkpt lat="48.05916" lon="2.78742">
        <ele>110</ele>
        <time>2015-11-19T09:01:16Z</time>
      </trkpt>
      <trkpt lat="48.05914" lon="2.78747">
        <ele>110</ele>
        <time>2015-11-19T09:01:17Z</time>
      </trkpt>
      <trkpt lat="48.05912" lon="2.78752">
        <ele>110</ele>
        <time>2015-11-19T09:01:18Z</time>
      </trkpt>
      <trkpt lat="48.05912" lon="2.78757">
        <ele>110</ele>
        <time>2015-11-19T09:01:19Z</time>
      </trkpt>
      <trkpt lat="48.05911" lon="2.78763">
        <ele>110</ele>
        <time>2015-11-19T09:01:20Z</time>
      </trkpt>
      <trkpt lat="48.0591" lon="2.7877">
        <ele>110</ele>
        <time>2015-11-19T09:01:21Z</time>
      </trkpt>
      <trkpt lat="48.0591" lon="2.78778">
        <ele>110</ele>
        <time>2015-11-19T09:01:22Z</time>
      </trkpt>
      <trkpt lat="48.05909" lon="2.78786">
        <ele>110</ele>
        <time>2015-11-19T09:01:23Z</time>
      </trkpt>
      <trkpt lat="48.05907" lon="2.78795">
        <ele>110</ele>
        <time>2015-11-19T09:01:24Z</time>
      </trkpt>
      <trkpt lat="48.05905" lon="2.78803">
        <ele>110</ele>
        <time>2015-11-19T09:01:25Z</time>
      </trkpt>
      <trkpt lat="48.05903" lon="2.78809">
        <ele>109</ele>
        <time>2015-11-19T09:01:26Z</time>
      </trkpt>
      <trkpt lat="48.05901" lon="2.78816">
        <ele>109</ele>
        <time>2015-11-19T09:01:27Z</time>
      </trkpt>
      <trkpt lat="48.05899" lon="2.78822">
        <ele>108</ele>
        <time>2015-11-19T09:01:28Z</time>
      </trkpt>
      <trkpt lat="48.05896" lon="2.78829">
        <ele>108</ele>
        <time>2015-11-19T09:01:29Z</time>
      </trkpt>
      <trkpt lat="48.05895" lon="2.78835">
        <ele>108</ele>
        <time>2015-11-19T09:01:30Z</time>
      </trkpt>
      <trkpt lat="48.05894" lon="2.7884">
        <ele>108</ele>
        <time>2015-11-19T09:01:31Z</time>
      </trkpt>
      <trkpt lat="48.05894" lon="2.78845">
        <ele>108</ele>
        <time>2015-11-19T09:01:32Z</time>
      </trkpt>
      <trkpt lat="48.05892" lon="2.78851">
        <ele>108</ele>
        <time>2015-11-19T09:01:33Z</time>
      </trkpt>
      <trkpt lat="48.05891" lon="2.78856">
        <ele>108</ele>
        <time>2015-11-19T09:01:34Z</time>
      </trkpt>
      <trkpt lat="48.0589" lon="2.78861">
        <ele>108</ele>
        <time>2015-11-19T09:01:35Z</time>
      </trkpt>
      <trkpt lat="48.0589" lon="2.78866">
        <ele>108</ele>
        <time>2015-11-19T09:01:36Z</time>
      </trkpt>
      <trkpt lat="48.05891" lon="2.78871">
        <ele>108</ele>
        <time>2015-11-19T09:01:37Z</time>
      </trkpt>
      <trkpt lat="48.05891" lon="2.78876">
        <ele>107</ele>
        <time>2015-11-19T09:01:38Z</time>
      </trkpt>
      <trkpt lat="48.0589" lon="2.78882">
        <ele>107</ele>
        <time>2015-11-19T09:01:39Z</time>
      </trkpt>
      <trkpt lat="48.05889" lon="2.78886">
        <ele>107</ele>
        <time>2015-11-19T09:01:40Z</time>
      </trkpt>
      <trkpt lat="48.05889" lon="2.78889">
        <ele>107</ele>
        <time>2015-11-19T09:01:41Z</time>
      </trkpt>
      <trkpt lat="48.05889" lon="2.78894">
        <ele>107</ele>
        <time>2015-11-19T09:01:42Z</time>
      </trkpt>
      <trkpt lat="48.05888" lon="2.78898">
        <ele>107</ele>
        <time>2015-11-19T09:01:43Z</time>
      </trkpt>
      <trkpt lat="48.05887" lon="2.78903">
        <ele>107</ele>
        <time>2015-11-19T09:01:44Z</time>
      </trkpt>
      <trkpt lat="48.05886" lon="2.78908">
        <ele>107</ele>
        <time>2015-11-19T09:01:45Z</time>
      </trkpt>
      <trkpt lat="48.05885" lon="2.78913">
        <ele>107</ele>
        <time>2015-11-19T09:01:46Z</time>
      </trkpt>
      <trkpt lat="48.05885" lon="2.78919">
        <ele>107</ele>
        <time>2015-11-19T09:01:47Z</time>
      </trkpt>
      <trkpt lat="48.05883" lon="2.78924">
        <ele>107</ele>
        <time>2015-11-19T09:01:48Z</time>
      </trkpt>
      <trkpt lat="48.05881" lon="2.78929">
        <ele>108</ele>
        <time>2015-11-19T09:01:49Z</time>
      </trkpt>
      <trkpt lat="48.05879" lon="2.78935">
        <ele>108</ele>
        <time>2015-11-19T09:01:50Z</time>
      </trkpt>
      <trkpt lat="48.05877" lon="2.78941">
        <ele>109</ele>
        <time>2015-11-19T09:01:51Z</time>
      </trkpt>
      <trkpt lat="48.05876" lon="2.78946">
        <ele>110</ele>
        <time>2015-11-19T09:01:52Z</time>
      </trkpt>
      <trkpt lat="48.05873" lon="2.78951">
        <ele>111</ele>
        <time>2015-11-19T09:01:53Z</time>
      </trkpt>
      <trkpt lat="48.05871" lon="2.78955">
        <ele>112</ele>
        <time>2015-11-19T09:01:54Z</time>
      </trkpt>
      <trkpt lat="48.0587" lon="2.7896">
        <ele>113</ele>
        <time>2015-11-19T09:01:55Z</time>
      </trkpt>
      <trkpt lat="48.05869" lon="2.78963">
        <ele>114</ele>
        <time>2015-11-19T09:01:56Z</time>
      </trkpt>
      <trkpt lat="48.05868" lon="2.78967">
        <ele>115</ele>
        <time>2015-11-19T09:01:57Z</time>
      </trkpt>
      <trkpt lat="48.05868" lon="2.78971">
        <ele>116</ele>
        <time>2015-11-19T09:01:58Z</time>
      </trkpt>
      <trkpt lat="48.05867" lon="2.78976">
        <ele>117</ele>
        <time>2015-11-19T09:01:59Z</time>
      </trkpt>
      <trkpt lat="48.05867" lon="2.7898">
        <ele>118</ele>
        <time>2015-11-19T09:02:00Z</time>
      </trkpt>
      <trkpt lat="48.05867" lon="2.78984">
        <ele>118</ele>
        <time>2015-11-19T09:02:01Z</time>
      </trkpt>
      <trkpt lat="48.05866" lon="2.78988">
        <ele>119</ele>
        <time>2015-11-19T09:02:02Z</time>
      </trkpt>
      <trkpt lat="48.05865" lon="2.78992">
        <ele>120</ele>
        <time>2015-11-19T09:02:03Z</time>
      </trkpt>
      <trkpt lat="48.05864" lon="2.78995">
        <ele>121</ele>
        <time>2015-11-19T09:02:04Z</time>
      </trkpt>
      <trkpt lat="48.05863" lon="2.79">
        <ele>122</ele>
        <time>2015-11-19T09:02:05Z</time>
      </trkpt>
      <trkpt lat="48.05861" lon="2.79004">
        <ele>123</ele>
        <time>2015-11-19T09:02:06Z</time>
      </trkpt>
      <trkpt lat="48.0586" lon="2.79008">
        <ele>124</ele>
        <time>2015-11-19T09:02:07Z</time>
      </trkpt>
      <trkpt lat="48.05858" lon="2.7901">
        <ele>125</ele>
        <time>2015-11-19T09:02:08Z</time>
      </trkpt>
      <trkpt lat="48.05856" lon="2.79015">
        <ele>126</ele>
        <time>2015-11-19T09:02:09Z</time>
      </trkpt>
      <trkpt lat="48.05855" lon="2.79016">
        <ele>127</ele>
        <time>2015-11-19T09:02:10Z</time>
      </trkpt>
      <trkpt lat="48.05851" lon="2.79018">
        <ele>128</ele>
        <time>2015-11-19T09:02:12Z</time>
      </trkpt>
      <trkpt lat="48.0585" lon="2.79021">
        <ele>128</ele>
        <time>2015-11-19T09:02:13Z</time>
      </trkpt>
      <trkpt lat="48.05848" lon="2.79019">
        <ele>128</ele>
        <time>2015-11-19T09:02:15Z</time>
      </trkpt>
      <trkpt lat="48.05847" lon="2.7902">
        <ele>128</ele>
        <time>2015-11-19T09:02:16Z</time>
      </trkpt>
      <trkpt lat="48.05844" lon="2.79026">
        <ele>128</ele>
        <time>2015-11-19T09:02:17Z</time>
      </trkpt>
      <trkpt lat="48.05842" lon="2.79028">
        <ele>127</ele>
        <time>2015-11-19T09:02:18Z</time>
      </trkpt>
      <trkpt lat="48.05841" lon="2.79029">
        <ele>126</ele>
        <time>2015-11-19T09:02:19Z</time>
      </trkpt>
      <trkpt lat="48.0584" lon="2.79026">
        <ele>124</ele>
        <time>2015-11-19T09:02:21Z</time>
      </trkpt>
      <trkpt lat="48.0584" lon="2.79025">
        <ele>123</ele>
        <time>2015-11-19T09:02:22Z</time>
      </trkpt>
      <trkpt lat="48.05841" lon="2.79023">
        <ele>122</ele>
        <time>2015-11-19T09:02:23Z</time>
      </trkpt>
      <trkpt lat="48.0584" lon="2.79021">
        <ele>121</ele>
        <time>2015-11-19T09:02:24Z</time>
      </trkpt>
      <trkpt lat="48.0584" lon="2.79018">
        <ele>119</ele>
        <time>2015-11-19T09:02:26Z</time>
      </trkpt>
      <trkpt lat="48.05841" lon="2.79015">
        <ele>118</ele>
        <time>2015-11-19T09:02:27Z</time>
      </trkpt>
      <trkpt lat="48.05842" lon="2.79012">
        <ele>117</ele>
        <time>2015-11-19T09:02:28Z</time>
      </trkpt>
      <trkpt lat="48.05842" lon="2.7901">
        <ele>116</ele>
        <time>2015-11-19T09:02:29Z</time>
      </trkpt>
      <trkpt lat="48.05842" lon="2.79006">
        <ele>115</ele>
        <time>2015-11-19T09:02:30Z</time>
      </trkpt>
      <trkpt lat="48.05841" lon="2.79004">
        <ele>114</ele>
        <time>2015-11-19T09:02:31Z</time>
      </trkpt>
      <trkpt lat="48.0584" lon="2.79002">
        <ele>113</ele>
        <time>2015-11-19T09:02:32Z</time>
      </trkpt>
      <trkpt lat="48.05839" lon="2.79001">
        <ele>111</ele>
        <time>2015-11-19T09:02:34Z</time>
      </trkpt>
      <trkpt lat="48.05837" lon="2.78999">
        <ele>109</ele>
        <time>2015-11-19T09:02:36Z</time>
      </trkpt>
      <trkpt lat="48.05836" lon="2.79002">
        <ele>108</ele>
        <time>2015-11-19T09:02:38Z</time>
      </trkpt>
      <trkpt lat="48.05835" lon="2.79005">
        <ele>107</ele>
        <time>2015-11-19T09:02:39Z</time>
      </trkpt>
      <trkpt lat="48.05834" lon="2.79008">
        <ele>107</ele>
        <time>2015-11-19T09:02:40Z</time>
      </trkpt>
      <trkpt lat="48.05833" lon="2.79012">
        <ele>106</ele>
        <time>2015-11-19T09:02:41Z</time>
      </trkpt>
      <trkpt lat="48.05831" lon="2.79015">
        <ele>106</ele>
        <time>2015-11-19T09:02:42Z</time>
      </trkpt>
      <trkpt lat="48.05828" lon="2.79017">
        <ele>105</ele>
        <time>2015-11-19T09:02:43Z</time>
      </trkpt>
      <trkpt lat="48.05827" lon="2.79019">
        <ele>105</ele>
        <time>2015-11-19T09:02:44Z</time>
      </trkpt>
      <trkpt lat="48.05822" lon="2.79018">
        <ele>105</ele>
        <time>2015-11-19T09:02:45Z</time>
      </trkpt>
      <trkpt lat="48.05819" lon="2.79016">
        <ele>105</ele>
        <time>2015-11-19T09:02:46Z</time>
      </trkpt>
      <trkpt lat="48.05817" lon="2.79016">
        <ele>105</ele>
        <time>2015-11-19T09:02:47Z</time>
      </trkpt>
      <trkpt lat="48.05814" lon="2.79015">
        <ele>105</ele>
        <time>2015-11-19T09:02:48Z</time>
      </trkpt>
      <trkpt lat="48.0581" lon="2.79016">
        <ele>105</ele>
        <time>2015-11-19T09:02:49Z</time>
      </trkpt>
      <trkpt lat="48.05808" lon="2.79017">
        <ele>105</ele>
        <time>2015-11-19T09:02:50Z</time>
      </trkpt>
      <trkpt lat="48.05804" lon="2.7902">
        <ele>105</ele>
        <time>2015-11-19T09:02:51Z</time>
      </trkpt>
      <trkpt lat="48.05801" lon="2.79023">
        <ele>105</ele>
        <time>2015-11-19T09:02:52Z</time>
      </trkpt>
      <trkpt lat="48.05798" lon="2.79026">
        <ele>105</ele>
        <time>2015-11-19T09:02:53Z</time>
      </trkpt>
      <trkpt lat="48.05795" lon="2.79025">
        <ele>105</ele>
        <time>2015-11-19T09:02:54Z</time>
      </trkpt>
      <trkpt lat="48.05794" lon="2.79022">
        <ele>105</ele>
        <time>2015-11-19T09:02:55Z</time>
      </trkpt>
      <trkpt lat="48.05794" lon="2.79016">
        <ele>105</ele>
        <time>2015-11-19T09:02:56Z</time>
      </trkpt>
      <trkpt lat="48.05795" lon="2.79011">
        <ele>105</ele>
        <time>2015-11-19T09:02:57Z</time>
      </trkpt>
      <trkpt lat="48.05796" lon="2.79005">
        <ele>105</ele>
        <time>2015-11-19T09:02:58Z</time>
      </trkpt>
      <trkpt lat="48.05798" lon="2.78999">
        <ele>104</ele>
        <time>2015-11-19T09:02:59Z</time>
      </trkpt>
      <trkpt lat="48.05799" lon="2.78995">
        <ele>103</ele>
        <time>2015-11-19T09:03:00Z</time>
      </trkpt>
      <trkpt lat="48.058" lon="2.78993">
        <ele>102</ele>
        <time>2015-11-19T09:03:01Z</time>
      </trkpt>
      <trkpt lat="48.05799" lon="2.78991">
        <ele>101</ele>
        <time>2015-11-19T09:03:02Z</time>
      </trkpt>
      <trkpt lat="48.05797" lon="2.78991">
        <ele>99</ele>
        <time>2015-11-19T09:03:04Z</time>
      </trkpt>
      <trkpt lat="48.05795" lon="2.78994">
        <ele>98</ele>
        <time>2015-11-19T09:03:05Z</time>
      </trkpt>
      <trkpt lat="48.05793" lon="2.78998">
        <ele>97</ele>
        <time>2015-11-19T09:03:06Z</time>
      </trkpt>
      <trkpt lat="48.05791" lon="2.79001">
        <ele>96</ele>
        <time>2015-11-19T09:03:07Z</time>
      </trkpt>
      <trkpt lat="48.05788" lon="2.79005">
        <ele>95</ele>
        <time>2015-11-19T09:03:08Z</time>
      </trkpt>
      <trkpt lat="48.05785" lon="2.79007">
        <ele>94</ele>
        <time>2015-11-19T09:03:09Z</time>
      </trkpt>
      <trkpt lat="48.05783" lon="2.7901">
        <ele>93</ele>
        <time>2015-11-19T09:03:10Z</time>
      </trkpt>
      <trkpt lat="48.05781" lon="2.79014">
        <ele>92</ele>
        <time>2015-11-19T09:03:11Z</time>
      </trkpt>
      <trkpt lat="48.05779" lon="2.79018">
        <ele>91</ele>
        <time>2015-11-19T09:03:12Z</time>
      </trkpt>
      <trkpt lat="48.05777" lon="2.79021">
        <ele>90</ele>
        <time>2015-11-19T09:03:13Z</time>
      </trkpt>
      <trkpt lat="48.05775" lon="2.79024">
        <ele>89</ele>
        <time>2015-11-19T09:03:14Z</time>
      </trkpt>
      <trkpt lat="48.05773" lon="2.79027">
        <ele>88</ele>
        <time>2015-11-19T09:03:15Z</time>
      </trkpt>
      <trkpt lat="48.0577" lon="2.79031">
        <ele>87</ele>
        <time>2015-11-19T09:03:16Z</time>
      </trkpt>
      <trkpt lat="48.05768" lon="2.79034">
        <ele>86</ele>
        <time>2015-11-19T09:03:17Z</time>
      </trkpt>
      <trkpt lat="48.05765" lon="2.79036">
        <ele>85</ele>
        <time>2015-11-19T09:03:18Z</time>
      </trkpt>
      <trkpt lat="48.05763" lon="2.79039">
        <ele>85</ele>
        <time>2015-11-19T09:03:19Z</time>
      </trkpt>
      <trkpt lat="48.0576" lon="2.79043">
        <ele>85</ele>
        <time>2015-11-19T09:03:20Z</time>
      </trkpt>
      <trkpt lat="48.05759" lon="2.79045">
        <ele>85</ele>
        <time>2015-11-19T09:03:21Z</time>
      </trkpt>
      <trkpt lat="48.05758" lon="2.79048">
        <ele>84</ele>
        <time>2015-11-19T09:03:22Z</time>
      </trkpt>
      <trkpt lat="48.05759" lon="2.7905">
        <ele>84</ele>
        <time>2015-11-19T09:03:23Z</time>
      </trkpt>
      <trkpt lat="48.0576" lon="2.79052">
        <ele>84</ele>
        <time>2015-11-19T09:03:24Z</time>
      </trkpt>
      <trkpt lat="48.05759" lon="2.79055">
        <ele>84</ele>
        <time>2015-11-19T09:03:25Z</time>
      </trkpt>
      <trkpt lat="48.05758" lon="2.79057">
        <ele>84</ele>
        <time>2015-11-19T09:03:26Z</time>
      </trkpt>
      <trkpt lat="48.05756" lon="2.7906">
        <ele>84</ele>
        <time>2015-11-19T09:03:27Z</time>
      </trkpt>
      <trkpt lat="48.05755" lon="2.79063">
        <ele>84</ele>
        <time>2015-11-19T09:03:28Z</time>
      </trkpt>
      <trkpt lat="48.05754" lon="2.79066">
        <ele>84</ele>
        <time>2015-11-19T09:03:29Z</time>
      </trkpt>
      <trkpt lat="48.05752" lon="2.79069">
        <ele>84</ele>
        <time>2015-11-19T09:03:30Z</time>
      </trkpt>
      <trkpt lat="48.05751" lon="2.79071">
        <ele>84</ele>
        <time>2015-11-19T09:03:31Z</time>
      </trkpt>
      <trkpt lat="48.05749" lon="2.79073">
        <ele>84</ele>
        <time>2015-11-19T09:03:32Z</time>
      </trkpt>
      <trkpt lat="48.05748" lon="2.79074">
        <ele>84</ele>
        <time>2015-11-19T09:03:33Z</time>
      </trkpt>
      <trkpt lat="48.05746" lon="2.79076">
        <ele>84</ele>
        <time>2015-11-19T09:03:34Z</time>
      </trkpt>
      <trkpt lat="48.05743" lon="2.79077">
        <ele>84</ele>
        <time>2015-11-19T09:03:35Z</time>
      </trkpt>
      <trkpt lat="48.05742" lon="2.79078">
        <ele>84</ele>
        <time>2015-11-19T09:03:36Z</time>
      </trkpt>
      <trkpt lat="48.05741" lon="2.7908">
        <ele>84</ele>
        <time>2015-11-19T09:03:37Z</time>
      </trkpt>
      <trkpt lat="48.0574" lon="2.79082">
        <ele>84</ele>
        <time>2015-11-19T09:03:38Z</time>
      </trkpt>
      <trkpt lat="48.0574" lon="2.7908">
        <ele>87</ele>
        <time>2015-11-19T09:03:41Z</time>
      </trkpt>
      <trkpt lat="48.05741" lon="2.7908">
        <ele>88</ele>
        <time>2015-11-19T09:03:42Z</time>
      </trkpt>
      <trkpt lat="48.05742" lon="2.79078">
        <ele>89</ele>
        <time>2015-11-19T09:03:43Z</time>
      </trkpt>
      <trkpt lat="48.05743" lon="2.79076">
        <ele>91</ele>
        <time>2015-11-19T09:03:45Z</time>
      </trkpt>
      <trkpt lat="48.05745" lon="2.79076">
        <ele>92</ele>
        <time>2015-11-19T09:03:46Z</time>
      </trkpt>
      <trkpt lat="48.05747" lon="2.79074">
        <ele>94</ele>
        <time>2015-11-19T09:03:48Z</time>
      </trkpt>
      <trkpt lat="48.05749" lon="2.79076">
        <ele>95</ele>
        <time>2015-11-19T09:03:49Z</time>
      </trkpt>
      <trkpt lat="48.0575" lon="2.79077">
        <ele>96</ele>
        <time>2015-11-19T09:03:50Z</time>
      </trkpt>
      <trkpt lat="48.05751" lon="2.79078">
        <ele>97</ele>
        <time>2015-11-19T09:03:51Z</time>
      </trkpt>
      <trkpt lat="48.05752" lon="2.7908">
        <ele>98</ele>
        <time>2015-11-19T09:03:52Z</time>
      </trkpt>
      <trkpt lat="48.05751" lon="2.79082">
        <ele>99</ele>
        <time>2015-11-19T09:03:53Z</time>
      </trkpt>
      <trkpt lat="48.0575" lon="2.79084">
        <ele>100</ele>
        <time>2015-11-19T09:03:54Z</time>
      </trkpt>
      <trkpt lat="48.05748" lon="2.79087">
        <ele>101</ele>
        <time>2015-11-19T09:03:55Z</time>
      </trkpt>
      <trkpt lat="48.05746" lon="2.79089">
        <ele>102</ele>
        <time>2015-11-19T09:03:56Z</time>
      </trkpt>
      <trkpt lat="48.05745" lon="2.7909">
        <ele>103</ele>
        <time>2015-11-19T09:03:57Z</time>
      </trkpt>
      <trkpt lat="48.05743" lon="2.79089">
        <ele>104</ele>
        <time>2015-11-19T09:03:58Z</time>
      </trkpt>
      <trkpt lat="48.05741" lon="2.79089">
        <ele>105</ele>
        <time>2015-11-19T09:03:59Z</time>
      </trkpt>
      <trkpt lat="48.05739" lon="2.79091">
        <ele>106</ele>
        <time>2015-11-19T09:04:00Z</time>
      </trkpt>
      <trkpt lat="48.05736" lon="2.79092">
        <ele>107</ele>
        <time>2015-11-19T09:04:01Z</time>
      </trkpt>
      <trkpt lat="48.05733" lon="2.79093">
        <ele>107</ele>
        <time>2015-11-19T09:04:02Z</time>
      </trkpt>
      <trkpt lat="48.0573" lon="2.79093">
        <ele>107</ele>
        <time>2015-11-19T09:04:03Z</time>
      </trkpt>
      <trkpt lat="48.05727" lon="2.79092">
        <ele>107</ele>
        <time>2015-11-19T09:04:04Z</time>
      </trkpt>
      <trkpt lat="48.05724" lon="2.79089">
        <ele>107</ele>
        <time>2015-11-19T09:04:05Z</time>
      </trkpt>
      <trkpt lat="48.05719" lon="2.79087">
        <ele>107</ele>
        <time>2015-11-19T09:04:06Z</time>
      </trkpt>
      <trkpt lat="48.05716" lon="2.79085">
        <ele>107</ele>
        <time>2015-11-19T09:04:07Z</time>
      </trkpt>
      <trkpt lat="48.05713" lon="2.79084">
        <ele>107</ele>
        <time>2015-11-19T09:04:08Z</time>
      </trkpt>
      <trkpt lat="48.05711" lon="2.79081">
        <ele>107</ele>
        <time>2015-11-19T09:04:09Z</time>
      </trkpt>
      <trkpt lat="48.05709" lon="2.79077">
        <ele>107</ele>
        <time>2015-11-19T09:04:10Z</time>
      </trkpt>
      <trkpt lat="48.05708" lon="2.79073">
        <ele>107</ele>
        <time>2015-11-19T09:04:11Z</time>
      </trkpt>
      <trkpt lat="48.05707" lon="2.79069">
        <ele>107</ele>
        <time>2015-11-19T09:04:12Z</time>
      </trkpt>
      <trkpt lat="48.05705" lon="2.79065">
        <ele>107</ele>
        <time>2015-11-19T09:04:13Z</time>
      </trkpt>
      <trkpt lat="48.05701" lon="2.79063">
        <ele>106</ele>
        <time>2015-11-19T09:04:14Z</time>
      </trkpt>
      <trkpt lat="48.05699" lon="2.79062">
        <ele>105</ele>
        <time>2015-11-19T09:04:15Z</time>
      </trkpt>
      <trkpt lat="48.05698" lon="2.79061">
        <ele>104</ele>
        <time>2015-11-19T09:04:16Z</time>
      </trkpt>
      <trkpt lat="48.05696" lon="2.79061">
        <ele>103</ele>
        <time>2015-11-19T09:04:17Z</time>
      </trkpt>
      <trkpt lat="48.05695" lon="2.79061">
        <ele>101</ele>
        <time>2015-11-19T09:04:19Z</time>
      </trkpt>
      <trkpt lat="48.05694" lon="2.79061">
        <ele>99</ele>
        <time>2015-11-19T09:04:21Z</time>
      </trkpt>
      <trkpt lat="48.05693" lon="2.79061">
        <ele>98</ele>
        <time>2015-11-19T09:04:22Z</time>
      </trkpt>
      <trkpt lat="48.05691" lon="2.79061">
        <ele>97</ele>
        <time>2015-11-19T09:04:23Z</time>
      </trkpt>
      <trkpt lat="48.05689" lon="2.79064">
        <ele>96</ele>
        <time>2015-11-19T09:04:25Z</time>
      </trkpt>
      <trkpt lat="48.05687" lon="2.79066">
        <ele>96</ele>
        <time>2015-11-19T09:04:26Z</time>
      </trkpt>
      <trkpt lat="48.05685" lon="2.79069">
        <ele>96</ele>
        <time>2015-11-19T09:04:27Z</time>
      </trkpt>
      <trkpt lat="48.05683" lon="2.79071">
        <ele>95</ele>
        <time>2015-11-19T09:04:28Z</time>
      </trkpt>
      <trkpt lat="48.0568" lon="2.79073">
        <ele>95</ele>
        <time>2015-11-19T09:04:29Z</time>
      </trkpt>
      <trkpt lat="48.05677" lon="2.79075">
        <ele>95</ele>
        <time>2015-11-19T09:04:30Z</time>
      </trkpt>
      <trkpt lat="48.05674" lon="2.79077">
        <ele>95</ele>
        <time>2015-11-19T09:04:31Z</time>
      </trkpt>
      <trkpt lat="48.05672" lon="2.7908">
        <ele>95</ele>
        <time>2015-11-19T09:04:32Z</time>
      </trkpt>
      <trkpt lat="48.05669" lon="2.79082">
        <ele>95</ele>
        <time>2015-11-19T09:04:33Z</time>
      </trkpt>
      <trkpt lat="48.05667" lon="2.79085">
        <ele>95</ele>
        <time>2015-11-19T09:04:34Z</time>
      </trkpt>
      <trkpt lat="48.05664" lon="2.79087">
        <ele>95</ele>
        <time>2015-11-19T09:04:35Z</time>
      </trkpt>
      <trkpt lat="48.05662" lon="2.7909">
        <ele>96</ele>
        <time>2015-11-19T09:04:36Z</time>
      </trkpt>
      <trkpt lat="48.0566" lon="2.79092">
        <ele>97</ele>
        <time>2015-11-19T09:04:37Z</time>
      </trkpt>
      <trkpt lat="48.05658" lon="2.79093">
        <ele>97</ele>
        <time>2015-11-19T09:04:38Z</time>
      </trkpt>
      <trkpt lat="48.05655" lon="2.79093">
        <ele>98</ele>
        <time>2015-11-19T09:04:39Z</time>
      </trkpt>
      <trkpt lat="48.05653" lon="2.79094">
        <ele>98</ele>
        <time>2015-11-19T09:04:40Z</time>
      </trkpt>
      <trkpt lat="48.0565" lon="2.79095">
        <ele>99</ele>
        <time>2015-11-19T09:04:41Z</time>
      </trkpt>
      <trkpt lat="48.05647" lon="2.79096">
        <ele>100</ele>
        <time>2015-11-19T09:04:42Z</time>
      </trkpt>
      <trkpt lat="48.05644" lon="2.79099">
        <ele>100</ele>
        <time>2015-11-19T09:04:43Z</time>
      </trkpt>
      <trkpt lat="48.05641" lon="2.79101">
        <ele>101</ele>
        <time>2015-11-19T09:04:44Z</time>
      </trkpt>
      <trkpt lat="48.05638" lon="2.79103">
        <ele>101</ele>
        <time>2015-11-19T09:04:45Z</time>
      </trkpt>
      <trkpt lat="48.05637" lon="2.79107">
        <ele>102</ele>
        <time>2015-11-19T09:04:46Z</time>
      </trkpt>
      <trkpt lat="48.05635" lon="2.7911">
        <ele>102</ele>
        <time>2015-11-19T09:04:47Z</time>
      </trkpt>
      <trkpt lat="48.05632" lon="2.79113">
        <ele>103</ele>
        <time>2015-11-19T09:04:48Z</time>
      </trkpt>
      <trkpt lat="48.0563" lon="2.79117">
        <ele>103</ele>
        <time>2015-11-19T09:04:49Z</time>
      </trkpt>
      <trkpt lat="48.05628" lon="2.7912">
        <ele>103</ele>
        <time>2015-11-19T09:04:50Z</time>
      </trkpt>
      <trkpt lat="48.05626" lon="2.79123">
        <ele>103</ele>
        <time>2015-11-19T09:04:51Z</time>
      </trkpt>
      <trkpt lat="48.05625" lon="2.79126">
        <ele>103</ele>
        <time>2015-11-19T09:04:52Z</time>
      </trkpt>
      <trkpt lat="48.05625" lon="2.79129">
        <ele>103</ele>
        <time>2015-11-19T09:04:53Z</time>
      </trkpt>
      <trkpt lat="48.05625" lon="2.79132">
        <ele>103</ele>
        <time>2015-11-19T09:04:54Z</time>
      </trkpt>
      <trkpt lat="48.05625" lon="2.79134">
        <ele>103</ele>
        <time>2015-11-19T09:04:55Z</time>
      </trkpt>
      <trkpt lat="48.05626" lon="2.79136">
        <ele>103</ele>
        <time>2015-11-19T09:04:56Z</time>
      </trkpt>
      <trkpt lat="48.05627" lon="2.79138">
        <ele>103</ele>
        <time>2015-11-19T09:04:57Z</time>
      </trkpt>
      <trkpt lat="48.05629" lon="2.79139">
        <ele>103</ele>
        <time>2015-11-19T09:04:58Z</time>
      </trkpt>
      <trkpt lat="48.0563" lon="2.79141">
        <ele>103</ele>
        <time>2015-11-19T09:04:59Z</time>
      </trkpt>
      <trkpt lat="48.0563" lon="2.79145">
        <ele>103</ele>
        <time>2015-11-19T09:05:00Z</time>
      </trkpt>
      <trkpt lat="48.05629" lon="2.79147">
        <ele>103</ele>
        <time>2015-11-19T09:05:01Z</time>
      </trkpt>
      <trkpt lat="48.05629" lon="2.79149">
        <ele>103</ele>
        <time>2015-11-19T09:05:02Z</time>
      </trkpt>
      <trkpt lat="48.05627" lon="2.79151">
        <ele>103</ele>
        <time>2015-11-19T09:05:03Z</time>
      </trkpt>
      <trkpt lat="48.05626" lon="2.79153">
        <ele>103</ele>
        <time>2015-11-19T09:05:04Z</time>
      </trkpt>
      <trkpt lat="48.05624" lon="2.79154">
        <ele>103</ele>
        <time>2015-11-19T09:05:05Z</time>
      </trkpt>
      <trkpt lat="48.05621" lon="2.79156">
        <ele>103</ele>
        <time>2015-11-19T09:05:06Z</time>
      </trkpt>
      <trkpt lat="48.05619" lon="2.79158">
        <ele>103</ele>
        <time>2015-11-19T09:05:07Z</time>
      </trkpt>
      <trkpt lat="48.05616" lon="2.7916">
        <ele>103</ele>
        <time>2015-11-19T09:05:08Z</time>
      </trkpt>
      <trkpt lat="48.05613" lon="2.79162">
        <ele>103</ele>
        <time>2015-11-19T09:05:09Z</time>
      </trkpt>
      <trkpt lat="48.0561" lon="2.79162">
        <ele>103</ele>
        <time>2015-11-19T09:05:10Z</time>
      </trkpt>
      <trkpt lat="48.05607" lon="2.79163">
        <ele>103</ele>
        <time>2015-11-19T09:05:11Z</time>
      </trkpt>
      <trkpt lat="48.05604" lon="2.79164">
        <ele>103</ele>
        <time>2015-11-19T09:05:12Z</time>
      </trkpt>
      <trkpt lat="48.05601" lon="2.79165">
        <ele>103</ele>
        <time>2015-11-19T09:05:13Z</time>
      </trkpt>
      <trkpt lat="48.05597" lon="2.79165">
        <ele>103</ele>
        <time>2015-11-19T09:05:14Z</time>
      </trkpt>
      <trkpt lat="48.05592" lon="2.79164">
        <ele>103</ele>
        <time>2015-11-19T09:05:15Z</time>
      </trkpt>
      <trkpt lat="48.05587" lon="2.79163">
        <ele>103</ele>
        <time>2015-11-19T09:05:16Z</time>
      </trkpt>
      <trkpt lat="48.05581" lon="2.79162">
        <ele>103</ele>
        <time>2015-11-19T09:05:17Z</time>
      </trkpt>
      <trkpt lat="48.05575" lon="2.79161">
        <ele>103</ele>
        <time>2015-11-19T09:05:18Z</time>
      </trkpt>
      <trkpt lat="48.05568" lon="2.79159">
        <ele>103</ele>
        <time>2015-11-19T09:05:19Z</time>
      </trkpt>
      <trkpt lat="48.05562" lon="2.79159">
        <ele>103</ele>
        <time>2015-11-19T09:05:20Z</time>
      </trkpt>
      <trkpt lat="48.05555" lon="2.79157">
        <ele>103</ele>
        <time>2015-11-19T09:05:21Z</time>
      </trkpt>
      <trkpt lat="48.0555" lon="2.79154">
        <ele>103</ele>
        <time>2015-11-19T09:05:22Z</time>
      </trkpt>
      <trkpt lat="48.05544" lon="2.79152">
        <ele>103</ele>
        <time>2015-11-19T09:05:23Z</time>
      </trkpt>
      <trkpt lat="48.05538" lon="2.7915">
        <ele>103</ele>
        <time>2015-11-19T09:05:24Z</time>
      </trkpt>
      <trkpt lat="48.05531" lon="2.79147">
        <ele>103</ele>
        <time>2015-11-19T09:05:25Z</time>
      </trkpt>
      <trkpt lat="48.05526" lon="2.79143">
        <ele>103</ele>
        <time>2015-11-19T09:05:26Z</time>
      </trkpt>
      <trkpt lat="48.05521" lon="2.7914">
        <ele>103</ele>
        <time>2015-11-19T09:05:27Z</time>
      </trkpt>
      <trkpt lat="48.05516" lon="2.79137">
        <ele>103</ele>
        <time>2015-11-19T09:05:28Z</time>
      </trkpt>
      <trkpt lat="48.05512" lon="2.79132">
        <ele>103</ele>
        <time>2015-11-19T09:05:29Z</time>
      </trkpt>
      <trkpt lat="48.05508" lon="2.79127">
        <ele>103</ele>
        <time>2015-11-19T09:05:30Z</time>
      </trkpt>
      <trkpt lat="48.05505" lon="2.7912">
        <ele>103</ele>
        <time>2015-11-19T09:05:31Z</time>
      </trkpt>
      <trkpt lat="48.05502" lon="2.79113">
        <ele>103</ele>
        <time>2015-11-19T09:05:32Z</time>
      </trkpt>
      <trkpt lat="48.05504" lon="2.79108">
        <ele>103</ele>
        <time>2015-11-19T09:05:33Z</time>
      </trkpt>
      <trkpt lat="48.05508" lon="2.79104">
        <ele>103</ele>
        <time>2015-11-19T09:05:34Z</time>
      </trkpt>
      <trkpt lat="48.05513" lon="2.79099">
        <ele>103</ele>
        <time>2015-11-19T09:05:35Z</time>
      </trkpt>
      <trkpt lat="48.05519" lon="2.79093">
        <ele>103</ele>
        <time>2015-11-19T09:05:36Z</time>
      </trkpt>
      <trkpt lat="48.05524" lon="2.79089">
        <ele>103</ele>
        <time>2015-11-19T09:05:37Z</time>
      </trkpt>
      <trkpt lat="48.0553" lon="2.79085">
        <ele>103</ele>
        <time>2015-11-19T09:05:38Z</time>
      </trkpt>
      <trkpt lat="48.05536" lon="2.7908">
        <ele>103</ele>
        <time>2015-11-19T09:05:39Z</time>
      </trkpt>
      <trkpt lat="48.05541" lon="2.79075">
        <ele>103</ele>
        <time>2015-11-19T09:05:40Z</time>
      </trkpt>
      <trkpt lat="48.05546" lon="2.79071">
        <ele>103</ele>
        <time>2015-11-19T09:05:41Z</time>
      </trkpt>
      <trkpt lat="48.05551" lon="2.79066">
        <ele>103</ele>
        <time>2015-11-19T09:05:42Z</time>
      </trkpt>
      <trkpt lat="48.05556" lon="2.79061">
        <ele>103</ele>
        <time>2015-11-19T09:05:43Z</time>
      </trkpt>
      <trkpt lat="48.05562" lon="2.79055">
        <ele>103</ele>
        <time>2015-11-19T09:05:44Z</time>
      </trkpt>
      <trkpt lat="48.05568" lon="2.7905">
        <ele>103</ele>
        <time>2015-11-19T09:05:45Z</time>
      </trkpt>
      <trkpt lat="48.05574" lon="2.79046">
        <ele>103</ele>
        <time>2015-11-19T09:05:46Z</time>
      </trkpt>
      <trkpt lat="48.05579" lon="2.79041">
        <ele>103</ele>
        <time>2015-11-19T09:05:47Z</time>
      </trkpt>
      <trkpt lat="48.05584" lon="2.79037">
        <ele>102</ele>
        <time>2015-11-19T09:05:48Z</time>
      </trkpt>
      <trkpt lat="48.05588" lon="2.7903">
        <ele>102</ele>
        <time>2015-11-19T09:05:49Z</time>
      </trkpt>
      <trkpt lat="48.05593" lon="2.79025">
        <ele>101</ele>
        <time>2015-11-19T09:05:50Z</time>
      </trkpt>
      <trkpt lat="48.05598" lon="2.7902">
        <ele>101</ele>
        <time>2015-11-19T09:05:51Z</time>
      </trkpt>
      <trkpt lat="48.05603" lon="2.79014">
        <ele>100</ele>
        <time>2015-11-19T09:05:52Z</time>
      </trkpt>
      <trkpt lat="48.05609" lon="2.79007">
        <ele>100</ele>
        <time>2015-11-19T09:05:53Z</time>
      </trkpt>
      <trkpt lat="48.05615" lon="2.79002">
        <ele>99</ele>
        <time>2015-11-19T09:05:54Z</time>
      </trkpt>
      <trkpt lat="48.05621" lon="2.78996">
        <ele>99</ele>
        <time>2015-11-19T09:05:55Z</time>
      </trkpt>
      <trkpt lat="48.05627" lon="2.78992">
        <ele>99</ele>
        <time>2015-11-19T09:05:56Z</time>
      </trkpt>
      <trkpt lat="48.05634" lon="2.78988">
        <ele>98</ele>
        <time>2015-11-19T09:05:57Z</time>
      </trkpt>
      <trkpt lat="48.0564" lon="2.78984">
        <ele>98</ele>
        <time>2015-11-19T09:05:58Z</time>
      </trkpt>
      <trkpt lat="48.05646" lon="2.7898">
        <ele>97</ele>
        <time>2015-11-19T09:05:59Z</time>
      </trkpt>
      <trkpt lat="48.05652" lon="2.78975">
        <ele>96</ele>
        <time>2015-11-19T09:06:00Z</time>
      </trkpt>
      <trkpt lat="48.05658" lon="2.78971">
        <ele>96</ele>
        <time>2015-11-19T09:06:01Z</time>
      </trkpt>
      <trkpt lat="48.05664" lon="2.78966">
        <ele>95</ele>
        <time>2015-11-19T09:06:02Z</time>
      </trkpt>
      <trkpt lat="48.05671" lon="2.78961">
        <ele>95</ele>
        <time>2015-11-19T09:06:03Z</time>
      </trkpt>
      <trkpt lat="48.05677" lon="2.78956">
        <ele>94</ele>
        <time>2015-11-19T09:06:04Z</time>
      </trkpt>
      <trkpt lat="48.05682" lon="2.78951">
        <ele>94</ele>
        <time>2015-11-19T09:06:05Z</time>
      </trkpt>
      <trkpt lat="48.05689" lon="2.78946">
        <ele>93</ele>
        <time>2015-11-19T09:06:06Z</time>
      </trkpt>
      <trkpt lat="48.05695" lon="2.78942">
        <ele>93</ele>
        <time>2015-11-19T09:06:07Z</time>
      </trkpt>
      <trkpt lat="48.057" lon="2.78937">
        <ele>93</ele>
        <time>2015-11-19T09:06:08Z</time>
      </trkpt>
      <trkpt lat="48.05705" lon="2.7893">
        <ele>93</ele>
        <time>2015-11-19T09:06:09Z</time>
      </trkpt>
      <trkpt lat="48.05711" lon="2.78924">
        <ele>93</ele>
        <time>2015-11-19T09:06:10Z</time>
      </trkpt>
      <trkpt lat="48.05717" lon="2.78918">
        <ele>93</ele>
        <time>2015-11-19T09:06:11Z</time>
      </trkpt>
      <trkpt lat="48.05723" lon="2.78912">
        <ele>92</ele>
        <time>2015-11-19T09:06:12Z</time>
      </trkpt>
      <trkpt lat="48.05728" lon="2.78905">
        <ele>92</ele>
        <time>2015-11-19T09:06:13Z</time>
      </trkpt>
      <trkpt lat="48.05731" lon="2.78897">
        <ele>92</ele>
        <time>2015-11-19T09:06:14Z</time>
      </trkpt>
      <trkpt lat="48.05731" lon="2.78889">
        <ele>92</ele>
        <time>2015-11-19T09:06:15Z</time>
      </trkpt>
      <trkpt lat="48.05733" lon="2.78881">
        <ele>92</ele>
        <time>2015-11-19T09:06:16Z</time>
      </trkpt>
      <trkpt lat="48.05735" lon="2.78873">
        <ele>92</ele>
        <time>2015-11-19T09:06:17Z</time>
      </trkpt>
      <trkpt lat="48.05736" lon="2.78866">
        <ele>92</ele>
        <time>2015-11-19T09:06:18Z</time>
      </trkpt>
      <trkpt lat="48.0574" lon="2.78859">
        <ele>92</ele>
        <time>2015-11-19T09:06:19Z</time>
      </trkpt>
      <trkpt lat="48.05744" lon="2.78843">
        <ele>92</ele>
        <time>2015-11-19T09:06:21Z</time>
      </trkpt>
      <trkpt lat="48.05745" lon="2.78834">
        <ele>92</ele>
        <time>2015-11-19T09:06:22Z</time>
      </trkpt>
      <trkpt lat="48.05748" lon="2.78825">
        <ele>92</ele>
        <time>2015-11-19T09:06:23Z</time>
      </trkpt>
      <trkpt lat="48.05751" lon="2.78817">
        <ele>93</ele>
        <time>2015-11-19T09:06:24Z</time>
      </trkpt>
      <trkpt lat="48.05753" lon="2.78809">
        <ele>94</ele>
        <time>2015-11-19T09:06:25Z</time>
      </trkpt>
      <trkpt lat="48.05756" lon="2.78801">
        <ele>95</ele>
        <time>2015-11-19T09:06:26Z</time>
      </trkpt>
      <trkpt lat="48.05756" lon="2.78794">
        <ele>96</ele>
        <time>2015-11-19T09:06:27Z</time>
      </trkpt>
      <trkpt lat="48.05758" lon="2.78786">
        <ele>96</ele>
        <time>2015-11-19T09:06:28Z</time>
      </trkpt>
      <trkpt lat="48.05761" lon="2.78779">
        <ele>97</ele>
        <time>2015-11-19T09:06:29Z</time>
      </trkpt>
      <trkpt lat="48.05763" lon="2.78771">
        <ele>98</ele>
        <time>2015-11-19T09:06:30Z</time>
      </trkpt>
      <trkpt lat="48.05766" lon="2.78763">
        <ele>99</ele>
        <time>2015-11-19T09:06:31Z</time>
      </trkpt>
      <trkpt lat="48.05768" lon="2.78756">
        <ele>100</ele>
        <time>2015-11-19T09:06:32Z</time>
      </trkpt>
      <trkpt lat="48.0577" lon="2.78748">
        <ele>100</ele>
        <time>2015-11-19T09:06:33Z</time>
      </trkpt>
      <trkpt lat="48.05771" lon="2.7874">
        <ele>101</ele>
        <time>2015-11-19T09:06:34Z</time>
      </trkpt>
      <trkpt lat="48.05772" lon="2.78732">
        <ele>102</ele>
        <time>2015-11-19T09:06:35Z</time>
      </trkpt>
      <trkpt lat="48.05774" lon="2.78723">
        <ele>103</ele>
        <time>2015-11-19T09:06:36Z</time>
      </trkpt>
      <trkpt lat="48.05775" lon="2.78714">
        <ele>104</ele>
        <time>2015-11-19T09:06:37Z</time>
      </trkpt>
      <trkpt lat="48.05779" lon="2.78706">
        <ele>105</ele>
        <time>2015-11-19T09:06:38Z</time>
      </trkpt>
      <trkpt lat="48.05781" lon="2.78698">
        <ele>106</ele>
        <time>2015-11-19T09:06:39Z</time>
      </trkpt>
      <trkpt lat="48.05783" lon="2.78691">
        <ele>107</ele>
        <time>2015-11-19T09:06:40Z</time>
      </trkpt>
      <trkpt lat="48.05784" lon="2.78684">
        <ele>108</ele>
        <time>2015-11-19T09:06:41Z</time>
      </trkpt>
      <trkpt lat="48.05786" lon="2.78675">
        <ele>109</ele>
        <time>2015-11-19T09:06:42Z</time>
      </trkpt>
      <trkpt lat="48.05787" lon="2.78667">
        <ele>109</ele>
        <time>2015-11-19T09:06:43Z</time>
      </trkpt>
      <trkpt lat="48.05788" lon="2.78659">
        <ele>110</ele>
        <time>2015-11-19T09:06:44Z</time>
      </trkpt>
      <trkpt lat="48.0579" lon="2.7865">
        <ele>110</ele>
        <time>2015-11-19T09:06:45Z</time>
      </trkpt>
      <trkpt lat="48.05791" lon="2.7864">
        <ele>111</ele>
        <time>2015-11-19T09:06:46Z</time>
      </trkpt>
      <trkpt lat="48.05793" lon="2.78633">
        <ele>111</ele>
        <time>2015-11-19T09:06:47Z</time>
      </trkpt>
      <trkpt lat="48.05796" lon="2.78624">
        <ele>111</ele>
        <time>2015-11-19T09:06:48Z</time>
      </trkpt>
      <trkpt lat="48.05798" lon="2.78618">
        <ele>111</ele>
        <time>2015-11-19T09:06:49Z</time>
      </trkpt>
      <trkpt lat="48.058" lon="2.78611">
        <ele>111</ele>
        <time>2015-11-19T09:06:50Z</time>
      </trkpt>
      <trkpt lat="48.05801" lon="2.78604">
        <ele>111</ele>
        <time>2015-11-19T09:06:51Z</time>
      </trkpt>
      <trkpt lat="48.05804" lon="2.78598">
        <ele>111</ele>
        <time>2015-11-19T09:06:52Z</time>
      </trkpt>
      <trkpt lat="48.05806" lon="2.78592">
        <ele>111</ele>
        <time>2015-11-19T09:06:53Z</time>
      </trkpt>
      <trkpt lat="48.05806" lon="2.78585">
        <ele>111</ele>
        <time>2015-11-19T09:06:54Z</time>
      </trkpt>
      <trkpt lat="48.05807" lon="2.78577">
        <ele>111</ele>
        <time>2015-11-19T09:06:55Z</time>
      </trkpt>
      <trkpt lat="48.05808" lon="2.7857">
        <ele>111</ele>
        <time>2015-11-19T09:06:56Z</time>
      </trkpt>
      <trkpt lat="48.05809" lon="2.78561">
        <ele>111</ele>
        <time>2015-11-19T09:06:57Z</time>
      </trkpt>
      <trkpt lat="48.0581" lon="2.78553">
        <ele>111</ele>
        <time>2015-11-19T09:06:58Z</time>
      </trkpt>
      <trkpt lat="48.05813" lon="2.78546">
        <ele>111</ele>
        <time>2015-11-19T09:06:59Z</time>
      </trkpt>
      <trkpt lat="48.05815" lon="2.78538">
        <ele>112</ele>
        <time>2015-11-19T09:07:00Z</time>
      </trkpt>
      <trkpt lat="48.05816" lon="2.78531">
        <ele>113</ele>
        <time>2015-11-19T09:07:01Z</time>
      </trkpt>
      <trkpt lat="48.05818" lon="2.78522">
        <ele>114</ele>
        <time>2015-11-19T09:07:02Z</time>
      </trkpt>
      <trkpt lat="48.05819" lon="2.78514">
        <ele>115</ele>
        <time>2015-11-19T09:07:03Z</time>
      </trkpt>
      <trkpt lat="48.0582" lon="2.78507">
        <ele>116</ele>
        <time>2015-11-19T09:07:04Z</time>
      </trkpt>
      <trkpt lat="48.05821" lon="2.785">
        <ele>117</ele>
        <time>2015-11-19T09:07:05Z</time>
      </trkpt>
      <trkpt lat="48.05822" lon="2.78494">
        <ele>119</ele>
        <time>2015-11-19T09:07:06Z</time>
      </trkpt>
      <trkpt lat="48.05824" lon="2.78486">
        <ele>120</ele>
        <time>2015-11-19T09:07:07Z</time>
      </trkpt>
      <trkpt lat="48.05825" lon="2.78479">
        <ele>122</ele>
        <time>2015-11-19T09:07:08Z</time>
      </trkpt>
      <trkpt lat="48.05826" lon="2.78473">
        <ele>124</ele>
        <time>2015-11-19T09:07:09Z</time>
      </trkpt>
      <trkpt lat="48.05827" lon="2.78468">
        <ele>125</ele>
        <time>2015-11-19T09:07:10Z</time>
      </trkpt>
      <trkpt lat="48.05828" lon="2.78464">
        <ele>127</ele>
        <time>2015-11-19T09:07:11Z</time>
      </trkpt>
      <trkpt lat="48.05829" lon="2.78459">
        <ele>129</ele>
        <time>2015-11-19T09:07:12Z</time>
      </trkpt>
      <trkpt lat="48.0583" lon="2.78454">
        <ele>130</ele>
        <time>2015-11-19T09:07:13Z</time>
      </trkpt>
      <trkpt lat="48.05831" lon="2.78451">
        <ele>131</ele>
        <time>2015-11-19T09:07:14Z</time>
      </trkpt>
      <trkpt lat="48.05832" lon="2.78448">
        <ele>132</ele>
        <time>2015-11-19T09:07:15Z</time>
      </trkpt>
      <trkpt lat="48.05832" lon="2.78443">
        <ele>133</ele>
        <time>2015-11-19T09:07:16Z</time>
      </trkpt>
      <trkpt lat="48.05833" lon="2.7844">
        <ele>134</ele>
        <time>2015-11-19T09:07:17Z</time>
      </trkpt>
      <trkpt lat="48.05833" lon="2.78438">
        <ele>135</ele>
        <time>2015-11-19T09:07:18Z</time>
      </trkpt>
      <trkpt lat="48.05833" lon="2.78435">
        <ele>136</ele>
        <time>2015-11-19T09:07:20Z</time>
      </trkpt>
      <trkpt lat="48.05832" lon="2.78431">
        <ele>136</ele>
        <time>2015-11-19T09:07:22Z</time>
      </trkpt>
      <trkpt lat="48.05831" lon="2.78429">
        <ele>135</ele>
        <time>2015-11-19T09:07:24Z</time>
      </trkpt>
      <trkpt lat="48.0583" lon="2.78428">
        <ele>134</ele>
        <time>2015-11-19T09:07:25Z</time>
      </trkpt>
      <trkpt lat="48.05829" lon="2.78427">
        <ele>133</ele>
        <time>2015-11-19T09:07:26Z</time>
      </trkpt>
      <trkpt lat="48.05827" lon="2.78425">
        <ele>131</ele>
        <time>2015-11-19T09:07:28Z</time>
      </trkpt>
      <trkpt lat="48.05823" lon="2.78424">
        <ele>129</ele>
        <time>2015-11-19T09:07:30Z</time>
      </trkpt>
      <trkpt lat="48.05822" lon="2.78424">
        <ele>129</ele>
        <time>2015-11-19T09:07:31Z</time>
      </trkpt>
      <trkpt lat="48.05818" lon="2.78425">
        <ele>128</ele>
        <time>2015-11-19T09:07:32Z</time>
      </trkpt>
      <trkpt lat="48.05817" lon="2.78424">
        <ele>127</ele>
        <time>2015-11-19T09:07:33Z</time>
      </trkpt>
      <trkpt lat="48.05814" lon="2.78423">
        <ele>126</ele>
        <time>2015-11-19T09:07:34Z</time>
      </trkpt>
      <trkpt lat="48.05813" lon="2.78419">
        <ele>125</ele>
        <time>2015-11-19T09:07:35Z</time>
      </trkpt>
      <trkpt lat="48.05811" lon="2.78417">
        <ele>124</ele>
        <time>2015-11-19T09:07:36Z</time>
      </trkpt>
      <trkpt lat="48.05811" lon="2.78415">
        <ele>123</ele>
        <time>2015-11-19T09:07:37Z</time>
      </trkpt>
      <trkpt lat="48.05809" lon="2.78413">
        <ele>122</ele>
        <time>2015-11-19T09:07:38Z</time>
      </trkpt>
      <trkpt lat="48.05807" lon="2.78413">
        <ele>121</ele>
        <time>2015-11-19T09:07:39Z</time>
      </trkpt>
      <trkpt lat="48.05805" lon="2.78412">
        <ele>120</ele>
        <time>2015-11-19T09:07:40Z</time>
      </trkpt>
      <trkpt lat="48.05802" lon="2.78412">
        <ele>119</ele>
        <time>2015-11-19T09:07:41Z</time>
      </trkpt>
      <trkpt lat="48.05799" lon="2.78412">
        <ele>118</ele>
        <time>2015-11-19T09:07:42Z</time>
      </trkpt>
      <trkpt lat="48.05796" lon="2.78413">
        <ele>118</ele>
        <time>2015-11-19T09:07:43Z</time>
      </trkpt>
      <trkpt lat="48.05795" lon="2.78413">
        <ele>117</ele>
        <time>2015-11-19T09:07:44Z</time>
      </trkpt>
      <trkpt lat="48.05792" lon="2.78413">
        <ele>117</ele>
        <time>2015-11-19T09:07:45Z</time>
      </trkpt>
      <trkpt lat="48.0579" lon="2.78413">
        <ele>116</ele>
        <time>2015-11-19T09:07:46Z</time>
      </trkpt>
      <trkpt lat="48.05787" lon="2.78413">
        <ele>115</ele>
        <time>2015-11-19T09:07:47Z</time>
      </trkpt>
      <trkpt lat="48.05784" lon="2.78413">
        <ele>113</ele>
        <time>2015-11-19T09:07:49Z</time>
      </trkpt>
      <trkpt lat="48.05782" lon="2.78413">
        <ele>112</ele>
        <time>2015-11-19T09:07:50Z</time>
      </trkpt>
      <trkpt lat="48.05779" lon="2.78413">
        <ele>111</ele>
        <time>2015-11-19T09:07:51Z</time>
      </trkpt>
      <trkpt lat="48.05777" lon="2.78413">
        <ele>111</ele>
        <time>2015-11-19T09:07:52Z</time>
      </trkpt>
      <trkpt lat="48.05774" lon="2.78414">
        <ele>110</ele>
        <time>2015-11-19T09:07:53Z</time>
      </trkpt>
      <trkpt lat="48.05772" lon="2.78414">
        <ele>110</ele>
        <time>2015-11-19T09:07:54Z</time>
      </trkpt>
      <trkpt lat="48.05771" lon="2.78414">
        <ele>110</ele>
        <time>2015-11-19T09:07:55Z</time>
      </trkpt>
      <trkpt lat="48.05769" lon="2.78414">
        <ele>109</ele>
        <time>2015-11-19T09:07:56Z</time>
      </trkpt>
      <trkpt lat="48.05766" lon="2.78414">
        <ele>109</ele>
        <time>2015-11-19T09:07:57Z</time>
      </trkpt>
      <trkpt lat="48.05763" lon="2.78414">
        <ele>109</ele>
        <time>2015-11-19T09:07:58Z</time>
      </trkpt>
      <trkpt lat="48.05761" lon="2.78415">
        <ele>109</ele>
        <time>2015-11-19T09:07:59Z</time>
      </trkpt>
      <trkpt lat="48.05758" lon="2.78415">
        <ele>109</ele>
        <time>2015-11-19T09:08:00Z</time>
      </trkpt>
      <trkpt lat="48.05756" lon="2.78416">
        <ele>108</ele>
        <time>2015-11-19T09:08:01Z</time>
      </trkpt>
      <trkpt lat="48.05753" lon="2.78416">
        <ele>108</ele>
        <time>2015-11-19T09:08:02Z</time>
      </trkpt>
      <trkpt lat="48.0575" lon="2.78417">
        <ele>107</ele>
        <time>2015-11-19T09:08:03Z</time>
      </trkpt>
      <trkpt lat="48.05747" lon="2.78418">
        <ele>106</ele>
        <time>2015-11-19T09:08:04Z</time>
      </trkpt>
      <trkpt lat="48.05745" lon="2.78418">
        <ele>105</ele>
        <time>2015-11-19T09:08:05Z</time>
      </trkpt>
      <trkpt lat="48.05743" lon="2.78419">
        <ele>105</ele>
        <time>2015-11-19T09:08:06Z</time>
      </trkpt>
      <trkpt lat="48.0574" lon="2.7842">
        <ele>105</ele>
        <time>2015-11-19T09:08:07Z</time>
      </trkpt>
      <trkpt lat="48.05737" lon="2.7842">
        <ele>105</ele>
        <time>2015-11-19T09:08:08Z</time>
      </trkpt>
      <trkpt lat="48.05734" lon="2.7842">
        <ele>105</ele>
        <time>2015-11-19T09:08:09Z</time>
      </trkpt>
      <trkpt lat="48.05732" lon="2.7842">
        <ele>105</ele>
        <time>2015-11-19T09:08:10Z</time>
      </trkpt>
      <trkpt lat="48.0573" lon="2.78421">
        <ele>105</ele>
        <time>2015-11-19T09:08:11Z</time>
      </trkpt>
      <trkpt lat="48.05727" lon="2.78422">
        <ele>105</ele>
        <time>2015-11-19T09:08:12Z</time>
      </trkpt>
      <trkpt lat="48.05725" lon="2.78423">
        <ele>105</ele>
        <time>2015-11-19T09:08:13Z</time>
      </trkpt>
      <trkpt lat="48.05724" lon="2.78424">
        <ele>105</ele>
        <time>2015-11-19T09:08:14Z</time>
      </trkpt>
      <trkpt lat="48.05722" lon="2.78424">
        <ele>105</ele>
        <time>2015-11-19T09:08:15Z</time>
      </trkpt>
      <trkpt lat="48.05721" lon="2.78424">
        <ele>105</ele>
        <time>2015-11-19T09:08:16Z</time>
      </trkpt>
      <trkpt lat="48.05719" lon="2.78424">
        <ele>105</ele>
        <time>2015-11-19T09:08:17Z</time>
      </trkpt>
      <trkpt lat="48.05718" lon="2.78425">
        <ele>105</ele>
        <time>2015-11-19T09:08:18Z</time>
      </trkpt>
      <trkpt lat="48.05716" lon="2.78425">
        <ele>105</ele>
        <time>2015-11-19T09:08:19Z</time>
      </trkpt>
      <trkpt lat="48.05714" lon="2.78425">
        <ele>105</ele>
        <time>2015-11-19T09:08:20Z</time>
      </trkpt>
      <trkpt lat="48.05713" lon="2.78424">
        <ele>105</ele>
        <time>2015-11-19T09:08:21Z</time>
      </trkpt>
      <trkpt lat="48.05711" lon="2.78424">
        <ele>105</ele>
        <time>2015-11-19T09:08:22Z</time>
      </trkpt>
      <trkpt lat="48.05709" lon="2.78424">
        <ele>105</ele>
        <time>2015-11-19T09:08:23Z</time>
      </trkpt>
      <trkpt lat="48.05706" lon="2.78424">
        <ele>107</ele>
        <time>2015-11-19T09:08:25Z</time>
      </trkpt>
      <trkpt lat="48.05704" lon="2.78425">
        <ele>108</ele>
        <time>2015-11-19T09:08:26Z</time>
      </trkpt>
      <trkpt lat="48.05702" lon="2.78425">
        <ele>109</ele>
        <time>2015-11-19T09:08:27Z</time>
      </trkpt>
      <trkpt lat="48.057" lon="2.78425">
        <ele>110</ele>
        <time>2015-11-19T09:08:28Z</time>
      </trkpt>
      <trkpt lat="48.05698" lon="2.78426">
        <ele>111</ele>
        <time>2015-11-19T09:08:29Z</time>
      </trkpt>
      <trkpt lat="48.05696" lon="2.78427">
        <ele>111</ele>
        <time>2015-11-19T09:08:30Z</time>
      </trkpt>
      <trkpt lat="48.05693" lon="2.78427">
        <ele>112</ele>
        <time>2015-11-19T09:08:31Z</time>
      </trkpt>
      <trkpt lat="48.0569" lon="2.78428">
        <ele>113</ele>
        <time>2015-11-19T09:08:32Z</time>
      </trkpt>
      <trkpt lat="48.05688" lon="2.78429">
        <ele>113</ele>
        <time>2015-11-19T09:08:33Z</time>
      </trkpt>
      <trkpt lat="48.05686" lon="2.7843">
        <ele>113</ele>
        <time>2015-11-19T09:08:34Z</time>
      </trkpt>
      <trkpt lat="48.05684" lon="2.78431">
        <ele>113</ele>
        <time>2015-11-19T09:08:35Z</time>
      </trkpt>
      <trkpt lat="48.05681" lon="2.78432">
        <ele>114</ele>
        <time>2015-11-19T09:08:36Z</time>
      </trkpt>
      <trkpt lat="48.05679" lon="2.78432">
        <ele>114</ele>
        <time>2015-11-19T09:08:37Z</time>
      </trkpt>
      <trkpt lat="48.05676" lon="2.78433">
        <ele>114</ele>
        <time>2015-11-19T09:08:38Z</time>
      </trkpt>
      <trkpt lat="48.05673" lon="2.78433">
        <ele>114</ele>
        <time>2015-11-19T09:08:39Z</time>
      </trkpt>
      <trkpt lat="48.05671" lon="2.78433">
        <ele>114</ele>
        <time>2015-11-19T09:08:40Z</time>
      </trkpt>
      <trkpt lat="48.05669" lon="2.78433">
        <ele>115</ele>
        <time>2015-11-19T09:08:41Z</time>
      </trkpt>
      <trkpt lat="48.05667" lon="2.78432">
        <ele>115</ele>
        <time>2015-11-19T09:08:42Z</time>
      </trkpt>
      <trkpt lat="48.05664" lon="2.78433">
        <ele>116</ele>
        <time>2015-11-19T09:08:43Z</time>
      </trkpt>
      <trkpt lat="48.05662" lon="2.78433">
        <ele>116</ele>
        <time>2015-11-19T09:08:44Z</time>
      </trkpt>
      <trkpt lat="48.05658" lon="2.78434">
        <ele>117</ele>
        <time>2015-11-19T09:08:46Z</time>
      </trkpt>
      <trkpt lat="48.05656" lon="2.78435">
        <ele>117</ele>
        <time>2015-11-19T09:08:47Z</time>
      </trkpt>
      <trkpt lat="48.05654" lon="2.78435">
        <ele>117</ele>
        <time>2015-11-19T09:08:48Z</time>
      </trkpt>
      <trkpt lat="48.05651" lon="2.78436">
        <ele>117</ele>
        <time>2015-11-19T09:08:49Z</time>
      </trkpt>
      <trkpt lat="48.05649" lon="2.78437">
        <ele>117</ele>
        <time>2015-11-19T09:08:50Z</time>
      </trkpt>
      <trkpt lat="48.05647" lon="2.78437">
        <ele>117</ele>
        <time>2015-11-19T09:08:51Z</time>
      </trkpt>
      <trkpt lat="48.05645" lon="2.78437">
        <ele>118</ele>
        <time>2015-11-19T09:08:52Z</time>
      </trkpt>
      <trkpt lat="48.05643" lon="2.78437">
        <ele>118</ele>
        <time>2015-11-19T09:08:53Z</time>
      </trkpt>
      <trkpt lat="48.0564" lon="2.78436">
        <ele>118</ele>
        <time>2015-11-19T09:08:54Z</time>
      </trkpt>
      <trkpt lat="48.05639" lon="2.78436">
        <ele>118</ele>
        <time>2015-11-19T09:08:55Z</time>
      </trkpt>
      <trkpt lat="48.05637" lon="2.78436">
        <ele>119</ele>
        <time>2015-11-19T09:08:56Z</time>
      </trkpt>
      <trkpt lat="48.05632" lon="2.78438">
        <ele>120</ele>
        <time>2015-11-19T09:08:58Z</time>
      </trkpt>
      <trkpt lat="48.0563" lon="2.78439">
        <ele>120</ele>
        <time>2015-11-19T09:08:59Z</time>
      </trkpt>
      <trkpt lat="48.05627" lon="2.78439">
        <ele>121</ele>
        <time>2015-11-19T09:09:00Z</time>
      </trkpt>
      <trkpt lat="48.05625" lon="2.78439">
        <ele>121</ele>
        <time>2015-11-19T09:09:01Z</time>
      </trkpt>
      <trkpt lat="48.05623" lon="2.78439">
        <ele>121</ele>
        <time>2015-11-19T09:09:02Z</time>
      </trkpt>
      <trkpt lat="48.0562" lon="2.7844">
        <ele>121</ele>
        <time>2015-11-19T09:09:03Z</time>
      </trkpt>
      <trkpt lat="48.05618" lon="2.7844">
        <ele>121</ele>
        <time>2015-11-19T09:09:04Z</time>
      </trkpt>
      <trkpt lat="48.05615" lon="2.7844">
        <ele>121</ele>
        <time>2015-11-19T09:09:05Z</time>
      </trkpt>
      <trkpt lat="48.05612" lon="2.78441">
        <ele>121</ele>
        <time>2015-11-19T09:09:06Z</time>
      </trkpt>
      <trkpt lat="48.0561" lon="2.78441">
        <ele>122</ele>
        <time>2015-11-19T09:09:07Z</time>
      </trkpt>
      <trkpt lat="48.05607" lon="2.78442">
        <ele>122</ele>
        <time>2015-11-19T09:09:08Z</time>
      </trkpt>
      <trkpt lat="48.05605" lon="2.78442">
        <ele>122</ele>
        <time>2015-11-19T09:09:09Z</time>
      </trkpt>
      <trkpt lat="48.05602" lon="2.78443">
        <ele>122</ele>
        <time>2015-11-19T09:09:10Z</time>
      </trkpt>
      <trkpt lat="48.056" lon="2.78443">
        <ele>123</ele>
        <time>2015-11-19T09:09:11Z</time>
      </trkpt>
      <trkpt lat="48.05597" lon="2.78444">
        <ele>123</ele>
        <time>2015-11-19T09:09:12Z</time>
      </trkpt>
      <trkpt lat="48.05593" lon="2.78445">
        <ele>123</ele>
        <time>2015-11-19T09:09:13Z</time>
      </trkpt>
      <trkpt lat="48.0559" lon="2.78446">
        <ele>123</ele>
        <time>2015-11-19T09:09:14Z</time>
      </trkpt>
      <trkpt lat="48.05587" lon="2.78447">
        <ele>123</ele>
        <time>2015-11-19T09:09:15Z</time>
      </trkpt>
      <trkpt lat="48.05585" lon="2.78447">
        <ele>123</ele>
        <time>2015-11-19T09:09:16Z</time>
      </trkpt>
      <trkpt lat="48.05582" lon="2.78447">
        <ele>123</ele>
        <time>2015-11-19T09:09:17Z</time>
      </trkpt>
      <trkpt lat="48.05577" lon="2.78448">
        <ele>123</ele>
        <time>2015-11-19T09:09:19Z</time>
      </trkpt>
      <trkpt lat="48.05575" lon="2.78447">
        <ele>123</ele>
        <time>2015-11-19T09:09:20Z</time>
      </trkpt>
      <trkpt lat="48.05573" lon="2.78447">
        <ele>123</ele>
        <time>2015-11-19T09:09:21Z</time>
      </trkpt>
      <trkpt lat="48.05568" lon="2.78448">
        <ele>123</ele>
        <time>2015-11-19T09:09:22Z</time>
      </trkpt>
      <trkpt lat="48.05564" lon="2.78448">
        <ele>123</ele>
        <time>2015-11-19T09:09:23Z</time>
      </trkpt>
      <trkpt lat="48.05561" lon="2.78448">
        <ele>123</ele>
        <time>2015-11-19T09:09:25Z</time>
      </trkpt>
      <trkpt lat="48.05559" lon="2.78449">
        <ele>123</ele>
        <time>2015-11-19T09:09:26Z</time>
      </trkpt>
      <trkpt lat="48.05556" lon="2.7845">
        <ele>123</ele>
        <time>2015-11-19T09:09:27Z</time>
      </trkpt>
      <trkpt lat="48.05554" lon="2.78451">
        <ele>123</ele>
        <time>2015-11-19T09:09:28Z</time>
      </trkpt>
      <trkpt lat="48.05552" lon="2.78451">
        <ele>123</ele>
        <time>2015-11-19T09:09:30Z</time>
      </trkpt>
      <trkpt lat="48.0555" lon="2.78451">
        <ele>123</ele>
        <time>2015-11-19T09:09:31Z</time>
      </trkpt>
      <trkpt lat="48.05547" lon="2.78451">
        <ele>123</ele>
        <time>2015-11-19T09:09:32Z</time>
      </trkpt>
      <trkpt lat="48.05545" lon="2.78452">
        <ele>123</ele>
        <time>2015-11-19T09:09:33Z</time>
      </trkpt>
      <trkpt lat="48.05541" lon="2.78454">
        <ele>123</ele>
        <time>2015-11-19T09:09:35Z</time>
      </trkpt>
      <trkpt lat="48.05539" lon="2.78451">
        <ele>123</ele>
        <time>2015-11-19T09:09:39Z</time>
      </trkpt>
      <trkpt lat="48.05541" lon="2.7845">
        <ele>123</ele>
        <time>2015-11-19T09:09:40Z</time>
      </trkpt>
      <trkpt lat="48.05543" lon="2.78448">
        <ele>123</ele>
        <time>2015-11-19T09:09:42Z</time>
      </trkpt>
      <trkpt lat="48.05545" lon="2.78447">
        <ele>123</ele>
        <time>2015-11-19T09:09:43Z</time>
      </trkpt>
      <trkpt lat="48.05548" lon="2.78452">
        <ele>123</ele>
        <time>2015-11-19T09:09:45Z</time>
      </trkpt>
      <trkpt lat="48.05548" lon="2.78456">
        <ele>123</ele>
        <time>2015-11-19T09:09:46Z</time>
      </trkpt>
      <trkpt lat="48.05548" lon="2.78459">
        <ele>123</ele>
        <time>2015-11-19T09:09:47Z</time>
      </trkpt>
      <trkpt lat="48.05548" lon="2.78464">
        <ele>122</ele>
        <time>2015-11-19T09:09:48Z</time>
      </trkpt>
      <trkpt lat="48.05548" lon="2.7847">
        <ele>122</ele>
        <time>2015-11-19T09:09:49Z</time>
      </trkpt>
      <trkpt lat="48.05549" lon="2.78483">
        <ele>122</ele>
        <time>2015-11-19T09:09:51Z</time>
      </trkpt>
      <trkpt lat="48.05549" lon="2.78491">
        <ele>122</ele>
        <time>2015-11-19T09:09:52Z</time>
      </trkpt>
      <trkpt lat="48.0555" lon="2.78508">
        <ele>122</ele>
        <time>2015-11-19T09:09:54Z</time>
      </trkpt>
      <trkpt lat="48.0555" lon="2.78519">
        <ele>121</ele>
        <time>2015-11-19T09:09:55Z</time>
      </trkpt>
      <trkpt lat="48.0555" lon="2.78534">
        <ele>120</ele>
        <time>2015-11-19T09:09:57Z</time>
      </trkpt>
      <trkpt lat="48.05551" lon="2.78541">
        <ele>119</ele>
        <time>2015-11-19T09:09:58Z</time>
      </trkpt>
      <trkpt lat="48.05552" lon="2.78548">
        <ele>118</ele>
        <time>2015-11-19T09:09:59Z</time>
      </trkpt>
      <trkpt lat="48.05551" lon="2.78556">
        <ele>117</ele>
        <time>2015-11-19T09:10:00Z</time>
      </trkpt>
      <trkpt lat="48.0555" lon="2.78562">
        <ele>117</ele>
        <time>2015-11-19T09:10:01Z</time>
      </trkpt>
      <trkpt lat="48.0555" lon="2.78568">
        <ele>116</ele>
        <time>2015-11-19T09:10:02Z</time>
      </trkpt>
      <trkpt lat="48.05551" lon="2.78574">
        <ele>116</ele>
        <time>2015-11-19T09:10:03Z</time>
      </trkpt>
      <trkpt lat="48.05555" lon="2.78585">
        <ele>115</ele>
        <time>2015-11-19T09:10:04Z</time>
      </trkpt>
      <trkpt lat="48.05556" lon="2.78592">
        <ele>115</ele>
        <time>2015-11-19T09:10:05Z</time>
      </trkpt>
      <trkpt lat="48.05559" lon="2.786">
        <ele>115</ele>
        <time>2015-11-19T09:10:07Z</time>
      </trkpt>
      <trkpt lat="48.05561" lon="2.78607">
        <ele>115</ele>
        <time>2015-11-19T09:10:08Z</time>
      </trkpt>
      <trkpt lat="48.05567" lon="2.78623">
        <ele>114</ele>
        <time>2015-11-19T09:10:09Z</time>
      </trkpt>
      <trkpt lat="48.05568" lon="2.7863">
        <ele>114</ele>
        <time>2015-11-19T09:10:10Z</time>
      </trkpt>
      <trkpt lat="48.05569" lon="2.7864">
        <ele>113</ele>
        <time>2015-11-19T09:10:11Z</time>
      </trkpt>
      <trkpt lat="48.0557" lon="2.78649">
        <ele>112</ele>
        <time>2015-11-19T09:10:13Z</time>
      </trkpt>
      <trkpt lat="48.05571" lon="2.78671">
        <ele>111</ele>
        <time>2015-11-19T09:10:14Z</time>
      </trkpt>
      <trkpt lat="48.05573" lon="2.78681">
        <ele>111</ele>
        <time>2015-11-19T09:10:15Z</time>
      </trkpt>
      <trkpt lat="48.05573" lon="2.78693">
        <ele>111</ele>
        <time>2015-11-19T09:10:16Z</time>
      </trkpt>
      <trkpt lat="48.05574" lon="2.78703">
        <ele>111</ele>
        <time>2015-11-19T09:10:17Z</time>
      </trkpt>
      <trkpt lat="48.05575" lon="2.78713">
        <ele>111</ele>
        <time>2015-11-19T09:10:19Z</time>
      </trkpt>
      <trkpt lat="48.05576" lon="2.78723">
        <ele>111</ele>
        <time>2015-11-19T09:10:20Z</time>
      </trkpt>
      <trkpt lat="48.05578" lon="2.78743">
        <ele>111</ele>
        <time>2015-11-19T09:10:21Z</time>
      </trkpt>
      <trkpt lat="48.05579" lon="2.78753">
        <ele>111</ele>
        <time>2015-11-19T09:10:23Z</time>
      </trkpt>
      <trkpt lat="48.0558" lon="2.78763">
        <ele>111</ele>
        <time>2015-11-19T09:10:24Z</time>
      </trkpt>
      <trkpt lat="48.05582" lon="2.78781">
        <ele>111</ele>
        <time>2015-11-19T09:10:25Z</time>
      </trkpt>
      <trkpt lat="48.05584" lon="2.7879">
        <ele>111</ele>
        <time>2015-11-19T09:10:26Z</time>
      </trkpt>
      <trkpt lat="48.05586" lon="2.788">
        <ele>111</ele>
        <time>2015-11-19T09:10:27Z</time>
      </trkpt>
      <trkpt lat="48.05587" lon="2.78809">
        <ele>111</ele>
        <time>2015-11-19T09:10:29Z</time>
      </trkpt>
      <trkpt lat="48.05591" lon="2.78826">
        <ele>110</ele>
        <time>2015-11-19T09:10:31Z</time>
      </trkpt>
      <trkpt lat="48.05592" lon="2.78835">
        <ele>109</ele>
        <time>2015-11-19T09:10:32Z</time>
      </trkpt>
      <trkpt lat="48.05593" lon="2.78846">
        <ele>108</ele>
        <time>2015-11-19T09:10:33Z</time>
      </trkpt>
      <trkpt lat="48.05595" lon="2.78856">
        <ele>107</ele>
        <time>2015-11-19T09:10:34Z</time>
      </trkpt>
      <trkpt lat="48.05596" lon="2.78865">
        <ele>106</ele>
        <time>2015-11-19T09:10:35Z</time>
      </trkpt>
      <trkpt lat="48.05598" lon="2.78874">
        <ele>105</ele>
        <time>2015-11-19T09:10:36Z</time>
      </trkpt>
      <trkpt lat="48.05597" lon="2.78883">
        <ele>104</ele>
        <time>2015-11-19T09:10:37Z</time>
      </trkpt>
      <trkpt lat="48.05596" lon="2.78906">
        <ele>102</ele>
        <time>2015-11-19T09:10:38Z</time>
      </trkpt>
      <trkpt lat="48.05597" lon="2.78923">
        <ele>101</ele>
        <time>2015-11-19T09:10:40Z</time>
      </trkpt>
      <trkpt lat="48.056" lon="2.7895">
        <ele>99</ele>
        <time>2015-11-19T09:10:41Z</time>
      </trkpt>
      <trkpt lat="48.05601" lon="2.78961">
        <ele>98</ele>
        <time>2015-11-19T09:10:42Z</time>
      </trkpt>
      <trkpt lat="48.05602" lon="2.78972">
        <ele>97</ele>
        <time>2015-11-19T09:10:43Z</time>
      </trkpt>
      <trkpt lat="48.05603" lon="2.78982">
        <ele>96</ele>
        <time>2015-11-19T09:10:45Z</time>
      </trkpt>
      <trkpt lat="48.05604" lon="2.78994">
        <ele>94</ele>
        <time>2015-11-19T09:10:46Z</time>
      </trkpt>
      <trkpt lat="48.05605" lon="2.79">
        <ele>93</ele>
        <time>2015-11-19T09:10:48Z</time>
      </trkpt>
      <trkpt lat="48.05604" lon="2.79013">
        <ele>92</ele>
        <time>2015-11-19T09:10:50Z</time>
      </trkpt>
      <trkpt lat="48.056" lon="2.79027">
        <ele>92</ele>
        <time>2015-11-19T09:10:51Z</time>
      </trkpt>
      <trkpt lat="48.05599" lon="2.79033">
        <ele>92</ele>
        <time>2015-11-19T09:10:52Z</time>
      </trkpt>
      <trkpt lat="48.05596" lon="2.79037">
        <ele>92</ele>
        <time>2015-11-19T09:10:53Z</time>
      </trkpt>
      <trkpt lat="48.05593" lon="2.79042">
        <ele>92</ele>
        <time>2015-11-19T09:10:54Z</time>
      </trkpt>
      <trkpt lat="48.05589" lon="2.79047">
        <ele>92</ele>
        <time>2015-11-19T09:10:56Z</time>
      </trkpt>
      <trkpt lat="48.05582" lon="2.79053">
        <ele>92</ele>
        <time>2015-11-19T09:10:57Z</time>
      </trkpt>
      <trkpt lat="48.05579" lon="2.79058">
        <ele>92</ele>
        <time>2015-11-19T09:10:58Z</time>
      </trkpt>
      <trkpt lat="48.05576" lon="2.79062">
        <ele>92</ele>
        <time>2015-11-19T09:10:59Z</time>
      </trkpt>
      <trkpt lat="48.05573" lon="2.79066">
        <ele>92</ele>
        <time>2015-11-19T09:11:01Z</time>
      </trkpt>
      <trkpt lat="48.05566" lon="2.79073">
        <ele>92</ele>
        <time>2015-11-19T09:11:02Z</time>
      </trkpt>
      <trkpt lat="48.05561" lon="2.79076">
        <ele>92</ele>
        <time>2015-11-19T09:11:03Z</time>
      </trkpt>
      <trkpt lat="48.05556" lon="2.79079">
        <ele>92</ele>
        <time>2015-11-19T09:11:04Z</time>
      </trkpt>
      <trkpt lat="48.05551" lon="2.79082">
        <ele>93</ele>
        <time>2015-11-19T09:11:06Z</time>
      </trkpt>
      <trkpt lat="48.05542" lon="2.7909">
        <ele>95</ele>
        <time>2015-11-19T09:11:07Z</time>
      </trkpt>
      <trkpt lat="48.05537" lon="2.79094">
        <ele>96</ele>
        <time>2015-11-19T09:11:08Z</time>
      </trkpt>
      <trkpt lat="48.05534" lon="2.79097">
        <ele>96</ele>
        <time>2015-11-19T09:11:09Z</time>
      </trkpt>
      <trkpt lat="48.0553" lon="2.791">
        <ele>97</ele>
        <time>2015-11-19T09:11:11Z</time>
      </trkpt>
      <trkpt lat="48.05522" lon="2.79106">
        <ele>98</ele>
        <time>2015-11-19T09:11:12Z</time>
      </trkpt>
      <trkpt lat="48.05519" lon="2.79109">
        <ele>99</ele>
        <time>2015-11-19T09:11:13Z</time>
      </trkpt>
      <trkpt lat="48.05515" lon="2.79111">
        <ele>99</ele>
        <time>2015-11-19T09:11:14Z</time>
      </trkpt>
      <trkpt lat="48.05511" lon="2.79113">
        <ele>99</ele>
        <time>2015-11-19T09:11:16Z</time>
      </trkpt>
      <trkpt lat="48.05504" lon="2.79115">
        <ele>99</ele>
        <time>2015-11-19T09:11:17Z</time>
      </trkpt>
      <trkpt lat="48.055" lon="2.79116">
        <ele>99</ele>
        <time>2015-11-19T09:11:18Z</time>
      </trkpt>
      <trkpt lat="48.05496" lon="2.79116">
        <ele>99</ele>
        <time>2015-11-19T09:11:19Z</time>
      </trkpt>
      <trkpt lat="48.05492" lon="2.79116">
        <ele>99</ele>
        <time>2015-11-19T09:11:21Z</time>
      </trkpt>
      <trkpt lat="48.05482" lon="2.79116">
        <ele>99</ele>
        <time>2015-11-19T09:11:22Z</time>
      </trkpt>
      <trkpt lat="48.05478" lon="2.79115">
        <ele>99</ele>
        <time>2015-11-19T09:11:23Z</time>
      </trkpt>
      <trkpt lat="48.05473" lon="2.79113">
        <ele>99</ele>
        <time>2015-11-19T09:11:24Z</time>
      </trkpt>
      <trkpt lat="48.05469" lon="2.79111">
        <ele>99</ele>
        <time>2015-11-19T09:11:26Z</time>
      </trkpt>
      <trkpt lat="48.05464" lon="2.79111">
        <ele>99</ele>
        <time>2015-11-19T09:11:27Z</time>
      </trkpt>
      <trkpt lat="48.05462" lon="2.79111">
        <ele>99</ele>
        <time>2015-11-19T09:11:28Z</time>
      </trkpt>
      <trkpt lat="48.05461" lon="2.79114">
        <ele>101</ele>
        <time>2015-11-19T09:11:31Z</time>
      </trkpt>
      <trkpt lat="48.05462" lon="2.79118">
        <ele>101</ele>
        <time>2015-11-19T09:11:32Z</time>
      </trkpt>
      <trkpt lat="48.05462" lon="2.79121">
        <ele>102</ele>
        <time>2015-11-19T09:11:33Z</time>
      </trkpt>
      <trkpt lat="48.05463" lon="2.79123">
        <ele>102</ele>
        <time>2015-11-19T09:11:35Z</time>
      </trkpt>
      <trkpt lat="48.05464" lon="2.79125">
        <ele>103</ele>
        <time>2015-11-19T09:11:36Z</time>
      </trkpt>
      <trkpt lat="48.05464" lon="2.79129">
        <ele>103</ele>
        <time>2015-11-19T09:11:37Z</time>
      </trkpt>
      <trkpt lat="48.05465" lon="2.79131">
        <ele>104</ele>
        <time>2015-11-19T09:11:38Z</time>
      </trkpt>
      <trkpt lat="48.05466" lon="2.79133">
        <ele>104</ele>
        <time>2015-11-19T09:11:39Z</time>
      </trkpt>
      <trkpt lat="48.05467" lon="2.79135">
        <ele>104</ele>
        <time>2015-11-19T09:11:41Z</time>
      </trkpt>
      <trkpt lat="48.05468" lon="2.79139">
        <ele>106</ele>
        <time>2015-11-19T09:11:42Z</time>
      </trkpt>
      <trkpt lat="48.05465" lon="2.79142">
        <ele>108</ele>
        <time>2015-11-19T09:11:44Z</time>
      </trkpt>
      <trkpt lat="48.05464" lon="2.79144">
        <ele>108</ele>
        <time>2015-11-19T09:11:46Z</time>
      </trkpt>
      <trkpt lat="48.05461" lon="2.79147">
        <ele>109</ele>
        <time>2015-11-19T09:11:48Z</time>
      </trkpt>
      <trkpt lat="48.0546" lon="2.79149">
        <ele>109</ele>
        <time>2015-11-19T09:11:49Z</time>
      </trkpt>
      <trkpt lat="48.05458" lon="2.7915">
        <ele>110</ele>
        <time>2015-11-19T09:11:51Z</time>
      </trkpt>
      <trkpt lat="48.05457" lon="2.79152">
        <ele>110</ele>
        <time>2015-11-19T09:11:52Z</time>
      </trkpt>
      <trkpt lat="48.05456" lon="2.79154">
        <ele>110</ele>
        <time>2015-11-19T09:11:53Z</time>
      </trkpt>
      <trkpt lat="48.05457" lon="2.79156">
        <ele>112</ele>
        <time>2015-11-19T09:11:56Z</time>
      </trkpt>
      <trkpt lat="48.05457" lon="2.79159">
        <ele>113</ele>
        <time>2015-11-19T09:11:57Z</time>
      </trkpt>
      <trkpt lat="48.05458" lon="2.79162">
        <ele>114</ele>
        <time>2015-11-19T09:11:59Z</time>
      </trkpt>
      <trkpt lat="48.05459" lon="2.79164">
        <ele>114</ele>
        <time>2015-11-19T09:12:01Z</time>
      </trkpt>
      <trkpt lat="48.05462" lon="2.79166">
        <ele>116</ele>
        <time>2015-11-19T09:12:02Z</time>
      </trkpt>
      <trkpt lat="48.05462" lon="2.79168">
        <ele>116</ele>
        <time>2015-11-19T09:12:03Z</time>
      </trkpt>
      <trkpt lat="48.05463" lon="2.7917">
        <ele>116</ele>
        <time>2015-11-19T09:12:04Z</time>
      </trkpt>
      <trkpt lat="48.05464" lon="2.79173">
        <ele>117</ele>
        <time>2015-11-19T09:12:06Z</time>
      </trkpt>
      <trkpt lat="48.05466" lon="2.79176">
        <ele>117</ele>
        <time>2015-11-19T09:12:07Z</time>
      </trkpt>
      <trkpt lat="48.05468" lon="2.79183">
        <ele>117</ele>
        <time>2015-11-19T09:12:08Z</time>
      </trkpt>
      <trkpt lat="48.05468" lon="2.79186">
        <ele>117</ele>
        <time>2015-11-19T09:12:09Z</time>
      </trkpt>
      <trkpt lat="48.05468" lon="2.7919">
        <ele>117</ele>
        <time>2015-11-19T09:12:10Z</time>
      </trkpt>
      <trkpt lat="48.05469" lon="2.79194">
        <ele>117</ele>
        <time>2015-11-19T09:12:12Z</time>
      </trkpt>
      <trkpt lat="48.0547" lon="2.79199">
        <ele>117</ele>
        <time>2015-11-19T09:12:13Z</time>
      </trkpt>
      <trkpt lat="48.05469" lon="2.79202">
        <ele>116</ele>
        <time>2015-11-19T09:12:14Z</time>
      </trkpt>
      <trkpt lat="48.05469" lon="2.79204">
        <ele>115</ele>
        <time>2015-11-19T09:12:15Z</time>
      </trkpt>
      <trkpt lat="48.05467" lon="2.79206">
        <ele>115</ele>
        <time>2015-11-19T09:12:16Z</time>
      </trkpt>
      <trkpt lat="48.05466" lon="2.79206">
        <ele>115</ele>
        <time>2015-11-19T09:12:17Z</time>
      </trkpt>
      <trkpt lat="48.05464" lon="2.79207">
        <ele>115</ele>
        <time>2015-11-19T09:12:18Z</time>
      </trkpt>
      <trkpt lat="48.05462" lon="2.79209">
        <ele>115</ele>
        <time>2015-11-19T09:12:19Z</time>
      </trkpt>
      <trkpt lat="48.0546" lon="2.7921">
        <ele>115</ele>
        <time>2015-11-19T09:12:20Z</time>
      </trkpt>
      <trkpt lat="48.05458" lon="2.79212">
        <ele>115</ele>
        <time>2015-11-19T09:12:22Z</time>
      </trkpt>
      <trkpt lat="48.05452" lon="2.79215">
        <ele>115</ele>
        <time>2015-11-19T09:12:23Z</time>
      </trkpt>
      <trkpt lat="48.05449" lon="2.79216">
        <ele>115</ele>
        <time>2015-11-19T09:12:24Z</time>
      </trkpt>
      <trkpt lat="48.05445" lon="2.79218">
        <ele>115</ele>
        <time>2015-11-19T09:12:25Z</time>
      </trkpt>
      <trkpt lat="48.05442" lon="2.79221">
        <ele>115</ele>
        <time>2015-11-19T09:12:27Z</time>
      </trkpt>
      <trkpt lat="48.05435" lon="2.79225">
        <ele>115</ele>
        <time>2015-11-19T09:12:28Z</time>
      </trkpt>
      <trkpt lat="48.05433" lon="2.79226">
        <ele>115</ele>
        <time>2015-11-19T09:12:29Z</time>
      </trkpt>
      <trkpt lat="48.05429" lon="2.79228">
        <ele>115</ele>
        <time>2015-11-19T09:12:30Z</time>
      </trkpt>
      <trkpt lat="48.05427" lon="2.7923">
        <ele>115</ele>
        <time>2015-11-19T09:12:32Z</time>
      </trkpt>
      <trkpt lat="48.05422" lon="2.79233">
        <ele>115</ele>
        <time>2015-11-19T09:12:33Z</time>
      </trkpt>
      <trkpt lat="48.0542" lon="2.79234">
        <ele>115</ele>
        <time>2015-11-19T09:12:34Z</time>
      </trkpt>
      <trkpt lat="48.05417" lon="2.79235">
        <ele>115</ele>
        <time>2015-11-19T09:12:35Z</time>
      </trkpt>
      <trkpt lat="48.05415" lon="2.79237">
        <ele>115</ele>
        <time>2015-11-19T09:12:37Z</time>
      </trkpt>
      <trkpt lat="48.05409" lon="2.79241">
        <ele>115</ele>
        <time>2015-11-19T09:12:38Z</time>
      </trkpt>
      <trkpt lat="48.05407" lon="2.79243">
        <ele>115</ele>
        <time>2015-11-19T09:12:39Z</time>
      </trkpt>
      <trkpt lat="48.05404" lon="2.79244">
        <ele>115</ele>
        <time>2015-11-19T09:12:40Z</time>
      </trkpt>
      <trkpt lat="48.05401" lon="2.79245">
        <ele>115</ele>
        <time>2015-11-19T09:12:42Z</time>
      </trkpt>
      <trkpt lat="48.05398" lon="2.79246">
        <ele>115</ele>
        <time>2015-11-19T09:12:43Z</time>
      </trkpt>
      <trkpt lat="48.05395" lon="2.79248">
        <ele>115</ele>
        <time>2015-11-19T09:12:44Z</time>
      </trkpt>
      <trkpt lat="48.05393" lon="2.79248">
        <ele>115</ele>
        <time>2015-11-19T09:12:45Z</time>
      </trkpt>
      <trkpt lat="48.05391" lon="2.79249">
        <ele>115</ele>
        <time>2015-11-19T09:12:46Z</time>
      </trkpt>
      <trkpt lat="48.05389" lon="2.79251">
        <ele>115</ele>
        <time>2015-11-19T09:12:47Z</time>
      </trkpt>
      <trkpt lat="48.05384" lon="2.79255">
        <ele>115</ele>
        <time>2015-11-19T09:12:48Z</time>
      </trkpt>
      <trkpt lat="48.05382" lon="2.79256">
        <ele>115</ele>
        <time>2015-11-19T09:12:49Z</time>
      </trkpt>
      <trkpt lat="48.05378" lon="2.79257">
        <ele>115</ele>
        <time>2015-11-19T09:12:50Z</time>
      </trkpt>
      <trkpt lat="48.05376" lon="2.79258">
        <ele>115</ele>
        <time>2015-11-19T09:12:51Z</time>
      </trkpt>
      <trkpt lat="48.05373" lon="2.79259">
        <ele>115</ele>
        <time>2015-11-19T09:12:53Z</time>
      </trkpt>
      <trkpt lat="48.05366" lon="2.79261">
        <ele>115</ele>
        <time>2015-11-19T09:12:54Z</time>
      </trkpt>
      <trkpt lat="48.05362" lon="2.79263">
        <ele>115</ele>
        <time>2015-11-19T09:12:55Z</time>
      </trkpt>
      <trkpt lat="48.0536" lon="2.79264">
        <ele>115</ele>
        <time>2015-11-19T09:12:56Z</time>
      </trkpt>
      <trkpt lat="48.05357" lon="2.79266">
        <ele>115</ele>
        <time>2015-11-19T09:12:58Z</time>
      </trkpt>
      <trkpt lat="48.05352" lon="2.79269">
        <ele>115</ele>
        <time>2015-11-19T09:12:59Z</time>
      </trkpt>
      <trkpt lat="48.05349" lon="2.7927">
        <ele>115</ele>
        <time>2015-11-19T09:13:00Z</time>
      </trkpt>
      <trkpt lat="48.05346" lon="2.79271">
        <ele>115</ele>
        <time>2015-11-19T09:13:01Z</time>
      </trkpt>
      <trkpt lat="48.05343" lon="2.79272">
        <ele>115</ele>
        <time>2015-11-19T09:13:03Z</time>
      </trkpt>
      <trkpt lat="48.05336" lon="2.79275">
        <ele>115</ele>
        <time>2015-11-19T09:13:04Z</time>
      </trkpt>
      <trkpt lat="48.05333" lon="2.79277">
        <ele>115</ele>
        <time>2015-11-19T09:13:05Z</time>
      </trkpt>
      <trkpt lat="48.05329" lon="2.79279">
        <ele>115</ele>
        <time>2015-11-19T09:13:06Z</time>
      </trkpt>
      <trkpt lat="48.05326" lon="2.79281">
        <ele>115</ele>
        <time>2015-11-19T09:13:08Z</time>
      </trkpt>
      <trkpt lat="48.0532" lon="2.79284">
        <ele>115</ele>
        <time>2015-11-19T09:13:09Z</time>
      </trkpt>
      <trkpt lat="48.05317" lon="2.79286">
        <ele>115</ele>
        <time>2015-11-19T09:13:10Z</time>
      </trkpt>
      <trkpt lat="48.05314" lon="2.79287">
        <ele>115</ele>
        <time>2015-11-19T09:13:11Z</time>
      </trkpt>
      <trkpt lat="48.05311" lon="2.79288">
        <ele>115</ele>
        <time>2015-11-19T09:13:13Z</time>
      </trkpt>
      <trkpt lat="48.05305" lon="2.79291">
        <ele>115</ele>
        <time>2015-11-19T09:13:14Z</time>
      </trkpt>
      <trkpt lat="48.05302" lon="2.79293">
        <ele>115</ele>
        <time>2015-11-19T09:13:15Z</time>
      </trkpt>
      <trkpt lat="48.05299" lon="2.79295">
        <ele>115</ele>
        <time>2015-11-19T09:13:16Z</time>
      </trkpt>
      <trkpt lat="48.05296" lon="2.79297">
        <ele>115</ele>
        <time>2015-11-19T09:13:18Z</time>
      </trkpt>
      <trkpt lat="48.05288" lon="2.79296">
        <ele>115</ele>
        <time>2015-11-19T09:13:19Z</time>
      </trkpt>
      <trkpt lat="48.05285" lon="2.79298">
        <ele>115</ele>
        <time>2015-11-19T09:13:20Z</time>
      </trkpt>
      <trkpt lat="48.05283" lon="2.79299">
        <ele>115</ele>
        <time>2015-11-19T09:13:21Z</time>
      </trkpt>
      <trkpt lat="48.0528" lon="2.79301">
        <ele>115</ele>
        <time>2015-11-19T09:13:23Z</time>
      </trkpt>
      <trkpt lat="48.05273" lon="2.79306">
        <ele>115</ele>
        <time>2015-11-19T09:13:24Z</time>
      </trkpt>
      <trkpt lat="48.0527" lon="2.79308">
        <ele>115</ele>
        <time>2015-11-19T09:13:25Z</time>
      </trkpt>
      <trkpt lat="48.05267" lon="2.7931">
        <ele>115</ele>
        <time>2015-11-19T09:13:26Z</time>
      </trkpt>
      <trkpt lat="48.05265" lon="2.79312">
        <ele>115</ele>
        <time>2015-11-19T09:13:28Z</time>
      </trkpt>
      <trkpt lat="48.05257" lon="2.79315">
        <ele>115</ele>
        <time>2015-11-19T09:13:29Z</time>
      </trkpt>
      <trkpt lat="48.05255" lon="2.79317">
        <ele>115</ele>
        <time>2015-11-19T09:13:30Z</time>
      </trkpt>
      <trkpt lat="48.05251" lon="2.7932">
        <ele>115</ele>
        <time>2015-11-19T09:13:31Z</time>
      </trkpt>
      <trkpt lat="48.05249" lon="2.79321">
        <ele>114</ele>
        <time>2015-11-19T09:13:32Z</time>
      </trkpt>
      <trkpt lat="48.05245" lon="2.79322">
        <ele>113</ele>
        <time>2015-11-19T09:13:33Z</time>
      </trkpt>
      <trkpt lat="48.05241" lon="2.79323">
        <ele>113</ele>
        <time>2015-11-19T09:13:34Z</time>
      </trkpt>
      <trkpt lat="48.05238" lon="2.79325">
        <ele>112</ele>
        <time>2015-11-19T09:13:35Z</time>
      </trkpt>
      <trkpt lat="48.05235" lon="2.79327">
        <ele>111</ele>
        <time>2015-11-19T09:13:36Z</time>
      </trkpt>
      <trkpt lat="48.05233" lon="2.79328">
        <ele>110</ele>
        <time>2015-11-19T09:13:38Z</time>
      </trkpt>
      <trkpt lat="48.05226" lon="2.79333">
        <ele>109</ele>
        <time>2015-11-19T09:13:39Z</time>
      </trkpt>
      <trkpt lat="48.05222" lon="2.79335">
        <ele>108</ele>
        <time>2015-11-19T09:13:40Z</time>
      </trkpt>
      <trkpt lat="48.05219" lon="2.79337">
        <ele>108</ele>
        <time>2015-11-19T09:13:41Z</time>
      </trkpt>
      <trkpt lat="48.05217" lon="2.7934">
        <ele>108</ele>
        <time>2015-11-19T09:13:43Z</time>
      </trkpt>
      <trkpt lat="48.05212" lon="2.79343">
        <ele>107</ele>
        <time>2015-11-19T09:13:44Z</time>
      </trkpt>
      <trkpt lat="48.05209" lon="2.79345">
        <ele>107</ele>
        <time>2015-11-19T09:13:45Z</time>
      </trkpt>
      <trkpt lat="48.05206" lon="2.79347">
        <ele>107</ele>
        <time>2015-11-19T09:13:46Z</time>
      </trkpt>
      <trkpt lat="48.05203" lon="2.79349">
        <ele>107</ele>
        <time>2015-11-19T09:13:48Z</time>
      </trkpt>
      <trkpt lat="48.05197" lon="2.79353">
        <ele>106</ele>
        <time>2015-11-19T09:13:49Z</time>
      </trkpt>
      <trkpt lat="48.05194" lon="2.79355">
        <ele>106</ele>
        <time>2015-11-19T09:13:50Z</time>
      </trkpt>
      <trkpt lat="48.05191" lon="2.79358">
        <ele>106</ele>
        <time>2015-11-19T09:13:51Z</time>
      </trkpt>
      <trkpt lat="48.05187" lon="2.79358">
        <ele>106</ele>
        <time>2015-11-19T09:13:52Z</time>
      </trkpt>
      <trkpt lat="48.05183" lon="2.79357">
        <ele>106</ele>
        <time>2015-11-19T09:13:53Z</time>
      </trkpt>
      <trkpt lat="48.05179" lon="2.79355">
        <ele>106</ele>
        <time>2015-11-19T09:13:54Z</time>
      </trkpt>
      <trkpt lat="48.05175" lon="2.79353">
        <ele>106</ele>
        <time>2015-11-19T09:13:55Z</time>
      </trkpt>
      <trkpt lat="48.0517" lon="2.79351">
        <ele>106</ele>
        <time>2015-11-19T09:13:56Z</time>
      </trkpt>
      <trkpt lat="48.05166" lon="2.79349">
        <ele>106</ele>
        <time>2015-11-19T09:13:58Z</time>
      </trkpt>
      <trkpt lat="48.0516" lon="2.79348">
        <ele>106</ele>
        <time>2015-11-19T09:13:59Z</time>
      </trkpt>
      <trkpt lat="48.05159" lon="2.79348">
        <ele>106</ele>
        <time>2015-11-19T09:14:01Z</time>
      </trkpt>
      <trkpt lat="48.0517" lon="2.79348">
        <ele>110</ele>
        <time>2015-11-19T09:14:05Z</time>
      </trkpt>
      <trkpt lat="48.05171" lon="2.79349">
        <ele>110</ele>
        <time>2015-11-19T09:14:06Z</time>
      </trkpt>
      <trkpt lat="48.05173" lon="2.79351">
        <ele>110</ele>
        <time>2015-11-19T09:14:08Z</time>
      </trkpt>
      <trkpt lat="48.05174" lon="2.79352">
        <ele>110</ele>
        <time>2015-11-19T09:14:10Z</time>
      </trkpt>
      <trkpt lat="48.05165" lon="2.79357">
        <ele>110</ele>
        <time>2015-11-19T09:14:11Z</time>
      </trkpt>
      <trkpt lat="48.05164" lon="2.79358">
        <ele>110</ele>
        <time>2015-11-19T09:14:12Z</time>
      </trkpt>
      <trkpt lat="48.05163" lon="2.79359">
        <ele>110</ele>
        <time>2015-11-19T09:14:13Z</time>
      </trkpt>
      <trkpt lat="48.05161" lon="2.79359">
        <ele>110</ele>
        <time>2015-11-19T09:14:14Z</time>
      </trkpt>
      <trkpt lat="48.05159" lon="2.79359">
        <ele>110</ele>
        <time>2015-11-19T09:14:15Z</time>
      </trkpt>
      <trkpt lat="48.05156" lon="2.79357">
        <ele>109</ele>
        <time>2015-11-19T09:14:16Z</time>
      </trkpt>
      <trkpt lat="48.05154" lon="2.79357">
        <ele>108</ele>
        <time>2015-11-19T09:14:17Z</time>
      </trkpt>
      <trkpt lat="48.05151" lon="2.79355">
        <ele>107</ele>
        <time>2015-11-19T09:14:18Z</time>
      </trkpt>
      <trkpt lat="48.05146" lon="2.79355">
        <ele>106</ele>
        <time>2015-11-19T09:14:19Z</time>
      </trkpt>
      <trkpt lat="48.05143" lon="2.79355">
        <ele>105</ele>
        <time>2015-11-19T09:14:20Z</time>
      </trkpt>
      <trkpt lat="48.05142" lon="2.79354">
        <ele>104</ele>
        <time>2015-11-19T09:14:21Z</time>
      </trkpt>
      <trkpt lat="48.05142" lon="2.7935">
        <ele>103</ele>
        <time>2015-11-19T09:14:22Z</time>
      </trkpt>
      <trkpt lat="48.05142" lon="2.79348">
        <ele>102</ele>
        <time>2015-11-19T09:14:23Z</time>
      </trkpt>
      <trkpt lat="48.05143" lon="2.79346">
        <ele>101</ele>
        <time>2015-11-19T09:14:24Z</time>
      </trkpt>
      <trkpt lat="48.05145" lon="2.79344">
        <ele>101</ele>
        <time>2015-11-19T09:14:25Z</time>
      </trkpt>
      <trkpt lat="48.05146" lon="2.79343">
        <ele>100</ele>
        <time>2015-11-19T09:14:26Z</time>
      </trkpt>
      <trkpt lat="48.05147" lon="2.79341">
        <ele>100</ele>
        <time>2015-11-19T09:14:27Z</time>
      </trkpt>
      <trkpt lat="48.05148" lon="2.79339">
        <ele>100</ele>
        <time>2015-11-19T09:14:28Z</time>
      </trkpt>
      <trkpt lat="48.05148" lon="2.79336">
        <ele>100</ele>
        <time>2015-11-19T09:14:29Z</time>
      </trkpt>
      <trkpt lat="48.05148" lon="2.79334">
        <ele>100</ele>
        <time>2015-11-19T09:14:31Z</time>
      </trkpt>
      <trkpt lat="48.0515" lon="2.79331">
        <ele>100</ele>
        <time>2015-11-19T09:14:32Z</time>
      </trkpt>
      <trkpt lat="48.05152" lon="2.79329">
        <ele>100</ele>
        <time>2015-11-19T09:14:33Z</time>
      </trkpt>
      <trkpt lat="48.05154" lon="2.79328">
        <ele>100</ele>
        <time>2015-11-19T09:14:34Z</time>
      </trkpt>
      <trkpt lat="48.05157" lon="2.79327">
        <ele>100</ele>
        <time>2015-11-19T09:14:35Z</time>
      </trkpt>
      <trkpt lat="48.0516" lon="2.79325">
        <ele>100</ele>
        <time>2015-11-19T09:14:36Z</time>
      </trkpt>
      <trkpt lat="48.05162" lon="2.79323">
        <ele>100</ele>
        <time>2015-11-19T09:14:37Z</time>
      </trkpt>
      <trkpt lat="48.05165" lon="2.79321">
        <ele>100</ele>
        <time>2015-11-19T09:14:38Z</time>
      </trkpt>
      <trkpt lat="48.05167" lon="2.79318">
        <ele>100</ele>
        <time>2015-11-19T09:14:39Z</time>
      </trkpt>
      <trkpt lat="48.0517" lon="2.79316">
        <ele>100</ele>
        <time>2015-11-19T09:14:40Z</time>
      </trkpt>
      <trkpt lat="48.05172" lon="2.79313">
        <ele>100</ele>
        <time>2015-11-19T09:14:41Z</time>
      </trkpt>
      <trkpt lat="48.05174" lon="2.79311">
        <ele>100</ele>
        <time>2015-11-19T09:14:42Z</time>
      </trkpt>
      <trkpt lat="48.05176" lon="2.79309">
        <ele>101</ele>
        <time>2015-11-19T09:14:43Z</time>
      </trkpt>
      <trkpt lat="48.05178" lon="2.79306">
        <ele>101</ele>
        <time>2015-11-19T09:14:44Z</time>
      </trkpt>
      <trkpt lat="48.05181" lon="2.79304">
        <ele>102</ele>
        <time>2015-11-19T09:14:45Z</time>
      </trkpt>
      <trkpt lat="48.05184" lon="2.79302">
        <ele>103</ele>
        <time>2015-11-19T09:14:46Z</time>
      </trkpt>
      <trkpt lat="48.05186" lon="2.793">
        <ele>103</ele>
        <time>2015-11-19T09:14:47Z</time>
      </trkpt>
      <trkpt lat="48.05188" lon="2.79299">
        <ele>103</ele>
        <time>2015-11-19T09:14:48Z</time>
      </trkpt>
      <trkpt lat="48.05191" lon="2.79297">
        <ele>104</ele>
        <time>2015-11-19T09:14:49Z</time>
      </trkpt>
      <trkpt lat="48.05194" lon="2.79295">
        <ele>104</ele>
        <time>2015-11-19T09:14:50Z</time>
      </trkpt>
      <trkpt lat="48.05197" lon="2.79292">
        <ele>104</ele>
        <time>2015-11-19T09:14:51Z</time>
      </trkpt>
      <trkpt lat="48.05199" lon="2.79291">
        <ele>105</ele>
        <time>2015-11-19T09:14:52Z</time>
      </trkpt>
      <trkpt lat="48.05202" lon="2.79289">
        <ele>105</ele>
        <time>2015-11-19T09:14:53Z</time>
      </trkpt>
      <trkpt lat="48.05205" lon="2.79287">
        <ele>106</ele>
        <time>2015-11-19T09:14:54Z</time>
      </trkpt>
      <trkpt lat="48.05207" lon="2.79285">
        <ele>107</ele>
        <time>2015-11-19T09:14:55Z</time>
      </trkpt>
      <trkpt lat="48.0521" lon="2.79282">
        <ele>107</ele>
        <time>2015-11-19T09:14:56Z</time>
      </trkpt>
      <trkpt lat="48.05214" lon="2.79281">
        <ele>108</ele>
        <time>2015-11-19T09:14:57Z</time>
      </trkpt>
      <trkpt lat="48.05216" lon="2.79279">
        <ele>109</ele>
        <time>2015-11-19T09:14:58Z</time>
      </trkpt>
      <trkpt lat="48.05219" lon="2.79278">
        <ele>109</ele>
        <time>2015-11-19T09:14:59Z</time>
      </trkpt>
      <trkpt lat="48.05221" lon="2.79277">
        <ele>110</ele>
        <time>2015-11-19T09:15:00Z</time>
      </trkpt>
      <trkpt lat="48.05223" lon="2.79277">
        <ele>110</ele>
        <time>2015-11-19T09:15:01Z</time>
      </trkpt>
      <trkpt lat="48.05224" lon="2.79276">
        <ele>110</ele>
        <time>2015-11-19T09:15:02Z</time>
      </trkpt>
      <trkpt lat="48.05226" lon="2.79275">
        <ele>110</ele>
        <time>2015-11-19T09:15:03Z</time>
      </trkpt>
      <trkpt lat="48.05229" lon="2.79273">
        <ele>110</ele>
        <time>2015-11-19T09:15:04Z</time>
      </trkpt>
      <trkpt lat="48.05233" lon="2.79272">
        <ele>110</ele>
        <time>2015-11-19T09:15:05Z</time>
      </trkpt>
      <trkpt lat="48.05235" lon="2.7927">
        <ele>110</ele>
        <time>2015-11-19T09:15:06Z</time>
      </trkpt>
      <trkpt lat="48.05238" lon="2.79268">
        <ele>110</ele>
        <time>2015-11-19T09:15:07Z</time>
      </trkpt>
      <trkpt lat="48.0524" lon="2.79266">
        <ele>110</ele>
        <time>2015-11-19T09:15:08Z</time>
      </trkpt>
      <trkpt lat="48.05242" lon="2.79264">
        <ele>110</ele>
        <time>2015-11-19T09:15:09Z</time>
      </trkpt>
      <trkpt lat="48.05245" lon="2.79263">
        <ele>110</ele>
        <time>2015-11-19T09:15:10Z</time>
      </trkpt>
      <trkpt lat="48.05248" lon="2.7926">
        <ele>110</ele>
        <time>2015-11-19T09:15:11Z</time>
      </trkpt>
      <trkpt lat="48.05252" lon="2.79259">
        <ele>110</ele>
        <time>2015-11-19T09:15:12Z</time>
      </trkpt>
      <trkpt lat="48.05254" lon="2.79257">
        <ele>110</ele>
        <time>2015-11-19T09:15:13Z</time>
      </trkpt>
      <trkpt lat="48.05257" lon="2.79257">
        <ele>110</ele>
        <time>2015-11-19T09:15:14Z</time>
      </trkpt>
      <trkpt lat="48.05259" lon="2.79256">
        <ele>110</ele>
        <time>2015-11-19T09:15:15Z</time>
      </trkpt>
      <trkpt lat="48.05261" lon="2.79256">
        <ele>110</ele>
        <time>2015-11-19T09:15:16Z</time>
      </trkpt>
      <trkpt lat="48.05263" lon="2.79255">
        <ele>110</ele>
        <time>2015-11-19T09:15:17Z</time>
      </trkpt>
      <trkpt lat="48.05265" lon="2.79254">
        <ele>110</ele>
        <time>2015-11-19T09:15:18Z</time>
      </trkpt>
      <trkpt lat="48.05268" lon="2.79253">
        <ele>110</ele>
        <time>2015-11-19T09:15:19Z</time>
      </trkpt>
      <trkpt lat="48.05271" lon="2.79252">
        <ele>110</ele>
        <time>2015-11-19T09:15:20Z</time>
      </trkpt>
      <trkpt lat="48.05273" lon="2.79251">
        <ele>110</ele>
        <time>2015-11-19T09:15:21Z</time>
      </trkpt>
      <trkpt lat="48.05275" lon="2.79249">
        <ele>110</ele>
        <time>2015-11-19T09:15:22Z</time>
      </trkpt>
      <trkpt lat="48.05278" lon="2.79247">
        <ele>110</ele>
        <time>2015-11-19T09:15:23Z</time>
      </trkpt>
      <trkpt lat="48.05281" lon="2.79245">
        <ele>110</ele>
        <time>2015-11-19T09:15:24Z</time>
      </trkpt>
      <trkpt lat="48.05283" lon="2.79244">
        <ele>110</ele>
        <time>2015-11-19T09:15:25Z</time>
      </trkpt>
      <trkpt lat="48.05286" lon="2.79244">
        <ele>110</ele>
        <time>2015-11-19T09:15:26Z</time>
      </trkpt>
      <trkpt lat="48.05288" lon="2.79244">
        <ele>110</ele>
        <time>2015-11-19T09:15:27Z</time>
      </trkpt>
      <trkpt lat="48.0529" lon="2.79243">
        <ele>110</ele>
        <time>2015-11-19T09:15:28Z</time>
      </trkpt>
      <trkpt lat="48.05293" lon="2.79241">
        <ele>110</ele>
        <time>2015-11-19T09:15:29Z</time>
      </trkpt>
      <trkpt lat="48.05295" lon="2.79239">
        <ele>110</ele>
        <time>2015-11-19T09:15:30Z</time>
      </trkpt>
      <trkpt lat="48.05298" lon="2.79237">
        <ele>110</ele>
        <time>2015-11-19T09:15:31Z</time>
      </trkpt>
      <trkpt lat="48.053" lon="2.79236">
        <ele>110</ele>
        <time>2015-11-19T09:15:32Z</time>
      </trkpt>
      <trkpt lat="48.05302" lon="2.79234">
        <ele>110</ele>
        <time>2015-11-19T09:15:34Z</time>
      </trkpt>
      <trkpt lat="48.05305" lon="2.79233">
        <ele>110</ele>
        <time>2015-11-19T09:15:35Z</time>
      </trkpt>
      <trkpt lat="48.05307" lon="2.79232">
        <ele>110</ele>
        <time>2015-11-19T09:15:36Z</time>
      </trkpt>
      <trkpt lat="48.0531" lon="2.79232">
        <ele>110</ele>
        <time>2015-11-19T09:15:37Z</time>
      </trkpt>
      <trkpt lat="48.05312" lon="2.79232">
        <ele>110</ele>
        <time>2015-11-19T09:15:38Z</time>
      </trkpt>
      <trkpt lat="48.05313" lon="2.79232">
        <ele>110</ele>
        <time>2015-11-19T09:15:39Z</time>
      </trkpt>
      <trkpt lat="48.05314" lon="2.79232">
        <ele>110</ele>
        <time>2015-11-19T09:15:40Z</time>
      </trkpt>
      <trkpt lat="48.05318" lon="2.79234">
        <ele>110</ele>
        <time>2015-11-19T09:15:42Z</time>
      </trkpt>
      <trkpt lat="48.05321" lon="2.79235">
        <ele>110</ele>
        <time>2015-11-19T09:15:43Z</time>
      </trkpt>
      <trkpt lat="48.05323" lon="2.79235">
        <ele>110</ele>
        <time>2015-11-19T09:15:44Z</time>
      </trkpt>
      <trkpt lat="48.05324" lon="2.79235">
        <ele>110</ele>
        <time>2015-11-19T09:15:46Z</time>
      </trkpt>
      <trkpt lat="48.05327" lon="2.79234">
        <ele>110</ele>
        <time>2015-11-19T09:15:48Z</time>
      </trkpt>
      <trkpt lat="48.05328" lon="2.79232">
        <ele>110</ele>
        <time>2015-11-19T09:15:49Z</time>
      </trkpt>
      <trkpt lat="48.05327" lon="2.7923">
        <ele>110</ele>
        <time>2015-11-19T09:15:51Z</time>
      </trkpt>
      <trkpt lat="48.05326" lon="2.79225">
        <ele>102</ele>
        <time>2015-11-19T09:15:57Z</time>
      </trkpt>
      <trkpt lat="48.05327" lon="2.79225">
        <ele>102</ele>
        <time>2015-11-19T09:15:58Z</time>
      </trkpt>
      <trkpt lat="48.05329" lon="2.79222">
        <ele>102</ele>
        <time>2015-11-19T09:16:00Z</time>
      </trkpt>
      <trkpt lat="48.05331" lon="2.7922">
        <ele>101</ele>
        <time>2015-11-19T09:16:01Z</time>
      </trkpt>
      <trkpt lat="48.05334" lon="2.79217">
        <ele>101</ele>
        <time>2015-11-19T09:16:02Z</time>
      </trkpt>
      <trkpt lat="48.05336" lon="2.79214">
        <ele>101</ele>
        <time>2015-11-19T09:16:03Z</time>
      </trkpt>
      <trkpt lat="48.05339" lon="2.79212">
        <ele>100</ele>
        <time>2015-11-19T09:16:04Z</time>
      </trkpt>
      <trkpt lat="48.05342" lon="2.79208">
        <ele>100</ele>
        <time>2015-11-19T09:16:05Z</time>
      </trkpt>
      <trkpt lat="48.05343" lon="2.79205">
        <ele>100</ele>
        <time>2015-11-19T09:16:06Z</time>
      </trkpt>
      <trkpt lat="48.05344" lon="2.79204">
        <ele>100</ele>
        <time>2015-11-19T09:16:07Z</time>
      </trkpt>
      <trkpt lat="48.05345" lon="2.79203">
        <ele>100</ele>
        <time>2015-11-19T09:16:08Z</time>
      </trkpt>
      <trkpt lat="48.05344" lon="2.79203">
        <ele>100</ele>
        <time>2015-11-19T09:16:11Z</time>
      </trkpt>
      <trkpt lat="48.05342" lon="2.79202">
        <ele>100</ele>
        <time>2015-11-19T09:16:12Z</time>
      </trkpt>
      <trkpt lat="48.05341" lon="2.792">
        <ele>100</ele>
        <time>2015-11-19T09:16:13Z</time>
      </trkpt>
      <trkpt lat="48.05341" lon="2.79197">
        <ele>100</ele>
        <time>2015-11-19T09:16:14Z</time>
      </trkpt>
      <trkpt lat="48.0534" lon="2.79194">
        <ele>100</ele>
        <time>2015-11-19T09:16:15Z</time>
      </trkpt>
      <trkpt lat="48.05341" lon="2.79191">
        <ele>100</ele>
        <time>2015-11-19T09:16:16Z</time>
      </trkpt>
      <trkpt lat="48.05342" lon="2.79189">
        <ele>100</ele>
        <time>2015-11-19T09:16:17Z</time>
      </trkpt>
      <trkpt lat="48.05344" lon="2.79187">
        <ele>100</ele>
        <time>2015-11-19T09:16:18Z</time>
      </trkpt>
      <trkpt lat="48.05345" lon="2.79186">
        <ele>100</ele>
        <time>2015-11-19T09:16:19Z</time>
      </trkpt>
      <trkpt lat="48.05346" lon="2.79184">
        <ele>100</ele>
        <time>2015-11-19T09:16:20Z</time>
      </trkpt>
      <trkpt lat="48.05348" lon="2.79183">
        <ele>100</ele>
        <time>2015-11-19T09:16:21Z</time>
      </trkpt>
      <trkpt lat="48.0535" lon="2.79182">
        <ele>100</ele>
        <time>2015-11-19T09:16:22Z</time>
      </trkpt>
      <trkpt lat="48.05353" lon="2.79183">
        <ele>100</ele>
        <time>2015-11-19T09:16:24Z</time>
      </trkpt>
      <trkpt lat="48.05354" lon="2.79185">
        <ele>100</ele>
        <time>2015-11-19T09:16:25Z</time>
      </trkpt>
      <trkpt lat="48.05355" lon="2.79186">
        <ele>100</ele>
        <time>2015-11-19T09:16:26Z</time>
      </trkpt>
      <trkpt lat="48.05356" lon="2.79184">
        <ele>100</ele>
        <time>2015-11-19T09:16:28Z</time>
      </trkpt>
      <trkpt lat="48.05357" lon="2.79181">
        <ele>100</ele>
        <time>2015-11-19T09:16:29Z</time>
      </trkpt>
      <trkpt lat="48.0536" lon="2.79177">
        <ele>100</ele>
        <time>2015-11-19T09:16:30Z</time>
      </trkpt>
      <trkpt lat="48.05362" lon="2.79171">
        <ele>99</ele>
        <time>2015-11-19T09:16:31Z</time>
      </trkpt>
      <trkpt lat="48.05364" lon="2.79165">
        <ele>98</ele>
        <time>2015-11-19T09:16:32Z</time>
      </trkpt>
      <trkpt lat="48.05364" lon="2.79159">
        <ele>97</ele>
        <time>2015-11-19T09:16:33Z</time>
      </trkpt>
      <trkpt lat="48.05365" lon="2.79152">
        <ele>96</ele>
        <time>2015-11-19T09:16:34Z</time>
      </trkpt>
      <trkpt lat="48.05366" lon="2.79144">
        <ele>95</ele>
        <time>2015-11-19T09:16:35Z</time>
      </trkpt>
      <trkpt lat="48.05367" lon="2.79137">
        <ele>94</ele>
        <time>2015-11-19T09:16:36Z</time>
      </trkpt>
      <trkpt lat="48.05367" lon="2.79127">
        <ele>93</ele>
        <time>2015-11-19T09:16:37Z</time>
      </trkpt>
      <trkpt lat="48.05368" lon="2.79124">
        <ele>93</ele>
        <time>2015-11-19T09:16:38Z</time>
      </trkpt>
      <trkpt lat="48.05371" lon="2.79124">
        <ele>93</ele>
        <time>2015-11-19T09:16:39Z</time>
      </trkpt>
      <trkpt lat="48.05374" lon="2.79123">
        <ele>93</ele>
        <time>2015-11-19T09:16:40Z</time>
      </trkpt>
      <trkpt lat="48.05378" lon="2.79122">
        <ele>93</ele>
        <time>2015-11-19T09:16:41Z</time>
      </trkpt>
      <trkpt lat="48.05381" lon="2.79121">
        <ele>93</ele>
        <time>2015-11-19T09:16:42Z</time>
      </trkpt>
      <trkpt lat="48.05384" lon="2.7912">
        <ele>93</ele>
        <time>2015-11-19T09:16:43Z</time>
      </trkpt>
      <trkpt lat="48.05387" lon="2.79119">
        <ele>93</ele>
        <time>2015-11-19T09:16:44Z</time>
      </trkpt>
      <trkpt lat="48.0539" lon="2.79118">
        <ele>93</ele>
        <time>2015-11-19T09:16:45Z</time>
      </trkpt>
      <trkpt lat="48.0539" lon="2.79117">
        <ele>93</ele>
        <time>2015-11-19T09:16:46Z</time>
      </trkpt>
      <trkpt lat="48.05388" lon="2.79117">
        <ele>91</ele>
        <time>2015-11-19T09:16:48Z</time>
      </trkpt>
      <trkpt lat="48.05385" lon="2.79116">
        <ele>91</ele>
        <time>2015-11-19T09:16:49Z</time>
      </trkpt>
      <trkpt lat="48.05381" lon="2.79117">
        <ele>90</ele>
        <time>2015-11-19T09:16:50Z</time>
      </trkpt>
      <trkpt lat="48.05378" lon="2.79116">
        <ele>90</ele>
        <time>2015-11-19T09:16:51Z</time>
      </trkpt>
      <trkpt lat="48.05375" lon="2.79115">
        <ele>90</ele>
        <time>2015-11-19T09:16:52Z</time>
      </trkpt>
      <trkpt lat="48.05371" lon="2.79115">
        <ele>90</ele>
        <time>2015-11-19T09:16:53Z</time>
      </trkpt>
      <trkpt lat="48.05368" lon="2.79115">
        <ele>90</ele>
        <time>2015-11-19T09:16:54Z</time>
      </trkpt>
      <trkpt lat="48.05366" lon="2.79115">
        <ele>90</ele>
        <time>2015-11-19T09:16:55Z</time>
      </trkpt>
      <trkpt lat="48.05364" lon="2.79115">
        <ele>90</ele>
        <time>2015-11-19T09:16:56Z</time>
      </trkpt>
      <trkpt lat="48.05362" lon="2.79115">
        <ele>90</ele>
        <time>2015-11-19T09:16:57Z</time>
      </trkpt>
      <trkpt lat="48.05359" lon="2.79115">
        <ele>90</ele>
        <time>2015-11-19T09:16:58Z</time>
      </trkpt>
      <trkpt lat="48.05355" lon="2.79116">
        <ele>90</ele>
        <time>2015-11-19T09:16:59Z</time>
      </trkpt>
      <trkpt lat="48.05352" lon="2.79116">
        <ele>90</ele>
        <time>2015-11-19T09:17:00Z</time>
      </trkpt>
      <trkpt lat="48.0535" lon="2.79117">
        <ele>90</ele>
        <time>2015-11-19T09:17:01Z</time>
      </trkpt>
      <trkpt lat="48.05347" lon="2.79117">
        <ele>90</ele>
        <time>2015-11-19T09:17:02Z</time>
      </trkpt>
      <trkpt lat="48.05345" lon="2.79117">
        <ele>90</ele>
        <time>2015-11-19T09:17:04Z</time>
      </trkpt>
      <trkpt lat="48.05343" lon="2.79118">
        <ele>90</ele>
        <time>2015-11-19T09:17:05Z</time>
      </trkpt>
      <trkpt lat="48.05341" lon="2.79118">
        <ele>90</ele>
        <time>2015-11-19T09:17:06Z</time>
      </trkpt>
      <trkpt lat="48.05339" lon="2.79118">
        <ele>90</ele>
        <time>2015-11-19T09:17:07Z</time>
      </trkpt>
      <trkpt lat="48.05335" lon="2.79118">
        <ele>90</ele>
        <time>2015-11-19T09:17:08Z</time>
      </trkpt>
      <trkpt lat="48.05332" lon="2.79118">
        <ele>90</ele>
        <time>2015-11-19T09:17:09Z</time>
      </trkpt>
      <trkpt lat="48.05329" lon="2.79119">
        <ele>89</ele>
        <time>2015-11-19T09:17:10Z</time>
      </trkpt>
      <trkpt lat="48.05326" lon="2.7912">
        <ele>89</ele>
        <time>2015-11-19T09:17:11Z</time>
      </trkpt>
      <trkpt lat="48.05323" lon="2.79121">
        <ele>88</ele>
        <time>2015-11-19T09:17:12Z</time>
      </trkpt>
      <trkpt lat="48.05319" lon="2.79121">
        <ele>88</ele>
        <time>2015-11-19T09:17:13Z</time>
      </trkpt>
      <trkpt lat="48.05315" lon="2.79121">
        <ele>87</ele>
        <time>2015-11-19T09:17:14Z</time>
      </trkpt>
      <trkpt lat="48.05311" lon="2.79122">
        <ele>87</ele>
        <time>2015-11-19T09:17:15Z</time>
      </trkpt>
      <trkpt lat="48.05308" lon="2.79123">
        <ele>86</ele>
        <time>2015-11-19T09:17:16Z</time>
      </trkpt>
      <trkpt lat="48.05305" lon="2.79122">
        <ele>86</ele>
        <time>2015-11-19T09:17:17Z</time>
      </trkpt>
      <trkpt lat="48.05303" lon="2.79123">
        <ele>85</ele>
        <time>2015-11-19T09:17:18Z</time>
      </trkpt>
      <trkpt lat="48.053" lon="2.79123">
        <ele>84</ele>
        <time>2015-11-19T09:17:19Z</time>
      </trkpt>
      <trkpt lat="48.05297" lon="2.79124">
        <ele>84</ele>
        <time>2015-11-19T09:17:20Z</time>
      </trkpt>
      <trkpt lat="48.05294" lon="2.79125">
        <ele>83</ele>
        <time>2015-11-19T09:17:21Z</time>
      </trkpt>
      <trkpt lat="48.0529" lon="2.79125">
        <ele>83</ele>
        <time>2015-11-19T09:17:22Z</time>
      </trkpt>
      <trkpt lat="48.05287" lon="2.79125">
        <ele>82</ele>
        <time>2015-11-19T09:17:23Z</time>
      </trkpt>
      <trkpt lat="48.05283" lon="2.79125">
        <ele>81</ele>
        <time>2015-11-19T09:17:24Z</time>
      </trkpt>
      <trkpt lat="48.05278" lon="2.79126">
        <ele>80</ele>
        <time>2015-11-19T09:17:25Z</time>
      </trkpt>
      <trkpt lat="48.05274" lon="2.79125">
        <ele>80</ele>
        <time>2015-11-19T09:17:26Z</time>
      </trkpt>
      <trkpt lat="48.0527" lon="2.79126">
        <ele>80</ele>
        <time>2015-11-19T09:17:27Z</time>
      </trkpt>
      <trkpt lat="48.05267" lon="2.79126">
        <ele>80</ele>
        <time>2015-11-19T09:17:28Z</time>
      </trkpt>
      <trkpt lat="48.05264" lon="2.79126">
        <ele>80</ele>
        <time>2015-11-19T09:17:29Z</time>
      </trkpt>
      <trkpt lat="48.0526" lon="2.79126">
        <ele>80</ele>
        <time>2015-11-19T09:17:30Z</time>
      </trkpt>
      <trkpt lat="48.05257" lon="2.79126">
        <ele>80</ele>
        <time>2015-11-19T09:17:31Z</time>
      </trkpt>
      <trkpt lat="48.05254" lon="2.79126">
        <ele>79</ele>
        <time>2015-11-19T09:17:32Z</time>
      </trkpt>
      <trkpt lat="48.0525" lon="2.79127">
        <ele>78</ele>
        <time>2015-11-19T09:17:33Z</time>
      </trkpt>
      <trkpt lat="48.05246" lon="2.79126">
        <ele>78</ele>
        <time>2015-11-19T09:17:34Z</time>
      </trkpt>
      <trkpt lat="48.05242" lon="2.79125">
        <ele>78</ele>
        <time>2015-11-19T09:17:35Z</time>
      </trkpt>
      <trkpt lat="48.05238" lon="2.79125">
        <ele>78</ele>
        <time>2015-11-19T09:17:36Z</time>
      </trkpt>
      <trkpt lat="48.05235" lon="2.79125">
        <ele>78</ele>
        <time>2015-11-19T09:17:37Z</time>
      </trkpt>
      <trkpt lat="48.05231" lon="2.79124">
        <ele>78</ele>
        <time>2015-11-19T09:17:38Z</time>
      </trkpt>
      <trkpt lat="48.05228" lon="2.79122">
        <ele>78</ele>
        <time>2015-11-19T09:17:39Z</time>
      </trkpt>
      <trkpt lat="48.05225" lon="2.79121">
        <ele>78</ele>
        <time>2015-11-19T09:17:40Z</time>
      </trkpt>
      <trkpt lat="48.05222" lon="2.7912">
        <ele>78</ele>
        <time>2015-11-19T09:17:41Z</time>
      </trkpt>
      <trkpt lat="48.05219" lon="2.79119">
        <ele>78</ele>
        <time>2015-11-19T09:17:42Z</time>
      </trkpt>
      <trkpt lat="48.05216" lon="2.79118">
        <ele>78</ele>
        <time>2015-11-19T09:17:43Z</time>
      </trkpt>
      <trkpt lat="48.05213" lon="2.79117">
        <ele>79</ele>
        <time>2015-11-19T09:17:44Z</time>
      </trkpt>
      <trkpt lat="48.0521" lon="2.79115">
        <ele>80</ele>
        <time>2015-11-19T09:17:45Z</time>
      </trkpt>
      <trkpt lat="48.05207" lon="2.79113">
        <ele>81</ele>
        <time>2015-11-19T09:17:46Z</time>
      </trkpt>
      <trkpt lat="48.05203" lon="2.79112">
        <ele>82</ele>
        <time>2015-11-19T09:17:47Z</time>
      </trkpt>
      <trkpt lat="48.05199" lon="2.79111">
        <ele>83</ele>
        <time>2015-11-19T09:17:48Z</time>
      </trkpt>
      <trkpt lat="48.05196" lon="2.7911">
        <ele>84</ele>
        <time>2015-11-19T09:17:49Z</time>
      </trkpt>
      <trkpt lat="48.05192" lon="2.79109">
        <ele>86</ele>
        <time>2015-11-19T09:17:50Z</time>
      </trkpt>
      <trkpt lat="48.05188" lon="2.79109">
        <ele>87</ele>
        <time>2015-11-19T09:17:51Z</time>
      </trkpt>
      <trkpt lat="48.05184" lon="2.79108">
        <ele>88</ele>
        <time>2015-11-19T09:17:52Z</time>
      </trkpt>
      <trkpt lat="48.0518" lon="2.79107">
        <ele>89</ele>
        <time>2015-11-19T09:17:53Z</time>
      </trkpt>
      <trkpt lat="48.05178" lon="2.79106">
        <ele>90</ele>
        <time>2015-11-19T09:17:54Z</time>
      </trkpt>
      <trkpt lat="48.05175" lon="2.79106">
        <ele>91</ele>
        <time>2015-11-19T09:17:55Z</time>
      </trkpt>
      <trkpt lat="48.05173" lon="2.79106">
        <ele>92</ele>
        <time>2015-11-19T09:17:56Z</time>
      </trkpt>
      <trkpt lat="48.0517" lon="2.79105">
        <ele>93</ele>
        <time>2015-11-19T09:17:57Z</time>
      </trkpt>
      <trkpt lat="48.05167" lon="2.79105">
        <ele>93</ele>
        <time>2015-11-19T09:17:58Z</time>
      </trkpt>
      <trkpt lat="48.05163" lon="2.79105">
        <ele>93</ele>
        <time>2015-11-19T09:17:59Z</time>
      </trkpt>
      <trkpt lat="48.0516" lon="2.79105">
        <ele>93</ele>
        <time>2015-11-19T09:18:00Z</time>
      </trkpt>
      <trkpt lat="48.05157" lon="2.79104">
        <ele>93</ele>
        <time>2015-11-19T09:18:01Z</time>
      </trkpt>
      <trkpt lat="48.05155" lon="2.79104">
        <ele>93</ele>
        <time>2015-11-19T09:18:02Z</time>
      </trkpt>
      <trkpt lat="48.05152" lon="2.79104">
        <ele>93</ele>
        <time>2015-11-19T09:18:03Z</time>
      </trkpt>
      <trkpt lat="48.05149" lon="2.79104">
        <ele>94</ele>
        <time>2015-11-19T09:18:04Z</time>
      </trkpt>
      <trkpt lat="48.05145" lon="2.79104">
        <ele>95</ele>
        <time>2015-11-19T09:18:05Z</time>
      </trkpt>
      <trkpt lat="48.05141" lon="2.79104">
        <ele>96</ele>
        <time>2015-11-19T09:18:06Z</time>
      </trkpt>
      <trkpt lat="48.05138" lon="2.79103">
        <ele>97</ele>
        <time>2015-11-19T09:18:07Z</time>
      </trkpt>
      <trkpt lat="48.05134" lon="2.79103">
        <ele>97</ele>
        <time>2015-11-19T09:18:08Z</time>
      </trkpt>
      <trkpt lat="48.05131" lon="2.79102">
        <ele>97</ele>
        <time>2015-11-19T09:18:09Z</time>
      </trkpt>
      <trkpt lat="48.05128" lon="2.79102">
        <ele>97</ele>
        <time>2015-11-19T09:18:10Z</time>
      </trkpt>
      <trkpt lat="48.05125" lon="2.79102">
        <ele>97</ele>
        <time>2015-11-19T09:18:11Z</time>
      </trkpt>
      <trkpt lat="48.05123" lon="2.79102">
        <ele>97</ele>
        <time>2015-11-19T09:18:12Z</time>
      </trkpt>
      <trkpt lat="48.05121" lon="2.79102">
        <ele>97</ele>
        <time>2015-11-19T09:18:13Z</time>
      </trkpt>
      <trkpt lat="48.05118" lon="2.79103">
        <ele>97</ele>
        <time>2015-11-19T09:18:14Z</time>
      </trkpt>
      <trkpt lat="48.05115" lon="2.79104">
        <ele>98</ele>
        <time>2015-11-19T09:18:15Z</time>
      </trkpt>
      <trkpt lat="48.05112" lon="2.79104">
        <ele>98</ele>
        <time>2015-11-19T09:18:16Z</time>
      </trkpt>
      <trkpt lat="48.0511" lon="2.79104">
        <ele>99</ele>
        <time>2015-11-19T09:18:17Z</time>
      </trkpt>
      <trkpt lat="48.05107" lon="2.79104">
        <ele>100</ele>
        <time>2015-11-19T09:18:18Z</time>
      </trkpt>
      <trkpt lat="48.05105" lon="2.79104">
        <ele>100</ele>
        <time>2015-11-19T09:18:19Z</time>
      </trkpt>
      <trkpt lat="48.05103" lon="2.79104">
        <ele>101</ele>
        <time>2015-11-19T09:18:20Z</time>
      </trkpt>
      <trkpt lat="48.051" lon="2.79104">
        <ele>101</ele>
        <time>2015-11-19T09:18:21Z</time>
      </trkpt>
      <trkpt lat="48.05098" lon="2.79103">
        <ele>101</ele>
        <time>2015-11-19T09:18:22Z</time>
      </trkpt>
      <trkpt lat="48.05095" lon="2.79103">
        <ele>102</ele>
        <time>2015-11-19T09:18:23Z</time>
      </trkpt>
      <trkpt lat="48.05091" lon="2.79102">
        <ele>102</ele>
        <time>2015-11-19T09:18:24Z</time>
      </trkpt>
      <trkpt lat="48.05087" lon="2.79101">
        <ele>102</ele>
        <time>2015-11-19T09:18:25Z</time>
      </trkpt>
      <trkpt lat="48.05084" lon="2.79101">
        <ele>102</ele>
        <time>2015-11-19T09:18:26Z</time>
      </trkpt>
      <trkpt lat="48.05081" lon="2.791">
        <ele>102</ele>
        <time>2015-11-19T09:18:27Z</time>
      </trkpt>
      <trkpt lat="48.05078" lon="2.791">
        <ele>103</ele>
        <time>2015-11-19T09:18:28Z</time>
      </trkpt>
      <trkpt lat="48.05076" lon="2.791">
        <ele>104</ele>
        <time>2015-11-19T09:18:29Z</time>
      </trkpt>
      <trkpt lat="48.05072" lon="2.79099">
        <ele>105</ele>
        <time>2015-11-19T09:18:30Z</time>
      </trkpt>
      <trkpt lat="48.05069" lon="2.79098">
        <ele>105</ele>
        <time>2015-11-19T09:18:31Z</time>
      </trkpt>
      <trkpt lat="48.05067" lon="2.79097">
        <ele>106</ele>
        <time>2015-11-19T09:18:32Z</time>
      </trkpt>
      <trkpt lat="48.05064" lon="2.79097">
        <ele>106</ele>
        <time>2015-11-19T09:18:33Z</time>
      </trkpt>
      <trkpt lat="48.05062" lon="2.79097">
        <ele>106</ele>
        <time>2015-11-19T09:18:34Z</time>
      </trkpt>
      <trkpt lat="48.05059" lon="2.79096">
        <ele>106</ele>
        <time>2015-11-19T09:18:35Z</time>
      </trkpt>
      <trkpt lat="48.05056" lon="2.79096">
        <ele>106</ele>
        <time>2015-11-19T09:18:36Z</time>
      </trkpt>
      <trkpt lat="48.05054" lon="2.79096">
        <ele>106</ele>
        <time>2015-11-19T09:18:37Z</time>
      </trkpt>
      <trkpt lat="48.05051" lon="2.79095">
        <ele>106</ele>
        <time>2015-11-19T09:18:38Z</time>
      </trkpt>
      <trkpt lat="48.05049" lon="2.79095">
        <ele>105</ele>
        <time>2015-11-19T09:18:39Z</time>
      </trkpt>
      <trkpt lat="48.05046" lon="2.79094">
        <ele>104</ele>
        <time>2015-11-19T09:18:40Z</time>
      </trkpt>
      <trkpt lat="48.05044" lon="2.79093">
        <ele>104</ele>
        <time>2015-11-19T09:18:41Z</time>
      </trkpt>
      <trkpt lat="48.05041" lon="2.79092">
        <ele>104</ele>
        <time>2015-11-19T09:18:42Z</time>
      </trkpt>
      <trkpt lat="48.05039" lon="2.79091">
        <ele>104</ele>
        <time>2015-11-19T09:18:43Z</time>
      </trkpt>
      <trkpt lat="48.05036" lon="2.7909">
        <ele>103</ele>
        <time>2015-11-19T09:18:44Z</time>
      </trkpt>
      <trkpt lat="48.05034" lon="2.79088">
        <ele>103</ele>
        <time>2015-11-19T09:18:45Z</time>
      </trkpt>
      <trkpt lat="48.05031" lon="2.79087">
        <ele>102</ele>
        <time>2015-11-19T09:18:46Z</time>
      </trkpt>
      <trkpt lat="48.05027" lon="2.79086">
        <ele>101</ele>
        <time>2015-11-19T09:18:47Z</time>
      </trkpt>
      <trkpt lat="48.05024" lon="2.79085">
        <ele>100</ele>
        <time>2015-11-19T09:18:48Z</time>
      </trkpt>
      <trkpt lat="48.05022" lon="2.79084">
        <ele>99</ele>
        <time>2015-11-19T09:18:49Z</time>
      </trkpt>
      <trkpt lat="48.05019" lon="2.79084">
        <ele>98</ele>
        <time>2015-11-19T09:18:50Z</time>
      </trkpt>
      <trkpt lat="48.05016" lon="2.79082">
        <ele>97</ele>
        <time>2015-11-19T09:18:51Z</time>
      </trkpt>
      <trkpt lat="48.05013" lon="2.79081">
        <ele>96</ele>
        <time>2015-11-19T09:18:52Z</time>
      </trkpt>
      <trkpt lat="48.0501" lon="2.7908">
        <ele>95</ele>
        <time>2015-11-19T09:18:53Z</time>
      </trkpt>
      <trkpt lat="48.05008" lon="2.79079">
        <ele>94</ele>
        <time>2015-11-19T09:18:55Z</time>
      </trkpt>
      <trkpt lat="48.05006" lon="2.79078">
        <ele>93</ele>
        <time>2015-11-19T09:18:56Z</time>
      </trkpt>
      <trkpt lat="48.05003" lon="2.79076">
        <ele>92</ele>
        <time>2015-11-19T09:18:57Z</time>
      </trkpt>
      <trkpt lat="48.05" lon="2.79074">
        <ele>92</ele>
        <time>2015-11-19T09:18:58Z</time>
      </trkpt>
      <trkpt lat="48.04994" lon="2.79071">
        <ele>90</ele>
        <time>2015-11-19T09:18:59Z</time>
      </trkpt>
      <trkpt lat="48.04991" lon="2.79068">
        <ele>89</ele>
        <time>2015-11-19T09:19:00Z</time>
      </trkpt>
      <trkpt lat="48.04989" lon="2.79066">
        <ele>88</ele>
        <time>2015-11-19T09:19:01Z</time>
      </trkpt>
      <trkpt lat="48.04987" lon="2.79065">
        <ele>88</ele>
        <time>2015-11-19T09:19:02Z</time>
      </trkpt>
      <trkpt lat="48.04986" lon="2.79064">
        <ele>88</ele>
        <time>2015-11-19T09:19:03Z</time>
      </trkpt>
      <trkpt lat="48.04984" lon="2.79063">
        <ele>88</ele>
        <time>2015-11-19T09:19:04Z</time>
      </trkpt>
      <trkpt lat="48.04981" lon="2.79062">
        <ele>88</ele>
        <time>2015-11-19T09:19:05Z</time>
      </trkpt>
      <trkpt lat="48.04977" lon="2.7906">
        <ele>88</ele>
        <time>2015-11-19T09:19:06Z</time>
      </trkpt>
      <trkpt lat="48.04974" lon="2.79058">
        <ele>88</ele>
        <time>2015-11-19T09:19:07Z</time>
      </trkpt>
      <trkpt lat="48.04972" lon="2.79057">
        <ele>88</ele>
        <time>2015-11-19T09:19:08Z</time>
      </trkpt>
      <trkpt lat="48.04969" lon="2.79055">
        <ele>88</ele>
        <time>2015-11-19T09:19:09Z</time>
      </trkpt>
      <trkpt lat="48.04966" lon="2.79053">
        <ele>88</ele>
        <time>2015-11-19T09:19:10Z</time>
      </trkpt>
      <trkpt lat="48.04964" lon="2.79052">
        <ele>88</ele>
        <time>2015-11-19T09:19:11Z</time>
      </trkpt>
      <trkpt lat="48.04961" lon="2.79051">
        <ele>88</ele>
        <time>2015-11-19T09:19:12Z</time>
      </trkpt>
      <trkpt lat="48.04959" lon="2.79051">
        <ele>88</ele>
        <time>2015-11-19T09:19:13Z</time>
      </trkpt>
      <trkpt lat="48.04956" lon="2.79051">
        <ele>88</ele>
        <time>2015-11-19T09:19:14Z</time>
      </trkpt>
      <trkpt lat="48.04953" lon="2.79049">
        <ele>88</ele>
        <time>2015-11-19T09:19:15Z</time>
      </trkpt>
      <trkpt lat="48.0495" lon="2.79047">
        <ele>88</ele>
        <time>2015-11-19T09:19:16Z</time>
      </trkpt>
      <trkpt lat="48.04946" lon="2.79046">
        <ele>89</ele>
        <time>2015-11-19T09:19:17Z</time>
      </trkpt>
      <trkpt lat="48.04943" lon="2.79045">
        <ele>90</ele>
        <time>2015-11-19T09:19:18Z</time>
      </trkpt>
      <trkpt lat="48.0494" lon="2.79044">
        <ele>91</ele>
        <time>2015-11-19T09:19:19Z</time>
      </trkpt>
      <trkpt lat="48.04938" lon="2.79042">
        <ele>92</ele>
        <time>2015-11-19T09:19:20Z</time>
      </trkpt>
      <trkpt lat="48.04936" lon="2.7904">
        <ele>93</ele>
        <time>2015-11-19T09:19:21Z</time>
      </trkpt>
      <trkpt lat="48.04935" lon="2.79039">
        <ele>94</ele>
        <time>2015-11-19T09:19:22Z</time>
      </trkpt>
      <trkpt lat="48.04932" lon="2.79038">
        <ele>95</ele>
        <time>2015-11-19T09:19:23Z</time>
      </trkpt>
      <trkpt lat="48.0493" lon="2.79037">
        <ele>96</ele>
        <time>2015-11-19T09:19:24Z</time>
      </trkpt>
      <trkpt lat="48.04927" lon="2.79037">
        <ele>97</ele>
        <time>2015-11-19T09:19:25Z</time>
      </trkpt>
      <trkpt lat="48.04925" lon="2.79037">
        <ele>98</ele>
        <time>2015-11-19T09:19:26Z</time>
      </trkpt>
      <trkpt lat="48.04924" lon="2.79038">
        <ele>99</ele>
        <time>2015-11-19T09:19:27Z</time>
      </trkpt>
      <trkpt lat="48.04924" lon="2.79041">
        <ele>100</ele>
        <time>2015-11-19T09:19:28Z</time>
      </trkpt>
      <trkpt lat="48.04923" lon="2.79045">
        <ele>101</ele>
        <time>2015-11-19T09:19:29Z</time>
      </trkpt>
      <trkpt lat="48.04923" lon="2.79049">
        <ele>102</ele>
        <time>2015-11-19T09:19:30Z</time>
      </trkpt>
      <trkpt lat="48.04922" lon="2.79054">
        <ele>103</ele>
        <time>2015-11-19T09:19:31Z</time>
      </trkpt>
      <trkpt lat="48.04921" lon="2.79059">
        <ele>103</ele>
        <time>2015-11-19T09:19:32Z</time>
      </trkpt>
      <trkpt lat="48.04921" lon="2.79064">
        <ele>104</ele>
        <time>2015-11-19T09:19:33Z</time>
      </trkpt>
      <trkpt lat="48.04919" lon="2.79069">
        <ele>104</ele>
        <time>2015-11-19T09:19:34Z</time>
      </trkpt>
      <trkpt lat="48.04918" lon="2.79074">
        <ele>104</ele>
        <time>2015-11-19T09:19:35Z</time>
      </trkpt>
      <trkpt lat="48.04917" lon="2.7908">
        <ele>104</ele>
        <time>2015-11-19T09:19:36Z</time>
      </trkpt>
      <trkpt lat="48.04916" lon="2.79087">
        <ele>104</ele>
        <time>2015-11-19T09:19:37Z</time>
      </trkpt>
      <trkpt lat="48.04915" lon="2.79095">
        <ele>104</ele>
        <time>2015-11-19T09:19:38Z</time>
      </trkpt>
      <trkpt lat="48.04915" lon="2.79102">
        <ele>104</ele>
        <time>2015-11-19T09:19:39Z</time>
      </trkpt>
      <trkpt lat="48.04913" lon="2.7911">
        <ele>104</ele>
        <time>2015-11-19T09:19:40Z</time>
      </trkpt>
      <trkpt lat="48.04913" lon="2.79117">
        <ele>104</ele>
        <time>2015-11-19T09:19:41Z</time>
      </trkpt>
      <trkpt lat="48.04911" lon="2.79126">
        <ele>103</ele>
        <time>2015-11-19T09:19:42Z</time>
      </trkpt>
      <trkpt lat="48.0491" lon="2.79135">
        <ele>103</ele>
        <time>2015-11-19T09:19:43Z</time>
      </trkpt>
      <trkpt lat="48.04908" lon="2.79144">
        <ele>103</ele>
        <time>2015-11-19T09:19:44Z</time>
      </trkpt>
      <trkpt lat="48.04907" lon="2.79153">
        <ele>102</ele>
        <time>2015-11-19T09:19:45Z</time>
      </trkpt>
      <trkpt lat="48.04906" lon="2.79163">
        <ele>102</ele>
        <time>2015-11-19T09:19:46Z</time>
      </trkpt>
      <trkpt lat="48.04904" lon="2.79172">
        <ele>102</ele>
        <time>2015-11-19T09:19:47Z</time>
      </trkpt>
      <trkpt lat="48.04903" lon="2.79182">
        <ele>102</ele>
        <time>2015-11-19T09:19:48Z</time>
      </trkpt>
      <trkpt lat="48.04902" lon="2.79191">
        <ele>102</ele>
        <time>2015-11-19T09:19:49Z</time>
      </trkpt>
      <trkpt lat="48.04901" lon="2.79201">
        <ele>102</ele>
        <time>2015-11-19T09:19:50Z</time>
      </trkpt>
      <trkpt lat="48.049" lon="2.79211">
        <ele>102</ele>
        <time>2015-11-19T09:19:51Z</time>
      </trkpt>
      <trkpt lat="48.049" lon="2.79221">
        <ele>102</ele>
        <time>2015-11-19T09:19:52Z</time>
      </trkpt>
      <trkpt lat="48.049" lon="2.79231">
        <ele>102</ele>
        <time>2015-11-19T09:19:53Z</time>
      </trkpt>
      <trkpt lat="48.04898" lon="2.7924">
        <ele>102</ele>
        <time>2015-11-19T09:19:54Z</time>
      </trkpt>
      <trkpt lat="48.04896" lon="2.7925">
        <ele>102</ele>
        <time>2015-11-19T09:19:55Z</time>
      </trkpt>
      <trkpt lat="48.04892" lon="2.79261">
        <ele>102</ele>
        <time>2015-11-19T09:19:56Z</time>
      </trkpt>
      <trkpt lat="48.0489" lon="2.79273">
        <ele>102</ele>
        <time>2015-11-19T09:19:57Z</time>
      </trkpt>
      <trkpt lat="48.04888" lon="2.79283">
        <ele>103</ele>
        <time>2015-11-19T09:19:58Z</time>
      </trkpt>
      <trkpt lat="48.04887" lon="2.79294">
        <ele>104</ele>
        <time>2015-11-19T09:19:59Z</time>
      </trkpt>
      <trkpt lat="48.04885" lon="2.79306">
        <ele>105</ele>
        <time>2015-11-19T09:20:00Z</time>
      </trkpt>
      <trkpt lat="48.04884" lon="2.79316">
        <ele>105</ele>
        <time>2015-11-19T09:20:01Z</time>
      </trkpt>
      <trkpt lat="48.04882" lon="2.79327">
        <ele>105</ele>
        <time>2015-11-19T09:20:02Z</time>
      </trkpt>
      <trkpt lat="48.04881" lon="2.79336">
        <ele>105</ele>
        <time>2015-11-19T09:20:03Z</time>
      </trkpt>
      <trkpt lat="48.0488" lon="2.79344">
        <ele>105</ele>
        <time>2015-11-19T09:20:04Z</time>
      </trkpt>
      <trkpt lat="48.04879" lon="2.79352">
        <ele>105</ele>
        <time>2015-11-19T09:20:05Z</time>
      </trkpt>
      <trkpt lat="48.0488" lon="2.79358">
        <ele>105</ele>
        <time>2015-11-19T09:20:06Z</time>
      </trkpt>
      <trkpt lat="48.04881" lon="2.79363">
        <ele>105</ele>
        <time>2015-11-19T09:20:07Z</time>
      </trkpt>
      <trkpt lat="48.0488" lon="2.79367">
        <ele>105</ele>
        <time>2015-11-19T09:20:08Z</time>
      </trkpt>
      <trkpt lat="48.04881" lon="2.79371">
        <ele>105</ele>
        <time>2015-11-19T09:20:09Z</time>
      </trkpt>
      <trkpt lat="48.04882" lon="2.79377">
        <ele>105</ele>
        <time>2015-11-19T09:20:10Z</time>
      </trkpt>
      <trkpt lat="48.04883" lon="2.79385">
        <ele>105</ele>
        <time>2015-11-19T09:20:11Z</time>
      </trkpt>
      <trkpt lat="48.04884" lon="2.79392">
        <ele>104</ele>
        <time>2015-11-19T09:20:12Z</time>
      </trkpt>
      <trkpt lat="48.04885" lon="2.79399">
        <ele>103</ele>
        <time>2015-11-19T09:20:13Z</time>
      </trkpt>
      <trkpt lat="48.04887" lon="2.79407">
        <ele>102</ele>
        <time>2015-11-19T09:20:14Z</time>
      </trkpt>
      <trkpt lat="48.04887" lon="2.79416">
        <ele>102</ele>
        <time>2015-11-19T09:20:16Z</time>
      </trkpt>
      <trkpt lat="48.04891" lon="2.79436">
        <ele>100</ele>
        <time>2015-11-19T09:20:17Z</time>
      </trkpt>
      <trkpt lat="48.04892" lon="2.79446">
        <ele>100</ele>
        <time>2015-11-19T09:20:18Z</time>
      </trkpt>
      <trkpt lat="48.04894" lon="2.79457">
        <ele>99</ele>
        <time>2015-11-19T09:20:20Z</time>
      </trkpt>
      <trkpt lat="48.04898" lon="2.79479">
        <ele>98</ele>
        <time>2015-11-19T09:20:21Z</time>
      </trkpt>
      <trkpt lat="48.04901" lon="2.79489">
        <ele>98</ele>
        <time>2015-11-19T09:20:22Z</time>
      </trkpt>
      <trkpt lat="48.04902" lon="2.795">
        <ele>98</ele>
        <time>2015-11-19T09:20:23Z</time>
      </trkpt>
      <trkpt lat="48.04903" lon="2.79511">
        <ele>98</ele>
        <time>2015-11-19T09:20:24Z</time>
      </trkpt>
      <trkpt lat="48.04906" lon="2.79523">
        <ele>98</ele>
        <time>2015-11-19T09:20:25Z</time>
      </trkpt>
      <trkpt lat="48.04907" lon="2.79537">
        <ele>98</ele>
        <time>2015-11-19T09:20:26Z</time>
      </trkpt>
      <trkpt lat="48.04909" lon="2.7955">
        <ele>98</ele>
        <time>2015-11-19T09:20:27Z</time>
      </trkpt>
      <trkpt lat="48.04911" lon="2.79562">
        <ele>98</ele>
        <time>2015-11-19T09:20:28Z</time>
      </trkpt>
      <trkpt lat="48.04912" lon="2.79575">
        <ele>98</ele>
        <time>2015-11-19T09:20:29Z</time>
      </trkpt>
      <trkpt lat="48.04913" lon="2.79588">
        <ele>98</ele>
        <time>2015-11-19T09:20:30Z</time>
      </trkpt>
      <trkpt lat="48.04915" lon="2.79601">
        <ele>98</ele>
        <time>2015-11-19T09:20:31Z</time>
      </trkpt>
      <trkpt lat="48.04916" lon="2.79612">
        <ele>98</ele>
        <time>2015-11-19T09:20:32Z</time>
      </trkpt>
      <trkpt lat="48.04918" lon="2.79624">
        <ele>98</ele>
        <time>2015-11-19T09:20:33Z</time>
      </trkpt>
      <trkpt lat="48.0492" lon="2.79634">
        <ele>98</ele>
        <time>2015-11-19T09:20:34Z</time>
      </trkpt>
      <trkpt lat="48.04922" lon="2.79645">
        <ele>98</ele>
        <time>2015-11-19T09:20:35Z</time>
      </trkpt>
      <trkpt lat="48.04923" lon="2.79656">
        <ele>98</ele>
        <time>2015-11-19T09:20:36Z</time>
      </trkpt>
      <trkpt lat="48.04925" lon="2.79668">
        <ele>98</ele>
        <time>2015-11-19T09:20:37Z</time>
      </trkpt>
      <trkpt lat="48.04926" lon="2.79679">
        <ele>98</ele>
        <time>2015-11-19T09:20:38Z</time>
      </trkpt>
      <trkpt lat="48.04927" lon="2.7969">
        <ele>98</ele>
        <time>2015-11-19T09:20:39Z</time>
      </trkpt>
      <trkpt lat="48.04926" lon="2.79699">
        <ele>98</ele>
        <time>2015-11-19T09:20:40Z</time>
      </trkpt>
      <trkpt lat="48.04924" lon="2.79708">
        <ele>98</ele>
        <time>2015-11-19T09:20:41Z</time>
      </trkpt>
      <trkpt lat="48.04922" lon="2.79717">
        <ele>98</ele>
        <time>2015-11-19T09:20:42Z</time>
      </trkpt>
      <trkpt lat="48.04921" lon="2.79725">
        <ele>98</ele>
        <time>2015-11-19T09:20:43Z</time>
      </trkpt>
      <trkpt lat="48.04919" lon="2.79732">
        <ele>98</ele>
        <time>2015-11-19T09:20:44Z</time>
      </trkpt>
      <trkpt lat="48.04918" lon="2.79739">
        <ele>98</ele>
        <time>2015-11-19T09:20:45Z</time>
      </trkpt>
      <trkpt lat="48.04917" lon="2.79748">
        <ele>97</ele>
        <time>2015-11-19T09:20:46Z</time>
      </trkpt>
      <trkpt lat="48.04915" lon="2.79755">
        <ele>96</ele>
        <time>2015-11-19T09:20:47Z</time>
      </trkpt>
      <trkpt lat="48.04914" lon="2.79763">
        <ele>95</ele>
        <time>2015-11-19T09:20:48Z</time>
      </trkpt>
      <trkpt lat="48.04912" lon="2.79769">
        <ele>94</ele>
        <time>2015-11-19T09:20:49Z</time>
      </trkpt>
      <trkpt lat="48.04911" lon="2.79776">
        <ele>93</ele>
        <time>2015-11-19T09:20:50Z</time>
      </trkpt>
      <trkpt lat="48.0491" lon="2.79781">
        <ele>92</ele>
        <time>2015-11-19T09:20:51Z</time>
      </trkpt>
      <trkpt lat="48.04909" lon="2.79786">
        <ele>91</ele>
        <time>2015-11-19T09:20:52Z</time>
      </trkpt>
      <trkpt lat="48.04908" lon="2.79791">
        <ele>90</ele>
        <time>2015-11-19T09:20:53Z</time>
      </trkpt>
      <trkpt lat="48.04908" lon="2.79797">
        <ele>89</ele>
        <time>2015-11-19T09:20:54Z</time>
      </trkpt>
      <trkpt lat="48.04907" lon="2.79804">
        <ele>88</ele>
        <time>2015-11-19T09:20:55Z</time>
      </trkpt>
      <trkpt lat="48.04906" lon="2.7981">
        <ele>87</ele>
        <time>2015-11-19T09:20:56Z</time>
      </trkpt>
      <trkpt lat="48.04906" lon="2.79815">
        <ele>86</ele>
        <time>2015-11-19T09:20:57Z</time>
      </trkpt>
      <trkpt lat="48.04905" lon="2.7982">
        <ele>85</ele>
        <time>2015-11-19T09:20:58Z</time>
      </trkpt>
      <trkpt lat="48.04903" lon="2.79825">
        <ele>84</ele>
        <time>2015-11-19T09:20:59Z</time>
      </trkpt>
      <trkpt lat="48.04902" lon="2.7983">
        <ele>83</ele>
        <time>2015-11-19T09:21:00Z</time>
      </trkpt>
      <trkpt lat="48.04901" lon="2.79834">
        <ele>82</ele>
        <time>2015-11-19T09:21:01Z</time>
      </trkpt>
      <trkpt lat="48.04898" lon="2.79839">
        <ele>82</ele>
        <time>2015-11-19T09:21:02Z</time>
      </trkpt>
      <trkpt lat="48.04897" lon="2.79844">
        <ele>82</ele>
        <time>2015-11-19T09:21:03Z</time>
      </trkpt>
      <trkpt lat="48.04897" lon="2.79849">
        <ele>82</ele>
        <time>2015-11-19T09:21:04Z</time>
      </trkpt>
      <trkpt lat="48.04896" lon="2.79854">
        <ele>82</ele>
        <time>2015-11-19T09:21:05Z</time>
      </trkpt>
      <trkpt lat="48.04896" lon="2.79859">
        <ele>82</ele>
        <time>2015-11-19T09:21:06Z</time>
      </trkpt>
      <trkpt lat="48.04895" lon="2.79865">
        <ele>82</ele>
        <time>2015-11-19T09:21:07Z</time>
      </trkpt>
      <trkpt lat="48.04895" lon="2.7987">
        <ele>82</ele>
        <time>2015-11-19T09:21:08Z</time>
      </trkpt>
      <trkpt lat="48.04895" lon="2.79875">
        <ele>82</ele>
        <time>2015-11-19T09:21:09Z</time>
      </trkpt>
      <trkpt lat="48.04895" lon="2.79881">
        <ele>82</ele>
        <time>2015-11-19T09:21:10Z</time>
      </trkpt>
      <trkpt lat="48.04894" lon="2.79887">
        <ele>82</ele>
        <time>2015-11-19T09:21:11Z</time>
      </trkpt>
      <trkpt lat="48.04893" lon="2.79892">
        <ele>82</ele>
        <time>2015-11-19T09:21:12Z</time>
      </trkpt>
      <trkpt lat="48.04893" lon="2.79899">
        <ele>82</ele>
        <time>2015-11-19T09:21:13Z</time>
      </trkpt>
      <trkpt lat="48.04893" lon="2.79905">
        <ele>82</ele>
        <time>2015-11-19T09:21:14Z</time>
      </trkpt>
      <trkpt lat="48.04893" lon="2.79911">
        <ele>82</ele>
        <time>2015-11-19T09:21:15Z</time>
      </trkpt>
      <trkpt lat="48.04894" lon="2.79917">
        <ele>82</ele>
        <time>2015-11-19T09:21:16Z</time>
      </trkpt>
      <trkpt lat="48.04894" lon="2.79922">
        <ele>83</ele>
        <time>2015-11-19T09:21:17Z</time>
      </trkpt>
      <trkpt lat="48.04894" lon="2.79926">
        <ele>84</ele>
        <time>2015-11-19T09:21:18Z</time>
      </trkpt>
      <trkpt lat="48.04893" lon="2.79931">
        <ele>85</ele>
        <time>2015-11-19T09:21:19Z</time>
      </trkpt>
      <trkpt lat="48.04893" lon="2.79938">
        <ele>86</ele>
        <time>2015-11-19T09:21:20Z</time>
      </trkpt>
      <trkpt lat="48.04892" lon="2.79943">
        <ele>87</ele>
        <time>2015-11-19T09:21:21Z</time>
      </trkpt>
      <trkpt lat="48.04892" lon="2.79949">
        <ele>88</ele>
        <time>2015-11-19T09:21:22Z</time>
      </trkpt>
      <trkpt lat="48.04893" lon="2.79954">
        <ele>89</ele>
        <time>2015-11-19T09:21:23Z</time>
      </trkpt>
      <trkpt lat="48.04893" lon="2.79958">
        <ele>90</ele>
        <time>2015-11-19T09:21:24Z</time>
      </trkpt>
      <trkpt lat="48.04893" lon="2.79963">
        <ele>91</ele>
        <time>2015-11-19T09:21:25Z</time>
      </trkpt>
      <trkpt lat="48.04894" lon="2.79969">
        <ele>92</ele>
        <time>2015-11-19T09:21:26Z</time>
      </trkpt>
      <trkpt lat="48.04895" lon="2.79975">
        <ele>93</ele>
        <time>2015-11-19T09:21:27Z</time>
      </trkpt>
      <trkpt lat="48.04895" lon="2.79979">
        <ele>94</ele>
        <time>2015-11-19T09:21:28Z</time>
      </trkpt>
      <trkpt lat="48.04896" lon="2.79983">
        <ele>95</ele>
        <time>2015-11-19T09:21:29Z</time>
      </trkpt>
      <trkpt lat="48.04896" lon="2.79987">
        <ele>97</ele>
        <time>2015-11-19T09:21:30Z</time>
      </trkpt>
      <trkpt lat="48.04896" lon="2.79991">
        <ele>98</ele>
        <time>2015-11-19T09:21:31Z</time>
      </trkpt>
      <trkpt lat="48.04897" lon="2.79995">
        <ele>99</ele>
        <time>2015-11-19T09:21:32Z</time>
      </trkpt>
      <trkpt lat="48.04897" lon="2.8">
        <ele>100</ele>
        <time>2015-11-19T09:21:33Z</time>
      </trkpt>
      <trkpt lat="48.04897" lon="2.80004">
        <ele>102</ele>
        <time>2015-11-19T09:21:34Z</time>
      </trkpt>
      <trkpt lat="48.04897" lon="2.80009">
        <ele>103</ele>
        <time>2015-11-19T09:21:35Z</time>
      </trkpt>
      <trkpt lat="48.04898" lon="2.80013">
        <ele>104</ele>
        <time>2015-11-19T09:21:36Z</time>
      </trkpt>
      <trkpt lat="48.04898" lon="2.80018">
        <ele>105</ele>
        <time>2015-11-19T09:21:37Z</time>
      </trkpt>
      <trkpt lat="48.04898" lon="2.80023">
        <ele>106</ele>
        <time>2015-11-19T09:21:38Z</time>
      </trkpt>
      <trkpt lat="48.04898" lon="2.80029">
        <ele>107</ele>
        <time>2015-11-19T09:21:39Z</time>
      </trkpt>
      <trkpt lat="48.04898" lon="2.80034">
        <ele>108</ele>
        <time>2015-11-19T09:21:40Z</time>
      </trkpt>
      <trkpt lat="48.04898" lon="2.8004">
        <ele>109</ele>
        <time>2015-11-19T09:21:41Z</time>
      </trkpt>
      <trkpt lat="48.04898" lon="2.80044">
        <ele>110</ele>
        <time>2015-11-19T09:21:42Z</time>
      </trkpt>
      <trkpt lat="48.04898" lon="2.80049">
        <ele>111</ele>
        <time>2015-11-19T09:21:44Z</time>
      </trkpt>
      <trkpt lat="48.04899" lon="2.80054">
        <ele>111</ele>
        <time>2015-11-19T09:21:45Z</time>
      </trkpt>
      <trkpt lat="48.049" lon="2.80064">
        <ele>113</ele>
        <time>2015-11-19T09:21:46Z</time>
      </trkpt>
      <trkpt lat="48.04901" lon="2.8007">
        <ele>113</ele>
        <time>2015-11-19T09:21:47Z</time>
      </trkpt>
      <trkpt lat="48.04902" lon="2.80076">
        <ele>114</ele>
        <time>2015-11-19T09:21:48Z</time>
      </trkpt>
      <trkpt lat="48.04903" lon="2.80081">
        <ele>115</ele>
        <time>2015-11-19T09:21:49Z</time>
      </trkpt>
      <trkpt lat="48.04903" lon="2.80086">
        <ele>115</ele>
        <time>2015-11-19T09:21:50Z</time>
      </trkpt>
      <trkpt lat="48.04904" lon="2.80091">
        <ele>115</ele>
        <time>2015-11-19T09:21:51Z</time>
      </trkpt>
      <trkpt lat="48.04904" lon="2.80096">
        <ele>115</ele>
        <time>2015-11-19T09:21:52Z</time>
      </trkpt>
      <trkpt lat="48.04905" lon="2.80101">
        <ele>115</ele>
        <time>2015-11-19T09:21:53Z</time>
      </trkpt>
      <trkpt lat="48.04906" lon="2.80106">
        <ele>115</ele>
        <time>2015-11-19T09:21:54Z</time>
      </trkpt>
      <trkpt lat="48.04907" lon="2.80111">
        <ele>116</ele>
        <time>2015-11-19T09:21:55Z</time>
      </trkpt>
      <trkpt lat="48.04906" lon="2.80116">
        <ele>116</ele>
        <time>2015-11-19T09:21:56Z</time>
      </trkpt>
      <trkpt lat="48.04905" lon="2.8012">
        <ele>117</ele>
        <time>2015-11-19T09:21:57Z</time>
      </trkpt>
      <trkpt lat="48.04905" lon="2.80125">
        <ele>117</ele>
        <time>2015-11-19T09:21:58Z</time>
      </trkpt>
      <trkpt lat="48.04906" lon="2.80131">
        <ele>118</ele>
        <time>2015-11-19T09:21:59Z</time>
      </trkpt>
      <trkpt lat="48.04906" lon="2.80136">
        <ele>119</ele>
        <time>2015-11-19T09:22:00Z</time>
      </trkpt>
      <trkpt lat="48.04907" lon="2.80141">
        <ele>120</ele>
        <time>2015-11-19T09:22:01Z</time>
      </trkpt>
      <trkpt lat="48.04908" lon="2.80145">
        <ele>120</ele>
        <time>2015-11-19T09:22:02Z</time>
      </trkpt>
      <trkpt lat="48.0491" lon="2.80151">
        <ele>120</ele>
        <time>2015-11-19T09:22:03Z</time>
      </trkpt>
      <trkpt lat="48.04911" lon="2.80155">
        <ele>120</ele>
        <time>2015-11-19T09:22:04Z</time>
      </trkpt>
      <trkpt lat="48.0491" lon="2.80159">
        <ele>120</ele>
        <time>2015-11-19T09:22:05Z</time>
      </trkpt>
      <trkpt lat="48.0491" lon="2.80161">
        <ele>120</ele>
        <time>2015-11-19T09:22:06Z</time>
      </trkpt>
      <trkpt lat="48.04909" lon="2.80163">
        <ele>120</ele>
        <time>2015-11-19T09:22:07Z</time>
      </trkpt>
      <trkpt lat="48.04907" lon="2.80165">
        <ele>120</ele>
        <time>2015-11-19T09:22:08Z</time>
      </trkpt>
      <trkpt lat="48.04905" lon="2.80167">
        <ele>120</ele>
        <time>2015-11-19T09:22:09Z</time>
      </trkpt>
      <trkpt lat="48.04903" lon="2.80169">
        <ele>120</ele>
        <time>2015-11-19T09:22:10Z</time>
      </trkpt>
      <trkpt lat="48.04901" lon="2.80171">
        <ele>120</ele>
        <time>2015-11-19T09:22:11Z</time>
      </trkpt>
      <trkpt lat="48.04898" lon="2.80175">
        <ele>120</ele>
        <time>2015-11-19T09:22:12Z</time>
      </trkpt>
      <trkpt lat="48.04897" lon="2.80178">
        <ele>120</ele>
        <time>2015-11-19T09:22:13Z</time>
      </trkpt>
      <trkpt lat="48.04895" lon="2.80182">
        <ele>120</ele>
        <time>2015-11-19T09:22:14Z</time>
      </trkpt>
      <trkpt lat="48.04893" lon="2.80186">
        <ele>120</ele>
        <time>2015-11-19T09:22:15Z</time>
      </trkpt>
      <trkpt lat="48.0489" lon="2.80191">
        <ele>119</ele>
        <time>2015-11-19T09:22:16Z</time>
      </trkpt>
      <trkpt lat="48.04887" lon="2.80199">
        <ele>118</ele>
        <time>2015-11-19T09:22:17Z</time>
      </trkpt>
      <trkpt lat="48.04882" lon="2.80207">
        <ele>117</ele>
        <time>2015-11-19T09:22:18Z</time>
      </trkpt>
      <trkpt lat="48.04877" lon="2.80215">
        <ele>116</ele>
        <time>2015-11-19T09:22:19Z</time>
      </trkpt>
      <trkpt lat="48.04874" lon="2.80223">
        <ele>115</ele>
        <time>2015-11-19T09:22:20Z</time>
      </trkpt>
      <trkpt lat="48.04866" lon="2.80231">
        <ele>114</ele>
        <time>2015-11-19T09:22:21Z</time>
      </trkpt>
      <trkpt lat="48.04858" lon="2.8024">
        <ele>113</ele>
        <time>2015-11-19T09:22:22Z</time>
      </trkpt>
      <trkpt lat="48.0485" lon="2.80248">
        <ele>112</ele>
        <time>2015-11-19T09:22:23Z</time>
      </trkpt>
      <trkpt lat="48.04842" lon="2.80256">
        <ele>111</ele>
        <time>2015-11-19T09:22:24Z</time>
      </trkpt>
      <trkpt lat="48.04834" lon="2.80263">
        <ele>111</ele>
        <time>2015-11-19T09:22:25Z</time>
      </trkpt>
      <trkpt lat="48.04827" lon="2.80268">
        <ele>110</ele>
        <time>2015-11-19T09:22:26Z</time>
      </trkpt>
      <trkpt lat="48.04821" lon="2.80273">
        <ele>110</ele>
        <time>2015-11-19T09:22:27Z</time>
      </trkpt>
      <trkpt lat="48.04815" lon="2.80276">
        <ele>109</ele>
        <time>2015-11-19T09:22:28Z</time>
      </trkpt>
      <trkpt lat="48.0481" lon="2.8028">
        <ele>108</ele>
        <time>2015-11-19T09:22:29Z</time>
      </trkpt>
      <trkpt lat="48.04805" lon="2.80284">
        <ele>107</ele>
        <time>2015-11-19T09:22:30Z</time>
      </trkpt>
      <trkpt lat="48.048" lon="2.80288">
        <ele>106</ele>
        <time>2015-11-19T09:22:31Z</time>
      </trkpt>
      <trkpt lat="48.04796" lon="2.80291">
        <ele>105</ele>
        <time>2015-11-19T09:22:32Z</time>
      </trkpt>
      <trkpt lat="48.04793" lon="2.80294">
        <ele>104</ele>
        <time>2015-11-19T09:22:33Z</time>
      </trkpt>
      <trkpt lat="48.04791" lon="2.80296">
        <ele>102</ele>
        <time>2015-11-19T09:22:34Z</time>
      </trkpt>
      <trkpt lat="48.0479" lon="2.80298">
        <ele>100</ele>
        <time>2015-11-19T09:22:35Z</time>
      </trkpt>
      <trkpt lat="48.04791" lon="2.80301">
        <ele>98</ele>
        <time>2015-11-19T09:22:36Z</time>
      </trkpt>
      <trkpt lat="48.04791" lon="2.80305">
        <ele>97</ele>
        <time>2015-11-19T09:22:37Z</time>
      </trkpt>
      <trkpt lat="48.04793" lon="2.8031">
        <ele>95</ele>
        <time>2015-11-19T09:22:38Z</time>
      </trkpt>
      <trkpt lat="48.04794" lon="2.80315">
        <ele>94</ele>
        <time>2015-11-19T09:22:39Z</time>
      </trkpt>
      <trkpt lat="48.04795" lon="2.80321">
        <ele>93</ele>
        <time>2015-11-19T09:22:40Z</time>
      </trkpt>
      <trkpt lat="48.04796" lon="2.80327">
        <ele>92</ele>
        <time>2015-11-19T09:22:41Z</time>
      </trkpt>
      <trkpt lat="48.04799" lon="2.80333">
        <ele>91</ele>
        <time>2015-11-19T09:22:42Z</time>
      </trkpt>
      <trkpt lat="48.04802" lon="2.8034">
        <ele>90</ele>
        <time>2015-11-19T09:22:43Z</time>
      </trkpt>
      <trkpt lat="48.04805" lon="2.80346">
        <ele>90</ele>
        <time>2015-11-19T09:22:44Z</time>
      </trkpt>
      <trkpt lat="48.04808" lon="2.80352">
        <ele>90</ele>
        <time>2015-11-19T09:22:45Z</time>
      </trkpt>
      <trkpt lat="48.04812" lon="2.80361">
        <ele>90</ele>
        <time>2015-11-19T09:22:46Z</time>
      </trkpt>
      <trkpt lat="48.04815" lon="2.80369">
        <ele>90</ele>
        <time>2015-11-19T09:22:47Z</time>
      </trkpt>
      <trkpt lat="48.04818" lon="2.80376">
        <ele>90</ele>
        <time>2015-11-19T09:22:48Z</time>
      </trkpt>
      <trkpt lat="48.04821" lon="2.80384">
        <ele>90</ele>
        <time>2015-11-19T09:22:49Z</time>
      </trkpt>
      <trkpt lat="48.04823" lon="2.80393">
        <ele>90</ele>
        <time>2015-11-19T09:22:50Z</time>
      </trkpt>
      <trkpt lat="48.04826" lon="2.804">
        <ele>90</ele>
        <time>2015-11-19T09:22:51Z</time>
      </trkpt>
      <trkpt lat="48.04827" lon="2.80407">
        <ele>90</ele>
        <time>2015-11-19T09:22:52Z</time>
      </trkpt>
      <trkpt lat="48.0483" lon="2.80414">
        <ele>90</ele>
        <time>2015-11-19T09:22:53Z</time>
      </trkpt>
      <trkpt lat="48.04831" lon="2.80421">
        <ele>90</ele>
        <time>2015-11-19T09:22:54Z</time>
      </trkpt>
      <trkpt lat="48.04833" lon="2.80427">
        <ele>90</ele>
        <time>2015-11-19T09:22:55Z</time>
      </trkpt>
      <trkpt lat="48.04834" lon="2.80432">
        <ele>90</ele>
        <time>2015-11-19T09:22:56Z</time>
      </trkpt>
      <trkpt lat="48.04835" lon="2.80439">
        <ele>90</ele>
        <time>2015-11-19T09:22:57Z</time>
      </trkpt>
      <trkpt lat="48.04837" lon="2.80445">
        <ele>90</ele>
        <time>2015-11-19T09:22:58Z</time>
      </trkpt>
      <trkpt lat="48.04838" lon="2.80449">
        <ele>90</ele>
        <time>2015-11-19T09:22:59Z</time>
      </trkpt>
      <trkpt lat="48.0484" lon="2.80454">
        <ele>90</ele>
        <time>2015-11-19T09:23:00Z</time>
      </trkpt>
      <trkpt lat="48.04842" lon="2.8046">
        <ele>90</ele>
        <time>2015-11-19T09:23:01Z</time>
      </trkpt>
      <trkpt lat="48.04847" lon="2.80464">
        <ele>90</ele>
        <time>2015-11-19T09:23:02Z</time>
      </trkpt>
      <trkpt lat="48.04851" lon="2.80469">
        <ele>90</ele>
        <time>2015-11-19T09:23:03Z</time>
      </trkpt>
      <trkpt lat="48.04852" lon="2.80473">
        <ele>91</ele>
        <time>2015-11-19T09:23:04Z</time>
      </trkpt>
      <trkpt lat="48.04853" lon="2.80477">
        <ele>92</ele>
        <time>2015-11-19T09:23:05Z</time>
      </trkpt>
      <trkpt lat="48.04853" lon="2.80482">
        <ele>93</ele>
        <time>2015-11-19T09:23:06Z</time>
      </trkpt>
      <trkpt lat="48.04854" lon="2.80486">
        <ele>94</ele>
        <time>2015-11-19T09:23:07Z</time>
      </trkpt>
      <trkpt lat="48.04855" lon="2.8049">
        <ele>95</ele>
        <time>2015-11-19T09:23:08Z</time>
      </trkpt>
      <trkpt lat="48.04856" lon="2.80493">
        <ele>96</ele>
        <time>2015-11-19T09:23:09Z</time>
      </trkpt>
      <trkpt lat="48.04857" lon="2.80496">
        <ele>97</ele>
        <time>2015-11-19T09:23:11Z</time>
      </trkpt>
      <trkpt lat="48.04859" lon="2.805">
        <ele>98</ele>
        <time>2015-11-19T09:23:12Z</time>
      </trkpt>
      <trkpt lat="48.04862" lon="2.80504">
        <ele>99</ele>
        <time>2015-11-19T09:23:13Z</time>
      </trkpt>
      <trkpt lat="48.04868" lon="2.80511">
        <ele>101</ele>
        <time>2015-11-19T09:23:14Z</time>
      </trkpt>
      <trkpt lat="48.04871" lon="2.80515">
        <ele>102</ele>
        <time>2015-11-19T09:23:15Z</time>
      </trkpt>
      <trkpt lat="48.04874" lon="2.80518">
        <ele>103</ele>
        <time>2015-11-19T09:23:16Z</time>
      </trkpt>
      <trkpt lat="48.04875" lon="2.80521">
        <ele>104</ele>
        <time>2015-11-19T09:23:17Z</time>
      </trkpt>
      <trkpt lat="48.04877" lon="2.80523">
        <ele>105</ele>
        <time>2015-11-19T09:23:18Z</time>
      </trkpt>
      <trkpt lat="48.04879" lon="2.80526">
        <ele>106</ele>
        <time>2015-11-19T09:23:19Z</time>
      </trkpt>
      <trkpt lat="48.04881" lon="2.80529">
        <ele>107</ele>
        <time>2015-11-19T09:23:20Z</time>
      </trkpt>
      <trkpt lat="48.04882" lon="2.80532">
        <ele>108</ele>
        <time>2015-11-19T09:23:21Z</time>
      </trkpt>
      <trkpt lat="48.04882" lon="2.80535">
        <ele>109</ele>
        <time>2015-11-19T09:23:22Z</time>
      </trkpt>
      <trkpt lat="48.04883" lon="2.80537">
        <ele>110</ele>
        <time>2015-11-19T09:23:23Z</time>
      </trkpt>
      <trkpt lat="48.04884" lon="2.80539">
        <ele>111</ele>
        <time>2015-11-19T09:23:24Z</time>
      </trkpt>
      <trkpt lat="48.04884" lon="2.80542">
        <ele>112</ele>
        <time>2015-11-19T09:23:25Z</time>
      </trkpt>
      <trkpt lat="48.04885" lon="2.80545">
        <ele>113</ele>
        <time>2015-11-19T09:23:26Z</time>
      </trkpt>
      <trkpt lat="48.04885" lon="2.80549">
        <ele>114</ele>
        <time>2015-11-19T09:23:27Z</time>
      </trkpt>
      <trkpt lat="48.04885" lon="2.80552">
        <ele>115</ele>
        <time>2015-11-19T09:23:28Z</time>
      </trkpt>
      <trkpt lat="48.04885" lon="2.80554">
        <ele>116</ele>
        <time>2015-11-19T09:23:29Z</time>
      </trkpt>
      <trkpt lat="48.04885" lon="2.80558">
        <ele>117</ele>
        <time>2015-11-19T09:23:30Z</time>
      </trkpt>
      <trkpt lat="48.04886" lon="2.80561">
        <ele>117</ele>
        <time>2015-11-19T09:23:31Z</time>
      </trkpt>
      <trkpt lat="48.04887" lon="2.80563">
        <ele>118</ele>
        <time>2015-11-19T09:23:32Z</time>
      </trkpt>
      <trkpt lat="48.04888" lon="2.80566">
        <ele>118</ele>
        <time>2015-11-19T09:23:33Z</time>
      </trkpt>
      <trkpt lat="48.04889" lon="2.80568">
        <ele>118</ele>
        <time>2015-11-19T09:23:34Z</time>
      </trkpt>
      <trkpt lat="48.0489" lon="2.8057">
        <ele>118</ele>
        <time>2015-11-19T09:23:35Z</time>
      </trkpt>
      <trkpt lat="48.04891" lon="2.80573">
        <ele>119</ele>
        <time>2015-11-19T09:23:36Z</time>
      </trkpt>
      <trkpt lat="48.04892" lon="2.80576">
        <ele>119</ele>
        <time>2015-11-19T09:23:37Z</time>
      </trkpt>
      <trkpt lat="48.04892" lon="2.80579">
        <ele>119</ele>
        <time>2015-11-19T09:23:38Z</time>
      </trkpt>
      <trkpt lat="48.04894" lon="2.80582">
        <ele>120</ele>
        <time>2015-11-19T09:23:39Z</time>
      </trkpt>
      <trkpt lat="48.04895" lon="2.80585">
        <ele>120</ele>
        <time>2015-11-19T09:23:40Z</time>
      </trkpt>
      <trkpt lat="48.04896" lon="2.80588">
        <ele>120</ele>
        <time>2015-11-19T09:23:41Z</time>
      </trkpt>
      <trkpt lat="48.04897" lon="2.80591">
        <ele>121</ele>
        <time>2015-11-19T09:23:42Z</time>
      </trkpt>
      <trkpt lat="48.04899" lon="2.80594">
        <ele>121</ele>
        <time>2015-11-19T09:23:43Z</time>
      </trkpt>
      <trkpt lat="48.04901" lon="2.80597">
        <ele>122</ele>
        <time>2015-11-19T09:23:44Z</time>
      </trkpt>
      <trkpt lat="48.04903" lon="2.80601">
        <ele>122</ele>
        <time>2015-11-19T09:23:45Z</time>
      </trkpt>
      <trkpt lat="48.04904" lon="2.80605">
        <ele>122</ele>
        <time>2015-11-19T09:23:46Z</time>
      </trkpt>
      <trkpt lat="48.04906" lon="2.80608">
        <ele>123</ele>
        <time>2015-11-19T09:23:47Z</time>
      </trkpt>
      <trkpt lat="48.04908" lon="2.80612">
        <ele>123</ele>
        <time>2015-11-19T09:23:48Z</time>
      </trkpt>
      <trkpt lat="48.0491" lon="2.80615">
        <ele>123</ele>
        <time>2015-11-19T09:23:49Z</time>
      </trkpt>
      <trkpt lat="48.04911" lon="2.80618">
        <ele>123</ele>
        <time>2015-11-19T09:23:50Z</time>
      </trkpt>
      <trkpt lat="48.04912" lon="2.80621">
        <ele>124</ele>
        <time>2015-11-19T09:23:51Z</time>
      </trkpt>
      <trkpt lat="48.04913" lon="2.80624">
        <ele>124</ele>
        <time>2015-11-19T09:23:52Z</time>
      </trkpt>
      <trkpt lat="48.04913" lon="2.80627">
        <ele>125</ele>
        <time>2015-11-19T09:23:53Z</time>
      </trkpt>
      <trkpt lat="48.04915" lon="2.8063">
        <ele>126</ele>
        <time>2015-11-19T09:23:54Z</time>
      </trkpt>
      <trkpt lat="48.04915" lon="2.80633">
        <ele>127</ele>
        <time>2015-11-19T09:23:55Z</time>
      </trkpt>
      <trkpt lat="48.04914" lon="2.80636">
        <ele>127</ele>
        <time>2015-11-19T09:23:56Z</time>
      </trkpt>
      <trkpt lat="48.04914" lon="2.80638">
        <ele>128</ele>
        <time>2015-11-19T09:23:57Z</time>
      </trkpt>
      <trkpt lat="48.04913" lon="2.8064">
        <ele>128</ele>
        <time>2015-11-19T09:23:58Z</time>
      </trkpt>
      <trkpt lat="48.04912" lon="2.80641">
        <ele>128</ele>
        <time>2015-11-19T09:23:59Z</time>
      </trkpt>
      <trkpt lat="48.04909" lon="2.80642">
        <ele>128</ele>
        <time>2015-11-19T09:24:00Z</time>
      </trkpt>
      <trkpt lat="48.04906" lon="2.80643">
        <ele>128</ele>
        <time>2015-11-19T09:24:01Z</time>
      </trkpt>
      <trkpt lat="48.04903" lon="2.80643">
        <ele>128</ele>
        <time>2015-11-19T09:24:02Z</time>
      </trkpt>
      <trkpt lat="48.049" lon="2.80643">
        <ele>128</ele>
        <time>2015-11-19T09:24:03Z</time>
      </trkpt>
      <trkpt lat="48.04897" lon="2.80643">
        <ele>128</ele>
        <time>2015-11-19T09:24:04Z</time>
      </trkpt>
      <trkpt lat="48.04895" lon="2.80643">
        <ele>128</ele>
        <time>2015-11-19T09:24:05Z</time>
      </trkpt>
      <trkpt lat="48.04892" lon="2.80644">
        <ele>128</ele>
        <time>2015-11-19T09:24:06Z</time>
      </trkpt>
      <trkpt lat="48.04889" lon="2.80645">
        <ele>128</ele>
        <time>2015-11-19T09:24:07Z</time>
      </trkpt>
      <trkpt lat="48.04885" lon="2.80647">
        <ele>128</ele>
        <time>2015-11-19T09:24:08Z</time>
      </trkpt>
      <trkpt lat="48.04881" lon="2.80648">
        <ele>128</ele>
        <time>2015-11-19T09:24:09Z</time>
      </trkpt>
      <trkpt lat="48.04877" lon="2.80649">
        <ele>128</ele>
        <time>2015-11-19T09:24:10Z</time>
      </trkpt>
      <trkpt lat="48.04874" lon="2.80649">
        <ele>128</ele>
        <time>2015-11-19T09:24:11Z</time>
      </trkpt>
      <trkpt lat="48.04869" lon="2.80651">
        <ele>128</ele>
        <time>2015-11-19T09:24:12Z</time>
      </trkpt>
      <trkpt lat="48.04864" lon="2.80652">
        <ele>127</ele>
        <time>2015-11-19T09:24:13Z</time>
      </trkpt>
      <trkpt lat="48.0486" lon="2.80653">
        <ele>126</ele>
        <time>2015-11-19T09:24:14Z</time>
      </trkpt>
      <trkpt lat="48.04855" lon="2.80654">
        <ele>125</ele>
        <time>2015-11-19T09:24:15Z</time>
      </trkpt>
      <trkpt lat="48.04851" lon="2.80655">
        <ele>124</ele>
        <time>2015-11-19T09:24:16Z</time>
      </trkpt>
      <trkpt lat="48.04848" lon="2.80657">
        <ele>124</ele>
        <time>2015-11-19T09:24:17Z</time>
      </trkpt>
      <trkpt lat="48.04845" lon="2.80659">
        <ele>123</ele>
        <time>2015-11-19T09:24:18Z</time>
      </trkpt>
      <trkpt lat="48.04842" lon="2.80661">
        <ele>122</ele>
        <time>2015-11-19T09:24:19Z</time>
      </trkpt>
      <trkpt lat="48.04837" lon="2.80663">
        <ele>122</ele>
        <time>2015-11-19T09:24:20Z</time>
      </trkpt>
      <trkpt lat="48.04833" lon="2.80664">
        <ele>121</ele>
        <time>2015-11-19T09:24:21Z</time>
      </trkpt>
      <trkpt lat="48.04829" lon="2.80665">
        <ele>120</ele>
        <time>2015-11-19T09:24:22Z</time>
      </trkpt>
      <trkpt lat="48.04825" lon="2.80667">
        <ele>119</ele>
        <time>2015-11-19T09:24:23Z</time>
      </trkpt>
      <trkpt lat="48.04821" lon="2.80668">
        <ele>118</ele>
        <time>2015-11-19T09:24:24Z</time>
      </trkpt>
      <trkpt lat="48.04817" lon="2.8067">
        <ele>118</ele>
        <time>2015-11-19T09:24:25Z</time>
      </trkpt>
      <trkpt lat="48.04813" lon="2.80672">
        <ele>118</ele>
        <time>2015-11-19T09:24:26Z</time>
      </trkpt>
      <trkpt lat="48.04808" lon="2.80673">
        <ele>118</ele>
        <time>2015-11-19T09:24:27Z</time>
      </trkpt>
      <trkpt lat="48.04804" lon="2.80676">
        <ele>118</ele>
        <time>2015-11-19T09:24:28Z</time>
      </trkpt>
      <trkpt lat="48.048" lon="2.80679">
        <ele>118</ele>
        <time>2015-11-19T09:24:29Z</time>
      </trkpt>
      <trkpt lat="48.04796" lon="2.80682">
        <ele>118</ele>
        <time>2015-11-19T09:24:30Z</time>
      </trkpt>
      <trkpt lat="48.04792" lon="2.80684">
        <ele>118</ele>
        <time>2015-11-19T09:24:31Z</time>
      </trkpt>
      <trkpt lat="48.04787" lon="2.80687">
        <ele>118</ele>
        <time>2015-11-19T09:24:32Z</time>
      </trkpt>
      <trkpt lat="48.04784" lon="2.80689">
        <ele>118</ele>
        <time>2015-11-19T09:24:33Z</time>
      </trkpt>
      <trkpt lat="48.0478" lon="2.80691">
        <ele>117</ele>
        <time>2015-11-19T09:24:34Z</time>
      </trkpt>
      <trkpt lat="48.04776" lon="2.80693">
        <ele>117</ele>
        <time>2015-11-19T09:24:35Z</time>
      </trkpt>
      <trkpt lat="48.04772" lon="2.80694">
        <ele>116</ele>
        <time>2015-11-19T09:24:36Z</time>
      </trkpt>
      <trkpt lat="48.04767" lon="2.80694">
        <ele>116</ele>
        <time>2015-11-19T09:24:37Z</time>
      </trkpt>
      <trkpt lat="48.04763" lon="2.80693">
        <ele>115</ele>
        <time>2015-11-19T09:24:38Z</time>
      </trkpt>
      <trkpt lat="48.04758" lon="2.80693">
        <ele>115</ele>
        <time>2015-11-19T09:24:39Z</time>
      </trkpt>
      <trkpt lat="48.04754" lon="2.80692">
        <ele>114</ele>
        <time>2015-11-19T09:24:40Z</time>
      </trkpt>
      <trkpt lat="48.0475" lon="2.80692">
        <ele>114</ele>
        <time>2015-11-19T09:24:41Z</time>
      </trkpt>
      <trkpt lat="48.04745" lon="2.80692">
        <ele>114</ele>
        <time>2015-11-19T09:24:42Z</time>
      </trkpt>
      <trkpt lat="48.0474" lon="2.80692">
        <ele>114</ele>
        <time>2015-11-19T09:24:44Z</time>
      </trkpt>
      <trkpt lat="48.04736" lon="2.80693">
        <ele>114</ele>
        <time>2015-11-19T09:24:45Z</time>
      </trkpt>
      <trkpt lat="48.04725" lon="2.80692">
        <ele>114</ele>
        <time>2015-11-19T09:24:46Z</time>
      </trkpt>
      <trkpt lat="48.04719" lon="2.80692">
        <ele>113</ele>
        <time>2015-11-19T09:24:47Z</time>
      </trkpt>
      <trkpt lat="48.04715" lon="2.80693">
        <ele>112</ele>
        <time>2015-11-19T09:24:48Z</time>
      </trkpt>
      <trkpt lat="48.0471" lon="2.80693">
        <ele>111</ele>
        <time>2015-11-19T09:24:49Z</time>
      </trkpt>
      <trkpt lat="48.04705" lon="2.80692">
        <ele>110</ele>
        <time>2015-11-19T09:24:50Z</time>
      </trkpt>
      <trkpt lat="48.047" lon="2.80691">
        <ele>109</ele>
        <time>2015-11-19T09:24:51Z</time>
      </trkpt>
      <trkpt lat="48.04695" lon="2.80691">
        <ele>108</ele>
        <time>2015-11-19T09:24:52Z</time>
      </trkpt>
      <trkpt lat="48.04691" lon="2.80691">
        <ele>107</ele>
        <time>2015-11-19T09:24:53Z</time>
      </trkpt>
      <trkpt lat="48.04688" lon="2.80691">
        <ele>106</ele>
        <time>2015-11-19T09:24:54Z</time>
      </trkpt>
      <trkpt lat="48.04683" lon="2.80691">
        <ele>105</ele>
        <time>2015-11-19T09:24:55Z</time>
      </trkpt>
      <trkpt lat="48.04678" lon="2.8069">
        <ele>104</ele>
        <time>2015-11-19T09:24:56Z</time>
      </trkpt>
      <trkpt lat="48.04675" lon="2.8069">
        <ele>103</ele>
        <time>2015-11-19T09:24:57Z</time>
      </trkpt>
      <trkpt lat="48.04671" lon="2.8069">
        <ele>103</ele>
        <time>2015-11-19T09:24:58Z</time>
      </trkpt>
      <trkpt lat="48.04667" lon="2.80689">
        <ele>103</ele>
        <time>2015-11-19T09:24:59Z</time>
      </trkpt>
      <trkpt lat="48.04664" lon="2.80688">
        <ele>103</ele>
        <time>2015-11-19T09:25:00Z</time>
      </trkpt>
      <trkpt lat="48.04661" lon="2.80686">
        <ele>103</ele>
        <time>2015-11-19T09:25:01Z</time>
      </trkpt>
      <trkpt lat="48.04658" lon="2.80682">
        <ele>103</ele>
        <time>2015-11-19T09:25:02Z</time>
      </trkpt>
      <trkpt lat="48.04659" lon="2.8068">
        <ele>103</ele>
        <time>2015-11-19T09:25:03Z</time>
      </trkpt>
      <trkpt lat="48.04658" lon="2.80677">
        <ele>104</ele>
        <time>2015-11-19T09:25:04Z</time>
      </trkpt>
      <trkpt lat="48.04657" lon="2.80673">
        <ele>105</ele>
        <time>2015-11-19T09:25:05Z</time>
      </trkpt>
      <trkpt lat="48.04657" lon="2.80667">
        <ele>105</ele>
        <time>2015-11-19T09:25:06Z</time>
      </trkpt>
      <trkpt lat="48.04657" lon="2.80663">
        <ele>105</ele>
        <time>2015-11-19T09:25:07Z</time>
      </trkpt>
      <trkpt lat="48.04657" lon="2.80659">
        <ele>105</ele>
        <time>2015-11-19T09:25:08Z</time>
      </trkpt>
      <trkpt lat="48.04656" lon="2.80656">
        <ele>105</ele>
        <time>2015-11-19T09:25:09Z</time>
      </trkpt>
      <trkpt lat="48.04654" lon="2.80653">
        <ele>105</ele>
        <time>2015-11-19T09:25:10Z</time>
      </trkpt>
      <trkpt lat="48.04652" lon="2.80649">
        <ele>105</ele>
        <time>2015-11-19T09:25:11Z</time>
      </trkpt>
      <trkpt lat="48.0465" lon="2.80643">
        <ele>105</ele>
        <time>2015-11-19T09:25:12Z</time>
      </trkpt>
      <trkpt lat="48.04648" lon="2.80638">
        <ele>105</ele>
        <time>2015-11-19T09:25:13Z</time>
      </trkpt>
      <trkpt lat="48.04646" lon="2.80633">
        <ele>105</ele>
        <time>2015-11-19T09:25:14Z</time>
      </trkpt>
      <trkpt lat="48.04644" lon="2.80628">
        <ele>105</ele>
        <time>2015-11-19T09:25:15Z</time>
      </trkpt>
      <trkpt lat="48.04641" lon="2.80621">
        <ele>105</ele>
        <time>2015-11-19T09:25:16Z</time>
      </trkpt>
      <trkpt lat="48.04638" lon="2.80613">
        <ele>104</ele>
        <time>2015-11-19T09:25:17Z</time>
      </trkpt>
      <trkpt lat="48.04635" lon="2.80604">
        <ele>103</ele>
        <time>2015-11-19T09:25:18Z</time>
      </trkpt>
      <trkpt lat="48.04631" lon="2.80595">
        <ele>102</ele>
        <time>2015-11-19T09:25:19Z</time>
      </trkpt>
      <trkpt lat="48.04627" lon="2.80587">
        <ele>101</ele>
        <time>2015-11-19T09:25:20Z</time>
      </trkpt>
      <trkpt lat="48.04622" lon="2.80578">
        <ele>100</ele>
        <time>2015-11-19T09:25:21Z</time>
      </trkpt>
      <trkpt lat="48.04617" lon="2.80571">
        <ele>98</ele>
        <time>2015-11-19T09:25:22Z</time>
      </trkpt>
      <trkpt lat="48.04613" lon="2.80562">
        <ele>96</ele>
        <time>2015-11-19T09:25:23Z</time>
      </trkpt>
      <trkpt lat="48.04607" lon="2.80555">
        <ele>94</ele>
        <time>2015-11-19T09:25:24Z</time>
      </trkpt>
      <trkpt lat="48.04602" lon="2.80549">
        <ele>92</ele>
        <time>2015-11-19T09:25:25Z</time>
      </trkpt>
      <trkpt lat="48.04597" lon="2.80543">
        <ele>90</ele>
        <time>2015-11-19T09:25:26Z</time>
      </trkpt>
      <trkpt lat="48.04591" lon="2.80537">
        <ele>88</ele>
        <time>2015-11-19T09:25:27Z</time>
      </trkpt>
      <trkpt lat="48.04584" lon="2.80532">
        <ele>86</ele>
        <time>2015-11-19T09:25:28Z</time>
      </trkpt>
      <trkpt lat="48.04579" lon="2.80529">
        <ele>85</ele>
        <time>2015-11-19T09:25:29Z</time>
      </trkpt>
      <trkpt lat="48.04572" lon="2.80524">
        <ele>84</ele>
        <time>2015-11-19T09:25:30Z</time>
      </trkpt>
      <trkpt lat="48.04567" lon="2.80521">
        <ele>83</ele>
        <time>2015-11-19T09:25:31Z</time>
      </trkpt>
      <trkpt lat="48.04566" lon="2.80522">
        <ele>82</ele>
        <time>2015-11-19T09:25:32Z</time>
      </trkpt>
      <trkpt lat="48.04564" lon="2.80522">
        <ele>82</ele>
        <time>2015-11-19T09:25:33Z</time>
      </trkpt>
      <trkpt lat="48.04562" lon="2.80523">
        <ele>82</ele>
        <time>2015-11-19T09:25:34Z</time>
      </trkpt>
      <trkpt lat="48.04563" lon="2.80526">
        <ele>82</ele>
        <time>2015-11-19T09:25:35Z</time>
      </trkpt>
      <trkpt lat="48.04562" lon="2.80528">
        <ele>82</ele>
        <time>2015-11-19T09:25:37Z</time>
      </trkpt>
      <trkpt lat="48.04562" lon="2.8053">
        <ele>82</ele>
        <time>2015-11-19T09:25:38Z</time>
      </trkpt>
      <trkpt lat="48.0456" lon="2.80532">
        <ele>83</ele>
        <time>2015-11-19T09:25:40Z</time>
      </trkpt>
      <trkpt lat="48.04559" lon="2.80533">
        <ele>84</ele>
        <time>2015-11-19T09:25:41Z</time>
      </trkpt>
      <trkpt lat="48.04558" lon="2.80534">
        <ele>84</ele>
        <time>2015-11-19T09:25:42Z</time>
      </trkpt>
      <trkpt lat="48.04557" lon="2.80535">
        <ele>84</ele>
        <time>2015-11-19T09:25:43Z</time>
      </trkpt>
      <trkpt lat="48.04555" lon="2.80536">
        <ele>84</ele>
        <time>2015-11-19T09:25:44Z</time>
      </trkpt>
      <trkpt lat="48.04554" lon="2.80538">
        <ele>84</ele>
        <time>2015-11-19T09:25:45Z</time>
      </trkpt>
      <trkpt lat="48.04553" lon="2.80539">
        <ele>84</ele>
        <time>2015-11-19T09:25:46Z</time>
      </trkpt>
      <trkpt lat="48.04552" lon="2.8054">
        <ele>84</ele>
        <time>2015-11-19T09:25:47Z</time>
      </trkpt>
      <trkpt lat="48.04551" lon="2.80542">
        <ele>84</ele>
        <time>2015-11-19T09:25:48Z</time>
      </trkpt>
      <trkpt lat="48.04549" lon="2.80543">
        <ele>84</ele>
        <time>2015-11-19T09:25:49Z</time>
      </trkpt>
      <trkpt lat="48.04547" lon="2.80546">
        <ele>84</ele>
        <time>2015-11-19T09:25:51Z</time>
      </trkpt>
      <trkpt lat="48.04546" lon="2.80548">
        <ele>84</ele>
        <time>2015-11-19T09:25:52Z</time>
      </trkpt>
      <trkpt lat="48.04545" lon="2.8055">
        <ele>85</ele>
        <time>2015-11-19T09:25:53Z</time>
      </trkpt>
      <trkpt lat="48.04543" lon="2.80551">
        <ele>86</ele>
        <time>2015-11-19T09:25:54Z</time>
      </trkpt>
      <trkpt lat="48.04542" lon="2.80552">
        <ele>87</ele>
        <time>2015-11-19T09:25:55Z</time>
      </trkpt>
      <trkpt lat="48.0454" lon="2.80554">
        <ele>89</ele>
        <time>2015-11-19T09:25:57Z</time>
      </trkpt>
      <trkpt lat="48.04538" lon="2.80555">
        <ele>90</ele>
        <time>2015-11-19T09:25:58Z</time>
      </trkpt>
      <trkpt lat="48.04537" lon="2.80557">
        <ele>91</ele>
        <time>2015-11-19T09:25:59Z</time>
      </trkpt>
      <trkpt lat="48.04535" lon="2.80559">
        <ele>92</ele>
        <time>2015-11-19T09:26:01Z</time>
      </trkpt>
      <trkpt lat="48.04534" lon="2.8056">
        <ele>92</ele>
        <time>2015-11-19T09:26:02Z</time>
      </trkpt>
      <trkpt lat="48.04533" lon="2.80561">
        <ele>92</ele>
        <time>2015-11-19T09:26:03Z</time>
      </trkpt>
      <trkpt lat="48.04531" lon="2.80562">
        <ele>92</ele>
        <time>2015-11-19T09:26:04Z</time>
      </trkpt>
      <trkpt lat="48.0453" lon="2.80563">
        <ele>92</ele>
        <time>2015-11-19T09:26:05Z</time>
      </trkpt>
      <trkpt lat="48.04528" lon="2.80565">
        <ele>92</ele>
        <time>2015-11-19T09:26:06Z</time>
      </trkpt>
      <trkpt lat="48.04527" lon="2.80566">
        <ele>92</ele>
        <time>2015-11-19T09:26:08Z</time>
      </trkpt>
      <trkpt lat="48.04525" lon="2.80568">
        <ele>93</ele>
        <time>2015-11-19T09:26:09Z</time>
      </trkpt>
      <trkpt lat="48.04523" lon="2.80571">
        <ele>94</ele>
        <time>2015-11-19T09:26:10Z</time>
      </trkpt>
      <trkpt lat="48.04522" lon="2.80573">
        <ele>95</ele>
        <time>2015-11-19T09:26:11Z</time>
      </trkpt>
      <trkpt lat="48.0452" lon="2.80574">
        <ele>96</ele>
        <time>2015-11-19T09:26:12Z</time>
      </trkpt>
      <trkpt lat="48.04518" lon="2.80575">
        <ele>97</ele>
        <time>2015-11-19T09:26:13Z</time>
      </trkpt>
      <trkpt lat="48.04517" lon="2.80576">
        <ele>98</ele>
        <time>2015-11-19T09:26:14Z</time>
      </trkpt>
      <trkpt lat="48.04515" lon="2.80578">
        <ele>99</ele>
        <time>2015-11-19T09:26:15Z</time>
      </trkpt>
      <trkpt lat="48.04514" lon="2.80579">
        <ele>100</ele>
        <time>2015-11-19T09:26:16Z</time>
      </trkpt>
      <trkpt lat="48.04513" lon="2.8058">
        <ele>101</ele>
        <time>2015-11-19T09:26:17Z</time>
      </trkpt>
      <trkpt lat="48.04512" lon="2.80581">
        <ele>102</ele>
        <time>2015-11-19T09:26:18Z</time>
      </trkpt>
      <trkpt lat="48.0451" lon="2.80583">
        <ele>103</ele>
        <time>2015-11-19T09:26:19Z</time>
      </trkpt>
      <trkpt lat="48.04509" lon="2.80585">
        <ele>104</ele>
        <time>2015-11-19T09:26:20Z</time>
      </trkpt>
      <trkpt lat="48.04507" lon="2.80586">
        <ele>105</ele>
        <time>2015-11-19T09:26:21Z</time>
      </trkpt>
      <trkpt lat="48.04505" lon="2.80588">
        <ele>106</ele>
        <time>2015-11-19T09:26:22Z</time>
      </trkpt>
      <trkpt lat="48.04503" lon="2.8059">
        <ele>107</ele>
        <time>2015-11-19T09:26:23Z</time>
      </trkpt>
      <trkpt lat="48.04501" lon="2.80593">
        <ele>108</ele>
        <time>2015-11-19T09:26:24Z</time>
      </trkpt>
      <trkpt lat="48.04498" lon="2.80595">
        <ele>109</ele>
        <time>2015-11-19T09:26:25Z</time>
      </trkpt>
      <trkpt lat="48.04496" lon="2.80598">
        <ele>110</ele>
        <time>2015-11-19T09:26:26Z</time>
      </trkpt>
      <trkpt lat="48.04493" lon="2.80601">
        <ele>111</ele>
        <time>2015-11-19T09:26:27Z</time>
      </trkpt>
      <trkpt lat="48.0449" lon="2.80604">
        <ele>112</ele>
        <time>2015-11-19T09:26:28Z</time>
      </trkpt>
      <trkpt lat="48.04488" lon="2.80607">
        <ele>112</ele>
        <time>2015-11-19T09:26:29Z</time>
      </trkpt>
      <trkpt lat="48.04484" lon="2.8061">
        <ele>112</ele>
        <time>2015-11-19T09:26:30Z</time>
      </trkpt>
      <trkpt lat="48.0448" lon="2.80613">
        <ele>112</ele>
        <time>2015-11-19T09:26:31Z</time>
      </trkpt>
      <trkpt lat="48.04476" lon="2.80617">
        <ele>112</ele>
        <time>2015-11-19T09:26:32Z</time>
      </trkpt>
      <trkpt lat="48.04472" lon="2.80621">
        <ele>112</ele>
        <time>2015-11-19T09:26:33Z</time>
      </trkpt>
      <trkpt lat="48.04468" lon="2.80625">
        <ele>112</ele>
        <time>2015-11-19T09:26:34Z</time>
      </trkpt>
      <trkpt lat="48.04464" lon="2.8063">
        <ele>112</ele>
        <time>2015-11-19T09:26:35Z</time>
      </trkpt>
      <trkpt lat="48.0446" lon="2.80635">
        <ele>112</ele>
        <time>2015-11-19T09:26:36Z</time>
      </trkpt>
      <trkpt lat="48.04456" lon="2.80641">
        <ele>112</ele>
        <time>2015-11-19T09:26:37Z</time>
      </trkpt>
      <trkpt lat="48.04451" lon="2.80645">
        <ele>112</ele>
        <time>2015-11-19T09:26:38Z</time>
      </trkpt>
      <trkpt lat="48.04448" lon="2.8065">
        <ele>112</ele>
        <time>2015-11-19T09:26:39Z</time>
      </trkpt>
      <trkpt lat="48.04444" lon="2.80653">
        <ele>112</ele>
        <time>2015-11-19T09:26:40Z</time>
      </trkpt>
      <trkpt lat="48.0444" lon="2.80657">
        <ele>112</ele>
        <time>2015-11-19T09:26:41Z</time>
      </trkpt>
      <trkpt lat="48.04436" lon="2.80662">
        <ele>112</ele>
        <time>2015-11-19T09:26:42Z</time>
      </trkpt>
      <trkpt lat="48.04431" lon="2.80668">
        <ele>112</ele>
        <time>2015-11-19T09:26:43Z</time>
      </trkpt>
      <trkpt lat="48.04425" lon="2.80676">
        <ele>111</ele>
        <time>2015-11-19T09:26:44Z</time>
      </trkpt>
      <trkpt lat="48.04419" lon="2.80683">
        <ele>110</ele>
        <time>2015-11-19T09:26:45Z</time>
      </trkpt>
      <trkpt lat="48.04411" lon="2.80692">
        <ele>109</ele>
        <time>2015-11-19T09:26:46Z</time>
      </trkpt>
      <trkpt lat="48.04404" lon="2.80701">
        <ele>108</ele>
        <time>2015-11-19T09:26:47Z</time>
      </trkpt>
      <trkpt lat="48.04395" lon="2.80712">
        <ele>107</ele>
        <time>2015-11-19T09:26:48Z</time>
      </trkpt>
      <trkpt lat="48.04386" lon="2.8072">
        <ele>106</ele>
        <time>2015-11-19T09:26:49Z</time>
      </trkpt>
      <trkpt lat="48.04377" lon="2.80729">
        <ele>105</ele>
        <time>2015-11-19T09:26:50Z</time>
      </trkpt>
      <trkpt lat="48.04369" lon="2.80738">
        <ele>104</ele>
        <time>2015-11-19T09:26:51Z</time>
      </trkpt>
      <trkpt lat="48.04361" lon="2.80746">
        <ele>103</ele>
        <time>2015-11-19T09:26:52Z</time>
      </trkpt>
      <trkpt lat="48.04354" lon="2.80754">
        <ele>102</ele>
        <time>2015-11-19T09:26:53Z</time>
      </trkpt>
      <trkpt lat="48.04347" lon="2.80762">
        <ele>101</ele>
        <time>2015-11-19T09:26:54Z</time>
      </trkpt>
      <trkpt lat="48.0434" lon="2.80768">
        <ele>100</ele>
        <time>2015-11-19T09:26:55Z</time>
      </trkpt>
      <trkpt lat="48.04334" lon="2.80774">
        <ele>99</ele>
        <time>2015-11-19T09:26:56Z</time>
      </trkpt>
      <trkpt lat="48.04329" lon="2.80781">
        <ele>98</ele>
        <time>2015-11-19T09:26:57Z</time>
      </trkpt>
      <trkpt lat="48.04323" lon="2.80786">
        <ele>97</ele>
        <time>2015-11-19T09:26:58Z</time>
      </trkpt>
      <trkpt lat="48.04318" lon="2.8079">
        <ele>96</ele>
        <time>2015-11-19T09:26:59Z</time>
      </trkpt>
      <trkpt lat="48.04313" lon="2.80793">
        <ele>95</ele>
        <time>2015-11-19T09:27:00Z</time>
      </trkpt>
      <trkpt lat="48.04308" lon="2.80797">
        <ele>94</ele>
        <time>2015-11-19T09:27:01Z</time>
      </trkpt>
      <trkpt lat="48.04303" lon="2.808">
        <ele>93</ele>
        <time>2015-11-19T09:27:02Z</time>
      </trkpt>
      <trkpt lat="48.04299" lon="2.80804">
        <ele>92</ele>
        <time>2015-11-19T09:27:03Z</time>
      </trkpt>
      <trkpt lat="48.04295" lon="2.80808">
        <ele>91</ele>
        <time>2015-11-19T09:27:04Z</time>
      </trkpt>
      <trkpt lat="48.0429" lon="2.80812">
        <ele>90</ele>
        <time>2015-11-19T09:27:05Z</time>
      </trkpt>
      <trkpt lat="48.04286" lon="2.80816">
        <ele>89</ele>
        <time>2015-11-19T09:27:06Z</time>
      </trkpt>
      <trkpt lat="48.04281" lon="2.8082">
        <ele>88</ele>
        <time>2015-11-19T09:27:07Z</time>
      </trkpt>
      <trkpt lat="48.04277" lon="2.80824">
        <ele>87</ele>
        <time>2015-11-19T09:27:08Z</time>
      </trkpt>
      <trkpt lat="48.04273" lon="2.80828">
        <ele>86</ele>
        <time>2015-11-19T09:27:09Z</time>
      </trkpt>
      <trkpt lat="48.04268" lon="2.80833">
        <ele>85</ele>
        <time>2015-11-19T09:27:10Z</time>
      </trkpt>
      <trkpt lat="48.04264" lon="2.80837">
        <ele>84</ele>
        <time>2015-11-19T09:27:11Z</time>
      </trkpt>
      <trkpt lat="48.0426" lon="2.80841">
        <ele>83</ele>
        <time>2015-11-19T09:27:12Z</time>
      </trkpt>
      <trkpt lat="48.04256" lon="2.80845">
        <ele>82</ele>
        <time>2015-11-19T09:27:13Z</time>
      </trkpt>
      <trkpt lat="48.04253" lon="2.80849">
        <ele>81</ele>
        <time>2015-11-19T09:27:14Z</time>
      </trkpt>
      <trkpt lat="48.04249" lon="2.80853">
        <ele>80</ele>
        <time>2015-11-19T09:27:15Z</time>
      </trkpt>
      <trkpt lat="48.04246" lon="2.80855">
        <ele>79</ele>
        <time>2015-11-19T09:27:16Z</time>
      </trkpt>
      <trkpt lat="48.04243" lon="2.80858">
        <ele>78</ele>
        <time>2015-11-19T09:27:17Z</time>
      </trkpt>
      <trkpt lat="48.0424" lon="2.80861">
        <ele>77</ele>
        <time>2015-11-19T09:27:18Z</time>
      </trkpt>
      <trkpt lat="48.04237" lon="2.80865">
        <ele>77</ele>
        <time>2015-11-19T09:27:19Z</time>
      </trkpt>
      <trkpt lat="48.04234" lon="2.80868">
        <ele>77</ele>
        <time>2015-11-19T09:27:20Z</time>
      </trkpt>
      <trkpt lat="48.04232" lon="2.80871">
        <ele>77</ele>
        <time>2015-11-19T09:27:21Z</time>
      </trkpt>
      <trkpt lat="48.04229" lon="2.80873">
        <ele>76</ele>
        <time>2015-11-19T09:27:22Z</time>
      </trkpt>
      <trkpt lat="48.04227" lon="2.80875">
        <ele>76</ele>
        <time>2015-11-19T09:27:23Z</time>
      </trkpt>
      <trkpt lat="48.04226" lon="2.80877">
        <ele>75</ele>
        <time>2015-11-19T09:27:24Z</time>
      </trkpt>
      <trkpt lat="48.04225" lon="2.80879">
        <ele>75</ele>
        <time>2015-11-19T09:27:25Z</time>
      </trkpt>
      <trkpt lat="48.04224" lon="2.80882">
        <ele>75</ele>
        <time>2015-11-19T09:27:26Z</time>
      </trkpt>
      <trkpt lat="48.04222" lon="2.80883">
        <ele>75</ele>
        <time>2015-11-19T09:27:27Z</time>
      </trkpt>
      <trkpt lat="48.04219" lon="2.80885">
        <ele>75</ele>
        <time>2015-11-19T09:27:28Z</time>
      </trkpt>
      <trkpt lat="48.04217" lon="2.80887">
        <ele>75</ele>
        <time>2015-11-19T09:27:29Z</time>
      </trkpt>
      <trkpt lat="48.04215" lon="2.8089">
        <ele>75</ele>
        <time>2015-11-19T09:27:30Z</time>
      </trkpt>
      <trkpt lat="48.04213" lon="2.80891">
        <ele>75</ele>
        <time>2015-11-19T09:27:31Z</time>
      </trkpt>
      <trkpt lat="48.04211" lon="2.80893">
        <ele>76</ele>
        <time>2015-11-19T09:27:32Z</time>
      </trkpt>
      <trkpt lat="48.0421" lon="2.80896">
        <ele>76</ele>
        <time>2015-11-19T09:27:33Z</time>
      </trkpt>
      <trkpt lat="48.0421" lon="2.809">
        <ele>76</ele>
        <time>2015-11-19T09:27:34Z</time>
      </trkpt>
      <trkpt lat="48.04208" lon="2.80903">
        <ele>76</ele>
        <time>2015-11-19T09:27:35Z</time>
      </trkpt>
      <trkpt lat="48.04207" lon="2.80906">
        <ele>77</ele>
        <time>2015-11-19T09:27:36Z</time>
      </trkpt>
      <trkpt lat="48.04205" lon="2.80908">
        <ele>77</ele>
        <time>2015-11-19T09:27:37Z</time>
      </trkpt>
      <trkpt lat="48.04203" lon="2.8091">
        <ele>77</ele>
        <time>2015-11-19T09:27:38Z</time>
      </trkpt>
      <trkpt lat="48.04201" lon="2.80912">
        <ele>78</ele>
        <time>2015-11-19T09:27:39Z</time>
      </trkpt>
      <trkpt lat="48.04199" lon="2.80913">
        <ele>78</ele>
        <time>2015-11-19T09:27:40Z</time>
      </trkpt>
      <trkpt lat="48.04197" lon="2.80916">
        <ele>79</ele>
        <time>2015-11-19T09:27:41Z</time>
      </trkpt>
      <trkpt lat="48.04194" lon="2.80918">
        <ele>79</ele>
        <time>2015-11-19T09:27:42Z</time>
      </trkpt>
      <trkpt lat="48.04192" lon="2.8092">
        <ele>80</ele>
        <time>2015-11-19T09:27:43Z</time>
      </trkpt>
      <trkpt lat="48.0419" lon="2.80922">
        <ele>80</ele>
        <time>2015-11-19T09:27:44Z</time>
      </trkpt>
      <trkpt lat="48.04189" lon="2.80923">
        <ele>80</ele>
        <time>2015-11-19T09:27:45Z</time>
      </trkpt>
      <trkpt lat="48.04187" lon="2.80924">
        <ele>81</ele>
        <time>2015-11-19T09:27:46Z</time>
      </trkpt>
      <trkpt lat="48.04186" lon="2.80926">
        <ele>81</ele>
        <time>2015-11-19T09:27:47Z</time>
      </trkpt>
      <trkpt lat="48.04184" lon="2.80927">
        <ele>82</ele>
        <time>2015-11-19T09:27:48Z</time>
      </trkpt>
      <trkpt lat="48.04182" lon="2.80928">
        <ele>82</ele>
        <time>2015-11-19T09:27:49Z</time>
      </trkpt>
      <trkpt lat="48.04181" lon="2.8093">
        <ele>83</ele>
        <time>2015-11-19T09:27:50Z</time>
      </trkpt>
      <trkpt lat="48.04179" lon="2.80932">
        <ele>83</ele>
        <time>2015-11-19T09:27:51Z</time>
      </trkpt>
      <trkpt lat="48.04178" lon="2.80934">
        <ele>83</ele>
        <time>2015-11-19T09:27:52Z</time>
      </trkpt>
      <trkpt lat="48.04176" lon="2.80935">
        <ele>84</ele>
        <time>2015-11-19T09:27:53Z</time>
      </trkpt>
      <trkpt lat="48.04175" lon="2.80937">
        <ele>85</ele>
        <time>2015-11-19T09:27:54Z</time>
      </trkpt>
      <trkpt lat="48.04174" lon="2.80938">
        <ele>86</ele>
        <time>2015-11-19T09:27:55Z</time>
      </trkpt>
      <trkpt lat="48.04172" lon="2.80941">
        <ele>87</ele>
        <time>2015-11-19T09:27:56Z</time>
      </trkpt>
      <trkpt lat="48.04171" lon="2.80942">
        <ele>88</ele>
        <time>2015-11-19T09:27:57Z</time>
      </trkpt>
      <trkpt lat="48.0417" lon="2.80943">
        <ele>89</ele>
        <time>2015-11-19T09:27:58Z</time>
      </trkpt>
      <trkpt lat="48.04169" lon="2.80944">
        <ele>90</ele>
        <time>2015-11-19T09:27:59Z</time>
      </trkpt>
      <trkpt lat="48.04167" lon="2.80945">
        <ele>91</ele>
        <time>2015-11-19T09:28:00Z</time>
      </trkpt>
      <trkpt lat="48.04166" lon="2.80947">
        <ele>92</ele>
        <time>2015-11-19T09:28:01Z</time>
      </trkpt>
      <trkpt lat="48.04165" lon="2.80949">
        <ele>93</ele>
        <time>2015-11-19T09:28:02Z</time>
      </trkpt>
      <trkpt lat="48.04164" lon="2.8095">
        <ele>93</ele>
        <time>2015-11-19T09:28:03Z</time>
      </trkpt>
      <trkpt lat="48.04162" lon="2.80952">
        <ele>93</ele>
        <time>2015-11-19T09:28:04Z</time>
      </trkpt>
      <trkpt lat="48.04161" lon="2.80953">
        <ele>93</ele>
        <time>2015-11-19T09:28:05Z</time>
      </trkpt>
      <trkpt lat="48.04158" lon="2.80954">
        <ele>94</ele>
        <time>2015-11-19T09:28:06Z</time>
      </trkpt>
      <trkpt lat="48.04157" lon="2.80956">
        <ele>94</ele>
        <time>2015-11-19T09:28:07Z</time>
      </trkpt>
      <trkpt lat="48.04155" lon="2.80958">
        <ele>95</ele>
        <time>2015-11-19T09:28:08Z</time>
      </trkpt>
      <trkpt lat="48.04154" lon="2.80959">
        <ele>96</ele>
        <time>2015-11-19T09:28:09Z</time>
      </trkpt>
      <trkpt lat="48.04153" lon="2.80961">
        <ele>96</ele>
        <time>2015-11-19T09:28:10Z</time>
      </trkpt>
      <trkpt lat="48.04152" lon="2.80963">
        <ele>97</ele>
        <time>2015-11-19T09:28:11Z</time>
      </trkpt>
      <trkpt lat="48.04151" lon="2.80964">
        <ele>97</ele>
        <time>2015-11-19T09:28:12Z</time>
      </trkpt>
      <trkpt lat="48.04149" lon="2.80966">
        <ele>97</ele>
        <time>2015-11-19T09:28:13Z</time>
      </trkpt>
      <trkpt lat="48.04148" lon="2.80967">
        <ele>97</ele>
        <time>2015-11-19T09:28:14Z</time>
      </trkpt>
      <trkpt lat="48.04146" lon="2.80969">
        <ele>97</ele>
        <time>2015-11-19T09:28:15Z</time>
      </trkpt>
      <trkpt lat="48.04145" lon="2.8097">
        <ele>98</ele>
        <time>2015-11-19T09:28:16Z</time>
      </trkpt>
      <trkpt lat="48.04143" lon="2.80972">
        <ele>98</ele>
        <time>2015-11-19T09:28:17Z</time>
      </trkpt>
      <trkpt lat="48.04141" lon="2.80973">
        <ele>98</ele>
        <time>2015-11-19T09:28:18Z</time>
      </trkpt>
      <trkpt lat="48.04139" lon="2.80974">
        <ele>99</ele>
        <time>2015-11-19T09:28:19Z</time>
      </trkpt>
      <trkpt lat="48.04138" lon="2.80976">
        <ele>99</ele>
        <time>2015-11-19T09:28:20Z</time>
      </trkpt>
      <trkpt lat="48.04137" lon="2.80977">
        <ele>99</ele>
        <time>2015-11-19T09:28:21Z</time>
      </trkpt>
      <trkpt lat="48.04135" lon="2.80979">
        <ele>99</ele>
        <time>2015-11-19T09:28:22Z</time>
      </trkpt>
      <trkpt lat="48.04134" lon="2.8098">
        <ele>100</ele>
        <time>2015-11-19T09:28:23Z</time>
      </trkpt>
      <trkpt lat="48.04132" lon="2.80982">
        <ele>100</ele>
        <time>2015-11-19T09:28:24Z</time>
      </trkpt>
      <trkpt lat="48.04131" lon="2.80984">
        <ele>101</ele>
        <time>2015-11-19T09:28:25Z</time>
      </trkpt>
      <trkpt lat="48.04129" lon="2.80986">
        <ele>101</ele>
        <time>2015-11-19T09:28:26Z</time>
      </trkpt>
      <trkpt lat="48.04128" lon="2.80988">
        <ele>102</ele>
        <time>2015-11-19T09:28:27Z</time>
      </trkpt>
      <trkpt lat="48.04126" lon="2.8099">
        <ele>102</ele>
        <time>2015-11-19T09:28:28Z</time>
      </trkpt>
      <trkpt lat="48.04124" lon="2.80992">
        <ele>102</ele>
        <time>2015-11-19T09:28:29Z</time>
      </trkpt>
      <trkpt lat="48.04123" lon="2.80994">
        <ele>102</ele>
        <time>2015-11-19T09:28:30Z</time>
      </trkpt>
      <trkpt lat="48.04121" lon="2.80996">
        <ele>102</ele>
        <time>2015-11-19T09:28:31Z</time>
      </trkpt>
      <trkpt lat="48.04118" lon="2.80998">
        <ele>102</ele>
        <time>2015-11-19T09:28:32Z</time>
      </trkpt>
      <trkpt lat="48.04116" lon="2.81">
        <ele>102</ele>
        <time>2015-11-19T09:28:33Z</time>
      </trkpt>
      <trkpt lat="48.04115" lon="2.81002">
        <ele>102</ele>
        <time>2015-11-19T09:28:34Z</time>
      </trkpt>
      <trkpt lat="48.04113" lon="2.81004">
        <ele>102</ele>
        <time>2015-11-19T09:28:35Z</time>
      </trkpt>
      <trkpt lat="48.04111" lon="2.81006">
        <ele>102</ele>
        <time>2015-11-19T09:28:36Z</time>
      </trkpt>
      <trkpt lat="48.04109" lon="2.81008">
        <ele>102</ele>
        <time>2015-11-19T09:28:37Z</time>
      </trkpt>
      <trkpt lat="48.04107" lon="2.81011">
        <ele>102</ele>
        <time>2015-11-19T09:28:38Z</time>
      </trkpt>
      <trkpt lat="48.04105" lon="2.81013">
        <ele>102</ele>
        <time>2015-11-19T09:28:39Z</time>
      </trkpt>
      <trkpt lat="48.04103" lon="2.81015">
        <ele>102</ele>
        <time>2015-11-19T09:28:40Z</time>
      </trkpt>
      <trkpt lat="48.04101" lon="2.81017">
        <ele>102</ele>
        <time>2015-11-19T09:28:41Z</time>
      </trkpt>
      <trkpt lat="48.04099" lon="2.81019">
        <ele>102</ele>
        <time>2015-11-19T09:28:42Z</time>
      </trkpt>
      <trkpt lat="48.04097" lon="2.81021">
        <ele>102</ele>
        <time>2015-11-19T09:28:43Z</time>
      </trkpt>
      <trkpt lat="48.04096" lon="2.81024">
        <ele>102</ele>
        <time>2015-11-19T09:28:44Z</time>
      </trkpt>
      <trkpt lat="48.04094" lon="2.81027">
        <ele>102</ele>
        <time>2015-11-19T09:28:45Z</time>
      </trkpt>
      <trkpt lat="48.04093" lon="2.81029">
        <ele>102</ele>
        <time>2015-11-19T09:28:46Z</time>
      </trkpt>
      <trkpt lat="48.04092" lon="2.81032">
        <ele>102</ele>
        <time>2015-11-19T09:28:47Z</time>
      </trkpt>
      <trkpt lat="48.0409" lon="2.81035">
        <ele>102</ele>
        <time>2015-11-19T09:28:48Z</time>
      </trkpt>
      <trkpt lat="48.04088" lon="2.81037">
        <ele>102</ele>
        <time>2015-11-19T09:28:49Z</time>
      </trkpt>
      <trkpt lat="48.04087" lon="2.8104">
        <ele>102</ele>
        <time>2015-11-19T09:28:50Z</time>
      </trkpt>
      <trkpt lat="48.04085" lon="2.81043">
        <ele>102</ele>
        <time>2015-11-19T09:28:51Z</time>
      </trkpt>
      <trkpt lat="48.04084" lon="2.81045">
        <ele>102</ele>
        <time>2015-11-19T09:28:52Z</time>
      </trkpt>
      <trkpt lat="48.04082" lon="2.81048">
        <ele>102</ele>
        <time>2015-11-19T09:28:53Z</time>
      </trkpt>
      <trkpt lat="48.04081" lon="2.81051">
        <ele>102</ele>
        <time>2015-11-19T09:28:54Z</time>
      </trkpt>
      <trkpt lat="48.0408" lon="2.81054">
        <ele>102</ele>
        <time>2015-11-19T09:28:55Z</time>
      </trkpt>
      <trkpt lat="48.04079" lon="2.81056">
        <ele>102</ele>
        <time>2015-11-19T09:28:56Z</time>
      </trkpt>
      <trkpt lat="48.04078" lon="2.81059">
        <ele>102</ele>
        <time>2015-11-19T09:28:57Z</time>
      </trkpt>
      <trkpt lat="48.04077" lon="2.81062">
        <ele>102</ele>
        <time>2015-11-19T09:28:58Z</time>
      </trkpt>
      <trkpt lat="48.04076" lon="2.81064">
        <ele>102</ele>
        <time>2015-11-19T09:28:59Z</time>
      </trkpt>
      <trkpt lat="48.04075" lon="2.81066">
        <ele>102</ele>
        <time>2015-11-19T09:29:00Z</time>
      </trkpt>
      <trkpt lat="48.04074" lon="2.81069">
        <ele>102</ele>
        <time>2015-11-19T09:29:01Z</time>
      </trkpt>
      <trkpt lat="48.04073" lon="2.81072">
        <ele>102</ele>
        <time>2015-11-19T09:29:02Z</time>
      </trkpt>
      <trkpt lat="48.04071" lon="2.81075">
        <ele>102</ele>
        <time>2015-11-19T09:29:03Z</time>
      </trkpt>
      <trkpt lat="48.0407" lon="2.81078">
        <ele>102</ele>
        <time>2015-11-19T09:29:04Z</time>
      </trkpt>
      <trkpt lat="48.04069" lon="2.81081">
        <ele>102</ele>
        <time>2015-11-19T09:29:05Z</time>
      </trkpt>
      <trkpt lat="48.04068" lon="2.81084">
        <ele>102</ele>
        <time>2015-11-19T09:29:06Z</time>
      </trkpt>
      <trkpt lat="48.04067" lon="2.81086">
        <ele>102</ele>
        <time>2015-11-19T09:29:07Z</time>
      </trkpt>
      <trkpt lat="48.04066" lon="2.81089">
        <ele>102</ele>
        <time>2015-11-19T09:29:08Z</time>
      </trkpt>
      <trkpt lat="48.04066" lon="2.81092">
        <ele>102</ele>
        <time>2015-11-19T09:29:09Z</time>
      </trkpt>
      <trkpt lat="48.04066" lon="2.81095">
        <ele>103</ele>
        <time>2015-11-19T09:29:10Z</time>
      </trkpt>
      <trkpt lat="48.04066" lon="2.81099">
        <ele>103</ele>
        <time>2015-11-19T09:29:12Z</time>
      </trkpt>
      <trkpt lat="48.04066" lon="2.81102">
        <ele>104</ele>
        <time>2015-11-19T09:29:13Z</time>
      </trkpt>
      <trkpt lat="48.04065" lon="2.81106">
        <ele>104</ele>
        <time>2015-11-19T09:29:14Z</time>
      </trkpt>
      <trkpt lat="48.04064" lon="2.81112">
        <ele>105</ele>
        <time>2015-11-19T09:29:15Z</time>
      </trkpt>
      <trkpt lat="48.04063" lon="2.81114">
        <ele>106</ele>
        <time>2015-11-19T09:29:16Z</time>
      </trkpt>
      <trkpt lat="48.04063" lon="2.81117">
        <ele>107</ele>
        <time>2015-11-19T09:29:17Z</time>
      </trkpt>
      <trkpt lat="48.04063" lon="2.8112">
        <ele>107</ele>
        <time>2015-11-19T09:29:18Z</time>
      </trkpt>
      <trkpt lat="48.04062" lon="2.81124">
        <ele>108</ele>
        <time>2015-11-19T09:29:19Z</time>
      </trkpt>
      <trkpt lat="48.04062" lon="2.81128">
        <ele>109</ele>
        <time>2015-11-19T09:29:20Z</time>
      </trkpt>
      <trkpt lat="48.04062" lon="2.8113">
        <ele>110</ele>
        <time>2015-11-19T09:29:21Z</time>
      </trkpt>
      <trkpt lat="48.04061" lon="2.81133">
        <ele>111</ele>
        <time>2015-11-19T09:29:22Z</time>
      </trkpt>
      <trkpt lat="48.0406" lon="2.81137">
        <ele>112</ele>
        <time>2015-11-19T09:29:23Z</time>
      </trkpt>
      <trkpt lat="48.0406" lon="2.8114">
        <ele>113</ele>
        <time>2015-11-19T09:29:24Z</time>
      </trkpt>
      <trkpt lat="48.0406" lon="2.81143">
        <ele>114</ele>
        <time>2015-11-19T09:29:25Z</time>
      </trkpt>
      <trkpt lat="48.0406" lon="2.81146">
        <ele>115</ele>
        <time>2015-11-19T09:29:26Z</time>
      </trkpt>
      <trkpt lat="48.04059" lon="2.8115">
        <ele>116</ele>
        <time>2015-11-19T09:29:27Z</time>
      </trkpt>
      <trkpt lat="48.04058" lon="2.81153">
        <ele>117</ele>
        <time>2015-11-19T09:29:28Z</time>
      </trkpt>
      <trkpt lat="48.04057" lon="2.81157">
        <ele>117</ele>
        <time>2015-11-19T09:29:29Z</time>
      </trkpt>
      <trkpt lat="48.04057" lon="2.8116">
        <ele>118</ele>
        <time>2015-11-19T09:29:30Z</time>
      </trkpt>
      <trkpt lat="48.04057" lon="2.81164">
        <ele>118</ele>
        <time>2015-11-19T09:29:31Z</time>
      </trkpt>
      <trkpt lat="48.04055" lon="2.81167">
        <ele>119</ele>
        <time>2015-11-19T09:29:32Z</time>
      </trkpt>
      <trkpt lat="48.04055" lon="2.81169">
        <ele>120</ele>
        <time>2015-11-19T09:29:33Z</time>
      </trkpt>
      <trkpt lat="48.04055" lon="2.81172">
        <ele>121</ele>
        <time>2015-11-19T09:29:34Z</time>
      </trkpt>
      <trkpt lat="48.04055" lon="2.81175">
        <ele>121</ele>
        <time>2015-11-19T09:29:35Z</time>
      </trkpt>
      <trkpt lat="48.04054" lon="2.81178">
        <ele>121</ele>
        <time>2015-11-19T09:29:36Z</time>
      </trkpt>
      <trkpt lat="48.04053" lon="2.8118">
        <ele>121</ele>
        <time>2015-11-19T09:29:37Z</time>
      </trkpt>
      <trkpt lat="48.04052" lon="2.81183">
        <ele>121</ele>
        <time>2015-11-19T09:29:38Z</time>
      </trkpt>
      <trkpt lat="48.04051" lon="2.81187">
        <ele>121</ele>
        <time>2015-11-19T09:29:39Z</time>
      </trkpt>
      <trkpt lat="48.04049" lon="2.81191">
        <ele>121</ele>
        <time>2015-11-19T09:29:40Z</time>
      </trkpt>
      <trkpt lat="48.04048" lon="2.81195">
        <ele>121</ele>
        <time>2015-11-19T09:29:41Z</time>
      </trkpt>
      <trkpt lat="48.04048" lon="2.81201">
        <ele>121</ele>
        <time>2015-11-19T09:29:42Z</time>
      </trkpt>
      <trkpt lat="48.04047" lon="2.81205">
        <ele>121</ele>
        <time>2015-11-19T09:29:43Z</time>
      </trkpt>
      <trkpt lat="48.04047" lon="2.81211">
        <ele>121</ele>
        <time>2015-11-19T09:29:44Z</time>
      </trkpt>
      <trkpt lat="48.04045" lon="2.81216">
        <ele>121</ele>
        <time>2015-11-19T09:29:45Z</time>
      </trkpt>
      <trkpt lat="48.04044" lon="2.81221">
        <ele>121</ele>
        <time>2015-11-19T09:29:46Z</time>
      </trkpt>
      <trkpt lat="48.04042" lon="2.81226">
        <ele>121</ele>
        <time>2015-11-19T09:29:47Z</time>
      </trkpt>
      <trkpt lat="48.04041" lon="2.81231">
        <ele>121</ele>
        <time>2015-11-19T09:29:48Z</time>
      </trkpt>
      <trkpt lat="48.04039" lon="2.81236">
        <ele>121</ele>
        <time>2015-11-19T09:29:49Z</time>
      </trkpt>
      <trkpt lat="48.04038" lon="2.81243">
        <ele>121</ele>
        <time>2015-11-19T09:29:50Z</time>
      </trkpt>
      <trkpt lat="48.04037" lon="2.81249">
        <ele>121</ele>
        <time>2015-11-19T09:29:51Z</time>
      </trkpt>
      <trkpt lat="48.04035" lon="2.81254">
        <ele>121</ele>
        <time>2015-11-19T09:29:52Z</time>
      </trkpt>
      <trkpt lat="48.04033" lon="2.81261">
        <ele>121</ele>
        <time>2015-11-19T09:29:53Z</time>
      </trkpt>
      <trkpt lat="48.04031" lon="2.81267">
        <ele>121</ele>
        <time>2015-11-19T09:29:54Z</time>
      </trkpt>
      <trkpt lat="48.04029" lon="2.81273">
        <ele>121</ele>
        <time>2015-11-19T09:29:55Z</time>
      </trkpt>
      <trkpt lat="48.04028" lon="2.81278">
        <ele>121</ele>
        <time>2015-11-19T09:29:56Z</time>
      </trkpt>
      <trkpt lat="48.04028" lon="2.81284">
        <ele>121</ele>
        <time>2015-11-19T09:29:57Z</time>
      </trkpt>
      <trkpt lat="48.04026" lon="2.81292">
        <ele>121</ele>
        <time>2015-11-19T09:29:58Z</time>
      </trkpt>
      <trkpt lat="48.04024" lon="2.81299">
        <ele>121</ele>
        <time>2015-11-19T09:29:59Z</time>
      </trkpt>
      <trkpt lat="48.04023" lon="2.81307">
        <ele>121</ele>
        <time>2015-11-19T09:30:00Z</time>
      </trkpt>
      <trkpt lat="48.04021" lon="2.81314">
        <ele>121</ele>
        <time>2015-11-19T09:30:01Z</time>
      </trkpt>
      <trkpt lat="48.0402" lon="2.81321">
        <ele>121</ele>
        <time>2015-11-19T09:30:02Z</time>
      </trkpt>
      <trkpt lat="48.04019" lon="2.81329">
        <ele>121</ele>
        <time>2015-11-19T09:30:03Z</time>
      </trkpt>
      <trkpt lat="48.04016" lon="2.81337">
        <ele>121</ele>
        <time>2015-11-19T09:30:04Z</time>
      </trkpt>
      <trkpt lat="48.04015" lon="2.81344">
        <ele>121</ele>
        <time>2015-11-19T09:30:05Z</time>
      </trkpt>
      <trkpt lat="48.04013" lon="2.81351">
        <ele>121</ele>
        <time>2015-11-19T09:30:06Z</time>
      </trkpt>
      <trkpt lat="48.04011" lon="2.81358">
        <ele>121</ele>
        <time>2015-11-19T09:30:07Z</time>
      </trkpt>
      <trkpt lat="48.04009" lon="2.81365">
        <ele>122</ele>
        <time>2015-11-19T09:30:08Z</time>
      </trkpt>
      <trkpt lat="48.04007" lon="2.81372">
        <ele>123</ele>
        <time>2015-11-19T09:30:09Z</time>
      </trkpt>
      <trkpt lat="48.04005" lon="2.81378">
        <ele>124</ele>
        <time>2015-11-19T09:30:10Z</time>
      </trkpt>
      <trkpt lat="48.04003" lon="2.81384">
        <ele>125</ele>
        <time>2015-11-19T09:30:11Z</time>
      </trkpt>
      <trkpt lat="48.04" lon="2.81392">
        <ele>126</ele>
        <time>2015-11-19T09:30:12Z</time>
      </trkpt>
      <trkpt lat="48.03999" lon="2.81399">
        <ele>127</ele>
        <time>2015-11-19T09:30:13Z</time>
      </trkpt>
      <trkpt lat="48.03997" lon="2.81405">
        <ele>127</ele>
        <time>2015-11-19T09:30:14Z</time>
      </trkpt>
      <trkpt lat="48.03994" lon="2.81411">
        <ele>127</ele>
        <time>2015-11-19T09:30:15Z</time>
      </trkpt>
      <trkpt lat="48.03992" lon="2.81418">
        <ele>127</ele>
        <time>2015-11-19T09:30:16Z</time>
      </trkpt>
      <trkpt lat="48.0399" lon="2.81426">
        <ele>127</ele>
        <time>2015-11-19T09:30:17Z</time>
      </trkpt>
      <trkpt lat="48.03989" lon="2.81433">
        <ele>127</ele>
        <time>2015-11-19T09:30:18Z</time>
      </trkpt>
      <trkpt lat="48.03986" lon="2.8144">
        <ele>127</ele>
        <time>2015-11-19T09:30:19Z</time>
      </trkpt>
      <trkpt lat="48.03985" lon="2.81448">
        <ele>127</ele>
        <time>2015-11-19T09:30:20Z</time>
      </trkpt>
      <trkpt lat="48.03982" lon="2.81455">
        <ele>126</ele>
        <time>2015-11-19T09:30:21Z</time>
      </trkpt>
      <trkpt lat="48.0398" lon="2.81463">
        <ele>125</ele>
        <time>2015-11-19T09:30:22Z</time>
      </trkpt>
      <trkpt lat="48.03979" lon="2.81469">
        <ele>124</ele>
        <time>2015-11-19T09:30:23Z</time>
      </trkpt>
      <trkpt lat="48.03978" lon="2.81475">
        <ele>123</ele>
        <time>2015-11-19T09:30:24Z</time>
      </trkpt>
      <trkpt lat="48.03976" lon="2.81482">
        <ele>122</ele>
        <time>2015-11-19T09:30:25Z</time>
      </trkpt>
      <trkpt lat="48.03973" lon="2.81489">
        <ele>121</ele>
        <time>2015-11-19T09:30:26Z</time>
      </trkpt>
      <trkpt lat="48.03971" lon="2.81496">
        <ele>120</ele>
        <time>2015-11-19T09:30:27Z</time>
      </trkpt>
      <trkpt lat="48.03969" lon="2.81503">
        <ele>119</ele>
        <time>2015-11-19T09:30:28Z</time>
      </trkpt>
      <trkpt lat="48.03966" lon="2.81512">
        <ele>118</ele>
        <time>2015-11-19T09:30:29Z</time>
      </trkpt>
      <trkpt lat="48.03964" lon="2.8152">
        <ele>117</ele>
        <time>2015-11-19T09:30:30Z</time>
      </trkpt>
      <trkpt lat="48.03962" lon="2.81528">
        <ele>117</ele>
        <time>2015-11-19T09:30:31Z</time>
      </trkpt>
      <trkpt lat="48.0396" lon="2.81537">
        <ele>117</ele>
        <time>2015-11-19T09:30:32Z</time>
      </trkpt>
      <trkpt lat="48.03958" lon="2.81545">
        <ele>117</ele>
        <time>2015-11-19T09:30:33Z</time>
      </trkpt>
      <trkpt lat="48.03957" lon="2.81554">
        <ele>117</ele>
        <time>2015-11-19T09:30:34Z</time>
      </trkpt>
      <trkpt lat="48.03954" lon="2.81563">
        <ele>117</ele>
        <time>2015-11-19T09:30:35Z</time>
      </trkpt>
      <trkpt lat="48.03952" lon="2.81572">
        <ele>118</ele>
        <time>2015-11-19T09:30:36Z</time>
      </trkpt>
      <trkpt lat="48.0395" lon="2.8158">
        <ele>119</ele>
        <time>2015-11-19T09:30:37Z</time>
      </trkpt>
      <trkpt lat="48.03947" lon="2.81586">
        <ele>120</ele>
        <time>2015-11-19T09:30:38Z</time>
      </trkpt>
      <trkpt lat="48.03943" lon="2.81592">
        <ele>121</ele>
        <time>2015-11-19T09:30:39Z</time>
      </trkpt>
      <trkpt lat="48.03939" lon="2.81598">
        <ele>122</ele>
        <time>2015-11-19T09:30:40Z</time>
      </trkpt>
      <trkpt lat="48.03935" lon="2.81603">
        <ele>123</ele>
        <time>2015-11-19T09:30:41Z</time>
      </trkpt>
      <trkpt lat="48.0393" lon="2.81606">
        <ele>124</ele>
        <time>2015-11-19T09:30:42Z</time>
      </trkpt>
      <trkpt lat="48.03925" lon="2.81607">
        <ele>125</ele>
        <time>2015-11-19T09:30:43Z</time>
      </trkpt>
      <trkpt lat="48.03921" lon="2.81605">
        <ele>125</ele>
        <time>2015-11-19T09:30:44Z</time>
      </trkpt>
      <trkpt lat="48.03916" lon="2.81601">
        <ele>125</ele>
        <time>2015-11-19T09:30:45Z</time>
      </trkpt>
      <trkpt lat="48.03912" lon="2.81597">
        <ele>125</ele>
        <time>2015-11-19T09:30:46Z</time>
      </trkpt>
      <trkpt lat="48.03908" lon="2.81593">
        <ele>125</ele>
        <time>2015-11-19T09:30:47Z</time>
      </trkpt>
      <trkpt lat="48.03904" lon="2.81589">
        <ele>125</ele>
        <time>2015-11-19T09:30:48Z</time>
      </trkpt>
      <trkpt lat="48.03901" lon="2.81584">
        <ele>125</ele>
        <time>2015-11-19T09:30:49Z</time>
      </trkpt>
      <trkpt lat="48.03899" lon="2.8158">
        <ele>125</ele>
        <time>2015-11-19T09:30:50Z</time>
      </trkpt>
      <trkpt lat="48.03897" lon="2.81579">
        <ele>125</ele>
        <time>2015-11-19T09:30:51Z</time>
      </trkpt>
      <trkpt lat="48.03894" lon="2.81581">
        <ele>125</ele>
        <time>2015-11-19T09:30:52Z</time>
      </trkpt>
      <trkpt lat="48.03891" lon="2.81582">
        <ele>125</ele>
        <time>2015-11-19T09:30:53Z</time>
      </trkpt>
      <trkpt lat="48.0389" lon="2.81585">
        <ele>125</ele>
        <time>2015-11-19T09:30:54Z</time>
      </trkpt>
      <trkpt lat="48.03889" lon="2.81588">
        <ele>125</ele>
        <time>2015-11-19T09:30:55Z</time>
      </trkpt>
      <trkpt lat="48.03888" lon="2.81592">
        <ele>125</ele>
        <time>2015-11-19T09:30:56Z</time>
      </trkpt>
      <trkpt lat="48.03888" lon="2.81596">
        <ele>125</ele>
        <time>2015-11-19T09:30:57Z</time>
      </trkpt>
      <trkpt lat="48.03887" lon="2.81601">
        <ele>125</ele>
        <time>2015-11-19T09:30:58Z</time>
      </trkpt>
      <trkpt lat="48.03886" lon="2.81603">
        <ele>125</ele>
        <time>2015-11-19T09:30:59Z</time>
      </trkpt>
      <trkpt lat="48.03884" lon="2.81606">
        <ele>124</ele>
        <time>2015-11-19T09:31:00Z</time>
      </trkpt>
      <trkpt lat="48.03883" lon="2.81612">
        <ele>123</ele>
        <time>2015-11-19T09:31:01Z</time>
      </trkpt>
      <trkpt lat="48.03881" lon="2.81618">
        <ele>122</ele>
        <time>2015-11-19T09:31:02Z</time>
      </trkpt>
      <trkpt lat="48.03878" lon="2.81624">
        <ele>121</ele>
        <time>2015-11-19T09:31:03Z</time>
      </trkpt>
      <trkpt lat="48.03875" lon="2.8163">
        <ele>120</ele>
        <time>2015-11-19T09:31:04Z</time>
      </trkpt>
      <trkpt lat="48.03871" lon="2.81636">
        <ele>119</ele>
        <time>2015-11-19T09:31:05Z</time>
      </trkpt>
      <trkpt lat="48.03866" lon="2.81642">
        <ele>118</ele>
        <time>2015-11-19T09:31:06Z</time>
      </trkpt>
      <trkpt lat="48.03862" lon="2.81648">
        <ele>117</ele>
        <time>2015-11-19T09:31:07Z</time>
      </trkpt>
      <trkpt lat="48.03857" lon="2.81654">
        <ele>116</ele>
        <time>2015-11-19T09:31:08Z</time>
      </trkpt>
      <trkpt lat="48.03852" lon="2.81661">
        <ele>116</ele>
        <time>2015-11-19T09:31:09Z</time>
      </trkpt>
      <trkpt lat="48.03849" lon="2.81666">
        <ele>116</ele>
        <time>2015-11-19T09:31:10Z</time>
      </trkpt>
      <trkpt lat="48.03846" lon="2.81671">
        <ele>116</ele>
        <time>2015-11-19T09:31:11Z</time>
      </trkpt>
      <trkpt lat="48.03844" lon="2.81675">
        <ele>116</ele>
        <time>2015-11-19T09:31:12Z</time>
      </trkpt>
      <trkpt lat="48.0384" lon="2.81677">
        <ele>116</ele>
        <time>2015-11-19T09:31:13Z</time>
      </trkpt>
      <trkpt lat="48.03836" lon="2.81678">
        <ele>116</ele>
        <time>2015-11-19T09:31:14Z</time>
      </trkpt>
      <trkpt lat="48.03834" lon="2.81678">
        <ele>116</ele>
        <time>2015-11-19T09:31:15Z</time>
      </trkpt>
      <trkpt lat="48.03832" lon="2.8168">
        <ele>115</ele>
        <time>2015-11-19T09:31:16Z</time>
      </trkpt>
      <trkpt lat="48.0383" lon="2.81683">
        <ele>114</ele>
        <time>2015-11-19T09:31:17Z</time>
      </trkpt>
      <trkpt lat="48.03827" lon="2.81689">
        <ele>113</ele>
        <time>2015-11-19T09:31:18Z</time>
      </trkpt>
      <trkpt lat="48.03824" lon="2.81694">
        <ele>112</ele>
        <time>2015-11-19T09:31:19Z</time>
      </trkpt>
      <trkpt lat="48.03821" lon="2.81698">
        <ele>111</ele>
        <time>2015-11-19T09:31:20Z</time>
      </trkpt>
      <trkpt lat="48.03819" lon="2.81699">
        <ele>110</ele>
        <time>2015-11-19T09:31:21Z</time>
      </trkpt>
      <trkpt lat="48.03818" lon="2.817">
        <ele>109</ele>
        <time>2015-11-19T09:31:22Z</time>
      </trkpt>
      <trkpt lat="48.03817" lon="2.81697">
        <ele>108</ele>
        <time>2015-11-19T09:31:23Z</time>
      </trkpt>
      <trkpt lat="48.03817" lon="2.81695">
        <ele>107</ele>
        <time>2015-11-19T09:31:24Z</time>
      </trkpt>
      <trkpt lat="48.03815" lon="2.81692">
        <ele>107</ele>
        <time>2015-11-19T09:31:25Z</time>
      </trkpt>
      <trkpt lat="48.03814" lon="2.8169">
        <ele>106</ele>
        <time>2015-11-19T09:31:26Z</time>
      </trkpt>
      <trkpt lat="48.03812" lon="2.8169">
        <ele>104</ele>
        <time>2015-11-19T09:31:28Z</time>
      </trkpt>
      <trkpt lat="48.03813" lon="2.8169">
        <ele>102</ele>
        <time>2015-11-19T09:31:30Z</time>
      </trkpt>
      <trkpt lat="48.03814" lon="2.81691">
        <ele>102</ele>
        <time>2015-11-19T09:31:31Z</time>
      </trkpt>
      <trkpt lat="48.03812" lon="2.81693">
        <ele>102</ele>
        <time>2015-11-19T09:31:32Z</time>
      </trkpt>
      <trkpt lat="48.03811" lon="2.81695">
        <ele>102</ele>
        <time>2015-11-19T09:31:33Z</time>
      </trkpt>
      <trkpt lat="48.03809" lon="2.81695">
        <ele>102</ele>
        <time>2015-11-19T09:31:34Z</time>
      </trkpt>
      <trkpt lat="48.03808" lon="2.81697">
        <ele>102</ele>
        <time>2015-11-19T09:31:35Z</time>
      </trkpt>
      <trkpt lat="48.03807" lon="2.81698">
        <ele>102</ele>
        <time>2015-11-19T09:31:36Z</time>
      </trkpt>
      <trkpt lat="48.03805" lon="2.817">
        <ele>101</ele>
        <time>2015-11-19T09:31:37Z</time>
      </trkpt>
      <trkpt lat="48.03804" lon="2.81701">
        <ele>100</ele>
        <time>2015-11-19T09:31:38Z</time>
      </trkpt>
      <trkpt lat="48.03802" lon="2.81703">
        <ele>99</ele>
        <time>2015-11-19T09:31:39Z</time>
      </trkpt>
      <trkpt lat="48.038" lon="2.81704">
        <ele>98</ele>
        <time>2015-11-19T09:31:40Z</time>
      </trkpt>
      <trkpt lat="48.03799" lon="2.81706">
        <ele>97</ele>
        <time>2015-11-19T09:31:41Z</time>
      </trkpt>
      <trkpt lat="48.03797" lon="2.81708">
        <ele>96</ele>
        <time>2015-11-19T09:31:42Z</time>
      </trkpt>
      <trkpt lat="48.03796" lon="2.81709">
        <ele>96</ele>
        <time>2015-11-19T09:31:43Z</time>
      </trkpt>
      <trkpt lat="48.03795" lon="2.8171">
        <ele>96</ele>
        <time>2015-11-19T09:31:44Z</time>
      </trkpt>
      <trkpt lat="48.03793" lon="2.81713">
        <ele>96</ele>
        <time>2015-11-19T09:31:46Z</time>
      </trkpt>
      <trkpt lat="48.03791" lon="2.81714">
        <ele>96</ele>
        <time>2015-11-19T09:31:47Z</time>
      </trkpt>
      <trkpt lat="48.03789" lon="2.81715">
        <ele>96</ele>
        <time>2015-11-19T09:31:49Z</time>
      </trkpt>
      <trkpt lat="48.03786" lon="2.81713">
        <ele>96</ele>
        <time>2015-11-19T09:31:50Z</time>
      </trkpt>
      <trkpt lat="48.03785" lon="2.81712">
        <ele>96</ele>
        <time>2015-11-19T09:31:51Z</time>
      </trkpt>
      <trkpt lat="48.03783" lon="2.8171">
        <ele>96</ele>
        <time>2015-11-19T09:31:52Z</time>
      </trkpt>
      <trkpt lat="48.03782" lon="2.81708">
        <ele>96</ele>
        <time>2015-11-19T09:31:53Z</time>
      </trkpt>
      <trkpt lat="48.0378" lon="2.81706">
        <ele>96</ele>
        <time>2015-11-19T09:31:54Z</time>
      </trkpt>
      <trkpt lat="48.03779" lon="2.81704">
        <ele>96</ele>
        <time>2015-11-19T09:31:55Z</time>
      </trkpt>
      <trkpt lat="48.03777" lon="2.81702">
        <ele>96</ele>
        <time>2015-11-19T09:31:56Z</time>
      </trkpt>
      <trkpt lat="48.03775" lon="2.817">
        <ele>96</ele>
        <time>2015-11-19T09:31:57Z</time>
      </trkpt>
      <trkpt lat="48.03773" lon="2.81698">
        <ele>96</ele>
        <time>2015-11-19T09:31:58Z</time>
      </trkpt>
      <trkpt lat="48.0377" lon="2.81694">
        <ele>96</ele>
        <time>2015-11-19T09:31:59Z</time>
      </trkpt>
      <trkpt lat="48.03766" lon="2.81691">
        <ele>96</ele>
        <time>2015-11-19T09:32:00Z</time>
      </trkpt>
      <trkpt lat="48.03764" lon="2.81688">
        <ele>96</ele>
        <time>2015-11-19T09:32:01Z</time>
      </trkpt>
      <trkpt lat="48.03762" lon="2.81685">
        <ele>96</ele>
        <time>2015-11-19T09:32:02Z</time>
      </trkpt>
      <trkpt lat="48.0376" lon="2.81684">
        <ele>96</ele>
        <time>2015-11-19T09:32:03Z</time>
      </trkpt>
      <trkpt lat="48.03759" lon="2.81683">
        <ele>97</ele>
        <time>2015-11-19T09:32:04Z</time>
      </trkpt>
      <trkpt lat="48.03758" lon="2.81682">
        <ele>99</ele>
        <time>2015-11-19T09:32:06Z</time>
      </trkpt>
      <trkpt lat="48.0375" lon="2.81688">
        <ele>103</ele>
        <time>2015-11-19T09:32:09Z</time>
      </trkpt>
      <trkpt lat="48.03748" lon="2.81689">
        <ele>103</ele>
        <time>2015-11-19T09:32:10Z</time>
      </trkpt>
      <trkpt lat="48.03747" lon="2.81691">
        <ele>103</ele>
        <time>2015-11-19T09:32:11Z</time>
      </trkpt>
      <trkpt lat="48.03746" lon="2.81692">
        <ele>103</ele>
        <time>2015-11-19T09:32:12Z</time>
      </trkpt>
      <trkpt lat="48.03744" lon="2.81694">
        <ele>103</ele>
        <time>2015-11-19T09:32:13Z</time>
      </trkpt>
      <trkpt lat="48.03743" lon="2.81695">
        <ele>103</ele>
        <time>2015-11-19T09:32:14Z</time>
      </trkpt>
      <trkpt lat="48.03741" lon="2.81698">
        <ele>103</ele>
        <time>2015-11-19T09:32:16Z</time>
      </trkpt>
      <trkpt lat="48.03739" lon="2.81699">
        <ele>103</ele>
        <time>2015-11-19T09:32:17Z</time>
      </trkpt>
      <trkpt lat="48.03738" lon="2.817">
        <ele>103</ele>
        <time>2015-11-19T09:32:18Z</time>
      </trkpt>
      <trkpt lat="48.03736" lon="2.81702">
        <ele>103</ele>
        <time>2015-11-19T09:32:19Z</time>
      </trkpt>
      <trkpt lat="48.03734" lon="2.81703">
        <ele>103</ele>
        <time>2015-11-19T09:32:20Z</time>
      </trkpt>
      <trkpt lat="48.03733" lon="2.81705">
        <ele>103</ele>
        <time>2015-11-19T09:32:21Z</time>
      </trkpt>
      <trkpt lat="48.03731" lon="2.81707">
        <ele>103</ele>
        <time>2015-11-19T09:32:22Z</time>
      </trkpt>
      <trkpt lat="48.0373" lon="2.81708">
        <ele>103</ele>
        <time>2015-11-19T09:32:23Z</time>
      </trkpt>
      <trkpt lat="48.03728" lon="2.8171">
        <ele>103</ele>
        <time>2015-11-19T09:32:24Z</time>
      </trkpt>
      <trkpt lat="48.03727" lon="2.81712">
        <ele>103</ele>
        <time>2015-11-19T09:32:26Z</time>
      </trkpt>
      <trkpt lat="48.03726" lon="2.81713">
        <ele>103</ele>
        <time>2015-11-19T09:32:28Z</time>
      </trkpt>
      <trkpt lat="48.03725" lon="2.8171">
        <ele>103</ele>
        <time>2015-11-19T09:32:31Z</time>
      </trkpt>
      <trkpt lat="48.03729" lon="2.81705">
        <ele>103</ele>
        <time>2015-11-19T09:32:32Z</time>
      </trkpt>
      <trkpt lat="48.0373" lon="2.81703">
        <ele>103</ele>
        <time>2015-11-19T09:32:33Z</time>
      </trkpt>
      <trkpt lat="48.03732" lon="2.817">
        <ele>103</ele>
        <time>2015-11-19T09:32:34Z</time>
      </trkpt>
      <trkpt lat="48.03734" lon="2.81697">
        <ele>103</ele>
        <time>2015-11-19T09:32:35Z</time>
      </trkpt>
      <trkpt lat="48.03738" lon="2.81693">
        <ele>103</ele>
        <time>2015-11-19T09:32:36Z</time>
      </trkpt>
      <trkpt lat="48.03741" lon="2.81689">
        <ele>103</ele>
        <time>2015-11-19T09:32:37Z</time>
      </trkpt>
      <trkpt lat="48.03745" lon="2.81686">
        <ele>103</ele>
        <time>2015-11-19T09:32:38Z</time>
      </trkpt>
      <trkpt lat="48.03749" lon="2.81683">
        <ele>103</ele>
        <time>2015-11-19T09:32:39Z</time>
      </trkpt>
      <trkpt lat="48.03753" lon="2.81679">
        <ele>103</ele>
        <time>2015-11-19T09:32:40Z</time>
      </trkpt>
      <trkpt lat="48.03756" lon="2.81676">
        <ele>103</ele>
        <time>2015-11-19T09:32:41Z</time>
      </trkpt>
      <trkpt lat="48.03757" lon="2.81674">
        <ele>103</ele>
        <time>2015-11-19T09:32:42Z</time>
      </trkpt>
      <trkpt lat="48.03754" lon="2.8167">
        <ele>103</ele>
        <time>2015-11-19T09:32:44Z</time>
      </trkpt>
      <trkpt lat="48.03753" lon="2.81668">
        <ele>104</ele>
        <time>2015-11-19T09:32:45Z</time>
      </trkpt>
      <trkpt lat="48.03751" lon="2.81666">
        <ele>105</ele>
        <time>2015-11-19T09:32:46Z</time>
      </trkpt>
      <trkpt lat="48.0375" lon="2.81664">
        <ele>106</ele>
        <time>2015-11-19T09:32:47Z</time>
      </trkpt>
      <trkpt lat="48.03748" lon="2.81661">
        <ele>107</ele>
        <time>2015-11-19T09:32:48Z</time>
      </trkpt>
      <trkpt lat="48.03747" lon="2.81659">
        <ele>108</ele>
        <time>2015-11-19T09:32:49Z</time>
      </trkpt>
      <trkpt lat="48.03745" lon="2.81657">
        <ele>110</ele>
        <time>2015-11-19T09:32:51Z</time>
      </trkpt>
      <trkpt lat="48.03743" lon="2.81655">
        <ele>112</ele>
        <time>2015-11-19T09:32:53Z</time>
      </trkpt>
      <trkpt lat="48.03742" lon="2.81653">
        <ele>113</ele>
        <time>2015-11-19T09:32:54Z</time>
      </trkpt>
      <trkpt lat="48.0374" lon="2.8165">
        <ele>114</ele>
        <time>2015-11-19T09:32:56Z</time>
      </trkpt>
      <trkpt lat="48.03739" lon="2.81648">
        <ele>115</ele>
        <time>2015-11-19T09:32:57Z</time>
      </trkpt>
      <trkpt lat="48.03736" lon="2.81645">
        <ele>115</ele>
        <time>2015-11-19T09:32:58Z</time>
      </trkpt>
      <trkpt lat="48.03734" lon="2.81642">
        <ele>115</ele>
        <time>2015-11-19T09:32:59Z</time>
      </trkpt>
      <trkpt lat="48.03732" lon="2.81639">
        <ele>116</ele>
        <time>2015-11-19T09:33:00Z</time>
      </trkpt>
      <trkpt lat="48.03731" lon="2.81637">
        <ele>116</ele>
        <time>2015-11-19T09:33:01Z</time>
      </trkpt>
      <trkpt lat="48.03729" lon="2.81634">
        <ele>116</ele>
        <time>2015-11-19T09:33:03Z</time>
      </trkpt>
      <trkpt lat="48.03728" lon="2.81631">
        <ele>116</ele>
        <time>2015-11-19T09:33:04Z</time>
      </trkpt>
      <trkpt lat="48.03727" lon="2.81629">
        <ele>116</ele>
        <time>2015-11-19T09:33:05Z</time>
      </trkpt>
      <trkpt lat="48.03726" lon="2.81627">
        <ele>116</ele>
        <time>2015-11-19T09:33:06Z</time>
      </trkpt>
      <trkpt lat="48.03724" lon="2.81624">
        <ele>116</ele>
        <time>2015-11-19T09:33:07Z</time>
      </trkpt>
      <trkpt lat="48.0372" lon="2.81619">
        <ele>116</ele>
        <time>2015-11-19T09:33:08Z</time>
      </trkpt>
      <trkpt lat="48.03716" lon="2.81615">
        <ele>116</ele>
        <time>2015-11-19T09:33:09Z</time>
      </trkpt>
      <trkpt lat="48.03713" lon="2.81612">
        <ele>116</ele>
        <time>2015-11-19T09:33:10Z</time>
      </trkpt>
      <trkpt lat="48.03711" lon="2.8161">
        <ele>116</ele>
        <time>2015-11-19T09:33:11Z</time>
      </trkpt>
      <trkpt lat="48.03709" lon="2.81608">
        <ele>116</ele>
        <time>2015-11-19T09:33:12Z</time>
      </trkpt>
      <trkpt lat="48.03707" lon="2.81607">
        <ele>116</ele>
        <time>2015-11-19T09:33:14Z</time>
      </trkpt>
      <trkpt lat="48.037" lon="2.81592">
        <ele>118</ele>
        <time>2015-11-19T09:33:17Z</time>
      </trkpt>
      <trkpt lat="48.03699" lon="2.81588">
        <ele>119</ele>
        <time>2015-11-19T09:33:18Z</time>
      </trkpt>
      <trkpt lat="48.03697" lon="2.81586">
        <ele>119</ele>
        <time>2015-11-19T09:33:19Z</time>
      </trkpt>
      <trkpt lat="48.03696" lon="2.81584">
        <ele>119</ele>
        <time>2015-11-19T09:33:21Z</time>
      </trkpt>
      <trkpt lat="48.0369" lon="2.81572">
        <ele>115</ele>
        <time>2015-11-19T09:33:24Z</time>
      </trkpt>
      <trkpt lat="48.03684" lon="2.81562">
        <ele>115</ele>
        <time>2015-11-19T09:33:26Z</time>
      </trkpt>
      <trkpt lat="48.03681" lon="2.81559">
        <ele>115</ele>
        <time>2015-11-19T09:33:27Z</time>
      </trkpt>
      <trkpt lat="48.0368" lon="2.81558">
        <ele>115</ele>
        <time>2015-11-19T09:33:28Z</time>
      </trkpt>
      <trkpt lat="48.03679" lon="2.81558">
        <ele>115</ele>
        <time>2015-11-19T09:33:29Z</time>
      </trkpt>
      <trkpt lat="48.03678" lon="2.81559">
        <ele>115</ele>
        <time>2015-11-19T09:33:32Z</time>
      </trkpt>
      <trkpt lat="48.03676" lon="2.81561">
        <ele>113</ele>
        <time>2015-11-19T09:33:34Z</time>
      </trkpt>
      <trkpt lat="48.03674" lon="2.81563">
        <ele>112</ele>
        <time>2015-11-19T09:33:35Z</time>
      </trkpt>
      <trkpt lat="48.03673" lon="2.81564">
        <ele>112</ele>
        <time>2015-11-19T09:33:36Z</time>
      </trkpt>
      <trkpt lat="48.03672" lon="2.81565">
        <ele>111</ele>
        <time>2015-11-19T09:33:37Z</time>
      </trkpt>
      <trkpt lat="48.03671" lon="2.81566">
        <ele>110</ele>
        <time>2015-11-19T09:33:38Z</time>
      </trkpt>
      <trkpt lat="48.03669" lon="2.81567">
        <ele>109</ele>
        <time>2015-11-19T09:33:39Z</time>
      </trkpt>
      <trkpt lat="48.03667" lon="2.81569">
        <ele>108</ele>
        <time>2015-11-19T09:33:40Z</time>
      </trkpt>
      <trkpt lat="48.03666" lon="2.81571">
        <ele>107</ele>
        <time>2015-11-19T09:33:41Z</time>
      </trkpt>
      <trkpt lat="48.03664" lon="2.81573">
        <ele>106</ele>
        <time>2015-11-19T09:33:42Z</time>
      </trkpt>
      <trkpt lat="48.03662" lon="2.81574">
        <ele>105</ele>
        <time>2015-11-19T09:33:43Z</time>
      </trkpt>
      <trkpt lat="48.03661" lon="2.81575">
        <ele>104</ele>
        <time>2015-11-19T09:33:44Z</time>
      </trkpt>
      <trkpt lat="48.03659" lon="2.81576">
        <ele>103</ele>
        <time>2015-11-19T09:33:45Z</time>
      </trkpt>
      <trkpt lat="48.03657" lon="2.81578">
        <ele>102</ele>
        <time>2015-11-19T09:33:46Z</time>
      </trkpt>
      <trkpt lat="48.03656" lon="2.81579">
        <ele>101</ele>
        <time>2015-11-19T09:33:47Z</time>
      </trkpt>
      <trkpt lat="48.03654" lon="2.8158">
        <ele>100</ele>
        <time>2015-11-19T09:33:48Z</time>
      </trkpt>
      <trkpt lat="48.03653" lon="2.81582">
        <ele>99</ele>
        <time>2015-11-19T09:33:49Z</time>
      </trkpt>
      <trkpt lat="48.03651" lon="2.81583">
        <ele>98</ele>
        <time>2015-11-19T09:33:50Z</time>
      </trkpt>
      <trkpt lat="48.0365" lon="2.81585">
        <ele>97</ele>
        <time>2015-11-19T09:33:51Z</time>
      </trkpt>
      <trkpt lat="48.03649" lon="2.81587">
        <ele>97</ele>
        <time>2015-11-19T09:33:53Z</time>
      </trkpt>
      <trkpt lat="48.03647" lon="2.81589">
        <ele>96</ele>
        <time>2015-11-19T09:33:55Z</time>
      </trkpt>
      <trkpt lat="48.03644" lon="2.81592">
        <ele>94</ele>
        <time>2015-11-19T09:33:57Z</time>
      </trkpt>
      <trkpt lat="48.03643" lon="2.81593">
        <ele>93</ele>
        <time>2015-11-19T09:33:58Z</time>
      </trkpt>
      <trkpt lat="48.03642" lon="2.81594">
        <ele>93</ele>
        <time>2015-11-19T09:33:59Z</time>
      </trkpt>
      <trkpt lat="48.0364" lon="2.81595">
        <ele>92</ele>
        <time>2015-11-19T09:34:00Z</time>
      </trkpt>
      <trkpt lat="48.03638" lon="2.81597">
        <ele>91</ele>
        <time>2015-11-19T09:34:01Z</time>
      </trkpt>
      <trkpt lat="48.03637" lon="2.81599">
        <ele>91</ele>
        <time>2015-11-19T09:34:02Z</time>
      </trkpt>
      <trkpt lat="48.03635" lon="2.81602">
        <ele>90</ele>
        <time>2015-11-19T09:34:04Z</time>
      </trkpt>
      <trkpt lat="48.03633" lon="2.81604">
        <ele>90</ele>
        <time>2015-11-19T09:34:06Z</time>
      </trkpt>
      <trkpt lat="48.03631" lon="2.81606">
        <ele>90</ele>
        <time>2015-11-19T09:34:08Z</time>
      </trkpt>
      <trkpt lat="48.0363" lon="2.81607">
        <ele>90</ele>
        <time>2015-11-19T09:34:09Z</time>
      </trkpt>
      <trkpt lat="48.03629" lon="2.81608">
        <ele>90</ele>
        <time>2015-11-19T09:34:10Z</time>
      </trkpt>
      <trkpt lat="48.03627" lon="2.81611">
        <ele>90</ele>
        <time>2015-11-19T09:34:12Z</time>
      </trkpt>
      <trkpt lat="48.03624" lon="2.81613">
        <ele>90</ele>
        <time>2015-11-19T09:34:14Z</time>
      </trkpt>
      <trkpt lat="48.03623" lon="2.81615">
        <ele>90</ele>
        <time>2015-11-19T09:34:15Z</time>
      </trkpt>
      <trkpt lat="48.03622" lon="2.81616">
        <ele>90</ele>
        <time>2015-11-19T09:34:16Z</time>
      </trkpt>
      <trkpt lat="48.03621" lon="2.81618">
        <ele>90</ele>
        <time>2015-11-19T09:34:17Z</time>
      </trkpt>
      <trkpt lat="48.0362" lon="2.8162">
        <ele>90</ele>
        <time>2015-11-19T09:34:18Z</time>
      </trkpt>
      <trkpt lat="48.03618" lon="2.81622">
        <ele>90</ele>
        <time>2015-11-19T09:34:19Z</time>
      </trkpt>
      <trkpt lat="48.03617" lon="2.81623">
        <ele>90</ele>
        <time>2015-11-19T09:34:20Z</time>
      </trkpt>
      <trkpt lat="48.03615" lon="2.81625">
        <ele>90</ele>
        <time>2015-11-19T09:34:21Z</time>
      </trkpt>
      <trkpt lat="48.03613" lon="2.81627">
        <ele>90</ele>
        <time>2015-11-19T09:34:22Z</time>
      </trkpt>
      <trkpt lat="48.03612" lon="2.81628">
        <ele>90</ele>
        <time>2015-11-19T09:34:23Z</time>
      </trkpt>
      <trkpt lat="48.0361" lon="2.8163">
        <ele>90</ele>
        <time>2015-11-19T09:34:24Z</time>
      </trkpt>
      <trkpt lat="48.03609" lon="2.81632">
        <ele>90</ele>
        <time>2015-11-19T09:34:25Z</time>
      </trkpt>
      <trkpt lat="48.03607" lon="2.81634">
        <ele>91</ele>
        <time>2015-11-19T09:34:26Z</time>
      </trkpt>
      <trkpt lat="48.03605" lon="2.81636">
        <ele>92</ele>
        <time>2015-11-19T09:34:27Z</time>
      </trkpt>
      <trkpt lat="48.03605" lon="2.81637">
        <ele>93</ele>
        <time>2015-11-19T09:34:28Z</time>
      </trkpt>
      <trkpt lat="48.03603" lon="2.81639">
        <ele>94</ele>
        <time>2015-11-19T09:34:29Z</time>
      </trkpt>
      <trkpt lat="48.03602" lon="2.81641">
        <ele>95</ele>
        <time>2015-11-19T09:34:30Z</time>
      </trkpt>
      <trkpt lat="48.03601" lon="2.81643">
        <ele>96</ele>
        <time>2015-11-19T09:34:31Z</time>
      </trkpt>
      <trkpt lat="48.03598" lon="2.81645">
        <ele>98</ele>
        <time>2015-11-19T09:34:33Z</time>
      </trkpt>
      <trkpt lat="48.03598" lon="2.81647">
        <ele>99</ele>
        <time>2015-11-19T09:34:34Z</time>
      </trkpt>
      <trkpt lat="48.03596" lon="2.81648">
        <ele>100</ele>
        <time>2015-11-19T09:34:35Z</time>
      </trkpt>
      <trkpt lat="48.03595" lon="2.8165">
        <ele>101</ele>
        <time>2015-11-19T09:34:36Z</time>
      </trkpt>
      <trkpt lat="48.03593" lon="2.81651">
        <ele>102</ele>
        <time>2015-11-19T09:34:37Z</time>
      </trkpt>
      <trkpt lat="48.03592" lon="2.81653">
        <ele>103</ele>
        <time>2015-11-19T09:34:38Z</time>
      </trkpt>
      <trkpt lat="48.0359" lon="2.81654">
        <ele>104</ele>
        <time>2015-11-19T09:34:39Z</time>
      </trkpt>
      <trkpt lat="48.03589" lon="2.81656">
        <ele>105</ele>
        <time>2015-11-19T09:34:40Z</time>
      </trkpt>
      <trkpt lat="48.03588" lon="2.81658">
        <ele>105</ele>
        <time>2015-11-19T09:34:41Z</time>
      </trkpt>
      <trkpt lat="48.03587" lon="2.8166">
        <ele>106</ele>
        <time>2015-11-19T09:34:42Z</time>
      </trkpt>
      <trkpt lat="48.03585" lon="2.81661">
        <ele>107</ele>
        <time>2015-11-19T09:34:43Z</time>
      </trkpt>
      <trkpt lat="48.03584" lon="2.81663">
        <ele>108</ele>
        <time>2015-11-19T09:34:44Z</time>
      </trkpt>
      <trkpt lat="48.03582" lon="2.81665">
        <ele>109</ele>
        <time>2015-11-19T09:34:45Z</time>
      </trkpt>
      <trkpt lat="48.0358" lon="2.81666">
        <ele>110</ele>
        <time>2015-11-19T09:34:46Z</time>
      </trkpt>
      <trkpt lat="48.03578" lon="2.81667">
        <ele>111</ele>
        <time>2015-11-19T09:34:47Z</time>
      </trkpt>
      <trkpt lat="48.03577" lon="2.81669">
        <ele>111</ele>
        <time>2015-11-19T09:34:48Z</time>
      </trkpt>
      <trkpt lat="48.03576" lon="2.8167">
        <ele>112</ele>
        <time>2015-11-19T09:34:49Z</time>
      </trkpt>
      <trkpt lat="48.03574" lon="2.81673">
        <ele>113</ele>
        <time>2015-11-19T09:34:50Z</time>
      </trkpt>
      <trkpt lat="48.03572" lon="2.81675">
        <ele>114</ele>
        <time>2015-11-19T09:34:51Z</time>
      </trkpt>
      <trkpt lat="48.03569" lon="2.81678">
        <ele>115</ele>
        <time>2015-11-19T09:34:52Z</time>
      </trkpt>
      <trkpt lat="48.03567" lon="2.8168">
        <ele>115</ele>
        <time>2015-11-19T09:34:53Z</time>
      </trkpt>
      <trkpt lat="48.03564" lon="2.81683">
        <ele>115</ele>
        <time>2015-11-19T09:34:54Z</time>
      </trkpt>
      <trkpt lat="48.03561" lon="2.81686">
        <ele>115</ele>
        <time>2015-11-19T09:34:55Z</time>
      </trkpt>
      <trkpt lat="48.03559" lon="2.81689">
        <ele>115</ele>
        <time>2015-11-19T09:34:56Z</time>
      </trkpt>
      <trkpt lat="48.03556" lon="2.81692">
        <ele>115</ele>
        <time>2015-11-19T09:34:57Z</time>
      </trkpt>
      <trkpt lat="48.03554" lon="2.81694">
        <ele>115</ele>
        <time>2015-11-19T09:34:58Z</time>
      </trkpt>
      <trkpt lat="48.03551" lon="2.81696">
        <ele>115</ele>
        <time>2015-11-19T09:34:59Z</time>
      </trkpt>
      <trkpt lat="48.03549" lon="2.81698">
        <ele>116</ele>
        <time>2015-11-19T09:35:00Z</time>
      </trkpt>
      <trkpt lat="48.03547" lon="2.81701">
        <ele>116</ele>
        <time>2015-11-19T09:35:01Z</time>
      </trkpt>
      <trkpt lat="48.03545" lon="2.81704">
        <ele>116</ele>
        <time>2015-11-19T09:35:02Z</time>
      </trkpt>
      <trkpt lat="48.03543" lon="2.81706">
        <ele>117</ele>
        <time>2015-11-19T09:35:03Z</time>
      </trkpt>
      <trkpt lat="48.0354" lon="2.81709">
        <ele>118</ele>
        <time>2015-11-19T09:35:04Z</time>
      </trkpt>
      <trkpt lat="48.03537" lon="2.81712">
        <ele>119</ele>
        <time>2015-11-19T09:35:05Z</time>
      </trkpt>
      <trkpt lat="48.03534" lon="2.81714">
        <ele>119</ele>
        <time>2015-11-19T09:35:06Z</time>
      </trkpt>
      <trkpt lat="48.03532" lon="2.81715">
        <ele>119</ele>
        <time>2015-11-19T09:35:07Z</time>
      </trkpt>
      <trkpt lat="48.03529" lon="2.81717">
        <ele>119</ele>
        <time>2015-11-19T09:35:08Z</time>
      </trkpt>
      <trkpt lat="48.03526" lon="2.8172">
        <ele>119</ele>
        <time>2015-11-19T09:35:09Z</time>
      </trkpt>
      <trkpt lat="48.03523" lon="2.81723">
        <ele>119</ele>
        <time>2015-11-19T09:35:10Z</time>
      </trkpt>
      <trkpt lat="48.0352" lon="2.81726">
        <ele>119</ele>
        <time>2015-11-19T09:35:11Z</time>
      </trkpt>
      <trkpt lat="48.03517" lon="2.81729">
        <ele>119</ele>
        <time>2015-11-19T09:35:12Z</time>
      </trkpt>
      <trkpt lat="48.03514" lon="2.81732">
        <ele>119</ele>
        <time>2015-11-19T09:35:13Z</time>
      </trkpt>
      <trkpt lat="48.03511" lon="2.81735">
        <ele>119</ele>
        <time>2015-11-19T09:35:14Z</time>
      </trkpt>
      <trkpt lat="48.03509" lon="2.81738">
        <ele>119</ele>
        <time>2015-11-19T09:35:15Z</time>
      </trkpt>
      <trkpt lat="48.03507" lon="2.81741">
        <ele>119</ele>
        <time>2015-11-19T09:35:16Z</time>
      </trkpt>
      <trkpt lat="48.03504" lon="2.81744">
        <ele>119</ele>
        <time>2015-11-19T09:35:17Z</time>
      </trkpt>
      <trkpt lat="48.03501" lon="2.81746">
        <ele>119</ele>
        <time>2015-11-19T09:35:18Z</time>
      </trkpt>
      <trkpt lat="48.03499" lon="2.81749">
        <ele>119</ele>
        <time>2015-11-19T09:35:19Z</time>
      </trkpt>
      <trkpt lat="48.03496" lon="2.81752">
        <ele>119</ele>
        <time>2015-11-19T09:35:20Z</time>
      </trkpt>
      <trkpt lat="48.03493" lon="2.81755">
        <ele>119</ele>
        <time>2015-11-19T09:35:21Z</time>
      </trkpt>
      <trkpt lat="48.0349" lon="2.81758">
        <ele>119</ele>
        <time>2015-11-19T09:35:22Z</time>
      </trkpt>
      <trkpt lat="48.03487" lon="2.81761">
        <ele>119</ele>
        <time>2015-11-19T09:35:23Z</time>
      </trkpt>
      <trkpt lat="48.03484" lon="2.81765">
        <ele>119</ele>
        <time>2015-11-19T09:35:24Z</time>
      </trkpt>
      <trkpt lat="48.03481" lon="2.81768">
        <ele>119</ele>
        <time>2015-11-19T09:35:25Z</time>
      </trkpt>
      <trkpt lat="48.03477" lon="2.81771">
        <ele>119</ele>
        <time>2015-11-19T09:35:26Z</time>
      </trkpt>
      <trkpt lat="48.03474" lon="2.81774">
        <ele>119</ele>
        <time>2015-11-19T09:35:27Z</time>
      </trkpt>
      <trkpt lat="48.03472" lon="2.81778">
        <ele>119</ele>
        <time>2015-11-19T09:35:28Z</time>
      </trkpt>
      <trkpt lat="48.03469" lon="2.81781">
        <ele>119</ele>
        <time>2015-11-19T09:35:29Z</time>
      </trkpt>
      <trkpt lat="48.03466" lon="2.81785">
        <ele>119</ele>
        <time>2015-11-19T09:35:30Z</time>
      </trkpt>
      <trkpt lat="48.03463" lon="2.81788">
        <ele>119</ele>
        <time>2015-11-19T09:35:31Z</time>
      </trkpt>
      <trkpt lat="48.0346" lon="2.81791">
        <ele>119</ele>
        <time>2015-11-19T09:35:32Z</time>
      </trkpt>
      <trkpt lat="48.03457" lon="2.81795">
        <ele>119</ele>
        <time>2015-11-19T09:35:33Z</time>
      </trkpt>
      <trkpt lat="48.03454" lon="2.81799">
        <ele>119</ele>
        <time>2015-11-19T09:35:34Z</time>
      </trkpt>
      <trkpt lat="48.03451" lon="2.81802">
        <ele>119</ele>
        <time>2015-11-19T09:35:35Z</time>
      </trkpt>
      <trkpt lat="48.03447" lon="2.81805">
        <ele>119</ele>
        <time>2015-11-19T09:35:36Z</time>
      </trkpt>
      <trkpt lat="48.03444" lon="2.81809">
        <ele>119</ele>
        <time>2015-11-19T09:35:37Z</time>
      </trkpt>
      <trkpt lat="48.03441" lon="2.81812">
        <ele>119</ele>
        <time>2015-11-19T09:35:38Z</time>
      </trkpt>
      <trkpt lat="48.03437" lon="2.81815">
        <ele>119</ele>
        <time>2015-11-19T09:35:39Z</time>
      </trkpt>
      <trkpt lat="48.03434" lon="2.81819">
        <ele>119</ele>
        <time>2015-11-19T09:35:40Z</time>
      </trkpt>
      <trkpt lat="48.0343" lon="2.81822">
        <ele>119</ele>
        <time>2015-11-19T09:35:41Z</time>
      </trkpt>
      <trkpt lat="48.03427" lon="2.81826">
        <ele>119</ele>
        <time>2015-11-19T09:35:42Z</time>
      </trkpt>
      <trkpt lat="48.03423" lon="2.8183">
        <ele>119</ele>
        <time>2015-11-19T09:35:43Z</time>
      </trkpt>
      <trkpt lat="48.03419" lon="2.81834">
        <ele>119</ele>
        <time>2015-11-19T09:35:44Z</time>
      </trkpt>
      <trkpt lat="48.03415" lon="2.81838">
        <ele>119</ele>
        <time>2015-11-19T09:35:45Z</time>
      </trkpt>
      <trkpt lat="48.03411" lon="2.8184">
        <ele>119</ele>
        <time>2015-11-19T09:35:46Z</time>
      </trkpt>
      <trkpt lat="48.03408" lon="2.81844">
        <ele>119</ele>
        <time>2015-11-19T09:35:47Z</time>
      </trkpt>
      <trkpt lat="48.03405" lon="2.81847">
        <ele>119</ele>
        <time>2015-11-19T09:35:48Z</time>
      </trkpt>
      <trkpt lat="48.03402" lon="2.81851">
        <ele>119</ele>
        <time>2015-11-19T09:35:49Z</time>
      </trkpt>
      <trkpt lat="48.03399" lon="2.81853">
        <ele>119</ele>
        <time>2015-11-19T09:35:50Z</time>
      </trkpt>
      <trkpt lat="48.03397" lon="2.81856">
        <ele>119</ele>
        <time>2015-11-19T09:35:51Z</time>
      </trkpt>
      <trkpt lat="48.03397" lon="2.81858">
        <ele>120</ele>
        <time>2015-11-19T09:35:52Z</time>
      </trkpt>
      <trkpt lat="48.03397" lon="2.81861">
        <ele>121</ele>
        <time>2015-11-19T09:35:53Z</time>
      </trkpt>
      <trkpt lat="48.03397" lon="2.81863">
        <ele>122</ele>
        <time>2015-11-19T09:35:54Z</time>
      </trkpt>
      <trkpt lat="48.03397" lon="2.81864">
        <ele>123</ele>
        <time>2015-11-19T09:35:55Z</time>
      </trkpt>
      <trkpt lat="48.03398" lon="2.81866">
        <ele>123</ele>
        <time>2015-11-19T09:35:56Z</time>
      </trkpt>
      <trkpt lat="48.03399" lon="2.81868">
        <ele>124</ele>
        <time>2015-11-19T09:35:57Z</time>
      </trkpt>
      <trkpt lat="48.034" lon="2.8187">
        <ele>124</ele>
        <time>2015-11-19T09:35:58Z</time>
      </trkpt>
      <trkpt lat="48.03402" lon="2.81873">
        <ele>124</ele>
        <time>2015-11-19T09:35:59Z</time>
      </trkpt>
      <trkpt lat="48.03404" lon="2.81876">
        <ele>124</ele>
        <time>2015-11-19T09:36:00Z</time>
      </trkpt>
      <trkpt lat="48.03406" lon="2.81879">
        <ele>124</ele>
        <time>2015-11-19T09:36:01Z</time>
      </trkpt>
      <trkpt lat="48.03407" lon="2.81882">
        <ele>124</ele>
        <time>2015-11-19T09:36:02Z</time>
      </trkpt>
      <trkpt lat="48.03409" lon="2.81886">
        <ele>124</ele>
        <time>2015-11-19T09:36:03Z</time>
      </trkpt>
      <trkpt lat="48.0341" lon="2.81889">
        <ele>124</ele>
        <time>2015-11-19T09:36:04Z</time>
      </trkpt>
      <trkpt lat="48.03411" lon="2.81893">
        <ele>124</ele>
        <time>2015-11-19T09:36:05Z</time>
      </trkpt>
      <trkpt lat="48.03412" lon="2.81895">
        <ele>124</ele>
        <time>2015-11-19T09:36:06Z</time>
      </trkpt>
      <trkpt lat="48.03414" lon="2.81898">
        <ele>125</ele>
        <time>2015-11-19T09:36:07Z</time>
      </trkpt>
      <trkpt lat="48.03415" lon="2.81902">
        <ele>125</ele>
        <time>2015-11-19T09:36:08Z</time>
      </trkpt>
      <trkpt lat="48.03418" lon="2.81906">
        <ele>126</ele>
        <time>2015-11-19T09:36:09Z</time>
      </trkpt>
      <trkpt lat="48.0342" lon="2.8191">
        <ele>127</ele>
        <time>2015-11-19T09:36:10Z</time>
      </trkpt>
      <trkpt lat="48.03423" lon="2.81913">
        <ele>128</ele>
        <time>2015-11-19T09:36:11Z</time>
      </trkpt>
      <trkpt lat="48.03426" lon="2.81917">
        <ele>128</ele>
        <time>2015-11-19T09:36:12Z</time>
      </trkpt>
      <trkpt lat="48.03429" lon="2.8192">
        <ele>129</ele>
        <time>2015-11-19T09:36:13Z</time>
      </trkpt>
      <trkpt lat="48.03432" lon="2.81924">
        <ele>129</ele>
        <time>2015-11-19T09:36:14Z</time>
      </trkpt>
      <trkpt lat="48.03434" lon="2.81928">
        <ele>129</ele>
        <time>2015-11-19T09:36:15Z</time>
      </trkpt>
      <trkpt lat="48.03437" lon="2.81931">
        <ele>130</ele>
        <time>2015-11-19T09:36:16Z</time>
      </trkpt>
      <trkpt lat="48.03439" lon="2.81935">
        <ele>130</ele>
        <time>2015-11-19T09:36:17Z</time>
      </trkpt>
      <trkpt lat="48.03439" lon="2.81938">
        <ele>131</ele>
        <time>2015-11-19T09:36:18Z</time>
      </trkpt>
      <trkpt lat="48.03439" lon="2.81941">
        <ele>131</ele>
        <time>2015-11-19T09:36:19Z</time>
      </trkpt>
      <trkpt lat="48.03437" lon="2.81944">
        <ele>132</ele>
        <time>2015-11-19T09:36:20Z</time>
      </trkpt>
      <trkpt lat="48.03435" lon="2.81946">
        <ele>132</ele>
        <time>2015-11-19T09:36:21Z</time>
      </trkpt>
      <trkpt lat="48.03433" lon="2.8195">
        <ele>133</ele>
        <time>2015-11-19T09:36:22Z</time>
      </trkpt>
      <trkpt lat="48.0343" lon="2.81954">
        <ele>134</ele>
        <time>2015-11-19T09:36:23Z</time>
      </trkpt>
      <trkpt lat="48.03426" lon="2.81958">
        <ele>135</ele>
        <time>2015-11-19T09:36:24Z</time>
      </trkpt>
      <trkpt lat="48.03423" lon="2.81962">
        <ele>135</ele>
        <time>2015-11-19T09:36:25Z</time>
      </trkpt>
      <trkpt lat="48.03419" lon="2.81966">
        <ele>136</ele>
        <time>2015-11-19T09:36:26Z</time>
      </trkpt>
      <trkpt lat="48.03416" lon="2.8197">
        <ele>136</ele>
        <time>2015-11-19T09:36:27Z</time>
      </trkpt>
      <trkpt lat="48.03412" lon="2.81974">
        <ele>137</ele>
        <time>2015-11-19T09:36:28Z</time>
      </trkpt>
      <trkpt lat="48.03408" lon="2.81977">
        <ele>137</ele>
        <time>2015-11-19T09:36:29Z</time>
      </trkpt>
      <trkpt lat="48.03405" lon="2.8198">
        <ele>138</ele>
        <time>2015-11-19T09:36:30Z</time>
      </trkpt>
      <trkpt lat="48.03401" lon="2.81984">
        <ele>138</ele>
        <time>2015-11-19T09:36:31Z</time>
      </trkpt>
      <trkpt lat="48.03397" lon="2.81987">
        <ele>138</ele>
        <time>2015-11-19T09:36:32Z</time>
      </trkpt>
      <trkpt lat="48.03393" lon="2.81991">
        <ele>138</ele>
        <time>2015-11-19T09:36:33Z</time>
      </trkpt>
      <trkpt lat="48.03389" lon="2.81996">
        <ele>138</ele>
        <time>2015-11-19T09:36:34Z</time>
      </trkpt>
      <trkpt lat="48.03384" lon="2.82">
        <ele>138</ele>
        <time>2015-11-19T09:36:35Z</time>
      </trkpt>
      <trkpt lat="48.03379" lon="2.82004">
        <ele>138</ele>
        <time>2015-11-19T09:36:36Z</time>
      </trkpt>
      <trkpt lat="48.03375" lon="2.82007">
        <ele>138</ele>
        <time>2015-11-19T09:36:37Z</time>
      </trkpt>
      <trkpt lat="48.0337" lon="2.8201">
        <ele>138</ele>
        <time>2015-11-19T09:36:38Z</time>
      </trkpt>
      <trkpt lat="48.03365" lon="2.82015">
        <ele>138</ele>
        <time>2015-11-19T09:36:39Z</time>
      </trkpt>
      <trkpt lat="48.03361" lon="2.82021">
        <ele>138</ele>
        <time>2015-11-19T09:36:40Z</time>
      </trkpt>
      <trkpt lat="48.03356" lon="2.82026">
        <ele>138</ele>
        <time>2015-11-19T09:36:41Z</time>
      </trkpt>
      <trkpt lat="48.03352" lon="2.8203">
        <ele>138</ele>
        <time>2015-11-19T09:36:42Z</time>
      </trkpt>
      <trkpt lat="48.03347" lon="2.82034">
        <ele>138</ele>
        <time>2015-11-19T09:36:43Z</time>
      </trkpt>
      <trkpt lat="48.03342" lon="2.82038">
        <ele>138</ele>
        <time>2015-11-19T09:36:44Z</time>
      </trkpt>
      <trkpt lat="48.03338" lon="2.82042">
        <ele>138</ele>
        <time>2015-11-19T09:36:45Z</time>
      </trkpt>
      <trkpt lat="48.03334" lon="2.82047">
        <ele>138</ele>
        <time>2015-11-19T09:36:46Z</time>
      </trkpt>
      <trkpt lat="48.03329" lon="2.82052">
        <ele>138</ele>
        <time>2015-11-19T09:36:47Z</time>
      </trkpt>
      <trkpt lat="48.03324" lon="2.82056">
        <ele>138</ele>
        <time>2015-11-19T09:36:48Z</time>
      </trkpt>
      <trkpt lat="48.03319" lon="2.82062">
        <ele>138</ele>
        <time>2015-11-19T09:36:49Z</time>
      </trkpt>
      <trkpt lat="48.03313" lon="2.82067">
        <ele>138</ele>
        <time>2015-11-19T09:36:50Z</time>
      </trkpt>
      <trkpt lat="48.03307" lon="2.82073">
        <ele>138</ele>
        <time>2015-11-19T09:36:51Z</time>
      </trkpt>
      <trkpt lat="48.03302" lon="2.82078">
        <ele>138</ele>
        <time>2015-11-19T09:36:52Z</time>
      </trkpt>
      <trkpt lat="48.03296" lon="2.82084">
        <ele>137</ele>
        <time>2015-11-19T09:36:53Z</time>
      </trkpt>
      <trkpt lat="48.03291" lon="2.82091">
        <ele>137</ele>
        <time>2015-11-19T09:36:54Z</time>
      </trkpt>
      <trkpt lat="48.03285" lon="2.82097">
        <ele>137</ele>
        <time>2015-11-19T09:36:55Z</time>
      </trkpt>
      <trkpt lat="48.0328" lon="2.82102">
        <ele>137</ele>
        <time>2015-11-19T09:36:56Z</time>
      </trkpt>
      <trkpt lat="48.03275" lon="2.82107">
        <ele>137</ele>
        <time>2015-11-19T09:36:57Z</time>
      </trkpt>
      <trkpt lat="48.0327" lon="2.82113">
        <ele>137</ele>
        <time>2015-11-19T09:36:58Z</time>
      </trkpt>
      <trkpt lat="48.03265" lon="2.82118">
        <ele>137</ele>
        <time>2015-11-19T09:36:59Z</time>
      </trkpt>
      <trkpt lat="48.0326" lon="2.82124">
        <ele>137</ele>
        <time>2015-11-19T09:37:00Z</time>
      </trkpt>
      <trkpt lat="48.03256" lon="2.82129">
        <ele>137</ele>
        <time>2015-11-19T09:37:01Z</time>
      </trkpt>
      <trkpt lat="48.03251" lon="2.82135">
        <ele>137</ele>
        <time>2015-11-19T09:37:02Z</time>
      </trkpt>
      <trkpt lat="48.03246" lon="2.82139">
        <ele>137</ele>
        <time>2015-11-19T09:37:03Z</time>
      </trkpt>
      <trkpt lat="48.03241" lon="2.82143">
        <ele>137</ele>
        <time>2015-11-19T09:37:04Z</time>
      </trkpt>
      <trkpt lat="48.03236" lon="2.82148">
        <ele>137</ele>
        <time>2015-11-19T09:37:05Z</time>
      </trkpt>
      <trkpt lat="48.03231" lon="2.82153">
        <ele>137</ele>
        <time>2015-11-19T09:37:06Z</time>
      </trkpt>
      <trkpt lat="48.03225" lon="2.82156">
        <ele>137</ele>
        <time>2015-11-19T09:37:07Z</time>
      </trkpt>
      <trkpt lat="48.03219" lon="2.82158">
        <ele>136</ele>
        <time>2015-11-19T09:37:08Z</time>
      </trkpt>
      <trkpt lat="48.03214" lon="2.82159">
        <ele>135</ele>
        <time>2015-11-19T09:37:09Z</time>
      </trkpt>
      <trkpt lat="48.03209" lon="2.82163">
        <ele>134</ele>
        <time>2015-11-19T09:37:10Z</time>
      </trkpt>
      <trkpt lat="48.03203" lon="2.82166">
        <ele>133</ele>
        <time>2015-11-19T09:37:11Z</time>
      </trkpt>
      <trkpt lat="48.03196" lon="2.82169">
        <ele>132</ele>
        <time>2015-11-19T09:37:12Z</time>
      </trkpt>
      <trkpt lat="48.03191" lon="2.82169">
        <ele>131</ele>
        <time>2015-11-19T09:37:13Z</time>
      </trkpt>
      <trkpt lat="48.03186" lon="2.82168">
        <ele>130</ele>
        <time>2015-11-19T09:37:14Z</time>
      </trkpt>
      <trkpt lat="48.03181" lon="2.82165">
        <ele>129</ele>
        <time>2015-11-19T09:37:15Z</time>
      </trkpt>
      <trkpt lat="48.03177" lon="2.82161">
        <ele>128</ele>
        <time>2015-11-19T09:37:16Z</time>
      </trkpt>
      <trkpt lat="48.03172" lon="2.82158">
        <ele>127</ele>
        <time>2015-11-19T09:37:17Z</time>
      </trkpt>
      <trkpt lat="48.03167" lon="2.82158">
        <ele>126</ele>
        <time>2015-11-19T09:37:18Z</time>
      </trkpt>
      <trkpt lat="48.03162" lon="2.82157">
        <ele>125</ele>
        <time>2015-11-19T09:37:19Z</time>
      </trkpt>
      <trkpt lat="48.03159" lon="2.82155">
        <ele>124</ele>
        <time>2015-11-19T09:37:20Z</time>
      </trkpt>
      <trkpt lat="48.03155" lon="2.82154">
        <ele>123</ele>
        <time>2015-11-19T09:37:21Z</time>
      </trkpt>
      <trkpt lat="48.03155" lon="2.82155">
        <ele>122</ele>
        <time>2015-11-19T09:37:22Z</time>
      </trkpt>
      <trkpt lat="48.03155" lon="2.82158">
        <ele>121</ele>
        <time>2015-11-19T09:37:23Z</time>
      </trkpt>
      <trkpt lat="48.03156" lon="2.8216">
        <ele>119</ele>
        <time>2015-11-19T09:37:25Z</time>
      </trkpt>
      <trkpt lat="48.03157" lon="2.82163">
        <ele>118</ele>
        <time>2015-11-19T09:37:26Z</time>
      </trkpt>
      <trkpt lat="48.03157" lon="2.82167">
        <ele>117</ele>
        <time>2015-11-19T09:37:27Z</time>
      </trkpt>
      <trkpt lat="48.03157" lon="2.82171">
        <ele>116</ele>
        <time>2015-11-19T09:37:28Z</time>
      </trkpt>
      <trkpt lat="48.03157" lon="2.82175">
        <ele>115</ele>
        <time>2015-11-19T09:37:29Z</time>
      </trkpt>
      <trkpt lat="48.03156" lon="2.82179">
        <ele>115</ele>
        <time>2015-11-19T09:37:30Z</time>
      </trkpt>
      <trkpt lat="48.03154" lon="2.82183">
        <ele>114</ele>
        <time>2015-11-19T09:37:31Z</time>
      </trkpt>
      <trkpt lat="48.03151" lon="2.82186">
        <ele>113</ele>
        <time>2015-11-19T09:37:32Z</time>
      </trkpt>
      <trkpt lat="48.03148" lon="2.82189">
        <ele>113</ele>
        <time>2015-11-19T09:37:33Z</time>
      </trkpt>
      <trkpt lat="48.03139" lon="2.82194">
        <ele>111</ele>
        <time>2015-11-19T09:37:35Z</time>
      </trkpt>
      <trkpt lat="48.03136" lon="2.82195">
        <ele>110</ele>
        <time>2015-11-19T09:37:36Z</time>
      </trkpt>
      <trkpt lat="48.0313" lon="2.82195">
        <ele>110</ele>
        <time>2015-11-19T09:37:37Z</time>
      </trkpt>
      <trkpt lat="48.03125" lon="2.82194">
        <ele>110</ele>
        <time>2015-11-19T09:37:38Z</time>
      </trkpt>
      <trkpt lat="48.03123" lon="2.82192">
        <ele>110</ele>
        <time>2015-11-19T09:37:39Z</time>
      </trkpt>
      <trkpt lat="48.03123" lon="2.8219">
        <ele>110</ele>
        <time>2015-11-19T09:37:40Z</time>
      </trkpt>
      <trkpt lat="48.0312" lon="2.8219">
        <ele>110</ele>
        <time>2015-11-19T09:37:41Z</time>
      </trkpt>
      <trkpt lat="48.03117" lon="2.8219">
        <ele>110</ele>
        <time>2015-11-19T09:37:42Z</time>
      </trkpt>
      <trkpt lat="48.03114" lon="2.82192">
        <ele>110</ele>
        <time>2015-11-19T09:37:43Z</time>
      </trkpt>
      <trkpt lat="48.03111" lon="2.82194">
        <ele>110</ele>
        <time>2015-11-19T09:37:44Z</time>
      </trkpt>
      <trkpt lat="48.03107" lon="2.82195">
        <ele>110</ele>
        <time>2015-11-19T09:37:45Z</time>
      </trkpt>
      <trkpt lat="48.03103" lon="2.82197">
        <ele>110</ele>
        <time>2015-11-19T09:37:46Z</time>
      </trkpt>
      <trkpt lat="48.03101" lon="2.82197">
        <ele>110</ele>
        <time>2015-11-19T09:37:47Z</time>
      </trkpt>
      <trkpt lat="48.03099" lon="2.822">
        <ele>110</ele>
        <time>2015-11-19T09:37:48Z</time>
      </trkpt>
      <trkpt lat="48.03097" lon="2.82203">
        <ele>110</ele>
        <time>2015-11-19T09:37:49Z</time>
      </trkpt>
      <trkpt lat="48.03094" lon="2.82205">
        <ele>110</ele>
        <time>2015-11-19T09:37:50Z</time>
      </trkpt>
      <trkpt lat="48.03091" lon="2.82207">
        <ele>110</ele>
        <time>2015-11-19T09:37:51Z</time>
      </trkpt>
      <trkpt lat="48.0309" lon="2.8221">
        <ele>110</ele>
        <time>2015-11-19T09:37:52Z</time>
      </trkpt>
      <trkpt lat="48.03088" lon="2.82214">
        <ele>110</ele>
        <time>2015-11-19T09:37:53Z</time>
      </trkpt>
      <trkpt lat="48.03087" lon="2.82219">
        <ele>110</ele>
        <time>2015-11-19T09:37:54Z</time>
      </trkpt>
      <trkpt lat="48.03087" lon="2.82224">
        <ele>110</ele>
        <time>2015-11-19T09:37:55Z</time>
      </trkpt>
      <trkpt lat="48.03087" lon="2.82229">
        <ele>110</ele>
        <time>2015-11-19T09:37:56Z</time>
      </trkpt>
      <trkpt lat="48.03087" lon="2.82234">
        <ele>110</ele>
        <time>2015-11-19T09:37:57Z</time>
      </trkpt>
      <trkpt lat="48.03084" lon="2.82235">
        <ele>110</ele>
        <time>2015-11-19T09:37:58Z</time>
      </trkpt>
      <trkpt lat="48.03081" lon="2.82235">
        <ele>110</ele>
        <time>2015-11-19T09:37:59Z</time>
      </trkpt>
      <trkpt lat="48.03077" lon="2.82234">
        <ele>110</ele>
        <time>2015-11-19T09:38:00Z</time>
      </trkpt>
      <trkpt lat="48.03074" lon="2.82232">
        <ele>110</ele>
        <time>2015-11-19T09:38:01Z</time>
      </trkpt>
      <trkpt lat="48.03071" lon="2.82233">
        <ele>110</ele>
        <time>2015-11-19T09:38:02Z</time>
      </trkpt>
      <trkpt lat="48.03067" lon="2.82235">
        <ele>109</ele>
        <time>2015-11-19T09:38:03Z</time>
      </trkpt>
      <trkpt lat="48.03064" lon="2.82239">
        <ele>108</ele>
        <time>2015-11-19T09:38:04Z</time>
      </trkpt>
      <trkpt lat="48.0306" lon="2.82244">
        <ele>108</ele>
        <time>2015-11-19T09:38:05Z</time>
      </trkpt>
      <trkpt lat="48.03057" lon="2.82249">
        <ele>107</ele>
        <time>2015-11-19T09:38:06Z</time>
      </trkpt>
      <trkpt lat="48.03054" lon="2.82254">
        <ele>107</ele>
        <time>2015-11-19T09:38:07Z</time>
      </trkpt>
      <trkpt lat="48.03053" lon="2.8226">
        <ele>107</ele>
        <time>2015-11-19T09:38:08Z</time>
      </trkpt>
      <trkpt lat="48.0305" lon="2.82267">
        <ele>107</ele>
        <time>2015-11-19T09:38:09Z</time>
      </trkpt>
      <trkpt lat="48.03047" lon="2.82272">
        <ele>107</ele>
        <time>2015-11-19T09:38:10Z</time>
      </trkpt>
      <trkpt lat="48.03043" lon="2.82277">
        <ele>106</ele>
        <time>2015-11-19T09:38:11Z</time>
      </trkpt>
      <trkpt lat="48.03037" lon="2.82278">
        <ele>105</ele>
        <time>2015-11-19T09:38:12Z</time>
      </trkpt>
      <trkpt lat="48.03031" lon="2.82281">
        <ele>104</ele>
        <time>2015-11-19T09:38:13Z</time>
      </trkpt>
      <trkpt lat="48.03024" lon="2.82283">
        <ele>103</ele>
        <time>2015-11-19T09:38:14Z</time>
      </trkpt>
      <trkpt lat="48.03019" lon="2.82285">
        <ele>102</ele>
        <time>2015-11-19T09:38:15Z</time>
      </trkpt>
      <trkpt lat="48.03013" lon="2.82287">
        <ele>101</ele>
        <time>2015-11-19T09:38:16Z</time>
      </trkpt>
      <trkpt lat="48.03011" lon="2.82289">
        <ele>100</ele>
        <time>2015-11-19T09:38:17Z</time>
      </trkpt>
      <trkpt lat="48.03013" lon="2.82289">
        <ele>99</ele>
        <time>2015-11-19T09:38:18Z</time>
      </trkpt>
      <trkpt lat="48.03016" lon="2.82289">
        <ele>98</ele>
        <time>2015-11-19T09:38:19Z</time>
      </trkpt>
      <trkpt lat="48.03017" lon="2.82291">
        <ele>97</ele>
        <time>2015-11-19T09:38:20Z</time>
      </trkpt>
      <trkpt lat="48.03018" lon="2.82293">
        <ele>96</ele>
        <time>2015-11-19T09:38:21Z</time>
      </trkpt>
      <trkpt lat="48.0302" lon="2.82295">
        <ele>95</ele>
        <time>2015-11-19T09:38:22Z</time>
      </trkpt>
      <trkpt lat="48.03022" lon="2.823">
        <ele>95</ele>
        <time>2015-11-19T09:38:23Z</time>
      </trkpt>
      <trkpt lat="48.03023" lon="2.82304">
        <ele>95</ele>
        <time>2015-11-19T09:38:24Z</time>
      </trkpt>
      <trkpt lat="48.03025" lon="2.82309">
        <ele>95</ele>
        <time>2015-11-19T09:38:25Z</time>
      </trkpt>
      <trkpt lat="48.03025" lon="2.82313">
        <ele>95</ele>
        <time>2015-11-19T09:38:26Z</time>
      </trkpt>
      <trkpt lat="48.03026" lon="2.82315">
        <ele>95</ele>
        <time>2015-11-19T09:38:27Z</time>
      </trkpt>
      <trkpt lat="48.03025" lon="2.82317">
        <ele>95</ele>
        <time>2015-11-19T09:38:28Z</time>
      </trkpt>
      <trkpt lat="48.03024" lon="2.82319">
        <ele>95</ele>
        <time>2015-11-19T09:38:29Z</time>
      </trkpt>
      <trkpt lat="48.03023" lon="2.82321">
        <ele>95</ele>
        <time>2015-11-19T09:38:30Z</time>
      </trkpt>
      <trkpt lat="48.03022" lon="2.82321">
        <ele>95</ele>
        <time>2015-11-19T09:38:31Z</time>
      </trkpt>
      <trkpt lat="48.0302" lon="2.82321">
        <ele>95</ele>
        <time>2015-11-19T09:38:32Z</time>
      </trkpt>
      <trkpt lat="48.03019" lon="2.82319">
        <ele>95</ele>
        <time>2015-11-19T09:38:33Z</time>
      </trkpt>
      <trkpt lat="48.03017" lon="2.82318">
        <ele>95</ele>
        <time>2015-11-19T09:38:34Z</time>
      </trkpt>
      <trkpt lat="48.03016" lon="2.82317">
        <ele>96</ele>
        <time>2015-11-19T09:38:35Z</time>
      </trkpt>
      <trkpt lat="48.03014" lon="2.82317">
        <ele>96</ele>
        <time>2015-11-19T09:38:36Z</time>
      </trkpt>
      <trkpt lat="48.03013" lon="2.82318">
        <ele>96</ele>
        <time>2015-11-19T09:38:38Z</time>
      </trkpt>
      <trkpt lat="48.03011" lon="2.8232">
        <ele>96</ele>
        <time>2015-11-19T09:38:39Z</time>
      </trkpt>
      <trkpt lat="48.0301" lon="2.82321">
        <ele>96</ele>
        <time>2015-11-19T09:38:40Z</time>
      </trkpt>
      <trkpt lat="48.03009" lon="2.82322">
        <ele>96</ele>
        <time>2015-11-19T09:38:41Z</time>
      </trkpt>
      <trkpt lat="48.03008" lon="2.82324">
        <ele>96</ele>
        <time>2015-11-19T09:38:42Z</time>
      </trkpt>
      <trkpt lat="48.03006" lon="2.82326">
        <ele>96</ele>
        <time>2015-11-19T09:38:43Z</time>
      </trkpt>
      <trkpt lat="48.03005" lon="2.82328">
        <ele>96</ele>
        <time>2015-11-19T09:38:44Z</time>
      </trkpt>
      <trkpt lat="48.03003" lon="2.82329">
        <ele>96</ele>
        <time>2015-11-19T09:38:45Z</time>
      </trkpt>
      <trkpt lat="48.03002" lon="2.82331">
        <ele>96</ele>
        <time>2015-11-19T09:38:46Z</time>
      </trkpt>
      <trkpt lat="48.03001" lon="2.82333">
        <ele>96</ele>
        <time>2015-11-19T09:38:49Z</time>
      </trkpt>
      <trkpt lat="48.03" lon="2.82337">
        <ele>96</ele>
        <time>2015-11-19T09:38:51Z</time>
      </trkpt>
      <trkpt lat="48.03" lon="2.82339">
        <ele>96</ele>
        <time>2015-11-19T09:38:52Z</time>
      </trkpt>
      <trkpt lat="48.03" lon="2.82341">
        <ele>96</ele>
        <time>2015-11-19T09:38:53Z</time>
      </trkpt>
      <trkpt lat="48.03" lon="2.82342">
        <ele>96</ele>
        <time>2015-11-19T09:38:54Z</time>
      </trkpt>
      <trkpt lat="48.03001" lon="2.82345">
        <ele>97</ele>
        <time>2015-11-19T09:38:56Z</time>
      </trkpt>
      <trkpt lat="48.03002" lon="2.82345">
        <ele>97</ele>
        <time>2015-11-19T09:38:58Z</time>
      </trkpt>
      <trkpt lat="48.03002" lon="2.82348">
        <ele>97</ele>
        <time>2015-11-19T09:39:00Z</time>
      </trkpt>
      <trkpt lat="48.03003" lon="2.82349">
        <ele>97</ele>
        <time>2015-11-19T09:39:01Z</time>
      </trkpt>
      <trkpt lat="48.03004" lon="2.82351">
        <ele>97</ele>
        <time>2015-11-19T09:39:03Z</time>
      </trkpt>
      <trkpt lat="48.03005" lon="2.82353">
        <ele>97</ele>
        <time>2015-11-19T09:39:05Z</time>
      </trkpt>
      <trkpt lat="48.03005" lon="2.82355">
        <ele>98</ele>
        <time>2015-11-19T09:39:07Z</time>
      </trkpt>
      <trkpt lat="48.03006" lon="2.82358">
        <ele>100</ele>
        <time>2015-11-19T09:39:09Z</time>
      </trkpt>
      <trkpt lat="48.03006" lon="2.8236">
        <ele>101</ele>
        <time>2015-11-19T09:39:10Z</time>
      </trkpt>
      <trkpt lat="48.03007" lon="2.82361">
        <ele>102</ele>
        <time>2015-11-19T09:39:11Z</time>
      </trkpt>
      <trkpt lat="48.03009" lon="2.82365">
        <ele>104</ele>
        <time>2015-11-19T09:39:13Z</time>
      </trkpt>
      <trkpt lat="48.0301" lon="2.82367">
        <ele>105</ele>
        <time>2015-11-19T09:39:15Z</time>
      </trkpt>
      <trkpt lat="48.03011" lon="2.82369">
        <ele>106</ele>
        <time>2015-11-19T09:39:16Z</time>
      </trkpt>
      <trkpt lat="48.03013" lon="2.82372">
        <ele>106</ele>
        <time>2015-11-19T09:39:17Z</time>
      </trkpt>
      <trkpt lat="48.03014" lon="2.82373">
        <ele>106</ele>
        <time>2015-11-19T09:39:18Z</time>
      </trkpt>
      <trkpt lat="48.03014" lon="2.82375">
        <ele>106</ele>
        <time>2015-11-19T09:39:19Z</time>
      </trkpt>
      <trkpt lat="48.03014" lon="2.82377">
        <ele>106</ele>
        <time>2015-11-19T09:39:20Z</time>
      </trkpt>
      <trkpt lat="48.03014" lon="2.82379">
        <ele>106</ele>
        <time>2015-11-19T09:39:21Z</time>
      </trkpt>
      <trkpt lat="48.03015" lon="2.82381">
        <ele>107</ele>
        <time>2015-11-19T09:39:23Z</time>
      </trkpt>
      <trkpt lat="48.03016" lon="2.82383">
        <ele>108</ele>
        <time>2015-11-19T09:39:24Z</time>
      </trkpt>
      <trkpt lat="48.03016" lon="2.82384">
        <ele>111</ele>
        <time>2015-11-19T09:39:27Z</time>
      </trkpt>
      <trkpt lat="48.03013" lon="2.82392">
        <ele>118</ele>
        <time>2015-11-19T09:39:29Z</time>
      </trkpt>
      <trkpt lat="48.03008" lon="2.82416">
        <ele>118</ele>
        <time>2015-11-19T09:39:30Z</time>
      </trkpt>
      <trkpt lat="48.03008" lon="2.82418">
        <ele>118</ele>
        <time>2015-11-19T09:39:31Z</time>
      </trkpt>
      <trkpt lat="48.03009" lon="2.8242">
        <ele>118</ele>
        <time>2015-11-19T09:39:32Z</time>
      </trkpt>
      <trkpt lat="48.03009" lon="2.82422">
        <ele>118</ele>
        <time>2015-11-19T09:39:33Z</time>
      </trkpt>
      <trkpt lat="48.03009" lon="2.82425">
        <ele>118</ele>
        <time>2015-11-19T09:39:34Z</time>
      </trkpt>
      <trkpt lat="48.03008" lon="2.82427">
        <ele>118</ele>
        <time>2015-11-19T09:39:35Z</time>
      </trkpt>
      <trkpt lat="48.03007" lon="2.82429">
        <ele>118</ele>
        <time>2015-11-19T09:39:36Z</time>
      </trkpt>
      <trkpt lat="48.03007" lon="2.82431">
        <ele>118</ele>
        <time>2015-11-19T09:39:37Z</time>
      </trkpt>
      <trkpt lat="48.03006" lon="2.82433">
        <ele>118</ele>
        <time>2015-11-19T09:39:38Z</time>
      </trkpt>
      <trkpt lat="48.03005" lon="2.82434">
        <ele>118</ele>
        <time>2015-11-19T09:39:39Z</time>
      </trkpt>
      <trkpt lat="48.03003" lon="2.82436">
        <ele>118</ele>
        <time>2015-11-19T09:39:40Z</time>
      </trkpt>
      <trkpt lat="48.03002" lon="2.82437">
        <ele>118</ele>
        <time>2015-11-19T09:39:41Z</time>
      </trkpt>
      <trkpt lat="48.03" lon="2.82438">
        <ele>118</ele>
        <time>2015-11-19T09:39:42Z</time>
      </trkpt>
      <trkpt lat="48.02998" lon="2.8244">
        <ele>118</ele>
        <time>2015-11-19T09:39:43Z</time>
      </trkpt>
      <trkpt lat="48.02996" lon="2.82442">
        <ele>118</ele>
        <time>2015-11-19T09:39:44Z</time>
      </trkpt>
      <trkpt lat="48.02995" lon="2.82443">
        <ele>118</ele>
        <time>2015-11-19T09:39:45Z</time>
      </trkpt>
      <trkpt lat="48.02994" lon="2.82445">
        <ele>118</ele>
        <time>2015-11-19T09:39:46Z</time>
      </trkpt>
      <trkpt lat="48.02994" lon="2.82449">
        <ele>118</ele>
        <time>2015-11-19T09:39:47Z</time>
      </trkpt>
      <trkpt lat="48.02993" lon="2.82451">
        <ele>118</ele>
        <time>2015-11-19T09:39:48Z</time>
      </trkpt>
      <trkpt lat="48.02992" lon="2.82454">
        <ele>118</ele>
        <time>2015-11-19T09:39:49Z</time>
      </trkpt>
      <trkpt lat="48.02991" lon="2.82456">
        <ele>118</ele>
        <time>2015-11-19T09:39:50Z</time>
      </trkpt>
      <trkpt lat="48.0299" lon="2.82458">
        <ele>118</ele>
        <time>2015-11-19T09:39:51Z</time>
      </trkpt>
      <trkpt lat="48.0299" lon="2.8246">
        <ele>118</ele>
        <time>2015-11-19T09:39:52Z</time>
      </trkpt>
      <trkpt lat="48.0299" lon="2.82462">
        <ele>118</ele>
        <time>2015-11-19T09:39:53Z</time>
      </trkpt>
      <trkpt lat="48.0299" lon="2.82463">
        <ele>118</ele>
        <time>2015-11-19T09:39:54Z</time>
      </trkpt>
      <trkpt lat="48.0299" lon="2.82466">
        <ele>118</ele>
        <time>2015-11-19T09:39:55Z</time>
      </trkpt>
      <trkpt lat="48.02988" lon="2.82469">
        <ele>118</ele>
        <time>2015-11-19T09:39:56Z</time>
      </trkpt>
      <trkpt lat="48.02987" lon="2.82472">
        <ele>118</ele>
        <time>2015-11-19T09:39:57Z</time>
      </trkpt>
      <trkpt lat="48.02986" lon="2.82475">
        <ele>118</ele>
        <time>2015-11-19T09:39:58Z</time>
      </trkpt>
      <trkpt lat="48.02983" lon="2.82477">
        <ele>118</ele>
        <time>2015-11-19T09:39:59Z</time>
      </trkpt>
      <trkpt lat="48.02982" lon="2.82478">
        <ele>118</ele>
        <time>2015-11-19T09:40:00Z</time>
      </trkpt>
      <trkpt lat="48.0298" lon="2.8248">
        <ele>118</ele>
        <time>2015-11-19T09:40:01Z</time>
      </trkpt>
      <trkpt lat="48.02977" lon="2.82481">
        <ele>118</ele>
        <time>2015-11-19T09:40:02Z</time>
      </trkpt>
      <trkpt lat="48.02976" lon="2.82482">
        <ele>118</ele>
        <time>2015-11-19T09:40:03Z</time>
      </trkpt>
      <trkpt lat="48.02974" lon="2.82483">
        <ele>118</ele>
        <time>2015-11-19T09:40:04Z</time>
      </trkpt>
      <trkpt lat="48.02972" lon="2.82485">
        <ele>117</ele>
        <time>2015-11-19T09:40:05Z</time>
      </trkpt>
      <trkpt lat="48.02969" lon="2.82487">
        <ele>117</ele>
        <time>2015-11-19T09:40:06Z</time>
      </trkpt>
      <trkpt lat="48.02967" lon="2.82488">
        <ele>117</ele>
        <time>2015-11-19T09:40:07Z</time>
      </trkpt>
      <trkpt lat="48.02964" lon="2.8249">
        <ele>117</ele>
        <time>2015-11-19T09:40:08Z</time>
      </trkpt>
      <trkpt lat="48.02961" lon="2.82491">
        <ele>117</ele>
        <time>2015-11-19T09:40:09Z</time>
      </trkpt>
      <trkpt lat="48.02959" lon="2.82492">
        <ele>117</ele>
        <time>2015-11-19T09:40:10Z</time>
      </trkpt>
      <trkpt lat="48.02958" lon="2.82493">
        <ele>117</ele>
        <time>2015-11-19T09:40:11Z</time>
      </trkpt>
      <trkpt lat="48.02957" lon="2.82495">
        <ele>117</ele>
        <time>2015-11-19T09:40:12Z</time>
      </trkpt>
      <trkpt lat="48.02956" lon="2.82497">
        <ele>117</ele>
        <time>2015-11-19T09:40:13Z</time>
      </trkpt>
      <trkpt lat="48.02954" lon="2.82497">
        <ele>117</ele>
        <time>2015-11-19T09:40:14Z</time>
      </trkpt>
      <trkpt lat="48.02953" lon="2.82498">
        <ele>117</ele>
        <time>2015-11-19T09:40:16Z</time>
      </trkpt>
      <trkpt lat="48.02951" lon="2.82499">
        <ele>117</ele>
        <time>2015-11-19T09:40:17Z</time>
      </trkpt>
      <trkpt lat="48.02949" lon="2.82501">
        <ele>117</ele>
        <time>2015-11-19T09:40:19Z</time>
      </trkpt>
      <trkpt lat="48.02948" lon="2.82502">
        <ele>117</ele>
        <time>2015-11-19T09:40:21Z</time>
      </trkpt>
      <trkpt lat="48.02937" lon="2.82506">
        <ele>112</ele>
        <time>2015-11-19T09:40:22Z</time>
      </trkpt>
      <trkpt lat="48.02935" lon="2.82505">
        <ele>112</ele>
        <time>2015-11-19T09:40:23Z</time>
      </trkpt>
      <trkpt lat="48.02934" lon="2.82504">
        <ele>112</ele>
        <time>2015-11-19T09:40:24Z</time>
      </trkpt>
      <trkpt lat="48.02932" lon="2.82502">
        <ele>112</ele>
        <time>2015-11-19T09:40:25Z</time>
      </trkpt>
      <trkpt lat="48.0293" lon="2.82499">
        <ele>112</ele>
        <time>2015-11-19T09:40:26Z</time>
      </trkpt>
      <trkpt lat="48.02929" lon="2.82496">
        <ele>112</ele>
        <time>2015-11-19T09:40:27Z</time>
      </trkpt>
      <trkpt lat="48.02927" lon="2.82493">
        <ele>113</ele>
        <time>2015-11-19T09:40:28Z</time>
      </trkpt>
      <trkpt lat="48.02925" lon="2.82491">
        <ele>113</ele>
        <time>2015-11-19T09:40:29Z</time>
      </trkpt>
      <trkpt lat="48.02924" lon="2.82487">
        <ele>113</ele>
        <time>2015-11-19T09:40:30Z</time>
      </trkpt>
      <trkpt lat="48.02922" lon="2.82482">
        <ele>113</ele>
        <time>2015-11-19T09:40:31Z</time>
      </trkpt>
      <trkpt lat="48.02919" lon="2.82477">
        <ele>113</ele>
        <time>2015-11-19T09:40:32Z</time>
      </trkpt>
      <trkpt lat="48.02917" lon="2.82471">
        <ele>113</ele>
        <time>2015-11-19T09:40:33Z</time>
      </trkpt>
      <trkpt lat="48.02914" lon="2.82465">
        <ele>113</ele>
        <time>2015-11-19T09:40:34Z</time>
      </trkpt>
      <trkpt lat="48.02911" lon="2.8246">
        <ele>113</ele>
        <time>2015-11-19T09:40:35Z</time>
      </trkpt>
      <trkpt lat="48.02907" lon="2.82455">
        <ele>113</ele>
        <time>2015-11-19T09:40:36Z</time>
      </trkpt>
      <trkpt lat="48.02904" lon="2.8245">
        <ele>113</ele>
        <time>2015-11-19T09:40:37Z</time>
      </trkpt>
      <trkpt lat="48.02901" lon="2.82445">
        <ele>113</ele>
        <time>2015-11-19T09:40:38Z</time>
      </trkpt>
      <trkpt lat="48.02898" lon="2.82441">
        <ele>113</ele>
        <time>2015-11-19T09:40:39Z</time>
      </trkpt>
      <trkpt lat="48.02895" lon="2.82436">
        <ele>113</ele>
        <time>2015-11-19T09:40:40Z</time>
      </trkpt>
      <trkpt lat="48.02894" lon="2.82429">
        <ele>113</ele>
        <time>2015-11-19T09:40:41Z</time>
      </trkpt>
      <trkpt lat="48.02893" lon="2.82421">
        <ele>113</ele>
        <time>2015-11-19T09:40:42Z</time>
      </trkpt>
      <trkpt lat="48.02895" lon="2.82414">
        <ele>113</ele>
        <time>2015-11-19T09:40:43Z</time>
      </trkpt>
      <trkpt lat="48.02896" lon="2.8241">
        <ele>113</ele>
        <time>2015-11-19T09:40:44Z</time>
      </trkpt>
      <trkpt lat="48.029" lon="2.82406">
        <ele>113</ele>
        <time>2015-11-19T09:40:45Z</time>
      </trkpt>
      <trkpt lat="48.02903" lon="2.82402">
        <ele>113</ele>
        <time>2015-11-19T09:40:46Z</time>
      </trkpt>
      <trkpt lat="48.02907" lon="2.82399">
        <ele>113</ele>
        <time>2015-11-19T09:40:47Z</time>
      </trkpt>
      <trkpt lat="48.02911" lon="2.82396">
        <ele>113</ele>
        <time>2015-11-19T09:40:48Z</time>
      </trkpt>
      <trkpt lat="48.02915" lon="2.82392">
        <ele>113</ele>
        <time>2015-11-19T09:40:49Z</time>
      </trkpt>
      <trkpt lat="48.02918" lon="2.82388">
        <ele>113</ele>
        <time>2015-11-19T09:40:50Z</time>
      </trkpt>
      <trkpt lat="48.02921" lon="2.82383">
        <ele>113</ele>
        <time>2015-11-19T09:40:51Z</time>
      </trkpt>
      <trkpt lat="48.02924" lon="2.82377">
        <ele>113</ele>
        <time>2015-11-19T09:40:52Z</time>
      </trkpt>
      <trkpt lat="48.02927" lon="2.82372">
        <ele>113</ele>
        <time>2015-11-19T09:40:53Z</time>
      </trkpt>
      <trkpt lat="48.0293" lon="2.82365">
        <ele>113</ele>
        <time>2015-11-19T09:40:54Z</time>
      </trkpt>
      <trkpt lat="48.02932" lon="2.82359">
        <ele>112</ele>
        <time>2015-11-19T09:40:55Z</time>
      </trkpt>
      <trkpt lat="48.02935" lon="2.82353">
        <ele>111</ele>
        <time>2015-11-19T09:40:56Z</time>
      </trkpt>
      <trkpt lat="48.02939" lon="2.82347">
        <ele>110</ele>
        <time>2015-11-19T09:40:57Z</time>
      </trkpt>
      <trkpt lat="48.02943" lon="2.82342">
        <ele>109</ele>
        <time>2015-11-19T09:40:58Z</time>
      </trkpt>
      <trkpt lat="48.02947" lon="2.82338">
        <ele>109</ele>
        <time>2015-11-19T09:40:59Z</time>
      </trkpt>
      <trkpt lat="48.02954" lon="2.82332">
        <ele>109</ele>
        <time>2015-11-19T09:41:01Z</time>
      </trkpt>
      <trkpt lat="48.02958" lon="2.82328">
        <ele>109</ele>
        <time>2015-11-19T09:41:02Z</time>
      </trkpt>
      <trkpt lat="48.02961" lon="2.82324">
        <ele>109</ele>
        <time>2015-11-19T09:41:03Z</time>
      </trkpt>
      <trkpt lat="48.02969" lon="2.82314">
        <ele>109</ele>
        <time>2015-11-19T09:41:05Z</time>
      </trkpt>
      <trkpt lat="48.02973" lon="2.8231">
        <ele>109</ele>
        <time>2015-11-19T09:41:06Z</time>
      </trkpt>
      <trkpt lat="48.02977" lon="2.82306">
        <ele>109</ele>
        <time>2015-11-19T09:41:07Z</time>
      </trkpt>
      <trkpt lat="48.02981" lon="2.823">
        <ele>108</ele>
        <time>2015-11-19T09:41:08Z</time>
      </trkpt>
      <trkpt lat="48.02985" lon="2.82292">
        <ele>107</ele>
        <time>2015-11-19T09:41:09Z</time>
      </trkpt>
      <trkpt lat="48.02989" lon="2.82283">
        <ele>106</ele>
        <time>2015-11-19T09:41:10Z</time>
      </trkpt>
      <trkpt lat="48.02991" lon="2.82277">
        <ele>105</ele>
        <time>2015-11-19T09:41:11Z</time>
      </trkpt>
      <trkpt lat="48.02993" lon="2.82271">
        <ele>104</ele>
        <time>2015-11-19T09:41:12Z</time>
      </trkpt>
      <trkpt lat="48.02993" lon="2.82266">
        <ele>103</ele>
        <time>2015-11-19T09:41:13Z</time>
      </trkpt>
      <trkpt lat="48.02991" lon="2.82264">
        <ele>102</ele>
        <time>2015-11-19T09:41:14Z</time>
      </trkpt>
      <trkpt lat="48.02988" lon="2.82257">
        <ele>100</ele>
        <time>2015-11-19T09:41:16Z</time>
      </trkpt>
      <trkpt lat="48.02982" lon="2.82248">
        <ele>99</ele>
        <time>2015-11-19T09:41:18Z</time>
      </trkpt>
      <trkpt lat="48.02979" lon="2.82245">
        <ele>98</ele>
        <time>2015-11-19T09:41:19Z</time>
      </trkpt>
      <trkpt lat="48.02975" lon="2.82242">
        <ele>98</ele>
        <time>2015-11-19T09:41:20Z</time>
      </trkpt>
      <trkpt lat="48.02972" lon="2.82238">
        <ele>98</ele>
        <time>2015-11-19T09:41:21Z</time>
      </trkpt>
      <trkpt lat="48.0297" lon="2.82235">
        <ele>98</ele>
        <time>2015-11-19T09:41:22Z</time>
      </trkpt>
      <trkpt lat="48.02967" lon="2.82233">
        <ele>97</ele>
        <time>2015-11-19T09:41:23Z</time>
      </trkpt>
      <trkpt lat="48.02965" lon="2.82233">
        <ele>96</ele>
        <time>2015-11-19T09:41:24Z</time>
      </trkpt>
      <trkpt lat="48.02963" lon="2.82235">
        <ele>95</ele>
        <time>2015-11-19T09:41:25Z</time>
      </trkpt>
      <trkpt lat="48.02961" lon="2.82237">
        <ele>94</ele>
        <time>2015-11-19T09:41:26Z</time>
      </trkpt>
      <trkpt lat="48.02959" lon="2.8224">
        <ele>93</ele>
        <time>2015-11-19T09:41:27Z</time>
      </trkpt>
      <trkpt lat="48.02953" lon="2.82246">
        <ele>91</ele>
        <time>2015-11-19T09:41:29Z</time>
      </trkpt>
      <trkpt lat="48.02949" lon="2.8225">
        <ele>90</ele>
        <time>2015-11-19T09:41:30Z</time>
      </trkpt>
      <trkpt lat="48.02946" lon="2.82253">
        <ele>89</ele>
        <time>2015-11-19T09:41:31Z</time>
      </trkpt>
      <trkpt lat="48.02943" lon="2.82257">
        <ele>88</ele>
        <time>2015-11-19T09:41:32Z</time>
      </trkpt>
      <trkpt lat="48.02939" lon="2.8226">
        <ele>88</ele>
        <time>2015-11-19T09:41:33Z</time>
      </trkpt>
      <trkpt lat="48.02933" lon="2.82268">
        <ele>88</ele>
        <time>2015-11-19T09:41:35Z</time>
      </trkpt>
      <trkpt lat="48.02927" lon="2.82275">
        <ele>88</ele>
        <time>2015-11-19T09:41:37Z</time>
      </trkpt>
      <trkpt lat="48.02922" lon="2.82284">
        <ele>88</ele>
        <time>2015-11-19T09:41:39Z</time>
      </trkpt>
      <trkpt lat="48.02916" lon="2.82292">
        <ele>88</ele>
        <time>2015-11-19T09:41:41Z</time>
      </trkpt>
      <trkpt lat="48.02914" lon="2.82295">
        <ele>88</ele>
        <time>2015-11-19T09:41:42Z</time>
      </trkpt>
      <trkpt lat="48.02908" lon="2.82301">
        <ele>88</ele>
        <time>2015-11-19T09:41:44Z</time>
      </trkpt>
      <trkpt lat="48.02905" lon="2.82305">
        <ele>88</ele>
        <time>2015-11-19T09:41:45Z</time>
      </trkpt>
      <trkpt lat="48.02901" lon="2.82308">
        <ele>88</ele>
        <time>2015-11-19T09:41:46Z</time>
      </trkpt>
      <trkpt lat="48.02898" lon="2.8231">
        <ele>88</ele>
        <time>2015-11-19T09:41:47Z</time>
      </trkpt>
      <trkpt lat="48.02896" lon="2.82313">
        <ele>88</ele>
        <time>2015-11-19T09:41:48Z</time>
      </trkpt>
      <trkpt lat="48.02894" lon="2.82316">
        <ele>88</ele>
        <time>2015-11-19T09:41:51Z</time>
      </trkpt>
      <trkpt lat="48.02898" lon="2.82333">
        <ele>88</ele>
        <time>2015-11-19T09:41:53Z</time>
      </trkpt>
      <trkpt lat="48.029" lon="2.82338">
        <ele>88</ele>
        <time>2015-11-19T09:41:55Z</time>
      </trkpt>
      <trkpt lat="48.02901" lon="2.8234">
        <ele>88</ele>
        <time>2015-11-19T09:41:56Z</time>
      </trkpt>
      <trkpt lat="48.02902" lon="2.82342">
        <ele>88</ele>
        <time>2015-11-19T09:41:57Z</time>
      </trkpt>
      <trkpt lat="48.02903" lon="2.82347">
        <ele>88</ele>
        <time>2015-11-19T09:41:59Z</time>
      </trkpt>
      <trkpt lat="48.02903" lon="2.82349">
        <ele>89</ele>
        <time>2015-11-19T09:42:00Z</time>
      </trkpt>
      <trkpt lat="48.02903" lon="2.82352">
        <ele>89</ele>
        <time>2015-11-19T09:42:02Z</time>
      </trkpt>
      <trkpt lat="48.02903" lon="2.82354">
        <ele>89</ele>
        <time>2015-11-19T09:42:03Z</time>
      </trkpt>
      <trkpt lat="48.02902" lon="2.82356">
        <ele>89</ele>
        <time>2015-11-19T09:42:04Z</time>
      </trkpt>
      <trkpt lat="48.02903" lon="2.82361">
        <ele>90</ele>
        <time>2015-11-19T09:42:07Z</time>
      </trkpt>
      <trkpt lat="48.02902" lon="2.82363">
        <ele>90</ele>
        <time>2015-11-19T09:42:08Z</time>
      </trkpt>
      <trkpt lat="48.02902" lon="2.82366">
        <ele>91</ele>
        <time>2015-11-19T09:42:09Z</time>
      </trkpt>
      <trkpt lat="48.02901" lon="2.82369">
        <ele>91</ele>
        <time>2015-11-19T09:42:10Z</time>
      </trkpt>
      <trkpt lat="48.02901" lon="2.82374">
        <ele>93</ele>
        <time>2015-11-19T09:42:12Z</time>
      </trkpt>
      <trkpt lat="48.02902" lon="2.82376">
        <ele>94</ele>
        <time>2015-11-19T09:42:13Z</time>
      </trkpt>
      <trkpt lat="48.029" lon="2.82381">
        <ele>95</ele>
        <time>2015-11-19T09:42:15Z</time>
      </trkpt>
      <trkpt lat="48.02898" lon="2.82385">
        <ele>96</ele>
        <time>2015-11-19T09:42:17Z</time>
      </trkpt>
      <trkpt lat="48.02896" lon="2.8239">
        <ele>96</ele>
        <time>2015-11-19T09:42:19Z</time>
      </trkpt>
      <trkpt lat="48.02895" lon="2.82392">
        <ele>97</ele>
        <time>2015-11-19T09:42:20Z</time>
      </trkpt>
      <trkpt lat="48.02895" lon="2.82394">
        <ele>97</ele>
        <time>2015-11-19T09:42:21Z</time>
      </trkpt>
      <trkpt lat="48.02893" lon="2.82397">
        <ele>98</ele>
        <time>2015-11-19T09:42:23Z</time>
      </trkpt>
      <trkpt lat="48.02891" lon="2.82399">
        <ele>98</ele>
        <time>2015-11-19T09:42:24Z</time>
      </trkpt>
      <trkpt lat="48.02891" lon="2.82401">
        <ele>98</ele>
        <time>2015-11-19T09:42:25Z</time>
      </trkpt>
      <trkpt lat="48.02889" lon="2.82404">
        <ele>98</ele>
        <time>2015-11-19T09:42:27Z</time>
      </trkpt>
      <trkpt lat="48.02887" lon="2.82406">
        <ele>98</ele>
        <time>2015-11-19T09:42:28Z</time>
      </trkpt>
      <trkpt lat="48.02885" lon="2.82408">
        <ele>98</ele>
        <time>2015-11-19T09:42:29Z</time>
      </trkpt>
      <trkpt lat="48.02884" lon="2.82411">
        <ele>98</ele>
        <time>2015-11-19T09:42:30Z</time>
      </trkpt>
      <trkpt lat="48.02882" lon="2.82412">
        <ele>98</ele>
        <time>2015-11-19T09:42:31Z</time>
      </trkpt>
      <trkpt lat="48.02882" lon="2.82414">
        <ele>98</ele>
        <time>2015-11-19T09:42:32Z</time>
      </trkpt>
      <trkpt lat="48.0288" lon="2.82417">
        <ele>98</ele>
        <time>2015-11-19T09:42:34Z</time>
      </trkpt>
      <trkpt lat="48.0288" lon="2.82421">
        <ele>98</ele>
        <time>2015-11-19T09:42:36Z</time>
      </trkpt>
      <trkpt lat="48.02879" lon="2.82424">
        <ele>98</ele>
        <time>2015-11-19T09:42:38Z</time>
      </trkpt>
      <trkpt lat="48.02877" lon="2.82428">
        <ele>100</ele>
        <time>2015-11-19T09:42:39Z</time>
      </trkpt>
      <trkpt lat="48.02876" lon="2.8243">
        <ele>101</ele>
        <time>2015-11-19T09:42:40Z</time>
      </trkpt>
      <trkpt lat="48.02875" lon="2.82432">
        <ele>102</ele>
        <time>2015-11-19T09:42:41Z</time>
      </trkpt>
      <trkpt lat="48.02874" lon="2.82434">
        <ele>103</ele>
        <time>2015-11-19T09:42:42Z</time>
      </trkpt>
      <trkpt lat="48.02874" lon="2.82437">
        <ele>105</ele>
        <time>2015-11-19T09:42:44Z</time>
      </trkpt>
      <trkpt lat="48.02871" lon="2.8244">
        <ele>106</ele>
        <time>2015-11-19T09:42:46Z</time>
      </trkpt>
      <trkpt lat="48.0287" lon="2.82441">
        <ele>106</ele>
        <time>2015-11-19T09:42:47Z</time>
      </trkpt>
      <trkpt lat="48.02869" lon="2.82445">
        <ele>106</ele>
        <time>2015-11-19T09:42:49Z</time>
      </trkpt>
      <trkpt lat="48.02867" lon="2.82451">
        <ele>106</ele>
        <time>2015-11-19T09:42:51Z</time>
      </trkpt>
      <trkpt lat="48.02866" lon="2.82453">
        <ele>106</ele>
        <time>2015-11-19T09:42:52Z</time>
      </trkpt>
      <trkpt lat="48.02865" lon="2.82455">
        <ele>106</ele>
        <time>2015-11-19T09:42:53Z</time>
      </trkpt>
      <trkpt lat="48.02863" lon="2.8246">
        <ele>106</ele>
        <time>2015-11-19T09:42:55Z</time>
      </trkpt>
      <trkpt lat="48.02862" lon="2.82463">
        <ele>106</ele>
        <time>2015-11-19T09:42:56Z</time>
      </trkpt>
      <trkpt lat="48.02861" lon="2.82466">
        <ele>106</ele>
        <time>2015-11-19T09:42:57Z</time>
      </trkpt>
      <trkpt lat="48.0286" lon="2.82471">
        <ele>106</ele>
        <time>2015-11-19T09:42:59Z</time>
      </trkpt>
      <trkpt lat="48.02859" lon="2.82474">
        <ele>106</ele>
        <time>2015-11-19T09:43:00Z</time>
      </trkpt>
      <trkpt lat="48.02859" lon="2.82477">
        <ele>106</ele>
        <time>2015-11-19T09:43:01Z</time>
      </trkpt>
      <trkpt lat="48.02858" lon="2.8248">
        <ele>106</ele>
        <time>2015-11-19T09:43:02Z</time>
      </trkpt>
      <trkpt lat="48.02857" lon="2.82484">
        <ele>105</ele>
        <time>2015-11-19T09:43:04Z</time>
      </trkpt>
      <trkpt lat="48.02858" lon="2.82486">
        <ele>105</ele>
        <time>2015-11-19T09:43:05Z</time>
      </trkpt>
      <trkpt lat="48.02858" lon="2.82487">
        <ele>105</ele>
        <time>2015-11-19T09:43:06Z</time>
      </trkpt>
      <trkpt lat="48.02858" lon="2.8249">
        <ele>105</ele>
        <time>2015-11-19T09:43:07Z</time>
      </trkpt>
      <trkpt lat="48.02858" lon="2.82493">
        <ele>105</ele>
        <time>2015-11-19T09:43:08Z</time>
      </trkpt>
      <trkpt lat="48.02857" lon="2.82496">
        <ele>105</ele>
        <time>2015-11-19T09:43:09Z</time>
      </trkpt>
      <trkpt lat="48.02856" lon="2.82502">
        <ele>105</ele>
        <time>2015-11-19T09:43:11Z</time>
      </trkpt>
      <trkpt lat="48.02856" lon="2.82505">
        <ele>105</ele>
        <time>2015-11-19T09:43:12Z</time>
      </trkpt>
      <trkpt lat="48.02855" lon="2.82509">
        <ele>105</ele>
        <time>2015-11-19T09:43:14Z</time>
      </trkpt>
      <trkpt lat="48.02855" lon="2.82512">
        <ele>105</ele>
        <time>2015-11-19T09:43:15Z</time>
      </trkpt>
      <trkpt lat="48.02855" lon="2.82514">
        <ele>105</ele>
        <time>2015-11-19T09:43:16Z</time>
      </trkpt>
      <trkpt lat="48.02855" lon="2.82517">
        <ele>105</ele>
        <time>2015-11-19T09:43:17Z</time>
      </trkpt>
      <trkpt lat="48.02854" lon="2.8252">
        <ele>105</ele>
        <time>2015-11-19T09:43:18Z</time>
      </trkpt>
      <trkpt lat="48.02852" lon="2.82528">
        <ele>105</ele>
        <time>2015-11-19T09:43:20Z</time>
      </trkpt>
      <trkpt lat="48.02851" lon="2.8253">
        <ele>105</ele>
        <time>2015-11-19T09:43:21Z</time>
      </trkpt>
      <trkpt lat="48.0285" lon="2.82532">
        <ele>105</ele>
        <time>2015-11-19T09:43:22Z</time>
      </trkpt>
      <trkpt lat="48.02848" lon="2.82533">
        <ele>106</ele>
        <time>2015-11-19T09:43:23Z</time>
      </trkpt>
      <trkpt lat="48.02843" lon="2.82535">
        <ele>107</ele>
        <time>2015-11-19T09:43:25Z</time>
      </trkpt>
      <trkpt lat="48.0284" lon="2.82534">
        <ele>107</ele>
        <time>2015-11-19T09:43:26Z</time>
      </trkpt>
      <trkpt lat="48.02838" lon="2.82534">
        <ele>107</ele>
        <time>2015-11-19T09:43:27Z</time>
      </trkpt>
      <trkpt lat="48.02835" lon="2.82533">
        <ele>107</ele>
        <time>2015-11-19T09:43:28Z</time>
      </trkpt>
      <trkpt lat="48.02831" lon="2.82533">
        <ele>107</ele>
        <time>2015-11-19T09:43:30Z</time>
      </trkpt>
      <trkpt lat="48.02828" lon="2.82534">
        <ele>106</ele>
        <time>2015-11-19T09:43:31Z</time>
      </trkpt>
      <trkpt lat="48.02825" lon="2.82534">
        <ele>105</ele>
        <time>2015-11-19T09:43:32Z</time>
      </trkpt>
      <trkpt lat="48.02822" lon="2.82532">
        <ele>105</ele>
        <time>2015-11-19T09:43:33Z</time>
      </trkpt>
      <trkpt lat="48.02817" lon="2.82531">
        <ele>105</ele>
        <time>2015-11-19T09:43:35Z</time>
      </trkpt>
      <trkpt lat="48.02813" lon="2.82529">
        <ele>105</ele>
        <time>2015-11-19T09:43:36Z</time>
      </trkpt>
      <trkpt lat="48.02809" lon="2.82531">
        <ele>105</ele>
        <time>2015-11-19T09:43:38Z</time>
      </trkpt>
      <trkpt lat="48.02806" lon="2.82535">
        <ele>105</ele>
        <time>2015-11-19T09:43:40Z</time>
      </trkpt>
      <trkpt lat="48.02804" lon="2.82534">
        <ele>105</ele>
        <time>2015-11-19T09:43:41Z</time>
      </trkpt>
      <trkpt lat="48.02803" lon="2.82532">
        <ele>105</ele>
        <time>2015-11-19T09:43:42Z</time>
      </trkpt>
      <trkpt lat="48.02803" lon="2.8253">
        <ele>105</ele>
        <time>2015-11-19T09:43:43Z</time>
      </trkpt>
      <trkpt lat="48.02804" lon="2.82524">
        <ele>105</ele>
        <time>2015-11-19T09:43:45Z</time>
      </trkpt>
      <trkpt lat="48.02806" lon="2.8252">
        <ele>105</ele>
        <time>2015-11-19T09:43:46Z</time>
      </trkpt>
      <trkpt lat="48.02806" lon="2.82516">
        <ele>105</ele>
        <time>2015-11-19T09:43:47Z</time>
      </trkpt>
      <trkpt lat="48.02805" lon="2.82511">
        <ele>105</ele>
        <time>2015-11-19T09:43:48Z</time>
      </trkpt>
      <trkpt lat="48.02802" lon="2.82502">
        <ele>105</ele>
        <time>2015-11-19T09:43:50Z</time>
      </trkpt>
      <trkpt lat="48.02802" lon="2.82498">
        <ele>105</ele>
        <time>2015-11-19T09:43:51Z</time>
      </trkpt>
      <trkpt lat="48.02803" lon="2.82493">
        <ele>105</ele>
        <time>2015-11-19T09:43:52Z</time>
      </trkpt>
      <trkpt lat="48.02804" lon="2.82489">
        <ele>105</ele>
        <time>2015-11-19T09:43:53Z</time>
      </trkpt>
      <trkpt lat="48.02805" lon="2.82486">
        <ele>105</ele>
        <time>2015-11-19T09:43:54Z</time>
      </trkpt>
      <trkpt lat="48.02805" lon="2.8248">
        <ele>104</ele>
        <time>2015-11-19T09:43:56Z</time>
      </trkpt>
      <trkpt lat="48.02802" lon="2.82477">
        <ele>104</ele>
        <time>2015-11-19T09:43:57Z</time>
      </trkpt>
      <trkpt lat="48.02801" lon="2.82477">
        <ele>104</ele>
        <time>2015-11-19T09:43:58Z</time>
      </trkpt>
      <trkpt lat="48.02801" lon="2.82478">
        <ele>100</ele>
        <time>2015-11-19T09:44:03Z</time>
      </trkpt>
      <trkpt lat="48.028" lon="2.82482">
        <ele>100</ele>
        <time>2015-11-19T09:44:05Z</time>
      </trkpt>
      <trkpt lat="48.02801" lon="2.82485">
        <ele>100</ele>
        <time>2015-11-19T09:44:07Z</time>
      </trkpt>
      <trkpt lat="48.02801" lon="2.82488">
        <ele>100</ele>
        <time>2015-11-19T09:44:08Z</time>
      </trkpt>
      <trkpt lat="48.02802" lon="2.82495">
        <ele>100</ele>
        <time>2015-11-19T09:44:10Z</time>
      </trkpt>
      <trkpt lat="48.02802" lon="2.82498">
        <ele>100</ele>
        <time>2015-11-19T09:44:11Z</time>
      </trkpt>
      <trkpt lat="48.02802" lon="2.82501">
        <ele>100</ele>
        <time>2015-11-19T09:44:12Z</time>
      </trkpt>
      <trkpt lat="48.02801" lon="2.82503">
        <ele>100</ele>
        <time>2015-11-19T09:44:13Z</time>
      </trkpt>
      <trkpt lat="48.028" lon="2.82509">
        <ele>100</ele>
        <time>2015-11-19T09:44:15Z</time>
      </trkpt>
      <trkpt lat="48.02798" lon="2.82512">
        <ele>100</ele>
        <time>2015-11-19T09:44:16Z</time>
      </trkpt>
      <trkpt lat="48.02797" lon="2.82514">
        <ele>100</ele>
        <time>2015-11-19T09:44:17Z</time>
      </trkpt>
      <trkpt lat="48.02795" lon="2.82516">
        <ele>100</ele>
        <time>2015-11-19T09:44:18Z</time>
      </trkpt>
      <trkpt lat="48.02792" lon="2.82519">
        <ele>100</ele>
        <time>2015-11-19T09:44:20Z</time>
      </trkpt>
      <trkpt lat="48.0279" lon="2.82521">
        <ele>100</ele>
        <time>2015-11-19T09:44:21Z</time>
      </trkpt>
      <trkpt lat="48.02788" lon="2.82522">
        <ele>100</ele>
        <time>2015-11-19T09:44:22Z</time>
      </trkpt>
      <trkpt lat="48.02787" lon="2.82522">
        <ele>100</ele>
        <time>2015-11-19T09:44:23Z</time>
      </trkpt>
      <trkpt lat="48.02784" lon="2.82523">
        <ele>101</ele>
        <time>2015-11-19T09:44:25Z</time>
      </trkpt>
      <trkpt lat="48.02782" lon="2.82524">
        <ele>102</ele>
        <time>2015-11-19T09:44:26Z</time>
      </trkpt>
      <trkpt lat="48.02781" lon="2.82526">
        <ele>102</ele>
        <time>2015-11-19T09:44:27Z</time>
      </trkpt>
      <trkpt lat="48.0278" lon="2.82528">
        <ele>103</ele>
        <time>2015-11-19T09:44:28Z</time>
      </trkpt>
      <trkpt lat="48.02779" lon="2.8253">
        <ele>104</ele>
        <time>2015-11-19T09:44:29Z</time>
      </trkpt>
      <trkpt lat="48.02779" lon="2.82532">
        <ele>105</ele>
        <time>2015-11-19T09:44:30Z</time>
      </trkpt>
      <trkpt lat="48.02779" lon="2.82534">
        <ele>106</ele>
        <time>2015-11-19T09:44:31Z</time>
      </trkpt>
      <trkpt lat="48.02782" lon="2.82534">
        <ele>108</ele>
        <time>2015-11-19T09:44:33Z</time>
      </trkpt>
      <trkpt lat="48.02784" lon="2.82535">
        <ele>109</ele>
        <time>2015-11-19T09:44:34Z</time>
      </trkpt>
      <trkpt lat="48.02788" lon="2.82535">
        <ele>112</ele>
        <time>2015-11-19T09:44:37Z</time>
      </trkpt>
      <trkpt lat="48.0279" lon="2.82536">
        <ele>113</ele>
        <time>2015-11-19T09:44:39Z</time>
      </trkpt>
      <trkpt lat="48.02792" lon="2.8254">
        <ele>113</ele>
        <time>2015-11-19T09:44:41Z</time>
      </trkpt>
      <trkpt lat="48.02792" lon="2.82542">
        <ele>114</ele>
        <time>2015-11-19T09:44:42Z</time>
      </trkpt>
      <trkpt lat="48.0279" lon="2.82547">
        <ele>115</ele>
        <time>2015-11-19T09:44:45Z</time>
      </trkpt>
      <trkpt lat="48.02787" lon="2.82551">
        <ele>115</ele>
        <time>2015-11-19T09:44:47Z</time>
      </trkpt>
      <trkpt lat="48.02785" lon="2.82552">
        <ele>115</ele>
        <time>2015-11-19T09:44:48Z</time>
      </trkpt>
      <trkpt lat="48.02784" lon="2.82553">
        <ele>115</ele>
        <time>2015-11-19T09:44:49Z</time>
      </trkpt>
      <trkpt lat="48.02782" lon="2.82553">
        <ele>115</ele>
        <time>2015-11-19T09:44:50Z</time>
      </trkpt>
      <trkpt lat="48.02777" lon="2.82554">
        <ele>115</ele>
        <time>2015-11-19T09:44:52Z</time>
      </trkpt>
      <trkpt lat="48.02775" lon="2.82553">
        <ele>115</ele>
        <time>2015-11-19T09:44:53Z</time>
      </trkpt>
      <trkpt lat="48.02772" lon="2.82552">
        <ele>115</ele>
        <time>2015-11-19T09:44:54Z</time>
      </trkpt>
      <trkpt lat="48.02769" lon="2.8255">
        <ele>115</ele>
        <time>2015-11-19T09:44:55Z</time>
      </trkpt>
      <trkpt lat="48.02764" lon="2.82544">
        <ele>115</ele>
        <time>2015-11-19T09:44:57Z</time>
      </trkpt>
      <trkpt lat="48.02763" lon="2.8254">
        <ele>115</ele>
        <time>2015-11-19T09:44:58Z</time>
      </trkpt>
      <trkpt lat="48.0276" lon="2.82539">
        <ele>115</ele>
        <time>2015-11-19T09:44:59Z</time>
      </trkpt>
      <trkpt lat="48.02758" lon="2.82539">
        <ele>115</ele>
        <time>2015-11-19T09:45:00Z</time>
      </trkpt>
      <trkpt lat="48.02755" lon="2.82541">
        <ele>115</ele>
        <time>2015-11-19T09:45:02Z</time>
      </trkpt>
      <trkpt lat="48.02753" lon="2.82542">
        <ele>115</ele>
        <time>2015-11-19T09:45:03Z</time>
      </trkpt>
      <trkpt lat="48.0275" lon="2.82542">
        <ele>115</ele>
        <time>2015-11-19T09:45:04Z</time>
      </trkpt>
      <trkpt lat="48.02749" lon="2.82543">
        <ele>115</ele>
        <time>2015-11-19T09:45:05Z</time>
      </trkpt>
      <trkpt lat="48.02746" lon="2.82545">
        <ele>115</ele>
        <time>2015-11-19T09:45:07Z</time>
      </trkpt>
      <trkpt lat="48.02744" lon="2.82546">
        <ele>115</ele>
        <time>2015-11-19T09:45:08Z</time>
      </trkpt>
      <trkpt lat="48.02742" lon="2.82547">
        <ele>115</ele>
        <time>2015-11-19T09:45:09Z</time>
      </trkpt>
      <trkpt lat="48.02741" lon="2.82547">
        <ele>114</ele>
        <time>2015-11-19T09:45:10Z</time>
      </trkpt>
      <trkpt lat="48.02739" lon="2.82546">
        <ele>113</ele>
        <time>2015-11-19T09:45:12Z</time>
      </trkpt>
      <trkpt lat="48.02737" lon="2.82546">
        <ele>113</ele>
        <time>2015-11-19T09:45:13Z</time>
      </trkpt>
      <trkpt lat="48.02735" lon="2.82546">
        <ele>113</ele>
        <time>2015-11-19T09:45:14Z</time>
      </trkpt>
      <trkpt lat="48.02733" lon="2.82545">
        <ele>113</ele>
        <time>2015-11-19T09:45:15Z</time>
      </trkpt>
      <trkpt lat="48.02729" lon="2.82545">
        <ele>113</ele>
        <time>2015-11-19T09:45:17Z</time>
      </trkpt>
      <trkpt lat="48.02728" lon="2.82546">
        <ele>113</ele>
        <time>2015-11-19T09:45:18Z</time>
      </trkpt>
      <trkpt lat="48.02726" lon="2.82547">
        <ele>113</ele>
        <time>2015-11-19T09:45:19Z</time>
      </trkpt>
      <trkpt lat="48.02725" lon="2.82549">
        <ele>113</ele>
        <time>2015-11-19T09:45:21Z</time>
      </trkpt>
      <trkpt lat="48.02726" lon="2.82549">
        <ele>113</ele>
        <time>2015-11-19T09:45:23Z</time>
      </trkpt>
      <trkpt lat="48.02728" lon="2.82548">
        <ele>113</ele>
        <time>2015-11-19T09:45:25Z</time>
      </trkpt>
      <trkpt lat="48.02729" lon="2.82548">
        <ele>113</ele>
        <time>2015-11-19T09:45:27Z</time>
      </trkpt>
      <trkpt lat="48.02729" lon="2.82551">
        <ele>113</ele>
        <time>2015-11-19T09:45:29Z</time>
      </trkpt>
      <trkpt lat="48.02729" lon="2.82554">
        <ele>113</ele>
        <time>2015-11-19T09:45:31Z</time>
      </trkpt>
      <trkpt lat="48.02728" lon="2.82556">
        <ele>114</ele>
        <time>2015-11-19T09:45:33Z</time>
      </trkpt>
      <trkpt lat="48.02725" lon="2.82557">
        <ele>114</ele>
        <time>2015-11-19T09:45:35Z</time>
      </trkpt>
      <trkpt lat="48.02722" lon="2.82556">
        <ele>114</ele>
        <time>2015-11-19T09:45:36Z</time>
      </trkpt>
      <trkpt lat="48.02719" lon="2.82557">
        <ele>114</ele>
        <time>2015-11-19T09:45:37Z</time>
      </trkpt>
      <trkpt lat="48.02716" lon="2.82557">
        <ele>114</ele>
        <time>2015-11-19T09:45:38Z</time>
      </trkpt>
      <trkpt lat="48.02712" lon="2.82557">
        <ele>114</ele>
        <time>2015-11-19T09:45:39Z</time>
      </trkpt>
      <trkpt lat="48.02709" lon="2.82557">
        <ele>114</ele>
        <time>2015-11-19T09:45:40Z</time>
      </trkpt>
      <trkpt lat="48.02706" lon="2.82556">
        <ele>114</ele>
        <time>2015-11-19T09:45:41Z</time>
      </trkpt>
      <trkpt lat="48.02703" lon="2.82555">
        <ele>114</ele>
        <time>2015-11-19T09:45:42Z</time>
      </trkpt>
      <trkpt lat="48.027" lon="2.82553">
        <ele>114</ele>
        <time>2015-11-19T09:45:43Z</time>
      </trkpt>
      <trkpt lat="48.02696" lon="2.82549">
        <ele>114</ele>
        <time>2015-11-19T09:45:45Z</time>
      </trkpt>
      <trkpt lat="48.02694" lon="2.82549">
        <ele>113</ele>
        <time>2015-11-19T09:45:46Z</time>
      </trkpt>
      <trkpt lat="48.02693" lon="2.82551">
        <ele>112</ele>
        <time>2015-11-19T09:45:47Z</time>
      </trkpt>
      <trkpt lat="48.02693" lon="2.82553">
        <ele>111</ele>
        <time>2015-11-19T09:45:48Z</time>
      </trkpt>
      <trkpt lat="48.02693" lon="2.82555">
        <ele>110</ele>
        <time>2015-11-19T09:45:49Z</time>
      </trkpt>
      <trkpt lat="48.02693" lon="2.82557">
        <ele>109</ele>
        <time>2015-11-19T09:45:50Z</time>
      </trkpt>
      <trkpt lat="48.02694" lon="2.82559">
        <ele>109</ele>
        <time>2015-11-19T09:45:51Z</time>
      </trkpt>
      <trkpt lat="48.02694" lon="2.8256">
        <ele>108</ele>
        <time>2015-11-19T09:45:53Z</time>
      </trkpt>
      <trkpt lat="48.02693" lon="2.82562">
        <ele>107</ele>
        <time>2015-11-19T09:45:54Z</time>
      </trkpt>
      <trkpt lat="48.02692" lon="2.82566">
        <ele>106</ele>
        <time>2015-11-19T09:45:56Z</time>
      </trkpt>
      <trkpt lat="48.02692" lon="2.82567">
        <ele>106</ele>
        <time>2015-11-19T09:45:57Z</time>
      </trkpt>
      <trkpt lat="48.02692" lon="2.8257">
        <ele>105</ele>
        <time>2015-11-19T09:45:58Z</time>
      </trkpt>
      <trkpt lat="48.02692" lon="2.82572">
        <ele>104</ele>
        <time>2015-11-19T09:45:59Z</time>
      </trkpt>
      <trkpt lat="48.02692" lon="2.82575">
        <ele>102</ele>
        <time>2015-11-19T09:46:01Z</time>
      </trkpt>
      <trkpt lat="48.02694" lon="2.82577">
        <ele>102</ele>
        <time>2015-11-19T09:46:02Z</time>
      </trkpt>
      <trkpt lat="48.02695" lon="2.82579">
        <ele>101</ele>
        <time>2015-11-19T09:46:04Z</time>
      </trkpt>
      <trkpt lat="48.02695" lon="2.82581">
        <ele>100</ele>
        <time>2015-11-19T09:46:05Z</time>
      </trkpt>
      <trkpt lat="48.02696" lon="2.82583">
        <ele>100</ele>
        <time>2015-11-19T09:46:06Z</time>
      </trkpt>
      <trkpt lat="48.02697" lon="2.82586">
        <ele>100</ele>
        <time>2015-11-19T09:46:07Z</time>
      </trkpt>
      <trkpt lat="48.02697" lon="2.82587">
        <ele>100</ele>
        <time>2015-11-19T09:46:08Z</time>
      </trkpt>
      <trkpt lat="48.02697" lon="2.82589">
        <ele>100</ele>
        <time>2015-11-19T09:46:09Z</time>
      </trkpt>
      <trkpt lat="48.02696" lon="2.82591">
        <ele>100</ele>
        <time>2015-11-19T09:46:10Z</time>
      </trkpt>
      <trkpt lat="48.02696" lon="2.82594">
        <ele>101</ele>
        <time>2015-11-19T09:46:11Z</time>
      </trkpt>
      <trkpt lat="48.02695" lon="2.82595">
        <ele>102</ele>
        <time>2015-11-19T09:46:12Z</time>
      </trkpt>
      <trkpt lat="48.02695" lon="2.82597">
        <ele>103</ele>
        <time>2015-11-19T09:46:13Z</time>
      </trkpt>
      <trkpt lat="48.02694" lon="2.82599">
        <ele>104</ele>
        <time>2015-11-19T09:46:14Z</time>
      </trkpt>
      <trkpt lat="48.02694" lon="2.82603">
        <ele>106</ele>
        <time>2015-11-19T09:46:16Z</time>
      </trkpt>
      <trkpt lat="48.02694" lon="2.82605">
        <ele>107</ele>
        <time>2015-11-19T09:46:17Z</time>
      </trkpt>
      <trkpt lat="48.02694" lon="2.82608">
        <ele>108</ele>
        <time>2015-11-19T09:46:18Z</time>
      </trkpt>
      <trkpt lat="48.02694" lon="2.82611">
        <ele>108</ele>
        <time>2015-11-19T09:46:19Z</time>
      </trkpt>
      <trkpt lat="48.02693" lon="2.82617">
        <ele>108</ele>
        <time>2015-11-19T09:46:21Z</time>
      </trkpt>
      <trkpt lat="48.02692" lon="2.8262">
        <ele>108</ele>
        <time>2015-11-19T09:46:22Z</time>
      </trkpt>
      <trkpt lat="48.02691" lon="2.82623">
        <ele>108</ele>
        <time>2015-11-19T09:46:23Z</time>
      </trkpt>
      <trkpt lat="48.0269" lon="2.82626">
        <ele>108</ele>
        <time>2015-11-19T09:46:24Z</time>
      </trkpt>
      <trkpt lat="48.02689" lon="2.82628">
        <ele>108</ele>
        <time>2015-11-19T09:46:25Z</time>
      </trkpt>
      <trkpt lat="48.02688" lon="2.8263">
        <ele>108</ele>
        <time>2015-11-19T09:46:26Z</time>
      </trkpt>
      <trkpt lat="48.02687" lon="2.82627">
        <ele>108</ele>
        <time>2015-11-19T09:46:28Z</time>
      </trkpt>
      <trkpt lat="48.02686" lon="2.82624">
        <ele>108</ele>
        <time>2015-11-19T09:46:29Z</time>
      </trkpt>
      <trkpt lat="48.02685" lon="2.8262">
        <ele>108</ele>
        <time>2015-11-19T09:46:30Z</time>
      </trkpt>
      <trkpt lat="48.02684" lon="2.82616">
        <ele>108</ele>
        <time>2015-11-19T09:46:31Z</time>
      </trkpt>
      <trkpt lat="48.02682" lon="2.82613">
        <ele>108</ele>
        <time>2015-11-19T09:46:32Z</time>
      </trkpt>
      <trkpt lat="48.02678" lon="2.82612">
        <ele>108</ele>
        <time>2015-11-19T09:46:33Z</time>
      </trkpt>
      <trkpt lat="48.02675" lon="2.82613">
        <ele>108</ele>
        <time>2015-11-19T09:46:34Z</time>
      </trkpt>
      <trkpt lat="48.02673" lon="2.82611">
        <ele>108</ele>
        <time>2015-11-19T09:46:35Z</time>
      </trkpt>
      <trkpt lat="48.02671" lon="2.82608">
        <ele>108</ele>
        <time>2015-11-19T09:46:36Z</time>
      </trkpt>
      <trkpt lat="48.02671" lon="2.82603">
        <ele>108</ele>
        <time>2015-11-19T09:46:37Z</time>
      </trkpt>
      <trkpt lat="48.02671" lon="2.82598">
        <ele>108</ele>
        <time>2015-11-19T09:46:38Z</time>
      </trkpt>
      <trkpt lat="48.02671" lon="2.82596">
        <ele>108</ele>
        <time>2015-11-19T09:46:39Z</time>
      </trkpt>
      <trkpt lat="48.02669" lon="2.82595">
        <ele>108</ele>
        <time>2015-11-19T09:46:40Z</time>
      </trkpt>
      <trkpt lat="48.02668" lon="2.82595">
        <ele>108</ele>
        <time>2015-11-19T09:46:41Z</time>
      </trkpt>
      <trkpt lat="48.02665" lon="2.82595">
        <ele>108</ele>
        <time>2015-11-19T09:46:42Z</time>
      </trkpt>
      <trkpt lat="48.02662" lon="2.82596">
        <ele>108</ele>
        <time>2015-11-19T09:46:43Z</time>
      </trkpt>
      <trkpt lat="48.0266" lon="2.82597">
        <ele>108</ele>
        <time>2015-11-19T09:46:44Z</time>
      </trkpt>
      <trkpt lat="48.02658" lon="2.82599">
        <ele>108</ele>
        <time>2015-11-19T09:46:46Z</time>
      </trkpt>
      <trkpt lat="48.02657" lon="2.82601">
        <ele>108</ele>
        <time>2015-11-19T09:46:47Z</time>
      </trkpt>
      <trkpt lat="48.02657" lon="2.82604">
        <ele>108</ele>
        <time>2015-11-19T09:46:48Z</time>
      </trkpt>
      <trkpt lat="48.02657" lon="2.82606">
        <ele>108</ele>
        <time>2015-11-19T09:46:49Z</time>
      </trkpt>
      <trkpt lat="48.02658" lon="2.82608">
        <ele>110</ele>
        <time>2015-11-19T09:46:51Z</time>
      </trkpt>
      <trkpt lat="48.0266" lon="2.82608">
        <ele>110</ele>
        <time>2015-11-19T09:46:52Z</time>
      </trkpt>
      <trkpt lat="48.02662" lon="2.8261">
        <ele>110</ele>
        <time>2015-11-19T09:46:53Z</time>
      </trkpt>
      <trkpt lat="48.02663" lon="2.82611">
        <ele>111</ele>
        <time>2015-11-19T09:46:54Z</time>
      </trkpt>
      <trkpt lat="48.02664" lon="2.82613">
        <ele>111</ele>
        <time>2015-11-19T09:46:55Z</time>
      </trkpt>
      <trkpt lat="48.02665" lon="2.82615">
        <ele>112</ele>
        <time>2015-11-19T09:46:56Z</time>
      </trkpt>
      <trkpt lat="48.02665" lon="2.82616">
        <ele>112</ele>
        <time>2015-11-19T09:46:57Z</time>
      </trkpt>
      <trkpt lat="48.02665" lon="2.82618">
        <ele>112</ele>
        <time>2015-11-19T09:46:58Z</time>
      </trkpt>
      <trkpt lat="48.02666" lon="2.82621">
        <ele>113</ele>
        <time>2015-11-19T09:46:59Z</time>
      </trkpt>
      <trkpt lat="48.02667" lon="2.82624">
        <ele>113</ele>
        <time>2015-11-19T09:47:00Z</time>
      </trkpt>
      <trkpt lat="48.02667" lon="2.82626">
        <ele>113</ele>
        <time>2015-11-19T09:47:01Z</time>
      </trkpt>
      <trkpt lat="48.02668" lon="2.82629">
        <ele>113</ele>
        <time>2015-11-19T09:47:02Z</time>
      </trkpt>
      <trkpt lat="48.02668" lon="2.82632">
        <ele>113</ele>
        <time>2015-11-19T09:47:04Z</time>
      </trkpt>
      <trkpt lat="48.02668" lon="2.82637">
        <ele>113</ele>
        <time>2015-11-19T09:47:06Z</time>
      </trkpt>
      <trkpt lat="48.02666" lon="2.82638">
        <ele>113</ele>
        <time>2015-11-19T09:47:08Z</time>
      </trkpt>
      <trkpt lat="48.02664" lon="2.82635">
        <ele>113</ele>
        <time>2015-11-19T09:47:09Z</time>
      </trkpt>
      <trkpt lat="48.02662" lon="2.82633">
        <ele>113</ele>
        <time>2015-11-19T09:47:10Z</time>
      </trkpt>
      <trkpt lat="48.0266" lon="2.82631">
        <ele>113</ele>
        <time>2015-11-19T09:47:11Z</time>
      </trkpt>
      <trkpt lat="48.02656" lon="2.82627">
        <ele>113</ele>
        <time>2015-11-19T09:47:12Z</time>
      </trkpt>
      <trkpt lat="48.02653" lon="2.82622">
        <ele>113</ele>
        <time>2015-11-19T09:47:13Z</time>
      </trkpt>
      <trkpt lat="48.0265" lon="2.82618">
        <ele>113</ele>
        <time>2015-11-19T09:47:14Z</time>
      </trkpt>
      <trkpt lat="48.02647" lon="2.82615">
        <ele>113</ele>
        <time>2015-11-19T09:47:15Z</time>
      </trkpt>
      <trkpt lat="48.02645" lon="2.82614">
        <ele>113</ele>
        <time>2015-11-19T09:47:16Z</time>
      </trkpt>
      <trkpt lat="48.02643" lon="2.82613">
        <ele>112</ele>
        <time>2015-11-19T09:47:17Z</time>
      </trkpt>
      <trkpt lat="48.02642" lon="2.82613">
        <ele>111</ele>
        <time>2015-11-19T09:47:18Z</time>
      </trkpt>
      <trkpt lat="48.0264" lon="2.82613">
        <ele>111</ele>
        <time>2015-11-19T09:47:19Z</time>
      </trkpt>
      <trkpt lat="48.02638" lon="2.82614">
        <ele>110</ele>
        <time>2015-11-19T09:47:21Z</time>
      </trkpt>
      <trkpt lat="48.02637" lon="2.82616">
        <ele>110</ele>
        <time>2015-11-19T09:47:22Z</time>
      </trkpt>
      <trkpt lat="48.02635" lon="2.82618">
        <ele>108</ele>
        <time>2015-11-19T09:47:24Z</time>
      </trkpt>
      <trkpt lat="48.02634" lon="2.82621">
        <ele>108</ele>
        <time>2015-11-19T09:47:25Z</time>
      </trkpt>
      <trkpt lat="48.02633" lon="2.82623">
        <ele>107</ele>
        <time>2015-11-19T09:47:26Z</time>
      </trkpt>
      <trkpt lat="48.02632" lon="2.82625">
        <ele>107</ele>
        <time>2015-11-19T09:47:27Z</time>
      </trkpt>
      <trkpt lat="48.02631" lon="2.82627">
        <ele>106</ele>
        <time>2015-11-19T09:47:28Z</time>
      </trkpt>
      <trkpt lat="48.0263" lon="2.82629">
        <ele>106</ele>
        <time>2015-11-19T09:47:29Z</time>
      </trkpt>
      <trkpt lat="48.02628" lon="2.82631">
        <ele>105</ele>
        <time>2015-11-19T09:47:30Z</time>
      </trkpt>
      <trkpt lat="48.02628" lon="2.82632">
        <ele>105</ele>
        <time>2015-11-19T09:47:31Z</time>
      </trkpt>
      <trkpt lat="48.02626" lon="2.82637">
        <ele>105</ele>
        <time>2015-11-19T09:47:33Z</time>
      </trkpt>
      <trkpt lat="48.02625" lon="2.82639">
        <ele>105</ele>
        <time>2015-11-19T09:47:34Z</time>
      </trkpt>
      <trkpt lat="48.02623" lon="2.8264">
        <ele>105</ele>
        <time>2015-11-19T09:47:35Z</time>
      </trkpt>
      <trkpt lat="48.02621" lon="2.82642">
        <ele>105</ele>
        <time>2015-11-19T09:47:36Z</time>
      </trkpt>
      <trkpt lat="48.02619" lon="2.82644">
        <ele>104</ele>
        <time>2015-11-19T09:47:37Z</time>
      </trkpt>
      <trkpt lat="48.02617" lon="2.82645">
        <ele>103</ele>
        <time>2015-11-19T09:47:38Z</time>
      </trkpt>
      <trkpt lat="48.02614" lon="2.82646">
        <ele>102</ele>
        <time>2015-11-19T09:47:39Z</time>
      </trkpt>
      <trkpt lat="48.02612" lon="2.82645">
        <ele>101</ele>
        <time>2015-11-19T09:47:40Z</time>
      </trkpt>
      <trkpt lat="48.0261" lon="2.82645">
        <ele>101</ele>
        <time>2015-11-19T09:47:41Z</time>
      </trkpt>
      <trkpt lat="48.02608" lon="2.82645">
        <ele>101</ele>
        <time>2015-11-19T09:47:42Z</time>
      </trkpt>
      <trkpt lat="48.02606" lon="2.82645">
        <ele>100</ele>
        <time>2015-11-19T09:47:43Z</time>
      </trkpt>
      <trkpt lat="48.02604" lon="2.82646">
        <ele>100</ele>
        <time>2015-11-19T09:47:44Z</time>
      </trkpt>
      <trkpt lat="48.02602" lon="2.82647">
        <ele>100</ele>
        <time>2015-11-19T09:47:45Z</time>
      </trkpt>
      <trkpt lat="48.026" lon="2.82648">
        <ele>100</ele>
        <time>2015-11-19T09:47:46Z</time>
      </trkpt>
      <trkpt lat="48.02598" lon="2.8265">
        <ele>100</ele>
        <time>2015-11-19T09:47:47Z</time>
      </trkpt>
      <trkpt lat="48.02596" lon="2.82652">
        <ele>100</ele>
        <time>2015-11-19T09:47:48Z</time>
      </trkpt>
      <trkpt lat="48.02595" lon="2.82653">
        <ele>100</ele>
        <time>2015-11-19T09:47:49Z</time>
      </trkpt>
      <trkpt lat="48.02592" lon="2.82656">
        <ele>100</ele>
        <time>2015-11-19T09:47:50Z</time>
      </trkpt>
      <trkpt lat="48.02591" lon="2.82658">
        <ele>100</ele>
        <time>2015-11-19T09:47:51Z</time>
      </trkpt>
      <trkpt lat="48.0259" lon="2.8266">
        <ele>100</ele>
        <time>2015-11-19T09:47:52Z</time>
      </trkpt>
      <trkpt lat="48.02589" lon="2.82663">
        <ele>100</ele>
        <time>2015-11-19T09:47:53Z</time>
      </trkpt>
      <trkpt lat="48.02588" lon="2.82666">
        <ele>100</ele>
        <time>2015-11-19T09:47:54Z</time>
      </trkpt>
      <trkpt lat="48.02587" lon="2.82668">
        <ele>100</ele>
        <time>2015-11-19T09:47:55Z</time>
      </trkpt>
      <trkpt lat="48.02586" lon="2.82672">
        <ele>100</ele>
        <time>2015-11-19T09:47:56Z</time>
      </trkpt>
      <trkpt lat="48.02585" lon="2.82676">
        <ele>100</ele>
        <time>2015-11-19T09:47:57Z</time>
      </trkpt>
      <trkpt lat="48.02584" lon="2.82678">
        <ele>100</ele>
        <time>2015-11-19T09:47:58Z</time>
      </trkpt>
      <trkpt lat="48.02583" lon="2.8268">
        <ele>100</ele>
        <time>2015-11-19T09:47:59Z</time>
      </trkpt>
      <trkpt lat="48.02582" lon="2.82682">
        <ele>100</ele>
        <time>2015-11-19T09:48:00Z</time>
      </trkpt>
      <trkpt lat="48.0258" lon="2.82684">
        <ele>100</ele>
        <time>2015-11-19T09:48:01Z</time>
      </trkpt>
      <trkpt lat="48.02578" lon="2.82685">
        <ele>100</ele>
        <time>2015-11-19T09:48:02Z</time>
      </trkpt>
      <trkpt lat="48.02576" lon="2.82686">
        <ele>100</ele>
        <time>2015-11-19T09:48:03Z</time>
      </trkpt>
      <trkpt lat="48.02575" lon="2.82688">
        <ele>101</ele>
        <time>2015-11-19T09:48:04Z</time>
      </trkpt>
      <trkpt lat="48.02574" lon="2.82691">
        <ele>102</ele>
        <time>2015-11-19T09:48:05Z</time>
      </trkpt>
      <trkpt lat="48.02573" lon="2.82693">
        <ele>102</ele>
        <time>2015-11-19T09:48:06Z</time>
      </trkpt>
      <trkpt lat="48.02572" lon="2.82695">
        <ele>102</ele>
        <time>2015-11-19T09:48:07Z</time>
      </trkpt>
      <trkpt lat="48.02571" lon="2.82698">
        <ele>102</ele>
        <time>2015-11-19T09:48:08Z</time>
      </trkpt>
      <trkpt lat="48.0257" lon="2.827">
        <ele>102</ele>
        <time>2015-11-19T09:48:09Z</time>
      </trkpt>
      <trkpt lat="48.02569" lon="2.82703">
        <ele>102</ele>
        <time>2015-11-19T09:48:10Z</time>
      </trkpt>
      <trkpt lat="48.02568" lon="2.82706">
        <ele>102</ele>
        <time>2015-11-19T09:48:11Z</time>
      </trkpt>
      <trkpt lat="48.02566" lon="2.82708">
        <ele>102</ele>
        <time>2015-11-19T09:48:12Z</time>
      </trkpt>
      <trkpt lat="48.02564" lon="2.8271">
        <ele>103</ele>
        <time>2015-11-19T09:48:13Z</time>
      </trkpt>
      <trkpt lat="48.02562" lon="2.8271">
        <ele>103</ele>
        <time>2015-11-19T09:48:14Z</time>
      </trkpt>
      <trkpt lat="48.0256" lon="2.82711">
        <ele>103</ele>
        <time>2015-11-19T09:48:15Z</time>
      </trkpt>
      <trkpt lat="48.02558" lon="2.82712">
        <ele>103</ele>
        <time>2015-11-19T09:48:16Z</time>
      </trkpt>
      <trkpt lat="48.02556" lon="2.82711">
        <ele>103</ele>
        <time>2015-11-19T09:48:17Z</time>
      </trkpt>
      <trkpt lat="48.02555" lon="2.8271">
        <ele>103</ele>
        <time>2015-11-19T09:48:18Z</time>
      </trkpt>
      <trkpt lat="48.02553" lon="2.82708">
        <ele>103</ele>
        <time>2015-11-19T09:48:19Z</time>
      </trkpt>
      <trkpt lat="48.02551" lon="2.82705">
        <ele>103</ele>
        <time>2015-11-19T09:48:20Z</time>
      </trkpt>
      <trkpt lat="48.02549" lon="2.82702">
        <ele>103</ele>
        <time>2015-11-19T09:48:21Z</time>
      </trkpt>
      <trkpt lat="48.02545" lon="2.827">
        <ele>103</ele>
        <time>2015-11-19T09:48:22Z</time>
      </trkpt>
      <trkpt lat="48.02542" lon="2.82697">
        <ele>104</ele>
        <time>2015-11-19T09:48:23Z</time>
      </trkpt>
      <trkpt lat="48.02539" lon="2.82696">
        <ele>104</ele>
        <time>2015-11-19T09:48:24Z</time>
      </trkpt>
      <trkpt lat="48.02538" lon="2.82693">
        <ele>106</ele>
        <time>2015-11-19T09:48:27Z</time>
      </trkpt>
      <trkpt lat="48.02536" lon="2.82687">
        <ele>106</ele>
        <time>2015-11-19T09:48:29Z</time>
      </trkpt>
      <trkpt lat="48.02534" lon="2.82684">
        <ele>106</ele>
        <time>2015-11-19T09:48:30Z</time>
      </trkpt>
      <trkpt lat="48.02533" lon="2.8268">
        <ele>107</ele>
        <time>2015-11-19T09:48:31Z</time>
      </trkpt>
      <trkpt lat="48.0253" lon="2.82675">
        <ele>107</ele>
        <time>2015-11-19T09:48:32Z</time>
      </trkpt>
      <trkpt lat="48.02528" lon="2.82672">
        <ele>107</ele>
        <time>2015-11-19T09:48:33Z</time>
      </trkpt>
      <trkpt lat="48.02527" lon="2.82671">
        <ele>107</ele>
        <time>2015-11-19T09:48:34Z</time>
      </trkpt>
      <trkpt lat="48.02525" lon="2.82668">
        <ele>108</ele>
        <time>2015-11-19T09:48:35Z</time>
      </trkpt>
      <trkpt lat="48.02524" lon="2.82667">
        <ele>108</ele>
        <time>2015-11-19T09:48:37Z</time>
      </trkpt>
      <trkpt lat="48.02522" lon="2.82665">
        <ele>108</ele>
        <time>2015-11-19T09:48:39Z</time>
      </trkpt>
      <trkpt lat="48.02522" lon="2.82673">
        <ele>119</ele>
        <time>2015-11-19T09:48:41Z</time>
      </trkpt>
      <trkpt lat="48.02519" lon="2.82672">
        <ele>119</ele>
        <time>2015-11-19T09:48:42Z</time>
      </trkpt>
      <trkpt lat="48.02515" lon="2.82671">
        <ele>119</ele>
        <time>2015-11-19T09:48:43Z</time>
      </trkpt>
      <trkpt lat="48.02511" lon="2.82671">
        <ele>119</ele>
        <time>2015-11-19T09:48:44Z</time>
      </trkpt>
      <trkpt lat="48.02509" lon="2.82671">
        <ele>118</ele>
        <time>2015-11-19T09:48:45Z</time>
      </trkpt>
      <trkpt lat="48.02507" lon="2.82673">
        <ele>117</ele>
        <time>2015-11-19T09:48:46Z</time>
      </trkpt>
      <trkpt lat="48.02506" lon="2.82675">
        <ele>116</ele>
        <time>2015-11-19T09:48:47Z</time>
      </trkpt>
      <trkpt lat="48.02505" lon="2.82677">
        <ele>115</ele>
        <time>2015-11-19T09:48:48Z</time>
      </trkpt>
      <trkpt lat="48.02504" lon="2.82679">
        <ele>114</ele>
        <time>2015-11-19T09:48:49Z</time>
      </trkpt>
      <trkpt lat="48.02502" lon="2.82681">
        <ele>113</ele>
        <time>2015-11-19T09:48:50Z</time>
      </trkpt>
      <trkpt lat="48.02501" lon="2.82683">
        <ele>112</ele>
        <time>2015-11-19T09:48:51Z</time>
      </trkpt>
      <trkpt lat="48.025" lon="2.82686">
        <ele>111</ele>
        <time>2015-11-19T09:48:52Z</time>
      </trkpt>
      <trkpt lat="48.025" lon="2.82687">
        <ele>110</ele>
        <time>2015-11-19T09:48:53Z</time>
      </trkpt>
      <trkpt lat="48.025" lon="2.8269">
        <ele>109</ele>
        <time>2015-11-19T09:48:54Z</time>
      </trkpt>
      <trkpt lat="48.025" lon="2.82692">
        <ele>108</ele>
        <time>2015-11-19T09:48:55Z</time>
      </trkpt>
      <trkpt lat="48.025" lon="2.82693">
        <ele>107</ele>
        <time>2015-11-19T09:48:56Z</time>
      </trkpt>
      <trkpt lat="48.025" lon="2.82696">
        <ele>106</ele>
        <time>2015-11-19T09:48:57Z</time>
      </trkpt>
      <trkpt lat="48.025" lon="2.82697">
        <ele>105</ele>
        <time>2015-11-19T09:48:58Z</time>
      </trkpt>
      <trkpt lat="48.02499" lon="2.82699">
        <ele>105</ele>
        <time>2015-11-19T09:48:59Z</time>
      </trkpt>
      <trkpt lat="48.02498" lon="2.82703">
        <ele>105</ele>
        <time>2015-11-19T09:49:01Z</time>
      </trkpt>
      <trkpt lat="48.02498" lon="2.82704">
        <ele>105</ele>
        <time>2015-11-19T09:49:02Z</time>
      </trkpt>
      <trkpt lat="48.02499" lon="2.82707">
        <ele>105</ele>
        <time>2015-11-19T09:49:03Z</time>
      </trkpt>
      <trkpt lat="48.02499" lon="2.82709">
        <ele>105</ele>
        <time>2015-11-19T09:49:04Z</time>
      </trkpt>
      <trkpt lat="48.02499" lon="2.82711">
        <ele>105</ele>
        <time>2015-11-19T09:49:05Z</time>
      </trkpt>
      <trkpt lat="48.02498" lon="2.82714">
        <ele>105</ele>
        <time>2015-11-19T09:49:07Z</time>
      </trkpt>
      <trkpt lat="48.02496" lon="2.82716">
        <ele>105</ele>
        <time>2015-11-19T09:49:08Z</time>
      </trkpt>
      <trkpt lat="48.02496" lon="2.82719">
        <ele>105</ele>
        <time>2015-11-19T09:49:09Z</time>
      </trkpt>
      <trkpt lat="48.02496" lon="2.82721">
        <ele>105</ele>
        <time>2015-11-19T09:49:10Z</time>
      </trkpt>
      <trkpt lat="48.02496" lon="2.82725">
        <ele>105</ele>
        <time>2015-11-19T09:49:11Z</time>
      </trkpt>
      <trkpt lat="48.02496" lon="2.82728">
        <ele>105</ele>
        <time>2015-11-19T09:49:12Z</time>
      </trkpt>
      <trkpt lat="48.02497" lon="2.82731">
        <ele>105</ele>
        <time>2015-11-19T09:49:13Z</time>
      </trkpt>
      <trkpt lat="48.02497" lon="2.82733">
        <ele>105</ele>
        <time>2015-11-19T09:49:14Z</time>
      </trkpt>
      <trkpt lat="48.02497" lon="2.82735">
        <ele>105</ele>
        <time>2015-11-19T09:49:15Z</time>
      </trkpt>
      <trkpt lat="48.02497" lon="2.82737">
        <ele>105</ele>
        <time>2015-11-19T09:49:16Z</time>
      </trkpt>
      <trkpt lat="48.02498" lon="2.8274">
        <ele>105</ele>
        <time>2015-11-19T09:49:17Z</time>
      </trkpt>
      <trkpt lat="48.02499" lon="2.82743">
        <ele>105</ele>
        <time>2015-11-19T09:49:18Z</time>
      </trkpt>
      <trkpt lat="48.025" lon="2.82745">
        <ele>105</ele>
        <time>2015-11-19T09:49:19Z</time>
      </trkpt>
      <trkpt lat="48.02501" lon="2.82747">
        <ele>105</ele>
        <time>2015-11-19T09:49:20Z</time>
      </trkpt>
      <trkpt lat="48.02501" lon="2.82749">
        <ele>105</ele>
        <time>2015-11-19T09:49:21Z</time>
      </trkpt>
      <trkpt lat="48.02502" lon="2.82751">
        <ele>105</ele>
        <time>2015-11-19T09:49:23Z</time>
      </trkpt>
      <trkpt lat="48.02504" lon="2.82753">
        <ele>105</ele>
        <time>2015-11-19T09:49:25Z</time>
      </trkpt>
      <trkpt lat="48.02505" lon="2.82755">
        <ele>105</ele>
        <time>2015-11-19T09:49:27Z</time>
      </trkpt>
      <trkpt lat="48.02506" lon="2.82758">
        <ele>105</ele>
        <time>2015-11-19T09:49:28Z</time>
      </trkpt>
      <trkpt lat="48.02508" lon="2.82761">
        <ele>105</ele>
        <time>2015-11-19T09:49:29Z</time>
      </trkpt>
      <trkpt lat="48.0251" lon="2.82764">
        <ele>106</ele>
        <time>2015-11-19T09:49:30Z</time>
      </trkpt>
      <trkpt lat="48.0251" lon="2.82766">
        <ele>106</ele>
        <time>2015-11-19T09:49:31Z</time>
      </trkpt>
      <trkpt lat="48.02511" lon="2.82767">
        <ele>107</ele>
        <time>2015-11-19T09:49:32Z</time>
      </trkpt>
      <trkpt lat="48.02511" lon="2.82769">
        <ele>107</ele>
        <time>2015-11-19T09:49:33Z</time>
      </trkpt>
      <trkpt lat="48.02511" lon="2.82771">
        <ele>108</ele>
        <time>2015-11-19T09:49:34Z</time>
      </trkpt>
      <trkpt lat="48.02512" lon="2.82773">
        <ele>108</ele>
        <time>2015-11-19T09:49:36Z</time>
      </trkpt>
      <trkpt lat="48.02497" lon="2.82773">
        <ele>118</ele>
        <time>2015-11-19T09:49:38Z</time>
      </trkpt>
      <trkpt lat="48.02495" lon="2.82777">
        <ele>118</ele>
        <time>2015-11-19T09:49:40Z</time>
      </trkpt>
      <trkpt lat="48.02492" lon="2.82779">
        <ele>118</ele>
        <time>2015-11-19T09:49:41Z</time>
      </trkpt>
      <trkpt lat="48.02489" lon="2.82781">
        <ele>118</ele>
        <time>2015-11-19T09:49:42Z</time>
      </trkpt>
      <trkpt lat="48.02486" lon="2.82783">
        <ele>118</ele>
        <time>2015-11-19T09:49:43Z</time>
      </trkpt>
      <trkpt lat="48.02484" lon="2.82787">
        <ele>118</ele>
        <time>2015-11-19T09:49:44Z</time>
      </trkpt>
      <trkpt lat="48.02483" lon="2.8279">
        <ele>118</ele>
        <time>2015-11-19T09:49:45Z</time>
      </trkpt>
      <trkpt lat="48.02483" lon="2.82793">
        <ele>118</ele>
        <time>2015-11-19T09:49:46Z</time>
      </trkpt>
      <trkpt lat="48.02483" lon="2.82798">
        <ele>118</ele>
        <time>2015-11-19T09:49:48Z</time>
      </trkpt>
      <trkpt lat="48.02483" lon="2.828">
        <ele>118</ele>
        <time>2015-11-19T09:49:49Z</time>
      </trkpt>
      <trkpt lat="48.02483" lon="2.82802">
        <ele>118</ele>
        <time>2015-11-19T09:49:50Z</time>
      </trkpt>
      <trkpt lat="48.02483" lon="2.82804">
        <ele>118</ele>
        <time>2015-11-19T09:49:51Z</time>
      </trkpt>
      <trkpt lat="48.02481" lon="2.82805">
        <ele>118</ele>
        <time>2015-11-19T09:49:53Z</time>
      </trkpt>
      <trkpt lat="48.02479" lon="2.82805">
        <ele>118</ele>
        <time>2015-11-19T09:49:54Z</time>
      </trkpt>
      <trkpt lat="48.02476" lon="2.82806">
        <ele>118</ele>
        <time>2015-11-19T09:49:55Z</time>
      </trkpt>
      <trkpt lat="48.02474" lon="2.82808">
        <ele>118</ele>
        <time>2015-11-19T09:49:56Z</time>
      </trkpt>
      <trkpt lat="48.02472" lon="2.82812">
        <ele>118</ele>
        <time>2015-11-19T09:49:57Z</time>
      </trkpt>
      <trkpt lat="48.0247" lon="2.82816">
        <ele>118</ele>
        <time>2015-11-19T09:49:58Z</time>
      </trkpt>
      <trkpt lat="48.02469" lon="2.82819">
        <ele>118</ele>
        <time>2015-11-19T09:49:59Z</time>
      </trkpt>
      <trkpt lat="48.02468" lon="2.82821">
        <ele>118</ele>
        <time>2015-11-19T09:50:00Z</time>
      </trkpt>
      <trkpt lat="48.02468" lon="2.82824">
        <ele>118</ele>
        <time>2015-11-19T09:50:01Z</time>
      </trkpt>
      <trkpt lat="48.02467" lon="2.82826">
        <ele>118</ele>
        <time>2015-11-19T09:50:02Z</time>
      </trkpt>
      <trkpt lat="48.02467" lon="2.82829">
        <ele>117</ele>
        <time>2015-11-19T09:50:03Z</time>
      </trkpt>
      <trkpt lat="48.02467" lon="2.82832">
        <ele>117</ele>
        <time>2015-11-19T09:50:04Z</time>
      </trkpt>
      <trkpt lat="48.02467" lon="2.82834">
        <ele>116</ele>
        <time>2015-11-19T09:50:05Z</time>
      </trkpt>
      <trkpt lat="48.02466" lon="2.82837">
        <ele>116</ele>
        <time>2015-11-19T09:50:06Z</time>
      </trkpt>
      <trkpt lat="48.02466" lon="2.82838">
        <ele>116</ele>
        <time>2015-11-19T09:50:07Z</time>
      </trkpt>
      <trkpt lat="48.02472" lon="2.8285">
        <ele>117</ele>
        <time>2015-11-19T09:50:11Z</time>
      </trkpt>
      <trkpt lat="48.02473" lon="2.82851">
        <ele>117</ele>
        <time>2015-11-19T09:50:12Z</time>
      </trkpt>
      <trkpt lat="48.02473" lon="2.82853">
        <ele>117</ele>
        <time>2015-11-19T09:50:13Z</time>
      </trkpt>
      <trkpt lat="48.02474" lon="2.82854">
        <ele>117</ele>
        <time>2015-11-19T09:50:14Z</time>
      </trkpt>
      <trkpt lat="48.02476" lon="2.82857">
        <ele>117</ele>
        <time>2015-11-19T09:50:15Z</time>
      </trkpt>
      <trkpt lat="48.02476" lon="2.8286">
        <ele>117</ele>
        <time>2015-11-19T09:50:16Z</time>
      </trkpt>
      <trkpt lat="48.02477" lon="2.82863">
        <ele>117</ele>
        <time>2015-11-19T09:50:17Z</time>
      </trkpt>
      <trkpt lat="48.02477" lon="2.82866">
        <ele>117</ele>
        <time>2015-11-19T09:50:18Z</time>
      </trkpt>
      <trkpt lat="48.02478" lon="2.82867">
        <ele>117</ele>
        <time>2015-11-19T09:50:20Z</time>
      </trkpt>
      <trkpt lat="48.02472" lon="2.82877">
        <ele>120</ele>
        <time>2015-11-19T09:50:22Z</time>
      </trkpt>
      <trkpt lat="48.02471" lon="2.8288">
        <ele>120</ele>
        <time>2015-11-19T09:50:23Z</time>
      </trkpt>
      <trkpt lat="48.02471" lon="2.82883">
        <ele>120</ele>
        <time>2015-11-19T09:50:24Z</time>
      </trkpt>
      <trkpt lat="48.0247" lon="2.82886">
        <ele>120</ele>
        <time>2015-11-19T09:50:25Z</time>
      </trkpt>
      <trkpt lat="48.0247" lon="2.82888">
        <ele>120</ele>
        <time>2015-11-19T09:50:26Z</time>
      </trkpt>
      <trkpt lat="48.0247" lon="2.82889">
        <ele>120</ele>
        <time>2015-11-19T09:50:27Z</time>
      </trkpt>
      <trkpt lat="48.02468" lon="2.82892">
        <ele>120</ele>
        <time>2015-11-19T09:50:29Z</time>
      </trkpt>
      <trkpt lat="48.02465" lon="2.82893">
        <ele>120</ele>
        <time>2015-11-19T09:50:30Z</time>
      </trkpt>
      <trkpt lat="48.02464" lon="2.82896">
        <ele>120</ele>
        <time>2015-11-19T09:50:31Z</time>
      </trkpt>
      <trkpt lat="48.02463" lon="2.82899">
        <ele>120</ele>
        <time>2015-11-19T09:50:32Z</time>
      </trkpt>
      <trkpt lat="48.02461" lon="2.82903">
        <ele>120</ele>
        <time>2015-11-19T09:50:33Z</time>
      </trkpt>
      <trkpt lat="48.02459" lon="2.82904">
        <ele>120</ele>
        <time>2015-11-19T09:50:34Z</time>
      </trkpt>
      <trkpt lat="48.02457" lon="2.82904">
        <ele>120</ele>
        <time>2015-11-19T09:50:35Z</time>
      </trkpt>
      <trkpt lat="48.02455" lon="2.82903">
        <ele>120</ele>
        <time>2015-11-19T09:50:36Z</time>
      </trkpt>
      <trkpt lat="48.02453" lon="2.829">
        <ele>120</ele>
        <time>2015-11-19T09:50:37Z</time>
      </trkpt>
      <trkpt lat="48.02451" lon="2.82897">
        <ele>120</ele>
        <time>2015-11-19T09:50:38Z</time>
      </trkpt>
      <trkpt lat="48.02449" lon="2.82896">
        <ele>120</ele>
        <time>2015-11-19T09:50:39Z</time>
      </trkpt>
      <trkpt lat="48.02447" lon="2.82898">
        <ele>120</ele>
        <time>2015-11-19T09:50:40Z</time>
      </trkpt>
      <trkpt lat="48.02444" lon="2.82899">
        <ele>120</ele>
        <time>2015-11-19T09:50:41Z</time>
      </trkpt>
      <trkpt lat="48.02441" lon="2.82898">
        <ele>120</ele>
        <time>2015-11-19T09:50:42Z</time>
      </trkpt>
      <trkpt lat="48.02438" lon="2.82896">
        <ele>120</ele>
        <time>2015-11-19T09:50:43Z</time>
      </trkpt>
      <trkpt lat="48.02435" lon="2.82895">
        <ele>120</ele>
        <time>2015-11-19T09:50:44Z</time>
      </trkpt>
      <trkpt lat="48.02433" lon="2.82896">
        <ele>120</ele>
        <time>2015-11-19T09:50:45Z</time>
      </trkpt>
      <trkpt lat="48.02431" lon="2.82895">
        <ele>120</ele>
        <time>2015-11-19T09:50:46Z</time>
      </trkpt>
      <trkpt lat="48.0243" lon="2.82894">
        <ele>120</ele>
        <time>2015-11-19T09:50:47Z</time>
      </trkpt>
      <trkpt lat="48.02429" lon="2.82893">
        <ele>120</ele>
        <time>2015-11-19T09:50:48Z</time>
      </trkpt>
      <trkpt lat="48.02428" lon="2.8289">
        <ele>120</ele>
        <time>2015-11-19T09:50:49Z</time>
      </trkpt>
      <trkpt lat="48.02427" lon="2.82887">
        <ele>120</ele>
        <time>2015-11-19T09:50:50Z</time>
      </trkpt>
      <trkpt lat="48.02426" lon="2.82885">
        <ele>120</ele>
        <time>2015-11-19T09:50:51Z</time>
      </trkpt>
      <trkpt lat="48.02425" lon="2.82883">
        <ele>120</ele>
        <time>2015-11-19T09:50:52Z</time>
      </trkpt>
      <trkpt lat="48.02424" lon="2.82881">
        <ele>120</ele>
        <time>2015-11-19T09:50:53Z</time>
      </trkpt>
      <trkpt lat="48.02423" lon="2.82879">
        <ele>120</ele>
        <time>2015-11-19T09:50:54Z</time>
      </trkpt>
      <trkpt lat="48.02421" lon="2.82878">
        <ele>120</ele>
        <time>2015-11-19T09:50:55Z</time>
      </trkpt>
      <trkpt lat="48.02419" lon="2.82877">
        <ele>120</ele>
        <time>2015-11-19T09:50:56Z</time>
      </trkpt>
      <trkpt lat="48.02418" lon="2.82874">
        <ele>120</ele>
        <time>2015-11-19T09:50:57Z</time>
      </trkpt>
      <trkpt lat="48.02416" lon="2.82873">
        <ele>120</ele>
        <time>2015-11-19T09:50:58Z</time>
      </trkpt>
      <trkpt lat="48.02415" lon="2.82871">
        <ele>120</ele>
        <time>2015-11-19T09:50:59Z</time>
      </trkpt>
      <trkpt lat="48.02413" lon="2.82868">
        <ele>120</ele>
        <time>2015-11-19T09:51:00Z</time>
      </trkpt>
      <trkpt lat="48.02412" lon="2.82866">
        <ele>120</ele>
        <time>2015-11-19T09:51:01Z</time>
      </trkpt>
      <trkpt lat="48.02411" lon="2.82863">
        <ele>120</ele>
        <time>2015-11-19T09:51:02Z</time>
      </trkpt>
      <trkpt lat="48.02408" lon="2.82858">
        <ele>120</ele>
        <time>2015-11-19T09:51:04Z</time>
      </trkpt>
      <trkpt lat="48.02407" lon="2.82854">
        <ele>120</ele>
        <time>2015-11-19T09:51:05Z</time>
      </trkpt>
      <trkpt lat="48.02405" lon="2.82848">
        <ele>120</ele>
        <time>2015-11-19T09:51:06Z</time>
      </trkpt>
      <trkpt lat="48.02402" lon="2.82843">
        <ele>120</ele>
        <time>2015-11-19T09:51:07Z</time>
      </trkpt>
      <trkpt lat="48.02396" lon="2.82831">
        <ele>120</ele>
        <time>2015-11-19T09:51:09Z</time>
      </trkpt>
      <trkpt lat="48.02393" lon="2.82824">
        <ele>120</ele>
        <time>2015-11-19T09:51:10Z</time>
      </trkpt>
      <trkpt lat="48.02391" lon="2.82817">
        <ele>119</ele>
        <time>2015-11-19T09:51:11Z</time>
      </trkpt>
      <trkpt lat="48.02388" lon="2.82808">
        <ele>119</ele>
        <time>2015-11-19T09:51:12Z</time>
      </trkpt>
      <trkpt lat="48.02384" lon="2.82801">
        <ele>119</ele>
        <time>2015-11-19T09:51:13Z</time>
      </trkpt>
      <trkpt lat="48.02381" lon="2.82793">
        <ele>119</ele>
        <time>2015-11-19T09:51:14Z</time>
      </trkpt>
      <trkpt lat="48.02378" lon="2.82785">
        <ele>119</ele>
        <time>2015-11-19T09:51:15Z</time>
      </trkpt>
      <trkpt lat="48.02375" lon="2.82777">
        <ele>119</ele>
        <time>2015-11-19T09:51:16Z</time>
      </trkpt>
      <trkpt lat="48.02372" lon="2.8277">
        <ele>119</ele>
        <time>2015-11-19T09:51:17Z</time>
      </trkpt>
      <trkpt lat="48.02369" lon="2.82763">
        <ele>119</ele>
        <time>2015-11-19T09:51:18Z</time>
      </trkpt>
      <trkpt lat="48.02365" lon="2.82756">
        <ele>119</ele>
        <time>2015-11-19T09:51:19Z</time>
      </trkpt>
      <trkpt lat="48.02363" lon="2.8275">
        <ele>119</ele>
        <time>2015-11-19T09:51:20Z</time>
      </trkpt>
      <trkpt lat="48.02361" lon="2.82743">
        <ele>119</ele>
        <time>2015-11-19T09:51:21Z</time>
      </trkpt>
      <trkpt lat="48.02358" lon="2.82737">
        <ele>119</ele>
        <time>2015-11-19T09:51:22Z</time>
      </trkpt>
      <trkpt lat="48.02355" lon="2.82731">
        <ele>119</ele>
        <time>2015-11-19T09:51:23Z</time>
      </trkpt>
      <trkpt lat="48.02353" lon="2.82726">
        <ele>119</ele>
        <time>2015-11-19T09:51:24Z</time>
      </trkpt>
      <trkpt lat="48.02351" lon="2.82722">
        <ele>119</ele>
        <time>2015-11-19T09:51:25Z</time>
      </trkpt>
      <trkpt lat="48.02349" lon="2.82718">
        <ele>119</ele>
        <time>2015-11-19T09:51:26Z</time>
      </trkpt>
      <trkpt lat="48.02348" lon="2.82714">
        <ele>119</ele>
        <time>2015-11-19T09:51:27Z</time>
      </trkpt>
      <trkpt lat="48.02346" lon="2.82711">
        <ele>119</ele>
        <time>2015-11-19T09:51:28Z</time>
      </trkpt>
      <trkpt lat="48.02345" lon="2.82708">
        <ele>119</ele>
        <time>2015-11-19T09:51:29Z</time>
      </trkpt>
      <trkpt lat="48.02345" lon="2.82704">
        <ele>119</ele>
        <time>2015-11-19T09:51:31Z</time>
      </trkpt>
      <trkpt lat="48.02342" lon="2.82698">
        <ele>119</ele>
        <time>2015-11-19T09:51:32Z</time>
      </trkpt>
      <trkpt lat="48.02341" lon="2.82696">
        <ele>119</ele>
        <time>2015-11-19T09:51:33Z</time>
      </trkpt>
      <trkpt lat="48.0234" lon="2.82693">
        <ele>119</ele>
        <time>2015-11-19T09:51:34Z</time>
      </trkpt>
      <trkpt lat="48.0234" lon="2.8269">
        <ele>119</ele>
        <time>2015-11-19T09:51:35Z</time>
      </trkpt>
      <trkpt lat="48.02338" lon="2.82687">
        <ele>119</ele>
        <time>2015-11-19T09:51:36Z</time>
      </trkpt>
      <trkpt lat="48.02337" lon="2.82685">
        <ele>119</ele>
        <time>2015-11-19T09:51:37Z</time>
      </trkpt>
      <trkpt lat="48.02336" lon="2.82683">
        <ele>119</ele>
        <time>2015-11-19T09:51:38Z</time>
      </trkpt>
      <trkpt lat="48.02335" lon="2.82681">
        <ele>119</ele>
        <time>2015-11-19T09:51:39Z</time>
      </trkpt>
      <trkpt lat="48.02334" lon="2.82678">
        <ele>119</ele>
        <time>2015-11-19T09:51:40Z</time>
      </trkpt>
      <trkpt lat="48.02333" lon="2.82675">
        <ele>120</ele>
        <time>2015-11-19T09:51:41Z</time>
      </trkpt>
      <trkpt lat="48.02332" lon="2.82673">
        <ele>121</ele>
        <time>2015-11-19T09:51:42Z</time>
      </trkpt>
      <trkpt lat="48.02331" lon="2.8267">
        <ele>121</ele>
        <time>2015-11-19T09:51:43Z</time>
      </trkpt>
      <trkpt lat="48.0233" lon="2.82667">
        <ele>122</ele>
        <time>2015-11-19T09:51:44Z</time>
      </trkpt>
      <trkpt lat="48.02329" lon="2.82665">
        <ele>122</ele>
        <time>2015-11-19T09:51:45Z</time>
      </trkpt>
      <trkpt lat="48.02328" lon="2.82662">
        <ele>123</ele>
        <time>2015-11-19T09:51:46Z</time>
      </trkpt>
      <trkpt lat="48.02326" lon="2.82658">
        <ele>123</ele>
        <time>2015-11-19T09:51:47Z</time>
      </trkpt>
      <trkpt lat="48.02324" lon="2.82654">
        <ele>123</ele>
        <time>2015-11-19T09:51:48Z</time>
      </trkpt>
      <trkpt lat="48.02323" lon="2.8265">
        <ele>123</ele>
        <time>2015-11-19T09:51:49Z</time>
      </trkpt>
      <trkpt lat="48.02323" lon="2.82648">
        <ele>123</ele>
        <time>2015-11-19T09:51:50Z</time>
      </trkpt>
      <trkpt lat="48.02322" lon="2.82645">
        <ele>123</ele>
        <time>2015-11-19T09:51:51Z</time>
      </trkpt>
      <trkpt lat="48.02322" lon="2.82643">
        <ele>123</ele>
        <time>2015-11-19T09:51:52Z</time>
      </trkpt>
      <trkpt lat="48.02321" lon="2.8264">
        <ele>124</ele>
        <time>2015-11-19T09:51:53Z</time>
      </trkpt>
      <trkpt lat="48.0232" lon="2.82637">
        <ele>124</ele>
        <time>2015-11-19T09:51:54Z</time>
      </trkpt>
      <trkpt lat="48.02319" lon="2.82634">
        <ele>124</ele>
        <time>2015-11-19T09:51:55Z</time>
      </trkpt>
      <trkpt lat="48.02318" lon="2.82631">
        <ele>125</ele>
        <time>2015-11-19T09:51:56Z</time>
      </trkpt>
      <trkpt lat="48.02317" lon="2.82629">
        <ele>125</ele>
        <time>2015-11-19T09:51:57Z</time>
      </trkpt>
      <trkpt lat="48.02316" lon="2.82627">
        <ele>125</ele>
        <time>2015-11-19T09:51:58Z</time>
      </trkpt>
      <trkpt lat="48.02314" lon="2.82624">
        <ele>126</ele>
        <time>2015-11-19T09:51:59Z</time>
      </trkpt>
      <trkpt lat="48.02313" lon="2.82621">
        <ele>127</ele>
        <time>2015-11-19T09:52:00Z</time>
      </trkpt>
      <trkpt lat="48.02312" lon="2.82619">
        <ele>127</ele>
        <time>2015-11-19T09:52:01Z</time>
      </trkpt>
      <trkpt lat="48.02311" lon="2.82616">
        <ele>128</ele>
        <time>2015-11-19T09:52:02Z</time>
      </trkpt>
      <trkpt lat="48.0231" lon="2.82613">
        <ele>128</ele>
        <time>2015-11-19T09:52:03Z</time>
      </trkpt>
      <trkpt lat="48.02309" lon="2.8261">
        <ele>128</ele>
        <time>2015-11-19T09:52:04Z</time>
      </trkpt>
      <trkpt lat="48.02307" lon="2.82608">
        <ele>129</ele>
        <time>2015-11-19T09:52:05Z</time>
      </trkpt>
      <trkpt lat="48.02306" lon="2.82605">
        <ele>129</ele>
        <time>2015-11-19T09:52:06Z</time>
      </trkpt>
      <trkpt lat="48.02305" lon="2.82602">
        <ele>130</ele>
        <time>2015-11-19T09:52:07Z</time>
      </trkpt>
      <trkpt lat="48.02304" lon="2.82598">
        <ele>130</ele>
        <time>2015-11-19T09:52:08Z</time>
      </trkpt>
      <trkpt lat="48.02302" lon="2.82595">
        <ele>130</ele>
        <time>2015-11-19T09:52:09Z</time>
      </trkpt>
      <trkpt lat="48.02301" lon="2.82592">
        <ele>131</ele>
        <time>2015-11-19T09:52:10Z</time>
      </trkpt>
      <trkpt lat="48.023" lon="2.8259">
        <ele>131</ele>
        <time>2015-11-19T09:52:11Z</time>
      </trkpt>
      <trkpt lat="48.02299" lon="2.82587">
        <ele>131</ele>
        <time>2015-11-19T09:52:12Z</time>
      </trkpt>
      <trkpt lat="48.02298" lon="2.82585">
        <ele>132</ele>
        <time>2015-11-19T09:52:13Z</time>
      </trkpt>
      <trkpt lat="48.02297" lon="2.82582">
        <ele>132</ele>
        <time>2015-11-19T09:52:14Z</time>
      </trkpt>
      <trkpt lat="48.02296" lon="2.82579">
        <ele>133</ele>
        <time>2015-11-19T09:52:15Z</time>
      </trkpt>
      <trkpt lat="48.02295" lon="2.82577">
        <ele>133</ele>
        <time>2015-11-19T09:52:16Z</time>
      </trkpt>
      <trkpt lat="48.02294" lon="2.82574">
        <ele>134</ele>
        <time>2015-11-19T09:52:17Z</time>
      </trkpt>
      <trkpt lat="48.02293" lon="2.82572">
        <ele>135</ele>
        <time>2015-11-19T09:52:18Z</time>
      </trkpt>
      <trkpt lat="48.02292" lon="2.82569">
        <ele>135</ele>
        <time>2015-11-19T09:52:19Z</time>
      </trkpt>
      <trkpt lat="48.02291" lon="2.82566">
        <ele>136</ele>
        <time>2015-11-19T09:52:20Z</time>
      </trkpt>
      <trkpt lat="48.0229" lon="2.82563">
        <ele>136</ele>
        <time>2015-11-19T09:52:21Z</time>
      </trkpt>
      <trkpt lat="48.02289" lon="2.8256">
        <ele>136</ele>
        <time>2015-11-19T09:52:22Z</time>
      </trkpt>
      <trkpt lat="48.02288" lon="2.82557">
        <ele>136</ele>
        <time>2015-11-19T09:52:23Z</time>
      </trkpt>
      <trkpt lat="48.02286" lon="2.82554">
        <ele>137</ele>
        <time>2015-11-19T09:52:24Z</time>
      </trkpt>
      <trkpt lat="48.02284" lon="2.82547">
        <ele>137</ele>
        <time>2015-11-19T09:52:26Z</time>
      </trkpt>
      <trkpt lat="48.02282" lon="2.82544">
        <ele>137</ele>
        <time>2015-11-19T09:52:27Z</time>
      </trkpt>
      <trkpt lat="48.02281" lon="2.8254">
        <ele>138</ele>
        <time>2015-11-19T09:52:28Z</time>
      </trkpt>
      <trkpt lat="48.0228" lon="2.82537">
        <ele>138</ele>
        <time>2015-11-19T09:52:29Z</time>
      </trkpt>
      <trkpt lat="48.02279" lon="2.82534">
        <ele>138</ele>
        <time>2015-11-19T09:52:30Z</time>
      </trkpt>
      <trkpt lat="48.02278" lon="2.8253">
        <ele>139</ele>
        <time>2015-11-19T09:52:31Z</time>
      </trkpt>
      <trkpt lat="48.02276" lon="2.82525">
        <ele>139</ele>
        <time>2015-11-19T09:52:32Z</time>
      </trkpt>
      <trkpt lat="48.02274" lon="2.8252">
        <ele>139</ele>
        <time>2015-11-19T09:52:33Z</time>
      </trkpt>
      <trkpt lat="48.02272" lon="2.82516">
        <ele>139</ele>
        <time>2015-11-19T09:52:34Z</time>
      </trkpt>
      <trkpt lat="48.02269" lon="2.8251">
        <ele>140</ele>
        <time>2015-11-19T09:52:35Z</time>
      </trkpt>
      <trkpt lat="48.02268" lon="2.82505">
        <ele>140</ele>
        <time>2015-11-19T09:52:36Z</time>
      </trkpt>
      <trkpt lat="48.02267" lon="2.82499">
        <ele>140</ele>
        <time>2015-11-19T09:52:37Z</time>
      </trkpt>
      <trkpt lat="48.02266" lon="2.82492">
        <ele>141</ele>
        <time>2015-11-19T09:52:38Z</time>
      </trkpt>
      <trkpt lat="48.02269" lon="2.82485">
        <ele>141</ele>
        <time>2015-11-19T09:52:39Z</time>
      </trkpt>
      <trkpt lat="48.02272" lon="2.82478">
        <ele>141</ele>
        <time>2015-11-19T09:52:40Z</time>
      </trkpt>
      <trkpt lat="48.02276" lon="2.82472">
        <ele>141</ele>
        <time>2015-11-19T09:52:41Z</time>
      </trkpt>
      <trkpt lat="48.0228" lon="2.82466">
        <ele>141</ele>
        <time>2015-11-19T09:52:42Z</time>
      </trkpt>
      <trkpt lat="48.02283" lon="2.82458">
        <ele>140</ele>
        <time>2015-11-19T09:52:43Z</time>
      </trkpt>
      <trkpt lat="48.02287" lon="2.8245">
        <ele>139</ele>
        <time>2015-11-19T09:52:44Z</time>
      </trkpt>
      <trkpt lat="48.0229" lon="2.82442">
        <ele>137</ele>
        <time>2015-11-19T09:52:45Z</time>
      </trkpt>
      <trkpt lat="48.02293" lon="2.82434">
        <ele>135</ele>
        <time>2015-11-19T09:52:46Z</time>
      </trkpt>
      <trkpt lat="48.02297" lon="2.82425">
        <ele>134</ele>
        <time>2015-11-19T09:52:47Z</time>
      </trkpt>
      <trkpt lat="48.02302" lon="2.82417">
        <ele>132</ele>
        <time>2015-11-19T09:52:48Z</time>
      </trkpt>
      <trkpt lat="48.02306" lon="2.82409">
        <ele>131</ele>
        <time>2015-11-19T09:52:49Z</time>
      </trkpt>
      <trkpt lat="48.02311" lon="2.824">
        <ele>130</ele>
        <time>2015-11-19T09:52:50Z</time>
      </trkpt>
      <trkpt lat="48.02315" lon="2.8239">
        <ele>128</ele>
        <time>2015-11-19T09:52:51Z</time>
      </trkpt>
      <trkpt lat="48.0232" lon="2.82382">
        <ele>127</ele>
        <time>2015-11-19T09:52:52Z</time>
      </trkpt>
      <trkpt lat="48.02325" lon="2.82374">
        <ele>126</ele>
        <time>2015-11-19T09:52:53Z</time>
      </trkpt>
      <trkpt lat="48.02329" lon="2.82365">
        <ele>125</ele>
        <time>2015-11-19T09:52:54Z</time>
      </trkpt>
      <trkpt lat="48.02334" lon="2.82357">
        <ele>124</ele>
        <time>2015-11-19T09:52:55Z</time>
      </trkpt>
      <trkpt lat="48.02338" lon="2.82349">
        <ele>123</ele>
        <time>2015-11-19T09:52:56Z</time>
      </trkpt>
      <trkpt lat="48.02343" lon="2.8234">
        <ele>121</ele>
        <time>2015-11-19T09:52:57Z</time>
      </trkpt>
      <trkpt lat="48.02347" lon="2.82332">
        <ele>120</ele>
        <time>2015-11-19T09:52:58Z</time>
      </trkpt>
      <trkpt lat="48.02351" lon="2.82324">
        <ele>119</ele>
        <time>2015-11-19T09:52:59Z</time>
      </trkpt>
      <trkpt lat="48.02355" lon="2.82316">
        <ele>118</ele>
        <time>2015-11-19T09:53:00Z</time>
      </trkpt>
      <trkpt lat="48.02359" lon="2.8231">
        <ele>117</ele>
        <time>2015-11-19T09:53:01Z</time>
      </trkpt>
      <trkpt lat="48.02362" lon="2.82303">
        <ele>116</ele>
        <time>2015-11-19T09:53:02Z</time>
      </trkpt>
      <trkpt lat="48.02366" lon="2.82298">
        <ele>115</ele>
        <time>2015-11-19T09:53:03Z</time>
      </trkpt>
      <trkpt lat="48.02369" lon="2.82293">
        <ele>114</ele>
        <time>2015-11-19T09:53:04Z</time>
      </trkpt>
      <trkpt lat="48.02372" lon="2.82287">
        <ele>113</ele>
        <time>2015-11-19T09:53:05Z</time>
      </trkpt>
      <trkpt lat="48.02375" lon="2.82281">
        <ele>112</ele>
        <time>2015-11-19T09:53:06Z</time>
      </trkpt>
      <trkpt lat="48.02378" lon="2.82276">
        <ele>111</ele>
        <time>2015-11-19T09:53:07Z</time>
      </trkpt>
      <trkpt lat="48.02381" lon="2.8227">
        <ele>111</ele>
        <time>2015-11-19T09:53:08Z</time>
      </trkpt>
      <trkpt lat="48.02384" lon="2.82265">
        <ele>111</ele>
        <time>2015-11-19T09:53:09Z</time>
      </trkpt>
      <trkpt lat="48.02388" lon="2.8226">
        <ele>111</ele>
        <time>2015-11-19T09:53:10Z</time>
      </trkpt>
      <trkpt lat="48.02391" lon="2.82255">
        <ele>111</ele>
        <time>2015-11-19T09:53:11Z</time>
      </trkpt>
      <trkpt lat="48.02394" lon="2.8225">
        <ele>111</ele>
        <time>2015-11-19T09:53:12Z</time>
      </trkpt>
      <trkpt lat="48.02397" lon="2.82244">
        <ele>111</ele>
        <time>2015-11-19T09:53:13Z</time>
      </trkpt>
      <trkpt lat="48.02399" lon="2.82239">
        <ele>111</ele>
        <time>2015-11-19T09:53:14Z</time>
      </trkpt>
      <trkpt lat="48.02402" lon="2.82233">
        <ele>111</ele>
        <time>2015-11-19T09:53:15Z</time>
      </trkpt>
      <trkpt lat="48.02406" lon="2.82228">
        <ele>111</ele>
        <time>2015-11-19T09:53:16Z</time>
      </trkpt>
      <trkpt lat="48.02409" lon="2.82222">
        <ele>111</ele>
        <time>2015-11-19T09:53:17Z</time>
      </trkpt>
      <trkpt lat="48.02412" lon="2.82217">
        <ele>111</ele>
        <time>2015-11-19T09:53:18Z</time>
      </trkpt>
      <trkpt lat="48.02414" lon="2.82211">
        <ele>111</ele>
        <time>2015-11-19T09:53:19Z</time>
      </trkpt>
      <trkpt lat="48.02417" lon="2.82205">
        <ele>111</ele>
        <time>2015-11-19T09:53:20Z</time>
      </trkpt>
      <trkpt lat="48.0242" lon="2.822">
        <ele>111</ele>
        <time>2015-11-19T09:53:21Z</time>
      </trkpt>
      <trkpt lat="48.02423" lon="2.82194">
        <ele>111</ele>
        <time>2015-11-19T09:53:22Z</time>
      </trkpt>
      <trkpt lat="48.02427" lon="2.82189">
        <ele>111</ele>
        <time>2015-11-19T09:53:23Z</time>
      </trkpt>
      <trkpt lat="48.0243" lon="2.82184">
        <ele>112</ele>
        <time>2015-11-19T09:53:24Z</time>
      </trkpt>
      <trkpt lat="48.02434" lon="2.8218">
        <ele>112</ele>
        <time>2015-11-19T09:53:26Z</time>
      </trkpt>
      <trkpt lat="48.02443" lon="2.82176">
        <ele>113</ele>
        <time>2015-11-19T09:53:27Z</time>
      </trkpt>
      <trkpt lat="48.02447" lon="2.82176">
        <ele>114</ele>
        <time>2015-11-19T09:53:28Z</time>
      </trkpt>
      <trkpt lat="48.02452" lon="2.82175">
        <ele>115</ele>
        <time>2015-11-19T09:53:29Z</time>
      </trkpt>
      <trkpt lat="48.02457" lon="2.82175">
        <ele>116</ele>
        <time>2015-11-19T09:53:30Z</time>
      </trkpt>
      <trkpt lat="48.02463" lon="2.82173">
        <ele>117</ele>
        <time>2015-11-19T09:53:31Z</time>
      </trkpt>
      <trkpt lat="48.02468" lon="2.82172">
        <ele>118</ele>
        <time>2015-11-19T09:53:32Z</time>
      </trkpt>
      <trkpt lat="48.02473" lon="2.82171">
        <ele>119</ele>
        <time>2015-11-19T09:53:33Z</time>
      </trkpt>
      <trkpt lat="48.02478" lon="2.8217">
        <ele>119</ele>
        <time>2015-11-19T09:53:34Z</time>
      </trkpt>
      <trkpt lat="48.02483" lon="2.82169">
        <ele>120</ele>
        <time>2015-11-19T09:53:35Z</time>
      </trkpt>
      <trkpt lat="48.02489" lon="2.82167">
        <ele>121</ele>
        <time>2015-11-19T09:53:36Z</time>
      </trkpt>
      <trkpt lat="48.02494" lon="2.82165">
        <ele>121</ele>
        <time>2015-11-19T09:53:37Z</time>
      </trkpt>
      <trkpt lat="48.025" lon="2.82164">
        <ele>121</ele>
        <time>2015-11-19T09:53:38Z</time>
      </trkpt>
      <trkpt lat="48.02505" lon="2.82162">
        <ele>122</ele>
        <time>2015-11-19T09:53:39Z</time>
      </trkpt>
      <trkpt lat="48.0251" lon="2.82161">
        <ele>122</ele>
        <time>2015-11-19T09:53:40Z</time>
      </trkpt>
      <trkpt lat="48.02515" lon="2.8216">
        <ele>122</ele>
        <time>2015-11-19T09:53:41Z</time>
      </trkpt>
      <trkpt lat="48.0252" lon="2.82159">
        <ele>122</ele>
        <time>2015-11-19T09:53:42Z</time>
      </trkpt>
      <trkpt lat="48.02525" lon="2.82157">
        <ele>122</ele>
        <time>2015-11-19T09:53:43Z</time>
      </trkpt>
      <trkpt lat="48.02531" lon="2.82156">
        <ele>122</ele>
        <time>2015-11-19T09:53:44Z</time>
      </trkpt>
      <trkpt lat="48.02536" lon="2.82155">
        <ele>122</ele>
        <time>2015-11-19T09:53:45Z</time>
      </trkpt>
      <trkpt lat="48.02541" lon="2.82154">
        <ele>122</ele>
        <time>2015-11-19T09:53:46Z</time>
      </trkpt>
      <trkpt lat="48.02546" lon="2.82152">
        <ele>122</ele>
        <time>2015-11-19T09:53:47Z</time>
      </trkpt>
      <trkpt lat="48.02551" lon="2.82151">
        <ele>122</ele>
        <time>2015-11-19T09:53:48Z</time>
      </trkpt>
      <trkpt lat="48.02556" lon="2.82149">
        <ele>122</ele>
        <time>2015-11-19T09:53:49Z</time>
      </trkpt>
      <trkpt lat="48.02561" lon="2.82147">
        <ele>122</ele>
        <time>2015-11-19T09:53:50Z</time>
      </trkpt>
      <trkpt lat="48.02566" lon="2.82146">
        <ele>122</ele>
        <time>2015-11-19T09:53:51Z</time>
      </trkpt>
      <trkpt lat="48.02571" lon="2.82144">
        <ele>122</ele>
        <time>2015-11-19T09:53:52Z</time>
      </trkpt>
      <trkpt lat="48.02576" lon="2.82143">
        <ele>122</ele>
        <time>2015-11-19T09:53:53Z</time>
      </trkpt>
      <trkpt lat="48.02582" lon="2.82143">
        <ele>122</ele>
        <time>2015-11-19T09:53:54Z</time>
      </trkpt>
      <trkpt lat="48.02588" lon="2.82143">
        <ele>122</ele>
        <time>2015-11-19T09:53:55Z</time>
      </trkpt>
      <trkpt lat="48.02593" lon="2.82143">
        <ele>122</ele>
        <time>2015-11-19T09:53:56Z</time>
      </trkpt>
      <trkpt lat="48.02599" lon="2.82142">
        <ele>122</ele>
        <time>2015-11-19T09:53:57Z</time>
      </trkpt>
      <trkpt lat="48.02605" lon="2.82142">
        <ele>122</ele>
        <time>2015-11-19T09:53:58Z</time>
      </trkpt>
      <trkpt lat="48.02612" lon="2.82141">
        <ele>122</ele>
        <time>2015-11-19T09:53:59Z</time>
      </trkpt>
      <trkpt lat="48.02618" lon="2.82141">
        <ele>121</ele>
        <time>2015-11-19T09:54:00Z</time>
      </trkpt>
      <trkpt lat="48.02625" lon="2.82142">
        <ele>120</ele>
        <time>2015-11-19T09:54:01Z</time>
      </trkpt>
      <trkpt lat="48.0263" lon="2.82142">
        <ele>120</ele>
        <time>2015-11-19T09:54:02Z</time>
      </trkpt>
      <trkpt lat="48.02636" lon="2.82141">
        <ele>120</ele>
        <time>2015-11-19T09:54:03Z</time>
      </trkpt>
      <trkpt lat="48.02641" lon="2.8214">
        <ele>120</ele>
        <time>2015-11-19T09:54:04Z</time>
      </trkpt>
      <trkpt lat="48.02647" lon="2.82139">
        <ele>119</ele>
        <time>2015-11-19T09:54:05Z</time>
      </trkpt>
      <trkpt lat="48.02652" lon="2.82138">
        <ele>119</ele>
        <time>2015-11-19T09:54:06Z</time>
      </trkpt>
      <trkpt lat="48.02657" lon="2.82137">
        <ele>118</ele>
        <time>2015-11-19T09:54:07Z</time>
      </trkpt>
      <trkpt lat="48.02663" lon="2.82136">
        <ele>118</ele>
        <time>2015-11-19T09:54:08Z</time>
      </trkpt>
      <trkpt lat="48.02668" lon="2.82135">
        <ele>117</ele>
        <time>2015-11-19T09:54:09Z</time>
      </trkpt>
      <trkpt lat="48.02674" lon="2.82133">
        <ele>117</ele>
        <time>2015-11-19T09:54:10Z</time>
      </trkpt>
      <trkpt lat="48.02679" lon="2.82132">
        <ele>117</ele>
        <time>2015-11-19T09:54:11Z</time>
      </trkpt>
      <trkpt lat="48.02684" lon="2.82131">
        <ele>117</ele>
        <time>2015-11-19T09:54:12Z</time>
      </trkpt>
      <trkpt lat="48.0269" lon="2.82131">
        <ele>117</ele>
        <time>2015-11-19T09:54:13Z</time>
      </trkpt>
      <trkpt lat="48.02695" lon="2.8213">
        <ele>116</ele>
        <time>2015-11-19T09:54:14Z</time>
      </trkpt>
      <trkpt lat="48.02701" lon="2.82129">
        <ele>116</ele>
        <time>2015-11-19T09:54:15Z</time>
      </trkpt>
      <trkpt lat="48.02707" lon="2.82127">
        <ele>116</ele>
        <time>2015-11-19T09:54:16Z</time>
      </trkpt>
      <trkpt lat="48.02713" lon="2.82126">
        <ele>115</ele>
        <time>2015-11-19T09:54:17Z</time>
      </trkpt>
      <trkpt lat="48.02719" lon="2.82125">
        <ele>115</ele>
        <time>2015-11-19T09:54:18Z</time>
      </trkpt>
      <trkpt lat="48.02725" lon="2.82124">
        <ele>115</ele>
        <time>2015-11-19T09:54:19Z</time>
      </trkpt>
      <trkpt lat="48.02731" lon="2.82124">
        <ele>115</ele>
        <time>2015-11-19T09:54:20Z</time>
      </trkpt>
      <trkpt lat="48.02737" lon="2.82122">
        <ele>115</ele>
        <time>2015-11-19T09:54:21Z</time>
      </trkpt>
      <trkpt lat="48.02743" lon="2.82121">
        <ele>115</ele>
        <time>2015-11-19T09:54:22Z</time>
      </trkpt>
      <trkpt lat="48.02749" lon="2.8212">
        <ele>115</ele>
        <time>2015-11-19T09:54:23Z</time>
      </trkpt>
      <trkpt lat="48.02756" lon="2.82119">
        <ele>114</ele>
        <time>2015-11-19T09:54:24Z</time>
      </trkpt>
      <trkpt lat="48.02763" lon="2.82117">
        <ele>113</ele>
        <time>2015-11-19T09:54:25Z</time>
      </trkpt>
      <trkpt lat="48.02769" lon="2.82116">
        <ele>112</ele>
        <time>2015-11-19T09:54:26Z</time>
      </trkpt>
      <trkpt lat="48.02775" lon="2.82114">
        <ele>111</ele>
        <time>2015-11-19T09:54:27Z</time>
      </trkpt>
      <trkpt lat="48.02781" lon="2.82113">
        <ele>110</ele>
        <time>2015-11-19T09:54:28Z</time>
      </trkpt>
      <trkpt lat="48.02786" lon="2.8211">
        <ele>109</ele>
        <time>2015-11-19T09:54:29Z</time>
      </trkpt>
      <trkpt lat="48.02792" lon="2.82109">
        <ele>108</ele>
        <time>2015-11-19T09:54:30Z</time>
      </trkpt>
      <trkpt lat="48.02799" lon="2.82108">
        <ele>107</ele>
        <time>2015-11-19T09:54:31Z</time>
      </trkpt>
      <trkpt lat="48.02805" lon="2.82106">
        <ele>106</ele>
        <time>2015-11-19T09:54:32Z</time>
      </trkpt>
      <trkpt lat="48.02812" lon="2.82106">
        <ele>105</ele>
        <time>2015-11-19T09:54:33Z</time>
      </trkpt>
      <trkpt lat="48.02819" lon="2.82106">
        <ele>104</ele>
        <time>2015-11-19T09:54:34Z</time>
      </trkpt>
      <trkpt lat="48.02825" lon="2.82105">
        <ele>104</ele>
        <time>2015-11-19T09:54:35Z</time>
      </trkpt>
      <trkpt lat="48.02832" lon="2.82104">
        <ele>104</ele>
        <time>2015-11-19T09:54:36Z</time>
      </trkpt>
      <trkpt lat="48.02838" lon="2.82104">
        <ele>104</ele>
        <time>2015-11-19T09:54:37Z</time>
      </trkpt>
      <trkpt lat="48.02844" lon="2.82102">
        <ele>104</ele>
        <time>2015-11-19T09:54:38Z</time>
      </trkpt>
      <trkpt lat="48.0285" lon="2.82101">
        <ele>104</ele>
        <time>2015-11-19T09:54:39Z</time>
      </trkpt>
      <trkpt lat="48.02856" lon="2.821">
        <ele>104</ele>
        <time>2015-11-19T09:54:40Z</time>
      </trkpt>
      <trkpt lat="48.02862" lon="2.82099">
        <ele>104</ele>
        <time>2015-11-19T09:54:41Z</time>
      </trkpt>
      <trkpt lat="48.02868" lon="2.82099">
        <ele>104</ele>
        <time>2015-11-19T09:54:42Z</time>
      </trkpt>
      <trkpt lat="48.02874" lon="2.82101">
        <ele>104</ele>
        <time>2015-11-19T09:54:43Z</time>
      </trkpt>
      <trkpt lat="48.02879" lon="2.82103">
        <ele>104</ele>
        <time>2015-11-19T09:54:44Z</time>
      </trkpt>
      <trkpt lat="48.02885" lon="2.82108">
        <ele>104</ele>
        <time>2015-11-19T09:54:45Z</time>
      </trkpt>
      <trkpt lat="48.02891" lon="2.82116">
        <ele>104</ele>
        <time>2015-11-19T09:54:46Z</time>
      </trkpt>
      <trkpt lat="48.02897" lon="2.82124">
        <ele>104</ele>
        <time>2015-11-19T09:54:47Z</time>
      </trkpt>
      <trkpt lat="48.02902" lon="2.82133">
        <ele>104</ele>
        <time>2015-11-19T09:54:48Z</time>
      </trkpt>
      <trkpt lat="48.02908" lon="2.82142">
        <ele>104</ele>
        <time>2015-11-19T09:54:49Z</time>
      </trkpt>
      <trkpt lat="48.02915" lon="2.82151">
        <ele>104</ele>
        <time>2015-11-19T09:54:50Z</time>
      </trkpt>
      <trkpt lat="48.02921" lon="2.82159">
        <ele>104</ele>
        <time>2015-11-19T09:54:51Z</time>
      </trkpt>
      <trkpt lat="48.02927" lon="2.82168">
        <ele>104</ele>
        <time>2015-11-19T09:54:52Z</time>
      </trkpt>
      <trkpt lat="48.02932" lon="2.82176">
        <ele>104</ele>
        <time>2015-11-19T09:54:53Z</time>
      </trkpt>
      <trkpt lat="48.02938" lon="2.82184">
        <ele>105</ele>
        <time>2015-11-19T09:54:54Z</time>
      </trkpt>
      <trkpt lat="48.02943" lon="2.82191">
        <ele>106</ele>
        <time>2015-11-19T09:54:55Z</time>
      </trkpt>
      <trkpt lat="48.02948" lon="2.82199">
        <ele>107</ele>
        <time>2015-11-19T09:54:56Z</time>
      </trkpt>
      <trkpt lat="48.02953" lon="2.82206">
        <ele>108</ele>
        <time>2015-11-19T09:54:57Z</time>
      </trkpt>
      <trkpt lat="48.02959" lon="2.82211">
        <ele>108</ele>
        <time>2015-11-19T09:54:58Z</time>
      </trkpt>
      <trkpt lat="48.02965" lon="2.82214">
        <ele>108</ele>
        <time>2015-11-19T09:54:59Z</time>
      </trkpt>
      <trkpt lat="48.02972" lon="2.82213">
        <ele>108</ele>
        <time>2015-11-19T09:55:00Z</time>
      </trkpt>
      <trkpt lat="48.02977" lon="2.8221">
        <ele>108</ele>
        <time>2015-11-19T09:55:01Z</time>
      </trkpt>
      <trkpt lat="48.02981" lon="2.82206">
        <ele>108</ele>
        <time>2015-11-19T09:55:02Z</time>
      </trkpt>
      <trkpt lat="48.02985" lon="2.82203">
        <ele>108</ele>
        <time>2015-11-19T09:55:03Z</time>
      </trkpt>
      <trkpt lat="48.02988" lon="2.82201">
        <ele>108</ele>
        <time>2015-11-19T09:55:04Z</time>
      </trkpt>
      <trkpt lat="48.02992" lon="2.82198">
        <ele>108</ele>
        <time>2015-11-19T09:55:05Z</time>
      </trkpt>
      <trkpt lat="48.02994" lon="2.82195">
        <ele>108</ele>
        <time>2015-11-19T09:55:06Z</time>
      </trkpt>
      <trkpt lat="48.02995" lon="2.82194">
        <ele>108</ele>
        <time>2015-11-19T09:55:07Z</time>
      </trkpt>
      <trkpt lat="48.02994" lon="2.82192">
        <ele>108</ele>
        <time>2015-11-19T09:55:08Z</time>
      </trkpt>
      <trkpt lat="48.03005" lon="2.82178">
        <ele>109</ele>
        <time>2015-11-19T09:55:11Z</time>
      </trkpt>
      <trkpt lat="48.03009" lon="2.82175">
        <ele>109</ele>
        <time>2015-11-19T09:55:12Z</time>
      </trkpt>
      <trkpt lat="48.03012" lon="2.82171">
        <ele>109</ele>
        <time>2015-11-19T09:55:13Z</time>
      </trkpt>
      <trkpt lat="48.03015" lon="2.82167">
        <ele>109</ele>
        <time>2015-11-19T09:55:14Z</time>
      </trkpt>
      <trkpt lat="48.03019" lon="2.82162">
        <ele>109</ele>
        <time>2015-11-19T09:55:15Z</time>
      </trkpt>
      <trkpt lat="48.03024" lon="2.82158">
        <ele>109</ele>
        <time>2015-11-19T09:55:16Z</time>
      </trkpt>
      <trkpt lat="48.03028" lon="2.82154">
        <ele>108</ele>
        <time>2015-11-19T09:55:17Z</time>
      </trkpt>
      <trkpt lat="48.03033" lon="2.8215">
        <ele>107</ele>
        <time>2015-11-19T09:55:18Z</time>
      </trkpt>
      <trkpt lat="48.03036" lon="2.82145">
        <ele>106</ele>
        <time>2015-11-19T09:55:19Z</time>
      </trkpt>
      <trkpt lat="48.03039" lon="2.8214">
        <ele>105</ele>
        <time>2015-11-19T09:55:20Z</time>
      </trkpt>
      <trkpt lat="48.03042" lon="2.82136">
        <ele>104</ele>
        <time>2015-11-19T09:55:21Z</time>
      </trkpt>
      <trkpt lat="48.03044" lon="2.82132">
        <ele>103</ele>
        <time>2015-11-19T09:55:22Z</time>
      </trkpt>
      <trkpt lat="48.03048" lon="2.82131">
        <ele>102</ele>
        <time>2015-11-19T09:55:23Z</time>
      </trkpt>
      <trkpt lat="48.0305" lon="2.82127">
        <ele>101</ele>
        <time>2015-11-19T09:55:24Z</time>
      </trkpt>
      <trkpt lat="48.03053" lon="2.82124">
        <ele>100</ele>
        <time>2015-11-19T09:55:25Z</time>
      </trkpt>
      <trkpt lat="48.03055" lon="2.82121">
        <ele>99</ele>
        <time>2015-11-19T09:55:26Z</time>
      </trkpt>
      <trkpt lat="48.03058" lon="2.82118">
        <ele>98</ele>
        <time>2015-11-19T09:55:27Z</time>
      </trkpt>
      <trkpt lat="48.03061" lon="2.82116">
        <ele>97</ele>
        <time>2015-11-19T09:55:28Z</time>
      </trkpt>
      <trkpt lat="48.03063" lon="2.82114">
        <ele>96</ele>
        <time>2015-11-19T09:55:29Z</time>
      </trkpt>
      <trkpt lat="48.03065" lon="2.82111">
        <ele>95</ele>
        <time>2015-11-19T09:55:30Z</time>
      </trkpt>
      <trkpt lat="48.03068" lon="2.82109">
        <ele>95</ele>
        <time>2015-11-19T09:55:31Z</time>
      </trkpt>
      <trkpt lat="48.0307" lon="2.82106">
        <ele>95</ele>
        <time>2015-11-19T09:55:32Z</time>
      </trkpt>
      <trkpt lat="48.03072" lon="2.82104">
        <ele>95</ele>
        <time>2015-11-19T09:55:33Z</time>
      </trkpt>
      <trkpt lat="48.03074" lon="2.82102">
        <ele>95</ele>
        <time>2015-11-19T09:55:34Z</time>
      </trkpt>
      <trkpt lat="48.03076" lon="2.82099">
        <ele>95</ele>
        <time>2015-11-19T09:55:35Z</time>
      </trkpt>
      <trkpt lat="48.03079" lon="2.82097">
        <ele>95</ele>
        <time>2015-11-19T09:55:36Z</time>
      </trkpt>
      <trkpt lat="48.03082" lon="2.82095">
        <ele>95</ele>
        <time>2015-11-19T09:55:37Z</time>
      </trkpt>
      <trkpt lat="48.03085" lon="2.82093">
        <ele>95</ele>
        <time>2015-11-19T09:55:38Z</time>
      </trkpt>
      <trkpt lat="48.03087" lon="2.82091">
        <ele>95</ele>
        <time>2015-11-19T09:55:39Z</time>
      </trkpt>
      <trkpt lat="48.0309" lon="2.82089">
        <ele>95</ele>
        <time>2015-11-19T09:55:40Z</time>
      </trkpt>
      <trkpt lat="48.03092" lon="2.82086">
        <ele>95</ele>
        <time>2015-11-19T09:55:41Z</time>
      </trkpt>
      <trkpt lat="48.03094" lon="2.82083">
        <ele>95</ele>
        <time>2015-11-19T09:55:42Z</time>
      </trkpt>
      <trkpt lat="48.03097" lon="2.82081">
        <ele>95</ele>
        <time>2015-11-19T09:55:43Z</time>
      </trkpt>
      <trkpt lat="48.03099" lon="2.82078">
        <ele>95</ele>
        <time>2015-11-19T09:55:44Z</time>
      </trkpt>
      <trkpt lat="48.03102" lon="2.82075">
        <ele>95</ele>
        <time>2015-11-19T09:55:45Z</time>
      </trkpt>
      <trkpt lat="48.03105" lon="2.82073">
        <ele>95</ele>
        <time>2015-11-19T09:55:46Z</time>
      </trkpt>
      <trkpt lat="48.03107" lon="2.82071">
        <ele>95</ele>
        <time>2015-11-19T09:55:47Z</time>
      </trkpt>
      <trkpt lat="48.03111" lon="2.82069">
        <ele>96</ele>
        <time>2015-11-19T09:55:48Z</time>
      </trkpt>
      <trkpt lat="48.03114" lon="2.82066">
        <ele>96</ele>
        <time>2015-11-19T09:55:49Z</time>
      </trkpt>
      <trkpt lat="48.03117" lon="2.82064">
        <ele>96</ele>
        <time>2015-11-19T09:55:50Z</time>
      </trkpt>
      <trkpt lat="48.0312" lon="2.82061">
        <ele>97</ele>
        <time>2015-11-19T09:55:51Z</time>
      </trkpt>
      <trkpt lat="48.03123" lon="2.82059">
        <ele>97</ele>
        <time>2015-11-19T09:55:52Z</time>
      </trkpt>
      <trkpt lat="48.03125" lon="2.82056">
        <ele>97</ele>
        <time>2015-11-19T09:55:53Z</time>
      </trkpt>
      <trkpt lat="48.03128" lon="2.82054">
        <ele>97</ele>
        <time>2015-11-19T09:55:54Z</time>
      </trkpt>
      <trkpt lat="48.03129" lon="2.82051">
        <ele>98</ele>
        <time>2015-11-19T09:55:55Z</time>
      </trkpt>
      <trkpt lat="48.03129" lon="2.82047">
        <ele>98</ele>
        <time>2015-11-19T09:55:56Z</time>
      </trkpt>
      <trkpt lat="48.03128" lon="2.82043">
        <ele>98</ele>
        <time>2015-11-19T09:55:57Z</time>
      </trkpt>
      <trkpt lat="48.03126" lon="2.82038">
        <ele>98</ele>
        <time>2015-11-19T09:55:58Z</time>
      </trkpt>
      <trkpt lat="48.03123" lon="2.82034">
        <ele>98</ele>
        <time>2015-11-19T09:55:59Z</time>
      </trkpt>
      <trkpt lat="48.0312" lon="2.82032">
        <ele>98</ele>
        <time>2015-11-19T09:56:00Z</time>
      </trkpt>
      <trkpt lat="48.03117" lon="2.82031">
        <ele>99</ele>
        <time>2015-11-19T09:56:01Z</time>
      </trkpt>
      <trkpt lat="48.03114" lon="2.82028">
        <ele>99</ele>
        <time>2015-11-19T09:56:02Z</time>
      </trkpt>
      <trkpt lat="48.03112" lon="2.82024">
        <ele>100</ele>
        <time>2015-11-19T09:56:03Z</time>
      </trkpt>
      <trkpt lat="48.03111" lon="2.8202">
        <ele>100</ele>
        <time>2015-11-19T09:56:04Z</time>
      </trkpt>
      <trkpt lat="48.03108" lon="2.82017">
        <ele>100</ele>
        <time>2015-11-19T09:56:05Z</time>
      </trkpt>
      <trkpt lat="48.03105" lon="2.82014">
        <ele>101</ele>
        <time>2015-11-19T09:56:06Z</time>
      </trkpt>
      <trkpt lat="48.03101" lon="2.82011">
        <ele>101</ele>
        <time>2015-11-19T09:56:07Z</time>
      </trkpt>
      <trkpt lat="48.03096" lon="2.82008">
        <ele>101</ele>
        <time>2015-11-19T09:56:08Z</time>
      </trkpt>
      <trkpt lat="48.03092" lon="2.82005">
        <ele>102</ele>
        <time>2015-11-19T09:56:09Z</time>
      </trkpt>
      <trkpt lat="48.03089" lon="2.82003">
        <ele>102</ele>
        <time>2015-11-19T09:56:10Z</time>
      </trkpt>
      <trkpt lat="48.03085" lon="2.82">
        <ele>102</ele>
        <time>2015-11-19T09:56:11Z</time>
      </trkpt>
      <trkpt lat="48.03081" lon="2.81997">
        <ele>103</ele>
        <time>2015-11-19T09:56:12Z</time>
      </trkpt>
      <trkpt lat="48.03078" lon="2.81993">
        <ele>103</ele>
        <time>2015-11-19T09:56:13Z</time>
      </trkpt>
      <trkpt lat="48.03076" lon="2.8199">
        <ele>104</ele>
        <time>2015-11-19T09:56:14Z</time>
      </trkpt>
      <trkpt lat="48.03073" lon="2.81986">
        <ele>104</ele>
        <time>2015-11-19T09:56:15Z</time>
      </trkpt>
      <trkpt lat="48.0307" lon="2.8198">
        <ele>105</ele>
        <time>2015-11-19T09:56:16Z</time>
      </trkpt>
      <trkpt lat="48.03068" lon="2.81976">
        <ele>105</ele>
        <time>2015-11-19T09:56:17Z</time>
      </trkpt>
      <trkpt lat="48.03067" lon="2.81972">
        <ele>106</ele>
        <time>2015-11-19T09:56:18Z</time>
      </trkpt>
      <trkpt lat="48.03065" lon="2.81969">
        <ele>106</ele>
        <time>2015-11-19T09:56:19Z</time>
      </trkpt>
      <trkpt lat="48.03064" lon="2.81965">
        <ele>107</ele>
        <time>2015-11-19T09:56:20Z</time>
      </trkpt>
      <trkpt lat="48.03064" lon="2.81962">
        <ele>108</ele>
        <time>2015-11-19T09:56:21Z</time>
      </trkpt>
      <trkpt lat="48.03063" lon="2.81958">
        <ele>109</ele>
        <time>2015-11-19T09:56:22Z</time>
      </trkpt>
      <trkpt lat="48.03062" lon="2.81953">
        <ele>110</ele>
        <time>2015-11-19T09:56:23Z</time>
      </trkpt>
      <trkpt lat="48.03061" lon="2.81949">
        <ele>111</ele>
        <time>2015-11-19T09:56:24Z</time>
      </trkpt>
      <trkpt lat="48.0306" lon="2.81944">
        <ele>112</ele>
        <time>2015-11-19T09:56:25Z</time>
      </trkpt>
      <trkpt lat="48.03059" lon="2.81941">
        <ele>113</ele>
        <time>2015-11-19T09:56:26Z</time>
      </trkpt>
      <trkpt lat="48.03057" lon="2.81937">
        <ele>114</ele>
        <time>2015-11-19T09:56:27Z</time>
      </trkpt>
      <trkpt lat="48.03056" lon="2.81933">
        <ele>115</ele>
        <time>2015-11-19T09:56:28Z</time>
      </trkpt>
      <trkpt lat="48.03054" lon="2.81929">
        <ele>116</ele>
        <time>2015-11-19T09:56:29Z</time>
      </trkpt>
      <trkpt lat="48.03053" lon="2.81926">
        <ele>116</ele>
        <time>2015-11-19T09:56:30Z</time>
      </trkpt>
      <trkpt lat="48.03052" lon="2.81924">
        <ele>117</ele>
        <time>2015-11-19T09:56:31Z</time>
      </trkpt>
      <trkpt lat="48.03051" lon="2.81921">
        <ele>118</ele>
        <time>2015-11-19T09:56:32Z</time>
      </trkpt>
      <trkpt lat="48.03049" lon="2.81917">
        <ele>119</ele>
        <time>2015-11-19T09:56:33Z</time>
      </trkpt>
      <trkpt lat="48.03048" lon="2.81914">
        <ele>120</ele>
        <time>2015-11-19T09:56:34Z</time>
      </trkpt>
      <trkpt lat="48.03046" lon="2.81911">
        <ele>121</ele>
        <time>2015-11-19T09:56:35Z</time>
      </trkpt>
      <trkpt lat="48.03045" lon="2.81908">
        <ele>122</ele>
        <time>2015-11-19T09:56:36Z</time>
      </trkpt>
      <trkpt lat="48.03044" lon="2.81905">
        <ele>123</ele>
        <time>2015-11-19T09:56:37Z</time>
      </trkpt>
      <trkpt lat="48.03043" lon="2.81902">
        <ele>124</ele>
        <time>2015-11-19T09:56:38Z</time>
      </trkpt>
      <trkpt lat="48.03042" lon="2.81898">
        <ele>125</ele>
        <time>2015-11-19T09:56:39Z</time>
      </trkpt>
      <trkpt lat="48.0304" lon="2.81894">
        <ele>126</ele>
        <time>2015-11-19T09:56:40Z</time>
      </trkpt>
      <trkpt lat="48.0304" lon="2.81892">
        <ele>127</ele>
        <time>2015-11-19T09:56:41Z</time>
      </trkpt>
      <trkpt lat="48.03038" lon="2.81888">
        <ele>128</ele>
        <time>2015-11-19T09:56:42Z</time>
      </trkpt>
      <trkpt lat="48.03036" lon="2.81885">
        <ele>128</ele>
        <time>2015-11-19T09:56:43Z</time>
      </trkpt>
      <trkpt lat="48.03034" lon="2.81883">
        <ele>128</ele>
        <time>2015-11-19T09:56:44Z</time>
      </trkpt>
      <trkpt lat="48.03033" lon="2.81881">
        <ele>128</ele>
        <time>2015-11-19T09:56:45Z</time>
      </trkpt>
      <trkpt lat="48.03032" lon="2.8188">
        <ele>128</ele>
        <time>2015-11-19T09:56:46Z</time>
      </trkpt>
      <trkpt lat="48.0303" lon="2.81878">
        <ele>128</ele>
        <time>2015-11-19T09:56:47Z</time>
      </trkpt>
      <trkpt lat="48.03027" lon="2.81873">
        <ele>130</ele>
        <time>2015-11-19T09:56:49Z</time>
      </trkpt>
      <trkpt lat="48.03027" lon="2.81871">
        <ele>130</ele>
        <time>2015-11-19T09:56:50Z</time>
      </trkpt>
      <trkpt lat="48.03025" lon="2.81867">
        <ele>131</ele>
        <time>2015-11-19T09:56:51Z</time>
      </trkpt>
      <trkpt lat="48.03025" lon="2.81864">
        <ele>131</ele>
        <time>2015-11-19T09:56:52Z</time>
      </trkpt>
      <trkpt lat="48.03023" lon="2.81862">
        <ele>131</ele>
        <time>2015-11-19T09:56:53Z</time>
      </trkpt>
      <trkpt lat="48.03021" lon="2.81859">
        <ele>131</ele>
        <time>2015-11-19T09:56:54Z</time>
      </trkpt>
      <trkpt lat="48.03018" lon="2.81857">
        <ele>131</ele>
        <time>2015-11-19T09:56:55Z</time>
      </trkpt>
      <trkpt lat="48.03016" lon="2.81855">
        <ele>131</ele>
        <time>2015-11-19T09:56:56Z</time>
      </trkpt>
      <trkpt lat="48.03014" lon="2.81852">
        <ele>131</ele>
        <time>2015-11-19T09:56:57Z</time>
      </trkpt>
      <trkpt lat="48.03011" lon="2.8185">
        <ele>131</ele>
        <time>2015-11-19T09:56:58Z</time>
      </trkpt>
      <trkpt lat="48.03009" lon="2.81847">
        <ele>131</ele>
        <time>2015-11-19T09:56:59Z</time>
      </trkpt>
      <trkpt lat="48.03007" lon="2.81845">
        <ele>131</ele>
        <time>2015-11-19T09:57:00Z</time>
      </trkpt>
      <trkpt lat="48.03005" lon="2.81843">
        <ele>131</ele>
        <time>2015-11-19T09:57:01Z</time>
      </trkpt>
      <trkpt lat="48.03003" lon="2.8184">
        <ele>131</ele>
        <time>2015-11-19T09:57:03Z</time>
      </trkpt>
      <trkpt lat="48.03001" lon="2.81837">
        <ele>132</ele>
        <time>2015-11-19T09:57:04Z</time>
      </trkpt>
      <trkpt lat="48.03001" lon="2.81834">
        <ele>133</ele>
        <time>2015-11-19T09:57:05Z</time>
      </trkpt>
      <trkpt lat="48.03001" lon="2.81831">
        <ele>133</ele>
        <time>2015-11-19T09:57:06Z</time>
      </trkpt>
      <trkpt lat="48.03001" lon="2.81828">
        <ele>133</ele>
        <time>2015-11-19T09:57:07Z</time>
      </trkpt>
      <trkpt lat="48.03001" lon="2.81826">
        <ele>133</ele>
        <time>2015-11-19T09:57:08Z</time>
      </trkpt>
      <trkpt lat="48.03001" lon="2.81823">
        <ele>133</ele>
        <time>2015-11-19T09:57:09Z</time>
      </trkpt>
      <trkpt lat="48.03" lon="2.8182">
        <ele>133</ele>
        <time>2015-11-19T09:57:10Z</time>
      </trkpt>
      <trkpt lat="48.02999" lon="2.81817">
        <ele>133</ele>
        <time>2015-11-19T09:57:11Z</time>
      </trkpt>
      <trkpt lat="48.02999" lon="2.81814">
        <ele>133</ele>
        <time>2015-11-19T09:57:12Z</time>
      </trkpt>
      <trkpt lat="48.02999" lon="2.8181">
        <ele>133</ele>
        <time>2015-11-19T09:57:13Z</time>
      </trkpt>
      <trkpt lat="48.02999" lon="2.81808">
        <ele>133</ele>
        <time>2015-11-19T09:57:14Z</time>
      </trkpt>
      <trkpt lat="48.02997" lon="2.81804">
        <ele>133</ele>
        <time>2015-11-19T09:57:15Z</time>
      </trkpt>
      <trkpt lat="48.02996" lon="2.81801">
        <ele>133</ele>
        <time>2015-11-19T09:57:16Z</time>
      </trkpt>
      <trkpt lat="48.02995" lon="2.81799">
        <ele>133</ele>
        <time>2015-11-19T09:57:17Z</time>
      </trkpt>
      <trkpt lat="48.02994" lon="2.81795">
        <ele>133</ele>
        <time>2015-11-19T09:57:18Z</time>
      </trkpt>
      <trkpt lat="48.02993" lon="2.81792">
        <ele>133</ele>
        <time>2015-11-19T09:57:19Z</time>
      </trkpt>
      <trkpt lat="48.02993" lon="2.81789">
        <ele>133</ele>
        <time>2015-11-19T09:57:20Z</time>
      </trkpt>
      <trkpt lat="48.02992" lon="2.81786">
        <ele>133</ele>
        <time>2015-11-19T09:57:21Z</time>
      </trkpt>
      <trkpt lat="48.02991" lon="2.81782">
        <ele>133</ele>
        <time>2015-11-19T09:57:22Z</time>
      </trkpt>
      <trkpt lat="48.0299" lon="2.81778">
        <ele>132</ele>
        <time>2015-11-19T09:57:23Z</time>
      </trkpt>
      <trkpt lat="48.02989" lon="2.81775">
        <ele>132</ele>
        <time>2015-11-19T09:57:24Z</time>
      </trkpt>
      <trkpt lat="48.02988" lon="2.81771">
        <ele>132</ele>
        <time>2015-11-19T09:57:25Z</time>
      </trkpt>
      <trkpt lat="48.02987" lon="2.81768">
        <ele>132</ele>
        <time>2015-11-19T09:57:26Z</time>
      </trkpt>
      <trkpt lat="48.02985" lon="2.81766">
        <ele>131</ele>
        <time>2015-11-19T09:57:27Z</time>
      </trkpt>
      <trkpt lat="48.02985" lon="2.81762">
        <ele>131</ele>
        <time>2015-11-19T09:57:28Z</time>
      </trkpt>
      <trkpt lat="48.02984" lon="2.81759">
        <ele>130</ele>
        <time>2015-11-19T09:57:29Z</time>
      </trkpt>
      <trkpt lat="48.02983" lon="2.81756">
        <ele>130</ele>
        <time>2015-11-19T09:57:30Z</time>
      </trkpt>
      <trkpt lat="48.02983" lon="2.81754">
        <ele>130</ele>
        <time>2015-11-19T09:57:31Z</time>
      </trkpt>
      <trkpt lat="48.02984" lon="2.81751">
        <ele>130</ele>
        <time>2015-11-19T09:57:32Z</time>
      </trkpt>
      <trkpt lat="48.02983" lon="2.81748">
        <ele>130</ele>
        <time>2015-11-19T09:57:33Z</time>
      </trkpt>
      <trkpt lat="48.02983" lon="2.81744">
        <ele>130</ele>
        <time>2015-11-19T09:57:34Z</time>
      </trkpt>
      <trkpt lat="48.02982" lon="2.81739">
        <ele>130</ele>
        <time>2015-11-19T09:57:35Z</time>
      </trkpt>
      <trkpt lat="48.02981" lon="2.81735">
        <ele>130</ele>
        <time>2015-11-19T09:57:36Z</time>
      </trkpt>
      <trkpt lat="48.0298" lon="2.8173">
        <ele>130</ele>
        <time>2015-11-19T09:57:37Z</time>
      </trkpt>
      <trkpt lat="48.0298" lon="2.81725">
        <ele>130</ele>
        <time>2015-11-19T09:57:38Z</time>
      </trkpt>
      <trkpt lat="48.02979" lon="2.81719">
        <ele>130</ele>
        <time>2015-11-19T09:57:39Z</time>
      </trkpt>
      <trkpt lat="48.02977" lon="2.81715">
        <ele>130</ele>
        <time>2015-11-19T09:57:40Z</time>
      </trkpt>
      <trkpt lat="48.02977" lon="2.81711">
        <ele>130</ele>
        <time>2015-11-19T09:57:41Z</time>
      </trkpt>
      <trkpt lat="48.02976" lon="2.81707">
        <ele>130</ele>
        <time>2015-11-19T09:57:42Z</time>
      </trkpt>
      <trkpt lat="48.02975" lon="2.81698">
        <ele>130</ele>
        <time>2015-11-19T09:57:44Z</time>
      </trkpt>
      <trkpt lat="48.02974" lon="2.81694">
        <ele>130</ele>
        <time>2015-11-19T09:57:46Z</time>
      </trkpt>
      <trkpt lat="48.02973" lon="2.81684">
        <ele>130</ele>
        <time>2015-11-19T09:57:47Z</time>
      </trkpt>
      <trkpt lat="48.0297" lon="2.81675">
        <ele>130</ele>
        <time>2015-11-19T09:57:49Z</time>
      </trkpt>
      <trkpt lat="48.02968" lon="2.8167">
        <ele>131</ele>
        <time>2015-11-19T09:57:50Z</time>
      </trkpt>
      <trkpt lat="48.02966" lon="2.81666">
        <ele>131</ele>
        <time>2015-11-19T09:57:51Z</time>
      </trkpt>
      <trkpt lat="48.02964" lon="2.81662">
        <ele>132</ele>
        <time>2015-11-19T09:57:52Z</time>
      </trkpt>
      <trkpt lat="48.02962" lon="2.81656">
        <ele>132</ele>
        <time>2015-11-19T09:57:53Z</time>
      </trkpt>
      <trkpt lat="48.02961" lon="2.81652">
        <ele>132</ele>
        <time>2015-11-19T09:57:54Z</time>
      </trkpt>
      <trkpt lat="48.0296" lon="2.81649">
        <ele>132</ele>
        <time>2015-11-19T09:57:55Z</time>
      </trkpt>
      <trkpt lat="48.02959" lon="2.81645">
        <ele>133</ele>
        <time>2015-11-19T09:57:56Z</time>
      </trkpt>
      <trkpt lat="48.02958" lon="2.81641">
        <ele>133</ele>
        <time>2015-11-19T09:57:57Z</time>
      </trkpt>
      <trkpt lat="48.02956" lon="2.81637">
        <ele>134</ele>
        <time>2015-11-19T09:57:58Z</time>
      </trkpt>
      <trkpt lat="48.02955" lon="2.81633">
        <ele>134</ele>
        <time>2015-11-19T09:57:59Z</time>
      </trkpt>
      <trkpt lat="48.02953" lon="2.8163">
        <ele>134</ele>
        <time>2015-11-19T09:58:00Z</time>
      </trkpt>
      <trkpt lat="48.02951" lon="2.81625">
        <ele>135</ele>
        <time>2015-11-19T09:58:01Z</time>
      </trkpt>
      <trkpt lat="48.02949" lon="2.8162">
        <ele>135</ele>
        <time>2015-11-19T09:58:02Z</time>
      </trkpt>
      <trkpt lat="48.02948" lon="2.81614">
        <ele>135</ele>
        <time>2015-11-19T09:58:03Z</time>
      </trkpt>
      <trkpt lat="48.02947" lon="2.8161">
        <ele>136</ele>
        <time>2015-11-19T09:58:04Z</time>
      </trkpt>
      <trkpt lat="48.02945" lon="2.81606">
        <ele>136</ele>
        <time>2015-11-19T09:58:05Z</time>
      </trkpt>
      <trkpt lat="48.02943" lon="2.816">
        <ele>137</ele>
        <time>2015-11-19T09:58:06Z</time>
      </trkpt>
      <trkpt lat="48.02941" lon="2.81595">
        <ele>138</ele>
        <time>2015-11-19T09:58:07Z</time>
      </trkpt>
      <trkpt lat="48.02938" lon="2.8159">
        <ele>138</ele>
        <time>2015-11-19T09:58:08Z</time>
      </trkpt>
      <trkpt lat="48.02936" lon="2.81585">
        <ele>138</ele>
        <time>2015-11-19T09:58:09Z</time>
      </trkpt>
      <trkpt lat="48.02934" lon="2.8158">
        <ele>138</ele>
        <time>2015-11-19T09:58:10Z</time>
      </trkpt>
      <trkpt lat="48.02931" lon="2.81575">
        <ele>138</ele>
        <time>2015-11-19T09:58:11Z</time>
      </trkpt>
      <trkpt lat="48.02928" lon="2.8157">
        <ele>138</ele>
        <time>2015-11-19T09:58:12Z</time>
      </trkpt>
      <trkpt lat="48.02924" lon="2.81564">
        <ele>138</ele>
        <time>2015-11-19T09:58:13Z</time>
      </trkpt>
      <trkpt lat="48.0292" lon="2.8156">
        <ele>138</ele>
        <time>2015-11-19T09:58:14Z</time>
      </trkpt>
      <trkpt lat="48.02916" lon="2.81557">
        <ele>138</ele>
        <time>2015-11-19T09:58:15Z</time>
      </trkpt>
      <trkpt lat="48.02913" lon="2.81554">
        <ele>138</ele>
        <time>2015-11-19T09:58:16Z</time>
      </trkpt>
      <trkpt lat="48.0291" lon="2.81551">
        <ele>138</ele>
        <time>2015-11-19T09:58:17Z</time>
      </trkpt>
      <trkpt lat="48.02908" lon="2.8155">
        <ele>138</ele>
        <time>2015-11-19T09:58:18Z</time>
      </trkpt>
      <trkpt lat="48.02908" lon="2.81552">
        <ele>137</ele>
        <time>2015-11-19T09:58:19Z</time>
      </trkpt>
      <trkpt lat="48.02907" lon="2.81553">
        <ele>137</ele>
        <time>2015-11-19T09:58:20Z</time>
      </trkpt>
      <trkpt lat="48.02906" lon="2.81555">
        <ele>136</ele>
        <time>2015-11-19T09:58:21Z</time>
      </trkpt>
      <trkpt lat="48.02905" lon="2.81557">
        <ele>135</ele>
        <time>2015-11-19T09:58:22Z</time>
      </trkpt>
      <trkpt lat="48.02903" lon="2.81559">
        <ele>135</ele>
        <time>2015-11-19T09:58:23Z</time>
      </trkpt>
      <trkpt lat="48.02902" lon="2.8156">
        <ele>134</ele>
        <time>2015-11-19T09:58:24Z</time>
      </trkpt>
      <trkpt lat="48.02901" lon="2.81562">
        <ele>133</ele>
        <time>2015-11-19T09:58:25Z</time>
      </trkpt>
      <trkpt lat="48.029" lon="2.81565">
        <ele>132</ele>
        <time>2015-11-19T09:58:26Z</time>
      </trkpt>
      <trkpt lat="48.02899" lon="2.81567">
        <ele>132</ele>
        <time>2015-11-19T09:58:27Z</time>
      </trkpt>
      <trkpt lat="48.02898" lon="2.8157">
        <ele>132</ele>
        <time>2015-11-19T09:58:28Z</time>
      </trkpt>
      <trkpt lat="48.02897" lon="2.81572">
        <ele>131</ele>
        <time>2015-11-19T09:58:29Z</time>
      </trkpt>
      <trkpt lat="48.02896" lon="2.81574">
        <ele>131</ele>
        <time>2015-11-19T09:58:30Z</time>
      </trkpt>
      <trkpt lat="48.02895" lon="2.81576">
        <ele>131</ele>
        <time>2015-11-19T09:58:31Z</time>
      </trkpt>
      <trkpt lat="48.02893" lon="2.81577">
        <ele>130</ele>
        <time>2015-11-19T09:58:32Z</time>
      </trkpt>
      <trkpt lat="48.02892" lon="2.81579">
        <ele>130</ele>
        <time>2015-11-19T09:58:33Z</time>
      </trkpt>
      <trkpt lat="48.02891" lon="2.81581">
        <ele>130</ele>
        <time>2015-11-19T09:58:34Z</time>
      </trkpt>
      <trkpt lat="48.0289" lon="2.81584">
        <ele>130</ele>
        <time>2015-11-19T09:58:35Z</time>
      </trkpt>
      <trkpt lat="48.02889" lon="2.81587">
        <ele>130</ele>
        <time>2015-11-19T09:58:36Z</time>
      </trkpt>
      <trkpt lat="48.02888" lon="2.81592">
        <ele>129</ele>
        <time>2015-11-19T09:58:37Z</time>
      </trkpt>
      <trkpt lat="48.02887" lon="2.81596">
        <ele>128</ele>
        <time>2015-11-19T09:58:38Z</time>
      </trkpt>
      <trkpt lat="48.02886" lon="2.81599">
        <ele>127</ele>
        <time>2015-11-19T09:58:39Z</time>
      </trkpt>
      <trkpt lat="48.02886" lon="2.81602">
        <ele>127</ele>
        <time>2015-11-19T09:58:40Z</time>
      </trkpt>
      <trkpt lat="48.02886" lon="2.81606">
        <ele>126</ele>
        <time>2015-11-19T09:58:41Z</time>
      </trkpt>
      <trkpt lat="48.02886" lon="2.81609">
        <ele>126</ele>
        <time>2015-11-19T09:58:42Z</time>
      </trkpt>
      <trkpt lat="48.02886" lon="2.81613">
        <ele>126</ele>
        <time>2015-11-19T09:58:43Z</time>
      </trkpt>
      <trkpt lat="48.02886" lon="2.81617">
        <ele>126</ele>
        <time>2015-11-19T09:58:44Z</time>
      </trkpt>
      <trkpt lat="48.02886" lon="2.8162">
        <ele>126</ele>
        <time>2015-11-19T09:58:45Z</time>
      </trkpt>
      <trkpt lat="48.02886" lon="2.81623">
        <ele>126</ele>
        <time>2015-11-19T09:58:46Z</time>
      </trkpt>
      <trkpt lat="48.02885" lon="2.81627">
        <ele>126</ele>
        <time>2015-11-19T09:58:47Z</time>
      </trkpt>
      <trkpt lat="48.02886" lon="2.81629">
        <ele>126</ele>
        <time>2015-11-19T09:58:48Z</time>
      </trkpt>
      <trkpt lat="48.02885" lon="2.81633">
        <ele>125</ele>
        <time>2015-11-19T09:58:49Z</time>
      </trkpt>
      <trkpt lat="48.02885" lon="2.81635">
        <ele>124</ele>
        <time>2015-11-19T09:58:50Z</time>
      </trkpt>
      <trkpt lat="48.02884" lon="2.81639">
        <ele>123</ele>
        <time>2015-11-19T09:58:51Z</time>
      </trkpt>
      <trkpt lat="48.02884" lon="2.81643">
        <ele>122</ele>
        <time>2015-11-19T09:58:52Z</time>
      </trkpt>
      <trkpt lat="48.02882" lon="2.81647">
        <ele>121</ele>
        <time>2015-11-19T09:58:53Z</time>
      </trkpt>
      <trkpt lat="48.02881" lon="2.81654">
        <ele>120</ele>
        <time>2015-11-19T09:58:54Z</time>
      </trkpt>
      <trkpt lat="48.02879" lon="2.8166">
        <ele>120</ele>
        <time>2015-11-19T09:58:55Z</time>
      </trkpt>
      <trkpt lat="48.02879" lon="2.81666">
        <ele>120</ele>
        <time>2015-11-19T09:58:56Z</time>
      </trkpt>
      <trkpt lat="48.02878" lon="2.81672">
        <ele>120</ele>
        <time>2015-11-19T09:58:57Z</time>
      </trkpt>
      <trkpt lat="48.02876" lon="2.81677">
        <ele>120</ele>
        <time>2015-11-19T09:58:58Z</time>
      </trkpt>
      <trkpt lat="48.02875" lon="2.81683">
        <ele>120</ele>
        <time>2015-11-19T09:58:59Z</time>
      </trkpt>
      <trkpt lat="48.02872" lon="2.81688">
        <ele>120</ele>
        <time>2015-11-19T09:59:00Z</time>
      </trkpt>
      <trkpt lat="48.02869" lon="2.81693">
        <ele>120</ele>
        <time>2015-11-19T09:59:01Z</time>
      </trkpt>
      <trkpt lat="48.02868" lon="2.81698">
        <ele>120</ele>
        <time>2015-11-19T09:59:02Z</time>
      </trkpt>
      <trkpt lat="48.02866" lon="2.81704">
        <ele>120</ele>
        <time>2015-11-19T09:59:03Z</time>
      </trkpt>
      <trkpt lat="48.02864" lon="2.81707">
        <ele>119</ele>
        <time>2015-11-19T09:59:04Z</time>
      </trkpt>
      <trkpt lat="48.02861" lon="2.81709">
        <ele>118</ele>
        <time>2015-11-19T09:59:05Z</time>
      </trkpt>
      <trkpt lat="48.02858" lon="2.81708">
        <ele>117</ele>
        <time>2015-11-19T09:59:06Z</time>
      </trkpt>
      <trkpt lat="48.02855" lon="2.81707">
        <ele>116</ele>
        <time>2015-11-19T09:59:07Z</time>
      </trkpt>
      <trkpt lat="48.02847" lon="2.81704">
        <ele>114</ele>
        <time>2015-11-19T09:59:09Z</time>
      </trkpt>
      <trkpt lat="48.02842" lon="2.81703">
        <ele>114</ele>
        <time>2015-11-19T09:59:10Z</time>
      </trkpt>
      <trkpt lat="48.02837" lon="2.81701">
        <ele>114</ele>
        <time>2015-11-19T09:59:11Z</time>
      </trkpt>
      <trkpt lat="48.02832" lon="2.817">
        <ele>114</ele>
        <time>2015-11-19T09:59:12Z</time>
      </trkpt>
      <trkpt lat="48.02829" lon="2.81698">
        <ele>114</ele>
        <time>2015-11-19T09:59:13Z</time>
      </trkpt>
      <trkpt lat="48.02824" lon="2.81696">
        <ele>113</ele>
        <time>2015-11-19T09:59:14Z</time>
      </trkpt>
      <trkpt lat="48.02821" lon="2.81694">
        <ele>113</ele>
        <time>2015-11-19T09:59:15Z</time>
      </trkpt>
      <trkpt lat="48.02817" lon="2.81694">
        <ele>112</ele>
        <time>2015-11-19T09:59:16Z</time>
      </trkpt>
      <trkpt lat="48.02814" lon="2.81693">
        <ele>112</ele>
        <time>2015-11-19T09:59:17Z</time>
      </trkpt>
      <trkpt lat="48.02811" lon="2.81692">
        <ele>112</ele>
        <time>2015-11-19T09:59:18Z</time>
      </trkpt>
      <trkpt lat="48.02807" lon="2.81692">
        <ele>112</ele>
        <time>2015-11-19T09:59:19Z</time>
      </trkpt>
      <trkpt lat="48.02805" lon="2.81691">
        <ele>112</ele>
        <time>2015-11-19T09:59:20Z</time>
      </trkpt>
      <trkpt lat="48.02804" lon="2.81687">
        <ele>112</ele>
        <time>2015-11-19T09:59:21Z</time>
      </trkpt>
      <trkpt lat="48.02803" lon="2.81682">
        <ele>112</ele>
        <time>2015-11-19T09:59:22Z</time>
      </trkpt>
      <trkpt lat="48.02803" lon="2.81677">
        <ele>112</ele>
        <time>2015-11-19T09:59:23Z</time>
      </trkpt>
      <trkpt lat="48.02803" lon="2.81672">
        <ele>112</ele>
        <time>2015-11-19T09:59:24Z</time>
      </trkpt>
      <trkpt lat="48.02801" lon="2.81667">
        <ele>112</ele>
        <time>2015-11-19T09:59:25Z</time>
      </trkpt>
      <trkpt lat="48.02799" lon="2.81662">
        <ele>112</ele>
        <time>2015-11-19T09:59:26Z</time>
      </trkpt>
      <trkpt lat="48.02798" lon="2.81657">
        <ele>113</ele>
        <time>2015-11-19T09:59:27Z</time>
      </trkpt>
      <trkpt lat="48.02799" lon="2.81653">
        <ele>114</ele>
        <time>2015-11-19T09:59:28Z</time>
      </trkpt>
      <trkpt lat="48.02801" lon="2.81649">
        <ele>115</ele>
        <time>2015-11-19T09:59:29Z</time>
      </trkpt>
      <trkpt lat="48.02803" lon="2.81646">
        <ele>116</ele>
        <time>2015-11-19T09:59:30Z</time>
      </trkpt>
      <trkpt lat="48.02805" lon="2.81643">
        <ele>117</ele>
        <time>2015-11-19T09:59:31Z</time>
      </trkpt>
      <trkpt lat="48.02807" lon="2.81639">
        <ele>118</ele>
        <time>2015-11-19T09:59:32Z</time>
      </trkpt>
      <trkpt lat="48.02808" lon="2.81636">
        <ele>119</ele>
        <time>2015-11-19T09:59:33Z</time>
      </trkpt>
      <trkpt lat="48.02809" lon="2.81633">
        <ele>119</ele>
        <time>2015-11-19T09:59:34Z</time>
      </trkpt>
      <trkpt lat="48.02808" lon="2.81629">
        <ele>120</ele>
        <time>2015-11-19T09:59:35Z</time>
      </trkpt>
      <trkpt lat="48.0281" lon="2.81627">
        <ele>120</ele>
        <time>2015-11-19T09:59:36Z</time>
      </trkpt>
      <trkpt lat="48.02811" lon="2.81626">
        <ele>120</ele>
        <time>2015-11-19T09:59:37Z</time>
      </trkpt>
      <trkpt lat="48.02812" lon="2.81625">
        <ele>121</ele>
        <time>2015-11-19T09:59:38Z</time>
      </trkpt>
      <trkpt lat="48.02814" lon="2.81623">
        <ele>121</ele>
        <time>2015-11-19T09:59:39Z</time>
      </trkpt>
      <trkpt lat="48.02816" lon="2.81621">
        <ele>121</ele>
        <time>2015-11-19T09:59:40Z</time>
      </trkpt>
      <trkpt lat="48.02818" lon="2.81619">
        <ele>122</ele>
        <time>2015-11-19T09:59:41Z</time>
      </trkpt>
      <trkpt lat="48.02819" lon="2.81616">
        <ele>122</ele>
        <time>2015-11-19T09:59:42Z</time>
      </trkpt>
      <trkpt lat="48.02821" lon="2.81614">
        <ele>123</ele>
        <time>2015-11-19T09:59:43Z</time>
      </trkpt>
      <trkpt lat="48.02823" lon="2.81612">
        <ele>123</ele>
        <time>2015-11-19T09:59:44Z</time>
      </trkpt>
      <trkpt lat="48.02824" lon="2.8161">
        <ele>123</ele>
        <time>2015-11-19T09:59:45Z</time>
      </trkpt>
      <trkpt lat="48.02821" lon="2.8161">
        <ele>123</ele>
        <time>2015-11-19T09:59:47Z</time>
      </trkpt>
      <trkpt lat="48.0282" lon="2.81611">
        <ele>123</ele>
        <time>2015-11-19T09:59:48Z</time>
      </trkpt>
      <trkpt lat="48.02818" lon="2.81611">
        <ele>124</ele>
        <time>2015-11-19T09:59:49Z</time>
      </trkpt>
      <trkpt lat="48.02816" lon="2.8161">
        <ele>125</ele>
        <time>2015-11-19T09:59:50Z</time>
      </trkpt>
      <trkpt lat="48.02814" lon="2.81611">
        <ele>126</ele>
        <time>2015-11-19T09:59:51Z</time>
      </trkpt>
      <trkpt lat="48.02813" lon="2.81612">
        <ele>126</ele>
        <time>2015-11-19T09:59:52Z</time>
      </trkpt>
      <trkpt lat="48.02812" lon="2.81614">
        <ele>127</ele>
        <time>2015-11-19T09:59:53Z</time>
      </trkpt>
      <trkpt lat="48.02811" lon="2.81617">
        <ele>127</ele>
        <time>2015-11-19T09:59:54Z</time>
      </trkpt>
      <trkpt lat="48.02809" lon="2.81619">
        <ele>128</ele>
        <time>2015-11-19T09:59:55Z</time>
      </trkpt>
      <trkpt lat="48.02806" lon="2.81621">
        <ele>128</ele>
        <time>2015-11-19T09:59:56Z</time>
      </trkpt>
      <trkpt lat="48.02803" lon="2.81623">
        <ele>128</ele>
        <time>2015-11-19T09:59:57Z</time>
      </trkpt>
      <trkpt lat="48.028" lon="2.81622">
        <ele>128</ele>
        <time>2015-11-19T09:59:58Z</time>
      </trkpt>
      <trkpt lat="48.02798" lon="2.81621">
        <ele>128</ele>
        <time>2015-11-19T09:59:59Z</time>
      </trkpt>
      <trkpt lat="48.02797" lon="2.8162">
        <ele>128</ele>
        <time>2015-11-19T10:00:00Z</time>
      </trkpt>
      <trkpt lat="48.02795" lon="2.81618">
        <ele>128</ele>
        <time>2015-11-19T10:00:01Z</time>
      </trkpt>
      <trkpt lat="48.02793" lon="2.81617">
        <ele>128</ele>
        <time>2015-11-19T10:00:02Z</time>
      </trkpt>
      <trkpt lat="48.0279" lon="2.81616">
        <ele>128</ele>
        <time>2015-11-19T10:00:03Z</time>
      </trkpt>
      <trkpt lat="48.02789" lon="2.81614">
        <ele>128</ele>
        <time>2015-11-19T10:00:04Z</time>
      </trkpt>
      <trkpt lat="48.0279" lon="2.81612">
        <ele>128</ele>
        <time>2015-11-19T10:00:05Z</time>
      </trkpt>
      <trkpt lat="48.02791" lon="2.8161">
        <ele>128</ele>
        <time>2015-11-19T10:00:06Z</time>
      </trkpt>
      <trkpt lat="48.02792" lon="2.81609">
        <ele>128</ele>
        <time>2015-11-19T10:00:07Z</time>
      </trkpt>
      <trkpt lat="48.02794" lon="2.81607">
        <ele>129</ele>
        <time>2015-11-19T10:00:08Z</time>
      </trkpt>
      <trkpt lat="48.02795" lon="2.81605">
        <ele>129</ele>
        <time>2015-11-19T10:00:09Z</time>
      </trkpt>
      <trkpt lat="48.02797" lon="2.81602">
        <ele>129</ele>
        <time>2015-11-19T10:00:10Z</time>
      </trkpt>
      <trkpt lat="48.02797" lon="2.81597">
        <ele>129</ele>
        <time>2015-11-19T10:00:11Z</time>
      </trkpt>
      <trkpt lat="48.02797" lon="2.81593">
        <ele>129</ele>
        <time>2015-11-19T10:00:12Z</time>
      </trkpt>
      <trkpt lat="48.02796" lon="2.81591">
        <ele>129</ele>
        <time>2015-11-19T10:00:13Z</time>
      </trkpt>
      <trkpt lat="48.02798" lon="2.81588">
        <ele>135</ele>
        <time>2015-11-19T10:00:16Z</time>
      </trkpt>
      <trkpt lat="48.02796" lon="2.81584">
        <ele>135</ele>
        <time>2015-11-19T10:00:17Z</time>
      </trkpt>
      <trkpt lat="48.02794" lon="2.8158">
        <ele>135</ele>
        <time>2015-11-19T10:00:18Z</time>
      </trkpt>
      <trkpt lat="48.02792" lon="2.81575">
        <ele>135</ele>
        <time>2015-11-19T10:00:19Z</time>
      </trkpt>
      <trkpt lat="48.0279" lon="2.81569">
        <ele>135</ele>
        <time>2015-11-19T10:00:20Z</time>
      </trkpt>
      <trkpt lat="48.02789" lon="2.81563">
        <ele>136</ele>
        <time>2015-11-19T10:00:21Z</time>
      </trkpt>
      <trkpt lat="48.02788" lon="2.81557">
        <ele>136</ele>
        <time>2015-11-19T10:00:22Z</time>
      </trkpt>
      <trkpt lat="48.02786" lon="2.81549">
        <ele>136</ele>
        <time>2015-11-19T10:00:23Z</time>
      </trkpt>
      <trkpt lat="48.02785" lon="2.81542">
        <ele>136</ele>
        <time>2015-11-19T10:00:24Z</time>
      </trkpt>
      <trkpt lat="48.02785" lon="2.81534">
        <ele>137</ele>
        <time>2015-11-19T10:00:25Z</time>
      </trkpt>
      <trkpt lat="48.02785" lon="2.81526">
        <ele>137</ele>
        <time>2015-11-19T10:00:26Z</time>
      </trkpt>
      <trkpt lat="48.02786" lon="2.81519">
        <ele>137</ele>
        <time>2015-11-19T10:00:27Z</time>
      </trkpt>
      <trkpt lat="48.02789" lon="2.81516">
        <ele>137</ele>
        <time>2015-11-19T10:00:28Z</time>
      </trkpt>
      <trkpt lat="48.02792" lon="2.81515">
        <ele>137</ele>
        <time>2015-11-19T10:00:29Z</time>
      </trkpt>
      <trkpt lat="48.02795" lon="2.81514">
        <ele>137</ele>
        <time>2015-11-19T10:00:30Z</time>
      </trkpt>
      <trkpt lat="48.02797" lon="2.81513">
        <ele>137</ele>
        <time>2015-11-19T10:00:31Z</time>
      </trkpt>
      <trkpt lat="48.028" lon="2.81511">
        <ele>137</ele>
        <time>2015-11-19T10:00:32Z</time>
      </trkpt>
      <trkpt lat="48.02803" lon="2.81509">
        <ele>137</ele>
        <time>2015-11-19T10:00:33Z</time>
      </trkpt>
      <trkpt lat="48.02806" lon="2.81509">
        <ele>137</ele>
        <time>2015-11-19T10:00:34Z</time>
      </trkpt>
      <trkpt lat="48.02809" lon="2.81509">
        <ele>137</ele>
        <time>2015-11-19T10:00:35Z</time>
      </trkpt>
      <trkpt lat="48.02811" lon="2.81509">
        <ele>137</ele>
        <time>2015-11-19T10:00:36Z</time>
      </trkpt>
      <trkpt lat="48.02814" lon="2.81509">
        <ele>137</ele>
        <time>2015-11-19T10:00:37Z</time>
      </trkpt>
      <trkpt lat="48.02817" lon="2.81508">
        <ele>137</ele>
        <time>2015-11-19T10:00:38Z</time>
      </trkpt>
      <trkpt lat="48.02819" lon="2.81505">
        <ele>137</ele>
        <time>2015-11-19T10:00:39Z</time>
      </trkpt>
      <trkpt lat="48.02822" lon="2.81503">
        <ele>137</ele>
        <time>2015-11-19T10:00:40Z</time>
      </trkpt>
      <trkpt lat="48.02826" lon="2.815">
        <ele>137</ele>
        <time>2015-11-19T10:00:41Z</time>
      </trkpt>
      <trkpt lat="48.02829" lon="2.81498">
        <ele>136</ele>
        <time>2015-11-19T10:00:42Z</time>
      </trkpt>
      <trkpt lat="48.02832" lon="2.81497">
        <ele>135</ele>
        <time>2015-11-19T10:00:43Z</time>
      </trkpt>
      <trkpt lat="48.02834" lon="2.81497">
        <ele>134</ele>
        <time>2015-11-19T10:00:44Z</time>
      </trkpt>
      <trkpt lat="48.02835" lon="2.81493">
        <ele>132</ele>
        <time>2015-11-19T10:00:46Z</time>
      </trkpt>
      <trkpt lat="48.02833" lon="2.81485">
        <ele>130</ele>
        <time>2015-11-19T10:00:48Z</time>
      </trkpt>
      <trkpt lat="48.02832" lon="2.81478">
        <ele>129</ele>
        <time>2015-11-19T10:00:49Z</time>
      </trkpt>
      <trkpt lat="48.02833" lon="2.81471">
        <ele>128</ele>
        <time>2015-11-19T10:00:50Z</time>
      </trkpt>
      <trkpt lat="48.02835" lon="2.81467">
        <ele>127</ele>
        <time>2015-11-19T10:00:51Z</time>
      </trkpt>
      <trkpt lat="48.02838" lon="2.81464">
        <ele>126</ele>
        <time>2015-11-19T10:00:52Z</time>
      </trkpt>
      <trkpt lat="48.02838" lon="2.81461">
        <ele>126</ele>
        <time>2015-11-19T10:00:53Z</time>
      </trkpt>
      <trkpt lat="48.02837" lon="2.8146">
        <ele>125</ele>
        <time>2015-11-19T10:00:55Z</time>
      </trkpt>
      <trkpt lat="48.02837" lon="2.81462">
        <ele>124</ele>
        <time>2015-11-19T10:00:56Z</time>
      </trkpt>
      <trkpt lat="48.02836" lon="2.81464">
        <ele>123</ele>
        <time>2015-11-19T10:00:57Z</time>
      </trkpt>
      <trkpt lat="48.02835" lon="2.81467">
        <ele>122</ele>
        <time>2015-11-19T10:00:58Z</time>
      </trkpt>
      <trkpt lat="48.02833" lon="2.8147">
        <ele>121</ele>
        <time>2015-11-19T10:00:59Z</time>
      </trkpt>
      <trkpt lat="48.02831" lon="2.81472">
        <ele>120</ele>
        <time>2015-11-19T10:01:00Z</time>
      </trkpt>
      <trkpt lat="48.02827" lon="2.81471">
        <ele>119</ele>
        <time>2015-11-19T10:01:01Z</time>
      </trkpt>
      <trkpt lat="48.02823" lon="2.8147">
        <ele>118</ele>
        <time>2015-11-19T10:01:02Z</time>
      </trkpt>
      <trkpt lat="48.02819" lon="2.81466">
        <ele>118</ele>
        <time>2015-11-19T10:01:03Z</time>
      </trkpt>
      <trkpt lat="48.02815" lon="2.81464">
        <ele>117</ele>
        <time>2015-11-19T10:01:04Z</time>
      </trkpt>
      <trkpt lat="48.02814" lon="2.8146">
        <ele>116</ele>
        <time>2015-11-19T10:01:05Z</time>
      </trkpt>
      <trkpt lat="48.02811" lon="2.81456">
        <ele>115</ele>
        <time>2015-11-19T10:01:06Z</time>
      </trkpt>
      <trkpt lat="48.02808" lon="2.81454">
        <ele>115</ele>
        <time>2015-11-19T10:01:07Z</time>
      </trkpt>
      <trkpt lat="48.02808" lon="2.81456">
        <ele>114</ele>
        <time>2015-11-19T10:01:08Z</time>
      </trkpt>
      <trkpt lat="48.02807" lon="2.81459">
        <ele>114</ele>
        <time>2015-11-19T10:01:09Z</time>
      </trkpt>
      <trkpt lat="48.02806" lon="2.81463">
        <ele>114</ele>
        <time>2015-11-19T10:01:10Z</time>
      </trkpt>
      <trkpt lat="48.02805" lon="2.81466">
        <ele>114</ele>
        <time>2015-11-19T10:01:11Z</time>
      </trkpt>
      <trkpt lat="48.02803" lon="2.81468">
        <ele>114</ele>
        <time>2015-11-19T10:01:12Z</time>
      </trkpt>
      <trkpt lat="48.02802" lon="2.8147">
        <ele>114</ele>
        <time>2015-11-19T10:01:13Z</time>
      </trkpt>
      <trkpt lat="48.02801" lon="2.81473">
        <ele>114</ele>
        <time>2015-11-19T10:01:14Z</time>
      </trkpt>
      <trkpt lat="48.028" lon="2.81477">
        <ele>114</ele>
        <time>2015-11-19T10:01:15Z</time>
      </trkpt>
      <trkpt lat="48.028" lon="2.81481">
        <ele>114</ele>
        <time>2015-11-19T10:01:16Z</time>
      </trkpt>
      <trkpt lat="48.02799" lon="2.81484">
        <ele>114</ele>
        <time>2015-11-19T10:01:17Z</time>
      </trkpt>
      <trkpt lat="48.02797" lon="2.81486">
        <ele>114</ele>
        <time>2015-11-19T10:01:18Z</time>
      </trkpt>
      <trkpt lat="48.02796" lon="2.81489">
        <ele>115</ele>
        <time>2015-11-19T10:01:19Z</time>
      </trkpt>
      <trkpt lat="48.02794" lon="2.81492">
        <ele>116</ele>
        <time>2015-11-19T10:01:20Z</time>
      </trkpt>
      <trkpt lat="48.02792" lon="2.81495">
        <ele>117</ele>
        <time>2015-11-19T10:01:21Z</time>
      </trkpt>
      <trkpt lat="48.0279" lon="2.81497">
        <ele>118</ele>
        <time>2015-11-19T10:01:22Z</time>
      </trkpt>
      <trkpt lat="48.02789" lon="2.81501">
        <ele>119</ele>
        <time>2015-11-19T10:01:23Z</time>
      </trkpt>
      <trkpt lat="48.02787" lon="2.81504">
        <ele>120</ele>
        <time>2015-11-19T10:01:24Z</time>
      </trkpt>
      <trkpt lat="48.02786" lon="2.81507">
        <ele>121</ele>
        <time>2015-11-19T10:01:25Z</time>
      </trkpt>
      <trkpt lat="48.02785" lon="2.8151">
        <ele>122</ele>
        <time>2015-11-19T10:01:26Z</time>
      </trkpt>
      <trkpt lat="48.02783" lon="2.81513">
        <ele>122</ele>
        <time>2015-11-19T10:01:27Z</time>
      </trkpt>
      <trkpt lat="48.02782" lon="2.81516">
        <ele>122</ele>
        <time>2015-11-19T10:01:28Z</time>
      </trkpt>
      <trkpt lat="48.02781" lon="2.81519">
        <ele>122</ele>
        <time>2015-11-19T10:01:29Z</time>
      </trkpt>
      <trkpt lat="48.0278" lon="2.81522">
        <ele>122</ele>
        <time>2015-11-19T10:01:30Z</time>
      </trkpt>
      <trkpt lat="48.02778" lon="2.81525">
        <ele>122</ele>
        <time>2015-11-19T10:01:31Z</time>
      </trkpt>
      <trkpt lat="48.02777" lon="2.81528">
        <ele>122</ele>
        <time>2015-11-19T10:01:32Z</time>
      </trkpt>
      <trkpt lat="48.02776" lon="2.81532">
        <ele>122</ele>
        <time>2015-11-19T10:01:33Z</time>
      </trkpt>
      <trkpt lat="48.02774" lon="2.81536">
        <ele>122</ele>
        <time>2015-11-19T10:01:34Z</time>
      </trkpt>
      <trkpt lat="48.02772" lon="2.81539">
        <ele>122</ele>
        <time>2015-11-19T10:01:35Z</time>
      </trkpt>
      <trkpt lat="48.0277" lon="2.81543">
        <ele>122</ele>
        <time>2015-11-19T10:01:36Z</time>
      </trkpt>
      <trkpt lat="48.02769" lon="2.81546">
        <ele>122</ele>
        <time>2015-11-19T10:01:37Z</time>
      </trkpt>
      <trkpt lat="48.02767" lon="2.81549">
        <ele>122</ele>
        <time>2015-11-19T10:01:38Z</time>
      </trkpt>
      <trkpt lat="48.02765" lon="2.81553">
        <ele>122</ele>
        <time>2015-11-19T10:01:39Z</time>
      </trkpt>
      <trkpt lat="48.02764" lon="2.81557">
        <ele>122</ele>
        <time>2015-11-19T10:01:40Z</time>
      </trkpt>
      <trkpt lat="48.02763" lon="2.81559">
        <ele>122</ele>
        <time>2015-11-19T10:01:41Z</time>
      </trkpt>
      <trkpt lat="48.02762" lon="2.81561">
        <ele>122</ele>
        <time>2015-11-19T10:01:42Z</time>
      </trkpt>
      <trkpt lat="48.02761" lon="2.81563">
        <ele>122</ele>
        <time>2015-11-19T10:01:43Z</time>
      </trkpt>
      <trkpt lat="48.0276" lon="2.81564">
        <ele>122</ele>
        <time>2015-11-19T10:01:44Z</time>
      </trkpt>
      <trkpt lat="48.02758" lon="2.81567">
        <ele>122</ele>
        <time>2015-11-19T10:01:46Z</time>
      </trkpt>
      <trkpt lat="48.02758" lon="2.81569">
        <ele>122</ele>
        <time>2015-11-19T10:01:48Z</time>
      </trkpt>
      <trkpt lat="48.0276" lon="2.81571">
        <ele>121</ele>
        <time>2015-11-19T10:01:50Z</time>
      </trkpt>
      <trkpt lat="48.02763" lon="2.81573">
        <ele>121</ele>
        <time>2015-11-19T10:01:51Z</time>
      </trkpt>
      <trkpt lat="48.02764" lon="2.81575">
        <ele>121</ele>
        <time>2015-11-19T10:01:52Z</time>
      </trkpt>
      <trkpt lat="48.02766" lon="2.81578">
        <ele>121</ele>
        <time>2015-11-19T10:01:53Z</time>
      </trkpt>
      <trkpt lat="48.02769" lon="2.8158">
        <ele>121</ele>
        <time>2015-11-19T10:01:54Z</time>
      </trkpt>
      <trkpt lat="48.02771" lon="2.81583">
        <ele>121</ele>
        <time>2015-11-19T10:01:55Z</time>
      </trkpt>
      <trkpt lat="48.02774" lon="2.81586">
        <ele>121</ele>
        <time>2015-11-19T10:01:56Z</time>
      </trkpt>
      <trkpt lat="48.02776" lon="2.81589">
        <ele>121</ele>
        <time>2015-11-19T10:01:57Z</time>
      </trkpt>
      <trkpt lat="48.02777" lon="2.81592">
        <ele>121</ele>
        <time>2015-11-19T10:01:58Z</time>
      </trkpt>
      <trkpt lat="48.02777" lon="2.81596">
        <ele>121</ele>
        <time>2015-11-19T10:01:59Z</time>
      </trkpt>
      <trkpt lat="48.02778" lon="2.816">
        <ele>121</ele>
        <time>2015-11-19T10:02:00Z</time>
      </trkpt>
      <trkpt lat="48.02779" lon="2.81603">
        <ele>121</ele>
        <time>2015-11-19T10:02:01Z</time>
      </trkpt>
      <trkpt lat="48.0278" lon="2.81606">
        <ele>121</ele>
        <time>2015-11-19T10:02:02Z</time>
      </trkpt>
      <trkpt lat="48.02781" lon="2.81608">
        <ele>122</ele>
        <time>2015-11-19T10:02:04Z</time>
      </trkpt>
      <trkpt lat="48.02778" lon="2.81628">
        <ele>104</ele>
        <time>2015-11-19T10:02:09Z</time>
      </trkpt>
      <trkpt lat="48.02776" lon="2.81608">
        <ele>109</ele>
        <time>2015-11-19T10:02:10Z</time>
      </trkpt>
      <trkpt lat="48.02775" lon="2.81607">
        <ele>110</ele>
        <time>2015-11-19T10:02:11Z</time>
      </trkpt>
      <trkpt lat="48.02774" lon="2.81605">
        <ele>111</ele>
        <time>2015-11-19T10:02:12Z</time>
      </trkpt>
      <trkpt lat="48.02774" lon="2.81603">
        <ele>112</ele>
        <time>2015-11-19T10:02:13Z</time>
      </trkpt>
      <trkpt lat="48.02774" lon="2.81605">
        <ele>116</ele>
        <time>2015-11-19T10:02:17Z</time>
      </trkpt>
      <trkpt lat="48.02776" lon="2.81606">
        <ele>117</ele>
        <time>2015-11-19T10:02:18Z</time>
      </trkpt>
      <trkpt lat="48.02776" lon="2.81608">
        <ele>118</ele>
        <time>2015-11-19T10:02:19Z</time>
      </trkpt>
      <trkpt lat="48.02776" lon="2.8161">
        <ele>119</ele>
        <time>2015-11-19T10:02:20Z</time>
      </trkpt>
      <trkpt lat="48.02777" lon="2.81612">
        <ele>120</ele>
        <time>2015-11-19T10:02:21Z</time>
      </trkpt>
      <trkpt lat="48.02779" lon="2.81615">
        <ele>121</ele>
        <time>2015-11-19T10:02:22Z</time>
      </trkpt>
      <trkpt lat="48.0278" lon="2.81618">
        <ele>122</ele>
        <time>2015-11-19T10:02:23Z</time>
      </trkpt>
      <trkpt lat="48.02781" lon="2.8162">
        <ele>123</ele>
        <time>2015-11-19T10:02:24Z</time>
      </trkpt>
      <trkpt lat="48.02782" lon="2.81622">
        <ele>124</ele>
        <time>2015-11-19T10:02:25Z</time>
      </trkpt>
      <trkpt lat="48.02784" lon="2.81622">
        <ele>126</ele>
        <time>2015-11-19T10:02:27Z</time>
      </trkpt>
      <trkpt lat="48.02786" lon="2.81622">
        <ele>126</ele>
        <time>2015-11-19T10:02:29Z</time>
      </trkpt>
      <trkpt lat="48.02788" lon="2.81623">
        <ele>126</ele>
        <time>2015-11-19T10:02:31Z</time>
      </trkpt>
      <trkpt lat="48.02779" lon="2.81618">
        <ele>121</ele>
        <time>2015-11-19T10:02:34Z</time>
      </trkpt>
      <trkpt lat="48.02781" lon="2.81623">
        <ele>122</ele>
        <time>2015-11-19T10:02:35Z</time>
      </trkpt>
      <trkpt lat="48.02781" lon="2.81626">
        <ele>123</ele>
        <time>2015-11-19T10:02:38Z</time>
      </trkpt>
      <trkpt lat="48.02781" lon="2.81627">
        <ele>123</ele>
        <time>2015-11-19T10:02:39Z</time>
      </trkpt>
      <trkpt lat="48.02782" lon="2.8163">
        <ele>123</ele>
        <time>2015-11-19T10:02:40Z</time>
      </trkpt>
      <trkpt lat="48.02783" lon="2.81631">
        <ele>123</ele>
        <time>2015-11-19T10:02:41Z</time>
      </trkpt>
      <trkpt lat="48.02784" lon="2.81633">
        <ele>123</ele>
        <time>2015-11-19T10:02:42Z</time>
      </trkpt>
      <trkpt lat="48.02785" lon="2.81635">
        <ele>123</ele>
        <time>2015-11-19T10:02:43Z</time>
      </trkpt>
      <trkpt lat="48.02787" lon="2.81637">
        <ele>123</ele>
        <time>2015-11-19T10:02:44Z</time>
      </trkpt>
      <trkpt lat="48.02788" lon="2.81638">
        <ele>124</ele>
        <time>2015-11-19T10:02:47Z</time>
      </trkpt>
      <trkpt lat="48.02785" lon="2.81627">
        <ele>129</ele>
        <time>2015-11-19T10:02:49Z</time>
      </trkpt>
      <trkpt lat="48.02781" lon="2.81624">
        <ele>127</ele>
        <time>2015-11-19T10:02:50Z</time>
      </trkpt>
      <trkpt lat="48.02779" lon="2.81622">
        <ele>126</ele>
        <time>2015-11-19T10:02:51Z</time>
      </trkpt>
      <trkpt lat="48.02778" lon="2.81619">
        <ele>126</ele>
        <time>2015-11-19T10:02:52Z</time>
      </trkpt>
      <trkpt lat="48.0278" lon="2.8162">
        <ele>126</ele>
        <time>2015-11-19T10:02:55Z</time>
      </trkpt>
      <trkpt lat="48.02782" lon="2.81624">
        <ele>126</ele>
        <time>2015-11-19T10:02:57Z</time>
      </trkpt>
      <trkpt lat="48.02782" lon="2.81626">
        <ele>126</ele>
        <time>2015-11-19T10:02:58Z</time>
      </trkpt>
      <trkpt lat="48.02783" lon="2.81629">
        <ele>126</ele>
        <time>2015-11-19T10:03:00Z</time>
      </trkpt>
      <trkpt lat="48.02783" lon="2.81631">
        <ele>126</ele>
        <time>2015-11-19T10:03:01Z</time>
      </trkpt>
      <trkpt lat="48.02783" lon="2.81633">
        <ele>126</ele>
        <time>2015-11-19T10:03:02Z</time>
      </trkpt>
      <trkpt lat="48.02783" lon="2.81636">
        <ele>126</ele>
        <time>2015-11-19T10:03:03Z</time>
      </trkpt>
      <trkpt lat="48.02782" lon="2.81638">
        <ele>126</ele>
        <time>2015-11-19T10:03:04Z</time>
      </trkpt>
      <trkpt lat="48.02781" lon="2.81642">
        <ele>126</ele>
        <time>2015-11-19T10:03:05Z</time>
      </trkpt>
      <trkpt lat="48.0278" lon="2.81646">
        <ele>126</ele>
        <time>2015-11-19T10:03:06Z</time>
      </trkpt>
      <trkpt lat="48.02778" lon="2.8165">
        <ele>126</ele>
        <time>2015-11-19T10:03:07Z</time>
      </trkpt>
      <trkpt lat="48.02776" lon="2.81653">
        <ele>125</ele>
        <time>2015-11-19T10:03:08Z</time>
      </trkpt>
      <trkpt lat="48.02774" lon="2.81657">
        <ele>124</ele>
        <time>2015-11-19T10:03:09Z</time>
      </trkpt>
      <trkpt lat="48.02771" lon="2.81661">
        <ele>124</ele>
        <time>2015-11-19T10:03:10Z</time>
      </trkpt>
      <trkpt lat="48.02768" lon="2.81666">
        <ele>123</ele>
        <time>2015-11-19T10:03:11Z</time>
      </trkpt>
      <trkpt lat="48.02765" lon="2.81671">
        <ele>123</ele>
        <time>2015-11-19T10:03:12Z</time>
      </trkpt>
      <trkpt lat="48.02763" lon="2.81675">
        <ele>123</ele>
        <time>2015-11-19T10:03:13Z</time>
      </trkpt>
      <trkpt lat="48.02761" lon="2.8168">
        <ele>123</ele>
        <time>2015-11-19T10:03:14Z</time>
      </trkpt>
      <trkpt lat="48.02759" lon="2.81685">
        <ele>123</ele>
        <time>2015-11-19T10:03:15Z</time>
      </trkpt>
      <trkpt lat="48.02757" lon="2.8169">
        <ele>123</ele>
        <time>2015-11-19T10:03:16Z</time>
      </trkpt>
      <trkpt lat="48.02755" lon="2.81695">
        <ele>123</ele>
        <time>2015-11-19T10:03:17Z</time>
      </trkpt>
      <trkpt lat="48.02752" lon="2.81699">
        <ele>123</ele>
        <time>2015-11-19T10:03:18Z</time>
      </trkpt>
      <trkpt lat="48.02749" lon="2.81704">
        <ele>123</ele>
        <time>2015-11-19T10:03:19Z</time>
      </trkpt>
      <trkpt lat="48.02746" lon="2.81709">
        <ele>123</ele>
        <time>2015-11-19T10:03:20Z</time>
      </trkpt>
      <trkpt lat="48.02744" lon="2.81715">
        <ele>123</ele>
        <time>2015-11-19T10:03:21Z</time>
      </trkpt>
      <trkpt lat="48.02741" lon="2.8172">
        <ele>123</ele>
        <time>2015-11-19T10:03:22Z</time>
      </trkpt>
      <trkpt lat="48.02738" lon="2.81725">
        <ele>123</ele>
        <time>2015-11-19T10:03:23Z</time>
      </trkpt>
      <trkpt lat="48.02734" lon="2.81731">
        <ele>123</ele>
        <time>2015-11-19T10:03:24Z</time>
      </trkpt>
      <trkpt lat="48.02732" lon="2.81736">
        <ele>123</ele>
        <time>2015-11-19T10:03:25Z</time>
      </trkpt>
      <trkpt lat="48.02729" lon="2.81743">
        <ele>123</ele>
        <time>2015-11-19T10:03:26Z</time>
      </trkpt>
      <trkpt lat="48.02727" lon="2.81749">
        <ele>123</ele>
        <time>2015-11-19T10:03:27Z</time>
      </trkpt>
      <trkpt lat="48.02725" lon="2.81755">
        <ele>123</ele>
        <time>2015-11-19T10:03:28Z</time>
      </trkpt>
      <trkpt lat="48.02723" lon="2.81761">
        <ele>122</ele>
        <time>2015-11-19T10:03:29Z</time>
      </trkpt>
      <trkpt lat="48.02724" lon="2.81766">
        <ele>121</ele>
        <time>2015-11-19T10:03:30Z</time>
      </trkpt>
      <trkpt lat="48.02726" lon="2.81769">
        <ele>120</ele>
        <time>2015-11-19T10:03:31Z</time>
      </trkpt>
      <trkpt lat="48.02728" lon="2.81772">
        <ele>119</ele>
        <time>2015-11-19T10:03:32Z</time>
      </trkpt>
      <trkpt lat="48.02731" lon="2.81775">
        <ele>118</ele>
        <time>2015-11-19T10:03:33Z</time>
      </trkpt>
      <trkpt lat="48.02734" lon="2.81778">
        <ele>118</ele>
        <time>2015-11-19T10:03:34Z</time>
      </trkpt>
      <trkpt lat="48.02736" lon="2.81784">
        <ele>118</ele>
        <time>2015-11-19T10:03:35Z</time>
      </trkpt>
      <trkpt lat="48.02739" lon="2.8179">
        <ele>118</ele>
        <time>2015-11-19T10:03:36Z</time>
      </trkpt>
      <trkpt lat="48.02743" lon="2.81795">
        <ele>118</ele>
        <time>2015-11-19T10:03:37Z</time>
      </trkpt>
      <trkpt lat="48.02746" lon="2.81801">
        <ele>118</ele>
        <time>2015-11-19T10:03:38Z</time>
      </trkpt>
      <trkpt lat="48.02749" lon="2.81806">
        <ele>117</ele>
        <time>2015-11-19T10:03:39Z</time>
      </trkpt>
      <trkpt lat="48.02753" lon="2.81809">
        <ele>117</ele>
        <time>2015-11-19T10:03:40Z</time>
      </trkpt>
      <trkpt lat="48.02757" lon="2.81812">
        <ele>116</ele>
        <time>2015-11-19T10:03:41Z</time>
      </trkpt>
      <trkpt lat="48.02761" lon="2.81814">
        <ele>116</ele>
        <time>2015-11-19T10:03:42Z</time>
      </trkpt>
      <trkpt lat="48.02765" lon="2.81814">
        <ele>116</ele>
        <time>2015-11-19T10:03:43Z</time>
      </trkpt>
      <trkpt lat="48.02769" lon="2.81815">
        <ele>115</ele>
        <time>2015-11-19T10:03:44Z</time>
      </trkpt>
      <trkpt lat="48.02774" lon="2.81816">
        <ele>114</ele>
        <time>2015-11-19T10:03:45Z</time>
      </trkpt>
      <trkpt lat="48.02777" lon="2.81818">
        <ele>113</ele>
        <time>2015-11-19T10:03:46Z</time>
      </trkpt>
      <trkpt lat="48.02781" lon="2.8182">
        <ele>112</ele>
        <time>2015-11-19T10:03:47Z</time>
      </trkpt>
      <trkpt lat="48.02783" lon="2.81823">
        <ele>111</ele>
        <time>2015-11-19T10:03:48Z</time>
      </trkpt>
      <trkpt lat="48.02784" lon="2.81827">
        <ele>110</ele>
        <time>2015-11-19T10:03:49Z</time>
      </trkpt>
      <trkpt lat="48.02786" lon="2.81834">
        <ele>109</ele>
        <time>2015-11-19T10:03:50Z</time>
      </trkpt>
      <trkpt lat="48.02787" lon="2.81839">
        <ele>109</ele>
        <time>2015-11-19T10:03:51Z</time>
      </trkpt>
      <trkpt lat="48.02788" lon="2.81846">
        <ele>108</ele>
        <time>2015-11-19T10:03:52Z</time>
      </trkpt>
      <trkpt lat="48.0279" lon="2.8185">
        <ele>107</ele>
        <time>2015-11-19T10:03:53Z</time>
      </trkpt>
      <trkpt lat="48.02792" lon="2.81853">
        <ele>107</ele>
        <time>2015-11-19T10:03:54Z</time>
      </trkpt>
      <trkpt lat="48.02794" lon="2.81857">
        <ele>106</ele>
        <time>2015-11-19T10:03:55Z</time>
      </trkpt>
      <trkpt lat="48.02797" lon="2.8186">
        <ele>105</ele>
        <time>2015-11-19T10:03:56Z</time>
      </trkpt>
      <trkpt lat="48.028" lon="2.81862">
        <ele>105</ele>
        <time>2015-11-19T10:03:57Z</time>
      </trkpt>
      <trkpt lat="48.02802" lon="2.81863">
        <ele>105</ele>
        <time>2015-11-19T10:03:58Z</time>
      </trkpt>
      <trkpt lat="48.02805" lon="2.81864">
        <ele>105</ele>
        <time>2015-11-19T10:03:59Z</time>
      </trkpt>
      <trkpt lat="48.02807" lon="2.81862">
        <ele>105</ele>
        <time>2015-11-19T10:04:00Z</time>
      </trkpt>
      <trkpt lat="48.02809" lon="2.81857">
        <ele>105</ele>
        <time>2015-11-19T10:04:01Z</time>
      </trkpt>
      <trkpt lat="48.02811" lon="2.81852">
        <ele>105</ele>
        <time>2015-11-19T10:04:02Z</time>
      </trkpt>
      <trkpt lat="48.02814" lon="2.81848">
        <ele>106</ele>
        <time>2015-11-19T10:04:03Z</time>
      </trkpt>
      <trkpt lat="48.02818" lon="2.81844">
        <ele>107</ele>
        <time>2015-11-19T10:04:04Z</time>
      </trkpt>
      <trkpt lat="48.02821" lon="2.81841">
        <ele>108</ele>
        <time>2015-11-19T10:04:05Z</time>
      </trkpt>
      <trkpt lat="48.02824" lon="2.81837">
        <ele>109</ele>
        <time>2015-11-19T10:04:06Z</time>
      </trkpt>
      <trkpt lat="48.02829" lon="2.81831">
        <ele>111</ele>
        <time>2015-11-19T10:04:08Z</time>
      </trkpt>
      <trkpt lat="48.02831" lon="2.81827">
        <ele>112</ele>
        <time>2015-11-19T10:04:09Z</time>
      </trkpt>
      <trkpt lat="48.02833" lon="2.81824">
        <ele>113</ele>
        <time>2015-11-19T10:04:10Z</time>
      </trkpt>
      <trkpt lat="48.02836" lon="2.8182">
        <ele>114</ele>
        <time>2015-11-19T10:04:11Z</time>
      </trkpt>
      <trkpt lat="48.02838" lon="2.81816">
        <ele>115</ele>
        <time>2015-11-19T10:04:12Z</time>
      </trkpt>
      <trkpt lat="48.0284" lon="2.81812">
        <ele>116</ele>
        <time>2015-11-19T10:04:13Z</time>
      </trkpt>
      <trkpt lat="48.02842" lon="2.81806">
        <ele>117</ele>
        <time>2015-11-19T10:04:14Z</time>
      </trkpt>
      <trkpt lat="48.02845" lon="2.81802">
        <ele>118</ele>
        <time>2015-11-19T10:04:15Z</time>
      </trkpt>
      <trkpt lat="48.02847" lon="2.81798">
        <ele>118</ele>
        <time>2015-11-19T10:04:16Z</time>
      </trkpt>
      <trkpt lat="48.02849" lon="2.81794">
        <ele>118</ele>
        <time>2015-11-19T10:04:17Z</time>
      </trkpt>
      <trkpt lat="48.02851" lon="2.81789">
        <ele>118</ele>
        <time>2015-11-19T10:04:18Z</time>
      </trkpt>
      <trkpt lat="48.02854" lon="2.81785">
        <ele>118</ele>
        <time>2015-11-19T10:04:19Z</time>
      </trkpt>
      <trkpt lat="48.02856" lon="2.8178">
        <ele>118</ele>
        <time>2015-11-19T10:04:20Z</time>
      </trkpt>
      <trkpt lat="48.02859" lon="2.81774">
        <ele>118</ele>
        <time>2015-11-19T10:04:21Z</time>
      </trkpt>
      <trkpt lat="48.02862" lon="2.8177">
        <ele>118</ele>
        <time>2015-11-19T10:04:22Z</time>
      </trkpt>
      <trkpt lat="48.02866" lon="2.81765">
        <ele>118</ele>
        <time>2015-11-19T10:04:23Z</time>
      </trkpt>
      <trkpt lat="48.02868" lon="2.81761">
        <ele>118</ele>
        <time>2015-11-19T10:04:24Z</time>
      </trkpt>
      <trkpt lat="48.02871" lon="2.81757">
        <ele>118</ele>
        <time>2015-11-19T10:04:25Z</time>
      </trkpt>
      <trkpt lat="48.02873" lon="2.81753">
        <ele>118</ele>
        <time>2015-11-19T10:04:26Z</time>
      </trkpt>
      <trkpt lat="48.02875" lon="2.8175">
        <ele>118</ele>
        <time>2015-11-19T10:04:27Z</time>
      </trkpt>
      <trkpt lat="48.02877" lon="2.81745">
        <ele>118</ele>
        <time>2015-11-19T10:04:28Z</time>
      </trkpt>
      <trkpt lat="48.0288" lon="2.81741">
        <ele>118</ele>
        <time>2015-11-19T10:04:29Z</time>
      </trkpt>
      <trkpt lat="48.02883" lon="2.81737">
        <ele>118</ele>
        <time>2015-11-19T10:04:30Z</time>
      </trkpt>
      <trkpt lat="48.02886" lon="2.81733">
        <ele>118</ele>
        <time>2015-11-19T10:04:31Z</time>
      </trkpt>
      <trkpt lat="48.0289" lon="2.81729">
        <ele>118</ele>
        <time>2015-11-19T10:04:32Z</time>
      </trkpt>
      <trkpt lat="48.02893" lon="2.81725">
        <ele>118</ele>
        <time>2015-11-19T10:04:33Z</time>
      </trkpt>
      <trkpt lat="48.02896" lon="2.81722">
        <ele>118</ele>
        <time>2015-11-19T10:04:34Z</time>
      </trkpt>
      <trkpt lat="48.02899" lon="2.81722">
        <ele>118</ele>
        <time>2015-11-19T10:04:35Z</time>
      </trkpt>
      <trkpt lat="48.02901" lon="2.81725">
        <ele>118</ele>
        <time>2015-11-19T10:04:36Z</time>
      </trkpt>
      <trkpt lat="48.02903" lon="2.81733">
        <ele>118</ele>
        <time>2015-11-19T10:04:37Z</time>
      </trkpt>
      <trkpt lat="48.02906" lon="2.81736">
        <ele>118</ele>
        <time>2015-11-19T10:04:38Z</time>
      </trkpt>
      <trkpt lat="48.02909" lon="2.81738">
        <ele>118</ele>
        <time>2015-11-19T10:04:39Z</time>
      </trkpt>
      <trkpt lat="48.02913" lon="2.81739">
        <ele>117</ele>
        <time>2015-11-19T10:04:40Z</time>
      </trkpt>
      <trkpt lat="48.02917" lon="2.8174">
        <ele>116</ele>
        <time>2015-11-19T10:04:41Z</time>
      </trkpt>
      <trkpt lat="48.02921" lon="2.81743">
        <ele>115</ele>
        <time>2015-11-19T10:04:42Z</time>
      </trkpt>
      <trkpt lat="48.02925" lon="2.81745">
        <ele>114</ele>
        <time>2015-11-19T10:04:43Z</time>
      </trkpt>
      <trkpt lat="48.0293" lon="2.8175">
        <ele>113</ele>
        <time>2015-11-19T10:04:44Z</time>
      </trkpt>
      <trkpt lat="48.02934" lon="2.81755">
        <ele>112</ele>
        <time>2015-11-19T10:04:45Z</time>
      </trkpt>
      <trkpt lat="48.02937" lon="2.8176">
        <ele>111</ele>
        <time>2015-11-19T10:04:46Z</time>
      </trkpt>
      <trkpt lat="48.02939" lon="2.81768">
        <ele>110</ele>
        <time>2015-11-19T10:04:47Z</time>
      </trkpt>
      <trkpt lat="48.0294" lon="2.81774">
        <ele>110</ele>
        <time>2015-11-19T10:04:48Z</time>
      </trkpt>
      <trkpt lat="48.0294" lon="2.81781">
        <ele>109</ele>
        <time>2015-11-19T10:04:49Z</time>
      </trkpt>
      <trkpt lat="48.02941" lon="2.81786">
        <ele>109</ele>
        <time>2015-11-19T10:04:50Z</time>
      </trkpt>
      <trkpt lat="48.02942" lon="2.81793">
        <ele>109</ele>
        <time>2015-11-19T10:04:51Z</time>
      </trkpt>
      <trkpt lat="48.02943" lon="2.818">
        <ele>109</ele>
        <time>2015-11-19T10:04:52Z</time>
      </trkpt>
      <trkpt lat="48.02943" lon="2.81806">
        <ele>108</ele>
        <time>2015-11-19T10:04:53Z</time>
      </trkpt>
      <trkpt lat="48.02944" lon="2.81811">
        <ele>107</ele>
        <time>2015-11-19T10:04:54Z</time>
      </trkpt>
      <trkpt lat="48.02944" lon="2.81815">
        <ele>107</ele>
        <time>2015-11-19T10:04:55Z</time>
      </trkpt>
      <trkpt lat="48.02943" lon="2.8182">
        <ele>106</ele>
        <time>2015-11-19T10:04:56Z</time>
      </trkpt>
      <trkpt lat="48.02943" lon="2.81823">
        <ele>106</ele>
        <time>2015-11-19T10:04:57Z</time>
      </trkpt>
      <trkpt lat="48.02944" lon="2.81828">
        <ele>106</ele>
        <time>2015-11-19T10:04:58Z</time>
      </trkpt>
      <trkpt lat="48.02945" lon="2.81832">
        <ele>106</ele>
        <time>2015-11-19T10:04:59Z</time>
      </trkpt>
      <trkpt lat="48.02946" lon="2.81837">
        <ele>106</ele>
        <time>2015-11-19T10:05:00Z</time>
      </trkpt>
      <trkpt lat="48.02947" lon="2.81843">
        <ele>106</ele>
        <time>2015-11-19T10:05:01Z</time>
      </trkpt>
      <trkpt lat="48.0295" lon="2.81848">
        <ele>106</ele>
        <time>2015-11-19T10:05:02Z</time>
      </trkpt>
      <trkpt lat="48.02952" lon="2.81852">
        <ele>106</ele>
        <time>2015-11-19T10:05:03Z</time>
      </trkpt>
      <trkpt lat="48.02954" lon="2.81857">
        <ele>106</ele>
        <time>2015-11-19T10:05:04Z</time>
      </trkpt>
      <trkpt lat="48.02953" lon="2.81862">
        <ele>106</ele>
        <time>2015-11-19T10:05:05Z</time>
      </trkpt>
      <trkpt lat="48.02953" lon="2.81868">
        <ele>106</ele>
        <time>2015-11-19T10:05:06Z</time>
      </trkpt>
      <trkpt lat="48.02954" lon="2.81874">
        <ele>106</ele>
        <time>2015-11-19T10:05:07Z</time>
      </trkpt>
      <trkpt lat="48.02956" lon="2.8188">
        <ele>106</ele>
        <time>2015-11-19T10:05:08Z</time>
      </trkpt>
      <trkpt lat="48.02959" lon="2.81884">
        <ele>106</ele>
        <time>2015-11-19T10:05:09Z</time>
      </trkpt>
      <trkpt lat="48.02963" lon="2.81888">
        <ele>106</ele>
        <time>2015-11-19T10:05:10Z</time>
      </trkpt>
      <trkpt lat="48.02967" lon="2.81887">
        <ele>106</ele>
        <time>2015-11-19T10:05:11Z</time>
      </trkpt>
      <trkpt lat="48.02973" lon="2.81887">
        <ele>106</ele>
        <time>2015-11-19T10:05:12Z</time>
      </trkpt>
      <trkpt lat="48.02978" lon="2.81888">
        <ele>106</ele>
        <time>2015-11-19T10:05:13Z</time>
      </trkpt>
      <trkpt lat="48.02984" lon="2.81889">
        <ele>106</ele>
        <time>2015-11-19T10:05:14Z</time>
      </trkpt>
      <trkpt lat="48.02988" lon="2.81893">
        <ele>106</ele>
        <time>2015-11-19T10:05:15Z</time>
      </trkpt>
      <trkpt lat="48.02988" lon="2.81899">
        <ele>106</ele>
        <time>2015-11-19T10:05:16Z</time>
      </trkpt>
      <trkpt lat="48.02987" lon="2.81905">
        <ele>106</ele>
        <time>2015-11-19T10:05:17Z</time>
      </trkpt>
      <trkpt lat="48.02986" lon="2.81911">
        <ele>106</ele>
        <time>2015-11-19T10:05:18Z</time>
      </trkpt>
      <trkpt lat="48.02986" lon="2.81916">
        <ele>105</ele>
        <time>2015-11-19T10:05:19Z</time>
      </trkpt>
      <trkpt lat="48.02986" lon="2.8192">
        <ele>105</ele>
        <time>2015-11-19T10:05:20Z</time>
      </trkpt>
      <trkpt lat="48.02984" lon="2.81925">
        <ele>104</ele>
        <time>2015-11-19T10:05:21Z</time>
      </trkpt>
      <trkpt lat="48.02983" lon="2.81928">
        <ele>103</ele>
        <time>2015-11-19T10:05:22Z</time>
      </trkpt>
      <trkpt lat="48.02982" lon="2.81931">
        <ele>102</ele>
        <time>2015-11-19T10:05:23Z</time>
      </trkpt>
      <trkpt lat="48.02982" lon="2.81935">
        <ele>101</ele>
        <time>2015-11-19T10:05:24Z</time>
      </trkpt>
      <trkpt lat="48.02984" lon="2.8194">
        <ele>100</ele>
        <time>2015-11-19T10:05:25Z</time>
      </trkpt>
      <trkpt lat="48.02985" lon="2.81941">
        <ele>99</ele>
        <time>2015-11-19T10:05:26Z</time>
      </trkpt>
      <trkpt lat="48.02988" lon="2.81942">
        <ele>98</ele>
        <time>2015-11-19T10:05:27Z</time>
      </trkpt>
      <trkpt lat="48.02991" lon="2.81942">
        <ele>97</ele>
        <time>2015-11-19T10:05:28Z</time>
      </trkpt>
      <trkpt lat="48.02994" lon="2.81943">
        <ele>96</ele>
        <time>2015-11-19T10:05:29Z</time>
      </trkpt>
      <trkpt lat="48.02998" lon="2.81948">
        <ele>95</ele>
        <time>2015-11-19T10:05:30Z</time>
      </trkpt>
      <trkpt lat="48.03" lon="2.8195">
        <ele>95</ele>
        <time>2015-11-19T10:05:31Z</time>
      </trkpt>
      <trkpt lat="48.03002" lon="2.8195">
        <ele>95</ele>
        <time>2015-11-19T10:05:32Z</time>
      </trkpt>
      <trkpt lat="48.03005" lon="2.81947">
        <ele>94</ele>
        <time>2015-11-19T10:05:33Z</time>
      </trkpt>
      <trkpt lat="48.03009" lon="2.81945">
        <ele>93</ele>
        <time>2015-11-19T10:05:34Z</time>
      </trkpt>
      <trkpt lat="48.03013" lon="2.81945">
        <ele>93</ele>
        <time>2015-11-19T10:05:35Z</time>
      </trkpt>
      <trkpt lat="48.03016" lon="2.81944">
        <ele>93</ele>
        <time>2015-11-19T10:05:36Z</time>
      </trkpt>
      <trkpt lat="48.03019" lon="2.81946">
        <ele>93</ele>
        <time>2015-11-19T10:05:37Z</time>
      </trkpt>
      <trkpt lat="48.03022" lon="2.81947">
        <ele>93</ele>
        <time>2015-11-19T10:05:38Z</time>
      </trkpt>
      <trkpt lat="48.03025" lon="2.81947">
        <ele>93</ele>
        <time>2015-11-19T10:05:39Z</time>
      </trkpt>
      <trkpt lat="48.03029" lon="2.81949">
        <ele>93</ele>
        <time>2015-11-19T10:05:40Z</time>
      </trkpt>
      <trkpt lat="48.03033" lon="2.81953">
        <ele>93</ele>
        <time>2015-11-19T10:05:41Z</time>
      </trkpt>
      <trkpt lat="48.03035" lon="2.81957">
        <ele>93</ele>
        <time>2015-11-19T10:05:42Z</time>
      </trkpt>
      <trkpt lat="48.03036" lon="2.8196">
        <ele>93</ele>
        <time>2015-11-19T10:05:43Z</time>
      </trkpt>
      <trkpt lat="48.03038" lon="2.81964">
        <ele>93</ele>
        <time>2015-11-19T10:05:44Z</time>
      </trkpt>
      <trkpt lat="48.0304" lon="2.81967">
        <ele>93</ele>
        <time>2015-11-19T10:05:45Z</time>
      </trkpt>
      <trkpt lat="48.0304" lon="2.81971">
        <ele>93</ele>
        <time>2015-11-19T10:05:46Z</time>
      </trkpt>
      <trkpt lat="48.0304" lon="2.81976">
        <ele>93</ele>
        <time>2015-11-19T10:05:47Z</time>
      </trkpt>
      <trkpt lat="48.03042" lon="2.81982">
        <ele>93</ele>
        <time>2015-11-19T10:05:48Z</time>
      </trkpt>
      <trkpt lat="48.03044" lon="2.81989">
        <ele>93</ele>
        <time>2015-11-19T10:05:49Z</time>
      </trkpt>
      <trkpt lat="48.03044" lon="2.81994">
        <ele>93</ele>
        <time>2015-11-19T10:05:50Z</time>
      </trkpt>
      <trkpt lat="48.03046" lon="2.81999">
        <ele>93</ele>
        <time>2015-11-19T10:05:51Z</time>
      </trkpt>
      <trkpt lat="48.03049" lon="2.82004">
        <ele>93</ele>
        <time>2015-11-19T10:05:52Z</time>
      </trkpt>
      <trkpt lat="48.03049" lon="2.82009">
        <ele>93</ele>
        <time>2015-11-19T10:05:53Z</time>
      </trkpt>
      <trkpt lat="48.03049" lon="2.82014">
        <ele>93</ele>
        <time>2015-11-19T10:05:54Z</time>
      </trkpt>
      <trkpt lat="48.0305" lon="2.82019">
        <ele>93</ele>
        <time>2015-11-19T10:05:55Z</time>
      </trkpt>
      <trkpt lat="48.0305" lon="2.82025">
        <ele>93</ele>
        <time>2015-11-19T10:05:56Z</time>
      </trkpt>
      <trkpt lat="48.0305" lon="2.8203">
        <ele>93</ele>
        <time>2015-11-19T10:05:57Z</time>
      </trkpt>
      <trkpt lat="48.0305" lon="2.82034">
        <ele>93</ele>
        <time>2015-11-19T10:05:58Z</time>
      </trkpt>
      <trkpt lat="48.0305" lon="2.82039">
        <ele>93</ele>
        <time>2015-11-19T10:05:59Z</time>
      </trkpt>
      <trkpt lat="48.03049" lon="2.82044">
        <ele>93</ele>
        <time>2015-11-19T10:06:00Z</time>
      </trkpt>
      <trkpt lat="48.03049" lon="2.8205">
        <ele>93</ele>
        <time>2015-11-19T10:06:01Z</time>
      </trkpt>
      <trkpt lat="48.03048" lon="2.82054">
        <ele>93</ele>
        <time>2015-11-19T10:06:02Z</time>
      </trkpt>
      <trkpt lat="48.03046" lon="2.82057">
        <ele>93</ele>
        <time>2015-11-19T10:06:03Z</time>
      </trkpt>
      <trkpt lat="48.03044" lon="2.82061">
        <ele>93</ele>
        <time>2015-11-19T10:06:04Z</time>
      </trkpt>
      <trkpt lat="48.03043" lon="2.82065">
        <ele>93</ele>
        <time>2015-11-19T10:06:05Z</time>
      </trkpt>
      <trkpt lat="48.03041" lon="2.82069">
        <ele>93</ele>
        <time>2015-11-19T10:06:06Z</time>
      </trkpt>
      <trkpt lat="48.0304" lon="2.82074">
        <ele>93</ele>
        <time>2015-11-19T10:06:07Z</time>
      </trkpt>
      <trkpt lat="48.03037" lon="2.82077">
        <ele>93</ele>
        <time>2015-11-19T10:06:08Z</time>
      </trkpt>
      <trkpt lat="48.03034" lon="2.8208">
        <ele>93</ele>
        <time>2015-11-19T10:06:09Z</time>
      </trkpt>
      <trkpt lat="48.03027" lon="2.82083">
        <ele>93</ele>
        <time>2015-11-19T10:06:11Z</time>
      </trkpt>
      <trkpt lat="48.03024" lon="2.82085">
        <ele>93</ele>
        <time>2015-11-19T10:06:12Z</time>
      </trkpt>
      <trkpt lat="48.0302" lon="2.82085">
        <ele>93</ele>
        <time>2015-11-19T10:06:13Z</time>
      </trkpt>
      <trkpt lat="48.03017" lon="2.82086">
        <ele>93</ele>
        <time>2015-11-19T10:06:14Z</time>
      </trkpt>
      <trkpt lat="48.03015" lon="2.82088">
        <ele>93</ele>
        <time>2015-11-19T10:06:15Z</time>
      </trkpt>
      <trkpt lat="48.03014" lon="2.82096">
        <ele>93</ele>
        <time>2015-11-19T10:06:17Z</time>
      </trkpt>
      <trkpt lat="48.03012" lon="2.82102">
        <ele>93</ele>
        <time>2015-11-19T10:06:18Z</time>
      </trkpt>
      <trkpt lat="48.03011" lon="2.82107">
        <ele>93</ele>
        <time>2015-11-19T10:06:19Z</time>
      </trkpt>
      <trkpt lat="48.03011" lon="2.82113">
        <ele>93</ele>
        <time>2015-11-19T10:06:20Z</time>
      </trkpt>
      <trkpt lat="48.0301" lon="2.82117">
        <ele>93</ele>
        <time>2015-11-19T10:06:21Z</time>
      </trkpt>
      <trkpt lat="48.03009" lon="2.82121">
        <ele>93</ele>
        <time>2015-11-19T10:06:22Z</time>
      </trkpt>
      <trkpt lat="48.03006" lon="2.82132">
        <ele>94</ele>
        <time>2015-11-19T10:06:24Z</time>
      </trkpt>
      <trkpt lat="48.03004" lon="2.82137">
        <ele>95</ele>
        <time>2015-11-19T10:06:25Z</time>
      </trkpt>
      <trkpt lat="48.03001" lon="2.82139">
        <ele>96</ele>
        <time>2015-11-19T10:06:26Z</time>
      </trkpt>
      <trkpt lat="48.02996" lon="2.8214">
        <ele>97</ele>
        <time>2015-11-19T10:06:28Z</time>
      </trkpt>
      <trkpt lat="48.02992" lon="2.82139">
        <ele>97</ele>
        <time>2015-11-19T10:06:29Z</time>
      </trkpt>
      <trkpt lat="48.02989" lon="2.82139">
        <ele>97</ele>
        <time>2015-11-19T10:06:30Z</time>
      </trkpt>
      <trkpt lat="48.02987" lon="2.82139">
        <ele>97</ele>
        <time>2015-11-19T10:06:31Z</time>
      </trkpt>
      <trkpt lat="48.02984" lon="2.8214">
        <ele>97</ele>
        <time>2015-11-19T10:06:32Z</time>
      </trkpt>
      <trkpt lat="48.02983" lon="2.82141">
        <ele>97</ele>
        <time>2015-11-19T10:06:33Z</time>
      </trkpt>
      <trkpt lat="48.02982" lon="2.82144">
        <ele>97</ele>
        <time>2015-11-19T10:06:34Z</time>
      </trkpt>
      <trkpt lat="48.0298" lon="2.82146">
        <ele>97</ele>
        <time>2015-11-19T10:06:35Z</time>
      </trkpt>
      <trkpt lat="48.02978" lon="2.82148">
        <ele>97</ele>
        <time>2015-11-19T10:06:36Z</time>
      </trkpt>
      <trkpt lat="48.02976" lon="2.82148">
        <ele>97</ele>
        <time>2015-11-19T10:06:37Z</time>
      </trkpt>
      <trkpt lat="48.02974" lon="2.82149">
        <ele>97</ele>
        <time>2015-11-19T10:06:38Z</time>
      </trkpt>
      <trkpt lat="48.02971" lon="2.8215">
        <ele>97</ele>
        <time>2015-11-19T10:06:39Z</time>
      </trkpt>
      <trkpt lat="48.02969" lon="2.82151">
        <ele>98</ele>
        <time>2015-11-19T10:06:40Z</time>
      </trkpt>
      <trkpt lat="48.02968" lon="2.82159">
        <ele>100</ele>
        <time>2015-11-19T10:06:42Z</time>
      </trkpt>
      <trkpt lat="48.02967" lon="2.82165">
        <ele>101</ele>
        <time>2015-11-19T10:06:43Z</time>
      </trkpt>
      <trkpt lat="48.02966" lon="2.8217">
        <ele>102</ele>
        <time>2015-11-19T10:06:44Z</time>
      </trkpt>
      <trkpt lat="48.02966" lon="2.82176">
        <ele>103</ele>
        <time>2015-11-19T10:06:45Z</time>
      </trkpt>
      <trkpt lat="48.02967" lon="2.8218">
        <ele>104</ele>
        <time>2015-11-19T10:06:46Z</time>
      </trkpt>
      <trkpt lat="48.02968" lon="2.82183">
        <ele>105</ele>
        <time>2015-11-19T10:06:47Z</time>
      </trkpt>
      <trkpt lat="48.02969" lon="2.82186">
        <ele>106</ele>
        <time>2015-11-19T10:06:48Z</time>
      </trkpt>
      <trkpt lat="48.0297" lon="2.82191">
        <ele>107</ele>
        <time>2015-11-19T10:06:49Z</time>
      </trkpt>
      <trkpt lat="48.02971" lon="2.82195">
        <ele>108</ele>
        <time>2015-11-19T10:06:50Z</time>
      </trkpt>
      <trkpt lat="48.02972" lon="2.822">
        <ele>109</ele>
        <time>2015-11-19T10:06:51Z</time>
      </trkpt>
      <trkpt lat="48.02973" lon="2.82204">
        <ele>109</ele>
        <time>2015-11-19T10:06:52Z</time>
      </trkpt>
      <trkpt lat="48.02972" lon="2.82209">
        <ele>109</ele>
        <time>2015-11-19T10:06:53Z</time>
      </trkpt>
      <trkpt lat="48.02973" lon="2.82213">
        <ele>109</ele>
        <time>2015-11-19T10:06:54Z</time>
      </trkpt>
      <trkpt lat="48.02974" lon="2.82219">
        <ele>109</ele>
        <time>2015-11-19T10:06:55Z</time>
      </trkpt>
      <trkpt lat="48.02975" lon="2.82224">
        <ele>109</ele>
        <time>2015-11-19T10:06:56Z</time>
      </trkpt>
      <trkpt lat="48.02977" lon="2.82228">
        <ele>109</ele>
        <time>2015-11-19T10:06:57Z</time>
      </trkpt>
      <trkpt lat="48.02979" lon="2.82231">
        <ele>109</ele>
        <time>2015-11-19T10:06:58Z</time>
      </trkpt>
      <trkpt lat="48.02985" lon="2.82238">
        <ele>109</ele>
        <time>2015-11-19T10:07:00Z</time>
      </trkpt>
      <trkpt lat="48.02988" lon="2.82241">
        <ele>109</ele>
        <time>2015-11-19T10:07:01Z</time>
      </trkpt>
      <trkpt lat="48.0299" lon="2.82243">
        <ele>109</ele>
        <time>2015-11-19T10:07:02Z</time>
      </trkpt>
      <trkpt lat="48.02993" lon="2.82249">
        <ele>109</ele>
        <time>2015-11-19T10:07:04Z</time>
      </trkpt>
      <trkpt lat="48.02994" lon="2.82254">
        <ele>109</ele>
        <time>2015-11-19T10:07:05Z</time>
      </trkpt>
      <trkpt lat="48.02993" lon="2.82258">
        <ele>109</ele>
        <time>2015-11-19T10:07:06Z</time>
      </trkpt>
      <trkpt lat="48.02991" lon="2.82263">
        <ele>109</ele>
        <time>2015-11-19T10:07:08Z</time>
      </trkpt>
      <trkpt lat="48.02991" lon="2.82267">
        <ele>109</ele>
        <time>2015-11-19T10:07:09Z</time>
      </trkpt>
      <trkpt lat="48.0299" lon="2.82272">
        <ele>109</ele>
        <time>2015-11-19T10:07:10Z</time>
      </trkpt>
      <trkpt lat="48.02988" lon="2.82276">
        <ele>109</ele>
        <time>2015-11-19T10:07:11Z</time>
      </trkpt>
      <trkpt lat="48.02988" lon="2.82279">
        <ele>109</ele>
        <time>2015-11-19T10:07:12Z</time>
      </trkpt>
      <trkpt lat="48.02986" lon="2.82282">
        <ele>109</ele>
        <time>2015-11-19T10:07:13Z</time>
      </trkpt>
      <trkpt lat="48.02984" lon="2.82288">
        <ele>108</ele>
        <time>2015-11-19T10:07:15Z</time>
      </trkpt>
      <trkpt lat="48.02983" lon="2.82291">
        <ele>107</ele>
        <time>2015-11-19T10:07:16Z</time>
      </trkpt>
      <trkpt lat="48.02982" lon="2.82294">
        <ele>107</ele>
        <time>2015-11-19T10:07:17Z</time>
      </trkpt>
      <trkpt lat="48.02981" lon="2.82297">
        <ele>106</ele>
        <time>2015-11-19T10:07:18Z</time>
      </trkpt>
      <trkpt lat="48.0298" lon="2.82298">
        <ele>105</ele>
        <time>2015-11-19T10:07:19Z</time>
      </trkpt>
      <trkpt lat="48.0298" lon="2.823">
        <ele>105</ele>
        <time>2015-11-19T10:07:20Z</time>
      </trkpt>
      <trkpt lat="48.0298" lon="2.82302">
        <ele>105</ele>
        <time>2015-11-19T10:07:21Z</time>
      </trkpt>
      <trkpt lat="48.0298" lon="2.82304">
        <ele>105</ele>
        <time>2015-11-19T10:07:22Z</time>
      </trkpt>
      <trkpt lat="48.02978" lon="2.82306">
        <ele>105</ele>
        <time>2015-11-19T10:07:23Z</time>
      </trkpt>
      <trkpt lat="48.02976" lon="2.82308">
        <ele>105</ele>
        <time>2015-11-19T10:07:24Z</time>
      </trkpt>
      <trkpt lat="48.02975" lon="2.8231">
        <ele>105</ele>
        <time>2015-11-19T10:07:25Z</time>
      </trkpt>
      <trkpt lat="48.02973" lon="2.82312">
        <ele>105</ele>
        <time>2015-11-19T10:07:27Z</time>
      </trkpt>
      <trkpt lat="48.02972" lon="2.82315">
        <ele>105</ele>
        <time>2015-11-19T10:07:28Z</time>
      </trkpt>
      <trkpt lat="48.0297" lon="2.82318">
        <ele>105</ele>
        <time>2015-11-19T10:07:29Z</time>
      </trkpt>
      <trkpt lat="48.02968" lon="2.82321">
        <ele>106</ele>
        <time>2015-11-19T10:07:30Z</time>
      </trkpt>
      <trkpt lat="48.02965" lon="2.82324">
        <ele>107</ele>
        <time>2015-11-19T10:07:32Z</time>
      </trkpt>
      <trkpt lat="48.02962" lon="2.82328">
        <ele>108</ele>
        <time>2015-11-19T10:07:34Z</time>
      </trkpt>
      <trkpt lat="48.02959" lon="2.8233">
        <ele>109</ele>
        <time>2015-11-19T10:07:35Z</time>
      </trkpt>
      <trkpt lat="48.02956" lon="2.82332">
        <ele>109</ele>
        <time>2015-11-19T10:07:36Z</time>
      </trkpt>
      <trkpt lat="48.02953" lon="2.82334">
        <ele>109</ele>
        <time>2015-11-19T10:07:37Z</time>
      </trkpt>
      <trkpt lat="48.02951" lon="2.82336">
        <ele>109</ele>
        <time>2015-11-19T10:07:38Z</time>
      </trkpt>
      <trkpt lat="48.02948" lon="2.82341">
        <ele>109</ele>
        <time>2015-11-19T10:07:40Z</time>
      </trkpt>
      <trkpt lat="48.02947" lon="2.82343">
        <ele>109</ele>
        <time>2015-11-19T10:07:41Z</time>
      </trkpt>
      <trkpt lat="48.02946" lon="2.82345">
        <ele>109</ele>
        <time>2015-11-19T10:07:42Z</time>
      </trkpt>
      <trkpt lat="48.02943" lon="2.82349">
        <ele>109</ele>
        <time>2015-11-19T10:07:44Z</time>
      </trkpt>
      <trkpt lat="48.02942" lon="2.82353">
        <ele>110</ele>
        <time>2015-11-19T10:07:46Z</time>
      </trkpt>
      <trkpt lat="48.0294" lon="2.82358">
        <ele>111</ele>
        <time>2015-11-19T10:07:48Z</time>
      </trkpt>
      <trkpt lat="48.02937" lon="2.82363">
        <ele>113</ele>
        <time>2015-11-19T10:07:50Z</time>
      </trkpt>
      <trkpt lat="48.02936" lon="2.82366">
        <ele>115</ele>
        <time>2015-11-19T10:07:52Z</time>
      </trkpt>
      <trkpt lat="48.02935" lon="2.8237">
        <ele>117</ele>
        <time>2015-11-19T10:07:54Z</time>
      </trkpt>
      <trkpt lat="48.02934" lon="2.82376">
        <ele>119</ele>
        <time>2015-11-19T10:07:56Z</time>
      </trkpt>
      <trkpt lat="48.02932" lon="2.8238">
        <ele>122</ele>
        <time>2015-11-19T10:07:59Z</time>
      </trkpt>
      <trkpt lat="48.02928" lon="2.82383">
        <ele>123</ele>
        <time>2015-11-19T10:08:01Z</time>
      </trkpt>
      <trkpt lat="48.02927" lon="2.82386">
        <ele>123</ele>
        <time>2015-11-19T10:08:02Z</time>
      </trkpt>
      <trkpt lat="48.02925" lon="2.82389">
        <ele>123</ele>
        <time>2015-11-19T10:08:04Z</time>
      </trkpt>
      <trkpt lat="48.02923" lon="2.82391">
        <ele>123</ele>
        <time>2015-11-19T10:08:06Z</time>
      </trkpt>
      <trkpt lat="48.02921" lon="2.82394">
        <ele>123</ele>
        <time>2015-11-19T10:08:08Z</time>
      </trkpt>
      <trkpt lat="48.02919" lon="2.82396">
        <ele>123</ele>
        <time>2015-11-19T10:08:09Z</time>
      </trkpt>
      <trkpt lat="48.02918" lon="2.82397">
        <ele>123</ele>
        <time>2015-11-19T10:08:10Z</time>
      </trkpt>
      <trkpt lat="48.02917" lon="2.82399">
        <ele>123</ele>
        <time>2015-11-19T10:08:11Z</time>
      </trkpt>
      <trkpt lat="48.02917" lon="2.82401">
        <ele>123</ele>
        <time>2015-11-19T10:08:12Z</time>
      </trkpt>
      <trkpt lat="48.02916" lon="2.82402">
        <ele>123</ele>
        <time>2015-11-19T10:08:13Z</time>
      </trkpt>
      <trkpt lat="48.02914" lon="2.82404">
        <ele>123</ele>
        <time>2015-11-19T10:08:14Z</time>
      </trkpt>
      <trkpt lat="48.02913" lon="2.82405">
        <ele>123</ele>
        <time>2015-11-19T10:08:15Z</time>
      </trkpt>
      <trkpt lat="48.02912" lon="2.82407">
        <ele>123</ele>
        <time>2015-11-19T10:08:16Z</time>
      </trkpt>
      <trkpt lat="48.02911" lon="2.8241">
        <ele>123</ele>
        <time>2015-11-19T10:08:17Z</time>
      </trkpt>
      <trkpt lat="48.02908" lon="2.82412">
        <ele>123</ele>
        <time>2015-11-19T10:08:18Z</time>
      </trkpt>
      <trkpt lat="48.02905" lon="2.82413">
        <ele>123</ele>
        <time>2015-11-19T10:08:19Z</time>
      </trkpt>
      <trkpt lat="48.02901" lon="2.82416">
        <ele>123</ele>
        <time>2015-11-19T10:08:21Z</time>
      </trkpt>
      <trkpt lat="48.02901" lon="2.82418">
        <ele>122</ele>
        <time>2015-11-19T10:08:22Z</time>
      </trkpt>
      <trkpt lat="48.029" lon="2.8242">
        <ele>121</ele>
        <time>2015-11-19T10:08:23Z</time>
      </trkpt>
      <trkpt lat="48.02901" lon="2.82423">
        <ele>118</ele>
        <time>2015-11-19T10:08:26Z</time>
      </trkpt>
      <trkpt lat="48.02902" lon="2.82425">
        <ele>117</ele>
        <time>2015-11-19T10:08:28Z</time>
      </trkpt>
      <trkpt lat="48.02902" lon="2.82427">
        <ele>117</ele>
        <time>2015-11-19T10:08:30Z</time>
      </trkpt>
      <trkpt lat="48.02904" lon="2.82433">
        <ele>117</ele>
        <time>2015-11-19T10:08:32Z</time>
      </trkpt>
      <trkpt lat="48.02906" lon="2.82437">
        <ele>117</ele>
        <time>2015-11-19T10:08:34Z</time>
      </trkpt>
      <trkpt lat="48.02908" lon="2.82439">
        <ele>117</ele>
        <time>2015-11-19T10:08:36Z</time>
      </trkpt>
      <trkpt lat="48.02908" lon="2.82441">
        <ele>117</ele>
        <time>2015-11-19T10:08:37Z</time>
      </trkpt>
      <trkpt lat="48.0291" lon="2.82444">
        <ele>117</ele>
        <time>2015-11-19T10:08:39Z</time>
      </trkpt>
      <trkpt lat="48.02911" lon="2.82447">
        <ele>117</ele>
        <time>2015-11-19T10:08:40Z</time>
      </trkpt>
      <trkpt lat="48.02912" lon="2.82449">
        <ele>117</ele>
        <time>2015-11-19T10:08:41Z</time>
      </trkpt>
      <trkpt lat="48.02912" lon="2.82451">
        <ele>117</ele>
        <time>2015-11-19T10:08:42Z</time>
      </trkpt>
      <trkpt lat="48.02914" lon="2.82453">
        <ele>117</ele>
        <time>2015-11-19T10:08:44Z</time>
      </trkpt>
      <trkpt lat="48.02914" lon="2.82456">
        <ele>117</ele>
        <time>2015-11-19T10:08:46Z</time>
      </trkpt>
      <trkpt lat="48.02915" lon="2.82458">
        <ele>117</ele>
        <time>2015-11-19T10:08:48Z</time>
      </trkpt>
      <trkpt lat="48.02916" lon="2.82462">
        <ele>117</ele>
        <time>2015-11-19T10:08:50Z</time>
      </trkpt>
      <trkpt lat="48.02918" lon="2.82464">
        <ele>117</ele>
        <time>2015-11-19T10:08:51Z</time>
      </trkpt>
      <trkpt lat="48.02919" lon="2.82466">
        <ele>117</ele>
        <time>2015-11-19T10:08:52Z</time>
      </trkpt>
      <trkpt lat="48.02921" lon="2.82468">
        <ele>117</ele>
        <time>2015-11-19T10:08:53Z</time>
      </trkpt>
      <trkpt lat="48.02926" lon="2.82473">
        <ele>120</ele>
        <time>2015-11-19T10:08:56Z</time>
      </trkpt>
      <trkpt lat="48.02927" lon="2.82477">
        <ele>120</ele>
        <time>2015-11-19T10:08:57Z</time>
      </trkpt>
      <trkpt lat="48.02927" lon="2.82481">
        <ele>120</ele>
        <time>2015-11-19T10:08:58Z</time>
      </trkpt>
      <trkpt lat="48.02928" lon="2.82488">
        <ele>120</ele>
        <time>2015-11-19T10:09:00Z</time>
      </trkpt>
      <trkpt lat="48.02929" lon="2.82491">
        <ele>120</ele>
        <time>2015-11-19T10:09:01Z</time>
      </trkpt>
      <trkpt lat="48.0293" lon="2.82493">
        <ele>120</ele>
        <time>2015-11-19T10:09:02Z</time>
      </trkpt>
      <trkpt lat="48.02933" lon="2.82495">
        <ele>120</ele>
        <time>2015-11-19T10:09:04Z</time>
      </trkpt>
      <trkpt lat="48.02936" lon="2.82494">
        <ele>120</ele>
        <time>2015-11-19T10:09:06Z</time>
      </trkpt>
      <trkpt lat="48.02938" lon="2.82493">
        <ele>120</ele>
        <time>2015-11-19T10:09:07Z</time>
      </trkpt>
      <trkpt lat="48.0294" lon="2.82492">
        <ele>120</ele>
        <time>2015-11-19T10:09:08Z</time>
      </trkpt>
      <trkpt lat="48.02943" lon="2.82491">
        <ele>120</ele>
        <time>2015-11-19T10:09:09Z</time>
      </trkpt>
      <trkpt lat="48.02945" lon="2.8249">
        <ele>120</ele>
        <time>2015-11-19T10:09:10Z</time>
      </trkpt>
      <trkpt lat="48.02949" lon="2.8249">
        <ele>120</ele>
        <time>2015-11-19T10:09:12Z</time>
      </trkpt>
      <trkpt lat="48.02951" lon="2.8249">
        <ele>120</ele>
        <time>2015-11-19T10:09:13Z</time>
      </trkpt>
      <trkpt lat="48.02952" lon="2.82491">
        <ele>120</ele>
        <time>2015-11-19T10:09:14Z</time>
      </trkpt>
      <trkpt lat="48.02953" lon="2.82491">
        <ele>120</ele>
        <time>2015-11-19T10:09:15Z</time>
      </trkpt>
      <trkpt lat="48.02955" lon="2.82492">
        <ele>120</ele>
        <time>2015-11-19T10:09:17Z</time>
      </trkpt>
      <trkpt lat="48.02957" lon="2.82491">
        <ele>120</ele>
        <time>2015-11-19T10:09:19Z</time>
      </trkpt>
      <trkpt lat="48.02958" lon="2.8249">
        <ele>120</ele>
        <time>2015-11-19T10:09:21Z</time>
      </trkpt>
      <trkpt lat="48.0296" lon="2.82488">
        <ele>120</ele>
        <time>2015-11-19T10:09:23Z</time>
      </trkpt>
      <trkpt lat="48.02961" lon="2.82486">
        <ele>120</ele>
        <time>2015-11-19T10:09:24Z</time>
      </trkpt>
      <trkpt lat="48.02962" lon="2.82484">
        <ele>120</ele>
        <time>2015-11-19T10:09:25Z</time>
      </trkpt>
      <trkpt lat="48.02963" lon="2.82481">
        <ele>120</ele>
        <time>2015-11-19T10:09:26Z</time>
      </trkpt>
      <trkpt lat="48.02967" lon="2.82478">
        <ele>120</ele>
        <time>2015-11-19T10:09:28Z</time>
      </trkpt>
      <trkpt lat="48.0297" lon="2.82477">
        <ele>120</ele>
        <time>2015-11-19T10:09:29Z</time>
      </trkpt>
      <trkpt lat="48.02972" lon="2.82476">
        <ele>120</ele>
        <time>2015-11-19T10:09:30Z</time>
      </trkpt>
      <trkpt lat="48.02976" lon="2.82475">
        <ele>120</ele>
        <time>2015-11-19T10:09:31Z</time>
      </trkpt>
      <trkpt lat="48.02979" lon="2.82475">
        <ele>120</ele>
        <time>2015-11-19T10:09:32Z</time>
      </trkpt>
      <trkpt lat="48.02981" lon="2.82473">
        <ele>120</ele>
        <time>2015-11-19T10:09:33Z</time>
      </trkpt>
      <trkpt lat="48.02984" lon="2.82468">
        <ele>120</ele>
        <time>2015-11-19T10:09:35Z</time>
      </trkpt>
      <trkpt lat="48.02983" lon="2.82465">
        <ele>120</ele>
        <time>2015-11-19T10:09:36Z</time>
      </trkpt>
      <trkpt lat="48.02982" lon="2.82462">
        <ele>120</ele>
        <time>2015-11-19T10:09:37Z</time>
      </trkpt>
      <trkpt lat="48.02981" lon="2.82459">
        <ele>120</ele>
        <time>2015-11-19T10:09:38Z</time>
      </trkpt>
      <trkpt lat="48.02982" lon="2.82455">
        <ele>120</ele>
        <time>2015-11-19T10:09:39Z</time>
      </trkpt>
      <trkpt lat="48.02985" lon="2.82448">
        <ele>120</ele>
        <time>2015-11-19T10:09:41Z</time>
      </trkpt>
      <trkpt lat="48.02986" lon="2.82444">
        <ele>120</ele>
        <time>2015-11-19T10:09:42Z</time>
      </trkpt>
      <trkpt lat="48.02991" lon="2.82439">
        <ele>120</ele>
        <time>2015-11-19T10:09:44Z</time>
      </trkpt>
      <trkpt lat="48.02993" lon="2.82437">
        <ele>120</ele>
        <time>2015-11-19T10:09:45Z</time>
      </trkpt>
      <trkpt lat="48.02996" lon="2.82435">
        <ele>120</ele>
        <time>2015-11-19T10:09:46Z</time>
      </trkpt>
      <trkpt lat="48.03" lon="2.82434">
        <ele>120</ele>
        <time>2015-11-19T10:09:47Z</time>
      </trkpt>
      <trkpt lat="48.03004" lon="2.82428">
        <ele>120</ele>
        <time>2015-11-19T10:09:49Z</time>
      </trkpt>
      <trkpt lat="48.03005" lon="2.82424">
        <ele>120</ele>
        <time>2015-11-19T10:09:50Z</time>
      </trkpt>
      <trkpt lat="48.03005" lon="2.82419">
        <ele>120</ele>
        <time>2015-11-19T10:09:51Z</time>
      </trkpt>
      <trkpt lat="48.03005" lon="2.82414">
        <ele>120</ele>
        <time>2015-11-19T10:09:52Z</time>
      </trkpt>
      <trkpt lat="48.03003" lon="2.82404">
        <ele>120</ele>
        <time>2015-11-19T10:09:54Z</time>
      </trkpt>
      <trkpt lat="48.03001" lon="2.824">
        <ele>120</ele>
        <time>2015-11-19T10:09:55Z</time>
      </trkpt>
      <trkpt lat="48.02999" lon="2.82396">
        <ele>120</ele>
        <time>2015-11-19T10:09:56Z</time>
      </trkpt>
      <trkpt lat="48.02996" lon="2.82394">
        <ele>120</ele>
        <time>2015-11-19T10:09:57Z</time>
      </trkpt>
      <trkpt lat="48.02991" lon="2.82389">
        <ele>120</ele>
        <time>2015-11-19T10:09:59Z</time>
      </trkpt>
      <trkpt lat="48.02988" lon="2.82385">
        <ele>120</ele>
        <time>2015-11-19T10:10:00Z</time>
      </trkpt>
      <trkpt lat="48.02986" lon="2.82382">
        <ele>120</ele>
        <time>2015-11-19T10:10:01Z</time>
      </trkpt>
      <trkpt lat="48.02984" lon="2.82378">
        <ele>120</ele>
        <time>2015-11-19T10:10:02Z</time>
      </trkpt>
      <trkpt lat="48.02982" lon="2.82368">
        <ele>120</ele>
        <time>2015-11-19T10:10:04Z</time>
      </trkpt>
      <trkpt lat="48.02981" lon="2.82362">
        <ele>120</ele>
        <time>2015-11-19T10:10:05Z</time>
      </trkpt>
      <trkpt lat="48.0298" lon="2.82355">
        <ele>120</ele>
        <time>2015-11-19T10:10:06Z</time>
      </trkpt>
      <trkpt lat="48.02981" lon="2.82347">
        <ele>120</ele>
        <time>2015-11-19T10:10:07Z</time>
      </trkpt>
      <trkpt lat="48.02981" lon="2.82333">
        <ele>120</ele>
        <time>2015-11-19T10:10:09Z</time>
      </trkpt>
      <trkpt lat="48.02982" lon="2.82327">
        <ele>120</ele>
        <time>2015-11-19T10:10:10Z</time>
      </trkpt>
      <trkpt lat="48.02982" lon="2.82321">
        <ele>119</ele>
        <time>2015-11-19T10:10:11Z</time>
      </trkpt>
      <trkpt lat="48.02982" lon="2.82316">
        <ele>118</ele>
        <time>2015-11-19T10:10:12Z</time>
      </trkpt>
      <trkpt lat="48.02987" lon="2.82308">
        <ele>117</ele>
        <time>2015-11-19T10:10:14Z</time>
      </trkpt>
      <trkpt lat="48.02991" lon="2.82305">
        <ele>116</ele>
        <time>2015-11-19T10:10:15Z</time>
      </trkpt>
      <trkpt lat="48.02994" lon="2.82303">
        <ele>115</ele>
        <time>2015-11-19T10:10:16Z</time>
      </trkpt>
      <trkpt lat="48.02996" lon="2.82302">
        <ele>114</ele>
        <time>2015-11-19T10:10:17Z</time>
      </trkpt>
      <trkpt lat="48.03003" lon="2.82301">
        <ele>112</ele>
        <time>2015-11-19T10:10:19Z</time>
      </trkpt>
      <trkpt lat="48.03007" lon="2.82302">
        <ele>112</ele>
        <time>2015-11-19T10:10:20Z</time>
      </trkpt>
      <trkpt lat="48.03011" lon="2.82303">
        <ele>112</ele>
        <time>2015-11-19T10:10:21Z</time>
      </trkpt>
      <trkpt lat="48.03015" lon="2.82305">
        <ele>112</ele>
        <time>2015-11-19T10:10:22Z</time>
      </trkpt>
      <trkpt lat="48.03023" lon="2.8231">
        <ele>111</ele>
        <time>2015-11-19T10:10:24Z</time>
      </trkpt>
      <trkpt lat="48.03024" lon="2.8231">
        <ele>110</ele>
        <time>2015-11-19T10:10:25Z</time>
      </trkpt>
      <trkpt lat="48.03021" lon="2.82305">
        <ele>110</ele>
        <time>2015-11-19T10:10:26Z</time>
      </trkpt>
      <trkpt lat="48.0302" lon="2.82303">
        <ele>109</ele>
        <time>2015-11-19T10:10:27Z</time>
      </trkpt>
      <trkpt lat="48.03017" lon="2.82298">
        <ele>107</ele>
        <time>2015-11-19T10:10:29Z</time>
      </trkpt>
      <trkpt lat="48.03015" lon="2.82296">
        <ele>106</ele>
        <time>2015-11-19T10:10:30Z</time>
      </trkpt>
      <trkpt lat="48.03012" lon="2.82293">
        <ele>105</ele>
        <time>2015-11-19T10:10:31Z</time>
      </trkpt>
      <trkpt lat="48.03011" lon="2.82289">
        <ele>104</ele>
        <time>2015-11-19T10:10:32Z</time>
      </trkpt>
      <trkpt lat="48.03014" lon="2.82281">
        <ele>102</ele>
        <time>2015-11-19T10:10:34Z</time>
      </trkpt>
      <trkpt lat="48.03017" lon="2.82277">
        <ele>101</ele>
        <time>2015-11-19T10:10:35Z</time>
      </trkpt>
      <trkpt lat="48.03019" lon="2.82276">
        <ele>101</ele>
        <time>2015-11-19T10:10:36Z</time>
      </trkpt>
      <trkpt lat="48.03022" lon="2.82273">
        <ele>101</ele>
        <time>2015-11-19T10:10:37Z</time>
      </trkpt>
      <trkpt lat="48.03027" lon="2.82272">
        <ele>100</ele>
        <time>2015-11-19T10:10:39Z</time>
      </trkpt>
      <trkpt lat="48.03028" lon="2.82271">
        <ele>100</ele>
        <time>2015-11-19T10:10:40Z</time>
      </trkpt>
      <trkpt lat="48.0303" lon="2.82271">
        <ele>100</ele>
        <time>2015-11-19T10:10:41Z</time>
      </trkpt>
      <trkpt lat="48.03031" lon="2.8227">
        <ele>100</ele>
        <time>2015-11-19T10:10:42Z</time>
      </trkpt>
      <trkpt lat="48.03034" lon="2.82269">
        <ele>100</ele>
        <time>2015-11-19T10:10:44Z</time>
      </trkpt>
      <trkpt lat="48.03036" lon="2.82267">
        <ele>100</ele>
        <time>2015-11-19T10:10:45Z</time>
      </trkpt>
      <trkpt lat="48.03036" lon="2.82265">
        <ele>100</ele>
        <time>2015-11-19T10:10:46Z</time>
      </trkpt>
      <trkpt lat="48.03038" lon="2.82263">
        <ele>100</ele>
        <time>2015-11-19T10:10:47Z</time>
      </trkpt>
      <trkpt lat="48.03041" lon="2.82259">
        <ele>103</ele>
        <time>2015-11-19T10:10:50Z</time>
      </trkpt>
      <trkpt lat="48.03041" lon="2.82256">
        <ele>104</ele>
        <time>2015-11-19T10:10:51Z</time>
      </trkpt>
      <trkpt lat="48.03043" lon="2.82255">
        <ele>105</ele>
        <time>2015-11-19T10:10:52Z</time>
      </trkpt>
      <trkpt lat="48.03045" lon="2.82253">
        <ele>107</ele>
        <time>2015-11-19T10:10:54Z</time>
      </trkpt>
      <trkpt lat="48.03046" lon="2.8225">
        <ele>108</ele>
        <time>2015-11-19T10:10:55Z</time>
      </trkpt>
      <trkpt lat="48.03046" lon="2.82248">
        <ele>108</ele>
        <time>2015-11-19T10:10:56Z</time>
      </trkpt>
      <trkpt lat="48.03048" lon="2.82246">
        <ele>109</ele>
        <time>2015-11-19T10:10:57Z</time>
      </trkpt>
      <trkpt lat="48.03051" lon="2.82244">
        <ele>109</ele>
        <time>2015-11-19T10:10:59Z</time>
      </trkpt>
      <trkpt lat="48.03053" lon="2.82243">
        <ele>109</ele>
        <time>2015-11-19T10:11:00Z</time>
      </trkpt>
      <trkpt lat="48.03054" lon="2.8224">
        <ele>109</ele>
        <time>2015-11-19T10:11:01Z</time>
      </trkpt>
      <trkpt lat="48.03055" lon="2.82238">
        <ele>110</ele>
        <time>2015-11-19T10:11:02Z</time>
      </trkpt>
      <trkpt lat="48.03058" lon="2.82236">
        <ele>110</ele>
        <time>2015-11-19T10:11:04Z</time>
      </trkpt>
      <trkpt lat="48.0306" lon="2.82235">
        <ele>110</ele>
        <time>2015-11-19T10:11:05Z</time>
      </trkpt>
      <trkpt lat="48.03062" lon="2.82236">
        <ele>110</ele>
        <time>2015-11-19T10:11:06Z</time>
      </trkpt>
      <trkpt lat="48.03064" lon="2.82236">
        <ele>110</ele>
        <time>2015-11-19T10:11:07Z</time>
      </trkpt>
      <trkpt lat="48.03065" lon="2.82237">
        <ele>111</ele>
        <time>2015-11-19T10:11:08Z</time>
      </trkpt>
      <trkpt lat="48.03069" lon="2.82241">
        <ele>111</ele>
        <time>2015-11-19T10:11:10Z</time>
      </trkpt>
      <trkpt lat="48.0307" lon="2.82242">
        <ele>111</ele>
        <time>2015-11-19T10:11:11Z</time>
      </trkpt>
      <trkpt lat="48.03072" lon="2.82241">
        <ele>111</ele>
        <time>2015-11-19T10:11:12Z</time>
      </trkpt>
      <trkpt lat="48.03073" lon="2.8224">
        <ele>111</ele>
        <time>2015-11-19T10:11:13Z</time>
      </trkpt>
      <trkpt lat="48.03073" lon="2.82237">
        <ele>111</ele>
        <time>2015-11-19T10:11:15Z</time>
      </trkpt>
      <trkpt lat="48.03074" lon="2.82234">
        <ele>111</ele>
        <time>2015-11-19T10:11:16Z</time>
      </trkpt>
      <trkpt lat="48.03074" lon="2.82231">
        <ele>111</ele>
        <time>2015-11-19T10:11:17Z</time>
      </trkpt>
      <trkpt lat="48.03075" lon="2.82228">
        <ele>111</ele>
        <time>2015-11-19T10:11:18Z</time>
      </trkpt>
      <trkpt lat="48.03078" lon="2.82221">
        <ele>111</ele>
        <time>2015-11-19T10:11:20Z</time>
      </trkpt>
      <trkpt lat="48.0308" lon="2.82217">
        <ele>111</ele>
        <time>2015-11-19T10:11:21Z</time>
      </trkpt>
      <trkpt lat="48.03083" lon="2.82213">
        <ele>111</ele>
        <time>2015-11-19T10:11:22Z</time>
      </trkpt>
      <trkpt lat="48.03085" lon="2.82211">
        <ele>111</ele>
        <time>2015-11-19T10:11:23Z</time>
      </trkpt>
      <trkpt lat="48.03088" lon="2.82207">
        <ele>111</ele>
        <time>2015-11-19T10:11:26Z</time>
      </trkpt>
      <trkpt lat="48.03089" lon="2.82204">
        <ele>111</ele>
        <time>2015-11-19T10:11:27Z</time>
      </trkpt>
      <trkpt lat="48.03091" lon="2.822">
        <ele>111</ele>
        <time>2015-11-19T10:11:28Z</time>
      </trkpt>
      <trkpt lat="48.03093" lon="2.82195">
        <ele>111</ele>
        <time>2015-11-19T10:11:29Z</time>
      </trkpt>
      <trkpt lat="48.03096" lon="2.82193">
        <ele>111</ele>
        <time>2015-11-19T10:11:30Z</time>
      </trkpt>
      <trkpt lat="48.03098" lon="2.82191">
        <ele>111</ele>
        <time>2015-11-19T10:11:31Z</time>
      </trkpt>
      <trkpt lat="48.031" lon="2.8219">
        <ele>111</ele>
        <time>2015-11-19T10:11:32Z</time>
      </trkpt>
      <trkpt lat="48.03102" lon="2.8219">
        <ele>112</ele>
        <time>2015-11-19T10:11:33Z</time>
      </trkpt>
      <trkpt lat="48.03108" lon="2.82188">
        <ele>113</ele>
        <time>2015-11-19T10:11:35Z</time>
      </trkpt>
      <trkpt lat="48.0311" lon="2.82188">
        <ele>113</ele>
        <time>2015-11-19T10:11:36Z</time>
      </trkpt>
      <trkpt lat="48.03112" lon="2.82187">
        <ele>113</ele>
        <time>2015-11-19T10:11:37Z</time>
      </trkpt>
      <trkpt lat="48.03113" lon="2.82186">
        <ele>113</ele>
        <time>2015-11-19T10:11:38Z</time>
      </trkpt>
      <trkpt lat="48.03115" lon="2.82183">
        <ele>114</ele>
        <time>2015-11-19T10:11:40Z</time>
      </trkpt>
      <trkpt lat="48.03117" lon="2.82183">
        <ele>114</ele>
        <time>2015-11-19T10:11:41Z</time>
      </trkpt>
      <trkpt lat="48.03119" lon="2.82183">
        <ele>115</ele>
        <time>2015-11-19T10:11:42Z</time>
      </trkpt>
      <trkpt lat="48.0312" lon="2.82182">
        <ele>115</ele>
        <time>2015-11-19T10:11:43Z</time>
      </trkpt>
      <trkpt lat="48.03122" lon="2.82182">
        <ele>115</ele>
        <time>2015-11-19T10:11:44Z</time>
      </trkpt>
      <trkpt lat="48.03123" lon="2.82183">
        <ele>115</ele>
        <time>2015-11-19T10:11:45Z</time>
      </trkpt>
      <trkpt lat="48.03124" lon="2.82185">
        <ele>116</ele>
        <time>2015-11-19T10:11:46Z</time>
      </trkpt>
      <trkpt lat="48.03124" lon="2.82187">
        <ele>116</ele>
        <time>2015-11-19T10:11:47Z</time>
      </trkpt>
      <trkpt lat="48.03124" lon="2.82188">
        <ele>116</ele>
        <time>2015-11-19T10:11:48Z</time>
      </trkpt>
      <trkpt lat="48.03125" lon="2.8219">
        <ele>116</ele>
        <time>2015-11-19T10:11:50Z</time>
      </trkpt>
      <trkpt lat="48.03127" lon="2.82189">
        <ele>117</ele>
        <time>2015-11-19T10:11:52Z</time>
      </trkpt>
      <trkpt lat="48.03129" lon="2.82189">
        <ele>117</ele>
        <time>2015-11-19T10:11:53Z</time>
      </trkpt>
      <trkpt lat="48.03131" lon="2.82189">
        <ele>119</ele>
        <time>2015-11-19T10:11:55Z</time>
      </trkpt>
      <trkpt lat="48.03133" lon="2.82189">
        <ele>119</ele>
        <time>2015-11-19T10:11:56Z</time>
      </trkpt>
      <trkpt lat="48.03134" lon="2.82189">
        <ele>120</ele>
        <time>2015-11-19T10:11:57Z</time>
      </trkpt>
      <trkpt lat="48.03135" lon="2.82189">
        <ele>120</ele>
        <time>2015-11-19T10:11:58Z</time>
      </trkpt>
      <trkpt lat="48.03139" lon="2.82186">
        <ele>120</ele>
        <time>2015-11-19T10:12:01Z</time>
      </trkpt>
      <trkpt lat="48.03141" lon="2.82185">
        <ele>121</ele>
        <time>2015-11-19T10:12:03Z</time>
      </trkpt>
      <trkpt lat="48.03142" lon="2.82184">
        <ele>121</ele>
        <time>2015-11-19T10:12:04Z</time>
      </trkpt>
      <trkpt lat="48.03141" lon="2.82181">
        <ele>121</ele>
        <time>2015-11-19T10:12:06Z</time>
      </trkpt>
      <trkpt lat="48.03139" lon="2.82176">
        <ele>121</ele>
        <time>2015-11-19T10:12:07Z</time>
      </trkpt>
      <trkpt lat="48.03137" lon="2.82171">
        <ele>121</ele>
        <time>2015-11-19T10:12:08Z</time>
      </trkpt>
      <trkpt lat="48.03134" lon="2.82165">
        <ele>121</ele>
        <time>2015-11-19T10:12:09Z</time>
      </trkpt>
      <trkpt lat="48.03131" lon="2.82158">
        <ele>121</ele>
        <time>2015-11-19T10:12:10Z</time>
      </trkpt>
      <trkpt lat="48.03128" lon="2.8215">
        <ele>121</ele>
        <time>2015-11-19T10:12:11Z</time>
      </trkpt>
      <trkpt lat="48.03125" lon="2.82142">
        <ele>121</ele>
        <time>2015-11-19T10:12:12Z</time>
      </trkpt>
      <trkpt lat="48.03125" lon="2.82132">
        <ele>121</ele>
        <time>2015-11-19T10:12:13Z</time>
      </trkpt>
      <trkpt lat="48.03126" lon="2.82111">
        <ele>121</ele>
        <time>2015-11-19T10:12:15Z</time>
      </trkpt>
      <trkpt lat="48.03126" lon="2.821">
        <ele>121</ele>
        <time>2015-11-19T10:12:16Z</time>
      </trkpt>
      <trkpt lat="48.03125" lon="2.82089">
        <ele>121</ele>
        <time>2015-11-19T10:12:17Z</time>
      </trkpt>
      <trkpt lat="48.03125" lon="2.82079">
        <ele>121</ele>
        <time>2015-11-19T10:12:18Z</time>
      </trkpt>
      <trkpt lat="48.03124" lon="2.82063">
        <ele>120</ele>
        <time>2015-11-19T10:12:20Z</time>
      </trkpt>
      <trkpt lat="48.03124" lon="2.82057">
        <ele>119</ele>
        <time>2015-11-19T10:12:21Z</time>
      </trkpt>
      <trkpt lat="48.03125" lon="2.82052">
        <ele>118</ele>
        <time>2015-11-19T10:12:22Z</time>
      </trkpt>
      <trkpt lat="48.03127" lon="2.82051">
        <ele>117</ele>
        <time>2015-11-19T10:12:23Z</time>
      </trkpt>
      <trkpt lat="48.0313" lon="2.82052">
        <ele>116</ele>
        <time>2015-11-19T10:12:25Z</time>
      </trkpt>
      <trkpt lat="48.03132" lon="2.82052">
        <ele>115</ele>
        <time>2015-11-19T10:12:26Z</time>
      </trkpt>
      <trkpt lat="48.03134" lon="2.82052">
        <ele>115</ele>
        <time>2015-11-19T10:12:27Z</time>
      </trkpt>
      <trkpt lat="48.03136" lon="2.82052">
        <ele>114</ele>
        <time>2015-11-19T10:12:29Z</time>
      </trkpt>
      <trkpt lat="48.0314" lon="2.82052">
        <ele>114</ele>
        <time>2015-11-19T10:12:31Z</time>
      </trkpt>
      <trkpt lat="48.03142" lon="2.82052">
        <ele>113</ele>
        <time>2015-11-19T10:12:32Z</time>
      </trkpt>
      <trkpt lat="48.03144" lon="2.82051">
        <ele>113</ele>
        <time>2015-11-19T10:12:33Z</time>
      </trkpt>
      <trkpt lat="48.03146" lon="2.82051">
        <ele>113</ele>
        <time>2015-11-19T10:12:34Z</time>
      </trkpt>
      <trkpt lat="48.03149" lon="2.82052">
        <ele>113</ele>
        <time>2015-11-19T10:12:35Z</time>
      </trkpt>
      <trkpt lat="48.03151" lon="2.82052">
        <ele>113</ele>
        <time>2015-11-19T10:12:36Z</time>
      </trkpt>
      <trkpt lat="48.03152" lon="2.82052">
        <ele>113</ele>
        <time>2015-11-19T10:12:37Z</time>
      </trkpt>
      <trkpt lat="48.03154" lon="2.82051">
        <ele>113</ele>
        <time>2015-11-19T10:12:38Z</time>
      </trkpt>
      <trkpt lat="48.03156" lon="2.8205">
        <ele>113</ele>
        <time>2015-11-19T10:12:39Z</time>
      </trkpt>
      <trkpt lat="48.03157" lon="2.8205">
        <ele>113</ele>
        <time>2015-11-19T10:12:40Z</time>
      </trkpt>
      <trkpt lat="48.03159" lon="2.82049">
        <ele>113</ele>
        <time>2015-11-19T10:12:41Z</time>
      </trkpt>
      <trkpt lat="48.03161" lon="2.82048">
        <ele>113</ele>
        <time>2015-11-19T10:12:42Z</time>
      </trkpt>
      <trkpt lat="48.03165" lon="2.82047">
        <ele>113</ele>
        <time>2015-11-19T10:12:44Z</time>
      </trkpt>
      <trkpt lat="48.03167" lon="2.82047">
        <ele>113</ele>
        <time>2015-11-19T10:12:45Z</time>
      </trkpt>
      <trkpt lat="48.03169" lon="2.82048">
        <ele>113</ele>
        <time>2015-11-19T10:12:46Z</time>
      </trkpt>
      <trkpt lat="48.03172" lon="2.82048">
        <ele>113</ele>
        <time>2015-11-19T10:12:48Z</time>
      </trkpt>
      <trkpt lat="48.03173" lon="2.82048">
        <ele>113</ele>
        <time>2015-11-19T10:12:49Z</time>
      </trkpt>
      <trkpt lat="48.03175" lon="2.82047">
        <ele>113</ele>
        <time>2015-11-19T10:12:50Z</time>
      </trkpt>
      <trkpt lat="48.03177" lon="2.82045">
        <ele>113</ele>
        <time>2015-11-19T10:12:51Z</time>
      </trkpt>
      <trkpt lat="48.03178" lon="2.82045">
        <ele>114</ele>
        <time>2015-11-19T10:12:52Z</time>
      </trkpt>
      <trkpt lat="48.0318" lon="2.82044">
        <ele>114</ele>
        <time>2015-11-19T10:12:53Z</time>
      </trkpt>
      <trkpt lat="48.03181" lon="2.82044">
        <ele>115</ele>
        <time>2015-11-19T10:12:54Z</time>
      </trkpt>
      <trkpt lat="48.03183" lon="2.82044">
        <ele>115</ele>
        <time>2015-11-19T10:12:55Z</time>
      </trkpt>
      <trkpt lat="48.03184" lon="2.82044">
        <ele>115</ele>
        <time>2015-11-19T10:12:56Z</time>
      </trkpt>
      <trkpt lat="48.03186" lon="2.82044">
        <ele>115</ele>
        <time>2015-11-19T10:12:57Z</time>
      </trkpt>
      <trkpt lat="48.03188" lon="2.82047">
        <ele>115</ele>
        <time>2015-11-19T10:12:58Z</time>
      </trkpt>
      <trkpt lat="48.03189" lon="2.8205">
        <ele>115</ele>
        <time>2015-11-19T10:12:59Z</time>
      </trkpt>
      <trkpt lat="48.03191" lon="2.82053">
        <ele>115</ele>
        <time>2015-11-19T10:13:00Z</time>
      </trkpt>
      <trkpt lat="48.03193" lon="2.82056">
        <ele>115</ele>
        <time>2015-11-19T10:13:01Z</time>
      </trkpt>
      <trkpt lat="48.03194" lon="2.82059">
        <ele>115</ele>
        <time>2015-11-19T10:13:02Z</time>
      </trkpt>
      <trkpt lat="48.03196" lon="2.82061">
        <ele>115</ele>
        <time>2015-11-19T10:13:03Z</time>
      </trkpt>
      <trkpt lat="48.03196" lon="2.82063">
        <ele>115</ele>
        <time>2015-11-19T10:13:04Z</time>
      </trkpt>
      <trkpt lat="48.03198" lon="2.82066">
        <ele>115</ele>
        <time>2015-11-19T10:13:06Z</time>
      </trkpt>
      <trkpt lat="48.03199" lon="2.82067">
        <ele>115</ele>
        <time>2015-11-19T10:13:07Z</time>
      </trkpt>
      <trkpt lat="48.03199" lon="2.82069">
        <ele>115</ele>
        <time>2015-11-19T10:13:08Z</time>
      </trkpt>
      <trkpt lat="48.03201" lon="2.82072">
        <ele>115</ele>
        <time>2015-11-19T10:13:10Z</time>
      </trkpt>
      <trkpt lat="48.03201" lon="2.82074">
        <ele>115</ele>
        <time>2015-11-19T10:13:11Z</time>
      </trkpt>
      <trkpt lat="48.03202" lon="2.82078">
        <ele>115</ele>
        <time>2015-11-19T10:13:13Z</time>
      </trkpt>
      <trkpt lat="48.03204" lon="2.82082">
        <ele>115</ele>
        <time>2015-11-19T10:13:14Z</time>
      </trkpt>
      <trkpt lat="48.03205" lon="2.82084">
        <ele>115</ele>
        <time>2015-11-19T10:13:15Z</time>
      </trkpt>
      <trkpt lat="48.03207" lon="2.82087">
        <ele>115</ele>
        <time>2015-11-19T10:13:16Z</time>
      </trkpt>
      <trkpt lat="48.03209" lon="2.8209">
        <ele>115</ele>
        <time>2015-11-19T10:13:17Z</time>
      </trkpt>
      <trkpt lat="48.0321" lon="2.82093">
        <ele>115</ele>
        <time>2015-11-19T10:13:18Z</time>
      </trkpt>
      <trkpt lat="48.0321" lon="2.82096">
        <ele>115</ele>
        <time>2015-11-19T10:13:19Z</time>
      </trkpt>
      <trkpt lat="48.03212" lon="2.82098">
        <ele>115</ele>
        <time>2015-11-19T10:13:20Z</time>
      </trkpt>
      <trkpt lat="48.03212" lon="2.82101">
        <ele>115</ele>
        <time>2015-11-19T10:13:21Z</time>
      </trkpt>
      <trkpt lat="48.03214" lon="2.82104">
        <ele>115</ele>
        <time>2015-11-19T10:13:23Z</time>
      </trkpt>
      <trkpt lat="48.03215" lon="2.82106">
        <ele>115</ele>
        <time>2015-11-19T10:13:24Z</time>
      </trkpt>
      <trkpt lat="48.03216" lon="2.82108">
        <ele>115</ele>
        <time>2015-11-19T10:13:25Z</time>
      </trkpt>
      <trkpt lat="48.03218" lon="2.82111">
        <ele>115</ele>
        <time>2015-11-19T10:13:26Z</time>
      </trkpt>
      <trkpt lat="48.0322" lon="2.82115">
        <ele>115</ele>
        <time>2015-11-19T10:13:28Z</time>
      </trkpt>
      <trkpt lat="48.0322" lon="2.82118">
        <ele>115</ele>
        <time>2015-11-19T10:13:29Z</time>
      </trkpt>
      <trkpt lat="48.03222" lon="2.82121">
        <ele>115</ele>
        <time>2015-11-19T10:13:30Z</time>
      </trkpt>
      <trkpt lat="48.03223" lon="2.82124">
        <ele>115</ele>
        <time>2015-11-19T10:13:31Z</time>
      </trkpt>
      <trkpt lat="48.03225" lon="2.82129">
        <ele>115</ele>
        <time>2015-11-19T10:13:32Z</time>
      </trkpt>
      <trkpt lat="48.03227" lon="2.82133">
        <ele>115</ele>
        <time>2015-11-19T10:13:33Z</time>
      </trkpt>
      <trkpt lat="48.03229" lon="2.82137">
        <ele>115</ele>
        <time>2015-11-19T10:13:34Z</time>
      </trkpt>
      <trkpt lat="48.03231" lon="2.82142">
        <ele>115</ele>
        <time>2015-11-19T10:13:35Z</time>
      </trkpt>
      <trkpt lat="48.03232" lon="2.82145">
        <ele>115</ele>
        <time>2015-11-19T10:13:36Z</time>
      </trkpt>
      <trkpt lat="48.03235" lon="2.82153">
        <ele>115</ele>
        <time>2015-11-19T10:13:38Z</time>
      </trkpt>
      <trkpt lat="48.03236" lon="2.82158">
        <ele>115</ele>
        <time>2015-11-19T10:13:39Z</time>
      </trkpt>
      <trkpt lat="48.03238" lon="2.82163">
        <ele>115</ele>
        <time>2015-11-19T10:13:40Z</time>
      </trkpt>
      <trkpt lat="48.03239" lon="2.82168">
        <ele>115</ele>
        <time>2015-11-19T10:13:41Z</time>
      </trkpt>
      <trkpt lat="48.03243" lon="2.82178">
        <ele>115</ele>
        <time>2015-11-19T10:13:43Z</time>
      </trkpt>
      <trkpt lat="48.03245" lon="2.82182">
        <ele>115</ele>
        <time>2015-11-19T10:13:44Z</time>
      </trkpt>
      <trkpt lat="48.03247" lon="2.82186">
        <ele>115</ele>
        <time>2015-11-19T10:13:45Z</time>
      </trkpt>
      <trkpt lat="48.0325" lon="2.8219">
        <ele>115</ele>
        <time>2015-11-19T10:13:46Z</time>
      </trkpt>
      <trkpt lat="48.03252" lon="2.82195">
        <ele>115</ele>
        <time>2015-11-19T10:13:47Z</time>
      </trkpt>
      <trkpt lat="48.03254" lon="2.822">
        <ele>115</ele>
        <time>2015-11-19T10:13:48Z</time>
      </trkpt>
      <trkpt lat="48.03256" lon="2.82204">
        <ele>115</ele>
        <time>2015-11-19T10:13:49Z</time>
      </trkpt>
      <trkpt lat="48.03257" lon="2.82208">
        <ele>115</ele>
        <time>2015-11-19T10:13:50Z</time>
      </trkpt>
      <trkpt lat="48.0326" lon="2.82215">
        <ele>115</ele>
        <time>2015-11-19T10:13:51Z</time>
      </trkpt>
      <trkpt lat="48.03262" lon="2.82225">
        <ele>115</ele>
        <time>2015-11-19T10:13:52Z</time>
      </trkpt>
      <trkpt lat="48.03265" lon="2.82232">
        <ele>115</ele>
        <time>2015-11-19T10:13:53Z</time>
      </trkpt>
      <trkpt lat="48.03268" lon="2.82238">
        <ele>115</ele>
        <time>2015-11-19T10:13:54Z</time>
      </trkpt>
      <trkpt lat="48.0327" lon="2.82243">
        <ele>115</ele>
        <time>2015-11-19T10:13:55Z</time>
      </trkpt>
      <trkpt lat="48.03274" lon="2.8225">
        <ele>115</ele>
        <time>2015-11-19T10:13:56Z</time>
      </trkpt>
      <trkpt lat="48.03275" lon="2.82255">
        <ele>115</ele>
        <time>2015-11-19T10:13:57Z</time>
      </trkpt>
      <trkpt lat="48.03278" lon="2.82264">
        <ele>115</ele>
        <time>2015-11-19T10:13:58Z</time>
      </trkpt>
      <trkpt lat="48.03281" lon="2.82271">
        <ele>115</ele>
        <time>2015-11-19T10:13:59Z</time>
      </trkpt>
      <trkpt lat="48.03283" lon="2.82277">
        <ele>115</ele>
        <time>2015-11-19T10:14:00Z</time>
      </trkpt>
      <trkpt lat="48.03286" lon="2.82283">
        <ele>115</ele>
        <time>2015-11-19T10:14:01Z</time>
      </trkpt>
      <trkpt lat="48.03288" lon="2.82288">
        <ele>115</ele>
        <time>2015-11-19T10:14:02Z</time>
      </trkpt>
      <trkpt lat="48.03291" lon="2.82294">
        <ele>115</ele>
        <time>2015-11-19T10:14:03Z</time>
      </trkpt>
      <trkpt lat="48.03293" lon="2.82298">
        <ele>115</ele>
        <time>2015-11-19T10:14:04Z</time>
      </trkpt>
      <trkpt lat="48.03296" lon="2.82304">
        <ele>115</ele>
        <time>2015-11-19T10:14:05Z</time>
      </trkpt>
      <trkpt lat="48.03299" lon="2.8231">
        <ele>115</ele>
        <time>2015-11-19T10:14:06Z</time>
      </trkpt>
      <trkpt lat="48.03302" lon="2.82316">
        <ele>115</ele>
        <time>2015-11-19T10:14:07Z</time>
      </trkpt>
      <trkpt lat="48.03305" lon="2.82323">
        <ele>115</ele>
        <time>2015-11-19T10:14:08Z</time>
      </trkpt>
      <trkpt lat="48.03308" lon="2.82329">
        <ele>116</ele>
        <time>2015-11-19T10:14:09Z</time>
      </trkpt>
      <trkpt lat="48.03313" lon="2.82341">
        <ele>117</ele>
        <time>2015-11-19T10:14:11Z</time>
      </trkpt>
      <trkpt lat="48.03315" lon="2.82348">
        <ele>118</ele>
        <time>2015-11-19T10:14:12Z</time>
      </trkpt>
      <trkpt lat="48.03318" lon="2.82355">
        <ele>119</ele>
        <time>2015-11-19T10:14:13Z</time>
      </trkpt>
      <trkpt lat="48.0332" lon="2.82363">
        <ele>119</ele>
        <time>2015-11-19T10:14:14Z</time>
      </trkpt>
      <trkpt lat="48.03323" lon="2.8237">
        <ele>120</ele>
        <time>2015-11-19T10:14:15Z</time>
      </trkpt>
      <trkpt lat="48.03326" lon="2.82378">
        <ele>120</ele>
        <time>2015-11-19T10:14:16Z</time>
      </trkpt>
      <trkpt lat="48.03329" lon="2.82385">
        <ele>121</ele>
        <time>2015-11-19T10:14:17Z</time>
      </trkpt>
      <trkpt lat="48.03336" lon="2.82399">
        <ele>121</ele>
        <time>2015-11-19T10:14:19Z</time>
      </trkpt>
      <trkpt lat="48.03339" lon="2.82406">
        <ele>121</ele>
        <time>2015-11-19T10:14:20Z</time>
      </trkpt>
      <trkpt lat="48.03341" lon="2.82413">
        <ele>121</ele>
        <time>2015-11-19T10:14:21Z</time>
      </trkpt>
      <trkpt lat="48.03343" lon="2.82419">
        <ele>121</ele>
        <time>2015-11-19T10:14:22Z</time>
      </trkpt>
      <trkpt lat="48.03346" lon="2.82425">
        <ele>121</ele>
        <time>2015-11-19T10:14:23Z</time>
      </trkpt>
      <trkpt lat="48.03349" lon="2.82431">
        <ele>121</ele>
        <time>2015-11-19T10:14:24Z</time>
      </trkpt>
      <trkpt lat="48.03351" lon="2.82437">
        <ele>121</ele>
        <time>2015-11-19T10:14:25Z</time>
      </trkpt>
      <trkpt lat="48.03355" lon="2.82445">
        <ele>121</ele>
        <time>2015-11-19T10:14:26Z</time>
      </trkpt>
      <trkpt lat="48.03359" lon="2.82451">
        <ele>121</ele>
        <time>2015-11-19T10:14:27Z</time>
      </trkpt>
      <trkpt lat="48.03361" lon="2.82458">
        <ele>121</ele>
        <time>2015-11-19T10:14:28Z</time>
      </trkpt>
      <trkpt lat="48.03364" lon="2.82464">
        <ele>121</ele>
        <time>2015-11-19T10:14:29Z</time>
      </trkpt>
      <trkpt lat="48.03365" lon="2.82469">
        <ele>121</ele>
        <time>2015-11-19T10:14:30Z</time>
      </trkpt>
      <trkpt lat="48.03366" lon="2.82475">
        <ele>121</ele>
        <time>2015-11-19T10:14:31Z</time>
      </trkpt>
      <trkpt lat="48.03367" lon="2.82482">
        <ele>121</ele>
        <time>2015-11-19T10:14:32Z</time>
      </trkpt>
      <trkpt lat="48.03368" lon="2.82488">
        <ele>121</ele>
        <time>2015-11-19T10:14:33Z</time>
      </trkpt>
      <trkpt lat="48.0337" lon="2.82496">
        <ele>121</ele>
        <time>2015-11-19T10:14:34Z</time>
      </trkpt>
      <trkpt lat="48.03373" lon="2.82503">
        <ele>121</ele>
        <time>2015-11-19T10:14:35Z</time>
      </trkpt>
      <trkpt lat="48.03376" lon="2.82512">
        <ele>120</ele>
        <time>2015-11-19T10:14:36Z</time>
      </trkpt>
      <trkpt lat="48.03379" lon="2.82522">
        <ele>120</ele>
        <time>2015-11-19T10:14:37Z</time>
      </trkpt>
      <trkpt lat="48.03382" lon="2.82529">
        <ele>120</ele>
        <time>2015-11-19T10:14:38Z</time>
      </trkpt>
      <trkpt lat="48.03386" lon="2.82537">
        <ele>119</ele>
        <time>2015-11-19T10:14:39Z</time>
      </trkpt>
      <trkpt lat="48.03388" lon="2.82543">
        <ele>119</ele>
        <time>2015-11-19T10:14:40Z</time>
      </trkpt>
      <trkpt lat="48.03391" lon="2.82551">
        <ele>119</ele>
        <time>2015-11-19T10:14:41Z</time>
      </trkpt>
      <trkpt lat="48.03394" lon="2.82557">
        <ele>118</ele>
        <time>2015-11-19T10:14:42Z</time>
      </trkpt>
      <trkpt lat="48.03397" lon="2.82563">
        <ele>118</ele>
        <time>2015-11-19T10:14:43Z</time>
      </trkpt>
      <trkpt lat="48.03399" lon="2.8257">
        <ele>118</ele>
        <time>2015-11-19T10:14:44Z</time>
      </trkpt>
      <trkpt lat="48.03402" lon="2.82578">
        <ele>118</ele>
        <time>2015-11-19T10:14:45Z</time>
      </trkpt>
      <trkpt lat="48.03405" lon="2.82584">
        <ele>117</ele>
        <time>2015-11-19T10:14:46Z</time>
      </trkpt>
      <trkpt lat="48.03409" lon="2.82592">
        <ele>117</ele>
        <time>2015-11-19T10:14:47Z</time>
      </trkpt>
      <trkpt lat="48.03413" lon="2.82599">
        <ele>117</ele>
        <time>2015-11-19T10:14:48Z</time>
      </trkpt>
      <trkpt lat="48.03416" lon="2.82609">
        <ele>116</ele>
        <time>2015-11-19T10:14:49Z</time>
      </trkpt>
      <trkpt lat="48.0342" lon="2.82617">
        <ele>116</ele>
        <time>2015-11-19T10:14:50Z</time>
      </trkpt>
      <trkpt lat="48.03424" lon="2.82627">
        <ele>115</ele>
        <time>2015-11-19T10:14:51Z</time>
      </trkpt>
      <trkpt lat="48.03429" lon="2.82636">
        <ele>114</ele>
        <time>2015-11-19T10:14:52Z</time>
      </trkpt>
      <trkpt lat="48.03433" lon="2.82645">
        <ele>114</ele>
        <time>2015-11-19T10:14:53Z</time>
      </trkpt>
      <trkpt lat="48.03437" lon="2.82653">
        <ele>113</ele>
        <time>2015-11-19T10:14:54Z</time>
      </trkpt>
      <trkpt lat="48.03441" lon="2.82662">
        <ele>113</ele>
        <time>2015-11-19T10:14:55Z</time>
      </trkpt>
      <trkpt lat="48.03444" lon="2.82669">
        <ele>112</ele>
        <time>2015-11-19T10:14:56Z</time>
      </trkpt>
      <trkpt lat="48.03447" lon="2.82678">
        <ele>111</ele>
        <time>2015-11-19T10:14:57Z</time>
      </trkpt>
      <trkpt lat="48.0345" lon="2.82686">
        <ele>111</ele>
        <time>2015-11-19T10:14:58Z</time>
      </trkpt>
      <trkpt lat="48.03452" lon="2.82695">
        <ele>111</ele>
        <time>2015-11-19T10:14:59Z</time>
      </trkpt>
      <trkpt lat="48.03455" lon="2.82704">
        <ele>110</ele>
        <time>2015-11-19T10:15:00Z</time>
      </trkpt>
      <trkpt lat="48.03459" lon="2.82713">
        <ele>110</ele>
        <time>2015-11-19T10:15:01Z</time>
      </trkpt>
      <trkpt lat="48.03463" lon="2.82722">
        <ele>110</ele>
        <time>2015-11-19T10:15:02Z</time>
      </trkpt>
      <trkpt lat="48.03466" lon="2.8273">
        <ele>110</ele>
        <time>2015-11-19T10:15:03Z</time>
      </trkpt>
      <trkpt lat="48.0347" lon="2.82738">
        <ele>110</ele>
        <time>2015-11-19T10:15:04Z</time>
      </trkpt>
      <trkpt lat="48.03474" lon="2.82747">
        <ele>110</ele>
        <time>2015-11-19T10:15:05Z</time>
      </trkpt>
      <trkpt lat="48.03479" lon="2.82751">
        <ele>110</ele>
        <time>2015-11-19T10:15:06Z</time>
      </trkpt>
      <trkpt lat="48.03486" lon="2.82756">
        <ele>110</ele>
        <time>2015-11-19T10:15:07Z</time>
      </trkpt>
      <trkpt lat="48.0349" lon="2.82755">
        <ele>110</ele>
        <time>2015-11-19T10:15:08Z</time>
      </trkpt>
      <trkpt lat="48.03494" lon="2.82753">
        <ele>109</ele>
        <time>2015-11-19T10:15:09Z</time>
      </trkpt>
      <trkpt lat="48.03499" lon="2.82752">
        <ele>109</ele>
        <time>2015-11-19T10:15:10Z</time>
      </trkpt>
      <trkpt lat="48.03509" lon="2.82761">
        <ele>109</ele>
        <time>2015-11-19T10:15:11Z</time>
      </trkpt>
      <trkpt lat="48.03513" lon="2.82757">
        <ele>109</ele>
        <time>2015-11-19T10:15:12Z</time>
      </trkpt>
      <trkpt lat="48.03519" lon="2.82759">
        <ele>109</ele>
        <time>2015-11-19T10:15:13Z</time>
      </trkpt>
      <trkpt lat="48.03523" lon="2.82756">
        <ele>109</ele>
        <time>2015-11-19T10:15:14Z</time>
      </trkpt>
      <trkpt lat="48.03527" lon="2.82753">
        <ele>109</ele>
        <time>2015-11-19T10:15:15Z</time>
      </trkpt>
      <trkpt lat="48.03533" lon="2.82755">
        <ele>109</ele>
        <time>2015-11-19T10:15:16Z</time>
      </trkpt>
      <trkpt lat="48.03539" lon="2.82754">
        <ele>110</ele>
        <time>2015-11-19T10:15:17Z</time>
      </trkpt>
      <trkpt lat="48.03543" lon="2.82752">
        <ele>110</ele>
        <time>2015-11-19T10:15:18Z</time>
      </trkpt>
      <trkpt lat="48.03547" lon="2.82748">
        <ele>111</ele>
        <time>2015-11-19T10:15:19Z</time>
      </trkpt>
      <trkpt lat="48.0355" lon="2.82744">
        <ele>111</ele>
        <time>2015-11-19T10:15:20Z</time>
      </trkpt>
      <trkpt lat="48.03556" lon="2.82743">
        <ele>111</ele>
        <time>2015-11-19T10:15:21Z</time>
      </trkpt>
      <trkpt lat="48.03561" lon="2.8274">
        <ele>111</ele>
        <time>2015-11-19T10:15:22Z</time>
      </trkpt>
      <trkpt lat="48.03566" lon="2.82738">
        <ele>111</ele>
        <time>2015-11-19T10:15:23Z</time>
      </trkpt>
      <trkpt lat="48.03571" lon="2.82735">
        <ele>111</ele>
        <time>2015-11-19T10:15:24Z</time>
      </trkpt>
      <trkpt lat="48.03575" lon="2.82732">
        <ele>111</ele>
        <time>2015-11-19T10:15:25Z</time>
      </trkpt>
      <trkpt lat="48.03579" lon="2.82728">
        <ele>111</ele>
        <time>2015-11-19T10:15:26Z</time>
      </trkpt>
      <trkpt lat="48.03582" lon="2.82724">
        <ele>111</ele>
        <time>2015-11-19T10:15:27Z</time>
      </trkpt>
      <trkpt lat="48.03589" lon="2.82717">
        <ele>112</ele>
        <time>2015-11-19T10:15:29Z</time>
      </trkpt>
      <trkpt lat="48.03592" lon="2.82715">
        <ele>112</ele>
        <time>2015-11-19T10:15:30Z</time>
      </trkpt>
      <trkpt lat="48.03596" lon="2.82712">
        <ele>112</ele>
        <time>2015-11-19T10:15:31Z</time>
      </trkpt>
      <trkpt lat="48.03599" lon="2.82709">
        <ele>112</ele>
        <time>2015-11-19T10:15:32Z</time>
      </trkpt>
      <trkpt lat="48.03603" lon="2.82706">
        <ele>112</ele>
        <time>2015-11-19T10:15:33Z</time>
      </trkpt>
      <trkpt lat="48.03606" lon="2.82702">
        <ele>112</ele>
        <time>2015-11-19T10:15:34Z</time>
      </trkpt>
      <trkpt lat="48.03609" lon="2.82698">
        <ele>113</ele>
        <time>2015-11-19T10:15:35Z</time>
      </trkpt>
      <trkpt lat="48.03613" lon="2.82695">
        <ele>113</ele>
        <time>2015-11-19T10:15:36Z</time>
      </trkpt>
      <trkpt lat="48.03616" lon="2.82692">
        <ele>113</ele>
        <time>2015-11-19T10:15:37Z</time>
      </trkpt>
      <trkpt lat="48.0362" lon="2.82688">
        <ele>113</ele>
        <time>2015-11-19T10:15:38Z</time>
      </trkpt>
      <trkpt lat="48.03623" lon="2.82686">
        <ele>113</ele>
        <time>2015-11-19T10:15:39Z</time>
      </trkpt>
      <trkpt lat="48.03627" lon="2.82683">
        <ele>113</ele>
        <time>2015-11-19T10:15:40Z</time>
      </trkpt>
      <trkpt lat="48.0363" lon="2.8268">
        <ele>113</ele>
        <time>2015-11-19T10:15:41Z</time>
      </trkpt>
      <trkpt lat="48.03634" lon="2.82676">
        <ele>113</ele>
        <time>2015-11-19T10:15:42Z</time>
      </trkpt>
      <trkpt lat="48.03638" lon="2.82673">
        <ele>114</ele>
        <time>2015-11-19T10:15:43Z</time>
      </trkpt>
      <trkpt lat="48.03641" lon="2.82669">
        <ele>114</ele>
        <time>2015-11-19T10:15:44Z</time>
      </trkpt>
      <trkpt lat="48.03645" lon="2.82666">
        <ele>115</ele>
        <time>2015-11-19T10:15:45Z</time>
      </trkpt>
      <trkpt lat="48.0365" lon="2.82663">
        <ele>115</ele>
        <time>2015-11-19T10:15:46Z</time>
      </trkpt>
      <trkpt lat="48.03654" lon="2.8266">
        <ele>116</ele>
        <time>2015-11-19T10:15:47Z</time>
      </trkpt>
      <trkpt lat="48.03658" lon="2.82656">
        <ele>116</ele>
        <time>2015-11-19T10:15:48Z</time>
      </trkpt>
      <trkpt lat="48.03662" lon="2.82652">
        <ele>117</ele>
        <time>2015-11-19T10:15:49Z</time>
      </trkpt>
      <trkpt lat="48.03666" lon="2.82648">
        <ele>117</ele>
        <time>2015-11-19T10:15:50Z</time>
      </trkpt>
      <trkpt lat="48.03669" lon="2.82645">
        <ele>117</ele>
        <time>2015-11-19T10:15:51Z</time>
      </trkpt>
      <trkpt lat="48.03673" lon="2.82641">
        <ele>117</ele>
        <time>2015-11-19T10:15:52Z</time>
      </trkpt>
      <trkpt lat="48.03677" lon="2.82638">
        <ele>118</ele>
        <time>2015-11-19T10:15:53Z</time>
      </trkpt>
      <trkpt lat="48.03681" lon="2.82635">
        <ele>118</ele>
        <time>2015-11-19T10:15:54Z</time>
      </trkpt>
      <trkpt lat="48.03685" lon="2.82631">
        <ele>118</ele>
        <time>2015-11-19T10:15:55Z</time>
      </trkpt>
      <trkpt lat="48.03688" lon="2.82628">
        <ele>118</ele>
        <time>2015-11-19T10:15:56Z</time>
      </trkpt>
      <trkpt lat="48.03692" lon="2.82624">
        <ele>118</ele>
        <time>2015-11-19T10:15:57Z</time>
      </trkpt>
      <trkpt lat="48.03696" lon="2.8262">
        <ele>118</ele>
        <time>2015-11-19T10:15:58Z</time>
      </trkpt>
      <trkpt lat="48.03699" lon="2.82616">
        <ele>118</ele>
        <time>2015-11-19T10:15:59Z</time>
      </trkpt>
      <trkpt lat="48.03703" lon="2.82612">
        <ele>118</ele>
        <time>2015-11-19T10:16:00Z</time>
      </trkpt>
      <trkpt lat="48.03707" lon="2.82609">
        <ele>118</ele>
        <time>2015-11-19T10:16:01Z</time>
      </trkpt>
      <trkpt lat="48.0371" lon="2.82605">
        <ele>118</ele>
        <time>2015-11-19T10:16:02Z</time>
      </trkpt>
      <trkpt lat="48.03713" lon="2.826">
        <ele>118</ele>
        <time>2015-11-19T10:16:03Z</time>
      </trkpt>
      <trkpt lat="48.03717" lon="2.82596">
        <ele>118</ele>
        <time>2015-11-19T10:16:04Z</time>
      </trkpt>
      <trkpt lat="48.0372" lon="2.82593">
        <ele>118</ele>
        <time>2015-11-19T10:16:05Z</time>
      </trkpt>
      <trkpt lat="48.03724" lon="2.82589">
        <ele>118</ele>
        <time>2015-11-19T10:16:06Z</time>
      </trkpt>
      <trkpt lat="48.03727" lon="2.82583">
        <ele>118</ele>
        <time>2015-11-19T10:16:07Z</time>
      </trkpt>
      <trkpt lat="48.0373" lon="2.8258">
        <ele>118</ele>
        <time>2015-11-19T10:16:08Z</time>
      </trkpt>
      <trkpt lat="48.03734" lon="2.82576">
        <ele>118</ele>
        <time>2015-11-19T10:16:09Z</time>
      </trkpt>
      <trkpt lat="48.03738" lon="2.82573">
        <ele>118</ele>
        <time>2015-11-19T10:16:10Z</time>
      </trkpt>
      <trkpt lat="48.03742" lon="2.8257">
        <ele>118</ele>
        <time>2015-11-19T10:16:11Z</time>
      </trkpt>
      <trkpt lat="48.03745" lon="2.82567">
        <ele>118</ele>
        <time>2015-11-19T10:16:12Z</time>
      </trkpt>
      <trkpt lat="48.03748" lon="2.82563">
        <ele>118</ele>
        <time>2015-11-19T10:16:13Z</time>
      </trkpt>
      <trkpt lat="48.03752" lon="2.82559">
        <ele>118</ele>
        <time>2015-11-19T10:16:14Z</time>
      </trkpt>
      <trkpt lat="48.03755" lon="2.82556">
        <ele>118</ele>
        <time>2015-11-19T10:16:15Z</time>
      </trkpt>
      <trkpt lat="48.03758" lon="2.82552">
        <ele>118</ele>
        <time>2015-11-19T10:16:16Z</time>
      </trkpt>
      <trkpt lat="48.03762" lon="2.82549">
        <ele>118</ele>
        <time>2015-11-19T10:16:17Z</time>
      </trkpt>
      <trkpt lat="48.03765" lon="2.82545">
        <ele>118</ele>
        <time>2015-11-19T10:16:18Z</time>
      </trkpt>
      <trkpt lat="48.03769" lon="2.82542">
        <ele>118</ele>
        <time>2015-11-19T10:16:19Z</time>
      </trkpt>
      <trkpt lat="48.03772" lon="2.82539">
        <ele>118</ele>
        <time>2015-11-19T10:16:20Z</time>
      </trkpt>
      <trkpt lat="48.03775" lon="2.82535">
        <ele>118</ele>
        <time>2015-11-19T10:16:21Z</time>
      </trkpt>
      <trkpt lat="48.03779" lon="2.82532">
        <ele>118</ele>
        <time>2015-11-19T10:16:22Z</time>
      </trkpt>
      <trkpt lat="48.03782" lon="2.82528">
        <ele>118</ele>
        <time>2015-11-19T10:16:23Z</time>
      </trkpt>
      <trkpt lat="48.03786" lon="2.82526">
        <ele>118</ele>
        <time>2015-11-19T10:16:24Z</time>
      </trkpt>
      <trkpt lat="48.0379" lon="2.82523">
        <ele>118</ele>
        <time>2015-11-19T10:16:25Z</time>
      </trkpt>
      <trkpt lat="48.03793" lon="2.8252">
        <ele>118</ele>
        <time>2015-11-19T10:16:26Z</time>
      </trkpt>
      <trkpt lat="48.03796" lon="2.82517">
        <ele>118</ele>
        <time>2015-11-19T10:16:27Z</time>
      </trkpt>
      <trkpt lat="48.03799" lon="2.82514">
        <ele>118</ele>
        <time>2015-11-19T10:16:28Z</time>
      </trkpt>
      <trkpt lat="48.03801" lon="2.8251">
        <ele>118</ele>
        <time>2015-11-19T10:16:29Z</time>
      </trkpt>
      <trkpt lat="48.03801" lon="2.82506">
        <ele>118</ele>
        <time>2015-11-19T10:16:30Z</time>
      </trkpt>
      <trkpt lat="48.038" lon="2.825">
        <ele>118</ele>
        <time>2015-11-19T10:16:31Z</time>
      </trkpt>
      <trkpt lat="48.03797" lon="2.82494">
        <ele>118</ele>
        <time>2015-11-19T10:16:32Z</time>
      </trkpt>
      <trkpt lat="48.03793" lon="2.82489">
        <ele>118</ele>
        <time>2015-11-19T10:16:33Z</time>
      </trkpt>
      <trkpt lat="48.03789" lon="2.82487">
        <ele>118</ele>
        <time>2015-11-19T10:16:34Z</time>
      </trkpt>
      <trkpt lat="48.03785" lon="2.82482">
        <ele>118</ele>
        <time>2015-11-19T10:16:35Z</time>
      </trkpt>
      <trkpt lat="48.03783" lon="2.82478">
        <ele>118</ele>
        <time>2015-11-19T10:16:36Z</time>
      </trkpt>
      <trkpt lat="48.03781" lon="2.82475">
        <ele>118</ele>
        <time>2015-11-19T10:16:37Z</time>
      </trkpt>
      <trkpt lat="48.03779" lon="2.82472">
        <ele>118</ele>
        <time>2015-11-19T10:16:38Z</time>
      </trkpt>
      <trkpt lat="48.03776" lon="2.82468">
        <ele>118</ele>
        <time>2015-11-19T10:16:39Z</time>
      </trkpt>
      <trkpt lat="48.03773" lon="2.82463">
        <ele>118</ele>
        <time>2015-11-19T10:16:40Z</time>
      </trkpt>
      <trkpt lat="48.03769" lon="2.82458">
        <ele>118</ele>
        <time>2015-11-19T10:16:41Z</time>
      </trkpt>
      <trkpt lat="48.03765" lon="2.82453">
        <ele>118</ele>
        <time>2015-11-19T10:16:42Z</time>
      </trkpt>
      <trkpt lat="48.03762" lon="2.82448">
        <ele>118</ele>
        <time>2015-11-19T10:16:43Z</time>
      </trkpt>
      <trkpt lat="48.03758" lon="2.82443">
        <ele>118</ele>
        <time>2015-11-19T10:16:44Z</time>
      </trkpt>
      <trkpt lat="48.03754" lon="2.82437">
        <ele>118</ele>
        <time>2015-11-19T10:16:45Z</time>
      </trkpt>
      <trkpt lat="48.0375" lon="2.82432">
        <ele>118</ele>
        <time>2015-11-19T10:16:46Z</time>
      </trkpt>
      <trkpt lat="48.03746" lon="2.82427">
        <ele>118</ele>
        <time>2015-11-19T10:16:47Z</time>
      </trkpt>
      <trkpt lat="48.03742" lon="2.82421">
        <ele>118</ele>
        <time>2015-11-19T10:16:48Z</time>
      </trkpt>
      <trkpt lat="48.03738" lon="2.82415">
        <ele>118</ele>
        <time>2015-11-19T10:16:49Z</time>
      </trkpt>
      <trkpt lat="48.03734" lon="2.8241">
        <ele>118</ele>
        <time>2015-11-19T10:16:50Z</time>
      </trkpt>
      <trkpt lat="48.03731" lon="2.82404">
        <ele>118</ele>
        <time>2015-11-19T10:16:51Z</time>
      </trkpt>
      <trkpt lat="48.03727" lon="2.82399">
        <ele>118</ele>
        <time>2015-11-19T10:16:52Z</time>
      </trkpt>
      <trkpt lat="48.03723" lon="2.82393">
        <ele>118</ele>
        <time>2015-11-19T10:16:53Z</time>
      </trkpt>
      <trkpt lat="48.03719" lon="2.82388">
        <ele>118</ele>
        <time>2015-11-19T10:16:54Z</time>
      </trkpt>
      <trkpt lat="48.03716" lon="2.82382">
        <ele>118</ele>
        <time>2015-11-19T10:16:55Z</time>
      </trkpt>
      <trkpt lat="48.03708" lon="2.82371">
        <ele>118</ele>
        <time>2015-11-19T10:16:57Z</time>
      </trkpt>
      <trkpt lat="48.03704" lon="2.82365">
        <ele>118</ele>
        <time>2015-11-19T10:16:58Z</time>
      </trkpt>
      <trkpt lat="48.03701" lon="2.8236">
        <ele>118</ele>
        <time>2015-11-19T10:16:59Z</time>
      </trkpt>
      <trkpt lat="48.03697" lon="2.82353">
        <ele>118</ele>
        <time>2015-11-19T10:17:00Z</time>
      </trkpt>
      <trkpt lat="48.03693" lon="2.82347">
        <ele>118</ele>
        <time>2015-11-19T10:17:01Z</time>
      </trkpt>
      <trkpt lat="48.0369" lon="2.82341">
        <ele>118</ele>
        <time>2015-11-19T10:17:02Z</time>
      </trkpt>
      <trkpt lat="48.03686" lon="2.82335">
        <ele>118</ele>
        <time>2015-11-19T10:17:03Z</time>
      </trkpt>
      <trkpt lat="48.03682" lon="2.82328">
        <ele>118</ele>
        <time>2015-11-19T10:17:04Z</time>
      </trkpt>
      <trkpt lat="48.03677" lon="2.82321">
        <ele>118</ele>
        <time>2015-11-19T10:17:05Z</time>
      </trkpt>
      <trkpt lat="48.03673" lon="2.82314">
        <ele>118</ele>
        <time>2015-11-19T10:17:06Z</time>
      </trkpt>
      <trkpt lat="48.03668" lon="2.82308">
        <ele>118</ele>
        <time>2015-11-19T10:17:07Z</time>
      </trkpt>
      <trkpt lat="48.03664" lon="2.823">
        <ele>118</ele>
        <time>2015-11-19T10:17:08Z</time>
      </trkpt>
      <trkpt lat="48.03659" lon="2.82294">
        <ele>118</ele>
        <time>2015-11-19T10:17:09Z</time>
      </trkpt>
      <trkpt lat="48.03655" lon="2.82287">
        <ele>118</ele>
        <time>2015-11-19T10:17:10Z</time>
      </trkpt>
      <trkpt lat="48.03651" lon="2.8228">
        <ele>118</ele>
        <time>2015-11-19T10:17:11Z</time>
      </trkpt>
      <trkpt lat="48.03646" lon="2.82274">
        <ele>118</ele>
        <time>2015-11-19T10:17:12Z</time>
      </trkpt>
      <trkpt lat="48.03642" lon="2.82268">
        <ele>118</ele>
        <time>2015-11-19T10:17:13Z</time>
      </trkpt>
      <trkpt lat="48.03638" lon="2.82262">
        <ele>118</ele>
        <time>2015-11-19T10:17:14Z</time>
      </trkpt>
      <trkpt lat="48.03634" lon="2.82257">
        <ele>118</ele>
        <time>2015-11-19T10:17:15Z</time>
      </trkpt>
      <trkpt lat="48.0363" lon="2.82251">
        <ele>118</ele>
        <time>2015-11-19T10:17:16Z</time>
      </trkpt>
      <trkpt lat="48.03625" lon="2.82245">
        <ele>118</ele>
        <time>2015-11-19T10:17:17Z</time>
      </trkpt>
      <trkpt lat="48.03622" lon="2.82239">
        <ele>118</ele>
        <time>2015-11-19T10:17:18Z</time>
      </trkpt>
      <trkpt lat="48.03618" lon="2.82234">
        <ele>118</ele>
        <time>2015-11-19T10:17:19Z</time>
      </trkpt>
      <trkpt lat="48.03615" lon="2.82229">
        <ele>118</ele>
        <time>2015-11-19T10:17:20Z</time>
      </trkpt>
      <trkpt lat="48.03611" lon="2.82224">
        <ele>118</ele>
        <time>2015-11-19T10:17:21Z</time>
      </trkpt>
      <trkpt lat="48.03608" lon="2.82219">
        <ele>118</ele>
        <time>2015-11-19T10:17:22Z</time>
      </trkpt>
      <trkpt lat="48.03605" lon="2.82214">
        <ele>118</ele>
        <time>2015-11-19T10:17:23Z</time>
      </trkpt>
      <trkpt lat="48.03601" lon="2.82209">
        <ele>118</ele>
        <time>2015-11-19T10:17:24Z</time>
      </trkpt>
      <trkpt lat="48.03598" lon="2.82204">
        <ele>118</ele>
        <time>2015-11-19T10:17:25Z</time>
      </trkpt>
      <trkpt lat="48.03595" lon="2.82198">
        <ele>118</ele>
        <time>2015-11-19T10:17:26Z</time>
      </trkpt>
      <trkpt lat="48.03591" lon="2.82193">
        <ele>118</ele>
        <time>2015-11-19T10:17:27Z</time>
      </trkpt>
      <trkpt lat="48.03587" lon="2.82188">
        <ele>118</ele>
        <time>2015-11-19T10:17:28Z</time>
      </trkpt>
      <trkpt lat="48.03584" lon="2.82182">
        <ele>118</ele>
        <time>2015-11-19T10:17:29Z</time>
      </trkpt>
      <trkpt lat="48.03581" lon="2.82177">
        <ele>118</ele>
        <time>2015-11-19T10:17:30Z</time>
      </trkpt>
      <trkpt lat="48.03578" lon="2.82172">
        <ele>118</ele>
        <time>2015-11-19T10:17:31Z</time>
      </trkpt>
      <trkpt lat="48.03574" lon="2.82167">
        <ele>118</ele>
        <time>2015-11-19T10:17:32Z</time>
      </trkpt>
      <trkpt lat="48.0357" lon="2.82161">
        <ele>118</ele>
        <time>2015-11-19T10:17:33Z</time>
      </trkpt>
      <trkpt lat="48.03567" lon="2.82156">
        <ele>118</ele>
        <time>2015-11-19T10:17:34Z</time>
      </trkpt>
      <trkpt lat="48.03563" lon="2.82151">
        <ele>118</ele>
        <time>2015-11-19T10:17:35Z</time>
      </trkpt>
      <trkpt lat="48.0356" lon="2.82146">
        <ele>118</ele>
        <time>2015-11-19T10:17:36Z</time>
      </trkpt>
      <trkpt lat="48.03556" lon="2.8214">
        <ele>118</ele>
        <time>2015-11-19T10:17:37Z</time>
      </trkpt>
      <trkpt lat="48.03552" lon="2.82135">
        <ele>118</ele>
        <time>2015-11-19T10:17:38Z</time>
      </trkpt>
      <trkpt lat="48.03548" lon="2.82129">
        <ele>118</ele>
        <time>2015-11-19T10:17:39Z</time>
      </trkpt>
      <trkpt lat="48.03545" lon="2.82123">
        <ele>118</ele>
        <time>2015-11-19T10:17:40Z</time>
      </trkpt>
      <trkpt lat="48.03541" lon="2.82118">
        <ele>118</ele>
        <time>2015-11-19T10:17:41Z</time>
      </trkpt>
      <trkpt lat="48.03538" lon="2.82113">
        <ele>118</ele>
        <time>2015-11-19T10:17:42Z</time>
      </trkpt>
      <trkpt lat="48.03534" lon="2.82108">
        <ele>118</ele>
        <time>2015-11-19T10:17:43Z</time>
      </trkpt>
      <trkpt lat="48.0353" lon="2.82102">
        <ele>118</ele>
        <time>2015-11-19T10:17:44Z</time>
      </trkpt>
      <trkpt lat="48.03527" lon="2.82097">
        <ele>118</ele>
        <time>2015-11-19T10:17:45Z</time>
      </trkpt>
      <trkpt lat="48.03523" lon="2.82091">
        <ele>118</ele>
        <time>2015-11-19T10:17:46Z</time>
      </trkpt>
      <trkpt lat="48.03519" lon="2.82085">
        <ele>118</ele>
        <time>2015-11-19T10:17:47Z</time>
      </trkpt>
      <trkpt lat="48.03516" lon="2.8208">
        <ele>118</ele>
        <time>2015-11-19T10:17:48Z</time>
      </trkpt>
      <trkpt lat="48.03513" lon="2.82074">
        <ele>118</ele>
        <time>2015-11-19T10:17:49Z</time>
      </trkpt>
      <trkpt lat="48.0351" lon="2.82068">
        <ele>118</ele>
        <time>2015-11-19T10:17:50Z</time>
      </trkpt>
      <trkpt lat="48.03506" lon="2.82063">
        <ele>118</ele>
        <time>2015-11-19T10:17:51Z</time>
      </trkpt>
      <trkpt lat="48.03503" lon="2.82057">
        <ele>118</ele>
        <time>2015-11-19T10:17:52Z</time>
      </trkpt>
      <trkpt lat="48.035" lon="2.82052">
        <ele>118</ele>
        <time>2015-11-19T10:17:53Z</time>
      </trkpt>
      <trkpt lat="48.03498" lon="2.82047">
        <ele>118</ele>
        <time>2015-11-19T10:17:54Z</time>
      </trkpt>
      <trkpt lat="48.03494" lon="2.82042">
        <ele>118</ele>
        <time>2015-11-19T10:17:55Z</time>
      </trkpt>
      <trkpt lat="48.03491" lon="2.82036">
        <ele>118</ele>
        <time>2015-11-19T10:17:56Z</time>
      </trkpt>
      <trkpt lat="48.03488" lon="2.82032">
        <ele>118</ele>
        <time>2015-11-19T10:17:57Z</time>
      </trkpt>
      <trkpt lat="48.03486" lon="2.82027">
        <ele>118</ele>
        <time>2015-11-19T10:17:58Z</time>
      </trkpt>
      <trkpt lat="48.03486" lon="2.82023">
        <ele>118</ele>
        <time>2015-11-19T10:17:59Z</time>
      </trkpt>
      <trkpt lat="48.03487" lon="2.82019">
        <ele>118</ele>
        <time>2015-11-19T10:18:00Z</time>
      </trkpt>
      <trkpt lat="48.0349" lon="2.82016">
        <ele>118</ele>
        <time>2015-11-19T10:18:01Z</time>
      </trkpt>
      <trkpt lat="48.03492" lon="2.82013">
        <ele>118</ele>
        <time>2015-11-19T10:18:02Z</time>
      </trkpt>
      <trkpt lat="48.03495" lon="2.82012">
        <ele>119</ele>
        <time>2015-11-19T10:18:03Z</time>
      </trkpt>
      <trkpt lat="48.03499" lon="2.82011">
        <ele>119</ele>
        <time>2015-11-19T10:18:04Z</time>
      </trkpt>
      <trkpt lat="48.03503" lon="2.8201">
        <ele>120</ele>
        <time>2015-11-19T10:18:05Z</time>
      </trkpt>
      <trkpt lat="48.03508" lon="2.8201">
        <ele>121</ele>
        <time>2015-11-19T10:18:06Z</time>
      </trkpt>
      <trkpt lat="48.03513" lon="2.8201">
        <ele>122</ele>
        <time>2015-11-19T10:18:07Z</time>
      </trkpt>
      <trkpt lat="48.03518" lon="2.82009">
        <ele>123</ele>
        <time>2015-11-19T10:18:08Z</time>
      </trkpt>
      <trkpt lat="48.03524" lon="2.82007">
        <ele>124</ele>
        <time>2015-11-19T10:18:09Z</time>
      </trkpt>
      <trkpt lat="48.0353" lon="2.82005">
        <ele>125</ele>
        <time>2015-11-19T10:18:10Z</time>
      </trkpt>
      <trkpt lat="48.03537" lon="2.82004">
        <ele>126</ele>
        <time>2015-11-19T10:18:11Z</time>
      </trkpt>
      <trkpt lat="48.03542" lon="2.82003">
        <ele>127</ele>
        <time>2015-11-19T10:18:12Z</time>
      </trkpt>
      <trkpt lat="48.03549" lon="2.82002">
        <ele>128</ele>
        <time>2015-11-19T10:18:13Z</time>
      </trkpt>
      <trkpt lat="48.03555" lon="2.82001">
        <ele>129</ele>
        <time>2015-11-19T10:18:14Z</time>
      </trkpt>
      <trkpt lat="48.03566" lon="2.81999">
        <ele>129</ele>
        <time>2015-11-19T10:18:16Z</time>
      </trkpt>
      <trkpt lat="48.03572" lon="2.81997">
        <ele>130</ele>
        <time>2015-11-19T10:18:17Z</time>
      </trkpt>
      <trkpt lat="48.03578" lon="2.81996">
        <ele>130</ele>
        <time>2015-11-19T10:18:18Z</time>
      </trkpt>
      <trkpt lat="48.03584" lon="2.81995">
        <ele>131</ele>
        <time>2015-11-19T10:18:19Z</time>
      </trkpt>
      <trkpt lat="48.0359" lon="2.81994">
        <ele>131</ele>
        <time>2015-11-19T10:18:20Z</time>
      </trkpt>
      <trkpt lat="48.03595" lon="2.81992">
        <ele>131</ele>
        <time>2015-11-19T10:18:21Z</time>
      </trkpt>
      <trkpt lat="48.03602" lon="2.81991">
        <ele>131</ele>
        <time>2015-11-19T10:18:22Z</time>
      </trkpt>
      <trkpt lat="48.0361" lon="2.81989">
        <ele>131</ele>
        <time>2015-11-19T10:18:23Z</time>
      </trkpt>
      <trkpt lat="48.03616" lon="2.81988">
        <ele>130</ele>
        <time>2015-11-19T10:18:24Z</time>
      </trkpt>
      <trkpt lat="48.03623" lon="2.81986">
        <ele>129</ele>
        <time>2015-11-19T10:18:25Z</time>
      </trkpt>
      <trkpt lat="48.0363" lon="2.81985">
        <ele>128</ele>
        <time>2015-11-19T10:18:26Z</time>
      </trkpt>
      <trkpt lat="48.03637" lon="2.81984">
        <ele>127</ele>
        <time>2015-11-19T10:18:27Z</time>
      </trkpt>
      <trkpt lat="48.03645" lon="2.81983">
        <ele>127</ele>
        <time>2015-11-19T10:18:28Z</time>
      </trkpt>
      <trkpt lat="48.03651" lon="2.81981">
        <ele>127</ele>
        <time>2015-11-19T10:18:29Z</time>
      </trkpt>
      <trkpt lat="48.03658" lon="2.8198">
        <ele>127</ele>
        <time>2015-11-19T10:18:30Z</time>
      </trkpt>
      <trkpt lat="48.03665" lon="2.8198">
        <ele>127</ele>
        <time>2015-11-19T10:18:31Z</time>
      </trkpt>
      <trkpt lat="48.03672" lon="2.81979">
        <ele>127</ele>
        <time>2015-11-19T10:18:32Z</time>
      </trkpt>
      <trkpt lat="48.03678" lon="2.81978">
        <ele>127</ele>
        <time>2015-11-19T10:18:33Z</time>
      </trkpt>
      <trkpt lat="48.03685" lon="2.81978">
        <ele>127</ele>
        <time>2015-11-19T10:18:34Z</time>
      </trkpt>
      <trkpt lat="48.03693" lon="2.81977">
        <ele>127</ele>
        <time>2015-11-19T10:18:35Z</time>
      </trkpt>
      <trkpt lat="48.037" lon="2.81976">
        <ele>126</ele>
        <time>2015-11-19T10:18:36Z</time>
      </trkpt>
      <trkpt lat="48.03706" lon="2.81974">
        <ele>125</ele>
        <time>2015-11-19T10:18:37Z</time>
      </trkpt>
      <trkpt lat="48.03713" lon="2.81972">
        <ele>125</ele>
        <time>2015-11-19T10:18:38Z</time>
      </trkpt>
      <trkpt lat="48.03719" lon="2.8197">
        <ele>124</ele>
        <time>2015-11-19T10:18:39Z</time>
      </trkpt>
      <trkpt lat="48.03725" lon="2.81968">
        <ele>124</ele>
        <time>2015-11-19T10:18:40Z</time>
      </trkpt>
      <trkpt lat="48.03732" lon="2.81968">
        <ele>124</ele>
        <time>2015-11-19T10:18:41Z</time>
      </trkpt>
      <trkpt lat="48.03738" lon="2.81967">
        <ele>124</ele>
        <time>2015-11-19T10:18:42Z</time>
      </trkpt>
      <trkpt lat="48.03745" lon="2.81967">
        <ele>124</ele>
        <time>2015-11-19T10:18:43Z</time>
      </trkpt>
      <trkpt lat="48.03753" lon="2.81964">
        <ele>124</ele>
        <time>2015-11-19T10:18:44Z</time>
      </trkpt>
      <trkpt lat="48.0376" lon="2.81962">
        <ele>124</ele>
        <time>2015-11-19T10:18:45Z</time>
      </trkpt>
      <trkpt lat="48.03767" lon="2.81961">
        <ele>124</ele>
        <time>2015-11-19T10:18:46Z</time>
      </trkpt>
      <trkpt lat="48.03774" lon="2.81959">
        <ele>124</ele>
        <time>2015-11-19T10:18:47Z</time>
      </trkpt>
      <trkpt lat="48.03781" lon="2.81958">
        <ele>124</ele>
        <time>2015-11-19T10:18:48Z</time>
      </trkpt>
      <trkpt lat="48.03788" lon="2.81957">
        <ele>124</ele>
        <time>2015-11-19T10:18:49Z</time>
      </trkpt>
      <trkpt lat="48.03796" lon="2.81956">
        <ele>124</ele>
        <time>2015-11-19T10:18:50Z</time>
      </trkpt>
      <trkpt lat="48.03803" lon="2.81954">
        <ele>124</ele>
        <time>2015-11-19T10:18:51Z</time>
      </trkpt>
      <trkpt lat="48.03811" lon="2.81953">
        <ele>123</ele>
        <time>2015-11-19T10:18:52Z</time>
      </trkpt>
      <trkpt lat="48.03819" lon="2.81952">
        <ele>123</ele>
        <time>2015-11-19T10:18:53Z</time>
      </trkpt>
      <trkpt lat="48.03826" lon="2.81952">
        <ele>123</ele>
        <time>2015-11-19T10:18:54Z</time>
      </trkpt>
      <trkpt lat="48.03833" lon="2.8195">
        <ele>123</ele>
        <time>2015-11-19T10:18:55Z</time>
      </trkpt>
      <trkpt lat="48.0384" lon="2.81947">
        <ele>122</ele>
        <time>2015-11-19T10:18:56Z</time>
      </trkpt>
      <trkpt lat="48.03848" lon="2.81943">
        <ele>122</ele>
        <time>2015-11-19T10:18:57Z</time>
      </trkpt>
      <trkpt lat="48.03854" lon="2.81939">
        <ele>121</ele>
        <time>2015-11-19T10:18:58Z</time>
      </trkpt>
      <trkpt lat="48.03861" lon="2.81934">
        <ele>121</ele>
        <time>2015-11-19T10:18:59Z</time>
      </trkpt>
      <trkpt lat="48.03867" lon="2.81928">
        <ele>120</ele>
        <time>2015-11-19T10:19:00Z</time>
      </trkpt>
      <trkpt lat="48.03873" lon="2.81922">
        <ele>119</ele>
        <time>2015-11-19T10:19:01Z</time>
      </trkpt>
      <trkpt lat="48.03878" lon="2.81916">
        <ele>118</ele>
        <time>2015-11-19T10:19:02Z</time>
      </trkpt>
      <trkpt lat="48.03882" lon="2.81912">
        <ele>118</ele>
        <time>2015-11-19T10:19:03Z</time>
      </trkpt>
      <trkpt lat="48.03886" lon="2.81905">
        <ele>117</ele>
        <time>2015-11-19T10:19:04Z</time>
      </trkpt>
      <trkpt lat="48.0389" lon="2.81899">
        <ele>117</ele>
        <time>2015-11-19T10:19:05Z</time>
      </trkpt>
      <trkpt lat="48.03894" lon="2.81894">
        <ele>117</ele>
        <time>2015-11-19T10:19:06Z</time>
      </trkpt>
      <trkpt lat="48.03896" lon="2.8189">
        <ele>116</ele>
        <time>2015-11-19T10:19:07Z</time>
      </trkpt>
      <trkpt lat="48.03894" lon="2.81888">
        <ele>116</ele>
        <time>2015-11-19T10:19:09Z</time>
      </trkpt>
      <trkpt lat="48.03893" lon="2.81892">
        <ele>114</ele>
        <time>2015-11-19T10:19:12Z</time>
      </trkpt>
      <trkpt lat="48.03891" lon="2.81894">
        <ele>113</ele>
        <time>2015-11-19T10:19:14Z</time>
      </trkpt>
      <trkpt lat="48.03889" lon="2.81894">
        <ele>112</ele>
        <time>2015-11-19T10:19:15Z</time>
      </trkpt>
      <trkpt lat="48.03887" lon="2.81893">
        <ele>111</ele>
        <time>2015-11-19T10:19:16Z</time>
      </trkpt>
      <trkpt lat="48.03883" lon="2.81886">
        <ele>110</ele>
        <time>2015-11-19T10:19:18Z</time>
      </trkpt>
      <trkpt lat="48.03881" lon="2.81881">
        <ele>109</ele>
        <time>2015-11-19T10:19:19Z</time>
      </trkpt>
      <trkpt lat="48.03879" lon="2.81876">
        <ele>109</ele>
        <time>2015-11-19T10:19:20Z</time>
      </trkpt>
      <trkpt lat="48.03876" lon="2.81872">
        <ele>109</ele>
        <time>2015-11-19T10:19:21Z</time>
      </trkpt>
      <trkpt lat="48.03874" lon="2.81867">
        <ele>109</ele>
        <time>2015-11-19T10:19:22Z</time>
      </trkpt>
      <trkpt lat="48.03871" lon="2.81862">
        <ele>108</ele>
        <time>2015-11-19T10:19:23Z</time>
      </trkpt>
      <trkpt lat="48.03868" lon="2.81857">
        <ele>108</ele>
        <time>2015-11-19T10:19:24Z</time>
      </trkpt>
      <trkpt lat="48.03865" lon="2.81853">
        <ele>108</ele>
        <time>2015-11-19T10:19:25Z</time>
      </trkpt>
      <trkpt lat="48.03863" lon="2.81847">
        <ele>108</ele>
        <time>2015-11-19T10:19:26Z</time>
      </trkpt>
      <trkpt lat="48.0386" lon="2.81842">
        <ele>108</ele>
        <time>2015-11-19T10:19:27Z</time>
      </trkpt>
      <trkpt lat="48.03857" lon="2.81838">
        <ele>108</ele>
        <time>2015-11-19T10:19:28Z</time>
      </trkpt>
      <trkpt lat="48.03855" lon="2.81833">
        <ele>108</ele>
        <time>2015-11-19T10:19:29Z</time>
      </trkpt>
      <trkpt lat="48.03852" lon="2.81828">
        <ele>108</ele>
        <time>2015-11-19T10:19:30Z</time>
      </trkpt>
      <trkpt lat="48.0385" lon="2.81824">
        <ele>108</ele>
        <time>2015-11-19T10:19:31Z</time>
      </trkpt>
      <trkpt lat="48.03847" lon="2.8182">
        <ele>108</ele>
        <time>2015-11-19T10:19:32Z</time>
      </trkpt>
      <trkpt lat="48.03845" lon="2.81815">
        <ele>108</ele>
        <time>2015-11-19T10:19:33Z</time>
      </trkpt>
      <trkpt lat="48.03843" lon="2.81811">
        <ele>108</ele>
        <time>2015-11-19T10:19:34Z</time>
      </trkpt>
      <trkpt lat="48.0384" lon="2.81807">
        <ele>108</ele>
        <time>2015-11-19T10:19:35Z</time>
      </trkpt>
      <trkpt lat="48.03839" lon="2.81803">
        <ele>108</ele>
        <time>2015-11-19T10:19:36Z</time>
      </trkpt>
      <trkpt lat="48.03838" lon="2.818">
        <ele>108</ele>
        <time>2015-11-19T10:19:37Z</time>
      </trkpt>
      <trkpt lat="48.03837" lon="2.81797">
        <ele>108</ele>
        <time>2015-11-19T10:19:38Z</time>
      </trkpt>
      <trkpt lat="48.03837" lon="2.81795">
        <ele>108</ele>
        <time>2015-11-19T10:19:39Z</time>
      </trkpt>
      <trkpt lat="48.03837" lon="2.81793">
        <ele>108</ele>
        <time>2015-11-19T10:19:40Z</time>
      </trkpt>
      <trkpt lat="48.03836" lon="2.81791">
        <ele>108</ele>
        <time>2015-11-19T10:19:42Z</time>
      </trkpt>
      <trkpt lat="48.03851" lon="2.81815">
        <ele>96</ele>
        <time>2015-11-19T10:19:47Z</time>
      </trkpt>
      <trkpt lat="48.03852" lon="2.81819">
        <ele>96</ele>
        <time>2015-11-19T10:19:48Z</time>
      </trkpt>
      <trkpt lat="48.03854" lon="2.81824">
        <ele>96</ele>
        <time>2015-11-19T10:19:49Z</time>
      </trkpt>
      <trkpt lat="48.03856" lon="2.8183">
        <ele>96</ele>
        <time>2015-11-19T10:19:50Z</time>
      </trkpt>
      <trkpt lat="48.03858" lon="2.81837">
        <ele>96</ele>
        <time>2015-11-19T10:19:51Z</time>
      </trkpt>
      <trkpt lat="48.0386" lon="2.81843">
        <ele>97</ele>
        <time>2015-11-19T10:19:52Z</time>
      </trkpt>
      <trkpt lat="48.03863" lon="2.8185">
        <ele>97</ele>
        <time>2015-11-19T10:19:53Z</time>
      </trkpt>
      <trkpt lat="48.03866" lon="2.81856">
        <ele>97</ele>
        <time>2015-11-19T10:19:54Z</time>
      </trkpt>
      <trkpt lat="48.03869" lon="2.81863">
        <ele>98</ele>
        <time>2015-11-19T10:19:55Z</time>
      </trkpt>
      <trkpt lat="48.03873" lon="2.81869">
        <ele>98</ele>
        <time>2015-11-19T10:19:56Z</time>
      </trkpt>
      <trkpt lat="48.03877" lon="2.81874">
        <ele>98</ele>
        <time>2015-11-19T10:19:57Z</time>
      </trkpt>
      <trkpt lat="48.03881" lon="2.81881">
        <ele>98</ele>
        <time>2015-11-19T10:19:58Z</time>
      </trkpt>
      <trkpt lat="48.03884" lon="2.81886">
        <ele>99</ele>
        <time>2015-11-19T10:19:59Z</time>
      </trkpt>
      <trkpt lat="48.03887" lon="2.81889">
        <ele>100</ele>
        <time>2015-11-19T10:20:00Z</time>
      </trkpt>
      <trkpt lat="48.03891" lon="2.81891">
        <ele>101</ele>
        <time>2015-11-19T10:20:01Z</time>
      </trkpt>
      <trkpt lat="48.03894" lon="2.81891">
        <ele>102</ele>
        <time>2015-11-19T10:20:02Z</time>
      </trkpt>
      <trkpt lat="48.03896" lon="2.8189">
        <ele>103</ele>
        <time>2015-11-19T10:20:03Z</time>
      </trkpt>
      <trkpt lat="48.03899" lon="2.81888">
        <ele>104</ele>
        <time>2015-11-19T10:20:04Z</time>
      </trkpt>
      <trkpt lat="48.039" lon="2.81883">
        <ele>105</ele>
        <time>2015-11-19T10:20:05Z</time>
      </trkpt>
      <trkpt lat="48.03903" lon="2.81875">
        <ele>106</ele>
        <time>2015-11-19T10:20:06Z</time>
      </trkpt>
      <trkpt lat="48.03906" lon="2.81867">
        <ele>107</ele>
        <time>2015-11-19T10:20:07Z</time>
      </trkpt>
      <trkpt lat="48.03908" lon="2.81859">
        <ele>107</ele>
        <time>2015-11-19T10:20:08Z</time>
      </trkpt>
      <trkpt lat="48.03907" lon="2.81849">
        <ele>107</ele>
        <time>2015-11-19T10:20:09Z</time>
      </trkpt>
      <trkpt lat="48.03907" lon="2.81838">
        <ele>107</ele>
        <time>2015-11-19T10:20:10Z</time>
      </trkpt>
      <trkpt lat="48.03908" lon="2.81829">
        <ele>107</ele>
        <time>2015-11-19T10:20:11Z</time>
      </trkpt>
      <trkpt lat="48.03907" lon="2.81818">
        <ele>107</ele>
        <time>2015-11-19T10:20:12Z</time>
      </trkpt>
      <trkpt lat="48.03906" lon="2.81807">
        <ele>107</ele>
        <time>2015-11-19T10:20:13Z</time>
      </trkpt>
      <trkpt lat="48.03905" lon="2.81797">
        <ele>107</ele>
        <time>2015-11-19T10:20:14Z</time>
      </trkpt>
      <trkpt lat="48.03904" lon="2.81788">
        <ele>107</ele>
        <time>2015-11-19T10:20:15Z</time>
      </trkpt>
      <trkpt lat="48.03905" lon="2.8178">
        <ele>107</ele>
        <time>2015-11-19T10:20:16Z</time>
      </trkpt>
      <trkpt lat="48.03906" lon="2.81772">
        <ele>108</ele>
        <time>2015-11-19T10:20:17Z</time>
      </trkpt>
      <trkpt lat="48.03908" lon="2.81764">
        <ele>109</ele>
        <time>2015-11-19T10:20:18Z</time>
      </trkpt>
      <trkpt lat="48.0391" lon="2.81756">
        <ele>109</ele>
        <time>2015-11-19T10:20:19Z</time>
      </trkpt>
      <trkpt lat="48.03913" lon="2.81749">
        <ele>109</ele>
        <time>2015-11-19T10:20:20Z</time>
      </trkpt>
      <trkpt lat="48.03915" lon="2.81741">
        <ele>109</ele>
        <time>2015-11-19T10:20:21Z</time>
      </trkpt>
      <trkpt lat="48.03917" lon="2.81732">
        <ele>109</ele>
        <time>2015-11-19T10:20:22Z</time>
      </trkpt>
      <trkpt lat="48.03919" lon="2.81724">
        <ele>109</ele>
        <time>2015-11-19T10:20:23Z</time>
      </trkpt>
      <trkpt lat="48.0392" lon="2.81714">
        <ele>109</ele>
        <time>2015-11-19T10:20:24Z</time>
      </trkpt>
      <trkpt lat="48.03922" lon="2.81705">
        <ele>109</ele>
        <time>2015-11-19T10:20:25Z</time>
      </trkpt>
      <trkpt lat="48.03923" lon="2.81697">
        <ele>109</ele>
        <time>2015-11-19T10:20:26Z</time>
      </trkpt>
      <trkpt lat="48.03925" lon="2.81688">
        <ele>109</ele>
        <time>2015-11-19T10:20:27Z</time>
      </trkpt>
      <trkpt lat="48.03926" lon="2.8168">
        <ele>109</ele>
        <time>2015-11-19T10:20:28Z</time>
      </trkpt>
      <trkpt lat="48.03927" lon="2.81672">
        <ele>109</ele>
        <time>2015-11-19T10:20:29Z</time>
      </trkpt>
      <trkpt lat="48.03928" lon="2.81665">
        <ele>109</ele>
        <time>2015-11-19T10:20:30Z</time>
      </trkpt>
      <trkpt lat="48.03929" lon="2.81658">
        <ele>110</ele>
        <time>2015-11-19T10:20:31Z</time>
      </trkpt>
      <trkpt lat="48.03931" lon="2.81652">
        <ele>111</ele>
        <time>2015-11-19T10:20:32Z</time>
      </trkpt>
      <trkpt lat="48.03932" lon="2.81646">
        <ele>112</ele>
        <time>2015-11-19T10:20:33Z</time>
      </trkpt>
      <trkpt lat="48.03933" lon="2.8164">
        <ele>112</ele>
        <time>2015-11-19T10:20:34Z</time>
      </trkpt>
      <trkpt lat="48.03933" lon="2.81634">
        <ele>113</ele>
        <time>2015-11-19T10:20:35Z</time>
      </trkpt>
      <trkpt lat="48.03932" lon="2.81629">
        <ele>113</ele>
        <time>2015-11-19T10:20:36Z</time>
      </trkpt>
      <trkpt lat="48.03932" lon="2.81625">
        <ele>113</ele>
        <time>2015-11-19T10:20:37Z</time>
      </trkpt>
      <trkpt lat="48.03931" lon="2.81621">
        <ele>113</ele>
        <time>2015-11-19T10:20:38Z</time>
      </trkpt>
      <trkpt lat="48.03932" lon="2.81617">
        <ele>113</ele>
        <time>2015-11-19T10:20:39Z</time>
      </trkpt>
      <trkpt lat="48.03934" lon="2.81612">
        <ele>113</ele>
        <time>2015-11-19T10:20:40Z</time>
      </trkpt>
      <trkpt lat="48.03937" lon="2.81608">
        <ele>113</ele>
        <time>2015-11-19T10:20:41Z</time>
      </trkpt>
      <trkpt lat="48.0394" lon="2.81604">
        <ele>114</ele>
        <time>2015-11-19T10:20:42Z</time>
      </trkpt>
      <trkpt lat="48.03943" lon="2.81601">
        <ele>115</ele>
        <time>2015-11-19T10:20:43Z</time>
      </trkpt>
      <trkpt lat="48.03947" lon="2.81597">
        <ele>116</ele>
        <time>2015-11-19T10:20:44Z</time>
      </trkpt>
      <trkpt lat="48.03949" lon="2.81595">
        <ele>116</ele>
        <time>2015-11-19T10:20:45Z</time>
      </trkpt>
      <trkpt lat="48.03952" lon="2.81592">
        <ele>117</ele>
        <time>2015-11-19T10:20:46Z</time>
      </trkpt>
      <trkpt lat="48.03955" lon="2.8159">
        <ele>118</ele>
        <time>2015-11-19T10:20:47Z</time>
      </trkpt>
      <trkpt lat="48.03957" lon="2.81586">
        <ele>118</ele>
        <time>2015-11-19T10:20:48Z</time>
      </trkpt>
      <trkpt lat="48.03959" lon="2.81583">
        <ele>118</ele>
        <time>2015-11-19T10:20:49Z</time>
      </trkpt>
      <trkpt lat="48.03961" lon="2.8158">
        <ele>118</ele>
        <time>2015-11-19T10:20:50Z</time>
      </trkpt>
      <trkpt lat="48.03963" lon="2.81577">
        <ele>118</ele>
        <time>2015-11-19T10:20:51Z</time>
      </trkpt>
      <trkpt lat="48.03965" lon="2.81574">
        <ele>118</ele>
        <time>2015-11-19T10:20:52Z</time>
      </trkpt>
      <trkpt lat="48.03967" lon="2.81568">
        <ele>118</ele>
        <time>2015-11-19T10:20:53Z</time>
      </trkpt>
      <trkpt lat="48.0397" lon="2.81564">
        <ele>118</ele>
        <time>2015-11-19T10:20:54Z</time>
      </trkpt>
      <trkpt lat="48.03972" lon="2.81559">
        <ele>118</ele>
        <time>2015-11-19T10:20:55Z</time>
      </trkpt>
      <trkpt lat="48.03976" lon="2.81555">
        <ele>118</ele>
        <time>2015-11-19T10:20:56Z</time>
      </trkpt>
      <trkpt lat="48.03979" lon="2.81551">
        <ele>118</ele>
        <time>2015-11-19T10:20:57Z</time>
      </trkpt>
      <trkpt lat="48.03982" lon="2.81548">
        <ele>118</ele>
        <time>2015-11-19T10:20:58Z</time>
      </trkpt>
      <trkpt lat="48.03985" lon="2.81543">
        <ele>118</ele>
        <time>2015-11-19T10:20:59Z</time>
      </trkpt>
      <trkpt lat="48.03989" lon="2.8154">
        <ele>118</ele>
        <time>2015-11-19T10:21:00Z</time>
      </trkpt>
      <trkpt lat="48.0399" lon="2.81535">
        <ele>118</ele>
        <time>2015-11-19T10:21:01Z</time>
      </trkpt>
      <trkpt lat="48.03994" lon="2.81531">
        <ele>118</ele>
        <time>2015-11-19T10:21:02Z</time>
      </trkpt>
      <trkpt lat="48.03997" lon="2.81527">
        <ele>118</ele>
        <time>2015-11-19T10:21:03Z</time>
      </trkpt>
      <trkpt lat="48.04" lon="2.81523">
        <ele>117</ele>
        <time>2015-11-19T10:21:04Z</time>
      </trkpt>
      <trkpt lat="48.04003" lon="2.81519">
        <ele>117</ele>
        <time>2015-11-19T10:21:05Z</time>
      </trkpt>
      <trkpt lat="48.04006" lon="2.81515">
        <ele>117</ele>
        <time>2015-11-19T10:21:06Z</time>
      </trkpt>
      <trkpt lat="48.04008" lon="2.81508">
        <ele>117</ele>
        <time>2015-11-19T10:21:07Z</time>
      </trkpt>
      <trkpt lat="48.04011" lon="2.81503">
        <ele>117</ele>
        <time>2015-11-19T10:21:08Z</time>
      </trkpt>
      <trkpt lat="48.04014" lon="2.81497">
        <ele>117</ele>
        <time>2015-11-19T10:21:09Z</time>
      </trkpt>
      <trkpt lat="48.04018" lon="2.81491">
        <ele>117</ele>
        <time>2015-11-19T10:21:10Z</time>
      </trkpt>
      <trkpt lat="48.04021" lon="2.81485">
        <ele>117</ele>
        <time>2015-11-19T10:21:11Z</time>
      </trkpt>
      <trkpt lat="48.04025" lon="2.8148">
        <ele>117</ele>
        <time>2015-11-19T10:21:12Z</time>
      </trkpt>
      <trkpt lat="48.04029" lon="2.81475">
        <ele>117</ele>
        <time>2015-11-19T10:21:13Z</time>
      </trkpt>
      <trkpt lat="48.04033" lon="2.81471">
        <ele>117</ele>
        <time>2015-11-19T10:21:14Z</time>
      </trkpt>
      <trkpt lat="48.04037" lon="2.81466">
        <ele>117</ele>
        <time>2015-11-19T10:21:15Z</time>
      </trkpt>
      <trkpt lat="48.04042" lon="2.81462">
        <ele>117</ele>
        <time>2015-11-19T10:21:16Z</time>
      </trkpt>
      <trkpt lat="48.04045" lon="2.81458">
        <ele>117</ele>
        <time>2015-11-19T10:21:17Z</time>
      </trkpt>
      <trkpt lat="48.04049" lon="2.81454">
        <ele>117</ele>
        <time>2015-11-19T10:21:18Z</time>
      </trkpt>
      <trkpt lat="48.04052" lon="2.8145">
        <ele>116</ele>
        <time>2015-11-19T10:21:19Z</time>
      </trkpt>
      <trkpt lat="48.04056" lon="2.81445">
        <ele>115</ele>
        <time>2015-11-19T10:21:20Z</time>
      </trkpt>
      <trkpt lat="48.0406" lon="2.81441">
        <ele>115</ele>
        <time>2015-11-19T10:21:21Z</time>
      </trkpt>
      <trkpt lat="48.04063" lon="2.81437">
        <ele>114</ele>
        <time>2015-11-19T10:21:22Z</time>
      </trkpt>
      <trkpt lat="48.04067" lon="2.8143">
        <ele>114</ele>
        <time>2015-11-19T10:21:23Z</time>
      </trkpt>
      <trkpt lat="48.04071" lon="2.81424">
        <ele>114</ele>
        <time>2015-11-19T10:21:24Z</time>
      </trkpt>
      <trkpt lat="48.04074" lon="2.8142">
        <ele>114</ele>
        <time>2015-11-19T10:21:25Z</time>
      </trkpt>
      <trkpt lat="48.04078" lon="2.81416">
        <ele>114</ele>
        <time>2015-11-19T10:21:26Z</time>
      </trkpt>
      <trkpt lat="48.04081" lon="2.81412">
        <ele>114</ele>
        <time>2015-11-19T10:21:27Z</time>
      </trkpt>
      <trkpt lat="48.04084" lon="2.81407">
        <ele>114</ele>
        <time>2015-11-19T10:21:28Z</time>
      </trkpt>
      <trkpt lat="48.04087" lon="2.81403">
        <ele>114</ele>
        <time>2015-11-19T10:21:29Z</time>
      </trkpt>
      <trkpt lat="48.04091" lon="2.81399">
        <ele>114</ele>
        <time>2015-11-19T10:21:30Z</time>
      </trkpt>
      <trkpt lat="48.04094" lon="2.81394">
        <ele>114</ele>
        <time>2015-11-19T10:21:31Z</time>
      </trkpt>
      <trkpt lat="48.04098" lon="2.8139">
        <ele>114</ele>
        <time>2015-11-19T10:21:32Z</time>
      </trkpt>
      <trkpt lat="48.04102" lon="2.81386">
        <ele>114</ele>
        <time>2015-11-19T10:21:33Z</time>
      </trkpt>
      <trkpt lat="48.04105" lon="2.81382">
        <ele>114</ele>
        <time>2015-11-19T10:21:34Z</time>
      </trkpt>
      <trkpt lat="48.04107" lon="2.81379">
        <ele>113</ele>
        <time>2015-11-19T10:21:35Z</time>
      </trkpt>
      <trkpt lat="48.0411" lon="2.81375">
        <ele>112</ele>
        <time>2015-11-19T10:21:36Z</time>
      </trkpt>
      <trkpt lat="48.04113" lon="2.81372">
        <ele>111</ele>
        <time>2015-11-19T10:21:37Z</time>
      </trkpt>
      <trkpt lat="48.04116" lon="2.81369">
        <ele>110</ele>
        <time>2015-11-19T10:21:38Z</time>
      </trkpt>
      <trkpt lat="48.0412" lon="2.81366">
        <ele>109</ele>
        <time>2015-11-19T10:21:39Z</time>
      </trkpt>
      <trkpt lat="48.04123" lon="2.81363">
        <ele>108</ele>
        <time>2015-11-19T10:21:40Z</time>
      </trkpt>
      <trkpt lat="48.04127" lon="2.8136">
        <ele>107</ele>
        <time>2015-11-19T10:21:41Z</time>
      </trkpt>
      <trkpt lat="48.0413" lon="2.81358">
        <ele>106</ele>
        <time>2015-11-19T10:21:42Z</time>
      </trkpt>
      <trkpt lat="48.04133" lon="2.81356">
        <ele>105</ele>
        <time>2015-11-19T10:21:43Z</time>
      </trkpt>
      <trkpt lat="48.04136" lon="2.81353">
        <ele>104</ele>
        <time>2015-11-19T10:21:44Z</time>
      </trkpt>
      <trkpt lat="48.04138" lon="2.81351">
        <ele>103</ele>
        <time>2015-11-19T10:21:45Z</time>
      </trkpt>
      <trkpt lat="48.0414" lon="2.81347">
        <ele>102</ele>
        <time>2015-11-19T10:21:46Z</time>
      </trkpt>
      <trkpt lat="48.04142" lon="2.81345">
        <ele>101</ele>
        <time>2015-11-19T10:21:47Z</time>
      </trkpt>
      <trkpt lat="48.04143" lon="2.81343">
        <ele>98</ele>
        <time>2015-11-19T10:21:50Z</time>
      </trkpt>
      <trkpt lat="48.04151" lon="2.81328">
        <ele>94</ele>
        <time>2015-11-19T10:21:51Z</time>
      </trkpt>
      <trkpt lat="48.04152" lon="2.81324">
        <ele>94</ele>
        <time>2015-11-19T10:21:52Z</time>
      </trkpt>
      <trkpt lat="48.04153" lon="2.81322">
        <ele>94</ele>
        <time>2015-11-19T10:21:53Z</time>
      </trkpt>
      <trkpt lat="48.04153" lon="2.81321">
        <ele>94</ele>
        <time>2015-11-19T10:21:56Z</time>
      </trkpt>
      <trkpt lat="48.04152" lon="2.81311">
        <ele>97</ele>
        <time>2015-11-19T10:21:58Z</time>
      </trkpt>
      <trkpt lat="48.04152" lon="2.81294">
        <ele>106</ele>
        <time>2015-11-19T10:22:00Z</time>
      </trkpt>
      <trkpt lat="48.04151" lon="2.81291">
        <ele>107</ele>
        <time>2015-11-19T10:22:01Z</time>
      </trkpt>
      <trkpt lat="48.04151" lon="2.81289">
        <ele>108</ele>
        <time>2015-11-19T10:22:02Z</time>
      </trkpt>
      <trkpt lat="48.0415" lon="2.81288">
        <ele>109</ele>
        <time>2015-11-19T10:22:03Z</time>
      </trkpt>
      <trkpt lat="48.0415" lon="2.81286">
        <ele>111</ele>
        <time>2015-11-19T10:22:05Z</time>
      </trkpt>
      <trkpt lat="48.04156" lon="2.81279">
        <ele>114</ele>
        <time>2015-11-19T10:22:07Z</time>
      </trkpt>
      <trkpt lat="48.04159" lon="2.81276">
        <ele>114</ele>
        <time>2015-11-19T10:22:08Z</time>
      </trkpt>
      <trkpt lat="48.04162" lon="2.81274">
        <ele>114</ele>
        <time>2015-11-19T10:22:09Z</time>
      </trkpt>
      <trkpt lat="48.04164" lon="2.81271">
        <ele>114</ele>
        <time>2015-11-19T10:22:10Z</time>
      </trkpt>
      <trkpt lat="48.04167" lon="2.81268">
        <ele>114</ele>
        <time>2015-11-19T10:22:11Z</time>
      </trkpt>
      <trkpt lat="48.0417" lon="2.81263">
        <ele>114</ele>
        <time>2015-11-19T10:22:12Z</time>
      </trkpt>
      <trkpt lat="48.04174" lon="2.81259">
        <ele>114</ele>
        <time>2015-11-19T10:22:13Z</time>
      </trkpt>
      <trkpt lat="48.04178" lon="2.81253">
        <ele>114</ele>
        <time>2015-11-19T10:22:14Z</time>
      </trkpt>
      <trkpt lat="48.04182" lon="2.81247">
        <ele>114</ele>
        <time>2015-11-19T10:22:15Z</time>
      </trkpt>
      <trkpt lat="48.04187" lon="2.81241">
        <ele>114</ele>
        <time>2015-11-19T10:22:16Z</time>
      </trkpt>
      <trkpt lat="48.04192" lon="2.81234">
        <ele>114</ele>
        <time>2015-11-19T10:22:17Z</time>
      </trkpt>
      <trkpt lat="48.04195" lon="2.81228">
        <ele>114</ele>
        <time>2015-11-19T10:22:18Z</time>
      </trkpt>
      <trkpt lat="48.04199" lon="2.81222">
        <ele>114</ele>
        <time>2015-11-19T10:22:19Z</time>
      </trkpt>
      <trkpt lat="48.04203" lon="2.81216">
        <ele>114</ele>
        <time>2015-11-19T10:22:20Z</time>
      </trkpt>
      <trkpt lat="48.04208" lon="2.81211">
        <ele>114</ele>
        <time>2015-11-19T10:22:21Z</time>
      </trkpt>
      <trkpt lat="48.04212" lon="2.81206">
        <ele>114</ele>
        <time>2015-11-19T10:22:22Z</time>
      </trkpt>
      <trkpt lat="48.04217" lon="2.81201">
        <ele>114</ele>
        <time>2015-11-19T10:22:23Z</time>
      </trkpt>
      <trkpt lat="48.04221" lon="2.81195">
        <ele>114</ele>
        <time>2015-11-19T10:22:24Z</time>
      </trkpt>
      <trkpt lat="48.04226" lon="2.8119">
        <ele>114</ele>
        <time>2015-11-19T10:22:25Z</time>
      </trkpt>
      <trkpt lat="48.0423" lon="2.81184">
        <ele>114</ele>
        <time>2015-11-19T10:22:26Z</time>
      </trkpt>
      <trkpt lat="48.04234" lon="2.81178">
        <ele>114</ele>
        <time>2015-11-19T10:22:27Z</time>
      </trkpt>
      <trkpt lat="48.04239" lon="2.81172">
        <ele>114</ele>
        <time>2015-11-19T10:22:28Z</time>
      </trkpt>
      <trkpt lat="48.04243" lon="2.81166">
        <ele>114</ele>
        <time>2015-11-19T10:22:29Z</time>
      </trkpt>
      <trkpt lat="48.04248" lon="2.8116">
        <ele>114</ele>
        <time>2015-11-19T10:22:30Z</time>
      </trkpt>
      <trkpt lat="48.04252" lon="2.81153">
        <ele>114</ele>
        <time>2015-11-19T10:22:31Z</time>
      </trkpt>
      <trkpt lat="48.04257" lon="2.81146">
        <ele>114</ele>
        <time>2015-11-19T10:22:32Z</time>
      </trkpt>
      <trkpt lat="48.04261" lon="2.81139">
        <ele>114</ele>
        <time>2015-11-19T10:22:33Z</time>
      </trkpt>
      <trkpt lat="48.04266" lon="2.81132">
        <ele>114</ele>
        <time>2015-11-19T10:22:34Z</time>
      </trkpt>
      <trkpt lat="48.0427" lon="2.81125">
        <ele>114</ele>
        <time>2015-11-19T10:22:35Z</time>
      </trkpt>
      <trkpt lat="48.04274" lon="2.81118">
        <ele>114</ele>
        <time>2015-11-19T10:22:36Z</time>
      </trkpt>
      <trkpt lat="48.04279" lon="2.81112">
        <ele>114</ele>
        <time>2015-11-19T10:22:37Z</time>
      </trkpt>
      <trkpt lat="48.04283" lon="2.81105">
        <ele>114</ele>
        <time>2015-11-19T10:22:38Z</time>
      </trkpt>
      <trkpt lat="48.04287" lon="2.81098">
        <ele>114</ele>
        <time>2015-11-19T10:22:39Z</time>
      </trkpt>
      <trkpt lat="48.04291" lon="2.81092">
        <ele>114</ele>
        <time>2015-11-19T10:22:40Z</time>
      </trkpt>
      <trkpt lat="48.04295" lon="2.81086">
        <ele>114</ele>
        <time>2015-11-19T10:22:41Z</time>
      </trkpt>
      <trkpt lat="48.04299" lon="2.8108">
        <ele>114</ele>
        <time>2015-11-19T10:22:42Z</time>
      </trkpt>
      <trkpt lat="48.04303" lon="2.81076">
        <ele>114</ele>
        <time>2015-11-19T10:22:43Z</time>
      </trkpt>
      <trkpt lat="48.04308" lon="2.8107">
        <ele>114</ele>
        <time>2015-11-19T10:22:44Z</time>
      </trkpt>
      <trkpt lat="48.04311" lon="2.81066">
        <ele>114</ele>
        <time>2015-11-19T10:22:45Z</time>
      </trkpt>
      <trkpt lat="48.04316" lon="2.81062">
        <ele>114</ele>
        <time>2015-11-19T10:22:46Z</time>
      </trkpt>
      <trkpt lat="48.0432" lon="2.81058">
        <ele>114</ele>
        <time>2015-11-19T10:22:47Z</time>
      </trkpt>
      <trkpt lat="48.04324" lon="2.81053">
        <ele>114</ele>
        <time>2015-11-19T10:22:48Z</time>
      </trkpt>
      <trkpt lat="48.04328" lon="2.81048">
        <ele>114</ele>
        <time>2015-11-19T10:22:49Z</time>
      </trkpt>
      <trkpt lat="48.04332" lon="2.81043">
        <ele>114</ele>
        <time>2015-11-19T10:22:50Z</time>
      </trkpt>
      <trkpt lat="48.04337" lon="2.81038">
        <ele>114</ele>
        <time>2015-11-19T10:22:51Z</time>
      </trkpt>
      <trkpt lat="48.04341" lon="2.81032">
        <ele>114</ele>
        <time>2015-11-19T10:22:52Z</time>
      </trkpt>
      <trkpt lat="48.04345" lon="2.81026">
        <ele>114</ele>
        <time>2015-11-19T10:22:53Z</time>
      </trkpt>
      <trkpt lat="48.04349" lon="2.81019">
        <ele>114</ele>
        <time>2015-11-19T10:22:54Z</time>
      </trkpt>
      <trkpt lat="48.04353" lon="2.81013">
        <ele>114</ele>
        <time>2015-11-19T10:22:55Z</time>
      </trkpt>
      <trkpt lat="48.04357" lon="2.81009">
        <ele>114</ele>
        <time>2015-11-19T10:22:56Z</time>
      </trkpt>
      <trkpt lat="48.04361" lon="2.81004">
        <ele>114</ele>
        <time>2015-11-19T10:22:57Z</time>
      </trkpt>
      <trkpt lat="48.04366" lon="2.80999">
        <ele>114</ele>
        <time>2015-11-19T10:22:58Z</time>
      </trkpt>
      <trkpt lat="48.04371" lon="2.80992">
        <ele>114</ele>
        <time>2015-11-19T10:22:59Z</time>
      </trkpt>
      <trkpt lat="48.04375" lon="2.80984">
        <ele>114</ele>
        <time>2015-11-19T10:23:00Z</time>
      </trkpt>
      <trkpt lat="48.0438" lon="2.80977">
        <ele>114</ele>
        <time>2015-11-19T10:23:01Z</time>
      </trkpt>
      <trkpt lat="48.04384" lon="2.80972">
        <ele>114</ele>
        <time>2015-11-19T10:23:02Z</time>
      </trkpt>
      <trkpt lat="48.0439" lon="2.80965">
        <ele>114</ele>
        <time>2015-11-19T10:23:03Z</time>
      </trkpt>
      <trkpt lat="48.044" lon="2.80954">
        <ele>114</ele>
        <time>2015-11-19T10:23:05Z</time>
      </trkpt>
      <trkpt lat="48.04405" lon="2.80949">
        <ele>114</ele>
        <time>2015-11-19T10:23:06Z</time>
      </trkpt>
      <trkpt lat="48.04409" lon="2.80944">
        <ele>113</ele>
        <time>2015-11-19T10:23:07Z</time>
      </trkpt>
      <trkpt lat="48.04413" lon="2.80939">
        <ele>113</ele>
        <time>2015-11-19T10:23:08Z</time>
      </trkpt>
      <trkpt lat="48.04417" lon="2.80934">
        <ele>112</ele>
        <time>2015-11-19T10:23:09Z</time>
      </trkpt>
      <trkpt lat="48.04421" lon="2.8093">
        <ele>111</ele>
        <time>2015-11-19T10:23:10Z</time>
      </trkpt>
      <trkpt lat="48.04425" lon="2.80926">
        <ele>110</ele>
        <time>2015-11-19T10:23:11Z</time>
      </trkpt>
      <trkpt lat="48.04429" lon="2.80921">
        <ele>109</ele>
        <time>2015-11-19T10:23:12Z</time>
      </trkpt>
      <trkpt lat="48.04433" lon="2.80914">
        <ele>108</ele>
        <time>2015-11-19T10:23:13Z</time>
      </trkpt>
      <trkpt lat="48.04436" lon="2.80909">
        <ele>107</ele>
        <time>2015-11-19T10:23:14Z</time>
      </trkpt>
      <trkpt lat="48.04438" lon="2.80904">
        <ele>106</ele>
        <time>2015-11-19T10:23:15Z</time>
      </trkpt>
      <trkpt lat="48.0444" lon="2.80898">
        <ele>105</ele>
        <time>2015-11-19T10:23:16Z</time>
      </trkpt>
      <trkpt lat="48.04441" lon="2.80892">
        <ele>104</ele>
        <time>2015-11-19T10:23:17Z</time>
      </trkpt>
      <trkpt lat="48.04441" lon="2.80882">
        <ele>104</ele>
        <time>2015-11-19T10:23:18Z</time>
      </trkpt>
      <trkpt lat="48.04443" lon="2.80871">
        <ele>104</ele>
        <time>2015-11-19T10:23:19Z</time>
      </trkpt>
      <trkpt lat="48.04446" lon="2.80864">
        <ele>104</ele>
        <time>2015-11-19T10:23:20Z</time>
      </trkpt>
      <trkpt lat="48.04449" lon="2.80857">
        <ele>104</ele>
        <time>2015-11-19T10:23:21Z</time>
      </trkpt>
      <trkpt lat="48.04452" lon="2.80852">
        <ele>104</ele>
        <time>2015-11-19T10:23:22Z</time>
      </trkpt>
      <trkpt lat="48.04455" lon="2.80847">
        <ele>104</ele>
        <time>2015-11-19T10:23:23Z</time>
      </trkpt>
      <trkpt lat="48.04458" lon="2.80842">
        <ele>104</ele>
        <time>2015-11-19T10:23:24Z</time>
      </trkpt>
      <trkpt lat="48.04461" lon="2.80838">
        <ele>104</ele>
        <time>2015-11-19T10:23:25Z</time>
      </trkpt>
      <trkpt lat="48.04465" lon="2.80834">
        <ele>104</ele>
        <time>2015-11-19T10:23:26Z</time>
      </trkpt>
      <trkpt lat="48.04469" lon="2.80828">
        <ele>104</ele>
        <time>2015-11-19T10:23:27Z</time>
      </trkpt>
      <trkpt lat="48.04472" lon="2.80822">
        <ele>104</ele>
        <time>2015-11-19T10:23:28Z</time>
      </trkpt>
      <trkpt lat="48.04476" lon="2.80816">
        <ele>104</ele>
        <time>2015-11-19T10:23:29Z</time>
      </trkpt>
      <trkpt lat="48.0448" lon="2.8081">
        <ele>104</ele>
        <time>2015-11-19T10:23:30Z</time>
      </trkpt>
      <trkpt lat="48.04483" lon="2.80806">
        <ele>104</ele>
        <time>2015-11-19T10:23:31Z</time>
      </trkpt>
      <trkpt lat="48.04487" lon="2.80802">
        <ele>104</ele>
        <time>2015-11-19T10:23:32Z</time>
      </trkpt>
      <trkpt lat="48.0449" lon="2.80794">
        <ele>104</ele>
        <time>2015-11-19T10:23:33Z</time>
      </trkpt>
      <trkpt lat="48.04495" lon="2.8079">
        <ele>104</ele>
        <time>2015-11-19T10:23:34Z</time>
      </trkpt>
      <trkpt lat="48.045" lon="2.80785">
        <ele>104</ele>
        <time>2015-11-19T10:23:35Z</time>
      </trkpt>
      <trkpt lat="48.04505" lon="2.8078">
        <ele>104</ele>
        <time>2015-11-19T10:23:36Z</time>
      </trkpt>
      <trkpt lat="48.0451" lon="2.80775">
        <ele>104</ele>
        <time>2015-11-19T10:23:37Z</time>
      </trkpt>
      <trkpt lat="48.04514" lon="2.80773">
        <ele>104</ele>
        <time>2015-11-19T10:23:38Z</time>
      </trkpt>
      <trkpt lat="48.04519" lon="2.8077">
        <ele>104</ele>
        <time>2015-11-19T10:23:39Z</time>
      </trkpt>
      <trkpt lat="48.04523" lon="2.80766">
        <ele>104</ele>
        <time>2015-11-19T10:23:40Z</time>
      </trkpt>
      <trkpt lat="48.04527" lon="2.80762">
        <ele>103</ele>
        <time>2015-11-19T10:23:41Z</time>
      </trkpt>
      <trkpt lat="48.0453" lon="2.80759">
        <ele>102</ele>
        <time>2015-11-19T10:23:42Z</time>
      </trkpt>
      <trkpt lat="48.04534" lon="2.80754">
        <ele>102</ele>
        <time>2015-11-19T10:23:43Z</time>
      </trkpt>
      <trkpt lat="48.04538" lon="2.80751">
        <ele>102</ele>
        <time>2015-11-19T10:23:44Z</time>
      </trkpt>
      <trkpt lat="48.04542" lon="2.80747">
        <ele>102</ele>
        <time>2015-11-19T10:23:45Z</time>
      </trkpt>
      <trkpt lat="48.04546" lon="2.80743">
        <ele>102</ele>
        <time>2015-11-19T10:23:46Z</time>
      </trkpt>
      <trkpt lat="48.04551" lon="2.80739">
        <ele>102</ele>
        <time>2015-11-19T10:23:47Z</time>
      </trkpt>
      <trkpt lat="48.04557" lon="2.80736">
        <ele>102</ele>
        <time>2015-11-19T10:23:48Z</time>
      </trkpt>
      <trkpt lat="48.04562" lon="2.80734">
        <ele>102</ele>
        <time>2015-11-19T10:23:49Z</time>
      </trkpt>
      <trkpt lat="48.04567" lon="2.8073">
        <ele>102</ele>
        <time>2015-11-19T10:23:50Z</time>
      </trkpt>
      <trkpt lat="48.04571" lon="2.80726">
        <ele>102</ele>
        <time>2015-11-19T10:23:51Z</time>
      </trkpt>
      <trkpt lat="48.04577" lon="2.80723">
        <ele>102</ele>
        <time>2015-11-19T10:23:52Z</time>
      </trkpt>
      <trkpt lat="48.04583" lon="2.80721">
        <ele>102</ele>
        <time>2015-11-19T10:23:53Z</time>
      </trkpt>
      <trkpt lat="48.04588" lon="2.80718">
        <ele>102</ele>
        <time>2015-11-19T10:23:54Z</time>
      </trkpt>
      <trkpt lat="48.04594" lon="2.80718">
        <ele>102</ele>
        <time>2015-11-19T10:23:55Z</time>
      </trkpt>
      <trkpt lat="48.04599" lon="2.80718">
        <ele>102</ele>
        <time>2015-11-19T10:23:56Z</time>
      </trkpt>
      <trkpt lat="48.04605" lon="2.80717">
        <ele>102</ele>
        <time>2015-11-19T10:23:57Z</time>
      </trkpt>
      <trkpt lat="48.0461" lon="2.80716">
        <ele>101</ele>
        <time>2015-11-19T10:23:58Z</time>
      </trkpt>
      <trkpt lat="48.04616" lon="2.80717">
        <ele>101</ele>
        <time>2015-11-19T10:23:59Z</time>
      </trkpt>
      <trkpt lat="48.04621" lon="2.80718">
        <ele>101</ele>
        <time>2015-11-19T10:24:00Z</time>
      </trkpt>
      <trkpt lat="48.04627" lon="2.80719">
        <ele>100</ele>
        <time>2015-11-19T10:24:01Z</time>
      </trkpt>
      <trkpt lat="48.04633" lon="2.80719">
        <ele>99</ele>
        <time>2015-11-19T10:24:02Z</time>
      </trkpt>
      <trkpt lat="48.04641" lon="2.80718">
        <ele>98</ele>
        <time>2015-11-19T10:24:03Z</time>
      </trkpt>
      <trkpt lat="48.04647" lon="2.80717">
        <ele>97</ele>
        <time>2015-11-19T10:24:04Z</time>
      </trkpt>
      <trkpt lat="48.04652" lon="2.80717">
        <ele>97</ele>
        <time>2015-11-19T10:24:05Z</time>
      </trkpt>
      <trkpt lat="48.04659" lon="2.80716">
        <ele>96</ele>
        <time>2015-11-19T10:24:06Z</time>
      </trkpt>
      <trkpt lat="48.04665" lon="2.80715">
        <ele>96</ele>
        <time>2015-11-19T10:24:07Z</time>
      </trkpt>
      <trkpt lat="48.04671" lon="2.80715">
        <ele>96</ele>
        <time>2015-11-19T10:24:08Z</time>
      </trkpt>
      <trkpt lat="48.04676" lon="2.80716">
        <ele>96</ele>
        <time>2015-11-19T10:24:09Z</time>
      </trkpt>
      <trkpt lat="48.04682" lon="2.80717">
        <ele>96</ele>
        <time>2015-11-19T10:24:10Z</time>
      </trkpt>
      <trkpt lat="48.04687" lon="2.80718">
        <ele>96</ele>
        <time>2015-11-19T10:24:11Z</time>
      </trkpt>
      <trkpt lat="48.04692" lon="2.80719">
        <ele>96</ele>
        <time>2015-11-19T10:24:12Z</time>
      </trkpt>
      <trkpt lat="48.04698" lon="2.80721">
        <ele>96</ele>
        <time>2015-11-19T10:24:13Z</time>
      </trkpt>
      <trkpt lat="48.04703" lon="2.80722">
        <ele>96</ele>
        <time>2015-11-19T10:24:14Z</time>
      </trkpt>
      <trkpt lat="48.04708" lon="2.80723">
        <ele>96</ele>
        <time>2015-11-19T10:24:15Z</time>
      </trkpt>
      <trkpt lat="48.04713" lon="2.80724">
        <ele>96</ele>
        <time>2015-11-19T10:24:16Z</time>
      </trkpt>
      <trkpt lat="48.04719" lon="2.80724">
        <ele>96</ele>
        <time>2015-11-19T10:24:17Z</time>
      </trkpt>
      <trkpt lat="48.04725" lon="2.80724">
        <ele>96</ele>
        <time>2015-11-19T10:24:18Z</time>
      </trkpt>
      <trkpt lat="48.04731" lon="2.80724">
        <ele>96</ele>
        <time>2015-11-19T10:24:19Z</time>
      </trkpt>
      <trkpt lat="48.04736" lon="2.80723">
        <ele>96</ele>
        <time>2015-11-19T10:24:20Z</time>
      </trkpt>
      <trkpt lat="48.04741" lon="2.80723">
        <ele>96</ele>
        <time>2015-11-19T10:24:21Z</time>
      </trkpt>
      <trkpt lat="48.04747" lon="2.80723">
        <ele>96</ele>
        <time>2015-11-19T10:24:22Z</time>
      </trkpt>
      <trkpt lat="48.04752" lon="2.80724">
        <ele>96</ele>
        <time>2015-11-19T10:24:23Z</time>
      </trkpt>
      <trkpt lat="48.04758" lon="2.80724">
        <ele>96</ele>
        <time>2015-11-19T10:24:24Z</time>
      </trkpt>
      <trkpt lat="48.04763" lon="2.80723">
        <ele>96</ele>
        <time>2015-11-19T10:24:25Z</time>
      </trkpt>
      <trkpt lat="48.04768" lon="2.80722">
        <ele>97</ele>
        <time>2015-11-19T10:24:26Z</time>
      </trkpt>
      <trkpt lat="48.04774" lon="2.80721">
        <ele>97</ele>
        <time>2015-11-19T10:24:27Z</time>
      </trkpt>
      <trkpt lat="48.04779" lon="2.8072">
        <ele>98</ele>
        <time>2015-11-19T10:24:28Z</time>
      </trkpt>
      <trkpt lat="48.04788" lon="2.80716">
        <ele>98</ele>
        <time>2015-11-19T10:24:30Z</time>
      </trkpt>
      <trkpt lat="48.04793" lon="2.80713">
        <ele>98</ele>
        <time>2015-11-19T10:24:31Z</time>
      </trkpt>
      <trkpt lat="48.04798" lon="2.80712">
        <ele>98</ele>
        <time>2015-11-19T10:24:32Z</time>
      </trkpt>
      <trkpt lat="48.04803" lon="2.8071">
        <ele>98</ele>
        <time>2015-11-19T10:24:33Z</time>
      </trkpt>
      <trkpt lat="48.04809" lon="2.80708">
        <ele>98</ele>
        <time>2015-11-19T10:24:34Z</time>
      </trkpt>
      <trkpt lat="48.04815" lon="2.80706">
        <ele>98</ele>
        <time>2015-11-19T10:24:35Z</time>
      </trkpt>
      <trkpt lat="48.0482" lon="2.80705">
        <ele>98</ele>
        <time>2015-11-19T10:24:36Z</time>
      </trkpt>
      <trkpt lat="48.04826" lon="2.80703">
        <ele>98</ele>
        <time>2015-11-19T10:24:37Z</time>
      </trkpt>
      <trkpt lat="48.04832" lon="2.807">
        <ele>98</ele>
        <time>2015-11-19T10:24:38Z</time>
      </trkpt>
      <trkpt lat="48.04837" lon="2.80698">
        <ele>98</ele>
        <time>2015-11-19T10:24:39Z</time>
      </trkpt>
      <trkpt lat="48.04842" lon="2.80696">
        <ele>98</ele>
        <time>2015-11-19T10:24:40Z</time>
      </trkpt>
      <trkpt lat="48.04848" lon="2.80694">
        <ele>97</ele>
        <time>2015-11-19T10:24:41Z</time>
      </trkpt>
      <trkpt lat="48.04854" lon="2.80692">
        <ele>97</ele>
        <time>2015-11-19T10:24:42Z</time>
      </trkpt>
      <trkpt lat="48.0486" lon="2.8069">
        <ele>96</ele>
        <time>2015-11-19T10:24:43Z</time>
      </trkpt>
      <trkpt lat="48.04866" lon="2.80688">
        <ele>96</ele>
        <time>2015-11-19T10:24:44Z</time>
      </trkpt>
      <trkpt lat="48.04873" lon="2.80685">
        <ele>96</ele>
        <time>2015-11-19T10:24:45Z</time>
      </trkpt>
      <trkpt lat="48.04878" lon="2.80684">
        <ele>96</ele>
        <time>2015-11-19T10:24:46Z</time>
      </trkpt>
      <trkpt lat="48.04883" lon="2.80682">
        <ele>96</ele>
        <time>2015-11-19T10:24:47Z</time>
      </trkpt>
      <trkpt lat="48.04889" lon="2.80681">
        <ele>96</ele>
        <time>2015-11-19T10:24:48Z</time>
      </trkpt>
      <trkpt lat="48.04894" lon="2.80681">
        <ele>96</ele>
        <time>2015-11-19T10:24:49Z</time>
      </trkpt>
      <trkpt lat="48.04899" lon="2.80681">
        <ele>96</ele>
        <time>2015-11-19T10:24:50Z</time>
      </trkpt>
      <trkpt lat="48.04905" lon="2.80681">
        <ele>96</ele>
        <time>2015-11-19T10:24:51Z</time>
      </trkpt>
      <trkpt lat="48.0491" lon="2.80681">
        <ele>96</ele>
        <time>2015-11-19T10:24:52Z</time>
      </trkpt>
      <trkpt lat="48.04915" lon="2.80682">
        <ele>96</ele>
        <time>2015-11-19T10:24:53Z</time>
      </trkpt>
      <trkpt lat="48.0492" lon="2.80683">
        <ele>96</ele>
        <time>2015-11-19T10:24:54Z</time>
      </trkpt>
      <trkpt lat="48.04925" lon="2.80685">
        <ele>96</ele>
        <time>2015-11-19T10:24:55Z</time>
      </trkpt>
      <trkpt lat="48.04928" lon="2.80677">
        <ele>96</ele>
        <time>2015-11-19T10:24:56Z</time>
      </trkpt>
      <trkpt lat="48.04931" lon="2.80677">
        <ele>97</ele>
        <time>2015-11-19T10:24:57Z</time>
      </trkpt>
      <trkpt lat="48.04934" lon="2.8068">
        <ele>98</ele>
        <time>2015-11-19T10:24:58Z</time>
      </trkpt>
      <trkpt lat="48.04937" lon="2.80682">
        <ele>99</ele>
        <time>2015-11-19T10:24:59Z</time>
      </trkpt>
      <trkpt lat="48.04939" lon="2.80687">
        <ele>100</ele>
        <time>2015-11-19T10:25:00Z</time>
      </trkpt>
      <trkpt lat="48.04941" lon="2.80694">
        <ele>101</ele>
        <time>2015-11-19T10:25:01Z</time>
      </trkpt>
      <trkpt lat="48.04944" lon="2.80699">
        <ele>102</ele>
        <time>2015-11-19T10:25:02Z</time>
      </trkpt>
      <trkpt lat="48.04945" lon="2.80705">
        <ele>103</ele>
        <time>2015-11-19T10:25:03Z</time>
      </trkpt>
      <trkpt lat="48.04947" lon="2.80711">
        <ele>104</ele>
        <time>2015-11-19T10:25:04Z</time>
      </trkpt>
      <trkpt lat="48.0495" lon="2.80716">
        <ele>105</ele>
        <time>2015-11-19T10:25:05Z</time>
      </trkpt>
      <trkpt lat="48.04952" lon="2.80722">
        <ele>106</ele>
        <time>2015-11-19T10:25:06Z</time>
      </trkpt>
      <trkpt lat="48.04954" lon="2.80728">
        <ele>106</ele>
        <time>2015-11-19T10:25:07Z</time>
      </trkpt>
      <trkpt lat="48.04956" lon="2.80733">
        <ele>106</ele>
        <time>2015-11-19T10:25:08Z</time>
      </trkpt>
      <trkpt lat="48.04958" lon="2.8074">
        <ele>106</ele>
        <time>2015-11-19T10:25:09Z</time>
      </trkpt>
      <trkpt lat="48.04961" lon="2.80746">
        <ele>106</ele>
        <time>2015-11-19T10:25:10Z</time>
      </trkpt>
      <trkpt lat="48.04963" lon="2.80752">
        <ele>106</ele>
        <time>2015-11-19T10:25:11Z</time>
      </trkpt>
      <trkpt lat="48.04965" lon="2.80758">
        <ele>106</ele>
        <time>2015-11-19T10:25:12Z</time>
      </trkpt>
      <trkpt lat="48.04966" lon="2.80764">
        <ele>106</ele>
        <time>2015-11-19T10:25:13Z</time>
      </trkpt>
      <trkpt lat="48.04969" lon="2.80771">
        <ele>106</ele>
        <time>2015-11-19T10:25:14Z</time>
      </trkpt>
      <trkpt lat="48.04972" lon="2.80778">
        <ele>106</ele>
        <time>2015-11-19T10:25:15Z</time>
      </trkpt>
      <trkpt lat="48.04975" lon="2.80784">
        <ele>106</ele>
        <time>2015-11-19T10:25:16Z</time>
      </trkpt>
      <trkpt lat="48.04978" lon="2.80792">
        <ele>106</ele>
        <time>2015-11-19T10:25:17Z</time>
      </trkpt>
      <trkpt lat="48.04981" lon="2.80799">
        <ele>106</ele>
        <time>2015-11-19T10:25:18Z</time>
      </trkpt>
      <trkpt lat="48.04984" lon="2.80806">
        <ele>106</ele>
        <time>2015-11-19T10:25:19Z</time>
      </trkpt>
      <trkpt lat="48.04987" lon="2.80814">
        <ele>107</ele>
        <time>2015-11-19T10:25:20Z</time>
      </trkpt>
      <trkpt lat="48.0499" lon="2.8082">
        <ele>108</ele>
        <time>2015-11-19T10:25:21Z</time>
      </trkpt>
      <trkpt lat="48.04992" lon="2.80827">
        <ele>108</ele>
        <time>2015-11-19T10:25:22Z</time>
      </trkpt>
      <trkpt lat="48.04995" lon="2.80835">
        <ele>108</ele>
        <time>2015-11-19T10:25:23Z</time>
      </trkpt>
      <trkpt lat="48.04998" lon="2.80843">
        <ele>109</ele>
        <time>2015-11-19T10:25:24Z</time>
      </trkpt>
      <trkpt lat="48.05001" lon="2.8085">
        <ele>109</ele>
        <time>2015-11-19T10:25:25Z</time>
      </trkpt>
      <trkpt lat="48.05004" lon="2.80857">
        <ele>109</ele>
        <time>2015-11-19T10:25:26Z</time>
      </trkpt>
      <trkpt lat="48.05006" lon="2.80864">
        <ele>109</ele>
        <time>2015-11-19T10:25:27Z</time>
      </trkpt>
      <trkpt lat="48.05008" lon="2.80872">
        <ele>109</ele>
        <time>2015-11-19T10:25:28Z</time>
      </trkpt>
      <trkpt lat="48.05012" lon="2.80879">
        <ele>109</ele>
        <time>2015-11-19T10:25:29Z</time>
      </trkpt>
      <trkpt lat="48.05015" lon="2.80887">
        <ele>109</ele>
        <time>2015-11-19T10:25:30Z</time>
      </trkpt>
      <trkpt lat="48.05019" lon="2.80895">
        <ele>110</ele>
        <time>2015-11-19T10:25:31Z</time>
      </trkpt>
      <trkpt lat="48.05021" lon="2.80903">
        <ele>111</ele>
        <time>2015-11-19T10:25:32Z</time>
      </trkpt>
      <trkpt lat="48.05025" lon="2.80911">
        <ele>111</ele>
        <time>2015-11-19T10:25:33Z</time>
      </trkpt>
      <trkpt lat="48.05028" lon="2.80919">
        <ele>112</ele>
        <time>2015-11-19T10:25:34Z</time>
      </trkpt>
      <trkpt lat="48.05031" lon="2.80925">
        <ele>113</ele>
        <time>2015-11-19T10:25:35Z</time>
      </trkpt>
      <trkpt lat="48.05033" lon="2.80931">
        <ele>113</ele>
        <time>2015-11-19T10:25:36Z</time>
      </trkpt>
      <trkpt lat="48.05037" lon="2.80938">
        <ele>113</ele>
        <time>2015-11-19T10:25:37Z</time>
      </trkpt>
      <trkpt lat="48.0504" lon="2.80944">
        <ele>114</ele>
        <time>2015-11-19T10:25:38Z</time>
      </trkpt>
      <trkpt lat="48.05043" lon="2.80952">
        <ele>114</ele>
        <time>2015-11-19T10:25:39Z</time>
      </trkpt>
      <trkpt lat="48.05046" lon="2.80961">
        <ele>115</ele>
        <time>2015-11-19T10:25:40Z</time>
      </trkpt>
      <trkpt lat="48.05048" lon="2.8097">
        <ele>116</ele>
        <time>2015-11-19T10:25:41Z</time>
      </trkpt>
      <trkpt lat="48.05051" lon="2.80978">
        <ele>117</ele>
        <time>2015-11-19T10:25:42Z</time>
      </trkpt>
      <trkpt lat="48.05054" lon="2.80985">
        <ele>118</ele>
        <time>2015-11-19T10:25:43Z</time>
      </trkpt>
      <trkpt lat="48.05058" lon="2.80993">
        <ele>119</ele>
        <time>2015-11-19T10:25:44Z</time>
      </trkpt>
      <trkpt lat="48.05062" lon="2.81002">
        <ele>120</ele>
        <time>2015-11-19T10:25:45Z</time>
      </trkpt>
      <trkpt lat="48.05065" lon="2.81011">
        <ele>120</ele>
        <time>2015-11-19T10:25:46Z</time>
      </trkpt>
      <trkpt lat="48.05068" lon="2.81019">
        <ele>121</ele>
        <time>2015-11-19T10:25:47Z</time>
      </trkpt>
      <trkpt lat="48.0507" lon="2.81028">
        <ele>122</ele>
        <time>2015-11-19T10:25:48Z</time>
      </trkpt>
      <trkpt lat="48.05073" lon="2.81034">
        <ele>123</ele>
        <time>2015-11-19T10:25:49Z</time>
      </trkpt>
      <trkpt lat="48.05077" lon="2.81042">
        <ele>123</ele>
        <time>2015-11-19T10:25:50Z</time>
      </trkpt>
      <trkpt lat="48.05081" lon="2.81049">
        <ele>123</ele>
        <time>2015-11-19T10:25:51Z</time>
      </trkpt>
      <trkpt lat="48.05084" lon="2.81057">
        <ele>123</ele>
        <time>2015-11-19T10:25:52Z</time>
      </trkpt>
      <trkpt lat="48.05088" lon="2.81065">
        <ele>123</ele>
        <time>2015-11-19T10:25:53Z</time>
      </trkpt>
      <trkpt lat="48.0509" lon="2.81073">
        <ele>123</ele>
        <time>2015-11-19T10:25:54Z</time>
      </trkpt>
      <trkpt lat="48.05094" lon="2.81081">
        <ele>123</ele>
        <time>2015-11-19T10:25:55Z</time>
      </trkpt>
      <trkpt lat="48.05097" lon="2.81089">
        <ele>123</ele>
        <time>2015-11-19T10:25:56Z</time>
      </trkpt>
      <trkpt lat="48.051" lon="2.81096">
        <ele>123</ele>
        <time>2015-11-19T10:25:57Z</time>
      </trkpt>
      <trkpt lat="48.05104" lon="2.81105">
        <ele>123</ele>
        <time>2015-11-19T10:25:58Z</time>
      </trkpt>
      <trkpt lat="48.05106" lon="2.81114">
        <ele>123</ele>
        <time>2015-11-19T10:25:59Z</time>
      </trkpt>
      <trkpt lat="48.0511" lon="2.81126">
        <ele>123</ele>
        <time>2015-11-19T10:26:00Z</time>
      </trkpt>
      <trkpt lat="48.05113" lon="2.81136">
        <ele>123</ele>
        <time>2015-11-19T10:26:01Z</time>
      </trkpt>
      <trkpt lat="48.05116" lon="2.81147">
        <ele>123</ele>
        <time>2015-11-19T10:26:02Z</time>
      </trkpt>
      <trkpt lat="48.05124" lon="2.81168">
        <ele>124</ele>
        <time>2015-11-19T10:26:04Z</time>
      </trkpt>
      <trkpt lat="48.05128" lon="2.81178">
        <ele>125</ele>
        <time>2015-11-19T10:26:05Z</time>
      </trkpt>
      <trkpt lat="48.05131" lon="2.81189">
        <ele>126</ele>
        <time>2015-11-19T10:26:06Z</time>
      </trkpt>
      <trkpt lat="48.05133" lon="2.81199">
        <ele>127</ele>
        <time>2015-11-19T10:26:07Z</time>
      </trkpt>
      <trkpt lat="48.05135" lon="2.81208">
        <ele>127</ele>
        <time>2015-11-19T10:26:08Z</time>
      </trkpt>
      <trkpt lat="48.05136" lon="2.81217">
        <ele>128</ele>
        <time>2015-11-19T10:26:09Z</time>
      </trkpt>
      <trkpt lat="48.05138" lon="2.81226">
        <ele>128</ele>
        <time>2015-11-19T10:26:10Z</time>
      </trkpt>
      <trkpt lat="48.0514" lon="2.81236">
        <ele>128</ele>
        <time>2015-11-19T10:26:11Z</time>
      </trkpt>
      <trkpt lat="48.05142" lon="2.81245">
        <ele>128</ele>
        <time>2015-11-19T10:26:12Z</time>
      </trkpt>
      <trkpt lat="48.05144" lon="2.81254">
        <ele>128</ele>
        <time>2015-11-19T10:26:13Z</time>
      </trkpt>
      <trkpt lat="48.05146" lon="2.81263">
        <ele>128</ele>
        <time>2015-11-19T10:26:14Z</time>
      </trkpt>
      <trkpt lat="48.05149" lon="2.81272">
        <ele>128</ele>
        <time>2015-11-19T10:26:15Z</time>
      </trkpt>
      <trkpt lat="48.05151" lon="2.8128">
        <ele>128</ele>
        <time>2015-11-19T10:26:16Z</time>
      </trkpt>
      <trkpt lat="48.05153" lon="2.81288">
        <ele>128</ele>
        <time>2015-11-19T10:26:17Z</time>
      </trkpt>
      <trkpt lat="48.05155" lon="2.81298">
        <ele>128</ele>
        <time>2015-11-19T10:26:18Z</time>
      </trkpt>
      <trkpt lat="48.05156" lon="2.81307">
        <ele>128</ele>
        <time>2015-11-19T10:26:19Z</time>
      </trkpt>
      <trkpt lat="48.05159" lon="2.81316">
        <ele>128</ele>
        <time>2015-11-19T10:26:20Z</time>
      </trkpt>
      <trkpt lat="48.05161" lon="2.81325">
        <ele>127</ele>
        <time>2015-11-19T10:26:21Z</time>
      </trkpt>
      <trkpt lat="48.05163" lon="2.81333">
        <ele>127</ele>
        <time>2015-11-19T10:26:22Z</time>
      </trkpt>
      <trkpt lat="48.05165" lon="2.81342">
        <ele>127</ele>
        <time>2015-11-19T10:26:23Z</time>
      </trkpt>
      <trkpt lat="48.05167" lon="2.81351">
        <ele>127</ele>
        <time>2015-11-19T10:26:24Z</time>
      </trkpt>
      <trkpt lat="48.05169" lon="2.81359">
        <ele>127</ele>
        <time>2015-11-19T10:26:25Z</time>
      </trkpt>
      <trkpt lat="48.05171" lon="2.81367">
        <ele>127</ele>
        <time>2015-11-19T10:26:26Z</time>
      </trkpt>
      <trkpt lat="48.05173" lon="2.81375">
        <ele>127</ele>
        <time>2015-11-19T10:26:27Z</time>
      </trkpt>
      <trkpt lat="48.05175" lon="2.81383">
        <ele>127</ele>
        <time>2015-11-19T10:26:28Z</time>
      </trkpt>
      <trkpt lat="48.05177" lon="2.81391">
        <ele>127</ele>
        <time>2015-11-19T10:26:29Z</time>
      </trkpt>
      <trkpt lat="48.05178" lon="2.81399">
        <ele>127</ele>
        <time>2015-11-19T10:26:30Z</time>
      </trkpt>
      <trkpt lat="48.05179" lon="2.81406">
        <ele>127</ele>
        <time>2015-11-19T10:26:31Z</time>
      </trkpt>
      <trkpt lat="48.0518" lon="2.81414">
        <ele>127</ele>
        <time>2015-11-19T10:26:32Z</time>
      </trkpt>
      <trkpt lat="48.05182" lon="2.81423">
        <ele>127</ele>
        <time>2015-11-19T10:26:33Z</time>
      </trkpt>
      <trkpt lat="48.05184" lon="2.81431">
        <ele>127</ele>
        <time>2015-11-19T10:26:34Z</time>
      </trkpt>
      <trkpt lat="48.05185" lon="2.81438">
        <ele>127</ele>
        <time>2015-11-19T10:26:35Z</time>
      </trkpt>
      <trkpt lat="48.05186" lon="2.81446">
        <ele>127</ele>
        <time>2015-11-19T10:26:36Z</time>
      </trkpt>
      <trkpt lat="48.05188" lon="2.81453">
        <ele>127</ele>
        <time>2015-11-19T10:26:37Z</time>
      </trkpt>
      <trkpt lat="48.05189" lon="2.81462">
        <ele>127</ele>
        <time>2015-11-19T10:26:38Z</time>
      </trkpt>
      <trkpt lat="48.0519" lon="2.81469">
        <ele>127</ele>
        <time>2015-11-19T10:26:39Z</time>
      </trkpt>
      <trkpt lat="48.05191" lon="2.81477">
        <ele>127</ele>
        <time>2015-11-19T10:26:40Z</time>
      </trkpt>
      <trkpt lat="48.05191" lon="2.81485">
        <ele>127</ele>
        <time>2015-11-19T10:26:41Z</time>
      </trkpt>
      <trkpt lat="48.05193" lon="2.81492">
        <ele>127</ele>
        <time>2015-11-19T10:26:42Z</time>
      </trkpt>
      <trkpt lat="48.05195" lon="2.815">
        <ele>126</ele>
        <time>2015-11-19T10:26:43Z</time>
      </trkpt>
      <trkpt lat="48.05197" lon="2.81508">
        <ele>126</ele>
        <time>2015-11-19T10:26:44Z</time>
      </trkpt>
      <trkpt lat="48.05199" lon="2.81515">
        <ele>126</ele>
        <time>2015-11-19T10:26:45Z</time>
      </trkpt>
      <trkpt lat="48.05201" lon="2.81523">
        <ele>126</ele>
        <time>2015-11-19T10:26:46Z</time>
      </trkpt>
      <trkpt lat="48.05203" lon="2.81531">
        <ele>126</ele>
        <time>2015-11-19T10:26:47Z</time>
      </trkpt>
      <trkpt lat="48.05205" lon="2.81539">
        <ele>126</ele>
        <time>2015-11-19T10:26:48Z</time>
      </trkpt>
      <trkpt lat="48.05206" lon="2.81546">
        <ele>126</ele>
        <time>2015-11-19T10:26:49Z</time>
      </trkpt>
      <trkpt lat="48.05208" lon="2.81555">
        <ele>126</ele>
        <time>2015-11-19T10:26:50Z</time>
      </trkpt>
      <trkpt lat="48.0521" lon="2.81563">
        <ele>126</ele>
        <time>2015-11-19T10:26:51Z</time>
      </trkpt>
      <trkpt lat="48.05212" lon="2.81571">
        <ele>126</ele>
        <time>2015-11-19T10:26:52Z</time>
      </trkpt>
      <trkpt lat="48.05214" lon="2.8158">
        <ele>126</ele>
        <time>2015-11-19T10:26:53Z</time>
      </trkpt>
      <trkpt lat="48.05216" lon="2.81589">
        <ele>126</ele>
        <time>2015-11-19T10:26:54Z</time>
      </trkpt>
      <trkpt lat="48.05218" lon="2.81597">
        <ele>126</ele>
        <time>2015-11-19T10:26:55Z</time>
      </trkpt>
      <trkpt lat="48.0522" lon="2.81605">
        <ele>126</ele>
        <time>2015-11-19T10:26:56Z</time>
      </trkpt>
      <trkpt lat="48.0522" lon="2.81612">
        <ele>126</ele>
        <time>2015-11-19T10:26:57Z</time>
      </trkpt>
      <trkpt lat="48.05222" lon="2.81621">
        <ele>126</ele>
        <time>2015-11-19T10:26:58Z</time>
      </trkpt>
      <trkpt lat="48.05224" lon="2.81629">
        <ele>126</ele>
        <time>2015-11-19T10:26:59Z</time>
      </trkpt>
      <trkpt lat="48.05226" lon="2.81637">
        <ele>126</ele>
        <time>2015-11-19T10:27:00Z</time>
      </trkpt>
      <trkpt lat="48.05228" lon="2.81645">
        <ele>126</ele>
        <time>2015-11-19T10:27:01Z</time>
      </trkpt>
      <trkpt lat="48.05228" lon="2.81651">
        <ele>126</ele>
        <time>2015-11-19T10:27:02Z</time>
      </trkpt>
      <trkpt lat="48.05228" lon="2.81659">
        <ele>126</ele>
        <time>2015-11-19T10:27:03Z</time>
      </trkpt>
      <trkpt lat="48.0523" lon="2.81667">
        <ele>126</ele>
        <time>2015-11-19T10:27:04Z</time>
      </trkpt>
      <trkpt lat="48.05231" lon="2.81676">
        <ele>126</ele>
        <time>2015-11-19T10:27:05Z</time>
      </trkpt>
      <trkpt lat="48.05233" lon="2.81684">
        <ele>126</ele>
        <time>2015-11-19T10:27:06Z</time>
      </trkpt>
      <trkpt lat="48.05234" lon="2.81692">
        <ele>126</ele>
        <time>2015-11-19T10:27:07Z</time>
      </trkpt>
      <trkpt lat="48.05235" lon="2.817">
        <ele>126</ele>
        <time>2015-11-19T10:27:08Z</time>
      </trkpt>
      <trkpt lat="48.05236" lon="2.81707">
        <ele>126</ele>
        <time>2015-11-19T10:27:09Z</time>
      </trkpt>
      <trkpt lat="48.05238" lon="2.81714">
        <ele>126</ele>
        <time>2015-11-19T10:27:10Z</time>
      </trkpt>
      <trkpt lat="48.05241" lon="2.81724">
        <ele>126</ele>
        <time>2015-11-19T10:27:11Z</time>
      </trkpt>
      <trkpt lat="48.05244" lon="2.81731">
        <ele>126</ele>
        <time>2015-11-19T10:27:12Z</time>
      </trkpt>
      <trkpt lat="48.05246" lon="2.81738">
        <ele>127</ele>
        <time>2015-11-19T10:27:13Z</time>
      </trkpt>
      <trkpt lat="48.05247" lon="2.81745">
        <ele>128</ele>
        <time>2015-11-19T10:27:14Z</time>
      </trkpt>
      <trkpt lat="48.05249" lon="2.81752">
        <ele>129</ele>
        <time>2015-11-19T10:27:15Z</time>
      </trkpt>
      <trkpt lat="48.05251" lon="2.8176">
        <ele>129</ele>
        <time>2015-11-19T10:27:16Z</time>
      </trkpt>
      <trkpt lat="48.05254" lon="2.81768">
        <ele>130</ele>
        <time>2015-11-19T10:27:17Z</time>
      </trkpt>
      <trkpt lat="48.05257" lon="2.81775">
        <ele>130</ele>
        <time>2015-11-19T10:27:18Z</time>
      </trkpt>
      <trkpt lat="48.05259" lon="2.81782">
        <ele>130</ele>
        <time>2015-11-19T10:27:19Z</time>
      </trkpt>
      <trkpt lat="48.05261" lon="2.81787">
        <ele>130</ele>
        <time>2015-11-19T10:27:20Z</time>
      </trkpt>
      <trkpt lat="48.05263" lon="2.81793">
        <ele>131</ele>
        <time>2015-11-19T10:27:21Z</time>
      </trkpt>
      <trkpt lat="48.05264" lon="2.81797">
        <ele>131</ele>
        <time>2015-11-19T10:27:22Z</time>
      </trkpt>
      <trkpt lat="48.05268" lon="2.81811">
        <ele>131</ele>
        <time>2015-11-19T10:27:23Z</time>
      </trkpt>
      <trkpt lat="48.0527" lon="2.81818">
        <ele>131</ele>
        <time>2015-11-19T10:27:24Z</time>
      </trkpt>
      <trkpt lat="48.05272" lon="2.81822">
        <ele>131</ele>
        <time>2015-11-19T10:27:25Z</time>
      </trkpt>
      <trkpt lat="48.05273" lon="2.81826">
        <ele>131</ele>
        <time>2015-11-19T10:27:26Z</time>
      </trkpt>
      <trkpt lat="48.05274" lon="2.81829">
        <ele>131</ele>
        <time>2015-11-19T10:27:27Z</time>
      </trkpt>
      <trkpt lat="48.05274" lon="2.81832">
        <ele>131</ele>
        <time>2015-11-19T10:27:28Z</time>
      </trkpt>
      <trkpt lat="48.05273" lon="2.81834">
        <ele>131</ele>
        <time>2015-11-19T10:27:29Z</time>
      </trkpt>
      <trkpt lat="48.05273" lon="2.81836">
        <ele>130</ele>
        <time>2015-11-19T10:27:30Z</time>
      </trkpt>
      <trkpt lat="48.05274" lon="2.81838">
        <ele>130</ele>
        <time>2015-11-19T10:27:31Z</time>
      </trkpt>
      <trkpt lat="48.05272" lon="2.81838">
        <ele>129</ele>
        <time>2015-11-19T10:27:33Z</time>
      </trkpt>
      <trkpt lat="48.05277" lon="2.81856">
        <ele>125</ele>
        <time>2015-11-19T10:27:34Z</time>
      </trkpt>
      <trkpt lat="48.05278" lon="2.81859">
        <ele>125</ele>
        <time>2015-11-19T10:27:35Z</time>
      </trkpt>
      <trkpt lat="48.05279" lon="2.8186">
        <ele>125</ele>
        <time>2015-11-19T10:27:36Z</time>
      </trkpt>
      <trkpt lat="48.0528" lon="2.81862">
        <ele>125</ele>
        <time>2015-11-19T10:27:38Z</time>
      </trkpt>
      <trkpt lat="48.05278" lon="2.81864">
        <ele>125</ele>
        <time>2015-11-19T10:27:40Z</time>
      </trkpt>
      <trkpt lat="48.05277" lon="2.81865">
        <ele>125</ele>
        <time>2015-11-19T10:27:41Z</time>
      </trkpt>
      <trkpt lat="48.05276" lon="2.81867">
        <ele>125</ele>
        <time>2015-11-19T10:27:42Z</time>
      </trkpt>
      <trkpt lat="48.05273" lon="2.8187">
        <ele>125</ele>
        <time>2015-11-19T10:27:43Z</time>
      </trkpt>
      <trkpt lat="48.05271" lon="2.81874">
        <ele>125</ele>
        <time>2015-11-19T10:27:44Z</time>
      </trkpt>
      <trkpt lat="48.05269" lon="2.81879">
        <ele>125</ele>
        <time>2015-11-19T10:27:45Z</time>
      </trkpt>
      <trkpt lat="48.05266" lon="2.81884">
        <ele>125</ele>
        <time>2015-11-19T10:27:46Z</time>
      </trkpt>
      <trkpt lat="48.05263" lon="2.81889">
        <ele>125</ele>
        <time>2015-11-19T10:27:47Z</time>
      </trkpt>
      <trkpt lat="48.0526" lon="2.81893">
        <ele>125</ele>
        <time>2015-11-19T10:27:48Z</time>
      </trkpt>
      <trkpt lat="48.05258" lon="2.81898">
        <ele>125</ele>
        <time>2015-11-19T10:27:49Z</time>
      </trkpt>
      <trkpt lat="48.05255" lon="2.81903">
        <ele>125</ele>
        <time>2015-11-19T10:27:50Z</time>
      </trkpt>
      <trkpt lat="48.05252" lon="2.81908">
        <ele>125</ele>
        <time>2015-11-19T10:27:51Z</time>
      </trkpt>
      <trkpt lat="48.0525" lon="2.81912">
        <ele>126</ele>
        <time>2015-11-19T10:27:52Z</time>
      </trkpt>
      <trkpt lat="48.05248" lon="2.81916">
        <ele>126</ele>
        <time>2015-11-19T10:27:53Z</time>
      </trkpt>
      <trkpt lat="48.05246" lon="2.8192">
        <ele>126</ele>
        <time>2015-11-19T10:27:54Z</time>
      </trkpt>
      <trkpt lat="48.05242" lon="2.81924">
        <ele>126</ele>
        <time>2015-11-19T10:27:55Z</time>
      </trkpt>
      <trkpt lat="48.05239" lon="2.81929">
        <ele>126</ele>
        <time>2015-11-19T10:27:56Z</time>
      </trkpt>
      <trkpt lat="48.05236" lon="2.81933">
        <ele>126</ele>
        <time>2015-11-19T10:27:57Z</time>
      </trkpt>
      <trkpt lat="48.05233" lon="2.81937">
        <ele>126</ele>
        <time>2015-11-19T10:27:58Z</time>
      </trkpt>
      <trkpt lat="48.0523" lon="2.81941">
        <ele>126</ele>
        <time>2015-11-19T10:27:59Z</time>
      </trkpt>
      <trkpt lat="48.05229" lon="2.81946">
        <ele>127</ele>
        <time>2015-11-19T10:28:00Z</time>
      </trkpt>
      <trkpt lat="48.05226" lon="2.81952">
        <ele>128</ele>
        <time>2015-11-19T10:28:01Z</time>
      </trkpt>
      <trkpt lat="48.05223" lon="2.81957">
        <ele>129</ele>
        <time>2015-11-19T10:28:02Z</time>
      </trkpt>
      <trkpt lat="48.0522" lon="2.81963">
        <ele>130</ele>
        <time>2015-11-19T10:28:03Z</time>
      </trkpt>
      <trkpt lat="48.05216" lon="2.81968">
        <ele>131</ele>
        <time>2015-11-19T10:28:04Z</time>
      </trkpt>
      <trkpt lat="48.05213" lon="2.81973">
        <ele>132</ele>
        <time>2015-11-19T10:28:05Z</time>
      </trkpt>
      <trkpt lat="48.0521" lon="2.81977">
        <ele>133</ele>
        <time>2015-11-19T10:28:06Z</time>
      </trkpt>
      <trkpt lat="48.05206" lon="2.81982">
        <ele>134</ele>
        <time>2015-11-19T10:28:07Z</time>
      </trkpt>
      <trkpt lat="48.05202" lon="2.81988">
        <ele>135</ele>
        <time>2015-11-19T10:28:08Z</time>
      </trkpt>
      <trkpt lat="48.05199" lon="2.81994">
        <ele>136</ele>
        <time>2015-11-19T10:28:09Z</time>
      </trkpt>
      <trkpt lat="48.05196" lon="2.81999">
        <ele>137</ele>
        <time>2015-11-19T10:28:10Z</time>
      </trkpt>
      <trkpt lat="48.05192" lon="2.82005">
        <ele>138</ele>
        <time>2015-11-19T10:28:11Z</time>
      </trkpt>
      <trkpt lat="48.05188" lon="2.8201">
        <ele>140</ele>
        <time>2015-11-19T10:28:12Z</time>
      </trkpt>
      <trkpt lat="48.05184" lon="2.82016">
        <ele>142</ele>
        <time>2015-11-19T10:28:13Z</time>
      </trkpt>
      <trkpt lat="48.0518" lon="2.82022">
        <ele>144</ele>
        <time>2015-11-19T10:28:14Z</time>
      </trkpt>
      <trkpt lat="48.05177" lon="2.82029">
        <ele>146</ele>
        <time>2015-11-19T10:28:15Z</time>
      </trkpt>
      <trkpt lat="48.05173" lon="2.82034">
        <ele>148</ele>
        <time>2015-11-19T10:28:16Z</time>
      </trkpt>
      <trkpt lat="48.0517" lon="2.8204">
        <ele>150</ele>
        <time>2015-11-19T10:28:17Z</time>
      </trkpt>
      <trkpt lat="48.05167" lon="2.82045">
        <ele>152</ele>
        <time>2015-11-19T10:28:18Z</time>
      </trkpt>
      <trkpt lat="48.05164" lon="2.82051">
        <ele>155</ele>
        <time>2015-11-19T10:28:19Z</time>
      </trkpt>
      <trkpt lat="48.0516" lon="2.82054">
        <ele>157</ele>
        <time>2015-11-19T10:28:20Z</time>
      </trkpt>
      <trkpt lat="48.05156" lon="2.82059">
        <ele>159</ele>
        <time>2015-11-19T10:28:21Z</time>
      </trkpt>
      <trkpt lat="48.05153" lon="2.82065">
        <ele>161</ele>
        <time>2015-11-19T10:28:22Z</time>
      </trkpt>
      <trkpt lat="48.05149" lon="2.8207">
        <ele>162</ele>
        <time>2015-11-19T10:28:23Z</time>
      </trkpt>
      <trkpt lat="48.05143" lon="2.82077">
        <ele>163</ele>
        <time>2015-11-19T10:28:24Z</time>
      </trkpt>
      <trkpt lat="48.0514" lon="2.82082">
        <ele>163</ele>
        <time>2015-11-19T10:28:25Z</time>
      </trkpt>
      <trkpt lat="48.05136" lon="2.82087">
        <ele>163</ele>
        <time>2015-11-19T10:28:26Z</time>
      </trkpt>
      <trkpt lat="48.05133" lon="2.82093">
        <ele>163</ele>
        <time>2015-11-19T10:28:27Z</time>
      </trkpt>
      <trkpt lat="48.0513" lon="2.82099">
        <ele>164</ele>
        <time>2015-11-19T10:28:28Z</time>
      </trkpt>
      <trkpt lat="48.05127" lon="2.82105">
        <ele>165</ele>
        <time>2015-11-19T10:28:29Z</time>
      </trkpt>
      <trkpt lat="48.05122" lon="2.82111">
        <ele>166</ele>
        <time>2015-11-19T10:28:30Z</time>
      </trkpt>
      <trkpt lat="48.05119" lon="2.82116">
        <ele>167</ele>
        <time>2015-11-19T10:28:31Z</time>
      </trkpt>
      <trkpt lat="48.05115" lon="2.82122">
        <ele>168</ele>
        <time>2015-11-19T10:28:32Z</time>
      </trkpt>
      <trkpt lat="48.05112" lon="2.82126">
        <ele>169</ele>
        <time>2015-11-19T10:28:33Z</time>
      </trkpt>
      <trkpt lat="48.05108" lon="2.82131">
        <ele>170</ele>
        <time>2015-11-19T10:28:34Z</time>
      </trkpt>
      <trkpt lat="48.05106" lon="2.82135">
        <ele>171</ele>
        <time>2015-11-19T10:28:35Z</time>
      </trkpt>
      <trkpt lat="48.05102" lon="2.82141">
        <ele>172</ele>
        <time>2015-11-19T10:28:36Z</time>
      </trkpt>
      <trkpt lat="48.05096" lon="2.82153">
        <ele>176</ele>
        <time>2015-11-19T10:28:38Z</time>
      </trkpt>
      <trkpt lat="48.05094" lon="2.82158">
        <ele>178</ele>
        <time>2015-11-19T10:28:39Z</time>
      </trkpt>
      <trkpt lat="48.05091" lon="2.82164">
        <ele>180</ele>
        <time>2015-11-19T10:28:40Z</time>
      </trkpt>
      <trkpt lat="48.05089" lon="2.82168">
        <ele>182</ele>
        <time>2015-11-19T10:28:41Z</time>
      </trkpt>
      <trkpt lat="48.05086" lon="2.82172">
        <ele>183</ele>
        <time>2015-11-19T10:28:42Z</time>
      </trkpt>
      <trkpt lat="48.05083" lon="2.82175">
        <ele>185</ele>
        <time>2015-11-19T10:28:43Z</time>
      </trkpt>
      <trkpt lat="48.0508" lon="2.8218">
        <ele>186</ele>
        <time>2015-11-19T10:28:44Z</time>
      </trkpt>
      <trkpt lat="48.05077" lon="2.82185">
        <ele>187</ele>
        <time>2015-11-19T10:28:45Z</time>
      </trkpt>
      <trkpt lat="48.05074" lon="2.8219">
        <ele>188</ele>
        <time>2015-11-19T10:28:46Z</time>
      </trkpt>
      <trkpt lat="48.05071" lon="2.82195">
        <ele>189</ele>
        <time>2015-11-19T10:28:47Z</time>
      </trkpt>
      <trkpt lat="48.05067" lon="2.82201">
        <ele>190</ele>
        <time>2015-11-19T10:28:48Z</time>
      </trkpt>
      <trkpt lat="48.05065" lon="2.82206">
        <ele>191</ele>
        <time>2015-11-19T10:28:49Z</time>
      </trkpt>
      <trkpt lat="48.05061" lon="2.82212">
        <ele>192</ele>
        <time>2015-11-19T10:28:50Z</time>
      </trkpt>
      <trkpt lat="48.05058" lon="2.82217">
        <ele>193</ele>
        <time>2015-11-19T10:28:51Z</time>
      </trkpt>
      <trkpt lat="48.05055" lon="2.82223">
        <ele>193</ele>
        <time>2015-11-19T10:28:52Z</time>
      </trkpt>
      <trkpt lat="48.05052" lon="2.82227">
        <ele>193</ele>
        <time>2015-11-19T10:28:53Z</time>
      </trkpt>
      <trkpt lat="48.05048" lon="2.82232">
        <ele>193</ele>
        <time>2015-11-19T10:28:54Z</time>
      </trkpt>
      <trkpt lat="48.05043" lon="2.82239">
        <ele>193</ele>
        <time>2015-11-19T10:28:55Z</time>
      </trkpt>
      <trkpt lat="48.0504" lon="2.82246">
        <ele>193</ele>
        <time>2015-11-19T10:28:56Z</time>
      </trkpt>
      <trkpt lat="48.05037" lon="2.82253">
        <ele>193</ele>
        <time>2015-11-19T10:28:57Z</time>
      </trkpt>
      <trkpt lat="48.05034" lon="2.82258">
        <ele>193</ele>
        <time>2015-11-19T10:28:58Z</time>
      </trkpt>
      <trkpt lat="48.05015" lon="2.82279">
        <ele>193</ele>
        <time>2015-11-19T10:28:59Z</time>
      </trkpt>
      <trkpt lat="48.0501" lon="2.82284">
        <ele>192</ele>
        <time>2015-11-19T10:29:00Z</time>
      </trkpt>
      <trkpt lat="48.05009" lon="2.82289">
        <ele>191</ele>
        <time>2015-11-19T10:29:01Z</time>
      </trkpt>
      <trkpt lat="48.05009" lon="2.82295">
        <ele>189</ele>
        <time>2015-11-19T10:29:02Z</time>
      </trkpt>
      <trkpt lat="48.05009" lon="2.82299">
        <ele>187</ele>
        <time>2015-11-19T10:29:03Z</time>
      </trkpt>
      <trkpt lat="48.05009" lon="2.82303">
        <ele>185</ele>
        <time>2015-11-19T10:29:04Z</time>
      </trkpt>
      <trkpt lat="48.05009" lon="2.82307">
        <ele>183</ele>
        <time>2015-11-19T10:29:05Z</time>
      </trkpt>
      <trkpt lat="48.05009" lon="2.82312">
        <ele>181</ele>
        <time>2015-11-19T10:29:06Z</time>
      </trkpt>
      <trkpt lat="48.0501" lon="2.82315">
        <ele>179</ele>
        <time>2015-11-19T10:29:07Z</time>
      </trkpt>
      <trkpt lat="48.05011" lon="2.82318">
        <ele>178</ele>
        <time>2015-11-19T10:29:08Z</time>
      </trkpt>
      <trkpt lat="48.05012" lon="2.8232">
        <ele>177</ele>
        <time>2015-11-19T10:29:09Z</time>
      </trkpt>
      <trkpt lat="48.05013" lon="2.82323">
        <ele>176</ele>
        <time>2015-11-19T10:29:10Z</time>
      </trkpt>
      <trkpt lat="48.05013" lon="2.82327">
        <ele>175</ele>
        <time>2015-11-19T10:29:11Z</time>
      </trkpt>
      <trkpt lat="48.05015" lon="2.82331">
        <ele>174</ele>
        <time>2015-11-19T10:29:12Z</time>
      </trkpt>
      <trkpt lat="48.05016" lon="2.82335">
        <ele>173</ele>
        <time>2015-11-19T10:29:13Z</time>
      </trkpt>
      <trkpt lat="48.05018" lon="2.8234">
        <ele>172</ele>
        <time>2015-11-19T10:29:14Z</time>
      </trkpt>
      <trkpt lat="48.0502" lon="2.82344">
        <ele>171</ele>
        <time>2015-11-19T10:29:15Z</time>
      </trkpt>
      <trkpt lat="48.05022" lon="2.82349">
        <ele>170</ele>
        <time>2015-11-19T10:29:16Z</time>
      </trkpt>
      <trkpt lat="48.05023" lon="2.82353">
        <ele>170</ele>
        <time>2015-11-19T10:29:17Z</time>
      </trkpt>
      <trkpt lat="48.05024" lon="2.82358">
        <ele>170</ele>
        <time>2015-11-19T10:29:18Z</time>
      </trkpt>
      <trkpt lat="48.05026" lon="2.82363">
        <ele>169</ele>
        <time>2015-11-19T10:29:19Z</time>
      </trkpt>
      <trkpt lat="48.05028" lon="2.82367">
        <ele>169</ele>
        <time>2015-11-19T10:29:20Z</time>
      </trkpt>
      <trkpt lat="48.0503" lon="2.82371">
        <ele>168</ele>
        <time>2015-11-19T10:29:21Z</time>
      </trkpt>
      <trkpt lat="48.05032" lon="2.82376">
        <ele>168</ele>
        <time>2015-11-19T10:29:22Z</time>
      </trkpt>
      <trkpt lat="48.05034" lon="2.8238">
        <ele>167</ele>
        <time>2015-11-19T10:29:23Z</time>
      </trkpt>
      <trkpt lat="48.05037" lon="2.82385">
        <ele>166</ele>
        <time>2015-11-19T10:29:24Z</time>
      </trkpt>
      <trkpt lat="48.0504" lon="2.8239">
        <ele>165</ele>
        <time>2015-11-19T10:29:25Z</time>
      </trkpt>
      <trkpt lat="48.05042" lon="2.82396">
        <ele>165</ele>
        <time>2015-11-19T10:29:26Z</time>
      </trkpt>
      <trkpt lat="48.05044" lon="2.824">
        <ele>164</ele>
        <time>2015-11-19T10:29:27Z</time>
      </trkpt>
      <trkpt lat="48.05046" lon="2.82403">
        <ele>163</ele>
        <time>2015-11-19T10:29:28Z</time>
      </trkpt>
      <trkpt lat="48.05049" lon="2.82407">
        <ele>163</ele>
        <time>2015-11-19T10:29:29Z</time>
      </trkpt>
      <trkpt lat="48.05051" lon="2.82411">
        <ele>163</ele>
        <time>2015-11-19T10:29:30Z</time>
      </trkpt>
      <trkpt lat="48.05053" lon="2.82415">
        <ele>163</ele>
        <time>2015-11-19T10:29:31Z</time>
      </trkpt>
      <trkpt lat="48.05056" lon="2.82419">
        <ele>163</ele>
        <time>2015-11-19T10:29:32Z</time>
      </trkpt>
      <trkpt lat="48.05058" lon="2.82423">
        <ele>163</ele>
        <time>2015-11-19T10:29:33Z</time>
      </trkpt>
      <trkpt lat="48.05061" lon="2.82428">
        <ele>163</ele>
        <time>2015-11-19T10:29:34Z</time>
      </trkpt>
      <trkpt lat="48.05064" lon="2.82433">
        <ele>163</ele>
        <time>2015-11-19T10:29:35Z</time>
      </trkpt>
      <trkpt lat="48.05068" lon="2.82438">
        <ele>162</ele>
        <time>2015-11-19T10:29:36Z</time>
      </trkpt>
      <trkpt lat="48.0507" lon="2.82443">
        <ele>162</ele>
        <time>2015-11-19T10:29:37Z</time>
      </trkpt>
      <trkpt lat="48.05074" lon="2.82448">
        <ele>162</ele>
        <time>2015-11-19T10:29:38Z</time>
      </trkpt>
      <trkpt lat="48.05077" lon="2.82453">
        <ele>162</ele>
        <time>2015-11-19T10:29:39Z</time>
      </trkpt>
      <trkpt lat="48.05081" lon="2.82459">
        <ele>162</ele>
        <time>2015-11-19T10:29:40Z</time>
      </trkpt>
      <trkpt lat="48.05085" lon="2.82464">
        <ele>161</ele>
        <time>2015-11-19T10:29:41Z</time>
      </trkpt>
      <trkpt lat="48.05088" lon="2.82469">
        <ele>161</ele>
        <time>2015-11-19T10:29:42Z</time>
      </trkpt>
      <trkpt lat="48.05092" lon="2.82474">
        <ele>160</ele>
        <time>2015-11-19T10:29:43Z</time>
      </trkpt>
      <trkpt lat="48.05094" lon="2.82479">
        <ele>160</ele>
        <time>2015-11-19T10:29:44Z</time>
      </trkpt>
      <trkpt lat="48.05098" lon="2.82483">
        <ele>160</ele>
        <time>2015-11-19T10:29:45Z</time>
      </trkpt>
      <trkpt lat="48.05101" lon="2.82487">
        <ele>160</ele>
        <time>2015-11-19T10:29:46Z</time>
      </trkpt>
      <trkpt lat="48.05104" lon="2.8249">
        <ele>160</ele>
        <time>2015-11-19T10:29:47Z</time>
      </trkpt>
      <trkpt lat="48.05106" lon="2.82494">
        <ele>160</ele>
        <time>2015-11-19T10:29:48Z</time>
      </trkpt>
      <trkpt lat="48.05109" lon="2.82498">
        <ele>160</ele>
        <time>2015-11-19T10:29:49Z</time>
      </trkpt>
      <trkpt lat="48.05111" lon="2.82502">
        <ele>160</ele>
        <time>2015-11-19T10:29:50Z</time>
      </trkpt>
      <trkpt lat="48.05113" lon="2.82505">
        <ele>160</ele>
        <time>2015-11-19T10:29:51Z</time>
      </trkpt>
      <trkpt lat="48.05115" lon="2.82508">
        <ele>160</ele>
        <time>2015-11-19T10:29:52Z</time>
      </trkpt>
      <trkpt lat="48.05117" lon="2.82512">
        <ele>160</ele>
        <time>2015-11-19T10:29:53Z</time>
      </trkpt>
      <trkpt lat="48.05121" lon="2.82516">
        <ele>160</ele>
        <time>2015-11-19T10:29:54Z</time>
      </trkpt>
      <trkpt lat="48.05124" lon="2.8252">
        <ele>160</ele>
        <time>2015-11-19T10:29:55Z</time>
      </trkpt>
      <trkpt lat="48.05127" lon="2.82524">
        <ele>160</ele>
        <time>2015-11-19T10:29:56Z</time>
      </trkpt>
      <trkpt lat="48.05132" lon="2.82534">
        <ele>160</ele>
        <time>2015-11-19T10:29:58Z</time>
      </trkpt>
      <trkpt lat="48.05135" lon="2.82539">
        <ele>161</ele>
        <time>2015-11-19T10:29:59Z</time>
      </trkpt>
      <trkpt lat="48.05138" lon="2.82545">
        <ele>161</ele>
        <time>2015-11-19T10:30:00Z</time>
      </trkpt>
      <trkpt lat="48.05142" lon="2.8255">
        <ele>162</ele>
        <time>2015-11-19T10:30:01Z</time>
      </trkpt>
      <trkpt lat="48.05146" lon="2.82556">
        <ele>163</ele>
        <time>2015-11-19T10:30:02Z</time>
      </trkpt>
      <trkpt lat="48.05148" lon="2.8256">
        <ele>163</ele>
        <time>2015-11-19T10:30:03Z</time>
      </trkpt>
      <trkpt lat="48.05151" lon="2.82565">
        <ele>163</ele>
        <time>2015-11-19T10:30:04Z</time>
      </trkpt>
      <trkpt lat="48.05154" lon="2.82571">
        <ele>163</ele>
        <time>2015-11-19T10:30:05Z</time>
      </trkpt>
      <trkpt lat="48.05158" lon="2.82576">
        <ele>163</ele>
        <time>2015-11-19T10:30:06Z</time>
      </trkpt>
      <trkpt lat="48.05162" lon="2.82581">
        <ele>163</ele>
        <time>2015-11-19T10:30:07Z</time>
      </trkpt>
      <trkpt lat="48.05165" lon="2.82588">
        <ele>163</ele>
        <time>2015-11-19T10:30:08Z</time>
      </trkpt>
      <trkpt lat="48.05169" lon="2.82593">
        <ele>163</ele>
        <time>2015-11-19T10:30:09Z</time>
      </trkpt>
      <trkpt lat="48.05173" lon="2.82597">
        <ele>164</ele>
        <time>2015-11-19T10:30:10Z</time>
      </trkpt>
      <trkpt lat="48.05176" lon="2.82602">
        <ele>164</ele>
        <time>2015-11-19T10:30:11Z</time>
      </trkpt>
      <trkpt lat="48.0518" lon="2.82607">
        <ele>165</ele>
        <time>2015-11-19T10:30:12Z</time>
      </trkpt>
      <trkpt lat="48.05182" lon="2.82611">
        <ele>165</ele>
        <time>2015-11-19T10:30:13Z</time>
      </trkpt>
      <trkpt lat="48.05184" lon="2.82616">
        <ele>166</ele>
        <time>2015-11-19T10:30:14Z</time>
      </trkpt>
      <trkpt lat="48.05186" lon="2.8262">
        <ele>166</ele>
        <time>2015-11-19T10:30:15Z</time>
      </trkpt>
      <trkpt lat="48.0519" lon="2.82625">
        <ele>167</ele>
        <time>2015-11-19T10:30:16Z</time>
      </trkpt>
      <trkpt lat="48.05193" lon="2.82629">
        <ele>167</ele>
        <time>2015-11-19T10:30:17Z</time>
      </trkpt>
      <trkpt lat="48.05197" lon="2.82634">
        <ele>168</ele>
        <time>2015-11-19T10:30:18Z</time>
      </trkpt>
      <trkpt lat="48.052" lon="2.82639">
        <ele>168</ele>
        <time>2015-11-19T10:30:19Z</time>
      </trkpt>
      <trkpt lat="48.05203" lon="2.82644">
        <ele>169</ele>
        <time>2015-11-19T10:30:20Z</time>
      </trkpt>
      <trkpt lat="48.05207" lon="2.82649">
        <ele>170</ele>
        <time>2015-11-19T10:30:21Z</time>
      </trkpt>
      <trkpt lat="48.05211" lon="2.82656">
        <ele>171</ele>
        <time>2015-11-19T10:30:22Z</time>
      </trkpt>
      <trkpt lat="48.05214" lon="2.82661">
        <ele>172</ele>
        <time>2015-11-19T10:30:23Z</time>
      </trkpt>
      <trkpt lat="48.05217" lon="2.82667">
        <ele>173</ele>
        <time>2015-11-19T10:30:24Z</time>
      </trkpt>
      <trkpt lat="48.0522" lon="2.82672">
        <ele>174</ele>
        <time>2015-11-19T10:30:25Z</time>
      </trkpt>
      <trkpt lat="48.05222" lon="2.82676">
        <ele>175</ele>
        <time>2015-11-19T10:30:26Z</time>
      </trkpt>
      <trkpt lat="48.05225" lon="2.8268">
        <ele>175</ele>
        <time>2015-11-19T10:30:27Z</time>
      </trkpt>
      <trkpt lat="48.05228" lon="2.82685">
        <ele>175</ele>
        <time>2015-11-19T10:30:28Z</time>
      </trkpt>
      <trkpt lat="48.05231" lon="2.82691">
        <ele>176</ele>
        <time>2015-11-19T10:30:29Z</time>
      </trkpt>
      <trkpt lat="48.05235" lon="2.82696">
        <ele>176</ele>
        <time>2015-11-19T10:30:30Z</time>
      </trkpt>
      <trkpt lat="48.05239" lon="2.827">
        <ele>176</ele>
        <time>2015-11-19T10:30:31Z</time>
      </trkpt>
      <trkpt lat="48.05242" lon="2.82705">
        <ele>176</ele>
        <time>2015-11-19T10:30:32Z</time>
      </trkpt>
      <trkpt lat="48.05245" lon="2.82709">
        <ele>177</ele>
        <time>2015-11-19T10:30:33Z</time>
      </trkpt>
      <trkpt lat="48.05248" lon="2.82714">
        <ele>178</ele>
        <time>2015-11-19T10:30:34Z</time>
      </trkpt>
      <trkpt lat="48.05251" lon="2.82718">
        <ele>179</ele>
        <time>2015-11-19T10:30:35Z</time>
      </trkpt>
      <trkpt lat="48.05255" lon="2.82724">
        <ele>180</ele>
        <time>2015-11-19T10:30:36Z</time>
      </trkpt>
      <trkpt lat="48.05258" lon="2.82729">
        <ele>180</ele>
        <time>2015-11-19T10:30:37Z</time>
      </trkpt>
      <trkpt lat="48.05261" lon="2.82734">
        <ele>181</ele>
        <time>2015-11-19T10:30:38Z</time>
      </trkpt>
      <trkpt lat="48.05264" lon="2.82739">
        <ele>182</ele>
        <time>2015-11-19T10:30:39Z</time>
      </trkpt>
      <trkpt lat="48.05268" lon="2.82743">
        <ele>182</ele>
        <time>2015-11-19T10:30:40Z</time>
      </trkpt>
      <trkpt lat="48.05272" lon="2.82748">
        <ele>183</ele>
        <time>2015-11-19T10:30:41Z</time>
      </trkpt>
      <trkpt lat="48.05277" lon="2.82753">
        <ele>184</ele>
        <time>2015-11-19T10:30:42Z</time>
      </trkpt>
      <trkpt lat="48.05281" lon="2.82759">
        <ele>185</ele>
        <time>2015-11-19T10:30:43Z</time>
      </trkpt>
      <trkpt lat="48.05285" lon="2.82766">
        <ele>186</ele>
        <time>2015-11-19T10:30:44Z</time>
      </trkpt>
      <trkpt lat="48.05289" lon="2.82772">
        <ele>187</ele>
        <time>2015-11-19T10:30:45Z</time>
      </trkpt>
      <trkpt lat="48.05294" lon="2.8278">
        <ele>188</ele>
        <time>2015-11-19T10:30:46Z</time>
      </trkpt>
      <trkpt lat="48.05299" lon="2.82787">
        <ele>189</ele>
        <time>2015-11-19T10:30:47Z</time>
      </trkpt>
      <trkpt lat="48.05303" lon="2.82793">
        <ele>190</ele>
        <time>2015-11-19T10:30:48Z</time>
      </trkpt>
      <trkpt lat="48.05307" lon="2.828">
        <ele>191</ele>
        <time>2015-11-19T10:30:49Z</time>
      </trkpt>
      <trkpt lat="48.05312" lon="2.82806">
        <ele>192</ele>
        <time>2015-11-19T10:30:50Z</time>
      </trkpt>
      <trkpt lat="48.05318" lon="2.82814">
        <ele>193</ele>
        <time>2015-11-19T10:30:51Z</time>
      </trkpt>
      <trkpt lat="48.05323" lon="2.82821">
        <ele>194</ele>
        <time>2015-11-19T10:30:52Z</time>
      </trkpt>
      <trkpt lat="48.05328" lon="2.82827">
        <ele>195</ele>
        <time>2015-11-19T10:30:53Z</time>
      </trkpt>
      <trkpt lat="48.05333" lon="2.82834">
        <ele>195</ele>
        <time>2015-11-19T10:30:54Z</time>
      </trkpt>
      <trkpt lat="48.05337" lon="2.8284">
        <ele>195</ele>
        <time>2015-11-19T10:30:55Z</time>
      </trkpt>
      <trkpt lat="48.05341" lon="2.82846">
        <ele>196</ele>
        <time>2015-11-19T10:30:56Z</time>
      </trkpt>
      <trkpt lat="48.05346" lon="2.82854">
        <ele>197</ele>
        <time>2015-11-19T10:30:57Z</time>
      </trkpt>
      <trkpt lat="48.05352" lon="2.82863">
        <ele>198</ele>
        <time>2015-11-19T10:30:58Z</time>
      </trkpt>
      <trkpt lat="48.05358" lon="2.82873">
        <ele>199</ele>
        <time>2015-11-19T10:30:59Z</time>
      </trkpt>
      <trkpt lat="48.05364" lon="2.82882">
        <ele>200</ele>
        <time>2015-11-19T10:31:00Z</time>
      </trkpt>
      <trkpt lat="48.05371" lon="2.82893">
        <ele>201</ele>
        <time>2015-11-19T10:31:01Z</time>
      </trkpt>
      <trkpt lat="48.05378" lon="2.82903">
        <ele>201</ele>
        <time>2015-11-19T10:31:02Z</time>
      </trkpt>
      <trkpt lat="48.05384" lon="2.82911">
        <ele>202</ele>
        <time>2015-11-19T10:31:03Z</time>
      </trkpt>
      <trkpt lat="48.05389" lon="2.82918">
        <ele>202</ele>
        <time>2015-11-19T10:31:04Z</time>
      </trkpt>
      <trkpt lat="48.05395" lon="2.82925">
        <ele>202</ele>
        <time>2015-11-19T10:31:05Z</time>
      </trkpt>
      <trkpt lat="48.05401" lon="2.82932">
        <ele>202</ele>
        <time>2015-11-19T10:31:06Z</time>
      </trkpt>
      <trkpt lat="48.05408" lon="2.82938">
        <ele>202</ele>
        <time>2015-11-19T10:31:07Z</time>
      </trkpt>
      <trkpt lat="48.05415" lon="2.82941">
        <ele>202</ele>
        <time>2015-11-19T10:31:08Z</time>
      </trkpt>
      <trkpt lat="48.05427" lon="2.82949">
        <ele>202</ele>
        <time>2015-11-19T10:31:09Z</time>
      </trkpt>
      <trkpt lat="48.05439" lon="2.82958">
        <ele>201</ele>
        <time>2015-11-19T10:31:10Z</time>
      </trkpt>
      <trkpt lat="48.05464" lon="2.82974">
        <ele>198</ele>
        <time>2015-11-19T10:31:12Z</time>
      </trkpt>
      <trkpt lat="48.05477" lon="2.82981">
        <ele>196</ele>
        <time>2015-11-19T10:31:13Z</time>
      </trkpt>
      <trkpt lat="48.05491" lon="2.82994">
        <ele>193</ele>
        <time>2015-11-19T10:31:14Z</time>
      </trkpt>
      <trkpt lat="48.05499" lon="2.82994">
        <ele>190</ele>
        <time>2015-11-19T10:31:15Z</time>
      </trkpt>
      <trkpt lat="48.05515" lon="2.83009">
        <ele>187</ele>
        <time>2015-11-19T10:31:16Z</time>
      </trkpt>
      <trkpt lat="48.05524" lon="2.83013">
        <ele>183</ele>
        <time>2015-11-19T10:31:17Z</time>
      </trkpt>
      <trkpt lat="48.05534" lon="2.83016">
        <ele>179</ele>
        <time>2015-11-19T10:31:18Z</time>
      </trkpt>
      <trkpt lat="48.05541" lon="2.83017">
        <ele>175</ele>
        <time>2015-11-19T10:31:19Z</time>
      </trkpt>
      <trkpt lat="48.05548" lon="2.83016">
        <ele>170</ele>
        <time>2015-11-19T10:31:20Z</time>
      </trkpt>
      <trkpt lat="48.05553" lon="2.83013">
        <ele>166</ele>
        <time>2015-11-19T10:31:21Z</time>
      </trkpt>
      <trkpt lat="48.05558" lon="2.83008">
        <ele>162</ele>
        <time>2015-11-19T10:31:22Z</time>
      </trkpt>
      <trkpt lat="48.05562" lon="2.83004">
        <ele>158</ele>
        <time>2015-11-19T10:31:23Z</time>
      </trkpt>
      <trkpt lat="48.05566" lon="2.82999">
        <ele>154</ele>
        <time>2015-11-19T10:31:24Z</time>
      </trkpt>
      <trkpt lat="48.05571" lon="2.82994">
        <ele>151</ele>
        <time>2015-11-19T10:31:25Z</time>
      </trkpt>
      <trkpt lat="48.05575" lon="2.82989">
        <ele>148</ele>
        <time>2015-11-19T10:31:26Z</time>
      </trkpt>
      <trkpt lat="48.05579" lon="2.82982">
        <ele>145</ele>
        <time>2015-11-19T10:31:27Z</time>
      </trkpt>
      <trkpt lat="48.05582" lon="2.82975">
        <ele>142</ele>
        <time>2015-11-19T10:31:28Z</time>
      </trkpt>
      <trkpt lat="48.05586" lon="2.82968">
        <ele>139</ele>
        <time>2015-11-19T10:31:29Z</time>
      </trkpt>
      <trkpt lat="48.05589" lon="2.8296">
        <ele>137</ele>
        <time>2015-11-19T10:31:30Z</time>
      </trkpt>
      <trkpt lat="48.05593" lon="2.82952">
        <ele>135</ele>
        <time>2015-11-19T10:31:31Z</time>
      </trkpt>
      <trkpt lat="48.05596" lon="2.82944">
        <ele>133</ele>
        <time>2015-11-19T10:31:32Z</time>
      </trkpt>
      <trkpt lat="48.05599" lon="2.82936">
        <ele>131</ele>
        <time>2015-11-19T10:31:33Z</time>
      </trkpt>
      <trkpt lat="48.05603" lon="2.82928">
        <ele>129</ele>
        <time>2015-11-19T10:31:34Z</time>
      </trkpt>
      <trkpt lat="48.05606" lon="2.8292">
        <ele>127</ele>
        <time>2015-11-19T10:31:35Z</time>
      </trkpt>
      <trkpt lat="48.0561" lon="2.82911">
        <ele>126</ele>
        <time>2015-11-19T10:31:36Z</time>
      </trkpt>
      <trkpt lat="48.05613" lon="2.82903">
        <ele>125</ele>
        <time>2015-11-19T10:31:37Z</time>
      </trkpt>
      <trkpt lat="48.05617" lon="2.82895">
        <ele>124</ele>
        <time>2015-11-19T10:31:38Z</time>
      </trkpt>
      <trkpt lat="48.05621" lon="2.82886">
        <ele>123</ele>
        <time>2015-11-19T10:31:39Z</time>
      </trkpt>
      <trkpt lat="48.05625" lon="2.82878">
        <ele>122</ele>
        <time>2015-11-19T10:31:40Z</time>
      </trkpt>
      <trkpt lat="48.05629" lon="2.8287">
        <ele>121</ele>
        <time>2015-11-19T10:31:41Z</time>
      </trkpt>
      <trkpt lat="48.05632" lon="2.82861">
        <ele>120</ele>
        <time>2015-11-19T10:31:42Z</time>
      </trkpt>
      <trkpt lat="48.05637" lon="2.82853">
        <ele>119</ele>
        <time>2015-11-19T10:31:43Z</time>
      </trkpt>
      <trkpt lat="48.0564" lon="2.82845">
        <ele>118</ele>
        <time>2015-11-19T10:31:44Z</time>
      </trkpt>
      <trkpt lat="48.05644" lon="2.82836">
        <ele>118</ele>
        <time>2015-11-19T10:31:45Z</time>
      </trkpt>
      <trkpt lat="48.05648" lon="2.82827">
        <ele>117</ele>
        <time>2015-11-19T10:31:46Z</time>
      </trkpt>
      <trkpt lat="48.05652" lon="2.82819">
        <ele>117</ele>
        <time>2015-11-19T10:31:47Z</time>
      </trkpt>
      <trkpt lat="48.05655" lon="2.82811">
        <ele>117</ele>
        <time>2015-11-19T10:31:48Z</time>
      </trkpt>
      <trkpt lat="48.05659" lon="2.82802">
        <ele>117</ele>
        <time>2015-11-19T10:31:49Z</time>
      </trkpt>
      <trkpt lat="48.05662" lon="2.82794">
        <ele>117</ele>
        <time>2015-11-19T10:31:50Z</time>
      </trkpt>
      <trkpt lat="48.05666" lon="2.82785">
        <ele>117</ele>
        <time>2015-11-19T10:31:51Z</time>
      </trkpt>
      <trkpt lat="48.05669" lon="2.82777">
        <ele>117</ele>
        <time>2015-11-19T10:31:52Z</time>
      </trkpt>
      <trkpt lat="48.05672" lon="2.82769">
        <ele>117</ele>
        <time>2015-11-19T10:31:53Z</time>
      </trkpt>
      <trkpt lat="48.05676" lon="2.8276">
        <ele>116</ele>
        <time>2015-11-19T10:31:54Z</time>
      </trkpt>
      <trkpt lat="48.05679" lon="2.82752">
        <ele>116</ele>
        <time>2015-11-19T10:31:55Z</time>
      </trkpt>
      <trkpt lat="48.05683" lon="2.82744">
        <ele>116</ele>
        <time>2015-11-19T10:31:56Z</time>
      </trkpt>
      <trkpt lat="48.05686" lon="2.82735">
        <ele>116</ele>
        <time>2015-11-19T10:31:57Z</time>
      </trkpt>
      <trkpt lat="48.0569" lon="2.82727">
        <ele>115</ele>
        <time>2015-11-19T10:31:58Z</time>
      </trkpt>
      <trkpt lat="48.05693" lon="2.82719">
        <ele>115</ele>
        <time>2015-11-19T10:31:59Z</time>
      </trkpt>
      <trkpt lat="48.05697" lon="2.82711">
        <ele>115</ele>
        <time>2015-11-19T10:32:00Z</time>
      </trkpt>
      <trkpt lat="48.057" lon="2.82703">
        <ele>114</ele>
        <time>2015-11-19T10:32:01Z</time>
      </trkpt>
      <trkpt lat="48.05703" lon="2.82695">
        <ele>114</ele>
        <time>2015-11-19T10:32:02Z</time>
      </trkpt>
      <trkpt lat="48.05706" lon="2.82686">
        <ele>114</ele>
        <time>2015-11-19T10:32:03Z</time>
      </trkpt>
      <trkpt lat="48.05709" lon="2.82678">
        <ele>113</ele>
        <time>2015-11-19T10:32:04Z</time>
      </trkpt>
      <trkpt lat="48.05712" lon="2.8267">
        <ele>113</ele>
        <time>2015-11-19T10:32:05Z</time>
      </trkpt>
      <trkpt lat="48.05717" lon="2.82664">
        <ele>112</ele>
        <time>2015-11-19T10:32:06Z</time>
      </trkpt>
      <trkpt lat="48.05722" lon="2.82659">
        <ele>111</ele>
        <time>2015-11-19T10:32:07Z</time>
      </trkpt>
      <trkpt lat="48.05727" lon="2.82652">
        <ele>111</ele>
        <time>2015-11-19T10:32:08Z</time>
      </trkpt>
      <trkpt lat="48.05733" lon="2.82646">
        <ele>110</ele>
        <time>2015-11-19T10:32:09Z</time>
      </trkpt>
      <trkpt lat="48.05739" lon="2.82639">
        <ele>109</ele>
        <time>2015-11-19T10:32:10Z</time>
      </trkpt>
      <trkpt lat="48.05745" lon="2.82632">
        <ele>109</ele>
        <time>2015-11-19T10:32:11Z</time>
      </trkpt>
      <trkpt lat="48.05752" lon="2.82624">
        <ele>108</ele>
        <time>2015-11-19T10:32:12Z</time>
      </trkpt>
      <trkpt lat="48.05758" lon="2.82616">
        <ele>107</ele>
        <time>2015-11-19T10:32:13Z</time>
      </trkpt>
      <trkpt lat="48.05764" lon="2.82607">
        <ele>106</ele>
        <time>2015-11-19T10:32:14Z</time>
      </trkpt>
      <trkpt lat="48.05768" lon="2.82598">
        <ele>105</ele>
        <time>2015-11-19T10:32:15Z</time>
      </trkpt>
      <trkpt lat="48.05771" lon="2.82589">
        <ele>104</ele>
        <time>2015-11-19T10:32:16Z</time>
      </trkpt>
      <trkpt lat="48.05774" lon="2.82581">
        <ele>103</ele>
        <time>2015-11-19T10:32:17Z</time>
      </trkpt>
      <trkpt lat="48.05777" lon="2.82576">
        <ele>102</ele>
        <time>2015-11-19T10:32:18Z</time>
      </trkpt>
      <trkpt lat="48.0578" lon="2.82575">
        <ele>102</ele>
        <time>2015-11-19T10:32:19Z</time>
      </trkpt>
      <trkpt lat="48.05783" lon="2.82578">
        <ele>101</ele>
        <time>2015-11-19T10:32:20Z</time>
      </trkpt>
      <trkpt lat="48.05786" lon="2.82581">
        <ele>101</ele>
        <time>2015-11-19T10:32:21Z</time>
      </trkpt>
      <trkpt lat="48.05809" lon="2.8261">
        <ele>100</ele>
        <time>2015-11-19T10:32:27Z</time>
      </trkpt>
      <trkpt lat="48.05813" lon="2.82617">
        <ele>99</ele>
        <time>2015-11-19T10:32:28Z</time>
      </trkpt>
      <trkpt lat="48.05814" lon="2.82621">
        <ele>98</ele>
        <time>2015-11-19T10:32:29Z</time>
      </trkpt>
      <trkpt lat="48.05811" lon="2.82625">
        <ele>97</ele>
        <time>2015-11-19T10:32:30Z</time>
      </trkpt>
      <trkpt lat="48.05809" lon="2.82632">
        <ele>96</ele>
        <time>2015-11-19T10:32:31Z</time>
      </trkpt>
      <trkpt lat="48.05807" lon="2.82638">
        <ele>96</ele>
        <time>2015-11-19T10:32:32Z</time>
      </trkpt>
      <trkpt lat="48.05804" lon="2.82643">
        <ele>96</ele>
        <time>2015-11-19T10:32:33Z</time>
      </trkpt>
      <trkpt lat="48.05804" lon="2.82645">
        <ele>96</ele>
        <time>2015-11-19T10:32:34Z</time>
      </trkpt>
      <trkpt lat="48.05802" lon="2.82645">
        <ele>96</ele>
        <time>2015-11-19T10:32:35Z</time>
      </trkpt>
      <trkpt lat="48.05804" lon="2.82641">
        <ele>96</ele>
        <time>2015-11-19T10:32:37Z</time>
      </trkpt>
      <trkpt lat="48.05807" lon="2.82638">
        <ele>96</ele>
        <time>2015-11-19T10:32:38Z</time>
      </trkpt>
      <trkpt lat="48.05809" lon="2.82634">
        <ele>96</ele>
        <time>2015-11-19T10:32:39Z</time>
      </trkpt>
      <trkpt lat="48.05812" lon="2.82629">
        <ele>96</ele>
        <time>2015-11-19T10:32:40Z</time>
      </trkpt>
      <trkpt lat="48.05814" lon="2.82625">
        <ele>96</ele>
        <time>2015-11-19T10:32:41Z</time>
      </trkpt>
      <trkpt lat="48.05817" lon="2.8262">
        <ele>96</ele>
        <time>2015-11-19T10:32:42Z</time>
      </trkpt>
      <trkpt lat="48.05819" lon="2.82616">
        <ele>96</ele>
        <time>2015-11-19T10:32:43Z</time>
      </trkpt>
      <trkpt lat="48.05822" lon="2.82611">
        <ele>96</ele>
        <time>2015-11-19T10:32:44Z</time>
      </trkpt>
      <trkpt lat="48.05824" lon="2.82607">
        <ele>96</ele>
        <time>2015-11-19T10:32:45Z</time>
      </trkpt>
      <trkpt lat="48.05827" lon="2.82603">
        <ele>96</ele>
        <time>2015-11-19T10:32:46Z</time>
      </trkpt>
      <trkpt lat="48.05829" lon="2.82598">
        <ele>96</ele>
        <time>2015-11-19T10:32:47Z</time>
      </trkpt>
      <trkpt lat="48.05831" lon="2.82594">
        <ele>96</ele>
        <time>2015-11-19T10:32:48Z</time>
      </trkpt>
      <trkpt lat="48.05834" lon="2.8259">
        <ele>96</ele>
        <time>2015-11-19T10:32:49Z</time>
      </trkpt>
      <trkpt lat="48.05835" lon="2.82588">
        <ele>96</ele>
        <time>2015-11-19T10:32:50Z</time>
      </trkpt>
      <trkpt lat="48.05836" lon="2.82588">
        <ele>96</ele>
        <time>2015-11-19T10:32:51Z</time>
      </trkpt>
      <trkpt lat="48.05837" lon="2.82592">
        <ele>96</ele>
        <time>2015-11-19T10:32:53Z</time>
      </trkpt>
      <trkpt lat="48.05838" lon="2.82594">
        <ele>96</ele>
        <time>2015-11-19T10:32:54Z</time>
      </trkpt>
      <trkpt lat="48.05838" lon="2.82597">
        <ele>96</ele>
        <time>2015-11-19T10:32:55Z</time>
      </trkpt>
      <trkpt lat="48.05838" lon="2.82601">
        <ele>96</ele>
        <time>2015-11-19T10:32:56Z</time>
      </trkpt>
      <trkpt lat="48.05839" lon="2.82604">
        <ele>96</ele>
        <time>2015-11-19T10:32:57Z</time>
      </trkpt>
      <trkpt lat="48.05839" lon="2.82607">
        <ele>96</ele>
        <time>2015-11-19T10:32:58Z</time>
      </trkpt>
      <trkpt lat="48.05841" lon="2.82611">
        <ele>96</ele>
        <time>2015-11-19T10:32:59Z</time>
      </trkpt>
      <trkpt lat="48.05842" lon="2.82615">
        <ele>97</ele>
        <time>2015-11-19T10:33:00Z</time>
      </trkpt>
      <trkpt lat="48.05844" lon="2.82619">
        <ele>97</ele>
        <time>2015-11-19T10:33:01Z</time>
      </trkpt>
      <trkpt lat="48.05845" lon="2.82623">
        <ele>97</ele>
        <time>2015-11-19T10:33:02Z</time>
      </trkpt>
      <trkpt lat="48.05846" lon="2.82626">
        <ele>97</ele>
        <time>2015-11-19T10:33:03Z</time>
      </trkpt>
      <trkpt lat="48.05846" lon="2.82629">
        <ele>97</ele>
        <time>2015-11-19T10:33:04Z</time>
      </trkpt>
      <trkpt lat="48.05847" lon="2.82631">
        <ele>97</ele>
        <time>2015-11-19T10:33:05Z</time>
      </trkpt>
      <trkpt lat="48.05848" lon="2.82633">
        <ele>98</ele>
        <time>2015-11-19T10:33:06Z</time>
      </trkpt>
      <trkpt lat="48.05849" lon="2.82635">
        <ele>98</ele>
        <time>2015-11-19T10:33:07Z</time>
      </trkpt>
      <trkpt lat="48.05851" lon="2.82637">
        <ele>98</ele>
        <time>2015-11-19T10:33:08Z</time>
      </trkpt>
      <trkpt lat="48.05852" lon="2.82638">
        <ele>98</ele>
        <time>2015-11-19T10:33:09Z</time>
      </trkpt>
      <trkpt lat="48.05853" lon="2.8264">
        <ele>98</ele>
        <time>2015-11-19T10:33:10Z</time>
      </trkpt>
      <trkpt lat="48.05854" lon="2.82642">
        <ele>99</ele>
        <time>2015-11-19T10:33:11Z</time>
      </trkpt>
      <trkpt lat="48.05856" lon="2.82642">
        <ele>100</ele>
        <time>2015-11-19T10:33:12Z</time>
      </trkpt>
      <trkpt lat="48.05857" lon="2.82643">
        <ele>101</ele>
        <time>2015-11-19T10:33:13Z</time>
      </trkpt>
      <trkpt lat="48.05858" lon="2.82645">
        <ele>102</ele>
        <time>2015-11-19T10:33:14Z</time>
      </trkpt>
      <trkpt lat="48.0586" lon="2.82646">
        <ele>103</ele>
        <time>2015-11-19T10:33:15Z</time>
      </trkpt>
      <trkpt lat="48.05861" lon="2.82647">
        <ele>104</ele>
        <time>2015-11-19T10:33:16Z</time>
      </trkpt>
      <trkpt lat="48.05862" lon="2.82648">
        <ele>105</ele>
        <time>2015-11-19T10:33:17Z</time>
      </trkpt>
      <trkpt lat="48.05864" lon="2.82649">
        <ele>106</ele>
        <time>2015-11-19T10:33:18Z</time>
      </trkpt>
      <trkpt lat="48.05865" lon="2.8265">
        <ele>107</ele>
        <time>2015-11-19T10:33:19Z</time>
      </trkpt>
      <trkpt lat="48.05867" lon="2.82652">
        <ele>108</ele>
        <time>2015-11-19T10:33:20Z</time>
      </trkpt>
      <trkpt lat="48.05868" lon="2.82653">
        <ele>109</ele>
        <time>2015-11-19T10:33:21Z</time>
      </trkpt>
      <trkpt lat="48.0587" lon="2.82655">
        <ele>110</ele>
        <time>2015-11-19T10:33:22Z</time>
      </trkpt>
      <trkpt lat="48.05872" lon="2.82656">
        <ele>111</ele>
        <time>2015-11-19T10:33:23Z</time>
      </trkpt>
      <trkpt lat="48.05873" lon="2.82658">
        <ele>112</ele>
        <time>2015-11-19T10:33:24Z</time>
      </trkpt>
      <trkpt lat="48.05874" lon="2.8266">
        <ele>113</ele>
        <time>2015-11-19T10:33:25Z</time>
      </trkpt>
      <trkpt lat="48.05875" lon="2.82662">
        <ele>114</ele>
        <time>2015-11-19T10:33:26Z</time>
      </trkpt>
      <trkpt lat="48.05878" lon="2.82664">
        <ele>116</ele>
        <time>2015-11-19T10:33:28Z</time>
      </trkpt>
      <trkpt lat="48.05879" lon="2.82665">
        <ele>117</ele>
        <time>2015-11-19T10:33:29Z</time>
      </trkpt>
      <trkpt lat="48.0588" lon="2.82667">
        <ele>118</ele>
        <time>2015-11-19T10:33:30Z</time>
      </trkpt>
      <trkpt lat="48.05882" lon="2.82668">
        <ele>119</ele>
        <time>2015-11-19T10:33:31Z</time>
      </trkpt>
      <trkpt lat="48.05883" lon="2.8267">
        <ele>120</ele>
        <time>2015-11-19T10:33:32Z</time>
      </trkpt>
      <trkpt lat="48.05885" lon="2.82671">
        <ele>121</ele>
        <time>2015-11-19T10:33:33Z</time>
      </trkpt>
      <trkpt lat="48.05887" lon="2.82673">
        <ele>122</ele>
        <time>2015-11-19T10:33:34Z</time>
      </trkpt>
      <trkpt lat="48.05888" lon="2.82674">
        <ele>123</ele>
        <time>2015-11-19T10:33:35Z</time>
      </trkpt>
      <trkpt lat="48.0589" lon="2.82676">
        <ele>124</ele>
        <time>2015-11-19T10:33:36Z</time>
      </trkpt>
      <trkpt lat="48.05892" lon="2.82677">
        <ele>125</ele>
        <time>2015-11-19T10:33:37Z</time>
      </trkpt>
      <trkpt lat="48.05893" lon="2.82677">
        <ele>126</ele>
        <time>2015-11-19T10:33:38Z</time>
      </trkpt>
      <trkpt lat="48.05895" lon="2.82679">
        <ele>127</ele>
        <time>2015-11-19T10:33:39Z</time>
      </trkpt>
      <trkpt lat="48.05896" lon="2.8268">
        <ele>128</ele>
        <time>2015-11-19T10:33:40Z</time>
      </trkpt>
      <trkpt lat="48.05898" lon="2.82681">
        <ele>129</ele>
        <time>2015-11-19T10:33:41Z</time>
      </trkpt>
      <trkpt lat="48.059" lon="2.82682">
        <ele>130</ele>
        <time>2015-11-19T10:33:42Z</time>
      </trkpt>
      <trkpt lat="48.05901" lon="2.82683">
        <ele>131</ele>
        <time>2015-11-19T10:33:43Z</time>
      </trkpt>
      <trkpt lat="48.05903" lon="2.82684">
        <ele>132</ele>
        <time>2015-11-19T10:33:44Z</time>
      </trkpt>
      <trkpt lat="48.05905" lon="2.82685">
        <ele>132</ele>
        <time>2015-11-19T10:33:45Z</time>
      </trkpt>
      <trkpt lat="48.05906" lon="2.82685">
        <ele>132</ele>
        <time>2015-11-19T10:33:46Z</time>
      </trkpt>
      <trkpt lat="48.05908" lon="2.82686">
        <ele>132</ele>
        <time>2015-11-19T10:33:47Z</time>
      </trkpt>
      <trkpt lat="48.0591" lon="2.82687">
        <ele>132</ele>
        <time>2015-11-19T10:33:48Z</time>
      </trkpt>
      <trkpt lat="48.05912" lon="2.82688">
        <ele>132</ele>
        <time>2015-11-19T10:33:49Z</time>
      </trkpt>
      <trkpt lat="48.05913" lon="2.82688">
        <ele>132</ele>
        <time>2015-11-19T10:33:50Z</time>
      </trkpt>
      <trkpt lat="48.05915" lon="2.82688">
        <ele>132</ele>
        <time>2015-11-19T10:33:51Z</time>
      </trkpt>
      <trkpt lat="48.05917" lon="2.82688">
        <ele>132</ele>
        <time>2015-11-19T10:33:52Z</time>
      </trkpt>
      <trkpt lat="48.05918" lon="2.82689">
        <ele>132</ele>
        <time>2015-11-19T10:33:53Z</time>
      </trkpt>
      <trkpt lat="48.0592" lon="2.82692">
        <ele>132</ele>
        <time>2015-11-19T10:33:54Z</time>
      </trkpt>
      <trkpt lat="48.05922" lon="2.82694">
        <ele>132</ele>
        <time>2015-11-19T10:33:55Z</time>
      </trkpt>
      <trkpt lat="48.05925" lon="2.82696">
        <ele>131</ele>
        <time>2015-11-19T10:33:56Z</time>
      </trkpt>
      <trkpt lat="48.05928" lon="2.82698">
        <ele>130</ele>
        <time>2015-11-19T10:33:57Z</time>
      </trkpt>
      <trkpt lat="48.0593" lon="2.827">
        <ele>130</ele>
        <time>2015-11-19T10:33:58Z</time>
      </trkpt>
      <trkpt lat="48.05933" lon="2.82703">
        <ele>130</ele>
        <time>2015-11-19T10:33:59Z</time>
      </trkpt>
      <trkpt lat="48.05936" lon="2.82704">
        <ele>129</ele>
        <time>2015-11-19T10:34:00Z</time>
      </trkpt>
      <trkpt lat="48.05938" lon="2.82707">
        <ele>129</ele>
        <time>2015-11-19T10:34:01Z</time>
      </trkpt>
      <trkpt lat="48.0594" lon="2.8271">
        <ele>129</ele>
        <time>2015-11-19T10:34:02Z</time>
      </trkpt>
      <trkpt lat="48.05943" lon="2.82715">
        <ele>129</ele>
        <time>2015-11-19T10:34:03Z</time>
      </trkpt>
      <trkpt lat="48.05945" lon="2.82719">
        <ele>129</ele>
        <time>2015-11-19T10:34:04Z</time>
      </trkpt>
      <trkpt lat="48.05947" lon="2.82723">
        <ele>129</ele>
        <time>2015-11-19T10:34:05Z</time>
      </trkpt>
      <trkpt lat="48.05949" lon="2.82728">
        <ele>129</ele>
        <time>2015-11-19T10:34:06Z</time>
      </trkpt>
      <trkpt lat="48.05951" lon="2.82732">
        <ele>129</ele>
        <time>2015-11-19T10:34:07Z</time>
      </trkpt>
      <trkpt lat="48.05952" lon="2.82735">
        <ele>129</ele>
        <time>2015-11-19T10:34:08Z</time>
      </trkpt>
      <trkpt lat="48.05955" lon="2.82738">
        <ele>129</ele>
        <time>2015-11-19T10:34:09Z</time>
      </trkpt>
      <trkpt lat="48.05957" lon="2.82742">
        <ele>129</ele>
        <time>2015-11-19T10:34:10Z</time>
      </trkpt>
      <trkpt lat="48.0596" lon="2.82747">
        <ele>129</ele>
        <time>2015-11-19T10:34:11Z</time>
      </trkpt>
      <trkpt lat="48.05964" lon="2.8275">
        <ele>129</ele>
        <time>2015-11-19T10:34:12Z</time>
      </trkpt>
      <trkpt lat="48.05967" lon="2.82755">
        <ele>129</ele>
        <time>2015-11-19T10:34:13Z</time>
      </trkpt>
      <trkpt lat="48.05969" lon="2.82758">
        <ele>129</ele>
        <time>2015-11-19T10:34:14Z</time>
      </trkpt>
      <trkpt lat="48.05972" lon="2.82763">
        <ele>129</ele>
        <time>2015-11-19T10:34:15Z</time>
      </trkpt>
      <trkpt lat="48.05974" lon="2.82767">
        <ele>129</ele>
        <time>2015-11-19T10:34:16Z</time>
      </trkpt>
      <trkpt lat="48.05976" lon="2.82771">
        <ele>129</ele>
        <time>2015-11-19T10:34:17Z</time>
      </trkpt>
      <trkpt lat="48.05978" lon="2.82774">
        <ele>129</ele>
        <time>2015-11-19T10:34:18Z</time>
      </trkpt>
      <trkpt lat="48.05982" lon="2.8278">
        <ele>129</ele>
        <time>2015-11-19T10:34:19Z</time>
      </trkpt>
      <trkpt lat="48.05986" lon="2.82784">
        <ele>129</ele>
        <time>2015-11-19T10:34:20Z</time>
      </trkpt>
      <trkpt lat="48.05989" lon="2.82787">
        <ele>129</ele>
        <time>2015-11-19T10:34:21Z</time>
      </trkpt>
      <trkpt lat="48.05991" lon="2.82789">
        <ele>129</ele>
        <time>2015-11-19T10:34:22Z</time>
      </trkpt>
      <trkpt lat="48.05994" lon="2.8279">
        <ele>129</ele>
        <time>2015-11-19T10:34:23Z</time>
      </trkpt>
      <trkpt lat="48.05996" lon="2.82791">
        <ele>130</ele>
        <time>2015-11-19T10:34:24Z</time>
      </trkpt>
      <trkpt lat="48.05998" lon="2.82791">
        <ele>131</ele>
        <time>2015-11-19T10:34:25Z</time>
      </trkpt>
      <trkpt lat="48.06002" lon="2.82793">
        <ele>131</ele>
        <time>2015-11-19T10:34:26Z</time>
      </trkpt>
      <trkpt lat="48.06006" lon="2.82797">
        <ele>132</ele>
        <time>2015-11-19T10:34:27Z</time>
      </trkpt>
      <trkpt lat="48.06011" lon="2.82801">
        <ele>132</ele>
        <time>2015-11-19T10:34:28Z</time>
      </trkpt>
      <trkpt lat="48.06015" lon="2.82805">
        <ele>132</ele>
        <time>2015-11-19T10:34:29Z</time>
      </trkpt>
      <trkpt lat="48.0602" lon="2.82808">
        <ele>132</ele>
        <time>2015-11-19T10:34:30Z</time>
      </trkpt>
      <trkpt lat="48.06023" lon="2.8281">
        <ele>132</ele>
        <time>2015-11-19T10:34:31Z</time>
      </trkpt>
      <trkpt lat="48.06027" lon="2.82813">
        <ele>132</ele>
        <time>2015-11-19T10:34:32Z</time>
      </trkpt>
      <trkpt lat="48.06031" lon="2.82816">
        <ele>132</ele>
        <time>2015-11-19T10:34:33Z</time>
      </trkpt>
      <trkpt lat="48.06035" lon="2.82819">
        <ele>132</ele>
        <time>2015-11-19T10:34:34Z</time>
      </trkpt>
      <trkpt lat="48.06038" lon="2.82822">
        <ele>132</ele>
        <time>2015-11-19T10:34:35Z</time>
      </trkpt>
      <trkpt lat="48.06042" lon="2.82825">
        <ele>132</ele>
        <time>2015-11-19T10:34:36Z</time>
      </trkpt>
      <trkpt lat="48.06046" lon="2.82828">
        <ele>132</ele>
        <time>2015-11-19T10:34:37Z</time>
      </trkpt>
      <trkpt lat="48.0605" lon="2.82832">
        <ele>132</ele>
        <time>2015-11-19T10:34:38Z</time>
      </trkpt>
      <trkpt lat="48.06054" lon="2.82835">
        <ele>132</ele>
        <time>2015-11-19T10:34:39Z</time>
      </trkpt>
      <trkpt lat="48.06058" lon="2.82838">
        <ele>132</ele>
        <time>2015-11-19T10:34:40Z</time>
      </trkpt>
      <trkpt lat="48.06062" lon="2.8284">
        <ele>132</ele>
        <time>2015-11-19T10:34:41Z</time>
      </trkpt>
      <trkpt lat="48.06066" lon="2.82843">
        <ele>132</ele>
        <time>2015-11-19T10:34:42Z</time>
      </trkpt>
      <trkpt lat="48.0607" lon="2.82846">
        <ele>132</ele>
        <time>2015-11-19T10:34:43Z</time>
      </trkpt>
      <trkpt lat="48.06074" lon="2.82848">
        <ele>132</ele>
        <time>2015-11-19T10:34:44Z</time>
      </trkpt>
      <trkpt lat="48.06078" lon="2.82851">
        <ele>132</ele>
        <time>2015-11-19T10:34:45Z</time>
      </trkpt>
      <trkpt lat="48.06083" lon="2.82853">
        <ele>132</ele>
        <time>2015-11-19T10:34:46Z</time>
      </trkpt>
      <trkpt lat="48.06088" lon="2.82858">
        <ele>132</ele>
        <time>2015-11-19T10:34:47Z</time>
      </trkpt>
      <trkpt lat="48.06093" lon="2.82863">
        <ele>132</ele>
        <time>2015-11-19T10:34:48Z</time>
      </trkpt>
      <trkpt lat="48.06098" lon="2.82867">
        <ele>132</ele>
        <time>2015-11-19T10:34:49Z</time>
      </trkpt>
      <trkpt lat="48.06104" lon="2.82871">
        <ele>132</ele>
        <time>2015-11-19T10:34:50Z</time>
      </trkpt>
      <trkpt lat="48.0611" lon="2.82875">
        <ele>131</ele>
        <time>2015-11-19T10:34:51Z</time>
      </trkpt>
      <trkpt lat="48.06116" lon="2.8288">
        <ele>130</ele>
        <time>2015-11-19T10:34:52Z</time>
      </trkpt>
      <trkpt lat="48.06122" lon="2.82884">
        <ele>130</ele>
        <time>2015-11-19T10:34:53Z</time>
      </trkpt>
      <trkpt lat="48.06127" lon="2.82888">
        <ele>129</ele>
        <time>2015-11-19T10:34:54Z</time>
      </trkpt>
      <trkpt lat="48.06131" lon="2.82889">
        <ele>128</ele>
        <time>2015-11-19T10:34:55Z</time>
      </trkpt>
      <trkpt lat="48.06134" lon="2.8289">
        <ele>127</ele>
        <time>2015-11-19T10:34:56Z</time>
      </trkpt>
      <trkpt lat="48.06138" lon="2.8289">
        <ele>127</ele>
        <time>2015-11-19T10:34:57Z</time>
      </trkpt>
      <trkpt lat="48.06142" lon="2.8289">
        <ele>127</ele>
        <time>2015-11-19T10:34:58Z</time>
      </trkpt>
      <trkpt lat="48.06146" lon="2.82891">
        <ele>127</ele>
        <time>2015-11-19T10:34:59Z</time>
      </trkpt>
      <trkpt lat="48.0615" lon="2.82892">
        <ele>127</ele>
        <time>2015-11-19T10:35:00Z</time>
      </trkpt>
      <trkpt lat="48.06155" lon="2.82894">
        <ele>127</ele>
        <time>2015-11-19T10:35:01Z</time>
      </trkpt>
      <trkpt lat="48.0616" lon="2.82896">
        <ele>127</ele>
        <time>2015-11-19T10:35:02Z</time>
      </trkpt>
      <trkpt lat="48.06165" lon="2.82899">
        <ele>127</ele>
        <time>2015-11-19T10:35:03Z</time>
      </trkpt>
      <trkpt lat="48.0617" lon="2.82902">
        <ele>127</ele>
        <time>2015-11-19T10:35:04Z</time>
      </trkpt>
      <trkpt lat="48.06174" lon="2.82904">
        <ele>127</ele>
        <time>2015-11-19T10:35:05Z</time>
      </trkpt>
      <trkpt lat="48.0618" lon="2.82906">
        <ele>127</ele>
        <time>2015-11-19T10:35:06Z</time>
      </trkpt>
      <trkpt lat="48.06186" lon="2.8291">
        <ele>127</ele>
        <time>2015-11-19T10:35:07Z</time>
      </trkpt>
      <trkpt lat="48.06192" lon="2.82913">
        <ele>127</ele>
        <time>2015-11-19T10:35:08Z</time>
      </trkpt>
      <trkpt lat="48.06198" lon="2.82916">
        <ele>127</ele>
        <time>2015-11-19T10:35:09Z</time>
      </trkpt>
      <trkpt lat="48.06205" lon="2.82919">
        <ele>127</ele>
        <time>2015-11-19T10:35:10Z</time>
      </trkpt>
      <trkpt lat="48.0621" lon="2.82922">
        <ele>127</ele>
        <time>2015-11-19T10:35:11Z</time>
      </trkpt>
      <trkpt lat="48.06217" lon="2.82925">
        <ele>127</ele>
        <time>2015-11-19T10:35:12Z</time>
      </trkpt>
      <trkpt lat="48.06224" lon="2.82929">
        <ele>127</ele>
        <time>2015-11-19T10:35:13Z</time>
      </trkpt>
      <trkpt lat="48.06231" lon="2.82933">
        <ele>127</ele>
        <time>2015-11-19T10:35:14Z</time>
      </trkpt>
      <trkpt lat="48.06237" lon="2.82936">
        <ele>127</ele>
        <time>2015-11-19T10:35:15Z</time>
      </trkpt>
      <trkpt lat="48.06244" lon="2.8294">
        <ele>127</ele>
        <time>2015-11-19T10:35:16Z</time>
      </trkpt>
      <trkpt lat="48.06251" lon="2.82943">
        <ele>127</ele>
        <time>2015-11-19T10:35:17Z</time>
      </trkpt>
      <trkpt lat="48.06257" lon="2.82946">
        <ele>127</ele>
        <time>2015-11-19T10:35:18Z</time>
      </trkpt>
      <trkpt lat="48.06264" lon="2.8295">
        <ele>127</ele>
        <time>2015-11-19T10:35:19Z</time>
      </trkpt>
      <trkpt lat="48.06271" lon="2.82954">
        <ele>126</ele>
        <time>2015-11-19T10:35:20Z</time>
      </trkpt>
      <trkpt lat="48.06278" lon="2.82958">
        <ele>126</ele>
        <time>2015-11-19T10:35:21Z</time>
      </trkpt>
      <trkpt lat="48.06285" lon="2.82961">
        <ele>126</ele>
        <time>2015-11-19T10:35:22Z</time>
      </trkpt>
      <trkpt lat="48.06292" lon="2.82965">
        <ele>126</ele>
        <time>2015-11-19T10:35:23Z</time>
      </trkpt>
      <trkpt lat="48.063" lon="2.82969">
        <ele>126</ele>
        <time>2015-11-19T10:35:24Z</time>
      </trkpt>
      <trkpt lat="48.06308" lon="2.82974">
        <ele>126</ele>
        <time>2015-11-19T10:35:25Z</time>
      </trkpt>
      <trkpt lat="48.06315" lon="2.82979">
        <ele>125</ele>
        <time>2015-11-19T10:35:26Z</time>
      </trkpt>
      <trkpt lat="48.06323" lon="2.82984">
        <ele>125</ele>
        <time>2015-11-19T10:35:27Z</time>
      </trkpt>
      <trkpt lat="48.0633" lon="2.8299">
        <ele>125</ele>
        <time>2015-11-19T10:35:28Z</time>
      </trkpt>
      <trkpt lat="48.06338" lon="2.82995">
        <ele>124</ele>
        <time>2015-11-19T10:35:29Z</time>
      </trkpt>
      <trkpt lat="48.06345" lon="2.83002">
        <ele>124</ele>
        <time>2015-11-19T10:35:30Z</time>
      </trkpt>
      <trkpt lat="48.06351" lon="2.8301">
        <ele>124</ele>
        <time>2015-11-19T10:35:31Z</time>
      </trkpt>
      <trkpt lat="48.06358" lon="2.83019">
        <ele>123</ele>
        <time>2015-11-19T10:35:32Z</time>
      </trkpt>
      <trkpt lat="48.06362" lon="2.8303">
        <ele>123</ele>
        <time>2015-11-19T10:35:33Z</time>
      </trkpt>
      <trkpt lat="48.06366" lon="2.83041">
        <ele>123</ele>
        <time>2015-11-19T10:35:34Z</time>
      </trkpt>
      <trkpt lat="48.06371" lon="2.83052">
        <ele>123</ele>
        <time>2015-11-19T10:35:35Z</time>
      </trkpt>
      <trkpt lat="48.06376" lon="2.83062">
        <ele>122</ele>
        <time>2015-11-19T10:35:36Z</time>
      </trkpt>
      <trkpt lat="48.06382" lon="2.83071">
        <ele>122</ele>
        <time>2015-11-19T10:35:37Z</time>
      </trkpt>
      <trkpt lat="48.06387" lon="2.8308">
        <ele>121</ele>
        <time>2015-11-19T10:35:38Z</time>
      </trkpt>
      <trkpt lat="48.06393" lon="2.83089">
        <ele>121</ele>
        <time>2015-11-19T10:35:39Z</time>
      </trkpt>
      <trkpt lat="48.06398" lon="2.83098">
        <ele>121</ele>
        <time>2015-11-19T10:35:40Z</time>
      </trkpt>
      <trkpt lat="48.06404" lon="2.83106">
        <ele>121</ele>
        <time>2015-11-19T10:35:41Z</time>
      </trkpt>
      <trkpt lat="48.06409" lon="2.83114">
        <ele>120</ele>
        <time>2015-11-19T10:35:42Z</time>
      </trkpt>
      <trkpt lat="48.06414" lon="2.83122">
        <ele>120</ele>
        <time>2015-11-19T10:35:43Z</time>
      </trkpt>
      <trkpt lat="48.0642" lon="2.83131">
        <ele>120</ele>
        <time>2015-11-19T10:35:44Z</time>
      </trkpt>
      <trkpt lat="48.06425" lon="2.83139">
        <ele>120</ele>
        <time>2015-11-19T10:35:45Z</time>
      </trkpt>
      <trkpt lat="48.0643" lon="2.83147">
        <ele>120</ele>
        <time>2015-11-19T10:35:46Z</time>
      </trkpt>
      <trkpt lat="48.06435" lon="2.83156">
        <ele>120</ele>
        <time>2015-11-19T10:35:47Z</time>
      </trkpt>
      <trkpt lat="48.0644" lon="2.83164">
        <ele>119</ele>
        <time>2015-11-19T10:35:48Z</time>
      </trkpt>
      <trkpt lat="48.06446" lon="2.83171">
        <ele>119</ele>
        <time>2015-11-19T10:35:49Z</time>
      </trkpt>
      <trkpt lat="48.06452" lon="2.83178">
        <ele>119</ele>
        <time>2015-11-19T10:35:50Z</time>
      </trkpt>
      <trkpt lat="48.06458" lon="2.83184">
        <ele>119</ele>
        <time>2015-11-19T10:35:51Z</time>
      </trkpt>
      <trkpt lat="48.06464" lon="2.8319">
        <ele>119</ele>
        <time>2015-11-19T10:35:52Z</time>
      </trkpt>
      <trkpt lat="48.0647" lon="2.83196">
        <ele>119</ele>
        <time>2015-11-19T10:35:53Z</time>
      </trkpt>
      <trkpt lat="48.06477" lon="2.83201">
        <ele>119</ele>
        <time>2015-11-19T10:35:54Z</time>
      </trkpt>
      <trkpt lat="48.06483" lon="2.83205">
        <ele>119</ele>
        <time>2015-11-19T10:35:55Z</time>
      </trkpt>
      <trkpt lat="48.0649" lon="2.83209">
        <ele>119</ele>
        <time>2015-11-19T10:35:56Z</time>
      </trkpt>
      <trkpt lat="48.06498" lon="2.83212">
        <ele>119</ele>
        <time>2015-11-19T10:35:57Z</time>
      </trkpt>
      <trkpt lat="48.06505" lon="2.83216">
        <ele>119</ele>
        <time>2015-11-19T10:35:58Z</time>
      </trkpt>
      <trkpt lat="48.06512" lon="2.83219">
        <ele>119</ele>
        <time>2015-11-19T10:35:59Z</time>
      </trkpt>
      <trkpt lat="48.0652" lon="2.83222">
        <ele>119</ele>
        <time>2015-11-19T10:36:00Z</time>
      </trkpt>
      <trkpt lat="48.06527" lon="2.83225">
        <ele>119</ele>
        <time>2015-11-19T10:36:01Z</time>
      </trkpt>
      <trkpt lat="48.06535" lon="2.83227">
        <ele>119</ele>
        <time>2015-11-19T10:36:02Z</time>
      </trkpt>
      <trkpt lat="48.06543" lon="2.8323">
        <ele>119</ele>
        <time>2015-11-19T10:36:03Z</time>
      </trkpt>
      <trkpt lat="48.06551" lon="2.83233">
        <ele>119</ele>
        <time>2015-11-19T10:36:04Z</time>
      </trkpt>
      <trkpt lat="48.06559" lon="2.83236">
        <ele>119</ele>
        <time>2015-11-19T10:36:05Z</time>
      </trkpt>
      <trkpt lat="48.06566" lon="2.8324">
        <ele>119</ele>
        <time>2015-11-19T10:36:06Z</time>
      </trkpt>
      <trkpt lat="48.06574" lon="2.83244">
        <ele>119</ele>
        <time>2015-11-19T10:36:07Z</time>
      </trkpt>
      <trkpt lat="48.06582" lon="2.83248">
        <ele>119</ele>
        <time>2015-11-19T10:36:08Z</time>
      </trkpt>
      <trkpt lat="48.0659" lon="2.83252">
        <ele>119</ele>
        <time>2015-11-19T10:36:09Z</time>
      </trkpt>
      <trkpt lat="48.06598" lon="2.83255">
        <ele>119</ele>
        <time>2015-11-19T10:36:10Z</time>
      </trkpt>
      <trkpt lat="48.06606" lon="2.83259">
        <ele>119</ele>
        <time>2015-11-19T10:36:11Z</time>
      </trkpt>
      <trkpt lat="48.06614" lon="2.83263">
        <ele>119</ele>
        <time>2015-11-19T10:36:12Z</time>
      </trkpt>
      <trkpt lat="48.06622" lon="2.83268">
        <ele>119</ele>
        <time>2015-11-19T10:36:13Z</time>
      </trkpt>
      <trkpt lat="48.06631" lon="2.83272">
        <ele>119</ele>
        <time>2015-11-19T10:36:14Z</time>
      </trkpt>
      <trkpt lat="48.06639" lon="2.83276">
        <ele>119</ele>
        <time>2015-11-19T10:36:15Z</time>
      </trkpt>
      <trkpt lat="48.06648" lon="2.8328">
        <ele>119</ele>
        <time>2015-11-19T10:36:16Z</time>
      </trkpt>
      <trkpt lat="48.06657" lon="2.83283">
        <ele>119</ele>
        <time>2015-11-19T10:36:17Z</time>
      </trkpt>
      <trkpt lat="48.06666" lon="2.83288">
        <ele>119</ele>
        <time>2015-11-19T10:36:18Z</time>
      </trkpt>
      <trkpt lat="48.06675" lon="2.83292">
        <ele>119</ele>
        <time>2015-11-19T10:36:19Z</time>
      </trkpt>
      <trkpt lat="48.06684" lon="2.83296">
        <ele>119</ele>
        <time>2015-11-19T10:36:20Z</time>
      </trkpt>
      <trkpt lat="48.06702" lon="2.83305">
        <ele>118</ele>
        <time>2015-11-19T10:36:22Z</time>
      </trkpt>
      <trkpt lat="48.0671" lon="2.83309">
        <ele>117</ele>
        <time>2015-11-19T10:36:23Z</time>
      </trkpt>
      <trkpt lat="48.06719" lon="2.83313">
        <ele>117</ele>
        <time>2015-11-19T10:36:24Z</time>
      </trkpt>
      <trkpt lat="48.06728" lon="2.83314">
        <ele>116</ele>
        <time>2015-11-19T10:36:25Z</time>
      </trkpt>
      <trkpt lat="48.06736" lon="2.83312">
        <ele>116</ele>
        <time>2015-11-19T10:36:26Z</time>
      </trkpt>
      <trkpt lat="48.06743" lon="2.83305">
        <ele>115</ele>
        <time>2015-11-19T10:36:27Z</time>
      </trkpt>
      <trkpt lat="48.06749" lon="2.83296">
        <ele>115</ele>
        <time>2015-11-19T10:36:28Z</time>
      </trkpt>
      <trkpt lat="48.06754" lon="2.83287">
        <ele>114</ele>
        <time>2015-11-19T10:36:29Z</time>
      </trkpt>
      <trkpt lat="48.06759" lon="2.83278">
        <ele>114</ele>
        <time>2015-11-19T10:36:30Z</time>
      </trkpt>
      <trkpt lat="48.06764" lon="2.83268">
        <ele>113</ele>
        <time>2015-11-19T10:36:31Z</time>
      </trkpt>
      <trkpt lat="48.0677" lon="2.83259">
        <ele>113</ele>
        <time>2015-11-19T10:36:32Z</time>
      </trkpt>
      <trkpt lat="48.06775" lon="2.83249">
        <ele>112</ele>
        <time>2015-11-19T10:36:33Z</time>
      </trkpt>
      <trkpt lat="48.0678" lon="2.83241">
        <ele>112</ele>
        <time>2015-11-19T10:36:34Z</time>
      </trkpt>
      <trkpt lat="48.06785" lon="2.83231">
        <ele>111</ele>
        <time>2015-11-19T10:36:35Z</time>
      </trkpt>
      <trkpt lat="48.0679" lon="2.83223">
        <ele>111</ele>
        <time>2015-11-19T10:36:36Z</time>
      </trkpt>
      <trkpt lat="48.06795" lon="2.83214">
        <ele>111</ele>
        <time>2015-11-19T10:36:37Z</time>
      </trkpt>
      <trkpt lat="48.06799" lon="2.83205">
        <ele>110</ele>
        <time>2015-11-19T10:36:38Z</time>
      </trkpt>
      <trkpt lat="48.06804" lon="2.83197">
        <ele>110</ele>
        <time>2015-11-19T10:36:39Z</time>
      </trkpt>
      <trkpt lat="48.06809" lon="2.83189">
        <ele>110</ele>
        <time>2015-11-19T10:36:40Z</time>
      </trkpt>
      <trkpt lat="48.06813" lon="2.83181">
        <ele>110</ele>
        <time>2015-11-19T10:36:41Z</time>
      </trkpt>
      <trkpt lat="48.06818" lon="2.83173">
        <ele>110</ele>
        <time>2015-11-19T10:36:42Z</time>
      </trkpt>
      <trkpt lat="48.06822" lon="2.83166">
        <ele>110</ele>
        <time>2015-11-19T10:36:43Z</time>
      </trkpt>
      <trkpt lat="48.06826" lon="2.83158">
        <ele>110</ele>
        <time>2015-11-19T10:36:44Z</time>
      </trkpt>
      <trkpt lat="48.0683" lon="2.83151">
        <ele>110</ele>
        <time>2015-11-19T10:36:45Z</time>
      </trkpt>
      <trkpt lat="48.06835" lon="2.83144">
        <ele>110</ele>
        <time>2015-11-19T10:36:46Z</time>
      </trkpt>
      <trkpt lat="48.06839" lon="2.83137">
        <ele>110</ele>
        <time>2015-11-19T10:36:47Z</time>
      </trkpt>
      <trkpt lat="48.06843" lon="2.8313">
        <ele>110</ele>
        <time>2015-11-19T10:36:48Z</time>
      </trkpt>
      <trkpt lat="48.06847" lon="2.83123">
        <ele>110</ele>
        <time>2015-11-19T10:36:49Z</time>
      </trkpt>
      <trkpt lat="48.06851" lon="2.83117">
        <ele>110</ele>
        <time>2015-11-19T10:36:50Z</time>
      </trkpt>
      <trkpt lat="48.06855" lon="2.83111">
        <ele>110</ele>
        <time>2015-11-19T10:36:51Z</time>
      </trkpt>
      <trkpt lat="48.06859" lon="2.83105">
        <ele>110</ele>
        <time>2015-11-19T10:36:52Z</time>
      </trkpt>
      <trkpt lat="48.06863" lon="2.83099">
        <ele>110</ele>
        <time>2015-11-19T10:36:53Z</time>
      </trkpt>
      <trkpt lat="48.06867" lon="2.83092">
        <ele>110</ele>
        <time>2015-11-19T10:36:54Z</time>
      </trkpt>
      <trkpt lat="48.06871" lon="2.83086">
        <ele>110</ele>
        <time>2015-11-19T10:36:55Z</time>
      </trkpt>
      <trkpt lat="48.06875" lon="2.8308">
        <ele>110</ele>
        <time>2015-11-19T10:36:56Z</time>
      </trkpt>
      <trkpt lat="48.06879" lon="2.83074">
        <ele>110</ele>
        <time>2015-11-19T10:36:57Z</time>
      </trkpt>
      <trkpt lat="48.06883" lon="2.83067">
        <ele>110</ele>
        <time>2015-11-19T10:36:58Z</time>
      </trkpt>
      <trkpt lat="48.06887" lon="2.83061">
        <ele>110</ele>
        <time>2015-11-19T10:36:59Z</time>
      </trkpt>
      <trkpt lat="48.06891" lon="2.83054">
        <ele>110</ele>
        <time>2015-11-19T10:37:00Z</time>
      </trkpt>
      <trkpt lat="48.06895" lon="2.83048">
        <ele>110</ele>
        <time>2015-11-19T10:37:01Z</time>
      </trkpt>
      <trkpt lat="48.06899" lon="2.83041">
        <ele>110</ele>
        <time>2015-11-19T10:37:02Z</time>
      </trkpt>
      <trkpt lat="48.06903" lon="2.83034">
        <ele>110</ele>
        <time>2015-11-19T10:37:03Z</time>
      </trkpt>
      <trkpt lat="48.06907" lon="2.83028">
        <ele>110</ele>
        <time>2015-11-19T10:37:04Z</time>
      </trkpt>
      <trkpt lat="48.06911" lon="2.83021">
        <ele>110</ele>
        <time>2015-11-19T10:37:05Z</time>
      </trkpt>
      <trkpt lat="48.06915" lon="2.83014">
        <ele>110</ele>
        <time>2015-11-19T10:37:06Z</time>
      </trkpt>
      <trkpt lat="48.06919" lon="2.83007">
        <ele>110</ele>
        <time>2015-11-19T10:37:07Z</time>
      </trkpt>
      <trkpt lat="48.06924" lon="2.83">
        <ele>110</ele>
        <time>2015-11-19T10:37:08Z</time>
      </trkpt>
      <trkpt lat="48.06928" lon="2.82994">
        <ele>110</ele>
        <time>2015-11-19T10:37:09Z</time>
      </trkpt>
      <trkpt lat="48.06933" lon="2.82988">
        <ele>110</ele>
        <time>2015-11-19T10:37:10Z</time>
      </trkpt>
      <trkpt lat="48.06939" lon="2.82982">
        <ele>110</ele>
        <time>2015-11-19T10:37:11Z</time>
      </trkpt>
      <trkpt lat="48.06944" lon="2.82978">
        <ele>110</ele>
        <time>2015-11-19T10:37:12Z</time>
      </trkpt>
      <trkpt lat="48.0695" lon="2.82974">
        <ele>110</ele>
        <time>2015-11-19T10:37:13Z</time>
      </trkpt>
      <trkpt lat="48.06955" lon="2.8297">
        <ele>110</ele>
        <time>2015-11-19T10:37:14Z</time>
      </trkpt>
      <trkpt lat="48.06961" lon="2.82966">
        <ele>110</ele>
        <time>2015-11-19T10:37:15Z</time>
      </trkpt>
      <trkpt lat="48.06966" lon="2.82962">
        <ele>110</ele>
        <time>2015-11-19T10:37:16Z</time>
      </trkpt>
      <trkpt lat="48.06971" lon="2.82958">
        <ele>110</ele>
        <time>2015-11-19T10:37:17Z</time>
      </trkpt>
      <trkpt lat="48.06976" lon="2.82953">
        <ele>110</ele>
        <time>2015-11-19T10:37:18Z</time>
      </trkpt>
      <trkpt lat="48.06981" lon="2.82947">
        <ele>110</ele>
        <time>2015-11-19T10:37:19Z</time>
      </trkpt>
      <trkpt lat="48.06986" lon="2.82942">
        <ele>110</ele>
        <time>2015-11-19T10:37:20Z</time>
      </trkpt>
      <trkpt lat="48.0699" lon="2.82936">
        <ele>110</ele>
        <time>2015-11-19T10:37:21Z</time>
      </trkpt>
      <trkpt lat="48.06995" lon="2.8293">
        <ele>110</ele>
        <time>2015-11-19T10:37:22Z</time>
      </trkpt>
      <trkpt lat="48.07" lon="2.82924">
        <ele>110</ele>
        <time>2015-11-19T10:37:23Z</time>
      </trkpt>
      <trkpt lat="48.07005" lon="2.82917">
        <ele>110</ele>
        <time>2015-11-19T10:37:24Z</time>
      </trkpt>
      <trkpt lat="48.0701" lon="2.82911">
        <ele>110</ele>
        <time>2015-11-19T10:37:25Z</time>
      </trkpt>
      <trkpt lat="48.07015" lon="2.82906">
        <ele>110</ele>
        <time>2015-11-19T10:37:26Z</time>
      </trkpt>
      <trkpt lat="48.0702" lon="2.829">
        <ele>110</ele>
        <time>2015-11-19T10:37:27Z</time>
      </trkpt>
      <trkpt lat="48.07025" lon="2.82894">
        <ele>110</ele>
        <time>2015-11-19T10:37:28Z</time>
      </trkpt>
      <trkpt lat="48.0703" lon="2.82888">
        <ele>110</ele>
        <time>2015-11-19T10:37:29Z</time>
      </trkpt>
      <trkpt lat="48.07035" lon="2.82881">
        <ele>110</ele>
        <time>2015-11-19T10:37:30Z</time>
      </trkpt>
      <trkpt lat="48.0704" lon="2.82875">
        <ele>110</ele>
        <time>2015-11-19T10:37:31Z</time>
      </trkpt>
      <trkpt lat="48.07045" lon="2.82868">
        <ele>110</ele>
        <time>2015-11-19T10:37:32Z</time>
      </trkpt>
      <trkpt lat="48.0705" lon="2.82861">
        <ele>110</ele>
        <time>2015-11-19T10:37:33Z</time>
      </trkpt>
      <trkpt lat="48.07055" lon="2.82853">
        <ele>110</ele>
        <time>2015-11-19T10:37:34Z</time>
      </trkpt>
      <trkpt lat="48.0706" lon="2.82845">
        <ele>110</ele>
        <time>2015-11-19T10:37:35Z</time>
      </trkpt>
      <trkpt lat="48.07065" lon="2.82837">
        <ele>110</ele>
        <time>2015-11-19T10:37:36Z</time>
      </trkpt>
      <trkpt lat="48.07069" lon="2.82828">
        <ele>110</ele>
        <time>2015-11-19T10:37:37Z</time>
      </trkpt>
      <trkpt lat="48.07074" lon="2.82819">
        <ele>110</ele>
        <time>2015-11-19T10:37:38Z</time>
      </trkpt>
      <trkpt lat="48.07078" lon="2.8281">
        <ele>110</ele>
        <time>2015-11-19T10:37:39Z</time>
      </trkpt>
      <trkpt lat="48.07081" lon="2.82801">
        <ele>110</ele>
        <time>2015-11-19T10:37:40Z</time>
      </trkpt>
      <trkpt lat="48.07084" lon="2.82791">
        <ele>110</ele>
        <time>2015-11-19T10:37:41Z</time>
      </trkpt>
      <trkpt lat="48.07087" lon="2.82781">
        <ele>110</ele>
        <time>2015-11-19T10:37:42Z</time>
      </trkpt>
      <trkpt lat="48.07089" lon="2.82771">
        <ele>110</ele>
        <time>2015-11-19T10:37:43Z</time>
      </trkpt>
      <trkpt lat="48.07091" lon="2.8276">
        <ele>110</ele>
        <time>2015-11-19T10:37:44Z</time>
      </trkpt>
      <trkpt lat="48.07093" lon="2.8275">
        <ele>110</ele>
        <time>2015-11-19T10:37:45Z</time>
      </trkpt>
      <trkpt lat="48.07095" lon="2.82739">
        <ele>110</ele>
        <time>2015-11-19T10:37:46Z</time>
      </trkpt>
      <trkpt lat="48.07097" lon="2.82728">
        <ele>110</ele>
        <time>2015-11-19T10:37:47Z</time>
      </trkpt>
      <trkpt lat="48.07098" lon="2.82718">
        <ele>110</ele>
        <time>2015-11-19T10:37:48Z</time>
      </trkpt>
      <trkpt lat="48.07101" lon="2.82708">
        <ele>110</ele>
        <time>2015-11-19T10:37:49Z</time>
      </trkpt>
      <trkpt lat="48.07103" lon="2.82698">
        <ele>110</ele>
        <time>2015-11-19T10:37:50Z</time>
      </trkpt>
      <trkpt lat="48.07106" lon="2.82689">
        <ele>110</ele>
        <time>2015-11-19T10:37:51Z</time>
      </trkpt>
      <trkpt lat="48.07108" lon="2.82679">
        <ele>109</ele>
        <time>2015-11-19T10:37:52Z</time>
      </trkpt>
      <trkpt lat="48.07111" lon="2.8267">
        <ele>109</ele>
        <time>2015-11-19T10:37:53Z</time>
      </trkpt>
      <trkpt lat="48.07114" lon="2.82661">
        <ele>109</ele>
        <time>2015-11-19T10:37:54Z</time>
      </trkpt>
      <trkpt lat="48.07117" lon="2.82652">
        <ele>109</ele>
        <time>2015-11-19T10:37:55Z</time>
      </trkpt>
      <trkpt lat="48.0712" lon="2.82644">
        <ele>109</ele>
        <time>2015-11-19T10:37:56Z</time>
      </trkpt>
      <trkpt lat="48.07123" lon="2.82636">
        <ele>109</ele>
        <time>2015-11-19T10:37:57Z</time>
      </trkpt>
      <trkpt lat="48.07126" lon="2.82628">
        <ele>109</ele>
        <time>2015-11-19T10:37:58Z</time>
      </trkpt>
      <trkpt lat="48.0713" lon="2.82621">
        <ele>109</ele>
        <time>2015-11-19T10:37:59Z</time>
      </trkpt>
      <trkpt lat="48.07135" lon="2.82616">
        <ele>109</ele>
        <time>2015-11-19T10:38:00Z</time>
      </trkpt>
      <trkpt lat="48.07141" lon="2.82614">
        <ele>109</ele>
        <time>2015-11-19T10:38:01Z</time>
      </trkpt>
      <trkpt lat="48.07147" lon="2.82615">
        <ele>109</ele>
        <time>2015-11-19T10:38:02Z</time>
      </trkpt>
      <trkpt lat="48.07154" lon="2.82616">
        <ele>108</ele>
        <time>2015-11-19T10:38:03Z</time>
      </trkpt>
      <trkpt lat="48.07162" lon="2.82616">
        <ele>108</ele>
        <time>2015-11-19T10:38:04Z</time>
      </trkpt>
      <trkpt lat="48.0717" lon="2.82617">
        <ele>108</ele>
        <time>2015-11-19T10:38:05Z</time>
      </trkpt>
      <trkpt lat="48.07178" lon="2.8262">
        <ele>108</ele>
        <time>2015-11-19T10:38:06Z</time>
      </trkpt>
      <trkpt lat="48.07187" lon="2.82623">
        <ele>107</ele>
        <time>2015-11-19T10:38:07Z</time>
      </trkpt>
      <trkpt lat="48.07196" lon="2.82627">
        <ele>107</ele>
        <time>2015-11-19T10:38:08Z</time>
      </trkpt>
      <trkpt lat="48.07205" lon="2.8263">
        <ele>107</ele>
        <time>2015-11-19T10:38:09Z</time>
      </trkpt>
      <trkpt lat="48.07214" lon="2.82635">
        <ele>106</ele>
        <time>2015-11-19T10:38:10Z</time>
      </trkpt>
      <trkpt lat="48.07224" lon="2.82639">
        <ele>106</ele>
        <time>2015-11-19T10:38:11Z</time>
      </trkpt>
      <trkpt lat="48.07243" lon="2.82647">
        <ele>105</ele>
        <time>2015-11-19T10:38:13Z</time>
      </trkpt>
      <trkpt lat="48.07254" lon="2.82651">
        <ele>104</ele>
        <time>2015-11-19T10:38:14Z</time>
      </trkpt>
      <trkpt lat="48.07264" lon="2.82655">
        <ele>104</ele>
        <time>2015-11-19T10:38:15Z</time>
      </trkpt>
      <trkpt lat="48.07275" lon="2.82659">
        <ele>103</ele>
        <time>2015-11-19T10:38:16Z</time>
      </trkpt>
      <trkpt lat="48.07286" lon="2.82664">
        <ele>102</ele>
        <time>2015-11-19T10:38:17Z</time>
      </trkpt>
      <trkpt lat="48.07296" lon="2.82668">
        <ele>102</ele>
        <time>2015-11-19T10:38:18Z</time>
      </trkpt>
      <trkpt lat="48.07307" lon="2.82672">
        <ele>101</ele>
        <time>2015-11-19T10:38:19Z</time>
      </trkpt>
      <trkpt lat="48.07318" lon="2.82677">
        <ele>101</ele>
        <time>2015-11-19T10:38:20Z</time>
      </trkpt>
      <trkpt lat="48.07329" lon="2.82681">
        <ele>100</ele>
        <time>2015-11-19T10:38:21Z</time>
      </trkpt>
      <trkpt lat="48.07341" lon="2.82686">
        <ele>99</ele>
        <time>2015-11-19T10:38:22Z</time>
      </trkpt>
      <trkpt lat="48.07352" lon="2.8269">
        <ele>99</ele>
        <time>2015-11-19T10:38:23Z</time>
      </trkpt>
      <trkpt lat="48.07364" lon="2.82695">
        <ele>98</ele>
        <time>2015-11-19T10:38:24Z</time>
      </trkpt>
      <trkpt lat="48.07375" lon="2.82699">
        <ele>97</ele>
        <time>2015-11-19T10:38:25Z</time>
      </trkpt>
      <trkpt lat="48.07388" lon="2.82704">
        <ele>97</ele>
        <time>2015-11-19T10:38:26Z</time>
      </trkpt>
      <trkpt lat="48.074" lon="2.82709">
        <ele>96</ele>
        <time>2015-11-19T10:38:27Z</time>
      </trkpt>
      <trkpt lat="48.07413" lon="2.82714">
        <ele>95</ele>
        <time>2015-11-19T10:38:28Z</time>
      </trkpt>
      <trkpt lat="48.07425" lon="2.82719">
        <ele>95</ele>
        <time>2015-11-19T10:38:29Z</time>
      </trkpt>
      <trkpt lat="48.07438" lon="2.82723">
        <ele>94</ele>
        <time>2015-11-19T10:38:30Z</time>
      </trkpt>
      <trkpt lat="48.07451" lon="2.82729">
        <ele>94</ele>
        <time>2015-11-19T10:38:31Z</time>
      </trkpt>
      <trkpt lat="48.07463" lon="2.82733">
        <ele>93</ele>
        <time>2015-11-19T10:38:32Z</time>
      </trkpt>
      <trkpt lat="48.07476" lon="2.82738">
        <ele>93</ele>
        <time>2015-11-19T10:38:33Z</time>
      </trkpt>
      <trkpt lat="48.07488" lon="2.82743">
        <ele>92</ele>
        <time>2015-11-19T10:38:34Z</time>
      </trkpt>
      <trkpt lat="48.075" lon="2.82748">
        <ele>92</ele>
        <time>2015-11-19T10:38:35Z</time>
      </trkpt>
      <trkpt lat="48.07512" lon="2.82752">
        <ele>92</ele>
        <time>2015-11-19T10:38:36Z</time>
      </trkpt>
      <trkpt lat="48.07524" lon="2.82757">
        <ele>91</ele>
        <time>2015-11-19T10:38:37Z</time>
      </trkpt>
      <trkpt lat="48.07536" lon="2.82762">
        <ele>91</ele>
        <time>2015-11-19T10:38:38Z</time>
      </trkpt>
      <trkpt lat="48.07548" lon="2.82767">
        <ele>91</ele>
        <time>2015-11-19T10:38:39Z</time>
      </trkpt>
      <trkpt lat="48.07559" lon="2.82771">
        <ele>91</ele>
        <time>2015-11-19T10:38:40Z</time>
      </trkpt>
      <trkpt lat="48.0757" lon="2.82775">
        <ele>91</ele>
        <time>2015-11-19T10:38:41Z</time>
      </trkpt>
      <trkpt lat="48.07581" lon="2.82778">
        <ele>91</ele>
        <time>2015-11-19T10:38:42Z</time>
      </trkpt>
      <trkpt lat="48.07591" lon="2.8278">
        <ele>91</ele>
        <time>2015-11-19T10:38:43Z</time>
      </trkpt>
      <trkpt lat="48.07602" lon="2.8278">
        <ele>91</ele>
        <time>2015-11-19T10:38:44Z</time>
      </trkpt>
      <trkpt lat="48.07612" lon="2.82779">
        <ele>91</ele>
        <time>2015-11-19T10:38:45Z</time>
      </trkpt>
      <trkpt lat="48.07621" lon="2.82779">
        <ele>91</ele>
        <time>2015-11-19T10:38:46Z</time>
      </trkpt>
      <trkpt lat="48.07631" lon="2.82778">
        <ele>91</ele>
        <time>2015-11-19T10:38:47Z</time>
      </trkpt>
      <trkpt lat="48.0764" lon="2.82776">
        <ele>91</ele>
        <time>2015-11-19T10:38:48Z</time>
      </trkpt>
      <trkpt lat="48.07649" lon="2.82775">
        <ele>91</ele>
        <time>2015-11-19T10:38:49Z</time>
      </trkpt>
      <trkpt lat="48.07657" lon="2.82775">
        <ele>91</ele>
        <time>2015-11-19T10:38:50Z</time>
      </trkpt>
      <trkpt lat="48.07665" lon="2.82774">
        <ele>91</ele>
        <time>2015-11-19T10:38:51Z</time>
      </trkpt>
      <trkpt lat="48.07674" lon="2.82772">
        <ele>91</ele>
        <time>2015-11-19T10:38:52Z</time>
      </trkpt>
      <trkpt lat="48.07682" lon="2.82771">
        <ele>91</ele>
        <time>2015-11-19T10:38:53Z</time>
      </trkpt>
      <trkpt lat="48.07689" lon="2.82771">
        <ele>91</ele>
        <time>2015-11-19T10:38:54Z</time>
      </trkpt>
      <trkpt lat="48.07695" lon="2.82773">
        <ele>91</ele>
        <time>2015-11-19T10:38:55Z</time>
      </trkpt>
      <trkpt lat="48.07699" lon="2.8278">
        <ele>91</ele>
        <time>2015-11-19T10:38:56Z</time>
      </trkpt>
      <trkpt lat="48.07702" lon="2.82788">
        <ele>91</ele>
        <time>2015-11-19T10:38:57Z</time>
      </trkpt>
      <trkpt lat="48.07704" lon="2.82796">
        <ele>91</ele>
        <time>2015-11-19T10:38:58Z</time>
      </trkpt>
      <trkpt lat="48.07706" lon="2.82805">
        <ele>91</ele>
        <time>2015-11-19T10:38:59Z</time>
      </trkpt>
      <trkpt lat="48.07708" lon="2.82816">
        <ele>91</ele>
        <time>2015-11-19T10:39:00Z</time>
      </trkpt>
      <trkpt lat="48.0771" lon="2.82826">
        <ele>91</ele>
        <time>2015-11-19T10:39:01Z</time>
      </trkpt>
      <trkpt lat="48.07714" lon="2.82836">
        <ele>91</ele>
        <time>2015-11-19T10:39:02Z</time>
      </trkpt>
      <trkpt lat="48.07717" lon="2.82845">
        <ele>91</ele>
        <time>2015-11-19T10:39:03Z</time>
      </trkpt>
      <trkpt lat="48.07721" lon="2.82853">
        <ele>91</ele>
        <time>2015-11-19T10:39:04Z</time>
      </trkpt>
      <trkpt lat="48.07723" lon="2.82861">
        <ele>91</ele>
        <time>2015-11-19T10:39:05Z</time>
      </trkpt>
      <trkpt lat="48.07724" lon="2.82869">
        <ele>91</ele>
        <time>2015-11-19T10:39:06Z</time>
      </trkpt>
      <trkpt lat="48.07724" lon="2.82877">
        <ele>91</ele>
        <time>2015-11-19T10:39:07Z</time>
      </trkpt>
      <trkpt lat="48.07724" lon="2.82885">
        <ele>91</ele>
        <time>2015-11-19T10:39:08Z</time>
      </trkpt>
      <trkpt lat="48.07724" lon="2.82893">
        <ele>91</ele>
        <time>2015-11-19T10:39:09Z</time>
      </trkpt>
      <trkpt lat="48.07723" lon="2.82901">
        <ele>91</ele>
        <time>2015-11-19T10:39:10Z</time>
      </trkpt>
      <trkpt lat="48.07723" lon="2.82909">
        <ele>91</ele>
        <time>2015-11-19T10:39:11Z</time>
      </trkpt>
      <trkpt lat="48.07723" lon="2.82916">
        <ele>91</ele>
        <time>2015-11-19T10:39:12Z</time>
      </trkpt>
      <trkpt lat="48.07722" lon="2.82924">
        <ele>91</ele>
        <time>2015-11-19T10:39:13Z</time>
      </trkpt>
      <trkpt lat="48.07721" lon="2.82933">
        <ele>91</ele>
        <time>2015-11-19T10:39:14Z</time>
      </trkpt>
      <trkpt lat="48.07721" lon="2.8294">
        <ele>91</ele>
        <time>2015-11-19T10:39:15Z</time>
      </trkpt>
      <trkpt lat="48.07721" lon="2.82947">
        <ele>91</ele>
        <time>2015-11-19T10:39:16Z</time>
      </trkpt>
      <trkpt lat="48.07721" lon="2.82954">
        <ele>92</ele>
        <time>2015-11-19T10:39:17Z</time>
      </trkpt>
      <trkpt lat="48.07722" lon="2.82961">
        <ele>92</ele>
        <time>2015-11-19T10:39:18Z</time>
      </trkpt>
      <trkpt lat="48.07722" lon="2.82968">
        <ele>92</ele>
        <time>2015-11-19T10:39:19Z</time>
      </trkpt>
      <trkpt lat="48.07722" lon="2.82973">
        <ele>92</ele>
        <time>2015-11-19T10:39:20Z</time>
      </trkpt>
      <trkpt lat="48.07722" lon="2.82978">
        <ele>93</ele>
        <time>2015-11-19T10:39:21Z</time>
      </trkpt>
      <trkpt lat="48.07723" lon="2.82984">
        <ele>93</ele>
        <time>2015-11-19T10:39:22Z</time>
      </trkpt>
      <trkpt lat="48.07723" lon="2.8299">
        <ele>93</ele>
        <time>2015-11-19T10:39:23Z</time>
      </trkpt>
      <trkpt lat="48.07724" lon="2.82997">
        <ele>94</ele>
        <time>2015-11-19T10:39:24Z</time>
      </trkpt>
      <trkpt lat="48.07725" lon="2.83003">
        <ele>94</ele>
        <time>2015-11-19T10:39:25Z</time>
      </trkpt>
      <trkpt lat="48.07726" lon="2.8301">
        <ele>94</ele>
        <time>2015-11-19T10:39:26Z</time>
      </trkpt>
      <trkpt lat="48.07729" lon="2.83015">
        <ele>94</ele>
        <time>2015-11-19T10:39:27Z</time>
      </trkpt>
      <trkpt lat="48.07731" lon="2.83019">
        <ele>94</ele>
        <time>2015-11-19T10:39:28Z</time>
      </trkpt>
      <trkpt lat="48.07734" lon="2.83024">
        <ele>94</ele>
        <time>2015-11-19T10:39:29Z</time>
      </trkpt>
      <trkpt lat="48.07736" lon="2.83028">
        <ele>94</ele>
        <time>2015-11-19T10:39:30Z</time>
      </trkpt>
      <trkpt lat="48.07739" lon="2.83033">
        <ele>94</ele>
        <time>2015-11-19T10:39:31Z</time>
      </trkpt>
      <trkpt lat="48.07741" lon="2.83038">
        <ele>94</ele>
        <time>2015-11-19T10:39:32Z</time>
      </trkpt>
      <trkpt lat="48.07744" lon="2.83042">
        <ele>94</ele>
        <time>2015-11-19T10:39:33Z</time>
      </trkpt>
      <trkpt lat="48.07747" lon="2.83046">
        <ele>94</ele>
        <time>2015-11-19T10:39:34Z</time>
      </trkpt>
      <trkpt lat="48.0775" lon="2.83049">
        <ele>94</ele>
        <time>2015-11-19T10:39:35Z</time>
      </trkpt>
      <trkpt lat="48.07754" lon="2.83052">
        <ele>94</ele>
        <time>2015-11-19T10:39:36Z</time>
      </trkpt>
      <trkpt lat="48.07758" lon="2.83056">
        <ele>94</ele>
        <time>2015-11-19T10:39:37Z</time>
      </trkpt>
      <trkpt lat="48.07761" lon="2.83059">
        <ele>94</ele>
        <time>2015-11-19T10:39:38Z</time>
      </trkpt>
      <trkpt lat="48.07764" lon="2.83063">
        <ele>94</ele>
        <time>2015-11-19T10:39:39Z</time>
      </trkpt>
      <trkpt lat="48.07767" lon="2.83066">
        <ele>95</ele>
        <time>2015-11-19T10:39:40Z</time>
      </trkpt>
      <trkpt lat="48.07769" lon="2.8307">
        <ele>95</ele>
        <time>2015-11-19T10:39:41Z</time>
      </trkpt>
      <trkpt lat="48.07773" lon="2.83073">
        <ele>95</ele>
        <time>2015-11-19T10:39:42Z</time>
      </trkpt>
      <trkpt lat="48.07777" lon="2.83077">
        <ele>95</ele>
        <time>2015-11-19T10:39:43Z</time>
      </trkpt>
      <trkpt lat="48.0778" lon="2.83081">
        <ele>96</ele>
        <time>2015-11-19T10:39:44Z</time>
      </trkpt>
      <trkpt lat="48.07785" lon="2.83084">
        <ele>96</ele>
        <time>2015-11-19T10:39:45Z</time>
      </trkpt>
      <trkpt lat="48.07789" lon="2.83087">
        <ele>96</ele>
        <time>2015-11-19T10:39:46Z</time>
      </trkpt>
      <trkpt lat="48.07794" lon="2.83091">
        <ele>97</ele>
        <time>2015-11-19T10:39:47Z</time>
      </trkpt>
      <trkpt lat="48.07798" lon="2.83094">
        <ele>97</ele>
        <time>2015-11-19T10:39:48Z</time>
      </trkpt>
      <trkpt lat="48.07803" lon="2.83096">
        <ele>98</ele>
        <time>2015-11-19T10:39:49Z</time>
      </trkpt>
      <trkpt lat="48.07808" lon="2.83098">
        <ele>99</ele>
        <time>2015-11-19T10:39:50Z</time>
      </trkpt>
      <trkpt lat="48.07813" lon="2.831">
        <ele>99</ele>
        <time>2015-11-19T10:39:51Z</time>
      </trkpt>
      <trkpt lat="48.07817" lon="2.83101">
        <ele>100</ele>
        <time>2015-11-19T10:39:52Z</time>
      </trkpt>
      <trkpt lat="48.07821" lon="2.83101">
        <ele>100</ele>
        <time>2015-11-19T10:39:53Z</time>
      </trkpt>
      <trkpt lat="48.07825" lon="2.83099">
        <ele>100</ele>
        <time>2015-11-19T10:39:54Z</time>
      </trkpt>
      <trkpt lat="48.07827" lon="2.83095">
        <ele>100</ele>
        <time>2015-11-19T10:39:55Z</time>
      </trkpt>
      <trkpt lat="48.07828" lon="2.83088">
        <ele>101</ele>
        <time>2015-11-19T10:39:56Z</time>
      </trkpt>
      <trkpt lat="48.07828" lon="2.83082">
        <ele>101</ele>
        <time>2015-11-19T10:39:57Z</time>
      </trkpt>
      <trkpt lat="48.07828" lon="2.83075">
        <ele>101</ele>
        <time>2015-11-19T10:39:58Z</time>
      </trkpt>
      <trkpt lat="48.07827" lon="2.83069">
        <ele>101</ele>
        <time>2015-11-19T10:39:59Z</time>
      </trkpt>
      <trkpt lat="48.07825" lon="2.83063">
        <ele>101</ele>
        <time>2015-11-19T10:40:00Z</time>
      </trkpt>
      <trkpt lat="48.07823" lon="2.83057">
        <ele>101</ele>
        <time>2015-11-19T10:40:01Z</time>
      </trkpt>
      <trkpt lat="48.07821" lon="2.8305">
        <ele>101</ele>
        <time>2015-11-19T10:40:02Z</time>
      </trkpt>
      <trkpt lat="48.07819" lon="2.83044">
        <ele>101</ele>
        <time>2015-11-19T10:40:03Z</time>
      </trkpt>
      <trkpt lat="48.07816" lon="2.83037">
        <ele>101</ele>
        <time>2015-11-19T10:40:04Z</time>
      </trkpt>
      <trkpt lat="48.07814" lon="2.83031">
        <ele>101</ele>
        <time>2015-11-19T10:40:05Z</time>
      </trkpt>
      <trkpt lat="48.07812" lon="2.83024">
        <ele>101</ele>
        <time>2015-11-19T10:40:06Z</time>
      </trkpt>
      <trkpt lat="48.07809" lon="2.83017">
        <ele>101</ele>
        <time>2015-11-19T10:40:07Z</time>
      </trkpt>
      <trkpt lat="48.07806" lon="2.83011">
        <ele>101</ele>
        <time>2015-11-19T10:40:08Z</time>
      </trkpt>
      <trkpt lat="48.07804" lon="2.83003">
        <ele>101</ele>
        <time>2015-11-19T10:40:09Z</time>
      </trkpt>
      <trkpt lat="48.07801" lon="2.82996">
        <ele>101</ele>
        <time>2015-11-19T10:40:10Z</time>
      </trkpt>
      <trkpt lat="48.07796" lon="2.82981">
        <ele>101</ele>
        <time>2015-11-19T10:40:12Z</time>
      </trkpt>
      <trkpt lat="48.07794" lon="2.82973">
        <ele>101</ele>
        <time>2015-11-19T10:40:13Z</time>
      </trkpt>
      <trkpt lat="48.07792" lon="2.82966">
        <ele>101</ele>
        <time>2015-11-19T10:40:14Z</time>
      </trkpt>
      <trkpt lat="48.0779" lon="2.82959">
        <ele>101</ele>
        <time>2015-11-19T10:40:15Z</time>
      </trkpt>
      <trkpt lat="48.07789" lon="2.82951">
        <ele>101</ele>
        <time>2015-11-19T10:40:16Z</time>
      </trkpt>
      <trkpt lat="48.07787" lon="2.82944">
        <ele>101</ele>
        <time>2015-11-19T10:40:17Z</time>
      </trkpt>
      <trkpt lat="48.07785" lon="2.82937">
        <ele>101</ele>
        <time>2015-11-19T10:40:18Z</time>
      </trkpt>
      <trkpt lat="48.07784" lon="2.8293">
        <ele>101</ele>
        <time>2015-11-19T10:40:19Z</time>
      </trkpt>
      <trkpt lat="48.07782" lon="2.82923">
        <ele>101</ele>
        <time>2015-11-19T10:40:20Z</time>
      </trkpt>
      <trkpt lat="48.07781" lon="2.82915">
        <ele>101</ele>
        <time>2015-11-19T10:40:21Z</time>
      </trkpt>
      <trkpt lat="48.07779" lon="2.82908">
        <ele>101</ele>
        <time>2015-11-19T10:40:22Z</time>
      </trkpt>
      <trkpt lat="48.07778" lon="2.82901">
        <ele>101</ele>
        <time>2015-11-19T10:40:23Z</time>
      </trkpt>
      <trkpt lat="48.07777" lon="2.82894">
        <ele>101</ele>
        <time>2015-11-19T10:40:24Z</time>
      </trkpt>
      <trkpt lat="48.07777" lon="2.82888">
        <ele>101</ele>
        <time>2015-11-19T10:40:25Z</time>
      </trkpt>
      <trkpt lat="48.07777" lon="2.8288">
        <ele>101</ele>
        <time>2015-11-19T10:40:26Z</time>
      </trkpt>
      <trkpt lat="48.07777" lon="2.82874">
        <ele>101</ele>
        <time>2015-11-19T10:40:27Z</time>
      </trkpt>
      <trkpt lat="48.07778" lon="2.82867">
        <ele>101</ele>
        <time>2015-11-19T10:40:28Z</time>
      </trkpt>
      <trkpt lat="48.07779" lon="2.82859">
        <ele>101</ele>
        <time>2015-11-19T10:40:29Z</time>
      </trkpt>
      <trkpt lat="48.0778" lon="2.82853">
        <ele>101</ele>
        <time>2015-11-19T10:40:30Z</time>
      </trkpt>
      <trkpt lat="48.0778" lon="2.82846">
        <ele>101</ele>
        <time>2015-11-19T10:40:31Z</time>
      </trkpt>
      <trkpt lat="48.07782" lon="2.82839">
        <ele>101</ele>
        <time>2015-11-19T10:40:32Z</time>
      </trkpt>
      <trkpt lat="48.07783" lon="2.82832">
        <ele>101</ele>
        <time>2015-11-19T10:40:33Z</time>
      </trkpt>
      <trkpt lat="48.07784" lon="2.82825">
        <ele>101</ele>
        <time>2015-11-19T10:40:34Z</time>
      </trkpt>
      <trkpt lat="48.07786" lon="2.82818">
        <ele>101</ele>
        <time>2015-11-19T10:40:35Z</time>
      </trkpt>
      <trkpt lat="48.07788" lon="2.82811">
        <ele>101</ele>
        <time>2015-11-19T10:40:36Z</time>
      </trkpt>
      <trkpt lat="48.0779" lon="2.82804">
        <ele>101</ele>
        <time>2015-11-19T10:40:37Z</time>
      </trkpt>
      <trkpt lat="48.07792" lon="2.82797">
        <ele>101</ele>
        <time>2015-11-19T10:40:38Z</time>
      </trkpt>
      <trkpt lat="48.07795" lon="2.8279">
        <ele>101</ele>
        <time>2015-11-19T10:40:39Z</time>
      </trkpt>
      <trkpt lat="48.078" lon="2.82786">
        <ele>101</ele>
        <time>2015-11-19T10:40:40Z</time>
      </trkpt>
      <trkpt lat="48.07805" lon="2.82783">
        <ele>101</ele>
        <time>2015-11-19T10:40:41Z</time>
      </trkpt>
      <trkpt lat="48.07811" lon="2.82784">
        <ele>101</ele>
        <time>2015-11-19T10:40:42Z</time>
      </trkpt>
      <trkpt lat="48.07817" lon="2.82786">
        <ele>101</ele>
        <time>2015-11-19T10:40:43Z</time>
      </trkpt>
      <trkpt lat="48.07823" lon="2.82788">
        <ele>101</ele>
        <time>2015-11-19T10:40:44Z</time>
      </trkpt>
      <trkpt lat="48.07829" lon="2.8279">
        <ele>101</ele>
        <time>2015-11-19T10:40:45Z</time>
      </trkpt>
      <trkpt lat="48.07835" lon="2.82794">
        <ele>101</ele>
        <time>2015-11-19T10:40:46Z</time>
      </trkpt>
      <trkpt lat="48.07841" lon="2.82798">
        <ele>101</ele>
        <time>2015-11-19T10:40:47Z</time>
      </trkpt>
      <trkpt lat="48.07853" lon="2.82807">
        <ele>101</ele>
        <time>2015-11-19T10:40:49Z</time>
      </trkpt>
      <trkpt lat="48.07859" lon="2.82812">
        <ele>101</ele>
        <time>2015-11-19T10:40:50Z</time>
      </trkpt>
      <trkpt lat="48.07864" lon="2.82816">
        <ele>101</ele>
        <time>2015-11-19T10:40:51Z</time>
      </trkpt>
      <trkpt lat="48.07876" lon="2.82826">
        <ele>102</ele>
        <time>2015-11-19T10:40:53Z</time>
      </trkpt>
      <trkpt lat="48.07882" lon="2.8283">
        <ele>102</ele>
        <time>2015-11-19T10:40:54Z</time>
      </trkpt>
      <trkpt lat="48.07888" lon="2.82836">
        <ele>102</ele>
        <time>2015-11-19T10:40:55Z</time>
      </trkpt>
      <trkpt lat="48.07894" lon="2.82841">
        <ele>103</ele>
        <time>2015-11-19T10:40:56Z</time>
      </trkpt>
      <trkpt lat="48.079" lon="2.82845">
        <ele>103</ele>
        <time>2015-11-19T10:40:57Z</time>
      </trkpt>
      <trkpt lat="48.07906" lon="2.8285">
        <ele>103</ele>
        <time>2015-11-19T10:40:58Z</time>
      </trkpt>
      <trkpt lat="48.07912" lon="2.82855">
        <ele>104</ele>
        <time>2015-11-19T10:40:59Z</time>
      </trkpt>
      <trkpt lat="48.07918" lon="2.82859">
        <ele>104</ele>
        <time>2015-11-19T10:41:00Z</time>
      </trkpt>
      <trkpt lat="48.07923" lon="2.82864">
        <ele>104</ele>
        <time>2015-11-19T10:41:01Z</time>
      </trkpt>
      <trkpt lat="48.07929" lon="2.82868">
        <ele>105</ele>
        <time>2015-11-19T10:41:02Z</time>
      </trkpt>
      <trkpt lat="48.07935" lon="2.82872">
        <ele>105</ele>
        <time>2015-11-19T10:41:03Z</time>
      </trkpt>
      <trkpt lat="48.07941" lon="2.82874">
        <ele>105</ele>
        <time>2015-11-19T10:41:04Z</time>
      </trkpt>
      <trkpt lat="48.07946" lon="2.82877">
        <ele>105</ele>
        <time>2015-11-19T10:41:05Z</time>
      </trkpt>
      <trkpt lat="48.07952" lon="2.8288">
        <ele>105</ele>
        <time>2015-11-19T10:41:06Z</time>
      </trkpt>
      <trkpt lat="48.07957" lon="2.82884">
        <ele>105</ele>
        <time>2015-11-19T10:41:07Z</time>
      </trkpt>
      <trkpt lat="48.07961" lon="2.82888">
        <ele>105</ele>
        <time>2015-11-19T10:41:08Z</time>
      </trkpt>
      <trkpt lat="48.07965" lon="2.82892">
        <ele>105</ele>
        <time>2015-11-19T10:41:09Z</time>
      </trkpt>
      <trkpt lat="48.07969" lon="2.82896">
        <ele>105</ele>
        <time>2015-11-19T10:41:10Z</time>
      </trkpt>
      <trkpt lat="48.07973" lon="2.829">
        <ele>105</ele>
        <time>2015-11-19T10:41:11Z</time>
      </trkpt>
      <trkpt lat="48.07977" lon="2.82903">
        <ele>105</ele>
        <time>2015-11-19T10:41:12Z</time>
      </trkpt>
      <trkpt lat="48.07981" lon="2.82907">
        <ele>105</ele>
        <time>2015-11-19T10:41:13Z</time>
      </trkpt>
      <trkpt lat="48.07986" lon="2.8291">
        <ele>105</ele>
        <time>2015-11-19T10:41:14Z</time>
      </trkpt>
      <trkpt lat="48.07991" lon="2.82911">
        <ele>105</ele>
        <time>2015-11-19T10:41:15Z</time>
      </trkpt>
      <trkpt lat="48.07996" lon="2.82909">
        <ele>105</ele>
        <time>2015-11-19T10:41:16Z</time>
      </trkpt>
      <trkpt lat="48.08001" lon="2.82905">
        <ele>105</ele>
        <time>2015-11-19T10:41:17Z</time>
      </trkpt>
      <trkpt lat="48.08005" lon="2.82899">
        <ele>105</ele>
        <time>2015-11-19T10:41:18Z</time>
      </trkpt>
      <trkpt lat="48.0801" lon="2.82893">
        <ele>105</ele>
        <time>2015-11-19T10:41:19Z</time>
      </trkpt>
      <trkpt lat="48.08015" lon="2.82886">
        <ele>105</ele>
        <time>2015-11-19T10:41:20Z</time>
      </trkpt>
      <trkpt lat="48.08021" lon="2.8288">
        <ele>105</ele>
        <time>2015-11-19T10:41:21Z</time>
      </trkpt>
      <trkpt lat="48.08026" lon="2.82874">
        <ele>105</ele>
        <time>2015-11-19T10:41:22Z</time>
      </trkpt>
      <trkpt lat="48.08032" lon="2.82868">
        <ele>105</ele>
        <time>2015-11-19T10:41:23Z</time>
      </trkpt>
      <trkpt lat="48.08038" lon="2.82862">
        <ele>105</ele>
        <time>2015-11-19T10:41:24Z</time>
      </trkpt>
      <trkpt lat="48.08044" lon="2.82856">
        <ele>105</ele>
        <time>2015-11-19T10:41:25Z</time>
      </trkpt>
      <trkpt lat="48.0805" lon="2.82851">
        <ele>105</ele>
        <time>2015-11-19T10:41:26Z</time>
      </trkpt>
      <trkpt lat="48.08056" lon="2.82844">
        <ele>105</ele>
        <time>2015-11-19T10:41:27Z</time>
      </trkpt>
      <trkpt lat="48.08062" lon="2.82838">
        <ele>105</ele>
        <time>2015-11-19T10:41:28Z</time>
      </trkpt>
      <trkpt lat="48.08067" lon="2.82831">
        <ele>105</ele>
        <time>2015-11-19T10:41:29Z</time>
      </trkpt>
      <trkpt lat="48.08073" lon="2.82824">
        <ele>105</ele>
        <time>2015-11-19T10:41:30Z</time>
      </trkpt>
      <trkpt lat="48.08078" lon="2.82817">
        <ele>105</ele>
        <time>2015-11-19T10:41:31Z</time>
      </trkpt>
      <trkpt lat="48.08083" lon="2.8281">
        <ele>105</ele>
        <time>2015-11-19T10:41:32Z</time>
      </trkpt>
      <trkpt lat="48.08089" lon="2.82804">
        <ele>105</ele>
        <time>2015-11-19T10:41:33Z</time>
      </trkpt>
      <trkpt lat="48.08094" lon="2.82798">
        <ele>105</ele>
        <time>2015-11-19T10:41:34Z</time>
      </trkpt>
      <trkpt lat="48.08099" lon="2.82792">
        <ele>105</ele>
        <time>2015-11-19T10:41:35Z</time>
      </trkpt>
      <trkpt lat="48.08103" lon="2.82786">
        <ele>105</ele>
        <time>2015-11-19T10:41:36Z</time>
      </trkpt>
      <trkpt lat="48.08107" lon="2.8278">
        <ele>105</ele>
        <time>2015-11-19T10:41:37Z</time>
      </trkpt>
      <trkpt lat="48.0811" lon="2.82775">
        <ele>105</ele>
        <time>2015-11-19T10:41:38Z</time>
      </trkpt>
      <trkpt lat="48.0811" lon="2.82769">
        <ele>105</ele>
        <time>2015-11-19T10:41:39Z</time>
      </trkpt>
      <trkpt lat="48.08105" lon="2.82758">
        <ele>105</ele>
        <time>2015-11-19T10:41:41Z</time>
      </trkpt>
      <trkpt lat="48.08101" lon="2.82754">
        <ele>105</ele>
        <time>2015-11-19T10:41:42Z</time>
      </trkpt>
      <trkpt lat="48.08097" lon="2.82751">
        <ele>105</ele>
        <time>2015-11-19T10:41:43Z</time>
      </trkpt>
      <trkpt lat="48.08092" lon="2.82748">
        <ele>105</ele>
        <time>2015-11-19T10:41:44Z</time>
      </trkpt>
      <trkpt lat="48.08089" lon="2.82745">
        <ele>105</ele>
        <time>2015-11-19T10:41:45Z</time>
      </trkpt>
      <trkpt lat="48.08086" lon="2.82743">
        <ele>105</ele>
        <time>2015-11-19T10:41:46Z</time>
      </trkpt>
      <trkpt lat="48.08084" lon="2.82739">
        <ele>105</ele>
        <time>2015-11-19T10:41:47Z</time>
      </trkpt>
      <trkpt lat="48.08084" lon="2.82736">
        <ele>105</ele>
        <time>2015-11-19T10:41:48Z</time>
      </trkpt>
      <trkpt lat="48.08085" lon="2.82734">
        <ele>105</ele>
        <time>2015-11-19T10:41:52Z</time>
      </trkpt>
    </trkseg>
  </trk>
</gpx>